<?xml version="1.0" encoding="UTF-8" standalone="no" ?>
<gpx xmlns="http://www.topografix.com/GPX/1/1" creator="https://MapMagic.app" xmlns:xsi="http://www.w3.org/2001/XMLSchema-instance" xsi:schemaLocation="http://www.topografix.com/GPX/1/1 http://www.topografix.com/GPX/1/1/gpx.xsd" version="1.1">
	<wpt lat="54.902277" lon="20.675251">
		<name>КП1</name>
		<type>Generic</type>
	</wpt>
	<wpt lat="54.876480" lon="21.649278">
		<name>КП2</name>
		<type>Generic</type>
	</wpt>
	<wpt lat="54.591225" lon="22.196428">
		<name>КП3/КП6</name>
		<type>Generic</type>
	</wpt>
	<wpt lat="54.634480" lon="22.566326">
		<name>КП4</name>
		<type>Generic</type>
	</wpt>
	<wpt lat="55.038489" lon="22.028600">
		<name>КП5</name>
		<type>Generic</type>
	</wpt>
	<wpt lat="54.618847" lon="21.227866">
		<name>КП7</name>
		<type>Generic</type>
	</wpt>
	<wpt lat="54.386596" lon="20.639486">
		<name>КП8</name>
		<type>Generic</type>
	</wpt>
	<trk>
		<name>1000_Гусевский_2026</name>
		<desc>1000_Гусевский_2026</desc>
		<trkseg>
			<trkpt lat="54.760050" lon="20.440570"><ele>31.2</ele><time>2026-06-04T09:16:47Z</time></trkpt>
			<trkpt lat="54.760050" lon="20.440570"><ele>31.2</ele><time>2026-06-04T09:16:49Z</time></trkpt>
			<trkpt lat="54.759800" lon="20.440130"><ele>31.1</ele><time>2026-06-04T09:16:52Z</time></trkpt>
			<trkpt lat="54.759370" lon="20.439390"><ele>30.8</ele><time>2026-06-04T09:16:54Z</time></trkpt>
			<trkpt lat="54.759320" lon="20.439320"><ele>30.7</ele><time>2026-06-04T09:16:57Z</time></trkpt>
			<trkpt lat="54.759310" lon="20.439270"><ele>30.7</ele><time>2026-06-04T09:16:59Z</time></trkpt>
			<trkpt lat="54.759310" lon="20.439200"><ele>30.7</ele><time>2026-06-04T09:17:02Z</time></trkpt>
			<trkpt lat="54.759320" lon="20.439090"><ele>30.7</ele><time>2026-06-04T09:17:04Z</time></trkpt>
			<trkpt lat="54.759360" lon="20.439020"><ele>30.6</ele><time>2026-06-04T09:17:07Z</time></trkpt>
			<trkpt lat="54.760160" lon="20.437560"><ele>30.0</ele><time>2026-06-04T09:17:10Z</time></trkpt>
			<trkpt lat="54.760740" lon="20.436610"><ele>29.6</ele><time>2026-06-04T09:17:12Z</time></trkpt>
			<trkpt lat="54.760760" lon="20.436570"><ele>29.6</ele><time>2026-06-04T09:17:15Z</time></trkpt>
			<trkpt lat="54.761220" lon="20.435760"><ele>29.3</ele><time>2026-06-04T09:17:17Z</time></trkpt>
			<trkpt lat="54.761270" lon="20.435670"><ele>29.2</ele><time>2026-06-04T09:17:20Z</time></trkpt>
			<trkpt lat="54.761270" lon="20.435670"><ele>29.2</ele><time>2026-06-04T09:17:26Z</time></trkpt>
			<trkpt lat="54.761340" lon="20.435580"><ele>29.2</ele><time>2026-06-04T09:17:32Z</time></trkpt>
			<trkpt lat="54.762290" lon="20.434110"><ele>28.6</ele><time>2026-06-04T09:17:38Z</time></trkpt>
			<trkpt lat="54.762560" lon="20.433690"><ele>28.4</ele><time>2026-06-04T09:17:44Z</time></trkpt>
			<trkpt lat="54.762610" lon="20.433610"><ele>28.3</ele><time>2026-06-04T09:17:50Z</time></trkpt>
			<trkpt lat="54.762650" lon="20.433540"><ele>28.3</ele><time>2026-06-04T09:17:57Z</time></trkpt>
			<trkpt lat="54.762950" lon="20.433060"><ele>28.1</ele><time>2026-06-04T09:18:03Z</time></trkpt>
			<trkpt lat="54.763350" lon="20.432410"><ele>27.8</ele><time>2026-06-04T09:18:09Z</time></trkpt>
			<trkpt lat="54.763430" lon="20.432160"><ele>27.7</ele><time>2026-06-04T09:18:15Z</time></trkpt>
			<trkpt lat="54.763430" lon="20.432000"><ele>27.7</ele><time>2026-06-04T09:18:21Z</time></trkpt>
			<trkpt lat="54.763420" lon="20.431840"><ele>27.6</ele><time>2026-06-04T09:18:27Z</time></trkpt>
			<trkpt lat="54.763330" lon="20.431340"><ele>27.5</ele><time>2026-06-04T09:18:34Z</time></trkpt>
			<trkpt lat="54.762120" lon="20.425030"><ele>27.0</ele><time>2026-06-04T09:18:40Z</time></trkpt>
			<trkpt lat="54.760690" lon="20.418090"><ele>27.7</ele><time>2026-06-04T09:18:46Z</time></trkpt>
			<trkpt lat="54.759900" lon="20.415230"><ele>28.0</ele><time>2026-06-04T09:18:52Z</time></trkpt>
			<trkpt lat="54.759640" lon="20.414210"><ele>28.1</ele><time>2026-06-04T09:18:58Z</time></trkpt>
			<trkpt lat="54.759450" lon="20.413020"><ele>28.2</ele><time>2026-06-04T09:19:04Z</time></trkpt>
			<trkpt lat="54.759370" lon="20.412330"><ele>28.2</ele><time>2026-06-04T09:19:11Z</time></trkpt>
			<trkpt lat="54.759350" lon="20.411600"><ele>28.2</ele><time>2026-06-04T09:19:17Z</time></trkpt>
			<trkpt lat="54.759370" lon="20.411040"><ele>28.2</ele><time>2026-06-04T09:19:23Z</time></trkpt>
			<trkpt lat="54.759390" lon="20.410590"><ele>28.3</ele><time>2026-06-04T09:19:29Z</time></trkpt>
			<trkpt lat="54.759480" lon="20.407870"><ele>28.4</ele><time>2026-06-04T09:19:35Z</time></trkpt>
			<trkpt lat="54.759590" lon="20.404320"><ele>28.5</ele><time>2026-06-04T09:19:41Z</time></trkpt>
			<trkpt lat="54.759760" lon="20.398550"><ele>28.7</ele><time>2026-06-04T09:19:48Z</time></trkpt>
			<trkpt lat="54.759790" lon="20.396970"><ele>28.7</ele><time>2026-06-04T09:19:54Z</time></trkpt>
			<trkpt lat="54.759780" lon="20.396020"><ele>28.7</ele><time>2026-06-04T09:20:00Z</time></trkpt>
			<trkpt lat="54.759760" lon="20.395760"><ele>28.7</ele><time>2026-06-04T09:20:06Z</time></trkpt>
			<trkpt lat="54.759710" lon="20.395240"><ele>28.7</ele><time>2026-06-04T09:20:12Z</time></trkpt>
			<trkpt lat="54.759610" lon="20.394510"><ele>28.7</ele><time>2026-06-04T09:20:18Z</time></trkpt>
			<trkpt lat="54.759510" lon="20.393970"><ele>28.7</ele><time>2026-06-04T09:20:25Z</time></trkpt>
			<trkpt lat="54.759300" lon="20.393040"><ele>28.7</ele><time>2026-06-04T09:20:31Z</time></trkpt>
			<trkpt lat="54.757410" lon="20.383640"><ele>28.6</ele><time>2026-06-04T09:20:37Z</time></trkpt>
			<trkpt lat="54.756730" lon="20.380310"><ele>28.5</ele><time>2026-06-04T09:20:43Z</time></trkpt>
			<trkpt lat="54.756490" lon="20.379150"><ele>28.4</ele><time>2026-06-04T09:20:49Z</time></trkpt>
			<trkpt lat="54.756290" lon="20.378030"><ele>28.3</ele><time>2026-06-04T09:20:55Z</time></trkpt>
			<trkpt lat="54.756250" lon="20.377710"><ele>28.3</ele><time>2026-06-04T09:21:02Z</time></trkpt>
			<trkpt lat="54.756230" lon="20.377300"><ele>28.3</ele><time>2026-06-04T09:21:08Z</time></trkpt>
			<trkpt lat="54.755930" lon="20.368140"><ele>27.9</ele><time>2026-06-04T09:21:14Z</time></trkpt>
			<trkpt lat="54.755740" lon="20.363120"><ele>27.5</ele><time>2026-06-04T09:21:20Z</time></trkpt>
			<trkpt lat="54.755730" lon="20.362550"><ele>27.4</ele><time>2026-06-04T09:21:26Z</time></trkpt>
			<trkpt lat="54.755590" lon="20.358430"><ele>27.1</ele><time>2026-06-04T09:21:32Z</time></trkpt>
			<trkpt lat="54.755450" lon="20.353030"><ele>26.7</ele><time>2026-06-04T09:21:39Z</time></trkpt>
			<trkpt lat="54.755250" lon="20.347590"><ele>29.7</ele><time>2026-06-04T09:21:45Z</time></trkpt>
			<trkpt lat="54.755240" lon="20.347300"><ele>29.8</ele><time>2026-06-04T09:21:51Z</time></trkpt>
			<trkpt lat="54.755240" lon="20.346600"><ele>30.2</ele><time>2026-06-04T09:21:57Z</time></trkpt>
			<trkpt lat="54.755310" lon="20.345840"><ele>30.6</ele><time>2026-06-04T09:22:03Z</time></trkpt>
			<trkpt lat="54.755470" lon="20.344990"><ele>31.1</ele><time>2026-06-04T09:22:10Z</time></trkpt>
			<trkpt lat="54.755910" lon="20.342580"><ele>32.5</ele><time>2026-06-04T09:22:16Z</time></trkpt>
			<trkpt lat="54.756010" lon="20.341900"><ele>32.9</ele><time>2026-06-04T09:22:22Z</time></trkpt>
			<trkpt lat="54.756200" lon="20.340330"><ele>33.8</ele><time>2026-06-04T09:22:28Z</time></trkpt>
			<trkpt lat="54.756470" lon="20.338640"><ele>34.8</ele><time>2026-06-04T09:22:34Z</time></trkpt>
			<trkpt lat="54.756490" lon="20.338520"><ele>34.9</ele><time>2026-06-04T09:22:40Z</time></trkpt>
			<trkpt lat="54.756540" lon="20.338290"><ele>35.0</ele><time>2026-06-04T09:22:47Z</time></trkpt>
			<trkpt lat="54.756580" lon="20.338120"><ele>35.1</ele><time>2026-06-04T09:22:53Z</time></trkpt>
			<trkpt lat="54.756710" lon="20.337830"><ele>35.3</ele><time>2026-06-04T09:22:59Z</time></trkpt>
			<trkpt lat="54.757580" lon="20.336060"><ele>34.5</ele><time>2026-06-04T09:23:05Z</time></trkpt>
			<trkpt lat="54.758450" lon="20.334310"><ele>33.6</ele><time>2026-06-04T09:23:11Z</time></trkpt>
			<trkpt lat="54.759690" lon="20.331800"><ele>32.3</ele><time>2026-06-04T09:23:17Z</time></trkpt>
			<trkpt lat="54.760940" lon="20.329320"><ele>31.0</ele><time>2026-06-04T09:23:24Z</time></trkpt>
			<trkpt lat="54.761150" lon="20.328890"><ele>30.8</ele><time>2026-06-04T09:23:30Z</time></trkpt>
			<trkpt lat="54.757440" lon="20.320880"><ele>25.5</ele><time>2026-06-04T09:23:36Z</time></trkpt>
			<trkpt lat="54.754110" lon="20.313660"><ele>19.9</ele><time>2026-06-04T09:23:42Z</time></trkpt>
			<trkpt lat="54.749580" lon="20.303840"><ele>11.0</ele><time>2026-06-04T09:23:48Z</time></trkpt>
			<trkpt lat="54.749010" lon="20.302620"><ele>9.9</ele><time>2026-06-04T09:23:54Z</time></trkpt>
			<trkpt lat="54.748940" lon="20.302280"><ele>9.6</ele><time>2026-06-04T09:24:01Z</time></trkpt>
			<trkpt lat="54.748980" lon="20.300990"><ele>8.9</ele><time>2026-06-04T09:24:07Z</time></trkpt>
			<trkpt lat="54.749030" lon="20.300590"><ele>9.0</ele><time>2026-06-04T09:24:13Z</time></trkpt>
			<trkpt lat="54.749120" lon="20.300330"><ele>9.0</ele><time>2026-06-04T09:24:19Z</time></trkpt>
			<trkpt lat="54.749320" lon="20.299820"><ele>9.1</ele><time>2026-06-04T09:24:25Z</time></trkpt>
			<trkpt lat="54.749400" lon="20.299540"><ele>9.1</ele><time>2026-06-04T09:24:31Z</time></trkpt>
			<trkpt lat="54.749490" lon="20.299110"><ele>9.2</ele><time>2026-06-04T09:24:38Z</time></trkpt>
			<trkpt lat="54.749490" lon="20.298670"><ele>9.3</ele><time>2026-06-04T09:24:44Z</time></trkpt>
			<trkpt lat="54.749420" lon="20.296700"><ele>9.6</ele><time>2026-06-04T09:24:50Z</time></trkpt>
			<trkpt lat="54.749420" lon="20.296350"><ele>9.6</ele><time>2026-06-04T09:24:56Z</time></trkpt>
			<trkpt lat="54.749400" lon="20.295880"><ele>9.7</ele><time>2026-06-04T09:25:02Z</time></trkpt>
			<trkpt lat="54.749350" lon="20.295630"><ele>9.7</ele><time>2026-06-04T09:25:08Z</time></trkpt>
			<trkpt lat="54.749260" lon="20.295250"><ele>9.8</ele><time>2026-06-04T09:25:15Z</time></trkpt>
			<trkpt lat="54.749110" lon="20.294760"><ele>9.9</ele><time>2026-06-04T09:25:21Z</time></trkpt>
			<trkpt lat="54.749050" lon="20.294520"><ele>9.9</ele><time>2026-06-04T09:25:27Z</time></trkpt>
			<trkpt lat="54.749020" lon="20.294240"><ele>10.0</ele><time>2026-06-04T09:25:33Z</time></trkpt>
			<trkpt lat="54.749020" lon="20.293910"><ele>10.0</ele><time>2026-06-04T09:25:39Z</time></trkpt>
			<trkpt lat="54.749140" lon="20.292120"><ele>10.3</ele><time>2026-06-04T09:25:45Z</time></trkpt>
			<trkpt lat="54.749140" lon="20.291610"><ele>10.3</ele><time>2026-06-04T09:25:52Z</time></trkpt>
			<trkpt lat="54.749100" lon="20.291190"><ele>10.4</ele><time>2026-06-04T09:25:58Z</time></trkpt>
			<trkpt lat="54.748950" lon="20.290060"><ele>10.6</ele><time>2026-06-04T09:26:04Z</time></trkpt>
			<trkpt lat="54.748440" lon="20.286130"><ele>11.2</ele><time>2026-06-04T09:26:10Z</time></trkpt>
			<trkpt lat="54.748360" lon="20.285520"><ele>11.2</ele><time>2026-06-04T09:26:16Z</time></trkpt>
			<trkpt lat="54.748300" lon="20.285070"><ele>11.2</ele><time>2026-06-04T09:26:22Z</time></trkpt>
			<trkpt lat="54.748270" lon="20.284820"><ele>11.2</ele><time>2026-06-04T09:26:29Z</time></trkpt>
			<trkpt lat="54.748170" lon="20.284060"><ele>11.2</ele><time>2026-06-04T09:26:35Z</time></trkpt>
			<trkpt lat="54.747920" lon="20.282040"><ele>11.2</ele><time>2026-06-04T09:26:41Z</time></trkpt>
			<trkpt lat="54.747840" lon="20.281520"><ele>11.2</ele><time>2026-06-04T09:26:47Z</time></trkpt>
			<trkpt lat="54.747780" lon="20.281230"><ele>11.2</ele><time>2026-06-04T09:26:53Z</time></trkpt>
			<trkpt lat="54.747700" lon="20.280980"><ele>11.2</ele><time>2026-06-04T09:26:59Z</time></trkpt>
			<trkpt lat="54.747620" lon="20.280800"><ele>11.2</ele><time>2026-06-04T09:27:06Z</time></trkpt>
			<trkpt lat="54.747140" lon="20.279530"><ele>11.2</ele><time>2026-06-04T09:27:12Z</time></trkpt>
			<trkpt lat="54.747030" lon="20.279220"><ele>11.2</ele><time>2026-06-04T09:27:18Z</time></trkpt>
			<trkpt lat="54.746720" lon="20.278370"><ele>11.2</ele><time>2026-06-04T09:27:24Z</time></trkpt>
			<trkpt lat="54.746400" lon="20.277510"><ele>11.2</ele><time>2026-06-04T09:27:30Z</time></trkpt>
			<trkpt lat="54.746170" lon="20.276870"><ele>11.2</ele><time>2026-06-04T09:27:36Z</time></trkpt>
			<trkpt lat="54.746010" lon="20.276460"><ele>11.2</ele><time>2026-06-04T09:27:43Z</time></trkpt>
			<trkpt lat="54.745930" lon="20.276270"><ele>11.2</ele><time>2026-06-04T09:27:49Z</time></trkpt>
			<trkpt lat="54.745750" lon="20.275780"><ele>11.2</ele><time>2026-06-04T09:27:55Z</time></trkpt>
			<trkpt lat="54.745710" lon="20.275640"><ele>11.2</ele><time>2026-06-04T09:28:01Z</time></trkpt>
			<trkpt lat="54.745670" lon="20.275460"><ele>11.2</ele><time>2026-06-04T09:28:07Z</time></trkpt>
			<trkpt lat="54.745630" lon="20.275200"><ele>11.2</ele><time>2026-06-04T09:28:13Z</time></trkpt>
			<trkpt lat="54.745450" lon="20.273640"><ele>11.2</ele><time>2026-06-04T09:28:20Z</time></trkpt>
			<trkpt lat="54.745310" lon="20.272310"><ele>11.3</ele><time>2026-06-04T09:28:26Z</time></trkpt>
			<trkpt lat="54.745100" lon="20.270490"><ele>12.1</ele><time>2026-06-04T09:28:32Z</time></trkpt>
			<trkpt lat="54.744750" lon="20.267360"><ele>14.1</ele><time>2026-06-04T09:28:38Z</time></trkpt>
			<trkpt lat="54.744610" lon="20.266270"><ele>14.8</ele><time>2026-06-04T09:28:44Z</time></trkpt>
			<trkpt lat="54.744100" lon="20.261670"><ele>17.8</ele><time>2026-06-04T09:28:50Z</time></trkpt>
			<trkpt lat="54.743940" lon="20.259860"><ele>19.0</ele><time>2026-06-04T09:28:57Z</time></trkpt>
			<trkpt lat="54.743920" lon="20.259450"><ele>19.2</ele><time>2026-06-04T09:29:03Z</time></trkpt>
			<trkpt lat="54.743910" lon="20.259290"><ele>19.3</ele><time>2026-06-04T09:29:09Z</time></trkpt>
			<trkpt lat="54.743800" lon="20.258860"><ele>19.6</ele><time>2026-06-04T09:29:15Z</time></trkpt>
			<trkpt lat="54.743420" lon="20.258280"><ele>20.2</ele><time>2026-06-04T09:29:21Z</time></trkpt>
			<trkpt lat="54.742930" lon="20.257600"><ele>20.9</ele><time>2026-06-04T09:29:27Z</time></trkpt>
			<trkpt lat="54.742840" lon="20.257360"><ele>21.1</ele><time>2026-06-04T09:29:34Z</time></trkpt>
			<trkpt lat="54.742770" lon="20.257080"><ele>21.2</ele><time>2026-06-04T09:29:40Z</time></trkpt>
			<trkpt lat="54.742730" lon="20.256650"><ele>21.3</ele><time>2026-06-04T09:29:46Z</time></trkpt>
			<trkpt lat="54.742710" lon="20.256040"><ele>21.4</ele><time>2026-06-04T09:29:52Z</time></trkpt>
			<trkpt lat="54.742620" lon="20.253680"><ele>21.8</ele><time>2026-06-04T09:29:58Z</time></trkpt>
			<trkpt lat="54.742610" lon="20.252610"><ele>22.0</ele><time>2026-06-04T09:30:04Z</time></trkpt>
			<trkpt lat="54.742660" lon="20.252160"><ele>22.1</ele><time>2026-06-04T09:30:11Z</time></trkpt>
			<trkpt lat="54.743370" lon="20.249860"><ele>22.6</ele><time>2026-06-04T09:30:17Z</time></trkpt>
			<trkpt lat="54.743940" lon="20.248090"><ele>22.9</ele><time>2026-06-04T09:30:23Z</time></trkpt>
			<trkpt lat="54.744140" lon="20.247400"><ele>23.1</ele><time>2026-06-04T09:30:29Z</time></trkpt>
			<trkpt lat="54.744310" lon="20.246850"><ele>23.2</ele><time>2026-06-04T09:30:35Z</time></trkpt>
			<trkpt lat="54.744720" lon="20.245350"><ele>23.5</ele><time>2026-06-04T09:30:42Z</time></trkpt>
			<trkpt lat="54.746430" lon="20.239760"><ele>20.8</ele><time>2026-06-04T09:30:48Z</time></trkpt>
			<trkpt lat="54.747270" lon="20.237040"><ele>18.0</ele><time>2026-06-04T09:30:54Z</time></trkpt>
			<trkpt lat="54.747420" lon="20.236500"><ele>17.5</ele><time>2026-06-04T09:31:00Z</time></trkpt>
			<trkpt lat="54.747480" lon="20.236320"><ele>17.3</ele><time>2026-06-04T09:31:06Z</time></trkpt>
			<trkpt lat="54.747670" lon="20.235770"><ele>16.7</ele><time>2026-06-04T09:31:12Z</time></trkpt>
			<trkpt lat="54.747770" lon="20.235340"><ele>16.3</ele><time>2026-06-04T09:31:19Z</time></trkpt>
			<trkpt lat="54.747840" lon="20.234830"><ele>15.8</ele><time>2026-06-04T09:31:25Z</time></trkpt>
			<trkpt lat="54.748210" lon="20.230860"><ele>12.2</ele><time>2026-06-04T09:31:31Z</time></trkpt>
			<trkpt lat="54.748520" lon="20.227550"><ele>10.3</ele><time>2026-06-04T09:31:37Z</time></trkpt>
			<trkpt lat="54.748630" lon="20.226540"><ele>10.7</ele><time>2026-06-04T09:31:43Z</time></trkpt>
			<trkpt lat="54.748750" lon="20.225260"><ele>11.2</ele><time>2026-06-04T09:31:49Z</time></trkpt>
			<trkpt lat="54.748900" lon="20.223630"><ele>11.8</ele><time>2026-06-04T09:31:56Z</time></trkpt>
			<trkpt lat="54.749140" lon="20.221230"><ele>12.8</ele><time>2026-06-04T09:32:02Z</time></trkpt>
			<trkpt lat="54.749290" lon="20.219520"><ele>13.4</ele><time>2026-06-04T09:32:08Z</time></trkpt>
			<trkpt lat="54.749360" lon="20.218330"><ele>13.9</ele><time>2026-06-04T09:32:14Z</time></trkpt>
			<trkpt lat="54.749410" lon="20.216990"><ele>14.4</ele><time>2026-06-04T09:32:20Z</time></trkpt>
			<trkpt lat="54.749480" lon="20.215410"><ele>15.0</ele><time>2026-06-04T09:32:26Z</time></trkpt>
			<trkpt lat="54.749720" lon="20.209550"><ele>16.7</ele><time>2026-06-04T09:32:33Z</time></trkpt>
			<trkpt lat="54.749900" lon="20.205800"><ele>17.5</ele><time>2026-06-04T09:32:39Z</time></trkpt>
			<trkpt lat="54.750250" lon="20.197470"><ele>19.1</ele><time>2026-06-04T09:32:45Z</time></trkpt>
			<trkpt lat="54.750300" lon="20.196230"><ele>19.3</ele><time>2026-06-04T09:32:51Z</time></trkpt>
			<trkpt lat="54.750300" lon="20.196060"><ele>19.4</ele><time>2026-06-04T09:32:57Z</time></trkpt>
			<trkpt lat="54.750370" lon="20.194340"><ele>19.6</ele><time>2026-06-04T09:33:03Z</time></trkpt>
			<trkpt lat="54.750450" lon="20.192240"><ele>20.0</ele><time>2026-06-04T09:33:10Z</time></trkpt>
			<trkpt lat="54.750460" lon="20.192110"><ele>20.0</ele><time>2026-06-04T09:33:16Z</time></trkpt>
			<trkpt lat="54.750480" lon="20.192050"><ele>20.0</ele><time>2026-06-04T09:33:22Z</time></trkpt>
			<trkpt lat="54.750510" lon="20.192000"><ele>20.0</ele><time>2026-06-04T09:33:28Z</time></trkpt>
			<trkpt lat="54.750560" lon="20.191970"><ele>20.0</ele><time>2026-06-04T09:33:34Z</time></trkpt>
			<trkpt lat="54.750630" lon="20.191970"><ele>20.0</ele><time>2026-06-04T09:33:40Z</time></trkpt>
			<trkpt lat="54.750730" lon="20.192070"><ele>20.1</ele><time>2026-06-04T09:33:47Z</time></trkpt>
			<trkpt lat="54.751070" lon="20.192490"><ele>20.2</ele><time>2026-06-04T09:33:53Z</time></trkpt>
			<trkpt lat="54.751070" lon="20.192480"><ele>20.2</ele><time>2026-06-04T09:34:01Z</time></trkpt>
			<trkpt lat="54.752390" lon="20.194060"><ele>20.6</ele><time>2026-06-04T09:34:10Z</time></trkpt>
			<trkpt lat="54.753570" lon="20.195420"><ele>21.0</ele><time>2026-06-04T09:34:18Z</time></trkpt>
			<trkpt lat="54.754270" lon="20.196240"><ele>21.2</ele><time>2026-06-04T09:34:27Z</time></trkpt>
			<trkpt lat="54.754600" lon="20.196620"><ele>21.3</ele><time>2026-06-04T09:34:36Z</time></trkpt>
			<trkpt lat="54.760050" lon="20.203090"><ele>30.7</ele><time>2026-06-04T09:34:44Z</time></trkpt>
			<trkpt lat="54.760990" lon="20.204210"><ele>32.5</ele><time>2026-06-04T09:34:53Z</time></trkpt>
			<trkpt lat="54.761970" lon="20.205430"><ele>34.4</ele><time>2026-06-04T09:35:01Z</time></trkpt>
			<trkpt lat="54.762910" lon="20.206520"><ele>36.1</ele><time>2026-06-04T09:35:10Z</time></trkpt>
			<trkpt lat="54.763100" lon="20.206740"><ele>36.2</ele><time>2026-06-04T09:35:18Z</time></trkpt>
			<trkpt lat="54.764070" lon="20.207850"><ele>36.6</ele><time>2026-06-04T09:35:27Z</time></trkpt>
			<trkpt lat="54.764150" lon="20.207900"><ele>36.7</ele><time>2026-06-04T09:35:36Z</time></trkpt>
			<trkpt lat="54.764450" lon="20.208100"><ele>36.8</ele><time>2026-06-04T09:35:44Z</time></trkpt>
			<trkpt lat="54.765170" lon="20.208600"><ele>37.1</ele><time>2026-06-04T09:35:53Z</time></trkpt>
			<trkpt lat="54.765240" lon="20.208780"><ele>37.2</ele><time>2026-06-04T09:36:01Z</time></trkpt>
			<trkpt lat="54.765400" lon="20.209280"><ele>37.3</ele><time>2026-06-04T09:36:10Z</time></trkpt>
			<trkpt lat="54.765800" lon="20.210610"><ele>37.6</ele><time>2026-06-04T09:36:18Z</time></trkpt>
			<trkpt lat="54.766000" lon="20.211100"><ele>37.8</ele><time>2026-06-04T09:36:27Z</time></trkpt>
			<trkpt lat="54.766260" lon="20.211340"><ele>37.9</ele><time>2026-06-04T09:36:36Z</time></trkpt>
			<trkpt lat="54.766410" lon="20.211530"><ele>38.0</ele><time>2026-06-04T09:36:44Z</time></trkpt>
			<trkpt lat="54.766540" lon="20.211780"><ele>38.0</ele><time>2026-06-04T09:36:53Z</time></trkpt>
			<trkpt lat="54.766720" lon="20.212460"><ele>38.2</ele><time>2026-06-04T09:37:01Z</time></trkpt>
			<trkpt lat="54.766750" lon="20.212580"><ele>38.3</ele><time>2026-06-04T09:37:10Z</time></trkpt>
			<trkpt lat="54.766890" lon="20.212960"><ele>38.4</ele><time>2026-06-04T09:37:18Z</time></trkpt>
			<trkpt lat="54.767100" lon="20.213160"><ele>38.5</ele><time>2026-06-04T09:37:27Z</time></trkpt>
			<trkpt lat="54.767350" lon="20.213260"><ele>38.6</ele><time>2026-06-04T09:37:36Z</time></trkpt>
			<trkpt lat="54.767670" lon="20.213290"><ele>38.7</ele><time>2026-06-04T09:37:44Z</time></trkpt>
			<trkpt lat="54.768360" lon="20.213280"><ele>39.0</ele><time>2026-06-04T09:37:53Z</time></trkpt>
			<trkpt lat="54.770390" lon="20.213240"><ele>40.1</ele><time>2026-06-04T09:38:01Z</time></trkpt>
			<trkpt lat="54.771960" lon="20.213220"><ele>42.1</ele><time>2026-06-04T09:38:10Z</time></trkpt>
			<trkpt lat="54.773260" lon="20.213270"><ele>43.7</ele><time>2026-06-04T09:38:18Z</time></trkpt>
			<trkpt lat="54.773820" lon="20.213330"><ele>44.4</ele><time>2026-06-04T09:38:27Z</time></trkpt>
			<trkpt lat="54.773970" lon="20.213350"><ele>44.6</ele><time>2026-06-04T09:38:36Z</time></trkpt>
			<trkpt lat="54.774630" lon="20.213170"><ele>45.5</ele><time>2026-06-04T09:38:44Z</time></trkpt>
			<trkpt lat="54.776040" lon="20.212980"><ele>47.2</ele><time>2026-06-04T09:38:53Z</time></trkpt>
			<trkpt lat="54.776570" lon="20.213010"><ele>47.9</ele><time>2026-06-04T09:39:01Z</time></trkpt>
			<trkpt lat="54.777240" lon="20.213190"><ele>48.8</ele><time>2026-06-04T09:39:10Z</time></trkpt>
			<trkpt lat="54.777410" lon="20.213220"><ele>49.0</ele><time>2026-06-04T09:39:18Z</time></trkpt>
			<trkpt lat="54.777650" lon="20.213290"><ele>49.3</ele><time>2026-06-04T09:39:27Z</time></trkpt>
			<trkpt lat="54.778410" lon="20.213460"><ele>50.3</ele><time>2026-06-04T09:39:36Z</time></trkpt>
			<trkpt lat="54.780470" lon="20.214010"><ele>50.9</ele><time>2026-06-04T09:39:44Z</time></trkpt>
			<trkpt lat="54.780760" lon="20.214020"><ele>50.9</ele><time>2026-06-04T09:39:53Z</time></trkpt>
			<trkpt lat="54.781090" lon="20.213860"><ele>50.9</ele><time>2026-06-04T09:40:01Z</time></trkpt>
			<trkpt lat="54.781370" lon="20.213590"><ele>50.9</ele><time>2026-06-04T09:40:10Z</time></trkpt>
			<trkpt lat="54.781810" lon="20.213160"><ele>50.8</ele><time>2026-06-04T09:40:19Z</time></trkpt>
			<trkpt lat="54.782960" lon="20.211820"><ele>50.8</ele><time>2026-06-04T09:40:27Z</time></trkpt>
			<trkpt lat="54.783340" lon="20.211420"><ele>50.7</ele><time>2026-06-04T09:40:36Z</time></trkpt>
			<trkpt lat="54.785500" lon="20.208940"><ele>50.6</ele><time>2026-06-04T09:40:44Z</time></trkpt>
			<trkpt lat="54.786880" lon="20.207300"><ele>50.5</ele><time>2026-06-04T09:40:53Z</time></trkpt>
			<trkpt lat="54.787140" lon="20.207000"><ele>50.3</ele><time>2026-06-04T09:41:01Z</time></trkpt>
			<trkpt lat="54.787600" lon="20.206490"><ele>50.0</ele><time>2026-06-04T09:41:10Z</time></trkpt>
			<trkpt lat="54.790160" lon="20.203560"><ele>48.3</ele><time>2026-06-04T09:41:19Z</time></trkpt>
			<trkpt lat="54.790530" lon="20.203140"><ele>48.0</ele><time>2026-06-04T09:41:27Z</time></trkpt>
			<trkpt lat="54.790900" lon="20.202670"><ele>47.8</ele><time>2026-06-04T09:41:36Z</time></trkpt>
			<trkpt lat="54.790990" lon="20.202560"><ele>47.7</ele><time>2026-06-04T09:41:44Z</time></trkpt>
			<trkpt lat="54.791150" lon="20.202180"><ele>47.6</ele><time>2026-06-04T09:41:53Z</time></trkpt>
			<trkpt lat="54.791220" lon="20.201920"><ele>47.5</ele><time>2026-06-04T09:42:01Z</time></trkpt>
			<trkpt lat="54.791360" lon="20.200820"><ele>47.1</ele><time>2026-06-04T09:42:10Z</time></trkpt>
			<trkpt lat="54.791510" lon="20.200030"><ele>46.8</ele><time>2026-06-04T09:42:19Z</time></trkpt>
			<trkpt lat="54.791720" lon="20.199730"><ele>46.7</ele><time>2026-06-04T09:42:27Z</time></trkpt>
			<trkpt lat="54.793340" lon="20.198800"><ele>45.7</ele><time>2026-06-04T09:42:36Z</time></trkpt>
			<trkpt lat="54.794240" lon="20.198170"><ele>44.6</ele><time>2026-06-04T09:42:44Z</time></trkpt>
			<trkpt lat="54.795360" lon="20.196930"><ele>42.3</ele><time>2026-06-04T09:42:53Z</time></trkpt>
			<trkpt lat="54.796320" lon="20.195840"><ele>40.4</ele><time>2026-06-04T09:43:01Z</time></trkpt>
			<trkpt lat="54.797420" lon="20.194520"><ele>38.1</ele><time>2026-06-04T09:43:10Z</time></trkpt>
			<trkpt lat="54.798000" lon="20.193830"><ele>36.9</ele><time>2026-06-04T09:43:19Z</time></trkpt>
			<trkpt lat="54.799550" lon="20.192250"><ele>33.8</ele><time>2026-06-04T09:43:27Z</time></trkpt>
			<trkpt lat="54.800440" lon="20.191450"><ele>32.1</ele><time>2026-06-04T09:43:36Z</time></trkpt>
			<trkpt lat="54.805090" lon="20.187370"><ele>29.4</ele><time>2026-06-04T09:43:44Z</time></trkpt>
			<trkpt lat="54.806410" lon="20.186140"><ele>29.2</ele><time>2026-06-04T09:43:53Z</time></trkpt>
			<trkpt lat="54.806620" lon="20.185930"><ele>29.2</ele><time>2026-06-04T09:44:01Z</time></trkpt>
			<trkpt lat="54.808360" lon="20.184310"><ele>28.9</ele><time>2026-06-04T09:44:10Z</time></trkpt>
			<trkpt lat="54.809360" lon="20.183400"><ele>28.7</ele><time>2026-06-04T09:44:19Z</time></trkpt>
			<trkpt lat="54.811320" lon="20.181710"><ele>28.9</ele><time>2026-06-04T09:44:27Z</time></trkpt>
			<trkpt lat="54.811360" lon="20.181670"><ele>28.9</ele><time>2026-06-04T09:44:36Z</time></trkpt>
			<trkpt lat="54.812960" lon="20.180220"><ele>29.2</ele><time>2026-06-04T09:44:44Z</time></trkpt>
			<trkpt lat="54.814220" lon="20.179100"><ele>29.3</ele><time>2026-06-04T09:44:53Z</time></trkpt>
			<trkpt lat="54.814640" lon="20.178780"><ele>29.4</ele><time>2026-06-04T09:45:01Z</time></trkpt>
			<trkpt lat="54.814710" lon="20.178770"><ele>29.4</ele><time>2026-06-04T09:45:10Z</time></trkpt>
			<trkpt lat="54.814790" lon="20.174080"><ele>29.7</ele><time>2026-06-04T09:45:19Z</time></trkpt>
			<trkpt lat="54.814880" lon="20.170000"><ele>28.8</ele><time>2026-06-04T09:45:27Z</time></trkpt>
			<trkpt lat="54.814900" lon="20.166850"><ele>28.0</ele><time>2026-06-04T09:45:36Z</time></trkpt>
			<trkpt lat="54.814900" lon="20.166470"><ele>27.9</ele><time>2026-06-04T09:45:44Z</time></trkpt>
			<trkpt lat="54.814890" lon="20.165810"><ele>27.7</ele><time>2026-06-04T09:45:53Z</time></trkpt>
			<trkpt lat="54.814770" lon="20.164510"><ele>27.3</ele><time>2026-06-04T09:46:01Z</time></trkpt>
			<trkpt lat="54.814070" lon="20.156850"><ele>25.4</ele><time>2026-06-04T09:46:10Z</time></trkpt>
			<trkpt lat="54.815000" lon="20.156280"><ele>25.4</ele><time>2026-06-04T09:46:19Z</time></trkpt>
			<trkpt lat="54.818370" lon="20.154130"><ele>25.5</ele><time>2026-06-04T09:46:27Z</time></trkpt>
			<trkpt lat="54.819210" lon="20.153240"><ele>25.5</ele><time>2026-06-04T09:46:36Z</time></trkpt>
			<trkpt lat="54.819340" lon="20.153080"><ele>25.5</ele><time>2026-06-04T09:46:44Z</time></trkpt>
			<trkpt lat="54.822600" lon="20.149460"><ele>26.4</ele><time>2026-06-04T09:46:53Z</time></trkpt>
			<trkpt lat="54.823030" lon="20.149040"><ele>26.7</ele><time>2026-06-04T09:47:01Z</time></trkpt>
			<trkpt lat="54.824810" lon="20.147820"><ele>28.0</ele><time>2026-06-04T09:47:10Z</time></trkpt>
			<trkpt lat="54.826580" lon="20.146470"><ele>29.4</ele><time>2026-06-04T09:47:19Z</time></trkpt>
			<trkpt lat="54.830510" lon="20.143200"><ele>32.6</ele><time>2026-06-04T09:47:27Z</time></trkpt>
			<trkpt lat="54.830720" lon="20.142970"><ele>32.8</ele><time>2026-06-04T09:47:36Z</time></trkpt>
			<trkpt lat="54.830840" lon="20.142830"><ele>32.9</ele><time>2026-06-04T09:47:44Z</time></trkpt>
			<trkpt lat="54.831210" lon="20.142260"><ele>33.4</ele><time>2026-06-04T09:47:53Z</time></trkpt>
			<trkpt lat="54.833010" lon="20.139220"><ele>35.7</ele><time>2026-06-04T09:48:01Z</time></trkpt>
			<trkpt lat="54.836180" lon="20.133990"><ele>39.7</ele><time>2026-06-04T09:48:10Z</time></trkpt>
			<trkpt lat="54.836910" lon="20.133190"><ele>40.0</ele><time>2026-06-04T09:48:19Z</time></trkpt>
			<trkpt lat="54.836920" lon="20.133180"><ele>40.0</ele><time>2026-06-04T09:48:27Z</time></trkpt>
			<trkpt lat="54.837140" lon="20.132950"><ele>40.1</ele><time>2026-06-04T09:48:36Z</time></trkpt>
			<trkpt lat="54.838440" lon="20.131650"><ele>40.2</ele><time>2026-06-04T09:48:44Z</time></trkpt>
			<trkpt lat="54.840770" lon="20.129270"><ele>40.4</ele><time>2026-06-04T09:48:53Z</time></trkpt>
			<trkpt lat="54.847920" lon="20.121990"><ele>39.8</ele><time>2026-06-04T09:49:01Z</time></trkpt>
			<trkpt lat="54.853800" lon="20.115990"><ele>38.8</ele><time>2026-06-04T09:49:10Z</time></trkpt>
			<trkpt lat="54.859600" lon="20.110080"><ele>39.2</ele><time>2026-06-04T09:49:19Z</time></trkpt>
			<trkpt lat="54.870920" lon="20.098500"><ele>42.8</ele><time>2026-06-04T09:49:27Z</time></trkpt>
			<trkpt lat="54.871570" lon="20.097850"><ele>43.0</ele><time>2026-06-04T09:49:36Z</time></trkpt>
			<trkpt lat="54.871830" lon="20.097770"><ele>43.0</ele><time>2026-06-04T09:49:44Z</time></trkpt>
			<trkpt lat="54.872180" lon="20.097780"><ele>43.1</ele><time>2026-06-04T09:49:53Z</time></trkpt>
			<trkpt lat="54.872400" lon="20.097830"><ele>43.1</ele><time>2026-06-04T09:50:01Z</time></trkpt>
			<trkpt lat="54.872890" lon="20.098240"><ele>43.2</ele><time>2026-06-04T09:50:10Z</time></trkpt>
			<trkpt lat="54.873070" lon="20.098400"><ele>43.3</ele><time>2026-06-04T09:50:19Z</time></trkpt>
			<trkpt lat="54.873640" lon="20.098880"><ele>43.4</ele><time>2026-06-04T09:50:27Z</time></trkpt>
			<trkpt lat="54.874110" lon="20.099290"><ele>43.5</ele><time>2026-06-04T09:50:36Z</time></trkpt>
			<trkpt lat="54.875470" lon="20.100560"><ele>43.8</ele><time>2026-06-04T09:50:44Z</time></trkpt>
			<trkpt lat="54.876020" lon="20.101010"><ele>44.4</ele><time>2026-06-04T09:50:53Z</time></trkpt>
			<trkpt lat="54.877610" lon="20.102160"><ele>46.2</ele><time>2026-06-04T09:51:01Z</time></trkpt>
			<trkpt lat="54.877940" lon="20.102370"><ele>46.5</ele><time>2026-06-04T09:51:10Z</time></trkpt>
			<trkpt lat="54.881040" lon="20.104500"><ele>49.9</ele><time>2026-06-04T09:51:19Z</time></trkpt>
			<trkpt lat="54.881530" lon="20.104860"><ele>50.4</ele><time>2026-06-04T09:51:27Z</time></trkpt>
			<trkpt lat="54.882180" lon="20.105230"><ele>51.1</ele><time>2026-06-04T09:51:36Z</time></trkpt>
			<trkpt lat="54.883860" lon="20.105400"><ele>52.8</ele><time>2026-06-04T09:51:44Z</time></trkpt>
			<trkpt lat="54.886670" lon="20.105790"><ele>51.5</ele><time>2026-06-04T09:51:53Z</time></trkpt>
			<trkpt lat="54.887150" lon="20.105750"><ele>51.3</ele><time>2026-06-04T09:52:01Z</time></trkpt>
			<trkpt lat="54.889450" lon="20.105370"><ele>50.1</ele><time>2026-06-04T09:52:10Z</time></trkpt>
			<trkpt lat="54.889970" lon="20.105250"><ele>49.8</ele><time>2026-06-04T09:52:19Z</time></trkpt>
			<trkpt lat="54.889820" lon="20.103720"><ele>49.4</ele><time>2026-06-04T09:52:27Z</time></trkpt>
			<trkpt lat="54.889650" lon="20.102750"><ele>49.1</ele><time>2026-06-04T09:52:36Z</time></trkpt>
			<trkpt lat="54.889480" lon="20.101830"><ele>48.8</ele><time>2026-06-04T09:52:44Z</time></trkpt>
			<trkpt lat="54.889480" lon="20.101830"><ele>48.8</ele><time>2026-06-04T09:52:50Z</time></trkpt>
			<trkpt lat="54.889190" lon="20.100080"><ele>48.4</ele><time>2026-06-04T09:52:55Z</time></trkpt>
			<trkpt lat="54.889070" lon="20.099070"><ele>48.4</ele><time>2026-06-04T09:53:00Z</time></trkpt>
			<trkpt lat="54.889070" lon="20.098670"><ele>48.4</ele><time>2026-06-04T09:53:05Z</time></trkpt>
			<trkpt lat="54.889130" lon="20.098010"><ele>48.4</ele><time>2026-06-04T09:53:11Z</time></trkpt>
			<trkpt lat="54.889220" lon="20.097200"><ele>48.4</ele><time>2026-06-04T09:53:16Z</time></trkpt>
			<trkpt lat="54.889420" lon="20.095590"><ele>48.4</ele><time>2026-06-04T09:53:21Z</time></trkpt>
			<trkpt lat="54.889970" lon="20.092230"><ele>48.5</ele><time>2026-06-04T09:53:26Z</time></trkpt>
			<trkpt lat="54.890150" lon="20.090790"><ele>48.5</ele><time>2026-06-04T09:53:32Z</time></trkpt>
			<trkpt lat="54.890330" lon="20.089420"><ele>48.5</ele><time>2026-06-04T09:53:37Z</time></trkpt>
			<trkpt lat="54.890430" lon="20.088710"><ele>48.5</ele><time>2026-06-04T09:53:42Z</time></trkpt>
			<trkpt lat="54.890650" lon="20.087280"><ele>48.5</ele><time>2026-06-04T09:53:48Z</time></trkpt>
			<trkpt lat="54.890850" lon="20.085890"><ele>48.5</ele><time>2026-06-04T09:53:53Z</time></trkpt>
			<trkpt lat="54.891050" lon="20.084700"><ele>48.9</ele><time>2026-06-04T09:53:58Z</time></trkpt>
			<trkpt lat="54.891170" lon="20.083940"><ele>49.7</ele><time>2026-06-04T09:54:03Z</time></trkpt>
			<trkpt lat="54.891190" lon="20.083620"><ele>50.0</ele><time>2026-06-04T09:54:09Z</time></trkpt>
			<trkpt lat="54.891190" lon="20.083430"><ele>50.2</ele><time>2026-06-04T09:54:14Z</time></trkpt>
			<trkpt lat="54.891150" lon="20.081950"><ele>51.6</ele><time>2026-06-04T09:54:19Z</time></trkpt>
			<trkpt lat="54.890950" lon="20.076400"><ele>57.0</ele><time>2026-06-04T09:54:24Z</time></trkpt>
			<trkpt lat="54.890880" lon="20.075630"><ele>57.7</ele><time>2026-06-04T09:54:30Z</time></trkpt>
			<trkpt lat="54.890850" lon="20.075100"><ele>58.2</ele><time>2026-06-04T09:54:35Z</time></trkpt>
			<trkpt lat="54.890810" lon="20.074370"><ele>58.9</ele><time>2026-06-04T09:54:40Z</time></trkpt>
			<trkpt lat="54.890790" lon="20.073570"><ele>59.7</ele><time>2026-06-04T09:54:46Z</time></trkpt>
			<trkpt lat="54.890780" lon="20.072740"><ele>60.5</ele><time>2026-06-04T09:54:51Z</time></trkpt>
			<trkpt lat="54.890780" lon="20.071160"><ele>62.0</ele><time>2026-06-04T09:54:56Z</time></trkpt>
			<trkpt lat="54.890820" lon="20.070650"><ele>62.5</ele><time>2026-06-04T09:55:01Z</time></trkpt>
			<trkpt lat="54.891110" lon="20.067620"><ele>63.1</ele><time>2026-06-04T09:55:07Z</time></trkpt>
			<trkpt lat="54.891180" lon="20.066590"><ele>62.8</ele><time>2026-06-04T09:55:12Z</time></trkpt>
			<trkpt lat="54.891310" lon="20.065810"><ele>62.5</ele><time>2026-06-04T09:55:17Z</time></trkpt>
			<trkpt lat="54.891520" lon="20.064250"><ele>62.1</ele><time>2026-06-04T09:55:22Z</time></trkpt>
			<trkpt lat="54.891790" lon="20.061970"><ele>61.5</ele><time>2026-06-04T09:55:28Z</time></trkpt>
			<trkpt lat="54.891920" lon="20.060430"><ele>61.0</ele><time>2026-06-04T09:55:33Z</time></trkpt>
			<trkpt lat="54.891820" lon="20.057580"><ele>60.3</ele><time>2026-06-04T09:55:38Z</time></trkpt>
			<trkpt lat="54.891810" lon="20.057390"><ele>60.2</ele><time>2026-06-04T09:55:44Z</time></trkpt>
			<trkpt lat="54.891720" lon="20.055820"><ele>59.8</ele><time>2026-06-04T09:55:49Z</time></trkpt>
			<trkpt lat="54.891560" lon="20.054120"><ele>59.3</ele><time>2026-06-04T09:55:54Z</time></trkpt>
			<trkpt lat="54.891360" lon="20.052740"><ele>58.8</ele><time>2026-06-04T09:55:59Z</time></trkpt>
			<trkpt lat="54.891100" lon="20.050210"><ele>58.0</ele><time>2026-06-04T09:56:05Z</time></trkpt>
			<trkpt lat="54.890860" lon="20.048420"><ele>57.4</ele><time>2026-06-04T09:56:10Z</time></trkpt>
			<trkpt lat="54.890840" lon="20.048130"><ele>57.3</ele><time>2026-06-04T09:56:15Z</time></trkpt>
			<trkpt lat="54.890750" lon="20.047150"><ele>57.0</ele><time>2026-06-04T09:56:20Z</time></trkpt>
			<trkpt lat="54.890700" lon="20.046510"><ele>56.8</ele><time>2026-06-04T09:56:26Z</time></trkpt>
			<trkpt lat="54.890690" lon="20.045930"><ele>56.6</ele><time>2026-06-04T09:56:31Z</time></trkpt>
			<trkpt lat="54.890710" lon="20.045680"><ele>56.5</ele><time>2026-06-04T09:56:36Z</time></trkpt>
			<trkpt lat="54.890750" lon="20.045040"><ele>56.3</ele><time>2026-06-04T09:56:42Z</time></trkpt>
			<trkpt lat="54.890900" lon="20.043190"><ele>55.7</ele><time>2026-06-04T09:56:47Z</time></trkpt>
			<trkpt lat="54.890970" lon="20.042020"><ele>55.3</ele><time>2026-06-04T09:56:52Z</time></trkpt>
			<trkpt lat="54.891000" lon="20.041570"><ele>55.2</ele><time>2026-06-04T09:56:57Z</time></trkpt>
			<trkpt lat="54.891230" lon="20.040440"><ele>54.8</ele><time>2026-06-04T09:57:03Z</time></trkpt>
			<trkpt lat="54.891360" lon="20.039820"><ele>54.6</ele><time>2026-06-04T09:57:08Z</time></trkpt>
			<trkpt lat="54.891850" lon="20.037730"><ele>54.0</ele><time>2026-06-04T09:57:13Z</time></trkpt>
			<trkpt lat="54.891970" lon="20.037190"><ele>53.9</ele><time>2026-06-04T09:57:18Z</time></trkpt>
			<trkpt lat="54.892350" lon="20.035550"><ele>53.5</ele><time>2026-06-04T09:57:24Z</time></trkpt>
			<trkpt lat="54.892710" lon="20.033980"><ele>53.1</ele><time>2026-06-04T09:57:29Z</time></trkpt>
			<trkpt lat="54.893210" lon="20.031750"><ele>52.6</ele><time>2026-06-04T09:57:34Z</time></trkpt>
			<trkpt lat="54.893640" lon="20.029860"><ele>52.1</ele><time>2026-06-04T09:57:39Z</time></trkpt>
			<trkpt lat="54.893700" lon="20.029630"><ele>52.1</ele><time>2026-06-04T09:57:45Z</time></trkpt>
			<trkpt lat="54.894000" lon="20.028160"><ele>51.7</ele><time>2026-06-04T09:57:50Z</time></trkpt>
			<trkpt lat="54.894130" lon="20.027600"><ele>51.6</ele><time>2026-06-04T09:57:55Z</time></trkpt>
			<trkpt lat="54.894590" lon="20.025850"><ele>51.2</ele><time>2026-06-04T09:58:01Z</time></trkpt>
			<trkpt lat="54.894770" lon="20.025130"><ele>51.0</ele><time>2026-06-04T09:58:06Z</time></trkpt>
			<trkpt lat="54.894890" lon="20.024840"><ele>50.9</ele><time>2026-06-04T09:58:11Z</time></trkpt>
			<trkpt lat="54.895130" lon="20.024270"><ele>51.1</ele><time>2026-06-04T09:58:16Z</time></trkpt>
			<trkpt lat="54.895800" lon="20.022810"><ele>53.2</ele><time>2026-06-04T09:58:22Z</time></trkpt>
			<trkpt lat="54.895770" lon="20.022590"><ele>53.5</ele><time>2026-06-04T09:58:27Z</time></trkpt>
			<trkpt lat="54.895660" lon="20.022030"><ele>54.1</ele><time>2026-06-04T09:58:32Z</time></trkpt>
			<trkpt lat="54.895490" lon="20.021140"><ele>55.2</ele><time>2026-06-04T09:58:37Z</time></trkpt>
			<trkpt lat="54.895390" lon="20.020630"><ele>55.8</ele><time>2026-06-04T09:58:43Z</time></trkpt>
			<trkpt lat="54.895490" lon="20.020450"><ele>56.1</ele><time>2026-06-04T09:58:48Z</time></trkpt>
			<trkpt lat="54.895620" lon="20.020140"><ele>56.5</ele><time>2026-06-04T09:58:53Z</time></trkpt>
			<trkpt lat="54.895690" lon="20.019940"><ele>56.8</ele><time>2026-06-04T09:58:59Z</time></trkpt>
			<trkpt lat="54.895870" lon="20.019440"><ele>57.5</ele><time>2026-06-04T09:59:04Z</time></trkpt>
			<trkpt lat="54.895910" lon="20.019360"><ele>57.6</ele><time>2026-06-04T09:59:09Z</time></trkpt>
			<trkpt lat="54.896140" lon="20.018840"><ele>58.4</ele><time>2026-06-04T09:59:14Z</time></trkpt>
			<trkpt lat="54.896190" lon="20.018740"><ele>58.5</ele><time>2026-06-04T09:59:20Z</time></trkpt>
			<trkpt lat="54.897750" lon="20.016340"><ele>62.7</ele><time>2026-06-04T09:59:25Z</time></trkpt>
			<trkpt lat="54.898490" lon="20.015180"><ele>64.6</ele><time>2026-06-04T09:59:30Z</time></trkpt>
			<trkpt lat="54.900400" lon="20.012220"><ele>67.8</ele><time>2026-06-04T09:59:35Z</time></trkpt>
			<trkpt lat="54.901450" lon="20.010630"><ele>65.0</ele><time>2026-06-04T09:59:41Z</time></trkpt>
			<trkpt lat="54.901690" lon="20.010400"><ele>64.5</ele><time>2026-06-04T09:59:46Z</time></trkpt>
			<trkpt lat="54.901730" lon="20.010360"><ele>64.4</ele><time>2026-06-04T09:59:51Z</time></trkpt>
			<trkpt lat="54.901770" lon="20.010320"><ele>64.3</ele><time>2026-06-04T09:59:57Z</time></trkpt>
			<trkpt lat="54.904770" lon="20.008600"><ele>58.1</ele><time>2026-06-04T10:00:02Z</time></trkpt>
			<trkpt lat="54.907310" lon="20.007110"><ele>52.8</ele><time>2026-06-04T10:00:07Z</time></trkpt>
			<trkpt lat="54.908870" lon="20.006210"><ele>50.1</ele><time>2026-06-04T10:00:12Z</time></trkpt>
			<trkpt lat="54.909190" lon="20.006020"><ele>49.7</ele><time>2026-06-04T10:00:18Z</time></trkpt>
			<trkpt lat="54.909660" lon="20.005790"><ele>49.1</ele><time>2026-06-04T10:00:23Z</time></trkpt>
			<trkpt lat="54.909920" lon="20.005770"><ele>48.8</ele><time>2026-06-04T10:00:28Z</time></trkpt>
			<trkpt lat="54.910240" lon="20.005730"><ele>48.4</ele><time>2026-06-04T10:00:33Z</time></trkpt>
			<trkpt lat="54.911060" lon="20.005760"><ele>47.4</ele><time>2026-06-04T10:00:39Z</time></trkpt>
			<trkpt lat="54.911370" lon="20.005760"><ele>47.0</ele><time>2026-06-04T10:00:44Z</time></trkpt>
			<trkpt lat="54.911770" lon="20.005620"><ele>46.5</ele><time>2026-06-04T10:00:49Z</time></trkpt>
			<trkpt lat="54.912650" lon="20.005440"><ele>45.5</ele><time>2026-06-04T10:00:55Z</time></trkpt>
			<trkpt lat="54.913930" lon="20.005150"><ele>43.9</ele><time>2026-06-04T10:01:00Z</time></trkpt>
			<trkpt lat="54.913940" lon="20.005140"><ele>43.9</ele><time>2026-06-04T10:01:05Z</time></trkpt>
			<trkpt lat="54.914390" lon="20.005010"><ele>43.3</ele><time>2026-06-04T10:01:10Z</time></trkpt>
			<trkpt lat="54.915570" lon="20.004740"><ele>41.9</ele><time>2026-06-04T10:01:16Z</time></trkpt>
			<trkpt lat="54.915570" lon="20.004740"><ele>41.9</ele><time>2026-06-04T10:01:23Z</time></trkpt>
			<trkpt lat="54.918070" lon="20.004150"><ele>40.0</ele><time>2026-06-04T10:01:30Z</time></trkpt>
			<trkpt lat="54.918400" lon="20.004070"><ele>40.0</ele><time>2026-06-04T10:01:38Z</time></trkpt>
			<trkpt lat="54.919310" lon="20.003860"><ele>39.9</ele><time>2026-06-04T10:01:45Z</time></trkpt>
			<trkpt lat="54.920960" lon="20.003520"><ele>39.8</ele><time>2026-06-04T10:01:52Z</time></trkpt>
			<trkpt lat="54.921840" lon="20.003300"><ele>39.7</ele><time>2026-06-04T10:02:00Z</time></trkpt>
			<trkpt lat="54.922490" lon="20.003150"><ele>39.7</ele><time>2026-06-04T10:02:07Z</time></trkpt>
			<trkpt lat="54.924190" lon="20.002750"><ele>39.6</ele><time>2026-06-04T10:02:15Z</time></trkpt>
			<trkpt lat="54.925310" lon="20.002500"><ele>39.5</ele><time>2026-06-04T10:02:22Z</time></trkpt>
			<trkpt lat="54.926720" lon="20.002160"><ele>40.0</ele><time>2026-06-04T10:02:29Z</time></trkpt>
			<trkpt lat="54.926870" lon="20.002130"><ele>40.1</ele><time>2026-06-04T10:02:37Z</time></trkpt>
			<trkpt lat="54.927320" lon="20.002030"><ele>40.4</ele><time>2026-06-04T10:02:44Z</time></trkpt>
			<trkpt lat="54.927420" lon="20.002010"><ele>40.5</ele><time>2026-06-04T10:02:52Z</time></trkpt>
			<trkpt lat="54.927500" lon="20.001990"><ele>40.5</ele><time>2026-06-04T10:02:59Z</time></trkpt>
			<trkpt lat="54.927950" lon="20.002020"><ele>40.8</ele><time>2026-06-04T10:03:06Z</time></trkpt>
			<trkpt lat="54.928480" lon="20.002260"><ele>41.2</ele><time>2026-06-04T10:03:14Z</time></trkpt>
			<trkpt lat="54.928750" lon="20.002450"><ele>41.4</ele><time>2026-06-04T10:03:21Z</time></trkpt>
			<trkpt lat="54.928880" lon="20.002630"><ele>41.5</ele><time>2026-06-04T10:03:28Z</time></trkpt>
			<trkpt lat="54.929120" lon="20.003300"><ele>41.9</ele><time>2026-06-04T10:03:36Z</time></trkpt>
			<trkpt lat="54.929560" lon="20.004790"><ele>42.5</ele><time>2026-06-04T10:03:43Z</time></trkpt>
			<trkpt lat="54.929660" lon="20.005410"><ele>42.8</ele><time>2026-06-04T10:03:51Z</time></trkpt>
			<trkpt lat="54.929730" lon="20.006140"><ele>43.1</ele><time>2026-06-04T10:03:58Z</time></trkpt>
			<trkpt lat="54.929840" lon="20.008190"><ele>43.9</ele><time>2026-06-04T10:04:05Z</time></trkpt>
			<trkpt lat="54.929880" lon="20.008740"><ele>44.1</ele><time>2026-06-04T10:04:13Z</time></trkpt>
			<trkpt lat="54.929940" lon="20.008990"><ele>44.3</ele><time>2026-06-04T10:04:20Z</time></trkpt>
			<trkpt lat="54.930000" lon="20.009260"><ele>44.4</ele><time>2026-06-04T10:04:27Z</time></trkpt>
			<trkpt lat="54.931000" lon="20.011490"><ele>45.5</ele><time>2026-06-04T10:04:35Z</time></trkpt>
			<trkpt lat="54.936060" lon="20.022170"><ele>46.6</ele><time>2026-06-04T10:04:42Z</time></trkpt>
			<trkpt lat="54.937690" lon="20.025530"><ele>46.8</ele><time>2026-06-04T10:04:50Z</time></trkpt>
			<trkpt lat="54.937830" lon="20.025820"><ele>46.8</ele><time>2026-06-04T10:04:57Z</time></trkpt>
			<trkpt lat="54.938110" lon="20.026420"><ele>46.8</ele><time>2026-06-04T10:05:04Z</time></trkpt>
			<trkpt lat="54.938790" lon="20.027870"><ele>46.9</ele><time>2026-06-04T10:05:12Z</time></trkpt>
			<trkpt lat="54.938990" lon="20.028300"><ele>46.9</ele><time>2026-06-04T10:05:19Z</time></trkpt>
			<trkpt lat="54.939960" lon="20.030430"><ele>46.9</ele><time>2026-06-04T10:05:27Z</time></trkpt>
			<trkpt lat="54.940130" lon="20.030930"><ele>46.9</ele><time>2026-06-04T10:05:34Z</time></trkpt>
			<trkpt lat="54.940390" lon="20.032260"><ele>46.9</ele><time>2026-06-04T10:05:41Z</time></trkpt>
			<trkpt lat="54.940660" lon="20.033640"><ele>46.9</ele><time>2026-06-04T10:05:49Z</time></trkpt>
			<trkpt lat="54.941210" lon="20.036080"><ele>47.0</ele><time>2026-06-04T10:05:56Z</time></trkpt>
			<trkpt lat="54.941460" lon="20.037330"><ele>47.0</ele><time>2026-06-04T10:06:03Z</time></trkpt>
			<trkpt lat="54.941760" lon="20.038680"><ele>47.0</ele><time>2026-06-04T10:06:11Z</time></trkpt>
			<trkpt lat="54.941890" lon="20.039330"><ele>47.0</ele><time>2026-06-04T10:06:18Z</time></trkpt>
			<trkpt lat="54.941940" lon="20.040020"><ele>47.0</ele><time>2026-06-04T10:06:26Z</time></trkpt>
			<trkpt lat="54.941950" lon="20.040200"><ele>47.0</ele><time>2026-06-04T10:06:33Z</time></trkpt>
			<trkpt lat="54.942000" lon="20.041150"><ele>47.0</ele><time>2026-06-04T10:06:40Z</time></trkpt>
			<trkpt lat="54.942060" lon="20.042450"><ele>47.1</ele><time>2026-06-04T10:06:48Z</time></trkpt>
			<trkpt lat="54.942100" lon="20.043030"><ele>47.1</ele><time>2026-06-04T10:06:55Z</time></trkpt>
			<trkpt lat="54.942150" lon="20.043790"><ele>47.1</ele><time>2026-06-04T10:07:02Z</time></trkpt>
			<trkpt lat="54.942300" lon="20.046400"><ele>47.1</ele><time>2026-06-04T10:07:10Z</time></trkpt>
			<trkpt lat="54.942370" lon="20.047680"><ele>47.1</ele><time>2026-06-04T10:07:17Z</time></trkpt>
			<trkpt lat="54.942440" lon="20.048920"><ele>47.1</ele><time>2026-06-04T10:07:25Z</time></trkpt>
			<trkpt lat="54.942530" lon="20.050450"><ele>47.2</ele><time>2026-06-04T10:07:32Z</time></trkpt>
			<trkpt lat="54.942560" lon="20.050970"><ele>47.2</ele><time>2026-06-04T10:07:39Z</time></trkpt>
			<trkpt lat="54.942820" lon="20.055480"><ele>48.1</ele><time>2026-06-04T10:07:47Z</time></trkpt>
			<trkpt lat="54.943000" lon="20.058660"><ele>49.2</ele><time>2026-06-04T10:07:54Z</time></trkpt>
			<trkpt lat="54.943010" lon="20.058950"><ele>49.3</ele><time>2026-06-04T10:08:02Z</time></trkpt>
			<trkpt lat="54.943040" lon="20.059420"><ele>49.4</ele><time>2026-06-04T10:08:09Z</time></trkpt>
			<trkpt lat="54.943180" lon="20.062040"><ele>50.3</ele><time>2026-06-04T10:08:16Z</time></trkpt>
			<trkpt lat="54.943280" lon="20.063720"><ele>50.9</ele><time>2026-06-04T10:08:24Z</time></trkpt>
			<trkpt lat="54.943420" lon="20.066110"><ele>51.7</ele><time>2026-06-04T10:08:31Z</time></trkpt>
			<trkpt lat="54.943420" lon="20.066280"><ele>51.8</ele><time>2026-06-04T10:08:38Z</time></trkpt>
			<trkpt lat="54.943520" lon="20.068180"><ele>52.4</ele><time>2026-06-04T10:08:46Z</time></trkpt>
			<trkpt lat="54.943580" lon="20.069350"><ele>52.4</ele><time>2026-06-04T10:08:53Z</time></trkpt>
			<trkpt lat="54.943990" lon="20.075550"><ele>52.2</ele><time>2026-06-04T10:09:01Z</time></trkpt>
			<trkpt lat="54.944070" lon="20.076670"><ele>52.1</ele><time>2026-06-04T10:09:08Z</time></trkpt>
			<trkpt lat="54.944070" lon="20.076670"><ele>52.1</ele><time>2026-06-04T10:09:11Z</time></trkpt>
			<trkpt lat="54.944090" lon="20.076960"><ele>52.1</ele><time>2026-06-04T10:09:14Z</time></trkpt>
			<trkpt lat="54.944090" lon="20.077280"><ele>52.1</ele><time>2026-06-04T10:09:17Z</time></trkpt>
			<trkpt lat="54.944100" lon="20.077450"><ele>52.1</ele><time>2026-06-04T10:09:20Z</time></trkpt>
			<trkpt lat="54.944100" lon="20.077820"><ele>52.1</ele><time>2026-06-04T10:09:23Z</time></trkpt>
			<trkpt lat="54.944070" lon="20.078290"><ele>52.1</ele><time>2026-06-04T10:09:26Z</time></trkpt>
			<trkpt lat="54.944040" lon="20.078830"><ele>52.0</ele><time>2026-06-04T10:09:29Z</time></trkpt>
			<trkpt lat="54.943810" lon="20.079590"><ele>52.0</ele><time>2026-06-04T10:09:32Z</time></trkpt>
			<trkpt lat="54.943600" lon="20.079970"><ele>52.0</ele><time>2026-06-04T10:09:35Z</time></trkpt>
			<trkpt lat="54.943240" lon="20.080480"><ele>51.9</ele><time>2026-06-04T10:09:38Z</time></trkpt>
			<trkpt lat="54.942800" lon="20.080860"><ele>51.9</ele><time>2026-06-04T10:09:41Z</time></trkpt>
			<trkpt lat="54.942730" lon="20.080920"><ele>51.9</ele><time>2026-06-04T10:09:44Z</time></trkpt>
			<trkpt lat="54.942180" lon="20.081340"><ele>51.9</ele><time>2026-06-04T10:09:47Z</time></trkpt>
			<trkpt lat="54.941120" lon="20.082200"><ele>52.2</ele><time>2026-06-04T10:09:50Z</time></trkpt>
			<trkpt lat="54.940690" lon="20.082760"><ele>52.4</ele><time>2026-06-04T10:09:53Z</time></trkpt>
			<trkpt lat="54.940290" lon="20.083330"><ele>52.7</ele><time>2026-06-04T10:09:56Z</time></trkpt>
			<trkpt lat="54.940210" lon="20.083460"><ele>52.8</ele><time>2026-06-04T10:09:59Z</time></trkpt>
			<trkpt lat="54.940140" lon="20.083630"><ele>52.8</ele><time>2026-06-04T10:10:02Z</time></trkpt>
			<trkpt lat="54.940090" lon="20.083850"><ele>52.9</ele><time>2026-06-04T10:10:05Z</time></trkpt>
			<trkpt lat="54.940080" lon="20.083960"><ele>52.9</ele><time>2026-06-04T10:10:08Z</time></trkpt>
			<trkpt lat="54.939620" lon="20.088930"><ele>54.4</ele><time>2026-06-04T10:10:11Z</time></trkpt>
			<trkpt lat="54.939610" lon="20.089300"><ele>54.5</ele><time>2026-06-04T10:10:14Z</time></trkpt>
			<trkpt lat="54.939620" lon="20.089630"><ele>54.6</ele><time>2026-06-04T10:10:17Z</time></trkpt>
			<trkpt lat="54.939630" lon="20.089810"><ele>54.6</ele><time>2026-06-04T10:10:20Z</time></trkpt>
			<trkpt lat="54.939710" lon="20.090470"><ele>54.8</ele><time>2026-06-04T10:10:23Z</time></trkpt>
			<trkpt lat="54.939820" lon="20.091030"><ele>55.0</ele><time>2026-06-04T10:10:26Z</time></trkpt>
			<trkpt lat="54.939940" lon="20.091450"><ele>55.2</ele><time>2026-06-04T10:10:29Z</time></trkpt>
			<trkpt lat="54.940270" lon="20.092120"><ele>55.4</ele><time>2026-06-04T10:10:32Z</time></trkpt>
			<trkpt lat="54.940910" lon="20.093390"><ele>55.9</ele><time>2026-06-04T10:10:35Z</time></trkpt>
			<trkpt lat="54.941000" lon="20.093650"><ele>56.0</ele><time>2026-06-04T10:10:38Z</time></trkpt>
			<trkpt lat="54.941070" lon="20.093960"><ele>56.1</ele><time>2026-06-04T10:10:41Z</time></trkpt>
			<trkpt lat="54.941330" lon="20.095170"><ele>56.2</ele><time>2026-06-04T10:10:44Z</time></trkpt>
			<trkpt lat="54.941630" lon="20.096550"><ele>55.1</ele><time>2026-06-04T10:10:47Z</time></trkpt>
			<trkpt lat="54.941740" lon="20.097140"><ele>54.7</ele><time>2026-06-04T10:10:50Z</time></trkpt>
			<trkpt lat="54.941780" lon="20.097730"><ele>54.2</ele><time>2026-06-04T10:10:53Z</time></trkpt>
			<trkpt lat="54.941780" lon="20.097870"><ele>54.1</ele><time>2026-06-04T10:10:56Z</time></trkpt>
			<trkpt lat="54.941790" lon="20.098170"><ele>53.9</ele><time>2026-06-04T10:10:59Z</time></trkpt>
			<trkpt lat="54.941780" lon="20.098440"><ele>53.7</ele><time>2026-06-04T10:11:02Z</time></trkpt>
			<trkpt lat="54.941610" lon="20.101150"><ele>51.6</ele><time>2026-06-04T10:11:05Z</time></trkpt>
			<trkpt lat="54.941600" lon="20.101280"><ele>51.5</ele><time>2026-06-04T10:11:08Z</time></trkpt>
			<trkpt lat="54.941490" lon="20.102710"><ele>50.4</ele><time>2026-06-04T10:11:11Z</time></trkpt>
			<trkpt lat="54.941380" lon="20.104150"><ele>49.3</ele><time>2026-06-04T10:11:14Z</time></trkpt>
			<trkpt lat="54.941340" lon="20.104640"><ele>48.9</ele><time>2026-06-04T10:11:17Z</time></trkpt>
			<trkpt lat="54.941230" lon="20.105940"><ele>48.0</ele><time>2026-06-04T10:11:20Z</time></trkpt>
			<trkpt lat="54.941220" lon="20.106050"><ele>47.9</ele><time>2026-06-04T10:11:23Z</time></trkpt>
			<trkpt lat="54.941150" lon="20.106880"><ele>47.2</ele><time>2026-06-04T10:11:26Z</time></trkpt>
			<trkpt lat="54.941110" lon="20.107390"><ele>46.8</ele><time>2026-06-04T10:11:29Z</time></trkpt>
			<trkpt lat="54.941080" lon="20.107750"><ele>46.6</ele><time>2026-06-04T10:11:32Z</time></trkpt>
			<trkpt lat="54.941060" lon="20.108010"><ele>46.4</ele><time>2026-06-04T10:11:35Z</time></trkpt>
			<trkpt lat="54.940980" lon="20.108860"><ele>45.7</ele><time>2026-06-04T10:11:38Z</time></trkpt>
			<trkpt lat="54.940890" lon="20.109850"><ele>45.0</ele><time>2026-06-04T10:11:41Z</time></trkpt>
			<trkpt lat="54.940860" lon="20.110080"><ele>44.8</ele><time>2026-06-04T10:11:44Z</time></trkpt>
			<trkpt lat="54.940800" lon="20.110720"><ele>44.8</ele><time>2026-06-04T10:11:47Z</time></trkpt>
			<trkpt lat="54.940760" lon="20.111140"><ele>45.0</ele><time>2026-06-04T10:11:50Z</time></trkpt>
			<trkpt lat="54.940700" lon="20.111670"><ele>45.3</ele><time>2026-06-04T10:11:53Z</time></trkpt>
			<trkpt lat="54.940660" lon="20.112120"><ele>45.6</ele><time>2026-06-04T10:11:56Z</time></trkpt>
			<trkpt lat="54.940620" lon="20.112440"><ele>45.8</ele><time>2026-06-04T10:11:59Z</time></trkpt>
			<trkpt lat="54.940480" lon="20.112880"><ele>46.1</ele><time>2026-06-04T10:12:02Z</time></trkpt>
			<trkpt lat="54.940310" lon="20.113500"><ele>46.5</ele><time>2026-06-04T10:12:05Z</time></trkpt>
			<trkpt lat="54.940100" lon="20.114190"><ele>46.9</ele><time>2026-06-04T10:12:08Z</time></trkpt>
			<trkpt lat="54.940010" lon="20.114520"><ele>47.2</ele><time>2026-06-04T10:12:11Z</time></trkpt>
			<trkpt lat="54.939990" lon="20.114850"><ele>47.4</ele><time>2026-06-04T10:12:14Z</time></trkpt>
			<trkpt lat="54.939970" lon="20.115480"><ele>47.7</ele><time>2026-06-04T10:12:17Z</time></trkpt>
			<trkpt lat="54.939950" lon="20.116200"><ele>48.1</ele><time>2026-06-04T10:12:20Z</time></trkpt>
			<trkpt lat="54.939920" lon="20.116400"><ele>48.3</ele><time>2026-06-04T10:12:23Z</time></trkpt>
			<trkpt lat="54.939850" lon="20.116610"><ele>48.4</ele><time>2026-06-04T10:12:26Z</time></trkpt>
			<trkpt lat="54.939760" lon="20.116810"><ele>48.6</ele><time>2026-06-04T10:12:29Z</time></trkpt>
			<trkpt lat="54.939700" lon="20.116930"><ele>48.6</ele><time>2026-06-04T10:12:32Z</time></trkpt>
			<trkpt lat="54.939460" lon="20.117830"><ele>49.2</ele><time>2026-06-04T10:12:35Z</time></trkpt>
			<trkpt lat="54.939310" lon="20.118770"><ele>49.8</ele><time>2026-06-04T10:12:38Z</time></trkpt>
			<trkpt lat="54.939070" lon="20.120820"><ele>51.0</ele><time>2026-06-04T10:12:41Z</time></trkpt>
			<trkpt lat="54.939030" lon="20.121850"><ele>51.6</ele><time>2026-06-04T10:12:44Z</time></trkpt>
			<trkpt lat="54.939100" lon="20.123090"><ele>52.3</ele><time>2026-06-04T10:12:47Z</time></trkpt>
			<trkpt lat="54.939220" lon="20.123800"><ele>52.8</ele><time>2026-06-04T10:12:50Z</time></trkpt>
			<trkpt lat="54.939540" lon="20.124800"><ele>53.4</ele><time>2026-06-04T10:12:53Z</time></trkpt>
			<trkpt lat="54.939720" lon="20.125380"><ele>53.5</ele><time>2026-06-04T10:12:56Z</time></trkpt>
			<trkpt lat="54.939820" lon="20.126170"><ele>52.7</ele><time>2026-06-04T10:12:59Z</time></trkpt>
			<trkpt lat="54.939930" lon="20.126950"><ele>51.9</ele><time>2026-06-04T10:13:02Z</time></trkpt>
			<trkpt lat="54.939980" lon="20.127290"><ele>51.5</ele><time>2026-06-04T10:13:05Z</time></trkpt>
			<trkpt lat="54.940130" lon="20.127980"><ele>50.8</ele><time>2026-06-04T10:13:08Z</time></trkpt>
			<trkpt lat="54.940160" lon="20.128090"><ele>50.6</ele><time>2026-06-04T10:13:11Z</time></trkpt>
			<trkpt lat="54.940230" lon="20.128440"><ele>50.3</ele><time>2026-06-04T10:13:14Z</time></trkpt>
			<trkpt lat="54.940300" lon="20.128700"><ele>50.0</ele><time>2026-06-04T10:13:17Z</time></trkpt>
			<trkpt lat="54.940430" lon="20.129230"><ele>49.4</ele><time>2026-06-04T10:13:20Z</time></trkpt>
			<trkpt lat="54.940700" lon="20.130250"><ele>48.3</ele><time>2026-06-04T10:13:23Z</time></trkpt>
			<trkpt lat="54.940750" lon="20.130420"><ele>48.1</ele><time>2026-06-04T10:13:26Z</time></trkpt>
			<trkpt lat="54.941140" lon="20.131790"><ele>46.5</ele><time>2026-06-04T10:13:29Z</time></trkpt>
			<trkpt lat="54.941220" lon="20.132070"><ele>46.2</ele><time>2026-06-04T10:13:32Z</time></trkpt>
			<trkpt lat="54.941560" lon="20.133250"><ele>44.9</ele><time>2026-06-04T10:13:35Z</time></trkpt>
			<trkpt lat="54.941750" lon="20.133920"><ele>44.1</ele><time>2026-06-04T10:13:38Z</time></trkpt>
			<trkpt lat="54.941840" lon="20.134330"><ele>43.7</ele><time>2026-06-04T10:13:41Z</time></trkpt>
			<trkpt lat="54.941860" lon="20.134410"><ele>43.6</ele><time>2026-06-04T10:13:44Z</time></trkpt>
			<trkpt lat="54.941870" lon="20.134600"><ele>43.4</ele><time>2026-06-04T10:13:47Z</time></trkpt>
			<trkpt lat="54.941870" lon="20.134910"><ele>43.1</ele><time>2026-06-04T10:13:50Z</time></trkpt>
			<trkpt lat="54.941810" lon="20.135240"><ele>42.7</ele><time>2026-06-04T10:13:53Z</time></trkpt>
			<trkpt lat="54.941780" lon="20.135420"><ele>42.6</ele><time>2026-06-04T10:13:56Z</time></trkpt>
			<trkpt lat="54.941760" lon="20.135580"><ele>42.4</ele><time>2026-06-04T10:13:59Z</time></trkpt>
			<trkpt lat="54.941926" lon="20.136113"><ele>41.8</ele><time>2026-06-04T10:14:47Z</time></trkpt>
			<trkpt lat="54.942134" lon="20.136917"><ele>40.9</ele><time>2026-06-04T10:15:57Z</time></trkpt>
			<trkpt lat="54.943253" lon="20.142009"><ele>38.8</ele><time>2026-06-04T10:23:12Z</time></trkpt>
			<trkpt lat="54.943395" lon="20.142865"><ele>39.1</ele><time>2026-06-04T10:24:23Z</time></trkpt>
			<trkpt lat="54.944187" lon="20.149168"><ele>41.5</ele><time>2026-06-04T10:32:58Z</time></trkpt>
			<trkpt lat="54.944201" lon="20.149636"><ele>41.7</ele><time>2026-06-04T10:33:35Z</time></trkpt>
			<trkpt lat="54.944061" lon="20.153145"><ele>43.0</ele><time>2026-06-04T10:38:16Z</time></trkpt>
			<trkpt lat="54.944088" lon="20.155998"><ele>41.9</ele><time>2026-06-04T10:42:04Z</time></trkpt>
			<trkpt lat="54.944117" lon="20.156429"><ele>41.1</ele><time>2026-06-04T10:42:39Z</time></trkpt>
			<trkpt lat="54.944140" lon="20.158878"><ele>36.7</ele><time>2026-06-04T10:45:55Z</time></trkpt>
			<trkpt lat="54.944081" lon="20.159418"><ele>35.7</ele><time>2026-06-04T10:46:39Z</time></trkpt>
			<trkpt lat="54.943801" lon="20.160980"><ele>32.8</ele><time>2026-06-04T10:48:50Z</time></trkpt>
			<trkpt lat="54.943677" lon="20.161833"><ele>31.2</ele><time>2026-06-04T10:50:00Z</time></trkpt>
			<trkpt lat="54.943603" lon="20.162500"><ele>30.0</ele><time>2026-06-04T10:50:54Z</time></trkpt>
			<trkpt lat="54.943517" lon="20.162953"><ele>29.1</ele><time>2026-06-04T10:51:32Z</time></trkpt>
			<trkpt lat="54.943100" lon="20.164726"><ele>25.7</ele><time>2026-06-04T10:54:05Z</time></trkpt>
			<trkpt lat="54.942678" lon="20.166379"><ele>22.4</ele><time>2026-06-04T10:56:29Z</time></trkpt>
			<trkpt lat="54.942689" lon="20.166744"><ele>21.8</ele><time>2026-06-04T10:56:58Z</time></trkpt>
			<trkpt lat="54.942840" lon="20.167782"><ele>19.8</ele><time>2026-06-04T10:58:23Z</time></trkpt>
			<trkpt lat="54.942849" lon="20.168096"><ele>19.3</ele><time>2026-06-04T10:58:48Z</time></trkpt>
			<trkpt lat="54.942850" lon="20.168100"><ele>19.3</ele><time>2026-06-04T10:58:52Z</time></trkpt>
			<trkpt lat="54.942850" lon="20.168090"><ele>19.2</ele><time>2026-06-04T10:58:56Z</time></trkpt>
			<trkpt lat="54.943350" lon="20.168910"><ele>17.1</ele><time>2026-06-04T10:59:01Z</time></trkpt>
			<trkpt lat="54.943340" lon="20.169720"><ele>15.6</ele><time>2026-06-04T10:59:05Z</time></trkpt>
			<trkpt lat="54.943290" lon="20.169990"><ele>15.6</ele><time>2026-06-04T10:59:09Z</time></trkpt>
			<trkpt lat="54.943270" lon="20.170220"><ele>15.7</ele><time>2026-06-04T10:59:13Z</time></trkpt>
			<trkpt lat="54.943280" lon="20.170370"><ele>15.8</ele><time>2026-06-04T10:59:18Z</time></trkpt>
			<trkpt lat="54.943300" lon="20.170460"><ele>15.8</ele><time>2026-06-04T10:59:22Z</time></trkpt>
			<trkpt lat="54.943460" lon="20.170800"><ele>16.0</ele><time>2026-06-04T10:59:26Z</time></trkpt>
			<trkpt lat="54.943480" lon="20.170860"><ele>16.0</ele><time>2026-06-04T10:59:30Z</time></trkpt>
			<trkpt lat="54.943960" lon="20.172120"><ele>16.7</ele><time>2026-06-04T10:59:35Z</time></trkpt>
			<trkpt lat="54.944300" lon="20.173010"><ele>17.1</ele><time>2026-06-04T10:59:39Z</time></trkpt>
			<trkpt lat="54.944570" lon="20.173720"><ele>17.4</ele><time>2026-06-04T10:59:43Z</time></trkpt>
			<trkpt lat="54.944570" lon="20.173720"><ele>17.4</ele><time>2026-06-04T10:59:46Z</time></trkpt>
			<trkpt lat="54.945130" lon="20.175210"><ele>18.2</ele><time>2026-06-04T10:59:49Z</time></trkpt>
			<trkpt lat="54.945390" lon="20.175940"><ele>18.5</ele><time>2026-06-04T10:59:52Z</time></trkpt>
			<trkpt lat="54.945800" lon="20.177090"><ele>19.1</ele><time>2026-06-04T10:59:55Z</time></trkpt>
			<trkpt lat="54.945990" lon="20.177600"><ele>19.3</ele><time>2026-06-04T10:59:58Z</time></trkpt>
			<trkpt lat="54.946130" lon="20.177920"><ele>19.5</ele><time>2026-06-04T11:00:01Z</time></trkpt>
			<trkpt lat="54.946190" lon="20.178000"><ele>19.6</ele><time>2026-06-04T11:00:04Z</time></trkpt>
			<trkpt lat="54.946880" lon="20.178900"><ele>20.2</ele><time>2026-06-04T11:00:07Z</time></trkpt>
			<trkpt lat="54.947330" lon="20.179450"><ele>20.6</ele><time>2026-06-04T11:00:10Z</time></trkpt>
			<trkpt lat="54.947430" lon="20.179540"><ele>20.6</ele><time>2026-06-04T11:00:14Z</time></trkpt>
			<trkpt lat="54.947330" lon="20.179830"><ele>20.8</ele><time>2026-06-04T11:00:17Z</time></trkpt>
			<trkpt lat="54.947250" lon="20.180230"><ele>21.0</ele><time>2026-06-04T11:00:20Z</time></trkpt>
			<trkpt lat="54.947210" lon="20.180580"><ele>21.1</ele><time>2026-06-04T11:00:23Z</time></trkpt>
			<trkpt lat="54.947180" lon="20.180900"><ele>21.2</ele><time>2026-06-04T11:00:26Z</time></trkpt>
			<trkpt lat="54.947160" lon="20.181800"><ele>21.6</ele><time>2026-06-04T11:00:29Z</time></trkpt>
			<trkpt lat="54.947120" lon="20.181820"><ele>21.6</ele><time>2026-06-04T11:00:32Z</time></trkpt>
			<trkpt lat="54.947090" lon="20.181860"><ele>21.7</ele><time>2026-06-04T11:00:35Z</time></trkpt>
			<trkpt lat="54.947070" lon="20.181920"><ele>21.7</ele><time>2026-06-04T11:00:38Z</time></trkpt>
			<trkpt lat="54.947060" lon="20.181990"><ele>21.7</ele><time>2026-06-04T11:00:41Z</time></trkpt>
			<trkpt lat="54.947060" lon="20.182060"><ele>21.8</ele><time>2026-06-04T11:00:44Z</time></trkpt>
			<trkpt lat="54.947080" lon="20.182120"><ele>21.8</ele><time>2026-06-04T11:00:47Z</time></trkpt>
			<trkpt lat="54.947110" lon="20.182160"><ele>21.8</ele><time>2026-06-04T11:00:50Z</time></trkpt>
			<trkpt lat="54.947140" lon="20.182180"><ele>21.8</ele><time>2026-06-04T11:00:53Z</time></trkpt>
			<trkpt lat="54.947180" lon="20.182190"><ele>21.9</ele><time>2026-06-04T11:00:56Z</time></trkpt>
			<trkpt lat="54.947210" lon="20.182180"><ele>21.9</ele><time>2026-06-04T11:00:59Z</time></trkpt>
			<trkpt lat="54.947240" lon="20.182150"><ele>21.9</ele><time>2026-06-04T11:01:02Z</time></trkpt>
			<trkpt lat="54.947270" lon="20.182100"><ele>21.9</ele><time>2026-06-04T11:01:05Z</time></trkpt>
			<trkpt lat="54.948320" lon="20.182710"><ele>23.2</ele><time>2026-06-04T11:01:08Z</time></trkpt>
			<trkpt lat="54.948460" lon="20.182830"><ele>23.3</ele><time>2026-06-04T11:01:11Z</time></trkpt>
			<trkpt lat="54.948570" lon="20.182980"><ele>23.5</ele><time>2026-06-04T11:01:14Z</time></trkpt>
			<trkpt lat="54.948670" lon="20.183170"><ele>23.7</ele><time>2026-06-04T11:01:17Z</time></trkpt>
			<trkpt lat="54.948760" lon="20.183420"><ele>23.8</ele><time>2026-06-04T11:01:20Z</time></trkpt>
			<trkpt lat="54.948820" lon="20.183640"><ele>24.0</ele><time>2026-06-04T11:01:23Z</time></trkpt>
			<trkpt lat="54.948820" lon="20.183640"><ele>24.0</ele><time>2026-06-04T11:01:25Z</time></trkpt>
			<trkpt lat="54.949050" lon="20.184480"><ele>24.6</ele><time>2026-06-04T11:01:27Z</time></trkpt>
			<trkpt lat="54.949450" lon="20.185920"><ele>25.6</ele><time>2026-06-04T11:01:29Z</time></trkpt>
			<trkpt lat="54.949780" lon="20.187120"><ele>26.5</ele><time>2026-06-04T11:01:31Z</time></trkpt>
			<trkpt lat="54.950150" lon="20.188550"><ele>27.5</ele><time>2026-06-04T11:01:33Z</time></trkpt>
			<trkpt lat="54.950110" lon="20.188600"><ele>27.5</ele><time>2026-06-04T11:01:35Z</time></trkpt>
			<trkpt lat="54.950080" lon="20.188670"><ele>27.6</ele><time>2026-06-04T11:01:37Z</time></trkpt>
			<trkpt lat="54.950060" lon="20.188750"><ele>27.6</ele><time>2026-06-04T11:01:39Z</time></trkpt>
			<trkpt lat="54.950060" lon="20.188800"><ele>27.7</ele><time>2026-06-04T11:01:41Z</time></trkpt>
			<trkpt lat="54.950060" lon="20.188840"><ele>27.7</ele><time>2026-06-04T11:01:43Z</time></trkpt>
			<trkpt lat="54.950080" lon="20.188920"><ele>27.8</ele><time>2026-06-04T11:01:45Z</time></trkpt>
			<trkpt lat="54.950110" lon="20.188990"><ele>27.8</ele><time>2026-06-04T11:01:47Z</time></trkpt>
			<trkpt lat="54.950160" lon="20.189040"><ele>27.9</ele><time>2026-06-04T11:01:49Z</time></trkpt>
			<trkpt lat="54.950210" lon="20.189060"><ele>27.9</ele><time>2026-06-04T11:01:51Z</time></trkpt>
			<trkpt lat="54.950260" lon="20.189050"><ele>28.0</ele><time>2026-06-04T11:01:53Z</time></trkpt>
			<trkpt lat="54.950290" lon="20.189020"><ele>28.0</ele><time>2026-06-04T11:01:55Z</time></trkpt>
			<trkpt lat="54.950340" lon="20.189230"><ele>28.2</ele><time>2026-06-04T11:01:57Z</time></trkpt>
			<trkpt lat="54.950510" lon="20.189730"><ele>28.5</ele><time>2026-06-04T11:01:59Z</time></trkpt>
			<trkpt lat="54.950650" lon="20.190200"><ele>28.9</ele><time>2026-06-04T11:02:01Z</time></trkpt>
			<trkpt lat="54.950720" lon="20.190480"><ele>29.1</ele><time>2026-06-04T11:02:03Z</time></trkpt>
			<trkpt lat="54.950750" lon="20.190660"><ele>29.2</ele><time>2026-06-04T11:02:05Z</time></trkpt>
			<trkpt lat="54.950740" lon="20.190780"><ele>29.3</ele><time>2026-06-04T11:02:07Z</time></trkpt>
			<trkpt lat="54.950710" lon="20.191130"><ele>29.5</ele><time>2026-06-04T11:02:09Z</time></trkpt>
			<trkpt lat="54.950630" lon="20.191620"><ele>29.8</ele><time>2026-06-04T11:02:11Z</time></trkpt>
			<trkpt lat="54.950600" lon="20.191860"><ele>30.0</ele><time>2026-06-04T11:02:13Z</time></trkpt>
			<trkpt lat="54.950570" lon="20.192190"><ele>30.2</ele><time>2026-06-04T11:02:15Z</time></trkpt>
			<trkpt lat="54.950560" lon="20.192380"><ele>30.3</ele><time>2026-06-04T11:02:17Z</time></trkpt>
			<trkpt lat="54.950550" lon="20.192550"><ele>30.4</ele><time>2026-06-04T11:02:19Z</time></trkpt>
			<trkpt lat="54.950540" lon="20.193450"><ele>31.0</ele><time>2026-06-04T11:02:21Z</time></trkpt>
			<trkpt lat="54.950550" lon="20.194210"><ele>31.5</ele><time>2026-06-04T11:02:23Z</time></trkpt>
			<trkpt lat="54.950540" lon="20.194400"><ele>31.6</ele><time>2026-06-04T11:02:25Z</time></trkpt>
			<trkpt lat="54.950630" lon="20.195390"><ele>31.8</ele><time>2026-06-04T11:02:27Z</time></trkpt>
			<trkpt lat="54.950610" lon="20.195850"><ele>31.6</ele><time>2026-06-04T11:02:29Z</time></trkpt>
			<trkpt lat="54.950400" lon="20.197230"><ele>30.8</ele><time>2026-06-04T11:02:31Z</time></trkpt>
			<trkpt lat="54.950380" lon="20.197660"><ele>30.6</ele><time>2026-06-04T11:02:33Z</time></trkpt>
			<trkpt lat="54.950410" lon="20.197960"><ele>30.4</ele><time>2026-06-04T11:02:35Z</time></trkpt>
			<trkpt lat="54.950460" lon="20.198250"><ele>30.3</ele><time>2026-06-04T11:02:37Z</time></trkpt>
			<trkpt lat="54.950550" lon="20.198580"><ele>30.1</ele><time>2026-06-04T11:02:39Z</time></trkpt>
			<trkpt lat="54.950860" lon="20.199320"><ele>29.6</ele><time>2026-06-04T11:02:41Z</time></trkpt>
			<trkpt lat="54.951100" lon="20.199850"><ele>29.3</ele><time>2026-06-04T11:02:43Z</time></trkpt>
			<trkpt lat="54.951100" lon="20.199880"><ele>29.2</ele><time>2026-06-04T11:02:45Z</time></trkpt>
			<trkpt lat="54.951270" lon="20.200500"><ele>28.9</ele><time>2026-06-04T11:02:47Z</time></trkpt>
			<trkpt lat="54.951450" lon="20.201920"><ele>28.1</ele><time>2026-06-04T11:02:49Z</time></trkpt>
			<trkpt lat="54.951640" lon="20.202850"><ele>27.6</ele><time>2026-06-04T11:02:51Z</time></trkpt>
			<trkpt lat="54.951770" lon="20.203470"><ele>27.2</ele><time>2026-06-04T11:02:53Z</time></trkpt>
			<trkpt lat="54.951890" lon="20.203890"><ele>27.0</ele><time>2026-06-04T11:02:55Z</time></trkpt>
			<trkpt lat="54.951920" lon="20.203990"><ele>26.9</ele><time>2026-06-04T11:02:57Z</time></trkpt>
			<trkpt lat="54.951950" lon="20.204070"><ele>26.9</ele><time>2026-06-04T11:02:59Z</time></trkpt>
			<trkpt lat="54.952210" lon="20.204740"><ele>26.5</ele><time>2026-06-04T11:03:01Z</time></trkpt>
			<trkpt lat="54.952580" lon="20.205560"><ele>25.9</ele><time>2026-06-04T11:03:03Z</time></trkpt>
			<trkpt lat="54.952710" lon="20.205890"><ele>25.7</ele><time>2026-06-04T11:03:05Z</time></trkpt>
			<trkpt lat="54.952790" lon="20.206220"><ele>25.5</ele><time>2026-06-04T11:03:07Z</time></trkpt>
			<trkpt lat="54.952830" lon="20.206470"><ele>25.4</ele><time>2026-06-04T11:03:09Z</time></trkpt>
			<trkpt lat="54.952850" lon="20.206650"><ele>25.3</ele><time>2026-06-04T11:03:11Z</time></trkpt>
			<trkpt lat="54.952850" lon="20.207020"><ele>25.1</ele><time>2026-06-04T11:03:13Z</time></trkpt>
			<trkpt lat="54.952840" lon="20.207770"><ele>24.7</ele><time>2026-06-04T11:03:15Z</time></trkpt>
			<trkpt lat="54.952840" lon="20.208540"><ele>24.3</ele><time>2026-06-04T11:03:17Z</time></trkpt>
			<trkpt lat="54.952880" lon="20.209150"><ele>24.0</ele><time>2026-06-04T11:03:19Z</time></trkpt>
			<trkpt lat="54.952880" lon="20.209560"><ele>23.7</ele><time>2026-06-04T11:03:21Z</time></trkpt>
			<trkpt lat="54.952880" lon="20.209560"><ele>23.7</ele><time>2026-06-04T11:03:23Z</time></trkpt>
			<trkpt lat="54.952880" lon="20.209750"><ele>23.5</ele><time>2026-06-04T11:03:26Z</time></trkpt>
			<trkpt lat="54.952860" lon="20.210320"><ele>22.8</ele><time>2026-06-04T11:03:28Z</time></trkpt>
			<trkpt lat="54.952800" lon="20.210720"><ele>22.4</ele><time>2026-06-04T11:03:30Z</time></trkpt>
			<trkpt lat="54.952610" lon="20.211760"><ele>21.1</ele><time>2026-06-04T11:03:32Z</time></trkpt>
			<trkpt lat="54.952560" lon="20.212010"><ele>20.8</ele><time>2026-06-04T11:03:34Z</time></trkpt>
			<trkpt lat="54.952460" lon="20.212640"><ele>20.1</ele><time>2026-06-04T11:03:36Z</time></trkpt>
			<trkpt lat="54.952280" lon="20.213200"><ele>19.4</ele><time>2026-06-04T11:03:39Z</time></trkpt>
			<trkpt lat="54.952070" lon="20.213640"><ele>18.7</ele><time>2026-06-04T11:03:41Z</time></trkpt>
			<trkpt lat="54.951970" lon="20.213860"><ele>18.4</ele><time>2026-06-04T11:03:43Z</time></trkpt>
			<trkpt lat="54.951900" lon="20.214050"><ele>18.1</ele><time>2026-06-04T11:03:45Z</time></trkpt>
			<trkpt lat="54.951890" lon="20.214140"><ele>18.0</ele><time>2026-06-04T11:03:47Z</time></trkpt>
			<trkpt lat="54.951860" lon="20.214250"><ele>17.9</ele><time>2026-06-04T11:03:50Z</time></trkpt>
			<trkpt lat="54.951850" lon="20.214440"><ele>17.7</ele><time>2026-06-04T11:03:52Z</time></trkpt>
			<trkpt lat="54.951850" lon="20.214880"><ele>17.2</ele><time>2026-06-04T11:03:54Z</time></trkpt>
			<trkpt lat="54.951900" lon="20.215210"><ele>16.8</ele><time>2026-06-04T11:03:56Z</time></trkpt>
			<trkpt lat="54.951990" lon="20.215520"><ele>16.4</ele><time>2026-06-04T11:03:58Z</time></trkpt>
			<trkpt lat="54.952130" lon="20.215960"><ele>15.8</ele><time>2026-06-04T11:04:00Z</time></trkpt>
			<trkpt lat="54.952230" lon="20.216220"><ele>15.5</ele><time>2026-06-04T11:04:03Z</time></trkpt>
			<trkpt lat="54.952350" lon="20.216440"><ele>15.1</ele><time>2026-06-04T11:04:05Z</time></trkpt>
			<trkpt lat="54.952470" lon="20.216630"><ele>14.8</ele><time>2026-06-04T11:04:07Z</time></trkpt>
			<trkpt lat="54.952640" lon="20.216870"><ele>14.4</ele><time>2026-06-04T11:04:09Z</time></trkpt>
			<trkpt lat="54.953090" lon="20.217440"><ele>13.3</ele><time>2026-06-04T11:04:11Z</time></trkpt>
			<trkpt lat="54.953140" lon="20.217520"><ele>13.1</ele><time>2026-06-04T11:04:13Z</time></trkpt>
			<trkpt lat="54.953260" lon="20.217660"><ele>12.8</ele><time>2026-06-04T11:04:16Z</time></trkpt>
			<trkpt lat="54.953310" lon="20.217730"><ele>12.7</ele><time>2026-06-04T11:04:18Z</time></trkpt>
			<trkpt lat="54.953490" lon="20.218040"><ele>12.2</ele><time>2026-06-04T11:04:20Z</time></trkpt>
			<trkpt lat="54.953550" lon="20.218170"><ele>12.0</ele><time>2026-06-04T11:04:22Z</time></trkpt>
			<trkpt lat="54.953610" lon="20.218370"><ele>11.8</ele><time>2026-06-04T11:04:24Z</time></trkpt>
			<trkpt lat="54.953690" lon="20.218710"><ele>11.4</ele><time>2026-06-04T11:04:27Z</time></trkpt>
			<trkpt lat="54.953770" lon="20.219350"><ele>10.6</ele><time>2026-06-04T11:04:29Z</time></trkpt>
			<trkpt lat="54.953840" lon="20.220110"><ele>9.7</ele><time>2026-06-04T11:04:31Z</time></trkpt>
			<trkpt lat="54.953940" lon="20.220670"><ele>9.1</ele><time>2026-06-04T11:04:33Z</time></trkpt>
			<trkpt lat="54.953930" lon="20.220790"><ele>8.9</ele><time>2026-06-04T11:04:35Z</time></trkpt>
			<trkpt lat="54.953910" lon="20.220890"><ele>8.8</ele><time>2026-06-04T11:04:37Z</time></trkpt>
			<trkpt lat="54.953860" lon="20.220960"><ele>8.7</ele><time>2026-06-04T11:04:40Z</time></trkpt>
			<trkpt lat="54.953810" lon="20.221050"><ele>8.5</ele><time>2026-06-04T11:04:42Z</time></trkpt>
			<trkpt lat="54.953780" lon="20.221150"><ele>8.4</ele><time>2026-06-04T11:04:44Z</time></trkpt>
			<trkpt lat="54.953770" lon="20.221270"><ele>8.3</ele><time>2026-06-04T11:04:46Z</time></trkpt>
			<trkpt lat="54.953770" lon="20.221380"><ele>8.2</ele><time>2026-06-04T11:04:48Z</time></trkpt>
			<trkpt lat="54.953790" lon="20.221490"><ele>8.0</ele><time>2026-06-04T11:04:50Z</time></trkpt>
			<trkpt lat="54.953820" lon="20.221600"><ele>7.9</ele><time>2026-06-04T11:04:53Z</time></trkpt>
			<trkpt lat="54.953870" lon="20.221680"><ele>7.7</ele><time>2026-06-04T11:04:55Z</time></trkpt>
			<trkpt lat="54.953920" lon="20.221740"><ele>7.6</ele><time>2026-06-04T11:04:57Z</time></trkpt>
			<trkpt lat="54.953990" lon="20.221780"><ele>7.5</ele><time>2026-06-04T11:04:59Z</time></trkpt>
			<trkpt lat="54.954010" lon="20.221780"><ele>7.4</ele><time>2026-06-04T11:05:01Z</time></trkpt>
			<trkpt lat="54.954050" lon="20.221790"><ele>7.4</ele><time>2026-06-04T11:05:04Z</time></trkpt>
			<trkpt lat="54.954120" lon="20.221770"><ele>7.2</ele><time>2026-06-04T11:05:06Z</time></trkpt>
			<trkpt lat="54.954250" lon="20.221940"><ele>6.9</ele><time>2026-06-04T11:05:08Z</time></trkpt>
			<trkpt lat="54.954260" lon="20.222360"><ele>6.4</ele><time>2026-06-04T11:05:10Z</time></trkpt>
			<trkpt lat="54.954250" lon="20.222470"><ele>6.3</ele><time>2026-06-04T11:05:12Z</time></trkpt>
			<trkpt lat="54.954210" lon="20.222720"><ele>6.0</ele><time>2026-06-04T11:05:14Z</time></trkpt>
			<trkpt lat="54.954150" lon="20.223190"><ele>6.3</ele><time>2026-06-04T11:05:17Z</time></trkpt>
			<trkpt lat="54.954040" lon="20.224110"><ele>6.9</ele><time>2026-06-04T11:05:19Z</time></trkpt>
			<trkpt lat="54.954010" lon="20.224360"><ele>7.1</ele><time>2026-06-04T11:05:21Z</time></trkpt>
			<trkpt lat="54.953970" lon="20.224580"><ele>7.2</ele><time>2026-06-04T11:05:23Z</time></trkpt>
			<trkpt lat="54.953890" lon="20.224800"><ele>7.4</ele><time>2026-06-04T11:05:25Z</time></trkpt>
			<trkpt lat="54.953770" lon="20.225040"><ele>7.6</ele><time>2026-06-04T11:05:27Z</time></trkpt>
			<trkpt lat="54.953650" lon="20.225170"><ele>7.8</ele><time>2026-06-04T11:05:30Z</time></trkpt>
			<trkpt lat="54.953680" lon="20.225280"><ele>7.8</ele><time>2026-06-04T11:05:32Z</time></trkpt>
			<trkpt lat="54.953700" lon="20.225640"><ele>8.1</ele><time>2026-06-04T11:05:34Z</time></trkpt>
			<trkpt lat="54.953700" lon="20.225810"><ele>8.2</ele><time>2026-06-04T11:05:36Z</time></trkpt>
			<trkpt lat="54.953620" lon="20.226890"><ele>8.9</ele><time>2026-06-04T11:05:38Z</time></trkpt>
			<trkpt lat="54.953610" lon="20.227310"><ele>9.2</ele><time>2026-06-04T11:05:41Z</time></trkpt>
			<trkpt lat="54.953640" lon="20.227630"><ele>9.4</ele><time>2026-06-04T11:05:43Z</time></trkpt>
			<trkpt lat="54.953680" lon="20.228290"><ele>9.8</ele><time>2026-06-04T11:05:45Z</time></trkpt>
			<trkpt lat="54.953690" lon="20.228410"><ele>9.9</ele><time>2026-06-04T11:05:47Z</time></trkpt>
			<trkpt lat="54.953680" lon="20.228720"><ele>10.1</ele><time>2026-06-04T11:05:49Z</time></trkpt>
			<trkpt lat="54.953610" lon="20.229130"><ele>10.4</ele><time>2026-06-04T11:05:51Z</time></trkpt>
			<trkpt lat="54.953580" lon="20.229320"><ele>10.5</ele><time>2026-06-04T11:05:54Z</time></trkpt>
			<trkpt lat="54.953530" lon="20.229610"><ele>10.7</ele><time>2026-06-04T11:05:56Z</time></trkpt>
			<trkpt lat="54.953510" lon="20.229720"><ele>10.8</ele><time>2026-06-04T11:05:58Z</time></trkpt>
			<trkpt lat="54.953500" lon="20.229830"><ele>10.9</ele><time>2026-06-04T11:06:00Z</time></trkpt>
			<trkpt lat="54.953480" lon="20.230160"><ele>11.1</ele><time>2026-06-04T11:06:02Z</time></trkpt>
			<trkpt lat="54.953470" lon="20.230900"><ele>11.6</ele><time>2026-06-04T11:06:04Z</time></trkpt>
			<trkpt lat="54.953470" lon="20.231000"><ele>11.6</ele><time>2026-06-04T11:06:07Z</time></trkpt>
			<trkpt lat="54.953460" lon="20.231260"><ele>11.8</ele><time>2026-06-04T11:06:09Z</time></trkpt>
			<trkpt lat="54.953450" lon="20.231880"><ele>12.2</ele><time>2026-06-04T11:06:11Z</time></trkpt>
			<trkpt lat="54.953440" lon="20.232590"><ele>12.7</ele><time>2026-06-04T11:06:13Z</time></trkpt>
			<trkpt lat="54.953430" lon="20.232820"><ele>12.8</ele><time>2026-06-04T11:06:15Z</time></trkpt>
			<trkpt lat="54.953420" lon="20.232940"><ele>12.9</ele><time>2026-06-04T11:06:18Z</time></trkpt>
			<trkpt lat="54.953410" lon="20.233050"><ele>13.0</ele><time>2026-06-04T11:06:20Z</time></trkpt>
			<trkpt lat="54.953340" lon="20.233430"><ele>13.3</ele><time>2026-06-04T11:06:22Z</time></trkpt>
			<trkpt lat="54.953250" lon="20.233920"><ele>13.6</ele><time>2026-06-04T11:06:24Z</time></trkpt>
			<trkpt lat="54.953240" lon="20.233990"><ele>13.7</ele><time>2026-06-04T11:06:26Z</time></trkpt>
			<trkpt lat="54.953130" lon="20.234600"><ele>14.1</ele><time>2026-06-04T11:06:28Z</time></trkpt>
			<trkpt lat="54.953050" lon="20.234910"><ele>14.3</ele><time>2026-06-04T11:06:31Z</time></trkpt>
			<trkpt lat="54.953010" lon="20.235030"><ele>14.4</ele><time>2026-06-04T11:06:33Z</time></trkpt>
			<trkpt lat="54.952950" lon="20.235230"><ele>14.5</ele><time>2026-06-04T11:06:35Z</time></trkpt>
			<trkpt lat="54.952720" lon="20.235890"><ele>15.0</ele><time>2026-06-04T11:06:37Z</time></trkpt>
			<trkpt lat="54.952580" lon="20.236290"><ele>15.4</ele><time>2026-06-04T11:06:39Z</time></trkpt>
			<trkpt lat="54.952420" lon="20.236740"><ele>15.7</ele><time>2026-06-04T11:06:41Z</time></trkpt>
			<trkpt lat="54.952410" lon="20.236790"><ele>15.7</ele><time>2026-06-04T11:06:44Z</time></trkpt>
			<trkpt lat="54.952360" lon="20.237010"><ele>15.9</ele><time>2026-06-04T11:06:46Z</time></trkpt>
			<trkpt lat="54.952240" lon="20.237860"><ele>16.2</ele><time>2026-06-04T11:06:48Z</time></trkpt>
			<trkpt lat="54.952210" lon="20.238080"><ele>16.0</ele><time>2026-06-04T11:06:50Z</time></trkpt>
			<trkpt lat="54.952040" lon="20.239300"><ele>15.4</ele><time>2026-06-04T11:06:52Z</time></trkpt>
			<trkpt lat="54.952010" lon="20.239500"><ele>15.3</ele><time>2026-06-04T11:06:54Z</time></trkpt>
			<trkpt lat="54.952000" lon="20.239620"><ele>15.2</ele><time>2026-06-04T11:06:57Z</time></trkpt>
			<trkpt lat="54.951960" lon="20.239830"><ele>15.1</ele><time>2026-06-04T11:06:59Z</time></trkpt>
			<trkpt lat="54.951800" lon="20.241000"><ele>14.4</ele><time>2026-06-04T11:07:01Z</time></trkpt>
			<trkpt lat="54.950610" lon="20.249730"><ele>9.7</ele><time>2026-06-04T11:07:03Z</time></trkpt>
			<trkpt lat="54.950550" lon="20.250170"><ele>9.4</ele><time>2026-06-04T11:07:05Z</time></trkpt>
			<trkpt lat="54.950530" lon="20.250670"><ele>9.2</ele><time>2026-06-04T11:07:08Z</time></trkpt>
			<trkpt lat="54.950530" lon="20.251180"><ele>8.9</ele><time>2026-06-04T11:07:10Z</time></trkpt>
			<trkpt lat="54.950580" lon="20.251800"><ele>8.6</ele><time>2026-06-04T11:07:12Z</time></trkpt>
			<trkpt lat="54.950640" lon="20.252640"><ele>8.1</ele><time>2026-06-04T11:07:14Z</time></trkpt>
			<trkpt lat="54.950670" lon="20.253290"><ele>8.2</ele><time>2026-06-04T11:07:16Z</time></trkpt>
			<trkpt lat="54.950710" lon="20.254160"><ele>8.7</ele><time>2026-06-04T11:07:18Z</time></trkpt>
			<trkpt lat="54.950710" lon="20.254410"><ele>8.8</ele><time>2026-06-04T11:07:21Z</time></trkpt>
			<trkpt lat="54.950670" lon="20.254570"><ele>8.9</ele><time>2026-06-04T11:07:23Z</time></trkpt>
			<trkpt lat="54.950640" lon="20.254640"><ele>9.0</ele><time>2026-06-04T11:07:25Z</time></trkpt>
			<trkpt lat="54.950600" lon="20.254680"><ele>9.0</ele><time>2026-06-04T11:07:27Z</time></trkpt>
			<trkpt lat="54.950540" lon="20.254720"><ele>9.1</ele><time>2026-06-04T11:07:29Z</time></trkpt>
			<trkpt lat="54.950140" lon="20.254840"><ele>9.5</ele><time>2026-06-04T11:07:31Z</time></trkpt>
			<trkpt lat="54.950030" lon="20.254900"><ele>9.6</ele><time>2026-06-04T11:07:34Z</time></trkpt>
			<trkpt lat="54.949980" lon="20.254950"><ele>9.7</ele><time>2026-06-04T11:07:36Z</time></trkpt>
			<trkpt lat="54.949940" lon="20.255020"><ele>9.7</ele><time>2026-06-04T11:07:38Z</time></trkpt>
			<trkpt lat="54.949900" lon="20.255140"><ele>9.8</ele><time>2026-06-04T11:07:40Z</time></trkpt>
			<trkpt lat="54.949880" lon="20.255270"><ele>9.9</ele><time>2026-06-04T11:07:42Z</time></trkpt>
			<trkpt lat="54.949890" lon="20.255630"><ele>10.1</ele><time>2026-06-04T11:07:45Z</time></trkpt>
			<trkpt lat="54.949960" lon="20.256880"><ele>10.8</ele><time>2026-06-04T11:07:47Z</time></trkpt>
			<trkpt lat="54.949980" lon="20.257360"><ele>11.1</ele><time>2026-06-04T11:07:49Z</time></trkpt>
			<trkpt lat="54.949900" lon="20.257400"><ele>11.2</ele><time>2026-06-04T11:07:51Z</time></trkpt>
			<trkpt lat="54.949800" lon="20.257490"><ele>11.3</ele><time>2026-06-04T11:07:53Z</time></trkpt>
			<trkpt lat="54.949460" lon="20.257620"><ele>11.7</ele><time>2026-06-04T11:07:55Z</time></trkpt>
			<trkpt lat="54.949460" lon="20.257620"><ele>11.7</ele><time>2026-06-04T11:08:01Z</time></trkpt>
			<trkpt lat="54.948850" lon="20.257880"><ele>12.3</ele><time>2026-06-04T11:08:06Z</time></trkpt>
			<trkpt lat="54.948380" lon="20.258050"><ele>12.8</ele><time>2026-06-04T11:08:11Z</time></trkpt>
			<trkpt lat="54.948270" lon="20.258090"><ele>12.9</ele><time>2026-06-04T11:08:17Z</time></trkpt>
			<trkpt lat="54.947880" lon="20.258240"><ele>13.3</ele><time>2026-06-04T11:08:22Z</time></trkpt>
			<trkpt lat="54.947550" lon="20.258360"><ele>13.6</ele><time>2026-06-04T11:08:27Z</time></trkpt>
			<trkpt lat="54.946860" lon="20.258630"><ele>14.4</ele><time>2026-06-04T11:08:33Z</time></trkpt>
			<trkpt lat="54.946750" lon="20.258650"><ele>14.5</ele><time>2026-06-04T11:08:38Z</time></trkpt>
			<trkpt lat="54.946090" lon="20.258790"><ele>15.1</ele><time>2026-06-04T11:08:43Z</time></trkpt>
			<trkpt lat="54.943840" lon="20.259280"><ele>17.4</ele><time>2026-06-04T11:08:49Z</time></trkpt>
			<trkpt lat="54.943740" lon="20.259300"><ele>17.5</ele><time>2026-06-04T11:08:54Z</time></trkpt>
			<trkpt lat="54.941210" lon="20.259880"><ele>20.2</ele><time>2026-06-04T11:08:59Z</time></trkpt>
			<trkpt lat="54.938240" lon="20.260510"><ele>23.4</ele><time>2026-06-04T11:09:04Z</time></trkpt>
			<trkpt lat="54.936500" lon="20.260720"><ele>25.2</ele><time>2026-06-04T11:09:10Z</time></trkpt>
			<trkpt lat="54.935050" lon="20.260720"><ele>26.5</ele><time>2026-06-04T11:09:15Z</time></trkpt>
			<trkpt lat="54.934230" lon="20.260720"><ele>26.8</ele><time>2026-06-04T11:09:20Z</time></trkpt>
			<trkpt lat="54.933190" lon="20.260730"><ele>27.1</ele><time>2026-06-04T11:09:26Z</time></trkpt>
			<trkpt lat="54.932570" lon="20.260740"><ele>27.3</ele><time>2026-06-04T11:09:31Z</time></trkpt>
			<trkpt lat="54.932290" lon="20.260740"><ele>27.4</ele><time>2026-06-04T11:09:36Z</time></trkpt>
			<trkpt lat="54.932010" lon="20.260750"><ele>27.5</ele><time>2026-06-04T11:09:42Z</time></trkpt>
			<trkpt lat="54.931240" lon="20.260760"><ele>27.7</ele><time>2026-06-04T11:09:47Z</time></trkpt>
			<trkpt lat="54.930520" lon="20.260770"><ele>27.9</ele><time>2026-06-04T11:09:52Z</time></trkpt>
			<trkpt lat="54.929910" lon="20.260770"><ele>28.1</ele><time>2026-06-04T11:09:58Z</time></trkpt>
			<trkpt lat="54.929110" lon="20.260760"><ele>28.4</ele><time>2026-06-04T11:10:03Z</time></trkpt>
			<trkpt lat="54.928630" lon="20.260580"><ele>28.5</ele><time>2026-06-04T11:10:08Z</time></trkpt>
			<trkpt lat="54.928430" lon="20.260410"><ele>28.6</ele><time>2026-06-04T11:10:13Z</time></trkpt>
			<trkpt lat="54.928190" lon="20.260120"><ele>28.7</ele><time>2026-06-04T11:10:19Z</time></trkpt>
			<trkpt lat="54.927710" lon="20.259420"><ele>28.9</ele><time>2026-06-04T11:10:24Z</time></trkpt>
			<trkpt lat="54.927170" lon="20.260280"><ele>29.1</ele><time>2026-06-04T11:10:29Z</time></trkpt>
			<trkpt lat="54.926800" lon="20.260780"><ele>29.2</ele><time>2026-06-04T11:10:35Z</time></trkpt>
			<trkpt lat="54.926060" lon="20.261550"><ele>30.9</ele><time>2026-06-04T11:10:40Z</time></trkpt>
			<trkpt lat="54.925820" lon="20.261760"><ele>31.4</ele><time>2026-06-04T11:10:45Z</time></trkpt>
			<trkpt lat="54.925300" lon="20.262140"><ele>32.4</ele><time>2026-06-04T11:10:51Z</time></trkpt>
			<trkpt lat="54.924970" lon="20.262360"><ele>33.1</ele><time>2026-06-04T11:10:56Z</time></trkpt>
			<trkpt lat="54.923510" lon="20.263180"><ele>36.0</ele><time>2026-06-04T11:11:01Z</time></trkpt>
			<trkpt lat="54.922920" lon="20.263490"><ele>37.2</ele><time>2026-06-04T11:11:07Z</time></trkpt>
			<trkpt lat="54.922140" lon="20.263860"><ele>38.7</ele><time>2026-06-04T11:11:12Z</time></trkpt>
			<trkpt lat="54.921440" lon="20.264200"><ele>40.1</ele><time>2026-06-04T11:11:17Z</time></trkpt>
			<trkpt lat="54.918580" lon="20.265550"><ele>45.8</ele><time>2026-06-04T11:11:22Z</time></trkpt>
			<trkpt lat="54.917500" lon="20.266220"><ele>44.7</ele><time>2026-06-04T11:11:28Z</time></trkpt>
			<trkpt lat="54.916760" lon="20.266750"><ele>43.2</ele><time>2026-06-04T11:11:33Z</time></trkpt>
			<trkpt lat="54.917010" lon="20.267690"><ele>42.1</ele><time>2026-06-04T11:11:38Z</time></trkpt>
			<trkpt lat="54.917190" lon="20.268400"><ele>41.3</ele><time>2026-06-04T11:11:44Z</time></trkpt>
			<trkpt lat="54.917400" lon="20.269020"><ele>40.5</ele><time>2026-06-04T11:11:49Z</time></trkpt>
			<trkpt lat="54.917630" lon="20.269440"><ele>39.8</ele><time>2026-06-04T11:11:54Z</time></trkpt>
			<trkpt lat="54.917810" lon="20.269660"><ele>39.4</ele><time>2026-06-04T11:12:00Z</time></trkpt>
			<trkpt lat="54.918230" lon="20.269970"><ele>38.6</ele><time>2026-06-04T11:12:05Z</time></trkpt>
			<trkpt lat="54.919680" lon="20.270440"><ele>35.8</ele><time>2026-06-04T11:12:10Z</time></trkpt>
			<trkpt lat="54.919910" lon="20.270630"><ele>35.3</ele><time>2026-06-04T11:12:16Z</time></trkpt>
			<trkpt lat="54.919990" lon="20.270740"><ele>35.1</ele><time>2026-06-04T11:12:21Z</time></trkpt>
			<trkpt lat="54.920040" lon="20.270920"><ele>34.9</ele><time>2026-06-04T11:12:26Z</time></trkpt>
			<trkpt lat="54.920130" lon="20.272070"><ele>33.6</ele><time>2026-06-04T11:12:31Z</time></trkpt>
			<trkpt lat="54.920530" lon="20.282120"><ele>25.7</ele><time>2026-06-04T11:12:37Z</time></trkpt>
			<trkpt lat="54.920530" lon="20.282120"><ele>25.7</ele><time>2026-06-04T11:12:41Z</time></trkpt>
			<trkpt lat="54.920790" lon="20.288720"><ele>21.9</ele><time>2026-06-04T11:12:45Z</time></trkpt>
			<trkpt lat="54.921110" lon="20.296500"><ele>19.5</ele><time>2026-06-04T11:12:50Z</time></trkpt>
			<trkpt lat="54.921160" lon="20.297880"><ele>19.3</ele><time>2026-06-04T11:12:54Z</time></trkpt>
			<trkpt lat="54.921340" lon="20.302980"><ele>18.6</ele><time>2026-06-04T11:12:58Z</time></trkpt>
			<trkpt lat="54.921390" lon="20.304220"><ele>18.4</ele><time>2026-06-04T11:13:03Z</time></trkpt>
			<trkpt lat="54.921450" lon="20.306950"><ele>18.0</ele><time>2026-06-04T11:13:07Z</time></trkpt>
			<trkpt lat="54.921540" lon="20.312040"><ele>18.0</ele><time>2026-06-04T11:13:11Z</time></trkpt>
			<trkpt lat="54.921570" lon="20.316290"><ele>18.1</ele><time>2026-06-04T11:13:16Z</time></trkpt>
			<trkpt lat="54.921550" lon="20.319480"><ele>18.1</ele><time>2026-06-04T11:13:20Z</time></trkpt>
			<trkpt lat="54.921490" lon="20.323970"><ele>17.6</ele><time>2026-06-04T11:13:24Z</time></trkpt>
			<trkpt lat="54.921480" lon="20.324970"><ele>17.0</ele><time>2026-06-04T11:13:29Z</time></trkpt>
			<trkpt lat="54.921400" lon="20.328870"><ele>14.8</ele><time>2026-06-04T11:13:33Z</time></trkpt>
			<trkpt lat="54.921300" lon="20.331770"><ele>13.1</ele><time>2026-06-04T11:13:37Z</time></trkpt>
			<trkpt lat="54.921250" lon="20.332690"><ele>12.5</ele><time>2026-06-04T11:13:42Z</time></trkpt>
			<trkpt lat="54.921100" lon="20.335950"><ele>10.7</ele><time>2026-06-04T11:13:46Z</time></trkpt>
			<trkpt lat="54.920850" lon="20.340660"><ele>8.6</ele><time>2026-06-04T11:13:50Z</time></trkpt>
			<trkpt lat="54.920620" lon="20.344270"><ele>7.6</ele><time>2026-06-04T11:13:55Z</time></trkpt>
			<trkpt lat="54.920130" lon="20.352180"><ele>5.5</ele><time>2026-06-04T11:13:59Z</time></trkpt>
			<trkpt lat="54.920060" lon="20.353740"><ele>5.1</ele><time>2026-06-04T11:14:03Z</time></trkpt>
			<trkpt lat="54.920020" lon="20.354980"><ele>4.8</ele><time>2026-06-04T11:14:08Z</time></trkpt>
			<trkpt lat="54.919990" lon="20.356250"><ele>4.4</ele><time>2026-06-04T11:14:12Z</time></trkpt>
			<trkpt lat="54.919990" lon="20.356980"><ele>4.2</ele><time>2026-06-04T11:14:16Z</time></trkpt>
			<trkpt lat="54.920000" lon="20.357990"><ele>3.9</ele><time>2026-06-04T11:14:21Z</time></trkpt>
			<trkpt lat="54.920020" lon="20.359560"><ele>3.4</ele><time>2026-06-04T11:14:25Z</time></trkpt>
			<trkpt lat="54.920080" lon="20.361030"><ele>3.0</ele><time>2026-06-04T11:14:29Z</time></trkpt>
			<trkpt lat="54.920150" lon="20.362310"><ele>2.6</ele><time>2026-06-04T11:14:34Z</time></trkpt>
			<trkpt lat="54.920240" lon="20.363650"><ele>2.2</ele><time>2026-06-04T11:14:38Z</time></trkpt>
			<trkpt lat="54.920320" lon="20.364550"><ele>2.0</ele><time>2026-06-04T11:14:42Z</time></trkpt>
			<trkpt lat="54.920530" lon="20.366650"><ele>1.4</ele><time>2026-06-04T11:14:47Z</time></trkpt>
			<trkpt lat="54.920630" lon="20.367440"><ele>1.1</ele><time>2026-06-04T11:14:51Z</time></trkpt>
			<trkpt lat="54.920920" lon="20.369470"><ele>0.5</ele><time>2026-06-04T11:14:55Z</time></trkpt>
			<trkpt lat="54.921150" lon="20.370910"><ele>0.4</ele><time>2026-06-04T11:15:00Z</time></trkpt>
			<trkpt lat="54.921400" lon="20.372260"><ele>0.3</ele><time>2026-06-04T11:15:04Z</time></trkpt>
			<trkpt lat="54.921610" lon="20.373360"><ele>0.2</ele><time>2026-06-04T11:15:08Z</time></trkpt>
			<trkpt lat="54.921860" lon="20.374590"><ele>0.1</ele><time>2026-06-04T11:15:13Z</time></trkpt>
			<trkpt lat="54.922010" lon="20.375410"><ele>-0.0</ele><time>2026-06-04T11:15:17Z</time></trkpt>
			<trkpt lat="54.922070" lon="20.375690"><ele>-0.0</ele><time>2026-06-04T11:15:21Z</time></trkpt>
			<trkpt lat="54.922290" lon="20.376950"><ele>-0.1</ele><time>2026-06-04T11:15:26Z</time></trkpt>
			<trkpt lat="54.922560" lon="20.378670"><ele>-0.3</ele><time>2026-06-04T11:15:30Z</time></trkpt>
			<trkpt lat="54.922750" lon="20.380120"><ele>-0.4</ele><time>2026-06-04T11:15:35Z</time></trkpt>
			<trkpt lat="54.922920" lon="20.381640"><ele>-0.5</ele><time>2026-06-04T11:15:39Z</time></trkpt>
			<trkpt lat="54.923110" lon="20.383760"><ele>-0.7</ele><time>2026-06-04T11:15:43Z</time></trkpt>
			<trkpt lat="54.923230" lon="20.385490"><ele>-0.7</ele><time>2026-06-04T11:15:48Z</time></trkpt>
			<trkpt lat="54.923360" lon="20.387990"><ele>-0.7</ele><time>2026-06-04T11:15:52Z</time></trkpt>
			<trkpt lat="54.923400" lon="20.389540"><ele>-0.6</ele><time>2026-06-04T11:15:56Z</time></trkpt>
			<trkpt lat="54.923390" lon="20.391850"><ele>-0.5</ele><time>2026-06-04T11:16:01Z</time></trkpt>
			<trkpt lat="54.923380" lon="20.392650"><ele>-0.5</ele><time>2026-06-04T11:16:05Z</time></trkpt>
			<trkpt lat="54.923320" lon="20.393870"><ele>-0.5</ele><time>2026-06-04T11:16:09Z</time></trkpt>
			<trkpt lat="54.923220" lon="20.395650"><ele>-0.4</ele><time>2026-06-04T11:16:14Z</time></trkpt>
			<trkpt lat="54.923140" lon="20.396770"><ele>-0.4</ele><time>2026-06-04T11:16:18Z</time></trkpt>
			<trkpt lat="54.923050" lon="20.397990"><ele>-0.4</ele><time>2026-06-04T11:16:22Z</time></trkpt>
			<trkpt lat="54.922960" lon="20.398760"><ele>-0.3</ele><time>2026-06-04T11:16:27Z</time></trkpt>
			<trkpt lat="54.922920" lon="20.399180"><ele>-0.3</ele><time>2026-06-04T11:16:31Z</time></trkpt>
			<trkpt lat="54.922770" lon="20.400410"><ele>-0.3</ele><time>2026-06-04T11:16:35Z</time></trkpt>
			<trkpt lat="54.922580" lon="20.401780"><ele>0.1</ele><time>2026-06-04T11:16:40Z</time></trkpt>
			<trkpt lat="54.922430" lon="20.402810"><ele>0.4</ele><time>2026-06-04T11:16:44Z</time></trkpt>
			<trkpt lat="54.921870" lon="20.405810"><ele>1.3</ele><time>2026-06-04T11:16:48Z</time></trkpt>
			<trkpt lat="54.921700" lon="20.406680"><ele>1.6</ele><time>2026-06-04T11:16:53Z</time></trkpt>
			<trkpt lat="54.921520" lon="20.407510"><ele>1.9</ele><time>2026-06-04T11:16:57Z</time></trkpt>
			<trkpt lat="54.920400" lon="20.412290"><ele>3.3</ele><time>2026-06-04T11:17:01Z</time></trkpt>
			<trkpt lat="54.920200" lon="20.413220"><ele>3.6</ele><time>2026-06-04T11:17:06Z</time></trkpt>
			<trkpt lat="54.919760" lon="20.415540"><ele>4.2</ele><time>2026-06-04T11:17:10Z</time></trkpt>
			<trkpt lat="54.919630" lon="20.416280"><ele>4.2</ele><time>2026-06-04T11:17:14Z</time></trkpt>
			<trkpt lat="54.919360" lon="20.418220"><ele>4.2</ele><time>2026-06-04T11:17:19Z</time></trkpt>
			<trkpt lat="54.919160" lon="20.419710"><ele>4.1</ele><time>2026-06-04T11:17:23Z</time></trkpt>
			<trkpt lat="54.919040" lon="20.420760"><ele>4.1</ele><time>2026-06-04T11:17:27Z</time></trkpt>
			<trkpt lat="54.918950" lon="20.421810"><ele>4.1</ele><time>2026-06-04T11:17:32Z</time></trkpt>
			<trkpt lat="54.918820" lon="20.423290"><ele>4.1</ele><time>2026-06-04T11:17:36Z</time></trkpt>
			<trkpt lat="54.918690" lon="20.425390"><ele>4.1</ele><time>2026-06-04T11:17:40Z</time></trkpt>
			<trkpt lat="54.918630" lon="20.427150"><ele>4.0</ele><time>2026-06-04T11:17:45Z</time></trkpt>
			<trkpt lat="54.918600" lon="20.428570"><ele>4.0</ele><time>2026-06-04T11:17:49Z</time></trkpt>
			<trkpt lat="54.918600" lon="20.429920"><ele>4.0</ele><time>2026-06-04T11:17:53Z</time></trkpt>
			<trkpt lat="54.918610" lon="20.430780"><ele>4.0</ele><time>2026-06-04T11:17:58Z</time></trkpt>
			<trkpt lat="54.918630" lon="20.431760"><ele>4.1</ele><time>2026-06-04T11:18:02Z</time></trkpt>
			<trkpt lat="54.918720" lon="20.433970"><ele>4.2</ele><time>2026-06-04T11:18:06Z</time></trkpt>
			<trkpt lat="54.918780" lon="20.434970"><ele>4.3</ele><time>2026-06-04T11:18:11Z</time></trkpt>
			<trkpt lat="54.918850" lon="20.435980"><ele>4.3</ele><time>2026-06-04T11:18:15Z</time></trkpt>
			<trkpt lat="54.919980" lon="20.448500"><ele>4.8</ele><time>2026-06-04T11:18:19Z</time></trkpt>
			<trkpt lat="54.920120" lon="20.450180"><ele>4.7</ele><time>2026-06-04T11:18:24Z</time></trkpt>
			<trkpt lat="54.920180" lon="20.451020"><ele>4.6</ele><time>2026-06-04T11:18:28Z</time></trkpt>
			<trkpt lat="54.920270" lon="20.452870"><ele>4.5</ele><time>2026-06-04T11:18:32Z</time></trkpt>
			<trkpt lat="54.920310" lon="20.454440"><ele>4.4</ele><time>2026-06-04T11:18:37Z</time></trkpt>
			<trkpt lat="54.920320" lon="20.455740"><ele>4.4</ele><time>2026-06-04T11:18:41Z</time></trkpt>
			<trkpt lat="54.920300" lon="20.457630"><ele>4.3</ele><time>2026-06-04T11:18:45Z</time></trkpt>
			<trkpt lat="54.920180" lon="20.460430"><ele>4.1</ele><time>2026-06-04T11:18:50Z</time></trkpt>
			<trkpt lat="54.920080" lon="20.461980"><ele>4.1</ele><time>2026-06-04T11:18:54Z</time></trkpt>
			<trkpt lat="54.919960" lon="20.463340"><ele>4.2</ele><time>2026-06-04T11:18:58Z</time></trkpt>
			<trkpt lat="54.919880" lon="20.464170"><ele>4.2</ele><time>2026-06-04T11:19:03Z</time></trkpt>
			<trkpt lat="54.919750" lon="20.465410"><ele>4.3</ele><time>2026-06-04T11:19:07Z</time></trkpt>
			<trkpt lat="54.919610" lon="20.466600"><ele>4.4</ele><time>2026-06-04T11:19:11Z</time></trkpt>
			<trkpt lat="54.919420" lon="20.467890"><ele>4.5</ele><time>2026-06-04T11:19:16Z</time></trkpt>
			<trkpt lat="54.919280" lon="20.469150"><ele>4.6</ele><time>2026-06-04T11:19:20Z</time></trkpt>
			<trkpt lat="54.918780" lon="20.471980"><ele>4.8</ele><time>2026-06-04T11:19:24Z</time></trkpt>
			<trkpt lat="54.918350" lon="20.474120"><ele>4.9</ele><time>2026-06-04T11:19:29Z</time></trkpt>
			<trkpt lat="54.918030" lon="20.475800"><ele>5.0</ele><time>2026-06-04T11:19:33Z</time></trkpt>
			<trkpt lat="54.917580" lon="20.478120"><ele>4.9</ele><time>2026-06-04T11:19:37Z</time></trkpt>
			<trkpt lat="54.917230" lon="20.479680"><ele>4.7</ele><time>2026-06-04T11:19:42Z</time></trkpt>
			<trkpt lat="54.916860" lon="20.481230"><ele>4.5</ele><time>2026-06-04T11:19:46Z</time></trkpt>
			<trkpt lat="54.916620" lon="20.482120"><ele>4.4</ele><time>2026-06-04T11:19:50Z</time></trkpt>
			<trkpt lat="54.916170" lon="20.483700"><ele>4.1</ele><time>2026-06-04T11:19:55Z</time></trkpt>
			<trkpt lat="54.915520" lon="20.485770"><ele>3.8</ele><time>2026-06-04T11:19:59Z</time></trkpt>
			<trkpt lat="54.914940" lon="20.487430"><ele>3.6</ele><time>2026-06-04T11:20:03Z</time></trkpt>
			<trkpt lat="54.914350" lon="20.488860"><ele>3.3</ele><time>2026-06-04T11:20:08Z</time></trkpt>
			<trkpt lat="54.913810" lon="20.490090"><ele>3.1</ele><time>2026-06-04T11:20:12Z</time></trkpt>
			<trkpt lat="54.912790" lon="20.492280"><ele>2.7</ele><time>2026-06-04T11:20:16Z</time></trkpt>
			<trkpt lat="54.912530" lon="20.492810"><ele>2.6</ele><time>2026-06-04T11:20:21Z</time></trkpt>
			<trkpt lat="54.911870" lon="20.494120"><ele>2.3</ele><time>2026-06-04T11:20:25Z</time></trkpt>
			<trkpt lat="54.911130" lon="20.495450"><ele>2.0</ele><time>2026-06-04T11:20:29Z</time></trkpt>
			<trkpt lat="54.910440" lon="20.496590"><ele>1.7</ele><time>2026-06-04T11:20:34Z</time></trkpt>
			<trkpt lat="54.909910" lon="20.497460"><ele>1.5</ele><time>2026-06-04T11:20:38Z</time></trkpt>
			<trkpt lat="54.909050" lon="20.498850"><ele>1.1</ele><time>2026-06-04T11:20:42Z</time></trkpt>
			<trkpt lat="54.908780" lon="20.499240"><ele>1.0</ele><time>2026-06-04T11:20:47Z</time></trkpt>
			<trkpt lat="54.908420" lon="20.499570"><ele>0.9</ele><time>2026-06-04T11:20:51Z</time></trkpt>
			<trkpt lat="54.908260" lon="20.499660"><ele>0.9</ele><time>2026-06-04T11:20:55Z</time></trkpt>
			<trkpt lat="54.908070" lon="20.499670"><ele>0.8</ele><time>2026-06-04T11:21:00Z</time></trkpt>
			<trkpt lat="54.907900" lon="20.499590"><ele>0.8</ele><time>2026-06-04T11:21:04Z</time></trkpt>
			<trkpt lat="54.907740" lon="20.499390"><ele>0.7</ele><time>2026-06-04T11:21:08Z</time></trkpt>
			<trkpt lat="54.907620" lon="20.499130"><ele>0.6</ele><time>2026-06-04T11:21:13Z</time></trkpt>
			<trkpt lat="54.907550" lon="20.498830"><ele>0.6</ele><time>2026-06-04T11:21:17Z</time></trkpt>
			<trkpt lat="54.907540" lon="20.498620"><ele>0.6</ele><time>2026-06-04T11:21:21Z</time></trkpt>
			<trkpt lat="54.907550" lon="20.498350"><ele>0.5</ele><time>2026-06-04T11:21:26Z</time></trkpt>
			<trkpt lat="54.907640" lon="20.498010"><ele>0.5</ele><time>2026-06-04T11:21:30Z</time></trkpt>
			<trkpt lat="54.907780" lon="20.497740"><ele>0.5</ele><time>2026-06-04T11:21:34Z</time></trkpt>
			<trkpt lat="54.907920" lon="20.497600"><ele>0.5</ele><time>2026-06-04T11:21:39Z</time></trkpt>
			<trkpt lat="54.908110" lon="20.497500"><ele>0.6</ele><time>2026-06-04T11:21:43Z</time></trkpt>
			<trkpt lat="54.908360" lon="20.497480"><ele>0.6</ele><time>2026-06-04T11:21:47Z</time></trkpt>
			<trkpt lat="54.908630" lon="20.497670"><ele>0.7</ele><time>2026-06-04T11:21:52Z</time></trkpt>
			<trkpt lat="54.909140" lon="20.498080"><ele>0.9</ele><time>2026-06-04T11:21:56Z</time></trkpt>
			<trkpt lat="54.910040" lon="20.498890"><ele>1.1</ele><time>2026-06-04T11:22:00Z</time></trkpt>
			<trkpt lat="54.912190" lon="20.500760"><ele>1.7</ele><time>2026-06-04T11:22:05Z</time></trkpt>
			<trkpt lat="54.912250" lon="20.500800"><ele>1.7</ele><time>2026-06-04T11:22:09Z</time></trkpt>
			<trkpt lat="54.913840" lon="20.502170"><ele>2.1</ele><time>2026-06-04T11:22:13Z</time></trkpt>
			<trkpt lat="54.914140" lon="20.502430"><ele>2.2</ele><time>2026-06-04T11:22:18Z</time></trkpt>
			<trkpt lat="54.915130" lon="20.503320"><ele>2.4</ele><time>2026-06-04T11:22:22Z</time></trkpt>
			<trkpt lat="54.915130" lon="20.503310"><ele>2.4</ele><time>2026-06-04T11:22:30Z</time></trkpt>
			<trkpt lat="54.915530" lon="20.503660"><ele>2.5</ele><time>2026-06-04T11:22:39Z</time></trkpt>
			<trkpt lat="54.916210" lon="20.504230"><ele>2.9</ele><time>2026-06-04T11:22:47Z</time></trkpt>
			<trkpt lat="54.916420" lon="20.504400"><ele>3.0</ele><time>2026-06-04T11:22:56Z</time></trkpt>
			<trkpt lat="54.918810" lon="20.506490"><ele>4.4</ele><time>2026-06-04T11:23:04Z</time></trkpt>
			<trkpt lat="54.919400" lon="20.507000"><ele>4.8</ele><time>2026-06-04T11:23:13Z</time></trkpt>
			<trkpt lat="54.919980" lon="20.507420"><ele>5.1</ele><time>2026-06-04T11:23:21Z</time></trkpt>
			<trkpt lat="54.921260" lon="20.508110"><ele>5.8</ele><time>2026-06-04T11:23:29Z</time></trkpt>
			<trkpt lat="54.921820" lon="20.508320"><ele>6.1</ele><time>2026-06-04T11:23:38Z</time></trkpt>
			<trkpt lat="54.922530" lon="20.508510"><ele>6.5</ele><time>2026-06-04T11:23:46Z</time></trkpt>
			<trkpt lat="54.923040" lon="20.508620"><ele>6.7</ele><time>2026-06-04T11:23:55Z</time></trkpt>
			<trkpt lat="54.923130" lon="20.508640"><ele>6.8</ele><time>2026-06-04T11:24:03Z</time></trkpt>
			<trkpt lat="54.925140" lon="20.508990"><ele>7.1</ele><time>2026-06-04T11:24:11Z</time></trkpt>
			<trkpt lat="54.929500" lon="20.509740"><ele>6.5</ele><time>2026-06-04T11:24:20Z</time></trkpt>
			<trkpt lat="54.931480" lon="20.510080"><ele>6.2</ele><time>2026-06-04T11:24:28Z</time></trkpt>
			<trkpt lat="54.934390" lon="20.510590"><ele>5.0</ele><time>2026-06-04T11:24:37Z</time></trkpt>
			<trkpt lat="54.935660" lon="20.510800"><ele>4.0</ele><time>2026-06-04T11:24:45Z</time></trkpt>
			<trkpt lat="54.936280" lon="20.510910"><ele>3.6</ele><time>2026-06-04T11:24:54Z</time></trkpt>
			<trkpt lat="54.936420" lon="20.510930"><ele>3.5</ele><time>2026-06-04T11:25:02Z</time></trkpt>
			<trkpt lat="54.936410" lon="20.511110"><ele>3.4</ele><time>2026-06-04T11:25:10Z</time></trkpt>
			<trkpt lat="54.936370" lon="20.511780"><ele>3.1</ele><time>2026-06-04T11:25:19Z</time></trkpt>
			<trkpt lat="54.936330" lon="20.512600"><ele>2.7</ele><time>2026-06-04T11:25:27Z</time></trkpt>
			<trkpt lat="54.936070" lon="20.515660"><ele>1.4</ele><time>2026-06-04T11:25:36Z</time></trkpt>
			<trkpt lat="54.935980" lon="20.516730"><ele>1.0</ele><time>2026-06-04T11:25:44Z</time></trkpt>
			<trkpt lat="54.935750" lon="20.519080"><ele>-0.1</ele><time>2026-06-04T11:25:52Z</time></trkpt>
			<trkpt lat="54.935750" lon="20.519080"><ele>-0.1</ele><time>2026-06-04T11:25:58Z</time></trkpt>
			<trkpt lat="54.935650" lon="20.520050"><ele>-0.5</ele><time>2026-06-04T11:26:04Z</time></trkpt>
			<trkpt lat="54.935350" lon="20.523690"><ele>-0.5</ele><time>2026-06-04T11:26:10Z</time></trkpt>
			<trkpt lat="54.935170" lon="20.525950"><ele>-0.3</ele><time>2026-06-04T11:26:15Z</time></trkpt>
			<trkpt lat="54.934800" lon="20.530570"><ele>0.1</ele><time>2026-06-04T11:26:21Z</time></trkpt>
			<trkpt lat="54.934520" lon="20.533940"><ele>0.4</ele><time>2026-06-04T11:26:27Z</time></trkpt>
			<trkpt lat="54.934520" lon="20.534270"><ele>0.4</ele><time>2026-06-04T11:26:32Z</time></trkpt>
			<trkpt lat="54.934610" lon="20.537360"><ele>0.6</ele><time>2026-06-04T11:26:38Z</time></trkpt>
			<trkpt lat="54.934620" lon="20.537620"><ele>0.6</ele><time>2026-06-04T11:26:44Z</time></trkpt>
			<trkpt lat="54.934630" lon="20.537690"><ele>0.6</ele><time>2026-06-04T11:26:49Z</time></trkpt>
			<trkpt lat="54.934680" lon="20.539470"><ele>0.7</ele><time>2026-06-04T11:26:55Z</time></trkpt>
			<trkpt lat="54.934680" lon="20.539870"><ele>0.7</ele><time>2026-06-04T11:27:01Z</time></trkpt>
			<trkpt lat="54.934620" lon="20.540320"><ele>0.8</ele><time>2026-06-04T11:27:06Z</time></trkpt>
			<trkpt lat="54.934500" lon="20.540650"><ele>0.8</ele><time>2026-06-04T11:27:12Z</time></trkpt>
			<trkpt lat="54.934400" lon="20.540820"><ele>0.8</ele><time>2026-06-04T11:27:18Z</time></trkpt>
			<trkpt lat="54.934280" lon="20.540930"><ele>0.8</ele><time>2026-06-04T11:27:23Z</time></trkpt>
			<trkpt lat="54.934180" lon="20.540990"><ele>0.8</ele><time>2026-06-04T11:27:29Z</time></trkpt>
			<trkpt lat="54.934110" lon="20.541010"><ele>0.8</ele><time>2026-06-04T11:27:35Z</time></trkpt>
			<trkpt lat="54.933910" lon="20.541000"><ele>0.9</ele><time>2026-06-04T11:27:40Z</time></trkpt>
			<trkpt lat="54.933420" lon="20.540920"><ele>0.9</ele><time>2026-06-04T11:27:46Z</time></trkpt>
			<trkpt lat="54.932330" lon="20.540760"><ele>1.0</ele><time>2026-06-04T11:27:52Z</time></trkpt>
			<trkpt lat="54.930710" lon="20.540470"><ele>1.2</ele><time>2026-06-04T11:27:58Z</time></trkpt>
			<trkpt lat="54.930560" lon="20.540470"><ele>1.2</ele><time>2026-06-04T11:28:03Z</time></trkpt>
			<trkpt lat="54.930510" lon="20.540490"><ele>1.2</ele><time>2026-06-04T11:28:09Z</time></trkpt>
			<trkpt lat="54.930420" lon="20.540530"><ele>1.2</ele><time>2026-06-04T11:28:15Z</time></trkpt>
			<trkpt lat="54.930260" lon="20.540670"><ele>1.3</ele><time>2026-06-04T11:28:20Z</time></trkpt>
			<trkpt lat="54.929410" lon="20.541530"><ele>1.4</ele><time>2026-06-04T11:28:26Z</time></trkpt>
			<trkpt lat="54.927330" lon="20.543670"><ele>1.3</ele><time>2026-06-04T11:28:32Z</time></trkpt>
			<trkpt lat="54.927180" lon="20.543840"><ele>1.3</ele><time>2026-06-04T11:28:37Z</time></trkpt>
			<trkpt lat="54.927120" lon="20.543920"><ele>1.3</ele><time>2026-06-04T11:28:43Z</time></trkpt>
			<trkpt lat="54.927070" lon="20.544020"><ele>1.3</ele><time>2026-06-04T11:28:49Z</time></trkpt>
			<trkpt lat="54.927030" lon="20.544130"><ele>1.3</ele><time>2026-06-04T11:28:54Z</time></trkpt>
			<trkpt lat="54.927000" lon="20.544230"><ele>1.3</ele><time>2026-06-04T11:29:00Z</time></trkpt>
			<trkpt lat="54.926970" lon="20.544400"><ele>1.3</ele><time>2026-06-04T11:29:06Z</time></trkpt>
			<trkpt lat="54.926110" lon="20.556410"><ele>0.7</ele><time>2026-06-04T11:29:11Z</time></trkpt>
			<trkpt lat="54.925890" lon="20.560140"><ele>0.6</ele><time>2026-06-04T11:29:17Z</time></trkpt>
			<trkpt lat="54.925470" lon="20.562190"><ele>0.6</ele><time>2026-06-04T11:29:23Z</time></trkpt>
			<trkpt lat="54.925010" lon="20.563760"><ele>0.6</ele><time>2026-06-04T11:29:29Z</time></trkpt>
			<trkpt lat="54.924760" lon="20.564460"><ele>0.5</ele><time>2026-06-04T11:29:34Z</time></trkpt>
			<trkpt lat="54.924470" lon="20.565100"><ele>0.5</ele><time>2026-06-04T11:29:40Z</time></trkpt>
			<trkpt lat="54.924290" lon="20.566280"><ele>0.5</ele><time>2026-06-04T11:29:46Z</time></trkpt>
			<trkpt lat="54.923470" lon="20.571170"><ele>0.4</ele><time>2026-06-04T11:29:51Z</time></trkpt>
			<trkpt lat="54.923460" lon="20.572610"><ele>0.4</ele><time>2026-06-04T11:29:57Z</time></trkpt>
			<trkpt lat="54.923460" lon="20.574030"><ele>0.3</ele><time>2026-06-04T11:30:03Z</time></trkpt>
			<trkpt lat="54.923570" lon="20.577000"><ele>0.3</ele><time>2026-06-04T11:30:08Z</time></trkpt>
			<trkpt lat="54.923510" lon="20.578320"><ele>0.3</ele><time>2026-06-04T11:30:14Z</time></trkpt>
			<trkpt lat="54.923470" lon="20.578670"><ele>0.3</ele><time>2026-06-04T11:30:20Z</time></trkpt>
			<trkpt lat="54.923420" lon="20.578920"><ele>0.3</ele><time>2026-06-04T11:30:25Z</time></trkpt>
			<trkpt lat="54.923330" lon="20.579090"><ele>0.3</ele><time>2026-06-04T11:30:31Z</time></trkpt>
			<trkpt lat="54.923230" lon="20.579260"><ele>0.3</ele><time>2026-06-04T11:30:37Z</time></trkpt>
			<trkpt lat="54.923120" lon="20.579370"><ele>0.3</ele><time>2026-06-04T11:30:42Z</time></trkpt>
			<trkpt lat="54.923000" lon="20.579450"><ele>0.3</ele><time>2026-06-04T11:30:48Z</time></trkpt>
			<trkpt lat="54.922880" lon="20.579470"><ele>0.3</ele><time>2026-06-04T11:30:54Z</time></trkpt>
			<trkpt lat="54.922740" lon="20.579420"><ele>0.3</ele><time>2026-06-04T11:30:59Z</time></trkpt>
			<trkpt lat="54.922310" lon="20.579230"><ele>0.3</ele><time>2026-06-04T11:31:05Z</time></trkpt>
			<trkpt lat="54.921440" lon="20.579030"><ele>0.3</ele><time>2026-06-04T11:31:11Z</time></trkpt>
			<trkpt lat="54.920200" lon="20.578870"><ele>0.3</ele><time>2026-06-04T11:31:17Z</time></trkpt>
			<trkpt lat="54.918410" lon="20.579200"><ele>0.3</ele><time>2026-06-04T11:31:22Z</time></trkpt>
			<trkpt lat="54.917310" lon="20.579450"><ele>0.5</ele><time>2026-06-04T11:31:28Z</time></trkpt>
			<trkpt lat="54.916020" lon="20.579930"><ele>0.7</ele><time>2026-06-04T11:31:34Z</time></trkpt>
			<trkpt lat="54.915880" lon="20.579990"><ele>0.7</ele><time>2026-06-04T11:31:39Z</time></trkpt>
			<trkpt lat="54.915730" lon="20.580110"><ele>0.7</ele><time>2026-06-04T11:31:45Z</time></trkpt>
			<trkpt lat="54.915580" lon="20.580310"><ele>0.7</ele><time>2026-06-04T11:31:51Z</time></trkpt>
			<trkpt lat="54.915310" lon="20.580930"><ele>0.8</ele><time>2026-06-04T11:31:56Z</time></trkpt>
			<trkpt lat="54.914930" lon="20.582120"><ele>0.9</ele><time>2026-06-04T11:32:02Z</time></trkpt>
			<trkpt lat="54.914510" lon="20.583420"><ele>1.0</ele><time>2026-06-04T11:32:08Z</time></trkpt>
			<trkpt lat="54.914340" lon="20.583950"><ele>1.0</ele><time>2026-06-04T11:32:13Z</time></trkpt>
			<trkpt lat="54.914050" lon="20.584900"><ele>1.1</ele><time>2026-06-04T11:32:19Z</time></trkpt>
			<trkpt lat="54.913880" lon="20.585490"><ele>1.2</ele><time>2026-06-04T11:32:25Z</time></trkpt>
			<trkpt lat="54.913580" lon="20.586560"><ele>1.3</ele><time>2026-06-04T11:32:30Z</time></trkpt>
			<trkpt lat="54.913530" lon="20.586720"><ele>1.3</ele><time>2026-06-04T11:32:36Z</time></trkpt>
			<trkpt lat="54.913500" lon="20.586800"><ele>1.3</ele><time>2026-06-04T11:32:42Z</time></trkpt>
			<trkpt lat="54.912620" lon="20.589140"><ele>1.6</ele><time>2026-06-04T11:32:47Z</time></trkpt>
			<trkpt lat="54.912560" lon="20.589290"><ele>1.7</ele><time>2026-06-04T11:32:53Z</time></trkpt>
			<trkpt lat="54.912510" lon="20.589480"><ele>1.7</ele><time>2026-06-04T11:32:59Z</time></trkpt>
			<trkpt lat="54.912480" lon="20.589740"><ele>1.8</ele><time>2026-06-04T11:33:05Z</time></trkpt>
			<trkpt lat="54.912480" lon="20.589970"><ele>1.9</ele><time>2026-06-04T11:33:10Z</time></trkpt>
			<trkpt lat="54.912520" lon="20.590970"><ele>2.1</ele><time>2026-06-04T11:33:16Z</time></trkpt>
			<trkpt lat="54.909690" lon="20.591260"><ele>3.4</ele><time>2026-06-04T11:33:22Z</time></trkpt>
			<trkpt lat="54.909230" lon="20.591320"><ele>3.6</ele><time>2026-06-04T11:33:27Z</time></trkpt>
			<trkpt lat="54.908920" lon="20.591400"><ele>3.7</ele><time>2026-06-04T11:33:33Z</time></trkpt>
			<trkpt lat="54.908690" lon="20.591510"><ele>3.9</ele><time>2026-06-04T11:33:39Z</time></trkpt>
			<trkpt lat="54.908460" lon="20.591720"><ele>4.0</ele><time>2026-06-04T11:33:44Z</time></trkpt>
			<trkpt lat="54.908020" lon="20.592080"><ele>4.2</ele><time>2026-06-04T11:33:50Z</time></trkpt>
			<trkpt lat="54.906670" lon="20.593100"><ele>4.9</ele><time>2026-06-04T11:33:56Z</time></trkpt>
			<trkpt lat="54.904210" lon="20.594670"><ele>5.8</ele><time>2026-06-04T11:34:01Z</time></trkpt>
			<trkpt lat="54.904050" lon="20.594770"><ele>5.8</ele><time>2026-06-04T11:34:07Z</time></trkpt>
			<trkpt lat="54.900610" lon="20.596900"><ele>6.6</ele><time>2026-06-04T11:34:13Z</time></trkpt>
			<trkpt lat="54.900720" lon="20.597260"><ele>6.6</ele><time>2026-06-04T11:34:18Z</time></trkpt>
			<trkpt lat="54.900810" lon="20.597590"><ele>6.7</ele><time>2026-06-04T11:34:24Z</time></trkpt>
			<trkpt lat="54.900990" lon="20.598300"><ele>6.8</ele><time>2026-06-04T11:34:30Z</time></trkpt>
			<trkpt lat="54.901270" lon="20.599580"><ele>7.0</ele><time>2026-06-04T11:34:35Z</time></trkpt>
			<trkpt lat="54.901320" lon="20.599860"><ele>7.0</ele><time>2026-06-04T11:34:41Z</time></trkpt>
			<trkpt lat="54.901320" lon="20.599860"><ele>7.0</ele><time>2026-06-04T11:34:47Z</time></trkpt>
			<trkpt lat="54.901430" lon="20.600510"><ele>7.1</ele><time>2026-06-04T11:34:52Z</time></trkpt>
			<trkpt lat="54.901580" lon="20.601520"><ele>7.2</ele><time>2026-06-04T11:34:57Z</time></trkpt>
			<trkpt lat="54.901820" lon="20.603460"><ele>7.5</ele><time>2026-06-04T11:35:03Z</time></trkpt>
			<trkpt lat="54.901830" lon="20.603550"><ele>7.5</ele><time>2026-06-04T11:35:08Z</time></trkpt>
			<trkpt lat="54.902050" lon="20.605220"><ele>7.4</ele><time>2026-06-04T11:35:14Z</time></trkpt>
			<trkpt lat="54.902560" lon="20.609140"><ele>7.1</ele><time>2026-06-04T11:35:19Z</time></trkpt>
			<trkpt lat="54.902750" lon="20.610870"><ele>7.0</ele><time>2026-06-04T11:35:25Z</time></trkpt>
			<trkpt lat="54.902930" lon="20.613140"><ele>6.8</ele><time>2026-06-04T11:35:30Z</time></trkpt>
			<trkpt lat="54.903040" lon="20.614190"><ele>6.8</ele><time>2026-06-04T11:35:36Z</time></trkpt>
			<trkpt lat="54.903100" lon="20.614980"><ele>6.7</ele><time>2026-06-04T11:35:41Z</time></trkpt>
			<trkpt lat="54.903260" lon="20.617610"><ele>6.5</ele><time>2026-06-04T11:35:46Z</time></trkpt>
			<trkpt lat="54.903390" lon="20.620130"><ele>6.2</ele><time>2026-06-04T11:35:52Z</time></trkpt>
			<trkpt lat="54.903460" lon="20.620670"><ele>6.1</ele><time>2026-06-04T11:35:57Z</time></trkpt>
			<trkpt lat="54.903540" lon="20.621040"><ele>6.0</ele><time>2026-06-04T11:36:03Z</time></trkpt>
			<trkpt lat="54.903690" lon="20.621470"><ele>6.0</ele><time>2026-06-04T11:36:08Z</time></trkpt>
			<trkpt lat="54.905020" lon="20.624810"><ele>5.2</ele><time>2026-06-04T11:36:14Z</time></trkpt>
			<trkpt lat="54.905220" lon="20.625330"><ele>5.1</ele><time>2026-06-04T11:36:19Z</time></trkpt>
			<trkpt lat="54.905350" lon="20.625630"><ele>5.0</ele><time>2026-06-04T11:36:25Z</time></trkpt>
			<trkpt lat="54.905860" lon="20.626950"><ele>4.7</ele><time>2026-06-04T11:36:30Z</time></trkpt>
			<trkpt lat="54.905940" lon="20.627180"><ele>4.6</ele><time>2026-06-04T11:36:35Z</time></trkpt>
			<trkpt lat="54.905990" lon="20.627490"><ele>4.6</ele><time>2026-06-04T11:36:41Z</time></trkpt>
			<trkpt lat="54.906030" lon="20.627830"><ele>4.5</ele><time>2026-06-04T11:36:46Z</time></trkpt>
			<trkpt lat="54.906040" lon="20.628080"><ele>4.5</ele><time>2026-06-04T11:36:52Z</time></trkpt>
			<trkpt lat="54.906040" lon="20.628480"><ele>4.4</ele><time>2026-06-04T11:36:57Z</time></trkpt>
			<trkpt lat="54.906010" lon="20.628810"><ele>4.3</ele><time>2026-06-04T11:37:03Z</time></trkpt>
			<trkpt lat="54.906000" lon="20.629200"><ele>4.2</ele><time>2026-06-04T11:37:08Z</time></trkpt>
			<trkpt lat="54.906050" lon="20.629840"><ele>4.1</ele><time>2026-06-04T11:37:13Z</time></trkpt>
			<trkpt lat="54.906400" lon="20.632780"><ele>3.5</ele><time>2026-06-04T11:37:19Z</time></trkpt>
			<trkpt lat="54.906550" lon="20.634070"><ele>3.5</ele><time>2026-06-04T11:37:24Z</time></trkpt>
			<trkpt lat="54.906620" lon="20.634490"><ele>3.5</ele><time>2026-06-04T11:37:30Z</time></trkpt>
			<trkpt lat="54.907550" lon="20.638610"><ele>3.7</ele><time>2026-06-04T11:37:35Z</time></trkpt>
			<trkpt lat="54.908440" lon="20.642420"><ele>3.8</ele><time>2026-06-04T11:37:41Z</time></trkpt>
			<trkpt lat="54.908510" lon="20.642810"><ele>3.9</ele><time>2026-06-04T11:37:46Z</time></trkpt>
			<trkpt lat="54.908530" lon="20.643050"><ele>3.9</ele><time>2026-06-04T11:37:52Z</time></trkpt>
			<trkpt lat="54.908520" lon="20.643490"><ele>3.9</ele><time>2026-06-04T11:37:57Z</time></trkpt>
			<trkpt lat="54.908500" lon="20.643800"><ele>3.9</ele><time>2026-06-04T11:38:02Z</time></trkpt>
			<trkpt lat="54.908330" lon="20.645270"><ele>3.9</ele><time>2026-06-04T11:38:08Z</time></trkpt>
			<trkpt lat="54.908140" lon="20.646780"><ele>4.0</ele><time>2026-06-04T11:38:13Z</time></trkpt>
			<trkpt lat="54.908060" lon="20.647200"><ele>4.0</ele><time>2026-06-04T11:38:19Z</time></trkpt>
			<trkpt lat="54.907680" lon="20.648930"><ele>4.0</ele><time>2026-06-04T11:38:24Z</time></trkpt>
			<trkpt lat="54.907280" lon="20.650660"><ele>4.0</ele><time>2026-06-04T11:38:30Z</time></trkpt>
			<trkpt lat="54.906450" lon="20.654350"><ele>4.0</ele><time>2026-06-04T11:38:35Z</time></trkpt>
			<trkpt lat="54.906310" lon="20.655100"><ele>3.9</ele><time>2026-06-04T11:38:40Z</time></trkpt>
			<trkpt lat="54.906290" lon="20.655290"><ele>3.9</ele><time>2026-06-04T11:38:46Z</time></trkpt>
			<trkpt lat="54.906270" lon="20.655680"><ele>3.9</ele><time>2026-06-04T11:38:51Z</time></trkpt>
			<trkpt lat="54.906280" lon="20.655960"><ele>3.9</ele><time>2026-06-04T11:38:57Z</time></trkpt>
			<trkpt lat="54.906690" lon="20.661600"><ele>3.9</ele><time>2026-06-04T11:39:02Z</time></trkpt>
			<trkpt lat="54.907030" lon="20.665870"><ele>4.1</ele><time>2026-06-04T11:39:08Z</time></trkpt>
			<trkpt lat="54.907110" lon="20.667040"><ele>4.3</ele><time>2026-06-04T11:39:13Z</time></trkpt>
			<trkpt lat="54.907140" lon="20.667540"><ele>4.3</ele><time>2026-06-04T11:39:19Z</time></trkpt>
			<trkpt lat="54.907140" lon="20.667710"><ele>4.4</ele><time>2026-06-04T11:39:24Z</time></trkpt>
			<trkpt lat="54.907120" lon="20.667910"><ele>4.4</ele><time>2026-06-04T11:39:29Z</time></trkpt>
			<trkpt lat="54.907070" lon="20.668160"><ele>4.4</ele><time>2026-06-04T11:39:35Z</time></trkpt>
			<trkpt lat="54.907020" lon="20.668320"><ele>4.4</ele><time>2026-06-04T11:39:40Z</time></trkpt>
			<trkpt lat="54.906820" lon="20.668860"><ele>4.5</ele><time>2026-06-04T11:39:46Z</time></trkpt>
			<trkpt lat="54.906630" lon="20.669260"><ele>4.6</ele><time>2026-06-04T11:39:51Z</time></trkpt>
			<trkpt lat="54.906360" lon="20.669700"><ele>4.6</ele><time>2026-06-04T11:39:57Z</time></trkpt>
			<trkpt lat="54.906240" lon="20.669860"><ele>4.7</ele><time>2026-06-04T11:40:02Z</time></trkpt>
			<trkpt lat="54.906120" lon="20.669970"><ele>4.7</ele><time>2026-06-04T11:40:08Z</time></trkpt>
			<trkpt lat="54.906020" lon="20.670040"><ele>4.7</ele><time>2026-06-04T11:40:13Z</time></trkpt>
			<trkpt lat="54.905880" lon="20.670080"><ele>4.7</ele><time>2026-06-04T11:40:18Z</time></trkpt>
			<trkpt lat="54.905590" lon="20.670110"><ele>4.8</ele><time>2026-06-04T11:40:24Z</time></trkpt>
			<trkpt lat="54.905420" lon="20.670160"><ele>4.8</ele><time>2026-06-04T11:40:29Z</time></trkpt>
			<trkpt lat="54.905270" lon="20.670250"><ele>4.9</ele><time>2026-06-04T11:40:35Z</time></trkpt>
			<trkpt lat="54.905090" lon="20.670420"><ele>4.9</ele><time>2026-06-04T11:40:40Z</time></trkpt>
			<trkpt lat="54.904910" lon="20.670710"><ele>4.9</ele><time>2026-06-04T11:40:46Z</time></trkpt>
			<trkpt lat="54.904700" lon="20.671150"><ele>5.0</ele><time>2026-06-04T11:40:51Z</time></trkpt>
			<trkpt lat="54.904410" lon="20.671730"><ele>5.1</ele><time>2026-06-04T11:40:56Z</time></trkpt>
			<trkpt lat="54.904220" lon="20.672180"><ele>5.2</ele><time>2026-06-04T11:41:02Z</time></trkpt>
			<trkpt lat="54.903850" lon="20.673210"><ele>5.3</ele><time>2026-06-04T11:41:07Z</time></trkpt>
			<trkpt lat="54.903730" lon="20.673480"><ele>5.3</ele><time>2026-06-04T11:41:13Z</time></trkpt>
			<trkpt lat="54.903580" lon="20.673780"><ele>5.4</ele><time>2026-06-04T11:41:18Z</time></trkpt>
			<trkpt lat="54.903330" lon="20.674130"><ele>5.4</ele><time>2026-06-04T11:41:24Z</time></trkpt>
			<trkpt lat="54.902730" lon="20.674750"><ele>5.6</ele><time>2026-06-04T11:41:29Z</time></trkpt>
			<trkpt lat="54.902620" lon="20.674900"><ele>5.6</ele><time>2026-06-04T11:41:35Z</time></trkpt>
			<trkpt lat="54.902500" lon="20.675050"><ele>5.6</ele><time>2026-06-04T11:41:40Z</time></trkpt>
			<trkpt lat="54.902340" lon="20.675370"><ele>5.6</ele><time>2026-06-04T11:41:45Z</time></trkpt>
			<trkpt lat="54.902080" lon="20.675940"><ele>5.5</ele><time>2026-06-04T11:41:51Z</time></trkpt>
			<trkpt lat="54.901880" lon="20.676400"><ele>5.5</ele><time>2026-06-04T11:41:56Z</time></trkpt>
			<trkpt lat="54.901650" lon="20.676850"><ele>5.5</ele><time>2026-06-04T11:42:02Z</time></trkpt>
			<trkpt lat="54.901450" lon="20.677190"><ele>5.5</ele><time>2026-06-04T11:42:07Z</time></trkpt>
			<trkpt lat="54.901370" lon="20.677320"><ele>5.4</ele><time>2026-06-04T11:42:13Z</time></trkpt>
			<trkpt lat="54.900280" lon="20.679200"><ele>5.3</ele><time>2026-06-04T11:42:18Z</time></trkpt>
			<trkpt lat="54.899810" lon="20.680010"><ele>5.3</ele><time>2026-06-04T11:42:24Z</time></trkpt>
			<trkpt lat="54.899010" lon="20.681380"><ele>5.2</ele><time>2026-06-04T11:42:29Z</time></trkpt>
			<trkpt lat="54.898660" lon="20.682000"><ele>5.1</ele><time>2026-06-04T11:42:34Z</time></trkpt>
			<trkpt lat="54.896600" lon="20.685340"><ele>4.9</ele><time>2026-06-04T11:42:40Z</time></trkpt>
			<trkpt lat="54.896310" lon="20.685870"><ele>4.9</ele><time>2026-06-04T11:42:45Z</time></trkpt>
			<trkpt lat="54.896130" lon="20.686300"><ele>4.8</ele><time>2026-06-04T11:42:51Z</time></trkpt>
			<trkpt lat="54.894880" lon="20.686090"><ele>4.7</ele><time>2026-06-04T11:42:56Z</time></trkpt>
			<trkpt lat="54.894640" lon="20.686000"><ele>4.7</ele><time>2026-06-04T11:43:02Z</time></trkpt>
			<trkpt lat="54.894050" lon="20.685530"><ele>4.6</ele><time>2026-06-04T11:43:07Z</time></trkpt>
			<trkpt lat="54.893440" lon="20.684990"><ele>4.5</ele><time>2026-06-04T11:43:12Z</time></trkpt>
			<trkpt lat="54.893150" lon="20.684760"><ele>4.5</ele><time>2026-06-04T11:43:18Z</time></trkpt>
			<trkpt lat="54.892900" lon="20.684510"><ele>4.5</ele><time>2026-06-04T11:43:23Z</time></trkpt>
			<trkpt lat="54.892730" lon="20.684310"><ele>4.4</ele><time>2026-06-04T11:43:29Z</time></trkpt>
			<trkpt lat="54.890250" lon="20.681940"><ele>4.1</ele><time>2026-06-04T11:43:34Z</time></trkpt>
			<trkpt lat="54.886020" lon="20.677830"><ele>5.3</ele><time>2026-06-04T11:43:40Z</time></trkpt>
			<trkpt lat="54.883370" lon="20.675320"><ele>6.8</ele><time>2026-06-04T11:43:45Z</time></trkpt>
			<trkpt lat="54.883320" lon="20.677720"><ele>7.5</ele><time>2026-06-04T11:43:51Z</time></trkpt>
			<trkpt lat="54.883250" lon="20.681750"><ele>8.4</ele><time>2026-06-04T11:43:56Z</time></trkpt>
			<trkpt lat="54.883240" lon="20.683250"><ele>8.1</ele><time>2026-06-04T11:44:01Z</time></trkpt>
			<trkpt lat="54.883210" lon="20.683710"><ele>8.0</ele><time>2026-06-04T11:44:07Z</time></trkpt>
			<trkpt lat="54.883160" lon="20.684110"><ele>7.9</ele><time>2026-06-04T11:44:12Z</time></trkpt>
			<trkpt lat="54.882190" lon="20.689810"><ele>6.6</ele><time>2026-06-04T11:44:18Z</time></trkpt>
			<trkpt lat="54.882120" lon="20.690400"><ele>6.5</ele><time>2026-06-04T11:44:23Z</time></trkpt>
			<trkpt lat="54.882090" lon="20.691680"><ele>6.2</ele><time>2026-06-04T11:44:29Z</time></trkpt>
			<trkpt lat="54.882090" lon="20.691680"><ele>6.2</ele><time>2026-06-04T11:44:38Z</time></trkpt>
			<trkpt lat="54.882060" lon="20.692710"><ele>6.0</ele><time>2026-06-04T11:44:47Z</time></trkpt>
			<trkpt lat="54.882010" lon="20.693670"><ele>5.8</ele><time>2026-06-04T11:44:56Z</time></trkpt>
			<trkpt lat="54.881980" lon="20.694210"><ele>5.7</ele><time>2026-06-04T11:45:05Z</time></trkpt>
			<trkpt lat="54.881930" lon="20.694700"><ele>5.6</ele><time>2026-06-04T11:45:14Z</time></trkpt>
			<trkpt lat="54.881890" lon="20.695020"><ele>5.5</ele><time>2026-06-04T11:45:23Z</time></trkpt>
			<trkpt lat="54.881450" lon="20.698260"><ele>5.1</ele><time>2026-06-04T11:45:32Z</time></trkpt>
			<trkpt lat="54.881270" lon="20.699370"><ele>5.1</ele><time>2026-06-04T11:45:41Z</time></trkpt>
			<trkpt lat="54.880720" lon="20.703060"><ele>4.9</ele><time>2026-06-04T11:45:51Z</time></trkpt>
			<trkpt lat="54.879140" lon="20.714400"><ele>4.6</ele><time>2026-06-04T11:46:00Z</time></trkpt>
			<trkpt lat="54.878510" lon="20.719950"><ele>4.7</ele><time>2026-06-04T11:46:09Z</time></trkpt>
			<trkpt lat="54.878280" lon="20.721700"><ele>4.8</ele><time>2026-06-04T11:46:18Z</time></trkpt>
			<trkpt lat="54.878070" lon="20.723120"><ele>4.8</ele><time>2026-06-04T11:46:27Z</time></trkpt>
			<trkpt lat="54.877330" lon="20.729450"><ele>5.2</ele><time>2026-06-04T11:46:36Z</time></trkpt>
			<trkpt lat="54.877230" lon="20.730350"><ele>5.3</ele><time>2026-06-04T11:46:45Z</time></trkpt>
			<trkpt lat="54.877150" lon="20.731060"><ele>5.4</ele><time>2026-06-04T11:46:54Z</time></trkpt>
			<trkpt lat="54.877130" lon="20.731380"><ele>5.5</ele><time>2026-06-04T11:47:03Z</time></trkpt>
			<trkpt lat="54.877180" lon="20.733580"><ele>5.8</ele><time>2026-06-04T11:47:13Z</time></trkpt>
			<trkpt lat="54.877220" lon="20.735980"><ele>6.2</ele><time>2026-06-04T11:47:22Z</time></trkpt>
			<trkpt lat="54.877200" lon="20.736720"><ele>6.3</ele><time>2026-06-04T11:47:31Z</time></trkpt>
			<trkpt lat="54.877150" lon="20.737060"><ele>6.3</ele><time>2026-06-04T11:47:40Z</time></trkpt>
			<trkpt lat="54.877020" lon="20.738270"><ele>6.5</ele><time>2026-06-04T11:47:49Z</time></trkpt>
			<trkpt lat="54.876980" lon="20.738850"><ele>6.6</ele><time>2026-06-04T11:47:58Z</time></trkpt>
			<trkpt lat="54.876910" lon="20.740780"><ele>6.8</ele><time>2026-06-04T11:48:07Z</time></trkpt>
			<trkpt lat="54.876870" lon="20.742820"><ele>7.0</ele><time>2026-06-04T11:48:16Z</time></trkpt>
			<trkpt lat="54.876770" lon="20.745090"><ele>6.7</ele><time>2026-06-04T11:48:25Z</time></trkpt>
			<trkpt lat="54.876540" lon="20.751410"><ele>5.9</ele><time>2026-06-04T11:48:35Z</time></trkpt>
			<trkpt lat="54.876510" lon="20.751990"><ele>5.8</ele><time>2026-06-04T11:48:44Z</time></trkpt>
			<trkpt lat="54.876400" lon="20.753590"><ele>5.6</ele><time>2026-06-04T11:48:53Z</time></trkpt>
			<trkpt lat="54.876270" lon="20.755210"><ele>5.4</ele><time>2026-06-04T11:49:02Z</time></trkpt>
			<trkpt lat="54.875800" lon="20.761250"><ele>5.1</ele><time>2026-06-04T11:49:11Z</time></trkpt>
			<trkpt lat="54.874380" lon="20.760930"><ele>5.2</ele><time>2026-06-04T11:49:20Z</time></trkpt>
			<trkpt lat="54.872880" lon="20.760570"><ele>5.3</ele><time>2026-06-04T11:49:29Z</time></trkpt>
			<trkpt lat="54.871550" lon="20.760270"><ele>5.4</ele><time>2026-06-04T11:49:38Z</time></trkpt>
			<trkpt lat="54.868580" lon="20.759650"><ele>5.5</ele><time>2026-06-04T11:49:47Z</time></trkpt>
			<trkpt lat="54.866830" lon="20.759330"><ele>5.8</ele><time>2026-06-04T11:49:56Z</time></trkpt>
			<trkpt lat="54.866050" lon="20.759170"><ele>5.9</ele><time>2026-06-04T11:50:06Z</time></trkpt>
			<trkpt lat="54.865940" lon="20.759140"><ele>5.9</ele><time>2026-06-04T11:50:15Z</time></trkpt>
			<trkpt lat="54.865440" lon="20.758980"><ele>5.9</ele><time>2026-06-04T11:50:24Z</time></trkpt>
			<trkpt lat="54.865150" lon="20.758990"><ele>6.0</ele><time>2026-06-04T11:50:33Z</time></trkpt>
			<trkpt lat="54.864860" lon="20.759060"><ele>6.0</ele><time>2026-06-04T11:50:42Z</time></trkpt>
			<trkpt lat="54.864480" lon="20.759290"><ele>6.1</ele><time>2026-06-04T11:50:51Z</time></trkpt>
			<trkpt lat="54.864280" lon="20.759550"><ele>6.1</ele><time>2026-06-04T11:51:00Z</time></trkpt>
			<trkpt lat="54.864080" lon="20.759870"><ele>6.2</ele><time>2026-06-04T11:51:09Z</time></trkpt>
			<trkpt lat="54.863540" lon="20.760930"><ele>6.3</ele><time>2026-06-04T11:51:18Z</time></trkpt>
			<trkpt lat="54.862580" lon="20.763190"><ele>6.5</ele><time>2026-06-04T11:51:28Z</time></trkpt>
			<trkpt lat="54.861980" lon="20.764540"><ele>6.6</ele><time>2026-06-04T11:51:37Z</time></trkpt>
			<trkpt lat="54.861830" lon="20.764870"><ele>6.6</ele><time>2026-06-04T11:51:46Z</time></trkpt>
			<trkpt lat="54.861140" lon="20.763620"><ele>6.8</ele><time>2026-06-04T11:51:55Z</time></trkpt>
			<trkpt lat="54.860790" lon="20.763040"><ele>6.8</ele><time>2026-06-04T11:52:04Z</time></trkpt>
			<trkpt lat="54.860210" lon="20.762270"><ele>6.9</ele><time>2026-06-04T11:52:13Z</time></trkpt>
			<trkpt lat="54.859100" lon="20.760450"><ele>7.0</ele><time>2026-06-04T11:52:22Z</time></trkpt>
			<trkpt lat="54.858460" lon="20.759400"><ele>7.1</ele><time>2026-06-04T11:52:31Z</time></trkpt>
			<trkpt lat="54.858220" lon="20.759120"><ele>7.1</ele><time>2026-06-04T11:52:40Z</time></trkpt>
			<trkpt lat="54.857770" lon="20.758930"><ele>7.1</ele><time>2026-06-04T11:52:50Z</time></trkpt>
			<trkpt lat="54.856390" lon="20.758330"><ele>7.3</ele><time>2026-06-04T11:52:59Z</time></trkpt>
			<trkpt lat="54.855710" lon="20.758070"><ele>7.3</ele><time>2026-06-04T11:53:08Z</time></trkpt>
			<trkpt lat="54.855710" lon="20.758070"><ele>7.3</ele><time>2026-06-04T11:53:20Z</time></trkpt>
			<trkpt lat="54.855090" lon="20.757830"><ele>7.4</ele><time>2026-06-04T11:53:32Z</time></trkpt>
			<trkpt lat="54.853750" lon="20.757240"><ele>7.5</ele><time>2026-06-04T11:53:44Z</time></trkpt>
			<trkpt lat="54.852210" lon="20.756200"><ele>8.1</ele><time>2026-06-04T11:53:56Z</time></trkpt>
			<trkpt lat="54.846550" lon="20.752510"><ele>10.1</ele><time>2026-06-04T11:54:08Z</time></trkpt>
			<trkpt lat="54.845480" lon="20.751780"><ele>10.5</ele><time>2026-06-04T11:54:21Z</time></trkpt>
			<trkpt lat="54.845260" lon="20.751520"><ele>10.6</ele><time>2026-06-04T11:54:33Z</time></trkpt>
			<trkpt lat="54.845080" lon="20.751190"><ele>10.6</ele><time>2026-06-04T11:54:45Z</time></trkpt>
			<trkpt lat="54.842960" lon="20.746630"><ele>10.9</ele><time>2026-06-04T11:54:57Z</time></trkpt>
			<trkpt lat="54.842380" lon="20.745340"><ele>11.0</ele><time>2026-06-04T11:55:09Z</time></trkpt>
			<trkpt lat="54.841820" lon="20.744020"><ele>11.0</ele><time>2026-06-04T11:55:21Z</time></trkpt>
			<trkpt lat="54.840880" lon="20.741980"><ele>11.2</ele><time>2026-06-04T11:55:33Z</time></trkpt>
			<trkpt lat="54.840000" lon="20.739940"><ele>11.3</ele><time>2026-06-04T11:55:46Z</time></trkpt>
			<trkpt lat="54.839850" lon="20.739330"><ele>11.3</ele><time>2026-06-04T11:55:58Z</time></trkpt>
			<trkpt lat="54.839730" lon="20.738700"><ele>11.5</ele><time>2026-06-04T11:56:10Z</time></trkpt>
			<trkpt lat="54.838880" lon="20.733530"><ele>13.3</ele><time>2026-06-04T11:56:22Z</time></trkpt>
			<trkpt lat="54.837590" lon="20.725770"><ele>16.0</ele><time>2026-06-04T11:56:34Z</time></trkpt>
			<trkpt lat="54.837750" lon="20.722220"><ele>16.0</ele><time>2026-06-04T11:56:46Z</time></trkpt>
			<trkpt lat="54.838030" lon="20.719910"><ele>15.5</ele><time>2026-06-04T11:56:58Z</time></trkpt>
			<trkpt lat="54.838470" lon="20.716400"><ele>14.6</ele><time>2026-06-04T11:57:11Z</time></trkpt>
			<trkpt lat="54.839730" lon="20.706480"><ele>12.9</ele><time>2026-06-04T11:57:23Z</time></trkpt>
			<trkpt lat="54.839730" lon="20.705910"><ele>12.9</ele><time>2026-06-04T11:57:35Z</time></trkpt>
			<trkpt lat="54.839110" lon="20.705630"><ele>13.0</ele><time>2026-06-04T11:57:47Z</time></trkpt>
			<trkpt lat="54.837010" lon="20.704760"><ele>13.2</ele><time>2026-06-04T11:57:59Z</time></trkpt>
			<trkpt lat="54.835030" lon="20.704010"><ele>13.4</ele><time>2026-06-04T11:58:11Z</time></trkpt>
			<trkpt lat="54.834030" lon="20.703650"><ele>13.5</ele><time>2026-06-04T11:58:23Z</time></trkpt>
			<trkpt lat="54.833400" lon="20.703400"><ele>13.5</ele><time>2026-06-04T11:58:36Z</time></trkpt>
			<trkpt lat="54.832390" lon="20.702800"><ele>13.7</ele><time>2026-06-04T11:58:48Z</time></trkpt>
			<trkpt lat="54.831720" lon="20.702370"><ele>14.0</ele><time>2026-06-04T11:59:00Z</time></trkpt>
			<trkpt lat="54.830840" lon="20.701690"><ele>14.3</ele><time>2026-06-04T11:59:12Z</time></trkpt>
			<trkpt lat="54.830250" lon="20.701210"><ele>14.5</ele><time>2026-06-04T11:59:24Z</time></trkpt>
			<trkpt lat="54.829780" lon="20.700750"><ele>14.7</ele><time>2026-06-04T11:59:36Z</time></trkpt>
			<trkpt lat="54.829280" lon="20.700360"><ele>14.9</ele><time>2026-06-04T11:59:48Z</time></trkpt>
			<trkpt lat="54.828750" lon="20.700010"><ele>15.1</ele><time>2026-06-04T12:00:01Z</time></trkpt>
			<trkpt lat="54.827410" lon="20.699170"><ele>15.6</ele><time>2026-06-04T12:00:13Z</time></trkpt>
			<trkpt lat="54.827070" lon="20.698950"><ele>15.8</ele><time>2026-06-04T12:00:25Z</time></trkpt>
			<trkpt lat="54.827070" lon="20.698940"><ele>15.8</ele><time>2026-06-04T12:00:33Z</time></trkpt>
			<trkpt lat="54.825950" lon="20.698180"><ele>16.2</ele><time>2026-06-04T12:00:42Z</time></trkpt>
			<trkpt lat="54.825710" lon="20.698030"><ele>16.3</ele><time>2026-06-04T12:00:50Z</time></trkpt>
			<trkpt lat="54.824910" lon="20.697620"><ele>16.6</ele><time>2026-06-04T12:00:59Z</time></trkpt>
			<trkpt lat="54.824170" lon="20.697260"><ele>16.9</ele><time>2026-06-04T12:01:07Z</time></trkpt>
			<trkpt lat="54.823660" lon="20.696770"><ele>17.1</ele><time>2026-06-04T12:01:16Z</time></trkpt>
			<trkpt lat="54.821550" lon="20.694830"><ele>18.2</ele><time>2026-06-04T12:01:24Z</time></trkpt>
			<trkpt lat="54.818270" lon="20.691860"><ele>19.9</ele><time>2026-06-04T12:01:33Z</time></trkpt>
			<trkpt lat="54.815860" lon="20.690430"><ele>21.0</ele><time>2026-06-04T12:01:41Z</time></trkpt>
			<trkpt lat="54.815450" lon="20.690160"><ele>21.0</ele><time>2026-06-04T12:01:50Z</time></trkpt>
			<trkpt lat="54.815190" lon="20.690080"><ele>21.0</ele><time>2026-06-04T12:01:58Z</time></trkpt>
			<trkpt lat="54.813860" lon="20.690170"><ele>21.2</ele><time>2026-06-04T12:02:07Z</time></trkpt>
			<trkpt lat="54.813560" lon="20.690160"><ele>21.2</ele><time>2026-06-04T12:02:15Z</time></trkpt>
			<trkpt lat="54.812970" lon="20.690020"><ele>21.3</ele><time>2026-06-04T12:02:24Z</time></trkpt>
			<trkpt lat="54.812360" lon="20.689860"><ele>21.4</ele><time>2026-06-04T12:02:33Z</time></trkpt>
			<trkpt lat="54.811430" lon="20.689540"><ele>21.5</ele><time>2026-06-04T12:02:41Z</time></trkpt>
			<trkpt lat="54.811020" lon="20.689370"><ele>21.6</ele><time>2026-06-04T12:02:50Z</time></trkpt>
			<trkpt lat="54.809220" lon="20.688670"><ele>21.8</ele><time>2026-06-04T12:02:58Z</time></trkpt>
			<trkpt lat="54.808100" lon="20.688230"><ele>21.9</ele><time>2026-06-04T12:03:07Z</time></trkpt>
			<trkpt lat="54.807270" lon="20.687920"><ele>22.1</ele><time>2026-06-04T12:03:15Z</time></trkpt>
			<trkpt lat="54.807010" lon="20.687860"><ele>22.3</ele><time>2026-06-04T12:03:24Z</time></trkpt>
			<trkpt lat="54.806830" lon="20.687770"><ele>22.5</ele><time>2026-06-04T12:03:32Z</time></trkpt>
			<trkpt lat="54.806470" lon="20.687650"><ele>22.7</ele><time>2026-06-04T12:03:41Z</time></trkpt>
			<trkpt lat="54.805550" lon="20.687560"><ele>23.4</ele><time>2026-06-04T12:03:49Z</time></trkpt>
			<trkpt lat="54.804890" lon="20.687500"><ele>23.9</ele><time>2026-06-04T12:03:58Z</time></trkpt>
			<trkpt lat="54.804000" lon="20.687410"><ele>24.6</ele><time>2026-06-04T12:04:06Z</time></trkpt>
			<trkpt lat="54.803820" lon="20.687400"><ele>24.8</ele><time>2026-06-04T12:04:15Z</time></trkpt>
			<trkpt lat="54.803550" lon="20.687370"><ele>25.0</ele><time>2026-06-04T12:04:23Z</time></trkpt>
			<trkpt lat="54.802970" lon="20.687320"><ele>25.4</ele><time>2026-06-04T12:04:32Z</time></trkpt>
			<trkpt lat="54.802330" lon="20.687410"><ele>25.9</ele><time>2026-06-04T12:04:40Z</time></trkpt>
			<trkpt lat="54.802150" lon="20.687490"><ele>26.0</ele><time>2026-06-04T12:04:49Z</time></trkpt>
			<trkpt lat="54.802030" lon="20.687580"><ele>26.1</ele><time>2026-06-04T12:04:57Z</time></trkpt>
			<trkpt lat="54.801830" lon="20.687760"><ele>26.3</ele><time>2026-06-04T12:05:06Z</time></trkpt>
			<trkpt lat="54.801310" lon="20.688150"><ele>26.7</ele><time>2026-06-04T12:05:14Z</time></trkpt>
			<trkpt lat="54.801220" lon="20.688190"><ele>26.8</ele><time>2026-06-04T12:05:23Z</time></trkpt>
			<trkpt lat="54.801060" lon="20.688150"><ele>26.9</ele><time>2026-06-04T12:05:31Z</time></trkpt>
			<trkpt lat="54.800460" lon="20.687820"><ele>27.4</ele><time>2026-06-04T12:05:40Z</time></trkpt>
			<trkpt lat="54.800200" lon="20.687680"><ele>27.6</ele><time>2026-06-04T12:05:48Z</time></trkpt>
			<trkpt lat="54.799860" lon="20.687520"><ele>27.9</ele><time>2026-06-04T12:05:57Z</time></trkpt>
			<trkpt lat="54.798650" lon="20.687110"><ele>28.8</ele><time>2026-06-04T12:06:05Z</time></trkpt>
			<trkpt lat="54.798260" lon="20.687010"><ele>28.7</ele><time>2026-06-04T12:06:14Z</time></trkpt>
			<trkpt lat="54.797760" lon="20.686890"><ele>28.6</ele><time>2026-06-04T12:06:22Z</time></trkpt>
			<trkpt lat="54.797590" lon="20.686860"><ele>28.6</ele><time>2026-06-04T12:06:31Z</time></trkpt>
			<trkpt lat="54.797850" lon="20.694000"><ele>27.7</ele><time>2026-06-04T12:06:39Z</time></trkpt>
			<trkpt lat="54.797930" lon="20.696010"><ele>27.5</ele><time>2026-06-04T12:06:48Z</time></trkpt>
			<trkpt lat="54.797970" lon="20.698020"><ele>27.2</ele><time>2026-06-04T12:06:56Z</time></trkpt>
			<trkpt lat="54.798000" lon="20.698580"><ele>27.1</ele><time>2026-06-04T12:07:05Z</time></trkpt>
			<trkpt lat="54.798500" lon="20.711610"><ele>23.8</ele><time>2026-06-04T12:07:13Z</time></trkpt>
			<trkpt lat="54.788090" lon="20.712630"><ele>22.6</ele><time>2026-06-04T12:07:22Z</time></trkpt>
			<trkpt lat="54.786530" lon="20.712780"><ele>22.7</ele><time>2026-06-04T12:07:30Z</time></trkpt>
			<trkpt lat="54.786530" lon="20.712780"><ele>22.7</ele><time>2026-06-04T12:07:38Z</time></trkpt>
			<trkpt lat="54.778750" lon="20.713540"><ele>25.6</ele><time>2026-06-04T12:07:45Z</time></trkpt>
			<trkpt lat="54.777800" lon="20.713610"><ele>26.0</ele><time>2026-06-04T12:07:52Z</time></trkpt>
			<trkpt lat="54.777280" lon="20.713730"><ele>26.1</ele><time>2026-06-04T12:08:00Z</time></trkpt>
			<trkpt lat="54.776890" lon="20.713910"><ele>26.2</ele><time>2026-06-04T12:08:07Z</time></trkpt>
			<trkpt lat="54.776520" lon="20.714140"><ele>26.3</ele><time>2026-06-04T12:08:14Z</time></trkpt>
			<trkpt lat="54.776070" lon="20.714630"><ele>26.4</ele><time>2026-06-04T12:08:22Z</time></trkpt>
			<trkpt lat="54.775460" lon="20.715550"><ele>26.5</ele><time>2026-06-04T12:08:29Z</time></trkpt>
			<trkpt lat="54.774550" lon="20.716950"><ele>26.8</ele><time>2026-06-04T12:08:36Z</time></trkpt>
			<trkpt lat="54.773660" lon="20.718220"><ele>27.0</ele><time>2026-06-04T12:08:44Z</time></trkpt>
			<trkpt lat="54.770560" lon="20.722310"><ele>27.8</ele><time>2026-06-04T12:08:51Z</time></trkpt>
			<trkpt lat="54.768250" lon="20.725450"><ele>26.2</ele><time>2026-06-04T12:08:58Z</time></trkpt>
			<trkpt lat="54.767490" lon="20.726490"><ele>25.7</ele><time>2026-06-04T12:09:05Z</time></trkpt>
			<trkpt lat="54.767230" lon="20.726810"><ele>25.5</ele><time>2026-06-04T12:09:13Z</time></trkpt>
			<trkpt lat="54.766920" lon="20.727080"><ele>25.3</ele><time>2026-06-04T12:09:20Z</time></trkpt>
			<trkpt lat="54.766570" lon="20.727300"><ele>25.1</ele><time>2026-06-04T12:09:27Z</time></trkpt>
			<trkpt lat="54.766190" lon="20.727390"><ele>24.9</ele><time>2026-06-04T12:09:35Z</time></trkpt>
			<trkpt lat="54.765820" lon="20.727350"><ele>24.7</ele><time>2026-06-04T12:09:42Z</time></trkpt>
			<trkpt lat="54.763290" lon="20.726740"><ele>23.3</ele><time>2026-06-04T12:09:49Z</time></trkpt>
			<trkpt lat="54.762970" lon="20.726710"><ele>23.2</ele><time>2026-06-04T12:09:57Z</time></trkpt>
			<trkpt lat="54.762570" lon="20.726720"><ele>22.9</ele><time>2026-06-04T12:10:04Z</time></trkpt>
			<trkpt lat="54.753490" lon="20.728890"><ele>17.7</ele><time>2026-06-04T12:10:11Z</time></trkpt>
			<trkpt lat="54.752960" lon="20.728960"><ele>17.6</ele><time>2026-06-04T12:10:19Z</time></trkpt>
			<trkpt lat="54.751780" lon="20.728950"><ele>17.4</ele><time>2026-06-04T12:10:26Z</time></trkpt>
			<trkpt lat="54.751370" lon="20.729000"><ele>17.3</ele><time>2026-06-04T12:10:33Z</time></trkpt>
			<trkpt lat="54.751000" lon="20.729140"><ele>17.2</ele><time>2026-06-04T12:10:41Z</time></trkpt>
			<trkpt lat="54.750870" lon="20.729200"><ele>17.2</ele><time>2026-06-04T12:10:48Z</time></trkpt>
			<trkpt lat="54.750600" lon="20.729320"><ele>17.1</ele><time>2026-06-04T12:10:55Z</time></trkpt>
			<trkpt lat="54.750050" lon="20.729800"><ele>17.0</ele><time>2026-06-04T12:11:02Z</time></trkpt>
			<trkpt lat="54.749410" lon="20.730470"><ele>16.8</ele><time>2026-06-04T12:11:10Z</time></trkpt>
			<trkpt lat="54.745310" lon="20.734620"><ele>15.8</ele><time>2026-06-04T12:11:17Z</time></trkpt>
			<trkpt lat="54.744910" lon="20.734890"><ele>15.7</ele><time>2026-06-04T12:11:24Z</time></trkpt>
			<trkpt lat="54.744670" lon="20.734960"><ele>15.6</ele><time>2026-06-04T12:11:32Z</time></trkpt>
			<trkpt lat="54.741600" lon="20.735760"><ele>15.0</ele><time>2026-06-04T12:11:39Z</time></trkpt>
			<trkpt lat="54.740910" lon="20.735940"><ele>14.8</ele><time>2026-06-04T12:11:46Z</time></trkpt>
			<trkpt lat="54.740400" lon="20.736070"><ele>14.7</ele><time>2026-06-04T12:11:54Z</time></trkpt>
			<trkpt lat="54.739210" lon="20.736200"><ele>14.5</ele><time>2026-06-04T12:12:01Z</time></trkpt>
			<trkpt lat="54.738540" lon="20.736170"><ele>14.4</ele><time>2026-06-04T12:12:08Z</time></trkpt>
			<trkpt lat="54.732780" lon="20.733830"><ele>12.6</ele><time>2026-06-04T12:12:16Z</time></trkpt>
			<trkpt lat="54.732320" lon="20.733690"><ele>12.5</ele><time>2026-06-04T12:12:23Z</time></trkpt>
			<trkpt lat="54.732030" lon="20.733670"><ele>12.4</ele><time>2026-06-04T12:12:30Z</time></trkpt>
			<trkpt lat="54.731790" lon="20.733730"><ele>12.3</ele><time>2026-06-04T12:12:38Z</time></trkpt>
			<trkpt lat="54.731090" lon="20.734270"><ele>12.1</ele><time>2026-06-04T12:12:45Z</time></trkpt>
			<trkpt lat="54.728630" lon="20.737190"><ele>11.1</ele><time>2026-06-04T12:12:52Z</time></trkpt>
			<trkpt lat="54.727730" lon="20.738020"><ele>11.1</ele><time>2026-06-04T12:12:59Z</time></trkpt>
			<trkpt lat="54.727630" lon="20.738110"><ele>11.2</ele><time>2026-06-04T12:13:07Z</time></trkpt>
			<trkpt lat="54.727190" lon="20.738540"><ele>11.3</ele><time>2026-06-04T12:13:14Z</time></trkpt>
			<trkpt lat="54.725850" lon="20.739660"><ele>11.6</ele><time>2026-06-04T12:13:21Z</time></trkpt>
			<trkpt lat="54.725250" lon="20.739980"><ele>11.7</ele><time>2026-06-04T12:13:29Z</time></trkpt>
			<trkpt lat="54.724470" lon="20.740230"><ele>11.9</ele><time>2026-06-04T12:13:36Z</time></trkpt>
			<trkpt lat="54.724080" lon="20.740240"><ele>12.0</ele><time>2026-06-04T12:13:43Z</time></trkpt>
			<trkpt lat="54.723970" lon="20.740220"><ele>12.0</ele><time>2026-06-04T12:13:51Z</time></trkpt>
			<trkpt lat="54.721030" lon="20.738170"><ele>12.7</ele><time>2026-06-04T12:13:58Z</time></trkpt>
			<trkpt lat="54.718410" lon="20.736350"><ele>12.0</ele><time>2026-06-04T12:14:05Z</time></trkpt>
			<trkpt lat="54.718080" lon="20.736260"><ele>11.8</ele><time>2026-06-04T12:14:13Z</time></trkpt>
			<trkpt lat="54.717950" lon="20.736290"><ele>11.7</ele><time>2026-06-04T12:14:20Z</time></trkpt>
			<trkpt lat="54.717730" lon="20.736500"><ele>11.6</ele><time>2026-06-04T12:14:27Z</time></trkpt>
			<trkpt lat="54.717240" lon="20.737650"><ele>11.1</ele><time>2026-06-04T12:14:35Z</time></trkpt>
			<trkpt lat="54.716950" lon="20.738020"><ele>11.0</ele><time>2026-06-04T12:14:42Z</time></trkpt>
			<trkpt lat="54.716250" lon="20.738900"><ele>10.5</ele><time>2026-06-04T12:14:49Z</time></trkpt>
			<trkpt lat="54.715440" lon="20.739820"><ele>10.0</ele><time>2026-06-04T12:14:56Z</time></trkpt>
			<trkpt lat="54.714510" lon="20.740850"><ele>9.3</ele><time>2026-06-04T12:15:04Z</time></trkpt>
			<trkpt lat="54.714190" lon="20.741090"><ele>9.2</ele><time>2026-06-04T12:15:11Z</time></trkpt>
			<trkpt lat="54.713860" lon="20.741240"><ele>9.0</ele><time>2026-06-04T12:15:18Z</time></trkpt>
			<trkpt lat="54.713190" lon="20.741360"><ele>8.6</ele><time>2026-06-04T12:15:26Z</time></trkpt>
			<trkpt lat="54.712660" lon="20.741450"><ele>8.3</ele><time>2026-06-04T12:15:33Z</time></trkpt>
			<trkpt lat="54.711680" lon="20.741450"><ele>8.6</ele><time>2026-06-04T12:15:40Z</time></trkpt>
			<trkpt lat="54.710500" lon="20.741430"><ele>9.8</ele><time>2026-06-04T12:15:48Z</time></trkpt>
			<trkpt lat="54.709550" lon="20.741460"><ele>10.8</ele><time>2026-06-04T12:15:55Z</time></trkpt>
			<trkpt lat="54.708750" lon="20.741330"><ele>11.7</ele><time>2026-06-04T12:16:02Z</time></trkpt>
			<trkpt lat="54.707580" lon="20.740870"><ele>13.0</ele><time>2026-06-04T12:16:10Z</time></trkpt>
			<trkpt lat="54.706860" lon="20.740450"><ele>13.8</ele><time>2026-06-04T12:16:17Z</time></trkpt>
			<trkpt lat="54.706220" lon="20.739800"><ele>14.6</ele><time>2026-06-04T12:16:24Z</time></trkpt>
			<trkpt lat="54.705670" lon="20.739080"><ele>15.4</ele><time>2026-06-04T12:16:32Z</time></trkpt>
			<trkpt lat="54.705420" lon="20.738760"><ele>15.7</ele><time>2026-06-04T12:16:39Z</time></trkpt>
			<trkpt lat="54.705340" lon="20.738680"><ele>15.8</ele><time>2026-06-04T12:16:46Z</time></trkpt>
			<trkpt lat="54.705240" lon="20.738610"><ele>15.9</ele><time>2026-06-04T12:16:53Z</time></trkpt>
			<trkpt lat="54.704970" lon="20.738450"><ele>16.2</ele><time>2026-06-04T12:17:01Z</time></trkpt>
			<trkpt lat="54.704190" lon="20.738260"><ele>17.1</ele><time>2026-06-04T12:17:08Z</time></trkpt>
			<trkpt lat="54.703670" lon="20.738120"><ele>17.6</ele><time>2026-06-04T12:17:15Z</time></trkpt>
			<trkpt lat="54.703000" lon="20.738000"><ele>16.9</ele><time>2026-06-04T12:17:23Z</time></trkpt>
			<trkpt lat="54.702060" lon="20.737870"><ele>15.7</ele><time>2026-06-04T12:17:30Z</time></trkpt>
			<trkpt lat="54.701850" lon="20.737860"><ele>15.4</ele><time>2026-06-04T12:17:37Z</time></trkpt>
			<trkpt lat="54.701860" lon="20.739940"><ele>13.9</ele><time>2026-06-04T12:17:45Z</time></trkpt>
			<trkpt lat="54.701860" lon="20.740930"><ele>13.1</ele><time>2026-06-04T12:17:52Z</time></trkpt>
			<trkpt lat="54.701880" lon="20.742320"><ele>12.1</ele><time>2026-06-04T12:17:59Z</time></trkpt>
			<trkpt lat="54.701870" lon="20.743160"><ele>11.4</ele><time>2026-06-04T12:18:07Z</time></trkpt>
			<trkpt lat="54.701860" lon="20.743430"><ele>11.2</ele><time>2026-06-04T12:18:14Z</time></trkpt>
			<trkpt lat="54.701850" lon="20.744020"><ele>10.8</ele><time>2026-06-04T12:18:21Z</time></trkpt>
			<trkpt lat="54.701670" lon="20.746900"><ele>8.6</ele><time>2026-06-04T12:18:29Z</time></trkpt>
			<trkpt lat="54.701650" lon="20.747200"><ele>8.3</ele><time>2026-06-04T12:18:36Z</time></trkpt>
			<trkpt lat="54.701610" lon="20.747710"><ele>7.9</ele><time>2026-06-04T12:18:43Z</time></trkpt>
			<trkpt lat="54.701550" lon="20.748040"><ele>7.7</ele><time>2026-06-04T12:18:50Z</time></trkpt>
			<trkpt lat="54.701390" lon="20.748550"><ele>7.2</ele><time>2026-06-04T12:18:58Z</time></trkpt>
			<trkpt lat="54.701340" lon="20.748660"><ele>7.1</ele><time>2026-06-04T12:19:05Z</time></trkpt>
			<trkpt lat="54.700620" lon="20.750250"><ele>5.9</ele><time>2026-06-04T12:19:12Z</time></trkpt>
			<trkpt lat="54.700410" lon="20.750840"><ele>6.0</ele><time>2026-06-04T12:19:20Z</time></trkpt>
			<trkpt lat="54.700020" lon="20.752550"><ele>6.1</ele><time>2026-06-04T12:19:27Z</time></trkpt>
			<trkpt lat="54.699630" lon="20.754000"><ele>6.2</ele><time>2026-06-04T12:19:34Z</time></trkpt>
			<trkpt lat="54.698590" lon="20.757090"><ele>6.5</ele><time>2026-06-04T12:19:42Z</time></trkpt>
			<trkpt lat="54.698590" lon="20.757090"><ele>6.5</ele><time>2026-06-04T12:19:50Z</time></trkpt>
			<trkpt lat="54.698260" lon="20.758080"><ele>6.6</ele><time>2026-06-04T12:19:57Z</time></trkpt>
			<trkpt lat="54.698180" lon="20.758590"><ele>6.6</ele><time>2026-06-04T12:20:05Z</time></trkpt>
			<trkpt lat="54.697630" lon="20.765490"><ele>7.3</ele><time>2026-06-04T12:20:13Z</time></trkpt>
			<trkpt lat="54.697580" lon="20.766250"><ele>7.5</ele><time>2026-06-04T12:20:21Z</time></trkpt>
			<trkpt lat="54.697610" lon="20.766910"><ele>7.6</ele><time>2026-06-04T12:20:29Z</time></trkpt>
			<trkpt lat="54.698330" lon="20.770840"><ele>8.6</ele><time>2026-06-04T12:20:37Z</time></trkpt>
			<trkpt lat="54.700460" lon="20.782760"><ele>10.9</ele><time>2026-06-04T12:20:45Z</time></trkpt>
			<trkpt lat="54.700530" lon="20.783200"><ele>11.0</ele><time>2026-06-04T12:20:52Z</time></trkpt>
			<trkpt lat="54.700610" lon="20.783930"><ele>11.0</ele><time>2026-06-04T12:21:00Z</time></trkpt>
			<trkpt lat="54.700640" lon="20.786010"><ele>11.1</ele><time>2026-06-04T12:21:08Z</time></trkpt>
			<trkpt lat="54.700750" lon="20.790420"><ele>11.4</ele><time>2026-06-04T12:21:16Z</time></trkpt>
			<trkpt lat="54.700780" lon="20.791310"><ele>11.4</ele><time>2026-06-04T12:21:24Z</time></trkpt>
			<trkpt lat="54.700810" lon="20.792270"><ele>11.5</ele><time>2026-06-04T12:21:32Z</time></trkpt>
			<trkpt lat="54.701060" lon="20.800190"><ele>11.7</ele><time>2026-06-04T12:21:40Z</time></trkpt>
			<trkpt lat="54.701070" lon="20.800810"><ele>11.7</ele><time>2026-06-04T12:21:47Z</time></trkpt>
			<trkpt lat="54.701050" lon="20.801940"><ele>11.7</ele><time>2026-06-04T12:21:55Z</time></trkpt>
			<trkpt lat="54.700950" lon="20.803150"><ele>11.7</ele><time>2026-06-04T12:22:03Z</time></trkpt>
			<trkpt lat="54.700850" lon="20.804530"><ele>11.8</ele><time>2026-06-04T12:22:11Z</time></trkpt>
			<trkpt lat="54.700760" lon="20.805400"><ele>11.8</ele><time>2026-06-04T12:22:19Z</time></trkpt>
			<trkpt lat="54.700640" lon="20.806650"><ele>11.8</ele><time>2026-06-04T12:22:27Z</time></trkpt>
			<trkpt lat="54.700500" lon="20.808240"><ele>11.8</ele><time>2026-06-04T12:22:34Z</time></trkpt>
			<trkpt lat="54.699780" lon="20.816470"><ele>9.1</ele><time>2026-06-04T12:22:42Z</time></trkpt>
			<trkpt lat="54.699570" lon="20.819500"><ele>7.7</ele><time>2026-06-04T12:22:50Z</time></trkpt>
			<trkpt lat="54.699520" lon="20.819990"><ele>7.5</ele><time>2026-06-04T12:22:58Z</time></trkpt>
			<trkpt lat="54.699400" lon="20.820600"><ele>7.2</ele><time>2026-06-04T12:23:06Z</time></trkpt>
			<trkpt lat="54.698740" lon="20.822620"><ele>6.2</ele><time>2026-06-04T12:23:14Z</time></trkpt>
			<trkpt lat="54.698690" lon="20.822880"><ele>6.1</ele><time>2026-06-04T12:23:22Z</time></trkpt>
			<trkpt lat="54.698590" lon="20.823550"><ele>5.8</ele><time>2026-06-04T12:23:29Z</time></trkpt>
			<trkpt lat="54.698520" lon="20.824220"><ele>5.5</ele><time>2026-06-04T12:23:37Z</time></trkpt>
			<trkpt lat="54.698440" lon="20.824590"><ele>5.3</ele><time>2026-06-04T12:23:45Z</time></trkpt>
			<trkpt lat="54.698360" lon="20.824840"><ele>5.2</ele><time>2026-06-04T12:23:53Z</time></trkpt>
			<trkpt lat="54.698250" lon="20.825170"><ele>5.1</ele><time>2026-06-04T12:24:01Z</time></trkpt>
			<trkpt lat="54.698150" lon="20.825440"><ele>5.2</ele><time>2026-06-04T12:24:09Z</time></trkpt>
			<trkpt lat="54.697890" lon="20.825980"><ele>5.3</ele><time>2026-06-04T12:24:17Z</time></trkpt>
			<trkpt lat="54.697510" lon="20.826630"><ele>5.5</ele><time>2026-06-04T12:24:24Z</time></trkpt>
			<trkpt lat="54.698370" lon="20.827760"><ele>5.9</ele><time>2026-06-04T12:24:32Z</time></trkpt>
			<trkpt lat="54.699440" lon="20.829140"><ele>6.4</ele><time>2026-06-04T12:24:40Z</time></trkpt>
			<trkpt lat="54.701920" lon="20.832330"><ele>7.6</ele><time>2026-06-04T12:24:48Z</time></trkpt>
			<trkpt lat="54.702470" lon="20.833160"><ele>7.9</ele><time>2026-06-04T12:24:56Z</time></trkpt>
			<trkpt lat="54.704180" lon="20.836150"><ele>8.8</ele><time>2026-06-04T12:25:04Z</time></trkpt>
			<trkpt lat="54.705840" lon="20.839110"><ele>9.5</ele><time>2026-06-04T12:25:12Z</time></trkpt>
			<trkpt lat="54.706240" lon="20.839840"><ele>9.7</ele><time>2026-06-04T12:25:19Z</time></trkpt>
			<trkpt lat="54.707210" lon="20.841590"><ele>10.2</ele><time>2026-06-04T12:25:27Z</time></trkpt>
			<trkpt lat="54.709050" lon="20.844900"><ele>11.0</ele><time>2026-06-04T12:25:35Z</time></trkpt>
			<trkpt lat="54.709500" lon="20.846200"><ele>11.3</ele><time>2026-06-04T12:25:43Z</time></trkpt>
			<trkpt lat="54.709560" lon="20.846360"><ele>11.3</ele><time>2026-06-04T12:25:51Z</time></trkpt>
			<trkpt lat="54.710000" lon="20.848500"><ele>10.8</ele><time>2026-06-04T12:25:59Z</time></trkpt>
			<trkpt lat="54.710010" lon="20.848620"><ele>10.8</ele><time>2026-06-04T12:26:07Z</time></trkpt>
			<trkpt lat="54.710090" lon="20.849690"><ele>10.5</ele><time>2026-06-04T12:26:14Z</time></trkpt>
			<trkpt lat="54.710160" lon="20.852580"><ele>9.6</ele><time>2026-06-04T12:26:22Z</time></trkpt>
			<trkpt lat="54.710230" lon="20.853760"><ele>9.3</ele><time>2026-06-04T12:26:30Z</time></trkpt>
			<trkpt lat="54.710410" lon="20.854950"><ele>8.9</ele><time>2026-06-04T12:26:38Z</time></trkpt>
			<trkpt lat="54.710660" lon="20.855910"><ele>8.6</ele><time>2026-06-04T12:26:46Z</time></trkpt>
			<trkpt lat="54.710870" lon="20.856680"><ele>8.4</ele><time>2026-06-04T12:26:54Z</time></trkpt>
			<trkpt lat="54.711010" lon="20.857380"><ele>8.2</ele><time>2026-06-04T12:27:02Z</time></trkpt>
			<trkpt lat="54.711160" lon="20.858240"><ele>7.9</ele><time>2026-06-04T12:27:09Z</time></trkpt>
			<trkpt lat="54.711270" lon="20.859490"><ele>7.5</ele><time>2026-06-04T12:27:17Z</time></trkpt>
			<trkpt lat="54.711340" lon="20.860330"><ele>7.3</ele><time>2026-06-04T12:27:25Z</time></trkpt>
			<trkpt lat="54.711440" lon="20.861400"><ele>7.0</ele><time>2026-06-04T12:27:33Z</time></trkpt>
			<trkpt lat="54.711460" lon="20.861520"><ele>7.0</ele><time>2026-06-04T12:27:41Z</time></trkpt>
			<trkpt lat="54.711590" lon="20.862360"><ele>7.0</ele><time>2026-06-04T12:27:49Z</time></trkpt>
			<trkpt lat="54.712060" lon="20.864790"><ele>7.5</ele><time>2026-06-04T12:27:57Z</time></trkpt>
			<trkpt lat="54.712260" lon="20.865500"><ele>7.6</ele><time>2026-06-04T12:28:04Z</time></trkpt>
			<trkpt lat="54.712390" lon="20.865770"><ele>7.7</ele><time>2026-06-04T12:28:12Z</time></trkpt>
			<trkpt lat="54.712730" lon="20.865950"><ele>7.8</ele><time>2026-06-04T12:28:20Z</time></trkpt>
			<trkpt lat="54.713880" lon="20.866250"><ele>8.2</ele><time>2026-06-04T12:28:28Z</time></trkpt>
			<trkpt lat="54.715270" lon="20.866640"><ele>8.6</ele><time>2026-06-04T12:28:36Z</time></trkpt>
			<trkpt lat="54.715340" lon="20.866700"><ele>8.7</ele><time>2026-06-04T12:28:44Z</time></trkpt>
			<trkpt lat="54.715380" lon="20.866810"><ele>8.7</ele><time>2026-06-04T12:28:52Z</time></trkpt>
			<trkpt lat="54.715510" lon="20.867350"><ele>8.8</ele><time>2026-06-04T12:28:59Z</time></trkpt>
			<trkpt lat="54.715560" lon="20.868070"><ele>8.9</ele><time>2026-06-04T12:29:07Z</time></trkpt>
			<trkpt lat="54.715600" lon="20.869240"><ele>9.1</ele><time>2026-06-04T12:29:15Z</time></trkpt>
			<trkpt lat="54.715490" lon="20.869790"><ele>9.3</ele><time>2026-06-04T12:29:23Z</time></trkpt>
			<trkpt lat="54.712810" lon="20.876910"><ele>10.2</ele><time>2026-06-04T12:29:31Z</time></trkpt>
			<trkpt lat="54.712640" lon="20.877760"><ele>10.3</ele><time>2026-06-04T12:29:39Z</time></trkpt>
			<trkpt lat="54.712630" lon="20.877980"><ele>10.3</ele><time>2026-06-04T12:29:47Z</time></trkpt>
			<trkpt lat="54.712630" lon="20.877980"><ele>10.3</ele><time>2026-06-04T12:29:57Z</time></trkpt>
			<trkpt lat="54.712600" lon="20.878610"><ele>10.4</ele><time>2026-06-04T12:30:08Z</time></trkpt>
			<trkpt lat="54.712700" lon="20.880240"><ele>10.5</ele><time>2026-06-04T12:30:19Z</time></trkpt>
			<trkpt lat="54.712660" lon="20.881960"><ele>10.7</ele><time>2026-06-04T12:30:29Z</time></trkpt>
			<trkpt lat="54.712600" lon="20.883380"><ele>10.8</ele><time>2026-06-04T12:30:40Z</time></trkpt>
			<trkpt lat="54.712400" lon="20.885740"><ele>11.0</ele><time>2026-06-04T12:30:51Z</time></trkpt>
			<trkpt lat="54.712240" lon="20.886470"><ele>11.0</ele><time>2026-06-04T12:31:01Z</time></trkpt>
			<trkpt lat="54.710620" lon="20.891840"><ele>10.7</ele><time>2026-06-04T12:31:12Z</time></trkpt>
			<trkpt lat="54.710220" lon="20.892700"><ele>10.7</ele><time>2026-06-04T12:31:23Z</time></trkpt>
			<trkpt lat="54.705920" lon="20.900860"><ele>10.2</ele><time>2026-06-04T12:31:33Z</time></trkpt>
			<trkpt lat="54.705650" lon="20.901470"><ele>10.2</ele><time>2026-06-04T12:31:44Z</time></trkpt>
			<trkpt lat="54.705450" lon="20.902140"><ele>10.2</ele><time>2026-06-04T12:31:55Z</time></trkpt>
			<trkpt lat="54.705280" lon="20.903190"><ele>10.2</ele><time>2026-06-04T12:32:05Z</time></trkpt>
			<trkpt lat="54.705250" lon="20.903410"><ele>10.2</ele><time>2026-06-04T12:32:16Z</time></trkpt>
			<trkpt lat="54.705110" lon="20.904660"><ele>10.2</ele><time>2026-06-04T12:32:27Z</time></trkpt>
			<trkpt lat="54.704980" lon="20.906160"><ele>10.2</ele><time>2026-06-04T12:32:37Z</time></trkpt>
			<trkpt lat="54.704840" lon="20.907720"><ele>10.2</ele><time>2026-06-04T12:32:48Z</time></trkpt>
			<trkpt lat="54.704380" lon="20.910510"><ele>10.2</ele><time>2026-06-04T12:32:59Z</time></trkpt>
			<trkpt lat="54.704310" lon="20.911340"><ele>10.2</ele><time>2026-06-04T12:33:10Z</time></trkpt>
			<trkpt lat="54.704360" lon="20.913070"><ele>10.2</ele><time>2026-06-04T12:33:20Z</time></trkpt>
			<trkpt lat="54.704600" lon="20.916800"><ele>10.2</ele><time>2026-06-04T12:33:31Z</time></trkpt>
			<trkpt lat="54.704600" lon="20.917780"><ele>10.2</ele><time>2026-06-04T12:33:42Z</time></trkpt>
			<trkpt lat="54.704530" lon="20.918340"><ele>10.2</ele><time>2026-06-04T12:33:52Z</time></trkpt>
			<trkpt lat="54.704440" lon="20.918990"><ele>10.2</ele><time>2026-06-04T12:34:03Z</time></trkpt>
			<trkpt lat="54.704360" lon="20.920030"><ele>10.2</ele><time>2026-06-04T12:34:14Z</time></trkpt>
			<trkpt lat="54.704250" lon="20.921490"><ele>10.2</ele><time>2026-06-04T12:34:24Z</time></trkpt>
			<trkpt lat="54.703970" lon="20.924840"><ele>10.2</ele><time>2026-06-04T12:34:35Z</time></trkpt>
			<trkpt lat="54.703920" lon="20.925580"><ele>10.2</ele><time>2026-06-04T12:34:46Z</time></trkpt>
			<trkpt lat="54.703930" lon="20.926100"><ele>10.2</ele><time>2026-06-04T12:34:56Z</time></trkpt>
			<trkpt lat="54.704150" lon="20.928520"><ele>10.3</ele><time>2026-06-04T12:35:07Z</time></trkpt>
			<trkpt lat="54.704210" lon="20.929570"><ele>10.4</ele><time>2026-06-04T12:35:18Z</time></trkpt>
			<trkpt lat="54.704320" lon="20.930100"><ele>10.5</ele><time>2026-06-04T12:35:28Z</time></trkpt>
			<trkpt lat="54.704540" lon="20.930800"><ele>10.6</ele><time>2026-06-04T12:35:39Z</time></trkpt>
			<trkpt lat="54.705810" lon="20.934330"><ele>11.4</ele><time>2026-06-04T12:35:50Z</time></trkpt>
			<trkpt lat="54.706470" lon="20.936890"><ele>11.9</ele><time>2026-06-04T12:36:00Z</time></trkpt>
			<trkpt lat="54.706990" lon="20.938880"><ele>12.3</ele><time>2026-06-04T12:36:11Z</time></trkpt>
			<trkpt lat="54.707110" lon="20.939450"><ele>12.4</ele><time>2026-06-04T12:36:22Z</time></trkpt>
			<trkpt lat="54.707150" lon="20.940070"><ele>12.6</ele><time>2026-06-04T12:36:32Z</time></trkpt>
			<trkpt lat="54.706420" lon="20.948600"><ele>13.9</ele><time>2026-06-04T12:36:43Z</time></trkpt>
			<trkpt lat="54.706340" lon="20.949510"><ele>14.0</ele><time>2026-06-04T12:36:54Z</time></trkpt>
			<trkpt lat="54.706250" lon="20.950050"><ele>14.1</ele><time>2026-06-04T12:37:05Z</time></trkpt>
			<trkpt lat="54.709830" lon="20.950830"><ele>15.0</ele><time>2026-06-04T12:37:15Z</time></trkpt>
			<trkpt lat="54.711310" lon="20.951650"><ele>15.2</ele><time>2026-06-04T12:37:26Z</time></trkpt>
			<trkpt lat="54.713260" lon="20.952800"><ele>14.7</ele><time>2026-06-04T12:37:37Z</time></trkpt>
			<trkpt lat="54.714010" lon="20.953380"><ele>14.4</ele><time>2026-06-04T12:37:47Z</time></trkpt>
			<trkpt lat="54.714340" lon="20.953770"><ele>14.3</ele><time>2026-06-04T12:37:58Z</time></trkpt>
			<trkpt lat="54.718840" lon="20.959750"><ele>12.8</ele><time>2026-06-04T12:38:09Z</time></trkpt>
			<trkpt lat="54.720460" lon="20.962010"><ele>12.3</ele><time>2026-06-04T12:38:19Z</time></trkpt>
			<trkpt lat="54.725450" lon="20.968060"><ele>10.9</ele><time>2026-06-04T12:38:30Z</time></trkpt>
			<trkpt lat="54.728870" lon="20.971900"><ele>11.6</ele><time>2026-06-04T12:38:41Z</time></trkpt>
			<trkpt lat="54.729420" lon="20.972620"><ele>11.8</ele><time>2026-06-04T12:38:51Z</time></trkpt>
			<trkpt lat="54.730750" lon="20.975150"><ele>12.4</ele><time>2026-06-04T12:39:02Z</time></trkpt>
			<trkpt lat="54.731430" lon="20.976200"><ele>12.6</ele><time>2026-06-04T12:39:13Z</time></trkpt>
			<trkpt lat="54.731610" lon="20.976310"><ele>12.7</ele><time>2026-06-04T12:39:23Z</time></trkpt>
			<trkpt lat="54.732570" lon="20.976880"><ele>12.9</ele><time>2026-06-04T12:39:34Z</time></trkpt>
			<trkpt lat="54.732960" lon="20.977480"><ele>13.1</ele><time>2026-06-04T12:39:45Z</time></trkpt>
			<trkpt lat="54.733370" lon="20.978330"><ele>13.5</ele><time>2026-06-04T12:39:55Z</time></trkpt>
			<trkpt lat="54.734250" lon="20.979860"><ele>14.8</ele><time>2026-06-04T12:40:06Z</time></trkpt>
			<trkpt lat="54.734350" lon="20.980010"><ele>15.0</ele><time>2026-06-04T12:40:17Z</time></trkpt>
			<trkpt lat="54.734430" lon="20.979820"><ele>15.1</ele><time>2026-06-04T12:40:27Z</time></trkpt>
			<trkpt lat="54.735110" lon="20.978200"><ele>16.4</ele><time>2026-06-04T12:40:38Z</time></trkpt>
			<trkpt lat="54.737730" lon="20.971670"><ele>21.3</ele><time>2026-06-04T12:40:49Z</time></trkpt>
			<trkpt lat="54.738030" lon="20.971080"><ele>21.8</ele><time>2026-06-04T12:41:00Z</time></trkpt>
			<trkpt lat="54.741520" lon="20.965070"><ele>20.5</ele><time>2026-06-04T12:41:10Z</time></trkpt>
			<trkpt lat="54.741520" lon="20.965080"><ele>20.5</ele><time>2026-06-04T12:41:19Z</time></trkpt>
			<trkpt lat="54.741850" lon="20.964510"><ele>20.2</ele><time>2026-06-04T12:41:29Z</time></trkpt>
			<trkpt lat="54.747300" lon="20.955440"><ele>17.2</ele><time>2026-06-04T12:41:38Z</time></trkpt>
			<trkpt lat="54.748270" lon="20.953870"><ele>17.1</ele><time>2026-06-04T12:41:47Z</time></trkpt>
			<trkpt lat="54.749320" lon="20.952030"><ele>17.0</ele><time>2026-06-04T12:41:56Z</time></trkpt>
			<trkpt lat="54.749560" lon="20.951480"><ele>17.0</ele><time>2026-06-04T12:42:05Z</time></trkpt>
			<trkpt lat="54.750230" lon="20.946490"><ele>16.7</ele><time>2026-06-04T12:42:15Z</time></trkpt>
			<trkpt lat="54.750770" lon="20.943260"><ele>16.5</ele><time>2026-06-04T12:42:24Z</time></trkpt>
			<trkpt lat="54.751450" lon="20.940820"><ele>16.4</ele><time>2026-06-04T12:42:33Z</time></trkpt>
			<trkpt lat="54.754770" lon="20.928990"><ele>13.8</ele><time>2026-06-04T12:42:42Z</time></trkpt>
			<trkpt lat="54.756020" lon="20.924580"><ele>11.4</ele><time>2026-06-04T12:42:51Z</time></trkpt>
			<trkpt lat="54.756150" lon="20.924200"><ele>11.1</ele><time>2026-06-04T12:43:01Z</time></trkpt>
			<trkpt lat="54.757570" lon="20.918680"><ele>8.1</ele><time>2026-06-04T12:43:10Z</time></trkpt>
			<trkpt lat="54.757970" lon="20.917260"><ele>7.9</ele><time>2026-06-04T12:43:19Z</time></trkpt>
			<trkpt lat="54.758070" lon="20.917040"><ele>7.9</ele><time>2026-06-04T12:43:28Z</time></trkpt>
			<trkpt lat="54.758230" lon="20.916710"><ele>7.8</ele><time>2026-06-04T12:43:37Z</time></trkpt>
			<trkpt lat="54.759460" lon="20.914680"><ele>7.7</ele><time>2026-06-04T12:43:47Z</time></trkpt>
			<trkpt lat="54.763160" lon="20.908620"><ele>7.3</ele><time>2026-06-04T12:43:56Z</time></trkpt>
			<trkpt lat="54.763720" lon="20.907710"><ele>7.3</ele><time>2026-06-04T12:44:05Z</time></trkpt>
			<trkpt lat="54.765090" lon="20.905500"><ele>7.4</ele><time>2026-06-04T12:44:14Z</time></trkpt>
			<trkpt lat="54.766280" lon="20.903520"><ele>7.5</ele><time>2026-06-04T12:44:23Z</time></trkpt>
			<trkpt lat="54.766710" lon="20.902850"><ele>7.6</ele><time>2026-06-04T12:44:33Z</time></trkpt>
			<trkpt lat="54.766980" lon="20.902410"><ele>7.6</ele><time>2026-06-04T12:44:42Z</time></trkpt>
			<trkpt lat="54.767100" lon="20.902160"><ele>7.6</ele><time>2026-06-04T12:44:51Z</time></trkpt>
			<trkpt lat="54.767180" lon="20.901870"><ele>7.6</ele><time>2026-06-04T12:45:00Z</time></trkpt>
			<trkpt lat="54.767160" lon="20.901530"><ele>7.6</ele><time>2026-06-04T12:45:09Z</time></trkpt>
			<trkpt lat="54.767160" lon="20.901500"><ele>7.6</ele><time>2026-06-04T12:45:19Z</time></trkpt>
			<trkpt lat="54.766940" lon="20.900610"><ele>7.7</ele><time>2026-06-04T12:45:28Z</time></trkpt>
			<trkpt lat="54.766750" lon="20.899920"><ele>7.7</ele><time>2026-06-04T12:45:37Z</time></trkpt>
			<trkpt lat="54.766670" lon="20.899620"><ele>7.7</ele><time>2026-06-04T12:45:46Z</time></trkpt>
			<trkpt lat="54.766630" lon="20.899430"><ele>7.7</ele><time>2026-06-04T12:45:55Z</time></trkpt>
			<trkpt lat="54.766600" lon="20.899220"><ele>7.8</ele><time>2026-06-04T12:46:05Z</time></trkpt>
			<trkpt lat="54.766600" lon="20.898790"><ele>7.8</ele><time>2026-06-04T12:46:14Z</time></trkpt>
			<trkpt lat="54.766650" lon="20.898440"><ele>7.8</ele><time>2026-06-04T12:46:23Z</time></trkpt>
			<trkpt lat="54.766810" lon="20.898080"><ele>7.8</ele><time>2026-06-04T12:46:32Z</time></trkpt>
			<trkpt lat="54.766900" lon="20.897830"><ele>7.8</ele><time>2026-06-04T12:46:41Z</time></trkpt>
			<trkpt lat="54.767070" lon="20.897590"><ele>7.9</ele><time>2026-06-04T12:46:50Z</time></trkpt>
			<trkpt lat="54.767110" lon="20.897550"><ele>7.9</ele><time>2026-06-04T12:47:00Z</time></trkpt>
			<trkpt lat="54.768210" lon="20.896790"><ele>8.0</ele><time>2026-06-04T12:47:09Z</time></trkpt>
			<trkpt lat="54.770620" lon="20.895040"><ele>8.5</ele><time>2026-06-04T12:47:18Z</time></trkpt>
			<trkpt lat="54.772090" lon="20.893930"><ele>9.0</ele><time>2026-06-04T12:47:27Z</time></trkpt>
			<trkpt lat="54.773610" lon="20.892830"><ele>9.4</ele><time>2026-06-04T12:47:36Z</time></trkpt>
			<trkpt lat="54.775220" lon="20.891620"><ele>9.8</ele><time>2026-06-04T12:47:46Z</time></trkpt>
			<trkpt lat="54.776300" lon="20.890850"><ele>10.1</ele><time>2026-06-04T12:47:55Z</time></trkpt>
			<trkpt lat="54.779800" lon="20.888230"><ele>9.3</ele><time>2026-06-04T12:48:04Z</time></trkpt>
			<trkpt lat="54.780160" lon="20.887970"><ele>9.2</ele><time>2026-06-04T12:48:13Z</time></trkpt>
			<trkpt lat="54.780340" lon="20.887960"><ele>9.2</ele><time>2026-06-04T12:48:22Z</time></trkpt>
			<trkpt lat="54.782540" lon="20.888850"><ele>8.5</ele><time>2026-06-04T12:48:32Z</time></trkpt>
			<trkpt lat="54.782640" lon="20.888850"><ele>8.5</ele><time>2026-06-04T12:48:41Z</time></trkpt>
			<trkpt lat="54.782730" lon="20.888840"><ele>8.4</ele><time>2026-06-04T12:48:50Z</time></trkpt>
			<trkpt lat="54.782920" lon="20.888760"><ele>8.4</ele><time>2026-06-04T12:48:59Z</time></trkpt>
			<trkpt lat="54.784730" lon="20.887660"><ele>7.8</ele><time>2026-06-04T12:49:08Z</time></trkpt>
			<trkpt lat="54.785010" lon="20.887520"><ele>7.7</ele><time>2026-06-04T12:49:18Z</time></trkpt>
			<trkpt lat="54.785230" lon="20.887250"><ele>7.6</ele><time>2026-06-04T12:49:27Z</time></trkpt>
			<trkpt lat="54.785440" lon="20.886920"><ele>7.5</ele><time>2026-06-04T12:49:36Z</time></trkpt>
			<trkpt lat="54.785580" lon="20.886780"><ele>7.4</ele><time>2026-06-04T12:49:45Z</time></trkpt>
			<trkpt lat="54.785730" lon="20.886680"><ele>7.3</ele><time>2026-06-04T12:49:54Z</time></trkpt>
			<trkpt lat="54.786060" lon="20.886550"><ele>7.2</ele><time>2026-06-04T12:50:04Z</time></trkpt>
			<trkpt lat="54.786200" lon="20.886450"><ele>7.1</ele><time>2026-06-04T12:50:13Z</time></trkpt>
			<trkpt lat="54.786530" lon="20.886190"><ele>6.9</ele><time>2026-06-04T12:50:22Z</time></trkpt>
			<trkpt lat="54.786770" lon="20.885800"><ele>6.7</ele><time>2026-06-04T12:50:31Z</time></trkpt>
			<trkpt lat="54.787010" lon="20.885320"><ele>6.6</ele><time>2026-06-04T12:50:40Z</time></trkpt>
			<trkpt lat="54.787010" lon="20.885320"><ele>6.6</ele><time>2026-06-04T12:50:43Z</time></trkpt>
			<trkpt lat="54.787060" lon="20.885230"><ele>6.5</ele><time>2026-06-04T12:50:46Z</time></trkpt>
			<trkpt lat="54.786990" lon="20.885690"><ele>6.4</ele><time>2026-06-04T12:50:48Z</time></trkpt>
			<trkpt lat="54.786840" lon="20.886120"><ele>6.2</ele><time>2026-06-04T12:50:51Z</time></trkpt>
			<trkpt lat="54.786840" lon="20.886120"><ele>6.2</ele><time>2026-06-04T12:50:59Z</time></trkpt>
			<trkpt lat="54.786720" lon="20.886470"><ele>6.1</ele><time>2026-06-04T12:51:07Z</time></trkpt>
			<trkpt lat="54.786630" lon="20.886860"><ele>6.0</ele><time>2026-06-04T12:51:15Z</time></trkpt>
			<trkpt lat="54.786580" lon="20.887220"><ele>5.9</ele><time>2026-06-04T12:51:23Z</time></trkpt>
			<trkpt lat="54.786470" lon="20.888140"><ele>5.6</ele><time>2026-06-04T12:51:31Z</time></trkpt>
			<trkpt lat="54.786220" lon="20.890090"><ele>5.1</ele><time>2026-06-04T12:51:39Z</time></trkpt>
			<trkpt lat="54.786200" lon="20.891220"><ele>4.7</ele><time>2026-06-04T12:51:47Z</time></trkpt>
			<trkpt lat="54.786210" lon="20.891390"><ele>4.7</ele><time>2026-06-04T12:51:55Z</time></trkpt>
			<trkpt lat="54.786240" lon="20.891550"><ele>4.6</ele><time>2026-06-04T12:52:03Z</time></trkpt>
			<trkpt lat="54.786320" lon="20.891870"><ele>4.5</ele><time>2026-06-04T12:52:10Z</time></trkpt>
			<trkpt lat="54.787020" lon="20.893460"><ele>3.9</ele><time>2026-06-04T12:52:18Z</time></trkpt>
			<trkpt lat="54.787600" lon="20.895170"><ele>3.4</ele><time>2026-06-04T12:52:26Z</time></trkpt>
			<trkpt lat="54.788470" lon="20.898370"><ele>2.9</ele><time>2026-06-04T12:52:34Z</time></trkpt>
			<trkpt lat="54.788850" lon="20.900010"><ele>2.8</ele><time>2026-06-04T12:52:42Z</time></trkpt>
			<trkpt lat="54.789830" lon="20.904690"><ele>2.4</ele><time>2026-06-04T12:52:50Z</time></trkpt>
			<trkpt lat="54.789880" lon="20.904930"><ele>2.4</ele><time>2026-06-04T12:52:58Z</time></trkpt>
			<trkpt lat="54.790840" lon="20.909690"><ele>2.1</ele><time>2026-06-04T12:53:06Z</time></trkpt>
			<trkpt lat="54.790980" lon="20.910030"><ele>2.0</ele><time>2026-06-04T12:53:14Z</time></trkpt>
			<trkpt lat="54.791180" lon="20.910320"><ele>2.0</ele><time>2026-06-04T12:53:22Z</time></trkpt>
			<trkpt lat="54.793160" lon="20.912120"><ele>1.9</ele><time>2026-06-04T12:53:30Z</time></trkpt>
			<trkpt lat="54.794370" lon="20.913310"><ele>1.8</ele><time>2026-06-04T12:53:38Z</time></trkpt>
			<trkpt lat="54.795570" lon="20.914450"><ele>1.7</ele><time>2026-06-04T12:53:46Z</time></trkpt>
			<trkpt lat="54.796380" lon="20.914930"><ele>1.6</ele><time>2026-06-04T12:53:54Z</time></trkpt>
			<trkpt lat="54.801190" lon="20.917490"><ele>1.2</ele><time>2026-06-04T12:54:02Z</time></trkpt>
			<trkpt lat="54.804240" lon="20.919000"><ele>0.8</ele><time>2026-06-04T12:54:10Z</time></trkpt>
			<trkpt lat="54.804320" lon="20.919060"><ele>0.8</ele><time>2026-06-04T12:54:18Z</time></trkpt>
			<trkpt lat="54.804940" lon="20.919500"><ele>0.7</ele><time>2026-06-04T12:54:25Z</time></trkpt>
			<trkpt lat="54.805510" lon="20.920490"><ele>0.6</ele><time>2026-06-04T12:54:33Z</time></trkpt>
			<trkpt lat="54.806030" lon="20.921150"><ele>0.5</ele><time>2026-06-04T12:54:41Z</time></trkpt>
			<trkpt lat="54.807400" lon="20.922150"><ele>0.3</ele><time>2026-06-04T12:54:49Z</time></trkpt>
			<trkpt lat="54.807600" lon="20.922280"><ele>0.3</ele><time>2026-06-04T12:54:57Z</time></trkpt>
			<trkpt lat="54.811230" lon="20.924930"><ele>1.8</ele><time>2026-06-04T12:55:05Z</time></trkpt>
			<trkpt lat="54.811610" lon="20.925360"><ele>2.0</ele><time>2026-06-04T12:55:13Z</time></trkpt>
			<trkpt lat="54.812920" lon="20.927200"><ele>2.6</ele><time>2026-06-04T12:55:21Z</time></trkpt>
			<trkpt lat="54.812920" lon="20.927200"><ele>2.6</ele><time>2026-06-04T12:55:26Z</time></trkpt>
			<trkpt lat="54.814850" lon="20.929920"><ele>3.7</ele><time>2026-06-04T12:55:32Z</time></trkpt>
			<trkpt lat="54.815190" lon="20.930530"><ele>3.9</ele><time>2026-06-04T12:55:37Z</time></trkpt>
			<trkpt lat="54.815660" lon="20.931180"><ele>4.0</ele><time>2026-06-04T12:55:42Z</time></trkpt>
			<trkpt lat="54.816960" lon="20.932980"><ele>4.2</ele><time>2026-06-04T12:55:47Z</time></trkpt>
			<trkpt lat="54.817110" lon="20.933180"><ele>4.2</ele><time>2026-06-04T12:55:53Z</time></trkpt>
			<trkpt lat="54.818320" lon="20.934950"><ele>4.5</ele><time>2026-06-04T12:55:58Z</time></trkpt>
			<trkpt lat="54.823530" lon="20.942490"><ele>4.8</ele><time>2026-06-04T12:56:03Z</time></trkpt>
			<trkpt lat="54.826990" lon="20.947480"><ele>3.8</ele><time>2026-06-04T12:56:08Z</time></trkpt>
			<trkpt lat="54.827550" lon="20.948250"><ele>3.7</ele><time>2026-06-04T12:56:14Z</time></trkpt>
			<trkpt lat="54.827890" lon="20.948800"><ele>3.6</ele><time>2026-06-04T12:56:19Z</time></trkpt>
			<trkpt lat="54.830660" lon="20.952810"><ele>3.5</ele><time>2026-06-04T12:56:24Z</time></trkpt>
			<trkpt lat="54.831310" lon="20.953740"><ele>3.6</ele><time>2026-06-04T12:56:30Z</time></trkpt>
			<trkpt lat="54.831700" lon="20.954300"><ele>3.6</ele><time>2026-06-04T12:56:35Z</time></trkpt>
			<trkpt lat="54.832130" lon="20.955030"><ele>3.7</ele><time>2026-06-04T12:56:40Z</time></trkpt>
			<trkpt lat="54.832630" lon="20.955960"><ele>3.7</ele><time>2026-06-04T12:56:45Z</time></trkpt>
			<trkpt lat="54.832880" lon="20.956440"><ele>3.8</ele><time>2026-06-04T12:56:51Z</time></trkpt>
			<trkpt lat="54.833070" lon="20.956830"><ele>3.8</ele><time>2026-06-04T12:56:56Z</time></trkpt>
			<trkpt lat="54.833520" lon="20.957800"><ele>3.9</ele><time>2026-06-04T12:57:01Z</time></trkpt>
			<trkpt lat="54.833590" lon="20.957930"><ele>3.9</ele><time>2026-06-04T12:57:06Z</time></trkpt>
			<trkpt lat="54.834020" lon="20.958720"><ele>4.0</ele><time>2026-06-04T12:57:12Z</time></trkpt>
			<trkpt lat="54.834220" lon="20.959210"><ele>4.0</ele><time>2026-06-04T12:57:17Z</time></trkpt>
			<trkpt lat="54.834310" lon="20.959440"><ele>4.0</ele><time>2026-06-04T12:57:22Z</time></trkpt>
			<trkpt lat="54.834610" lon="20.960570"><ele>4.1</ele><time>2026-06-04T12:57:27Z</time></trkpt>
			<trkpt lat="54.834840" lon="20.961740"><ele>4.2</ele><time>2026-06-04T12:57:33Z</time></trkpt>
			<trkpt lat="54.835270" lon="20.963860"><ele>4.6</ele><time>2026-06-04T12:57:38Z</time></trkpt>
			<trkpt lat="54.835510" lon="20.965020"><ele>4.9</ele><time>2026-06-04T12:57:43Z</time></trkpt>
			<trkpt lat="54.836180" lon="20.968210"><ele>5.8</ele><time>2026-06-04T12:57:49Z</time></trkpt>
			<trkpt lat="54.836680" lon="20.970430"><ele>6.4</ele><time>2026-06-04T12:57:54Z</time></trkpt>
			<trkpt lat="54.836920" lon="20.971500"><ele>6.7</ele><time>2026-06-04T12:57:59Z</time></trkpt>
			<trkpt lat="54.837050" lon="20.972100"><ele>6.8</ele><time>2026-06-04T12:58:04Z</time></trkpt>
			<trkpt lat="54.837800" lon="20.975390"><ele>7.7</ele><time>2026-06-04T12:58:10Z</time></trkpt>
			<trkpt lat="54.838070" lon="20.976630"><ele>8.1</ele><time>2026-06-04T12:58:15Z</time></trkpt>
			<trkpt lat="54.838090" lon="20.976710"><ele>8.1</ele><time>2026-06-04T12:58:20Z</time></trkpt>
			<trkpt lat="54.838440" lon="20.978300"><ele>7.5</ele><time>2026-06-04T12:58:25Z</time></trkpt>
			<trkpt lat="54.839410" lon="20.982680"><ele>5.6</ele><time>2026-06-04T12:58:31Z</time></trkpt>
			<trkpt lat="54.839580" lon="20.983510"><ele>5.2</ele><time>2026-06-04T12:58:36Z</time></trkpt>
			<trkpt lat="54.839620" lon="20.983700"><ele>5.1</ele><time>2026-06-04T12:58:41Z</time></trkpt>
			<trkpt lat="54.839680" lon="20.984000"><ele>5.0</ele><time>2026-06-04T12:58:47Z</time></trkpt>
			<trkpt lat="54.839740" lon="20.984360"><ele>4.8</ele><time>2026-06-04T12:58:52Z</time></trkpt>
			<trkpt lat="54.839820" lon="20.984880"><ele>4.6</ele><time>2026-06-04T12:58:57Z</time></trkpt>
			<trkpt lat="54.840570" lon="20.991550"><ele>1.8</ele><time>2026-06-04T12:59:02Z</time></trkpt>
			<trkpt lat="54.840600" lon="20.991800"><ele>1.7</ele><time>2026-06-04T12:59:08Z</time></trkpt>
			<trkpt lat="54.841620" lon="20.999500"><ele>2.5</ele><time>2026-06-04T12:59:13Z</time></trkpt>
			<trkpt lat="54.841810" lon="21.000880"><ele>2.6</ele><time>2026-06-04T12:59:18Z</time></trkpt>
			<trkpt lat="54.841970" lon="21.001790"><ele>2.7</ele><time>2026-06-04T12:59:23Z</time></trkpt>
			<trkpt lat="54.842640" lon="21.005020"><ele>3.0</ele><time>2026-06-04T12:59:29Z</time></trkpt>
			<trkpt lat="54.843100" lon="21.007310"><ele>3.4</ele><time>2026-06-04T12:59:34Z</time></trkpt>
			<trkpt lat="54.843280" lon="21.008310"><ele>3.6</ele><time>2026-06-04T12:59:39Z</time></trkpt>
			<trkpt lat="54.843400" lon="21.009500"><ele>3.9</ele><time>2026-06-04T12:59:44Z</time></trkpt>
			<trkpt lat="54.843940" lon="21.014960"><ele>5.4</ele><time>2026-06-04T12:59:50Z</time></trkpt>
			<trkpt lat="54.843900" lon="21.016590"><ele>5.8</ele><time>2026-06-04T12:59:55Z</time></trkpt>
			<trkpt lat="54.843800" lon="21.019910"><ele>6.7</ele><time>2026-06-04T13:00:00Z</time></trkpt>
			<trkpt lat="54.843760" lon="21.021210"><ele>7.1</ele><time>2026-06-04T13:00:06Z</time></trkpt>
			<trkpt lat="54.843730" lon="21.021820"><ele>7.2</ele><time>2026-06-04T13:00:11Z</time></trkpt>
			<trkpt lat="54.843720" lon="21.022000"><ele>7.3</ele><time>2026-06-04T13:00:16Z</time></trkpt>
			<trkpt lat="54.843730" lon="21.022550"><ele>7.3</ele><time>2026-06-04T13:00:21Z</time></trkpt>
			<trkpt lat="54.843770" lon="21.022960"><ele>7.2</ele><time>2026-06-04T13:00:27Z</time></trkpt>
			<trkpt lat="54.843830" lon="21.023320"><ele>7.2</ele><time>2026-06-04T13:00:32Z</time></trkpt>
			<trkpt lat="54.844090" lon="21.024660"><ele>6.9</ele><time>2026-06-04T13:00:37Z</time></trkpt>
			<trkpt lat="54.844190" lon="21.025740"><ele>6.7</ele><time>2026-06-04T13:00:42Z</time></trkpt>
			<trkpt lat="54.844200" lon="21.029100"><ele>6.0</ele><time>2026-06-04T13:00:48Z</time></trkpt>
			<trkpt lat="54.844170" lon="21.029610"><ele>5.9</ele><time>2026-06-04T13:00:53Z</time></trkpt>
			<trkpt lat="54.844080" lon="21.030200"><ele>5.8</ele><time>2026-06-04T13:00:58Z</time></trkpt>
			<trkpt lat="54.844040" lon="21.030500"><ele>5.7</ele><time>2026-06-04T13:01:03Z</time></trkpt>
			<trkpt lat="54.844010" lon="21.030940"><ele>5.7</ele><time>2026-06-04T13:01:09Z</time></trkpt>
			<trkpt lat="54.844000" lon="21.031550"><ele>5.5</ele><time>2026-06-04T13:01:14Z</time></trkpt>
			<trkpt lat="54.844000" lon="21.031840"><ele>5.5</ele><time>2026-06-04T13:01:19Z</time></trkpt>
			<trkpt lat="54.843870" lon="21.033470"><ele>5.2</ele><time>2026-06-04T13:01:25Z</time></trkpt>
			<trkpt lat="54.843780" lon="21.034490"><ele>5.0</ele><time>2026-06-04T13:01:30Z</time></trkpt>
			<trkpt lat="54.843640" lon="21.036060"><ele>4.7</ele><time>2026-06-04T13:01:35Z</time></trkpt>
			<trkpt lat="54.842520" lon="21.048250"><ele>5.5</ele><time>2026-06-04T13:01:40Z</time></trkpt>
			<trkpt lat="54.841760" lon="21.056490"><ele>6.5</ele><time>2026-06-04T13:01:46Z</time></trkpt>
			<trkpt lat="54.841730" lon="21.056930"><ele>6.6</ele><time>2026-06-04T13:01:51Z</time></trkpt>
			<trkpt lat="54.841730" lon="21.057500"><ele>6.7</ele><time>2026-06-04T13:01:56Z</time></trkpt>
			<trkpt lat="54.841770" lon="21.058060"><ele>6.7</ele><time>2026-06-04T13:02:01Z</time></trkpt>
			<trkpt lat="54.841850" lon="21.058700"><ele>6.8</ele><time>2026-06-04T13:02:07Z</time></trkpt>
			<trkpt lat="54.842150" lon="21.061120"><ele>7.2</ele><time>2026-06-04T13:02:12Z</time></trkpt>
			<trkpt lat="54.842230" lon="21.061720"><ele>7.3</ele><time>2026-06-04T13:02:17Z</time></trkpt>
			<trkpt lat="54.842390" lon="21.062450"><ele>7.4</ele><time>2026-06-04T13:02:23Z</time></trkpt>
			<trkpt lat="54.842440" lon="21.062570"><ele>7.4</ele><time>2026-06-04T13:02:28Z</time></trkpt>
			<trkpt lat="54.842770" lon="21.063420"><ele>7.6</ele><time>2026-06-04T13:02:33Z</time></trkpt>
			<trkpt lat="54.843550" lon="21.065460"><ele>7.9</ele><time>2026-06-04T13:02:38Z</time></trkpt>
			<trkpt lat="54.843840" lon="21.066190"><ele>8.0</ele><time>2026-06-04T13:02:44Z</time></trkpt>
			<trkpt lat="54.844990" lon="21.069100"><ele>7.5</ele><time>2026-06-04T13:02:49Z</time></trkpt>
			<trkpt lat="54.847980" lon="21.076700"><ele>4.0</ele><time>2026-06-04T13:02:54Z</time></trkpt>
			<trkpt lat="54.848380" lon="21.077720"><ele>3.6</ele><time>2026-06-04T13:02:59Z</time></trkpt>
			<trkpt lat="54.849230" lon="21.079890"><ele>2.6</ele><time>2026-06-04T13:03:05Z</time></trkpt>
			<trkpt lat="54.849470" lon="21.080490"><ele>2.3</ele><time>2026-06-04T13:03:10Z</time></trkpt>
			<trkpt lat="54.849880" lon="21.081500"><ele>2.4</ele><time>2026-06-04T13:03:15Z</time></trkpt>
			<trkpt lat="54.850130" lon="21.082140"><ele>2.4</ele><time>2026-06-04T13:03:20Z</time></trkpt>
			<trkpt lat="54.850350" lon="21.082710"><ele>2.4</ele><time>2026-06-04T13:03:26Z</time></trkpt>
			<trkpt lat="54.850640" lon="21.083460"><ele>2.4</ele><time>2026-06-04T13:03:31Z</time></trkpt>
			<trkpt lat="54.850870" lon="21.084070"><ele>2.4</ele><time>2026-06-04T13:03:36Z</time></trkpt>
			<trkpt lat="54.851740" lon="21.086330"><ele>2.5</ele><time>2026-06-04T13:03:42Z</time></trkpt>
			<trkpt lat="54.851910" lon="21.086780"><ele>2.5</ele><time>2026-06-04T13:03:47Z</time></trkpt>
			<trkpt lat="54.852120" lon="21.087320"><ele>2.5</ele><time>2026-06-04T13:03:52Z</time></trkpt>
			<trkpt lat="54.853150" lon="21.090050"><ele>2.6</ele><time>2026-06-04T13:03:57Z</time></trkpt>
			<trkpt lat="54.853360" lon="21.090630"><ele>2.6</ele><time>2026-06-04T13:04:03Z</time></trkpt>
			<trkpt lat="54.853630" lon="21.091340"><ele>2.6</ele><time>2026-06-04T13:04:08Z</time></trkpt>
			<trkpt lat="54.853760" lon="21.091670"><ele>2.6</ele><time>2026-06-04T13:04:13Z</time></trkpt>
			<trkpt lat="54.853800" lon="21.091760"><ele>2.6</ele><time>2026-06-04T13:04:18Z</time></trkpt>
			<trkpt lat="54.854150" lon="21.092650"><ele>2.7</ele><time>2026-06-04T13:04:24Z</time></trkpt>
			<trkpt lat="54.854200" lon="21.092780"><ele>2.7</ele><time>2026-06-04T13:04:29Z</time></trkpt>
			<trkpt lat="54.854280" lon="21.092990"><ele>2.7</ele><time>2026-06-04T13:04:34Z</time></trkpt>
			<trkpt lat="54.854420" lon="21.093340"><ele>2.7</ele><time>2026-06-04T13:04:40Z</time></trkpt>
			<trkpt lat="54.854450" lon="21.093430"><ele>2.7</ele><time>2026-06-04T13:04:45Z</time></trkpt>
			<trkpt lat="54.854690" lon="21.094060"><ele>2.6</ele><time>2026-06-04T13:04:50Z</time></trkpt>
			<trkpt lat="54.854990" lon="21.094830"><ele>2.6</ele><time>2026-06-04T13:04:55Z</time></trkpt>
			<trkpt lat="54.855610" lon="21.096400"><ele>2.5</ele><time>2026-06-04T13:05:01Z</time></trkpt>
			<trkpt lat="54.855770" lon="21.096830"><ele>2.4</ele><time>2026-06-04T13:05:06Z</time></trkpt>
			<trkpt lat="54.855920" lon="21.097220"><ele>2.4</ele><time>2026-06-04T13:05:11Z</time></trkpt>
			<trkpt lat="54.856070" lon="21.097630"><ele>2.4</ele><time>2026-06-04T13:05:16Z</time></trkpt>
			<trkpt lat="54.856250" lon="21.098150"><ele>2.3</ele><time>2026-06-04T13:05:22Z</time></trkpt>
			<trkpt lat="54.856350" lon="21.098390"><ele>2.3</ele><time>2026-06-04T13:05:27Z</time></trkpt>
			<trkpt lat="54.857060" lon="21.100270"><ele>2.2</ele><time>2026-06-04T13:05:32Z</time></trkpt>
			<trkpt lat="54.857150" lon="21.100490"><ele>2.2</ele><time>2026-06-04T13:05:37Z</time></trkpt>
			<trkpt lat="54.857380" lon="21.101080"><ele>2.1</ele><time>2026-06-04T13:05:43Z</time></trkpt>
			<trkpt lat="54.857810" lon="21.102290"><ele>2.0</ele><time>2026-06-04T13:05:48Z</time></trkpt>
			<trkpt lat="54.857920" lon="21.102580"><ele>2.0</ele><time>2026-06-04T13:05:53Z</time></trkpt>
			<trkpt lat="54.857960" lon="21.102670"><ele>2.0</ele><time>2026-06-04T13:05:59Z</time></trkpt>
			<trkpt lat="54.858170" lon="21.103120"><ele>2.0</ele><time>2026-06-04T13:06:04Z</time></trkpt>
			<trkpt lat="54.858340" lon="21.103480"><ele>1.9</ele><time>2026-06-04T13:06:09Z</time></trkpt>
			<trkpt lat="54.858400" lon="21.103610"><ele>1.9</ele><time>2026-06-04T13:06:14Z</time></trkpt>
			<trkpt lat="54.858690" lon="21.104200"><ele>1.9</ele><time>2026-06-04T13:06:20Z</time></trkpt>
			<trkpt lat="54.858930" lon="21.104690"><ele>1.8</ele><time>2026-06-04T13:06:25Z</time></trkpt>
			<trkpt lat="54.859200" lon="21.105330"><ele>1.8</ele><time>2026-06-04T13:06:30Z</time></trkpt>
			<trkpt lat="54.859310" lon="21.105630"><ele>1.8</ele><time>2026-06-04T13:06:35Z</time></trkpt>
			<trkpt lat="54.859430" lon="21.105960"><ele>1.7</ele><time>2026-06-04T13:06:41Z</time></trkpt>
			<trkpt lat="54.859480" lon="21.106120"><ele>1.7</ele><time>2026-06-04T13:06:46Z</time></trkpt>
			<trkpt lat="54.859820" lon="21.107090"><ele>1.6</ele><time>2026-06-04T13:06:51Z</time></trkpt>
			<trkpt lat="54.859830" lon="21.107120"><ele>1.6</ele><time>2026-06-04T13:06:56Z</time></trkpt>
			<trkpt lat="54.860010" lon="21.107630"><ele>1.5</ele><time>2026-06-04T13:07:02Z</time></trkpt>
			<trkpt lat="54.860360" lon="21.108570"><ele>1.4</ele><time>2026-06-04T13:07:07Z</time></trkpt>
			<trkpt lat="54.860410" lon="21.108660"><ele>1.4</ele><time>2026-06-04T13:07:12Z</time></trkpt>
			<trkpt lat="54.860460" lon="21.108760"><ele>1.4</ele><time>2026-06-04T13:07:18Z</time></trkpt>
			<trkpt lat="54.860630" lon="21.109020"><ele>1.3</ele><time>2026-06-04T13:07:23Z</time></trkpt>
			<trkpt lat="54.860770" lon="21.109160"><ele>1.3</ele><time>2026-06-04T13:07:28Z</time></trkpt>
			<trkpt lat="54.860830" lon="21.109220"><ele>1.3</ele><time>2026-06-04T13:07:33Z</time></trkpt>
			<trkpt lat="54.860940" lon="21.109310"><ele>1.3</ele><time>2026-06-04T13:07:39Z</time></trkpt>
			<trkpt lat="54.861540" lon="21.109670"><ele>1.1</ele><time>2026-06-04T13:07:44Z</time></trkpt>
			<trkpt lat="54.862280" lon="21.110190"><ele>1.0</ele><time>2026-06-04T13:07:49Z</time></trkpt>
			<trkpt lat="54.862430" lon="21.110290"><ele>0.9</ele><time>2026-06-04T13:07:54Z</time></trkpt>
			<trkpt lat="54.862550" lon="21.110360"><ele>0.9</ele><time>2026-06-04T13:08:00Z</time></trkpt>
			<trkpt lat="54.862770" lon="21.110510"><ele>0.9</ele><time>2026-06-04T13:08:05Z</time></trkpt>
			<trkpt lat="54.862860" lon="21.110670"><ele>0.8</ele><time>2026-06-04T13:08:10Z</time></trkpt>
			<trkpt lat="54.862920" lon="21.110850"><ele>0.8</ele><time>2026-06-04T13:08:16Z</time></trkpt>
			<trkpt lat="54.862950" lon="21.110950"><ele>0.8</ele><time>2026-06-04T13:08:21Z</time></trkpt>
			<trkpt lat="54.863220" lon="21.111810"><ele>0.7</ele><time>2026-06-04T13:08:26Z</time></trkpt>
			<trkpt lat="54.863360" lon="21.112240"><ele>0.6</ele><time>2026-06-04T13:08:31Z</time></trkpt>
			<trkpt lat="54.863810" lon="21.113660"><ele>0.4</ele><time>2026-06-04T13:08:37Z</time></trkpt>
			<trkpt lat="54.863870" lon="21.113890"><ele>0.4</ele><time>2026-06-04T13:08:42Z</time></trkpt>
			<trkpt lat="54.863930" lon="21.114080"><ele>0.4</ele><time>2026-06-04T13:08:47Z</time></trkpt>
			<trkpt lat="54.864280" lon="21.115140"><ele>0.2</ele><time>2026-06-04T13:08:52Z</time></trkpt>
			<trkpt lat="54.864520" lon="21.115890"><ele>0.1</ele><time>2026-06-04T13:08:58Z</time></trkpt>
			<trkpt lat="54.864700" lon="21.116370"><ele>0.1</ele><time>2026-06-04T13:09:03Z</time></trkpt>
			<trkpt lat="54.864920" lon="21.116900"><ele>-0.0</ele><time>2026-06-04T13:09:08Z</time></trkpt>
			<trkpt lat="54.865090" lon="21.117340"><ele>-0.1</ele><time>2026-06-04T13:09:13Z</time></trkpt>
			<trkpt lat="54.865280" lon="21.117820"><ele>-0.1</ele><time>2026-06-04T13:09:19Z</time></trkpt>
			<trkpt lat="54.865380" lon="21.118100"><ele>-0.1</ele><time>2026-06-04T13:09:24Z</time></trkpt>
			<trkpt lat="54.865790" lon="21.119300"><ele>-0.3</ele><time>2026-06-04T13:09:29Z</time></trkpt>
			<trkpt lat="54.866230" lon="21.120500"><ele>-0.4</ele><time>2026-06-04T13:09:35Z</time></trkpt>
			<trkpt lat="54.866360" lon="21.121000"><ele>-0.4</ele><time>2026-06-04T13:09:40Z</time></trkpt>
			<trkpt lat="54.866530" lon="21.121860"><ele>-0.5</ele><time>2026-06-04T13:09:45Z</time></trkpt>
			<trkpt lat="54.866640" lon="21.122470"><ele>-0.6</ele><time>2026-06-04T13:09:50Z</time></trkpt>
			<trkpt lat="54.866750" lon="21.123160"><ele>-0.6</ele><time>2026-06-04T13:09:56Z</time></trkpt>
			<trkpt lat="54.866770" lon="21.124130"><ele>-0.7</ele><time>2026-06-04T13:10:01Z</time></trkpt>
			<trkpt lat="54.866720" lon="21.124610"><ele>-0.7</ele><time>2026-06-04T13:10:06Z</time></trkpt>
			<trkpt lat="54.866690" lon="21.124980"><ele>-0.8</ele><time>2026-06-04T13:10:11Z</time></trkpt>
			<trkpt lat="54.866650" lon="21.125280"><ele>-0.8</ele><time>2026-06-04T13:10:17Z</time></trkpt>
			<trkpt lat="54.866560" lon="21.125860"><ele>-0.9</ele><time>2026-06-04T13:10:22Z</time></trkpt>
			<trkpt lat="54.866080" lon="21.129100"><ele>-1.1</ele><time>2026-06-04T13:10:27Z</time></trkpt>
			<trkpt lat="54.865170" lon="21.133880"><ele>-1.3</ele><time>2026-06-04T13:10:33Z</time></trkpt>
			<trkpt lat="54.865120" lon="21.134220"><ele>-1.3</ele><time>2026-06-04T13:10:38Z</time></trkpt>
			<trkpt lat="54.864150" lon="21.140210"><ele>-0.8</ele><time>2026-06-04T13:10:43Z</time></trkpt>
			<trkpt lat="54.863990" lon="21.141130"><ele>-0.8</ele><time>2026-06-04T13:10:48Z</time></trkpt>
			<trkpt lat="54.863890" lon="21.141910"><ele>-0.7</ele><time>2026-06-04T13:10:54Z</time></trkpt>
			<trkpt lat="54.863840" lon="21.142370"><ele>-0.7</ele><time>2026-06-04T13:10:59Z</time></trkpt>
			<trkpt lat="54.863820" lon="21.142990"><ele>-0.6</ele><time>2026-06-04T13:11:04Z</time></trkpt>
			<trkpt lat="54.863830" lon="21.145560"><ele>-0.5</ele><time>2026-06-04T13:11:09Z</time></trkpt>
			<trkpt lat="54.863850" lon="21.146920"><ele>-0.4</ele><time>2026-06-04T13:11:15Z</time></trkpt>
			<trkpt lat="54.863890" lon="21.147550"><ele>-0.3</ele><time>2026-06-04T13:11:20Z</time></trkpt>
			<trkpt lat="54.864060" lon="21.149470"><ele>-0.3</ele><time>2026-06-04T13:11:25Z</time></trkpt>
			<trkpt lat="54.864190" lon="21.150880"><ele>-0.3</ele><time>2026-06-04T13:11:30Z</time></trkpt>
			<trkpt lat="54.864210" lon="21.151340"><ele>-0.3</ele><time>2026-06-04T13:11:36Z</time></trkpt>
			<trkpt lat="54.864190" lon="21.152030"><ele>-0.3</ele><time>2026-06-04T13:11:41Z</time></trkpt>
			<trkpt lat="54.863970" lon="21.154180"><ele>-0.3</ele><time>2026-06-04T13:11:46Z</time></trkpt>
			<trkpt lat="54.863610" lon="21.157990"><ele>-0.4</ele><time>2026-06-04T13:11:52Z</time></trkpt>
			<trkpt lat="54.863380" lon="21.160060"><ele>-0.4</ele><time>2026-06-04T13:11:57Z</time></trkpt>
			<trkpt lat="54.863320" lon="21.160550"><ele>-0.4</ele><time>2026-06-04T13:12:02Z</time></trkpt>
			<trkpt lat="54.863170" lon="21.161390"><ele>-0.4</ele><time>2026-06-04T13:12:07Z</time></trkpt>
			<trkpt lat="54.862960" lon="21.162070"><ele>-0.4</ele><time>2026-06-04T13:12:13Z</time></trkpt>
			<trkpt lat="54.862430" lon="21.163270"><ele>-0.2</ele><time>2026-06-04T13:12:18Z</time></trkpt>
			<trkpt lat="54.862270" lon="21.163740"><ele>-0.1</ele><time>2026-06-04T13:12:23Z</time></trkpt>
			<trkpt lat="54.862090" lon="21.164560"><ele>0.0</ele><time>2026-06-04T13:12:28Z</time></trkpt>
			<trkpt lat="54.861360" lon="21.168520"><ele>0.7</ele><time>2026-06-04T13:12:34Z</time></trkpt>
			<trkpt lat="54.860890" lon="21.170760"><ele>1.2</ele><time>2026-06-04T13:12:39Z</time></trkpt>
			<trkpt lat="54.860570" lon="21.172180"><ele>1.4</ele><time>2026-06-04T13:12:44Z</time></trkpt>
			<trkpt lat="54.860470" lon="21.172680"><ele>1.5</ele><time>2026-06-04T13:12:49Z</time></trkpt>
			<trkpt lat="54.860390" lon="21.173530"><ele>1.7</ele><time>2026-06-04T13:12:55Z</time></trkpt>
			<trkpt lat="54.860310" lon="21.174110"><ele>1.8</ele><time>2026-06-04T13:13:00Z</time></trkpt>
			<trkpt lat="54.860020" lon="21.175720"><ele>2.1</ele><time>2026-06-04T13:13:05Z</time></trkpt>
			<trkpt lat="54.860020" lon="21.175720"><ele>2.1</ele><time>2026-06-04T13:13:12Z</time></trkpt>
			<trkpt lat="54.859830" lon="21.176760"><ele>2.3</ele><time>2026-06-04T13:13:18Z</time></trkpt>
			<trkpt lat="54.859590" lon="21.177930"><ele>2.3</ele><time>2026-06-04T13:13:24Z</time></trkpt>
			<trkpt lat="54.859360" lon="21.178680"><ele>2.1</ele><time>2026-06-04T13:13:31Z</time></trkpt>
			<trkpt lat="54.859030" lon="21.179520"><ele>1.9</ele><time>2026-06-04T13:13:37Z</time></trkpt>
			<trkpt lat="54.858480" lon="21.180500"><ele>1.7</ele><time>2026-06-04T13:13:43Z</time></trkpt>
			<trkpt lat="54.857990" lon="21.181270"><ele>1.5</ele><time>2026-06-04T13:13:50Z</time></trkpt>
			<trkpt lat="54.857400" lon="21.182100"><ele>1.2</ele><time>2026-06-04T13:13:56Z</time></trkpt>
			<trkpt lat="54.856640" lon="21.183140"><ele>0.9</ele><time>2026-06-04T13:14:02Z</time></trkpt>
			<trkpt lat="54.855970" lon="21.183940"><ele>0.6</ele><time>2026-06-04T13:14:09Z</time></trkpt>
			<trkpt lat="54.855610" lon="21.184330"><ele>0.5</ele><time>2026-06-04T13:14:15Z</time></trkpt>
			<trkpt lat="54.855380" lon="21.184590"><ele>0.4</ele><time>2026-06-04T13:14:21Z</time></trkpt>
			<trkpt lat="54.852120" lon="21.187950"><ele>-0.5</ele><time>2026-06-04T13:14:27Z</time></trkpt>
			<trkpt lat="54.849620" lon="21.190530"><ele>-0.5</ele><time>2026-06-04T13:14:34Z</time></trkpt>
			<trkpt lat="54.848800" lon="21.191420"><ele>-0.4</ele><time>2026-06-04T13:14:40Z</time></trkpt>
			<trkpt lat="54.848280" lon="21.191910"><ele>-0.4</ele><time>2026-06-04T13:14:46Z</time></trkpt>
			<trkpt lat="54.847850" lon="21.192220"><ele>-0.4</ele><time>2026-06-04T13:14:53Z</time></trkpt>
			<trkpt lat="54.847420" lon="21.192400"><ele>-0.4</ele><time>2026-06-04T13:14:59Z</time></trkpt>
			<trkpt lat="54.846890" lon="21.192460"><ele>-0.4</ele><time>2026-06-04T13:15:05Z</time></trkpt>
			<trkpt lat="54.846100" lon="21.192520"><ele>-0.4</ele><time>2026-06-04T13:15:12Z</time></trkpt>
			<trkpt lat="54.845830" lon="21.192570"><ele>-0.4</ele><time>2026-06-04T13:15:18Z</time></trkpt>
			<trkpt lat="54.845700" lon="21.192610"><ele>-0.4</ele><time>2026-06-04T13:15:24Z</time></trkpt>
			<trkpt lat="54.845550" lon="21.192700"><ele>-0.4</ele><time>2026-06-04T13:15:31Z</time></trkpt>
			<trkpt lat="54.845380" lon="21.192850"><ele>-0.4</ele><time>2026-06-04T13:15:37Z</time></trkpt>
			<trkpt lat="54.845220" lon="21.193040"><ele>-0.4</ele><time>2026-06-04T13:15:43Z</time></trkpt>
			<trkpt lat="54.845110" lon="21.193200"><ele>-0.4</ele><time>2026-06-04T13:15:50Z</time></trkpt>
			<trkpt lat="54.844890" lon="21.193530"><ele>-0.4</ele><time>2026-06-04T13:15:56Z</time></trkpt>
			<trkpt lat="54.844750" lon="21.193740"><ele>-0.4</ele><time>2026-06-04T13:16:02Z</time></trkpt>
			<trkpt lat="54.844140" lon="21.194690"><ele>-0.4</ele><time>2026-06-04T13:16:09Z</time></trkpt>
			<trkpt lat="54.844050" lon="21.194860"><ele>-0.3</ele><time>2026-06-04T13:16:15Z</time></trkpt>
			<trkpt lat="54.843990" lon="21.195010"><ele>-0.3</ele><time>2026-06-04T13:16:21Z</time></trkpt>
			<trkpt lat="54.843930" lon="21.195210"><ele>-0.3</ele><time>2026-06-04T13:16:28Z</time></trkpt>
			<trkpt lat="54.843900" lon="21.195400"><ele>-0.3</ele><time>2026-06-04T13:16:34Z</time></trkpt>
			<trkpt lat="54.843880" lon="21.195590"><ele>-0.3</ele><time>2026-06-04T13:16:40Z</time></trkpt>
			<trkpt lat="54.843860" lon="21.195830"><ele>-0.3</ele><time>2026-06-04T13:16:47Z</time></trkpt>
			<trkpt lat="54.843950" lon="21.202190"><ele>-0.2</ele><time>2026-06-04T13:16:53Z</time></trkpt>
			<trkpt lat="54.843890" lon="21.203450"><ele>-0.1</ele><time>2026-06-04T13:16:59Z</time></trkpt>
			<trkpt lat="54.843850" lon="21.204190"><ele>-0.1</ele><time>2026-06-04T13:17:06Z</time></trkpt>
			<trkpt lat="54.843670" lon="21.205840"><ele>-0.1</ele><time>2026-06-04T13:17:12Z</time></trkpt>
			<trkpt lat="54.843420" lon="21.207810"><ele>-0.0</ele><time>2026-06-04T13:17:18Z</time></trkpt>
			<trkpt lat="54.843270" lon="21.208700"><ele>0.0</ele><time>2026-06-04T13:17:24Z</time></trkpt>
			<trkpt lat="54.843010" lon="21.210300"><ele>0.1</ele><time>2026-06-04T13:17:31Z</time></trkpt>
			<trkpt lat="54.842830" lon="21.211340"><ele>0.2</ele><time>2026-06-04T13:17:37Z</time></trkpt>
			<trkpt lat="54.842500" lon="21.212580"><ele>0.3</ele><time>2026-06-04T13:17:43Z</time></trkpt>
			<trkpt lat="54.842100" lon="21.214000"><ele>0.4</ele><time>2026-06-04T13:17:50Z</time></trkpt>
			<trkpt lat="54.838400" lon="21.224030"><ele>0.9</ele><time>2026-06-04T13:17:56Z</time></trkpt>
			<trkpt lat="54.838100" lon="21.224820"><ele>0.9</ele><time>2026-06-04T13:18:02Z</time></trkpt>
			<trkpt lat="54.837130" lon="21.227560"><ele>0.8</ele><time>2026-06-04T13:18:09Z</time></trkpt>
			<trkpt lat="54.836680" lon="21.229030"><ele>0.8</ele><time>2026-06-04T13:18:15Z</time></trkpt>
			<trkpt lat="54.834830" lon="21.235080"><ele>0.7</ele><time>2026-06-04T13:18:21Z</time></trkpt>
			<trkpt lat="54.833470" lon="21.239530"><ele>1.5</ele><time>2026-06-04T13:18:28Z</time></trkpt>
			<trkpt lat="54.833120" lon="21.240690"><ele>1.7</ele><time>2026-06-04T13:18:34Z</time></trkpt>
			<trkpt lat="54.831590" lon="21.245530"><ele>2.7</ele><time>2026-06-04T13:18:40Z</time></trkpt>
			<trkpt lat="54.830860" lon="21.247890"><ele>3.2</ele><time>2026-06-04T13:18:47Z</time></trkpt>
			<trkpt lat="54.830590" lon="21.248770"><ele>3.4</ele><time>2026-06-04T13:18:53Z</time></trkpt>
			<trkpt lat="54.830340" lon="21.249590"><ele>3.5</ele><time>2026-06-04T13:18:59Z</time></trkpt>
			<trkpt lat="54.829290" lon="21.253450"><ele>3.6</ele><time>2026-06-04T13:19:06Z</time></trkpt>
			<trkpt lat="54.829120" lon="21.254160"><ele>3.6</ele><time>2026-06-04T13:19:12Z</time></trkpt>
			<trkpt lat="54.827310" lon="21.261640"><ele>3.8</ele><time>2026-06-04T13:19:18Z</time></trkpt>
			<trkpt lat="54.826280" lon="21.265900"><ele>3.9</ele><time>2026-06-04T13:19:25Z</time></trkpt>
			<trkpt lat="54.825300" lon="21.269960"><ele>3.9</ele><time>2026-06-04T13:19:31Z</time></trkpt>
			<trkpt lat="54.824820" lon="21.272070"><ele>4.0</ele><time>2026-06-04T13:19:37Z</time></trkpt>
			<trkpt lat="54.824430" lon="21.274280"><ele>4.0</ele><time>2026-06-04T13:19:44Z</time></trkpt>
			<trkpt lat="54.823650" lon="21.279940"><ele>4.1</ele><time>2026-06-04T13:19:50Z</time></trkpt>
			<trkpt lat="54.823220" lon="21.283000"><ele>4.2</ele><time>2026-06-04T13:19:56Z</time></trkpt>
			<trkpt lat="54.821800" lon="21.293450"><ele>4.5</ele><time>2026-06-04T13:20:02Z</time></trkpt>
			<trkpt lat="54.821730" lon="21.294190"><ele>4.6</ele><time>2026-06-04T13:20:09Z</time></trkpt>
			<trkpt lat="54.821570" lon="21.295810"><ele>5.0</ele><time>2026-06-04T13:20:15Z</time></trkpt>
			<trkpt lat="54.821150" lon="21.302830"><ele>6.4</ele><time>2026-06-04T13:20:21Z</time></trkpt>
			<trkpt lat="54.820790" lon="21.308600"><ele>7.5</ele><time>2026-06-04T13:20:28Z</time></trkpt>
			<trkpt lat="54.820340" lon="21.316380"><ele>7.7</ele><time>2026-06-04T13:20:34Z</time></trkpt>
			<trkpt lat="54.820300" lon="21.317150"><ele>7.7</ele><time>2026-06-04T13:20:40Z</time></trkpt>
			<trkpt lat="54.820310" lon="21.317950"><ele>7.7</ele><time>2026-06-04T13:20:47Z</time></trkpt>
			<trkpt lat="54.820390" lon="21.319070"><ele>7.7</ele><time>2026-06-04T13:20:53Z</time></trkpt>
			<trkpt lat="54.820520" lon="21.320360"><ele>7.7</ele><time>2026-06-04T13:20:59Z</time></trkpt>
			<trkpt lat="54.820730" lon="21.322180"><ele>7.7</ele><time>2026-06-04T13:21:06Z</time></trkpt>
			<trkpt lat="54.821420" lon="21.327720"><ele>7.2</ele><time>2026-06-04T13:21:12Z</time></trkpt>
			<trkpt lat="54.821460" lon="21.328060"><ele>7.1</ele><time>2026-06-04T13:21:18Z</time></trkpt>
			<trkpt lat="54.822130" lon="21.333460"><ele>6.2</ele><time>2026-06-04T13:21:25Z</time></trkpt>
			<trkpt lat="54.822340" lon="21.335260"><ele>5.9</ele><time>2026-06-04T13:21:31Z</time></trkpt>
			<trkpt lat="54.823000" lon="21.340890"><ele>5.2</ele><time>2026-06-04T13:21:37Z</time></trkpt>
			<trkpt lat="54.823310" lon="21.343610"><ele>5.6</ele><time>2026-06-04T13:21:44Z</time></trkpt>
			<trkpt lat="54.823490" lon="21.345130"><ele>5.8</ele><time>2026-06-04T13:21:50Z</time></trkpt>
			<trkpt lat="54.823810" lon="21.348060"><ele>6.1</ele><time>2026-06-04T13:21:56Z</time></trkpt>
			<trkpt lat="54.824010" lon="21.349710"><ele>6.3</ele><time>2026-06-04T13:22:03Z</time></trkpt>
			<trkpt lat="54.824080" lon="21.350290"><ele>6.4</ele><time>2026-06-04T13:22:09Z</time></trkpt>
			<trkpt lat="54.824170" lon="21.351070"><ele>6.5</ele><time>2026-06-04T13:22:15Z</time></trkpt>
			<trkpt lat="54.824290" lon="21.351800"><ele>6.6</ele><time>2026-06-04T13:22:22Z</time></trkpt>
			<trkpt lat="54.824470" lon="21.352900"><ele>6.7</ele><time>2026-06-04T13:22:28Z</time></trkpt>
			<trkpt lat="54.824690" lon="21.354350"><ele>6.9</ele><time>2026-06-04T13:22:34Z</time></trkpt>
			<trkpt lat="54.824710" lon="21.354480"><ele>6.9</ele><time>2026-06-04T13:22:41Z</time></trkpt>
			<trkpt lat="54.824860" lon="21.355340"><ele>7.2</ele><time>2026-06-04T13:22:47Z</time></trkpt>
			<trkpt lat="54.825090" lon="21.356890"><ele>8.2</ele><time>2026-06-04T13:22:53Z</time></trkpt>
			<trkpt lat="54.825310" lon="21.359640"><ele>9.9</ele><time>2026-06-04T13:22:59Z</time></trkpt>
			<trkpt lat="54.825570" lon="21.362450"><ele>11.7</ele><time>2026-06-04T13:23:06Z</time></trkpt>
			<trkpt lat="54.825750" lon="21.364060"><ele>12.7</ele><time>2026-06-04T13:23:12Z</time></trkpt>
			<trkpt lat="54.826010" lon="21.366320"><ele>14.1</ele><time>2026-06-04T13:23:18Z</time></trkpt>
			<trkpt lat="54.826280" lon="21.368780"><ele>15.7</ele><time>2026-06-04T13:23:25Z</time></trkpt>
			<trkpt lat="54.826390" lon="21.369940"><ele>16.4</ele><time>2026-06-04T13:23:31Z</time></trkpt>
			<trkpt lat="54.826820" lon="21.374370"><ele>18.1</ele><time>2026-06-04T13:23:37Z</time></trkpt>
			<trkpt lat="54.826980" lon="21.376470"><ele>18.8</ele><time>2026-06-04T13:23:44Z</time></trkpt>
			<trkpt lat="54.826970" lon="21.377250"><ele>19.0</ele><time>2026-06-04T13:23:50Z</time></trkpt>
			<trkpt lat="54.826810" lon="21.379950"><ele>20.0</ele><time>2026-06-04T13:23:56Z</time></trkpt>
			<trkpt lat="54.826700" lon="21.382150"><ele>20.7</ele><time>2026-06-04T13:24:03Z</time></trkpt>
			<trkpt lat="54.826720" lon="21.382700"><ele>20.9</ele><time>2026-06-04T13:24:09Z</time></trkpt>
			<trkpt lat="54.826860" lon="21.384060"><ele>21.3</ele><time>2026-06-04T13:24:15Z</time></trkpt>
			<trkpt lat="54.827090" lon="21.385280"><ele>21.8</ele><time>2026-06-04T13:24:22Z</time></trkpt>
			<trkpt lat="54.829100" lon="21.393900"><ele>18.4</ele><time>2026-06-04T13:24:28Z</time></trkpt>
			<trkpt lat="54.830470" lon="21.400520"><ele>15.5</ele><time>2026-06-04T13:24:34Z</time></trkpt>
			<trkpt lat="54.830800" lon="21.402030"><ele>15.8</ele><time>2026-06-04T13:24:41Z</time></trkpt>
			<trkpt lat="54.831250" lon="21.403190"><ele>16.0</ele><time>2026-06-04T13:24:47Z</time></trkpt>
			<trkpt lat="54.831600" lon="21.403820"><ele>16.2</ele><time>2026-06-04T13:24:53Z</time></trkpt>
			<trkpt lat="54.831930" lon="21.404410"><ele>16.3</ele><time>2026-06-04T13:25:00Z</time></trkpt>
			<trkpt lat="54.832690" lon="21.405800"><ele>16.6</ele><time>2026-06-04T13:25:06Z</time></trkpt>
			<trkpt lat="54.833580" lon="21.407390"><ele>17.0</ele><time>2026-06-04T13:25:12Z</time></trkpt>
			<trkpt lat="54.833930" lon="21.408290"><ele>17.1</ele><time>2026-06-04T13:25:19Z</time></trkpt>
			<trkpt lat="54.834090" lon="21.408970"><ele>17.3</ele><time>2026-06-04T13:25:25Z</time></trkpt>
			<trkpt lat="54.834100" lon="21.409670"><ele>17.4</ele><time>2026-06-04T13:25:31Z</time></trkpt>
			<trkpt lat="54.834020" lon="21.410430"><ele>17.5</ele><time>2026-06-04T13:25:38Z</time></trkpt>
			<trkpt lat="54.833730" lon="21.411750"><ele>17.7</ele><time>2026-06-04T13:25:44Z</time></trkpt>
			<trkpt lat="54.832960" lon="21.415710"><ele>17.8</ele><time>2026-06-04T13:25:50Z</time></trkpt>
			<trkpt lat="54.831790" lon="21.421820"><ele>17.1</ele><time>2026-06-04T13:25:56Z</time></trkpt>
			<trkpt lat="54.831460" lon="21.423470"><ele>16.9</ele><time>2026-06-04T13:26:03Z</time></trkpt>
			<trkpt lat="54.831320" lon="21.424710"><ele>16.7</ele><time>2026-06-04T13:26:09Z</time></trkpt>
			<trkpt lat="54.831230" lon="21.425990"><ele>16.6</ele><time>2026-06-04T13:26:15Z</time></trkpt>
			<trkpt lat="54.831200" lon="21.426620"><ele>16.5</ele><time>2026-06-04T13:26:22Z</time></trkpt>
			<trkpt lat="54.831090" lon="21.427300"><ele>16.4</ele><time>2026-06-04T13:26:28Z</time></trkpt>
			<trkpt lat="54.830850" lon="21.428550"><ele>16.3</ele><time>2026-06-04T13:26:34Z</time></trkpt>
			<trkpt lat="54.830770" lon="21.428970"><ele>16.4</ele><time>2026-06-04T13:26:41Z</time></trkpt>
			<trkpt lat="54.830570" lon="21.429920"><ele>16.7</ele><time>2026-06-04T13:26:47Z</time></trkpt>
			<trkpt lat="54.830280" lon="21.431490"><ele>17.1</ele><time>2026-06-04T13:26:53Z</time></trkpt>
			<trkpt lat="54.830040" lon="21.432670"><ele>17.5</ele><time>2026-06-04T13:27:00Z</time></trkpt>
			<trkpt lat="54.829890" lon="21.433640"><ele>17.8</ele><time>2026-06-04T13:27:06Z</time></trkpt>
			<trkpt lat="54.829830" lon="21.434320"><ele>17.9</ele><time>2026-06-04T13:27:12Z</time></trkpt>
			<trkpt lat="54.829800" lon="21.435310"><ele>18.2</ele><time>2026-06-04T13:27:19Z</time></trkpt>
			<trkpt lat="54.829790" lon="21.436480"><ele>18.5</ele><time>2026-06-04T13:27:25Z</time></trkpt>
			<trkpt lat="54.829820" lon="21.438050"><ele>19.0</ele><time>2026-06-04T13:27:31Z</time></trkpt>
			<trkpt lat="54.829920" lon="21.439380"><ele>19.3</ele><time>2026-06-04T13:27:38Z</time></trkpt>
			<trkpt lat="54.830080" lon="21.440670"><ele>19.7</ele><time>2026-06-04T13:27:44Z</time></trkpt>
			<trkpt lat="54.831050" lon="21.447320"><ele>20.5</ele><time>2026-06-04T13:27:50Z</time></trkpt>
			<trkpt lat="54.831250" lon="21.448410"><ele>20.4</ele><time>2026-06-04T13:27:57Z</time></trkpt>
			<trkpt lat="54.831460" lon="21.449490"><ele>20.4</ele><time>2026-06-04T13:28:03Z</time></trkpt>
			<trkpt lat="54.831770" lon="21.450880"><ele>20.4</ele><time>2026-06-04T13:28:09Z</time></trkpt>
			<trkpt lat="54.831960" lon="21.451890"><ele>20.3</ele><time>2026-06-04T13:28:16Z</time></trkpt>
			<trkpt lat="54.832170" lon="21.453370"><ele>20.3</ele><time>2026-06-04T13:28:22Z</time></trkpt>
			<trkpt lat="54.833000" lon="21.459130"><ele>19.8</ele><time>2026-06-04T13:28:28Z</time></trkpt>
			<trkpt lat="54.833620" lon="21.463700"><ele>16.2</ele><time>2026-06-04T13:28:35Z</time></trkpt>
			<trkpt lat="54.834070" lon="21.467400"><ele>13.2</ele><time>2026-06-04T13:28:41Z</time></trkpt>
			<trkpt lat="54.834250" lon="21.469130"><ele>11.8</ele><time>2026-06-04T13:28:47Z</time></trkpt>
			<trkpt lat="54.834380" lon="21.470540"><ele>10.7</ele><time>2026-06-04T13:28:53Z</time></trkpt>
			<trkpt lat="54.834390" lon="21.471200"><ele>10.2</ele><time>2026-06-04T13:29:00Z</time></trkpt>
			<trkpt lat="54.834320" lon="21.472690"><ele>9.0</ele><time>2026-06-04T13:29:06Z</time></trkpt>
			<trkpt lat="54.834230" lon="21.473810"><ele>8.1</ele><time>2026-06-04T13:29:12Z</time></trkpt>
			<trkpt lat="54.834130" lon="21.474530"><ele>7.8</ele><time>2026-06-04T13:29:19Z</time></trkpt>
			<trkpt lat="54.833950" lon="21.475440"><ele>7.8</ele><time>2026-06-04T13:29:25Z</time></trkpt>
			<trkpt lat="54.833720" lon="21.476350"><ele>7.8</ele><time>2026-06-04T13:29:31Z</time></trkpt>
			<trkpt lat="54.833400" lon="21.477450"><ele>7.8</ele><time>2026-06-04T13:29:38Z</time></trkpt>
			<trkpt lat="54.833290" lon="21.477830"><ele>7.8</ele><time>2026-06-04T13:29:44Z</time></trkpt>
			<trkpt lat="54.833090" lon="21.478700"><ele>7.8</ele><time>2026-06-04T13:29:50Z</time></trkpt>
			<trkpt lat="54.832850" lon="21.479790"><ele>7.8</ele><time>2026-06-04T13:29:57Z</time></trkpt>
			<trkpt lat="54.832690" lon="21.480660"><ele>7.8</ele><time>2026-06-04T13:30:03Z</time></trkpt>
			<trkpt lat="54.832590" lon="21.481450"><ele>7.8</ele><time>2026-06-04T13:30:09Z</time></trkpt>
			<trkpt lat="54.832540" lon="21.482670"><ele>7.8</ele><time>2026-06-04T13:30:16Z</time></trkpt>
			<trkpt lat="54.832520" lon="21.483670"><ele>7.7</ele><time>2026-06-04T13:30:22Z</time></trkpt>
			<trkpt lat="54.832560" lon="21.484350"><ele>7.7</ele><time>2026-06-04T13:30:28Z</time></trkpt>
			<trkpt lat="54.832860" lon="21.487360"><ele>7.7</ele><time>2026-06-04T13:30:35Z</time></trkpt>
			<trkpt lat="54.832980" lon="21.488560"><ele>7.7</ele><time>2026-06-04T13:30:41Z</time></trkpt>
			<trkpt lat="54.833060" lon="21.489080"><ele>7.7</ele><time>2026-06-04T13:30:47Z</time></trkpt>
			<trkpt lat="54.833090" lon="21.489210"><ele>7.8</ele><time>2026-06-04T13:30:54Z</time></trkpt>
			<trkpt lat="54.833150" lon="21.489610"><ele>8.2</ele><time>2026-06-04T13:31:00Z</time></trkpt>
			<trkpt lat="54.833480" lon="21.491110"><ele>9.7</ele><time>2026-06-04T13:31:06Z</time></trkpt>
			<trkpt lat="54.834820" lon="21.497210"><ele>16.0</ele><time>2026-06-04T13:31:13Z</time></trkpt>
			<trkpt lat="54.835280" lon="21.499330"><ele>18.2</ele><time>2026-06-04T13:31:19Z</time></trkpt>
			<trkpt lat="54.835810" lon="21.501740"><ele>20.7</ele><time>2026-06-04T13:31:25Z</time></trkpt>
			<trkpt lat="54.837750" lon="21.510710"><ele>15.8</ele><time>2026-06-04T13:31:32Z</time></trkpt>
			<trkpt lat="54.837770" lon="21.510760"><ele>15.7</ele><time>2026-06-04T13:31:38Z</time></trkpt>
			<trkpt lat="54.837860" lon="21.511030"><ele>15.4</ele><time>2026-06-04T13:31:44Z</time></trkpt>
			<trkpt lat="54.838040" lon="21.511410"><ele>14.9</ele><time>2026-06-04T13:31:50Z</time></trkpt>
			<trkpt lat="54.839590" lon="21.514220"><ele>11.3</ele><time>2026-06-04T13:31:57Z</time></trkpt>
			<trkpt lat="54.840810" lon="21.516550"><ele>8.3</ele><time>2026-06-04T13:32:03Z</time></trkpt>
			<trkpt lat="54.840870" lon="21.516640"><ele>8.1</ele><time>2026-06-04T13:32:09Z</time></trkpt>
			<trkpt lat="54.841240" lon="21.517200"><ele>8.0</ele><time>2026-06-04T13:32:16Z</time></trkpt>
			<trkpt lat="54.842230" lon="21.518890"><ele>8.1</ele><time>2026-06-04T13:32:22Z</time></trkpt>
			<trkpt lat="54.842250" lon="21.518930"><ele>8.1</ele><time>2026-06-04T13:32:28Z</time></trkpt>
			<trkpt lat="54.842750" lon="21.519780"><ele>8.1</ele><time>2026-06-04T13:32:35Z</time></trkpt>
			<trkpt lat="54.843170" lon="21.520630"><ele>8.1</ele><time>2026-06-04T13:32:41Z</time></trkpt>
			<trkpt lat="54.843380" lon="21.521140"><ele>8.1</ele><time>2026-06-04T13:32:47Z</time></trkpt>
			<trkpt lat="54.843490" lon="21.521610"><ele>8.1</ele><time>2026-06-04T13:32:54Z</time></trkpt>
			<trkpt lat="54.843530" lon="21.521920"><ele>8.1</ele><time>2026-06-04T13:33:00Z</time></trkpt>
			<trkpt lat="54.843570" lon="21.522290"><ele>8.1</ele><time>2026-06-04T13:33:06Z</time></trkpt>
			<trkpt lat="54.843580" lon="21.522590"><ele>8.1</ele><time>2026-06-04T13:33:13Z</time></trkpt>
			<trkpt lat="54.843570" lon="21.522810"><ele>8.1</ele><time>2026-06-04T13:33:19Z</time></trkpt>
			<trkpt lat="54.843440" lon="21.523950"><ele>8.1</ele><time>2026-06-04T13:33:25Z</time></trkpt>
			<trkpt lat="54.843290" lon="21.525290"><ele>8.2</ele><time>2026-06-04T13:33:32Z</time></trkpt>
			<trkpt lat="54.843230" lon="21.525780"><ele>8.2</ele><time>2026-06-04T13:33:38Z</time></trkpt>
			<trkpt lat="54.842950" lon="21.528280"><ele>8.2</ele><time>2026-06-04T13:33:44Z</time></trkpt>
			<trkpt lat="54.842880" lon="21.528920"><ele>8.2</ele><time>2026-06-04T13:33:51Z</time></trkpt>
			<trkpt lat="54.842660" lon="21.530780"><ele>8.2</ele><time>2026-06-04T13:33:57Z</time></trkpt>
			<trkpt lat="54.842560" lon="21.531690"><ele>8.2</ele><time>2026-06-04T13:34:03Z</time></trkpt>
			<trkpt lat="54.841980" lon="21.536910"><ele>8.1</ele><time>2026-06-04T13:34:10Z</time></trkpt>
			<trkpt lat="54.841760" lon="21.538410"><ele>8.1</ele><time>2026-06-04T13:34:16Z</time></trkpt>
			<trkpt lat="54.841580" lon="21.539500"><ele>8.1</ele><time>2026-06-04T13:34:22Z</time></trkpt>
			<trkpt lat="54.841560" lon="21.539590"><ele>8.1</ele><time>2026-06-04T13:34:29Z</time></trkpt>
			<trkpt lat="54.841430" lon="21.540400"><ele>8.0</ele><time>2026-06-04T13:34:35Z</time></trkpt>
			<trkpt lat="54.841310" lon="21.541370"><ele>8.0</ele><time>2026-06-04T13:34:41Z</time></trkpt>
			<trkpt lat="54.841300" lon="21.541710"><ele>8.0</ele><time>2026-06-04T13:34:47Z</time></trkpt>
			<trkpt lat="54.841180" lon="21.542900"><ele>8.0</ele><time>2026-06-04T13:34:54Z</time></trkpt>
			<trkpt lat="54.841120" lon="21.543640"><ele>8.0</ele><time>2026-06-04T13:35:00Z</time></trkpt>
			<trkpt lat="54.841090" lon="21.544250"><ele>8.0</ele><time>2026-06-04T13:35:06Z</time></trkpt>
			<trkpt lat="54.841090" lon="21.544650"><ele>8.0</ele><time>2026-06-04T13:35:13Z</time></trkpt>
			<trkpt lat="54.841100" lon="21.544930"><ele>7.9</ele><time>2026-06-04T13:35:19Z</time></trkpt>
			<trkpt lat="54.841160" lon="21.545430"><ele>7.9</ele><time>2026-06-04T13:35:25Z</time></trkpt>
			<trkpt lat="54.841530" lon="21.548030"><ele>8.1</ele><time>2026-06-04T13:35:32Z</time></trkpt>
			<trkpt lat="54.842370" lon="21.554090"><ele>8.5</ele><time>2026-06-04T13:35:38Z</time></trkpt>
			<trkpt lat="54.842710" lon="21.556020"><ele>8.7</ele><time>2026-06-04T13:35:44Z</time></trkpt>
			<trkpt lat="54.842970" lon="21.557390"><ele>8.8</ele><time>2026-06-04T13:35:51Z</time></trkpt>
			<trkpt lat="54.843100" lon="21.558200"><ele>8.9</ele><time>2026-06-04T13:35:57Z</time></trkpt>
			<trkpt lat="54.843200" lon="21.559310"><ele>8.9</ele><time>2026-06-04T13:36:03Z</time></trkpt>
			<trkpt lat="54.843580" lon="21.563310"><ele>9.4</ele><time>2026-06-04T13:36:10Z</time></trkpt>
			<trkpt lat="54.843650" lon="21.563840"><ele>9.5</ele><time>2026-06-04T13:36:16Z</time></trkpt>
			<trkpt lat="54.843930" lon="21.565260"><ele>9.7</ele><time>2026-06-04T13:36:22Z</time></trkpt>
			<trkpt lat="54.844080" lon="21.565960"><ele>9.8</ele><time>2026-06-04T13:36:29Z</time></trkpt>
			<trkpt lat="54.844270" lon="21.566770"><ele>10.0</ele><time>2026-06-04T13:36:35Z</time></trkpt>
			<trkpt lat="54.844370" lon="21.567100"><ele>10.0</ele><time>2026-06-04T13:36:41Z</time></trkpt>
			<trkpt lat="54.844450" lon="21.567320"><ele>10.0</ele><time>2026-06-04T13:36:48Z</time></trkpt>
			<trkpt lat="54.844660" lon="21.567770"><ele>10.1</ele><time>2026-06-04T13:36:54Z</time></trkpt>
			<trkpt lat="54.844830" lon="21.568110"><ele>10.2</ele><time>2026-06-04T13:37:00Z</time></trkpt>
			<trkpt lat="54.847930" lon="21.574100"><ele>11.3</ele><time>2026-06-04T13:37:07Z</time></trkpt>
			<trkpt lat="54.848020" lon="21.574300"><ele>11.3</ele><time>2026-06-04T13:37:13Z</time></trkpt>
			<trkpt lat="54.848200" lon="21.574790"><ele>11.1</ele><time>2026-06-04T13:37:19Z</time></trkpt>
			<trkpt lat="54.848280" lon="21.575100"><ele>11.1</ele><time>2026-06-04T13:37:26Z</time></trkpt>
			<trkpt lat="54.848400" lon="21.575610"><ele>11.0</ele><time>2026-06-04T13:37:32Z</time></trkpt>
			<trkpt lat="54.848800" lon="21.577560"><ele>10.5</ele><time>2026-06-04T13:37:38Z</time></trkpt>
			<trkpt lat="54.848910" lon="21.578000"><ele>10.4</ele><time>2026-06-04T13:37:44Z</time></trkpt>
			<trkpt lat="54.848970" lon="21.578230"><ele>10.4</ele><time>2026-06-04T13:37:51Z</time></trkpt>
			<trkpt lat="54.849010" lon="21.578310"><ele>10.3</ele><time>2026-06-04T13:37:57Z</time></trkpt>
			<trkpt lat="54.849030" lon="21.578360"><ele>10.3</ele><time>2026-06-04T13:38:03Z</time></trkpt>
			<trkpt lat="54.849240" lon="21.578710"><ele>10.2</ele><time>2026-06-04T13:38:10Z</time></trkpt>
			<trkpt lat="54.849830" lon="21.579620"><ele>9.9</ele><time>2026-06-04T13:38:16Z</time></trkpt>
			<trkpt lat="54.850110" lon="21.580090"><ele>9.8</ele><time>2026-06-04T13:38:22Z</time></trkpt>
			<trkpt lat="54.850290" lon="21.580490"><ele>9.7</ele><time>2026-06-04T13:38:29Z</time></trkpt>
			<trkpt lat="54.851280" lon="21.582820"><ele>9.1</ele><time>2026-06-04T13:38:35Z</time></trkpt>
			<trkpt lat="54.853390" lon="21.587890"><ele>7.9</ele><time>2026-06-04T13:38:41Z</time></trkpt>
			<trkpt lat="54.856070" lon="21.594390"><ele>7.2</ele><time>2026-06-04T13:38:48Z</time></trkpt>
			<trkpt lat="54.856670" lon="21.595770"><ele>7.0</ele><time>2026-06-04T13:38:54Z</time></trkpt>
			<trkpt lat="54.856910" lon="21.596370"><ele>6.9</ele><time>2026-06-04T13:39:00Z</time></trkpt>
			<trkpt lat="54.857050" lon="21.596830"><ele>6.9</ele><time>2026-06-04T13:39:07Z</time></trkpt>
			<trkpt lat="54.857140" lon="21.597260"><ele>6.9</ele><time>2026-06-04T13:39:13Z</time></trkpt>
			<trkpt lat="54.857220" lon="21.597890"><ele>6.8</ele><time>2026-06-04T13:39:19Z</time></trkpt>
			<trkpt lat="54.857480" lon="21.602680"><ele>6.4</ele><time>2026-06-04T13:39:26Z</time></trkpt>
			<trkpt lat="54.857530" lon="21.603720"><ele>6.4</ele><time>2026-06-04T13:39:32Z</time></trkpt>
			<trkpt lat="54.857520" lon="21.603850"><ele>6.4</ele><time>2026-06-04T13:39:38Z</time></trkpt>
			<trkpt lat="54.857500" lon="21.603970"><ele>6.4</ele><time>2026-06-04T13:39:45Z</time></trkpt>
			<trkpt lat="54.857470" lon="21.604060"><ele>6.4</ele><time>2026-06-04T13:39:51Z</time></trkpt>
			<trkpt lat="54.857410" lon="21.604190"><ele>6.3</ele><time>2026-06-04T13:39:57Z</time></trkpt>
			<trkpt lat="54.857350" lon="21.604280"><ele>6.3</ele><time>2026-06-04T13:40:04Z</time></trkpt>
			<trkpt lat="54.857260" lon="21.604340"><ele>6.3</ele><time>2026-06-04T13:40:10Z</time></trkpt>
			<trkpt lat="54.857180" lon="21.604370"><ele>6.3</ele><time>2026-06-04T13:40:16Z</time></trkpt>
			<trkpt lat="54.856520" lon="21.604430"><ele>6.2</ele><time>2026-06-04T13:40:23Z</time></trkpt>
			<trkpt lat="54.856340" lon="21.604470"><ele>6.2</ele><time>2026-06-04T13:40:29Z</time></trkpt>
			<trkpt lat="54.856220" lon="21.604500"><ele>6.2</ele><time>2026-06-04T13:40:35Z</time></trkpt>
			<trkpt lat="54.856020" lon="21.604630"><ele>6.2</ele><time>2026-06-04T13:40:41Z</time></trkpt>
			<trkpt lat="54.855820" lon="21.604790"><ele>6.2</ele><time>2026-06-04T13:40:48Z</time></trkpt>
			<trkpt lat="54.855690" lon="21.604900"><ele>6.2</ele><time>2026-06-04T13:40:54Z</time></trkpt>
			<trkpt lat="54.855550" lon="21.605080"><ele>6.1</ele><time>2026-06-04T13:41:00Z</time></trkpt>
			<trkpt lat="54.855480" lon="21.605230"><ele>6.1</ele><time>2026-06-04T13:41:07Z</time></trkpt>
			<trkpt lat="54.855410" lon="21.605430"><ele>6.1</ele><time>2026-06-04T13:41:13Z</time></trkpt>
			<trkpt lat="54.855350" lon="21.605670"><ele>6.1</ele><time>2026-06-04T13:41:19Z</time></trkpt>
			<trkpt lat="54.854920" lon="21.607580"><ele>6.0</ele><time>2026-06-04T13:41:26Z</time></trkpt>
			<trkpt lat="54.854350" lon="21.610180"><ele>5.8</ele><time>2026-06-04T13:41:32Z</time></trkpt>
			<trkpt lat="54.854150" lon="21.611020"><ele>5.8</ele><time>2026-06-04T13:41:38Z</time></trkpt>
			<trkpt lat="54.853990" lon="21.611610"><ele>5.7</ele><time>2026-06-04T13:41:45Z</time></trkpt>
			<trkpt lat="54.853830" lon="21.612020"><ele>5.7</ele><time>2026-06-04T13:41:51Z</time></trkpt>
			<trkpt lat="54.853640" lon="21.612420"><ele>5.6</ele><time>2026-06-04T13:41:57Z</time></trkpt>
			<trkpt lat="54.853280" lon="21.613200"><ele>5.5</ele><time>2026-06-04T13:42:04Z</time></trkpt>
			<trkpt lat="54.852530" lon="21.615160"><ele>5.1</ele><time>2026-06-04T13:42:10Z</time></trkpt>
			<trkpt lat="54.854080" lon="21.617310"><ele>4.5</ele><time>2026-06-04T13:42:16Z</time></trkpt>
			<trkpt lat="54.856460" lon="21.620610"><ele>3.6</ele><time>2026-06-04T13:42:23Z</time></trkpt>
			<trkpt lat="54.856460" lon="21.620610"><ele>3.6</ele><time>2026-06-04T13:42:32Z</time></trkpt>
			<trkpt lat="54.856720" lon="21.620960"><ele>3.5</ele><time>2026-06-04T13:42:42Z</time></trkpt>
			<trkpt lat="54.860730" lon="21.626580"><ele>3.8</ele><time>2026-06-04T13:42:52Z</time></trkpt>
			<trkpt lat="54.860930" lon="21.626850"><ele>3.8</ele><time>2026-06-04T13:43:01Z</time></trkpt>
			<trkpt lat="54.865430" lon="21.633120"><ele>4.8</ele><time>2026-06-04T13:43:11Z</time></trkpt>
			<trkpt lat="54.867430" lon="21.635910"><ele>4.1</ele><time>2026-06-04T13:43:20Z</time></trkpt>
			<trkpt lat="54.873680" lon="21.644620"><ele>4.8</ele><time>2026-06-04T13:43:30Z</time></trkpt>
			<trkpt lat="54.874840" lon="21.646220"><ele>6.3</ele><time>2026-06-04T13:43:40Z</time></trkpt>
			<trkpt lat="54.875700" lon="21.647420"><ele>7.5</ele><time>2026-06-04T13:43:49Z</time></trkpt>
			<trkpt lat="54.875820" lon="21.647630"><ele>7.6</ele><time>2026-06-04T13:43:59Z</time></trkpt>
			<trkpt lat="54.875900" lon="21.647850"><ele>7.8</ele><time>2026-06-04T13:44:09Z</time></trkpt>
			<trkpt lat="54.876290" lon="21.649060"><ele>8.6</ele><time>2026-06-04T13:44:18Z</time></trkpt>
			<trkpt lat="54.876350" lon="21.649300"><ele>8.8</ele><time>2026-06-04T13:44:28Z</time></trkpt>
			<trkpt lat="54.876370" lon="21.649430"><ele>8.9</ele><time>2026-06-04T13:44:38Z</time></trkpt>
			<trkpt lat="54.876380" lon="21.649590"><ele>9.0</ele><time>2026-06-04T13:44:47Z</time></trkpt>
			<trkpt lat="54.876360" lon="21.649790"><ele>9.1</ele><time>2026-06-04T13:44:57Z</time></trkpt>
			<trkpt lat="54.876300" lon="21.650180"><ele>9.3</ele><time>2026-06-04T13:45:06Z</time></trkpt>
			<trkpt lat="54.876180" lon="21.650830"><ele>9.7</ele><time>2026-06-04T13:45:16Z</time></trkpt>
			<trkpt lat="54.876170" lon="21.650870"><ele>9.8</ele><time>2026-06-04T13:45:26Z</time></trkpt>
			<trkpt lat="54.876090" lon="21.651460"><ele>10.1</ele><time>2026-06-04T13:45:35Z</time></trkpt>
			<trkpt lat="54.876000" lon="21.652760"><ele>10.9</ele><time>2026-06-04T13:45:45Z</time></trkpt>
			<trkpt lat="54.875930" lon="21.653060"><ele>11.1</ele><time>2026-06-04T13:45:55Z</time></trkpt>
			<trkpt lat="54.875880" lon="21.653090"><ele>11.2</ele><time>2026-06-04T13:46:04Z</time></trkpt>
			<trkpt lat="54.875850" lon="21.653160"><ele>11.2</ele><time>2026-06-04T13:46:14Z</time></trkpt>
			<trkpt lat="54.875840" lon="21.653250"><ele>11.3</ele><time>2026-06-04T13:46:24Z</time></trkpt>
			<trkpt lat="54.875750" lon="21.653330"><ele>11.4</ele><time>2026-06-04T13:46:33Z</time></trkpt>
			<trkpt lat="54.875670" lon="21.653530"><ele>11.5</ele><time>2026-06-04T13:46:43Z</time></trkpt>
			<trkpt lat="54.874610" lon="21.656680"><ele>11.0</ele><time>2026-06-04T13:46:52Z</time></trkpt>
			<trkpt lat="54.874060" lon="21.658270"><ele>10.5</ele><time>2026-06-04T13:47:02Z</time></trkpt>
			<trkpt lat="54.873990" lon="21.658440"><ele>10.4</ele><time>2026-06-04T13:47:12Z</time></trkpt>
			<trkpt lat="54.873810" lon="21.658840"><ele>10.3</ele><time>2026-06-04T13:47:21Z</time></trkpt>
			<trkpt lat="54.870240" lon="21.665770"><ele>7.5</ele><time>2026-06-04T13:47:31Z</time></trkpt>
			<trkpt lat="54.870010" lon="21.666320"><ele>7.3</ele><time>2026-06-04T13:47:41Z</time></trkpt>
			<trkpt lat="54.869840" lon="21.666830"><ele>7.3</ele><time>2026-06-04T13:47:50Z</time></trkpt>
			<trkpt lat="54.868590" lon="21.670940"><ele>6.7</ele><time>2026-06-04T13:48:00Z</time></trkpt>
			<trkpt lat="54.868390" lon="21.671470"><ele>6.6</ele><time>2026-06-04T13:48:10Z</time></trkpt>
			<trkpt lat="54.868180" lon="21.671890"><ele>6.5</ele><time>2026-06-04T13:48:19Z</time></trkpt>
			<trkpt lat="54.865220" lon="21.676970"><ele>5.7</ele><time>2026-06-04T13:48:29Z</time></trkpt>
			<trkpt lat="54.862260" lon="21.682070"><ele>7.0</ele><time>2026-06-04T13:48:38Z</time></trkpt>
			<trkpt lat="54.859850" lon="21.686770"><ele>9.0</ele><time>2026-06-04T13:48:48Z</time></trkpt>
			<trkpt lat="54.858090" lon="21.690130"><ele>10.3</ele><time>2026-06-04T13:48:58Z</time></trkpt>
			<trkpt lat="54.857530" lon="21.691290"><ele>10.5</ele><time>2026-06-04T13:49:07Z</time></trkpt>
			<trkpt lat="54.854190" lon="21.698470"><ele>11.8</ele><time>2026-06-04T13:49:17Z</time></trkpt>
			<trkpt lat="54.853180" lon="21.700710"><ele>12.1</ele><time>2026-06-04T13:49:27Z</time></trkpt>
			<trkpt lat="54.852290" lon="21.702660"><ele>12.9</ele><time>2026-06-04T13:49:36Z</time></trkpt>
			<trkpt lat="54.851620" lon="21.704200"><ele>14.2</ele><time>2026-06-04T13:49:46Z</time></trkpt>
			<trkpt lat="54.850950" lon="21.705660"><ele>15.4</ele><time>2026-06-04T13:49:56Z</time></trkpt>
			<trkpt lat="54.849940" lon="21.707870"><ele>17.2</ele><time>2026-06-04T13:50:05Z</time></trkpt>
			<trkpt lat="54.849900" lon="21.707950"><ele>17.2</ele><time>2026-06-04T13:50:15Z</time></trkpt>
			<trkpt lat="54.848120" lon="21.712170"><ele>20.6</ele><time>2026-06-04T13:50:24Z</time></trkpt>
			<trkpt lat="54.847720" lon="21.713130"><ele>21.4</ele><time>2026-06-04T13:50:34Z</time></trkpt>
			<trkpt lat="54.846220" lon="21.716620"><ele>22.1</ele><time>2026-06-04T13:50:44Z</time></trkpt>
			<trkpt lat="54.845720" lon="21.717820"><ele>21.9</ele><time>2026-06-04T13:50:53Z</time></trkpt>
			<trkpt lat="54.844800" lon="21.720060"><ele>21.6</ele><time>2026-06-04T13:51:03Z</time></trkpt>
			<trkpt lat="54.844600" lon="21.720510"><ele>21.5</ele><time>2026-06-04T13:51:13Z</time></trkpt>
			<trkpt lat="54.844360" lon="21.720950"><ele>21.5</ele><time>2026-06-04T13:51:22Z</time></trkpt>
			<trkpt lat="54.843970" lon="21.721590"><ele>21.4</ele><time>2026-06-04T13:51:32Z</time></trkpt>
			<trkpt lat="54.838540" lon="21.729710"><ele>22.3</ele><time>2026-06-04T13:51:42Z</time></trkpt>
			<trkpt lat="54.837950" lon="21.730770"><ele>22.7</ele><time>2026-06-04T13:51:51Z</time></trkpt>
			<trkpt lat="54.836950" lon="21.732990"><ele>23.5</ele><time>2026-06-04T13:52:01Z</time></trkpt>
			<trkpt lat="54.834250" lon="21.738980"><ele>25.3</ele><time>2026-06-04T13:52:10Z</time></trkpt>
			<trkpt lat="54.831010" lon="21.745920"><ele>26.7</ele><time>2026-06-04T13:52:20Z</time></trkpt>
			<trkpt lat="54.830530" lon="21.746530"><ele>26.8</ele><time>2026-06-04T13:52:30Z</time></trkpt>
			<trkpt lat="54.828310" lon="21.749450"><ele>27.5</ele><time>2026-06-04T13:52:39Z</time></trkpt>
			<trkpt lat="54.828280" lon="21.749490"><ele>27.5</ele><time>2026-06-04T13:52:49Z</time></trkpt>
			<trkpt lat="54.826400" lon="21.752080"><ele>27.7</ele><time>2026-06-04T13:52:59Z</time></trkpt>
			<trkpt lat="54.824550" lon="21.754450"><ele>28.0</ele><time>2026-06-04T13:53:08Z</time></trkpt>
			<trkpt lat="54.824550" lon="21.754450"><ele>28.0</ele><time>2026-06-04T13:53:18Z</time></trkpt>
			<trkpt lat="54.821290" lon="21.758630"><ele>28.6</ele><time>2026-06-04T13:53:28Z</time></trkpt>
			<trkpt lat="54.817690" lon="21.763000"><ele>30.0</ele><time>2026-06-04T13:53:38Z</time></trkpt>
			<trkpt lat="54.815970" lon="21.764200"><ele>30.6</ele><time>2026-06-04T13:53:48Z</time></trkpt>
			<trkpt lat="54.813680" lon="21.765720"><ele>31.4</ele><time>2026-06-04T13:53:58Z</time></trkpt>
			<trkpt lat="54.812950" lon="21.766240"><ele>31.7</ele><time>2026-06-04T13:54:08Z</time></trkpt>
			<trkpt lat="54.812690" lon="21.766540"><ele>31.8</ele><time>2026-06-04T13:54:17Z</time></trkpt>
			<trkpt lat="54.811050" lon="21.768580"><ele>32.4</ele><time>2026-06-04T13:54:27Z</time></trkpt>
			<trkpt lat="54.809260" lon="21.770900"><ele>33.1</ele><time>2026-06-04T13:54:37Z</time></trkpt>
			<trkpt lat="54.808150" lon="21.772300"><ele>33.6</ele><time>2026-06-04T13:54:47Z</time></trkpt>
			<trkpt lat="54.806980" lon="21.773750"><ele>34.0</ele><time>2026-06-04T13:54:57Z</time></trkpt>
			<trkpt lat="54.806360" lon="21.774580"><ele>34.2</ele><time>2026-06-04T13:55:07Z</time></trkpt>
			<trkpt lat="54.806150" lon="21.774930"><ele>34.1</ele><time>2026-06-04T13:55:17Z</time></trkpt>
			<trkpt lat="54.805270" lon="21.776550"><ele>33.8</ele><time>2026-06-04T13:55:27Z</time></trkpt>
			<trkpt lat="54.804910" lon="21.777170"><ele>33.7</ele><time>2026-06-04T13:55:37Z</time></trkpt>
			<trkpt lat="54.804660" lon="21.777530"><ele>33.6</ele><time>2026-06-04T13:55:46Z</time></trkpt>
			<trkpt lat="54.804430" lon="21.777820"><ele>33.6</ele><time>2026-06-04T13:55:56Z</time></trkpt>
			<trkpt lat="54.803650" lon="21.778660"><ele>33.4</ele><time>2026-06-04T13:56:06Z</time></trkpt>
			<trkpt lat="54.803540" lon="21.778760"><ele>33.3</ele><time>2026-06-04T13:56:16Z</time></trkpt>
			<trkpt lat="54.803040" lon="21.779270"><ele>33.2</ele><time>2026-06-04T13:56:26Z</time></trkpt>
			<trkpt lat="54.802770" lon="21.779570"><ele>33.2</ele><time>2026-06-04T13:56:36Z</time></trkpt>
			<trkpt lat="54.801820" lon="21.780550"><ele>32.9</ele><time>2026-06-04T13:56:46Z</time></trkpt>
			<trkpt lat="54.801550" lon="21.780740"><ele>32.9</ele><time>2026-06-04T13:56:56Z</time></trkpt>
			<trkpt lat="54.801090" lon="21.781040"><ele>32.7</ele><time>2026-06-04T13:57:06Z</time></trkpt>
			<trkpt lat="54.800610" lon="21.781190"><ele>32.6</ele><time>2026-06-04T13:57:15Z</time></trkpt>
			<trkpt lat="54.799110" lon="21.781460"><ele>32.3</ele><time>2026-06-04T13:57:25Z</time></trkpt>
			<trkpt lat="54.796480" lon="21.781950"><ele>32.4</ele><time>2026-06-04T13:57:35Z</time></trkpt>
			<trkpt lat="54.796000" lon="21.782120"><ele>32.4</ele><time>2026-06-04T13:57:45Z</time></trkpt>
			<trkpt lat="54.789100" lon="21.785240"><ele>32.6</ele><time>2026-06-04T13:57:55Z</time></trkpt>
			<trkpt lat="54.786930" lon="21.786160"><ele>32.3</ele><time>2026-06-04T13:58:05Z</time></trkpt>
			<trkpt lat="54.786840" lon="21.786210"><ele>32.3</ele><time>2026-06-04T13:58:15Z</time></trkpt>
			<trkpt lat="54.784750" lon="21.787160"><ele>32.1</ele><time>2026-06-04T13:58:25Z</time></trkpt>
			<trkpt lat="54.779890" lon="21.789330"><ele>33.4</ele><time>2026-06-04T13:58:35Z</time></trkpt>
			<trkpt lat="54.776520" lon="21.790820"><ele>36.9</ele><time>2026-06-04T13:58:45Z</time></trkpt>
			<trkpt lat="54.773040" lon="21.792400"><ele>40.6</ele><time>2026-06-04T13:58:54Z</time></trkpt>
			<trkpt lat="54.767380" lon="21.794920"><ele>38.6</ele><time>2026-06-04T13:59:04Z</time></trkpt>
			<trkpt lat="54.766690" lon="21.795070"><ele>38.3</ele><time>2026-06-04T13:59:14Z</time></trkpt>
			<trkpt lat="54.766310" lon="21.795180"><ele>38.1</ele><time>2026-06-04T13:59:24Z</time></trkpt>
			<trkpt lat="54.765880" lon="21.795260"><ele>37.9</ele><time>2026-06-04T13:59:34Z</time></trkpt>
			<trkpt lat="54.765570" lon="21.795180"><ele>37.8</ele><time>2026-06-04T13:59:44Z</time></trkpt>
			<trkpt lat="54.764830" lon="21.794840"><ele>37.4</ele><time>2026-06-04T13:59:54Z</time></trkpt>
			<trkpt lat="54.764500" lon="21.794690"><ele>37.3</ele><time>2026-06-04T14:00:04Z</time></trkpt>
			<trkpt lat="54.764010" lon="21.794410"><ele>37.0</ele><time>2026-06-04T14:00:14Z</time></trkpt>
			<trkpt lat="54.762930" lon="21.793580"><ele>37.1</ele><time>2026-06-04T14:00:23Z</time></trkpt>
			<trkpt lat="54.761140" lon="21.792650"><ele>37.4</ele><time>2026-06-04T14:00:33Z</time></trkpt>
			<trkpt lat="54.758230" lon="21.790970"><ele>37.9</ele><time>2026-06-04T14:00:43Z</time></trkpt>
			<trkpt lat="54.756170" lon="21.789870"><ele>38.2</ele><time>2026-06-04T14:00:53Z</time></trkpt>
			<trkpt lat="54.755530" lon="21.789610"><ele>38.4</ele><time>2026-06-04T14:01:03Z</time></trkpt>
			<trkpt lat="54.755060" lon="21.789420"><ele>38.3</ele><time>2026-06-04T14:01:13Z</time></trkpt>
			<trkpt lat="54.753910" lon="21.789180"><ele>37.9</ele><time>2026-06-04T14:01:23Z</time></trkpt>
			<trkpt lat="54.753370" lon="21.789030"><ele>37.7</ele><time>2026-06-04T14:01:33Z</time></trkpt>
			<trkpt lat="54.752250" lon="21.788710"><ele>37.2</ele><time>2026-06-04T14:01:43Z</time></trkpt>
			<trkpt lat="54.751340" lon="21.788440"><ele>36.9</ele><time>2026-06-04T14:01:52Z</time></trkpt>
			<trkpt lat="54.751110" lon="21.788370"><ele>36.8</ele><time>2026-06-04T14:02:02Z</time></trkpt>
			<trkpt lat="54.750580" lon="21.788330"><ele>36.6</ele><time>2026-06-04T14:02:12Z</time></trkpt>
			<trkpt lat="54.749950" lon="21.788430"><ele>36.4</ele><time>2026-06-04T14:02:22Z</time></trkpt>
			<trkpt lat="54.749690" lon="21.788470"><ele>36.3</ele><time>2026-06-04T14:02:32Z</time></trkpt>
			<trkpt lat="54.748500" lon="21.788630"><ele>35.9</ele><time>2026-06-04T14:02:42Z</time></trkpt>
			<trkpt lat="54.747920" lon="21.788720"><ele>35.7</ele><time>2026-06-04T14:02:52Z</time></trkpt>
			<trkpt lat="54.742920" lon="21.789610"><ele>35.9</ele><time>2026-06-04T14:03:02Z</time></trkpt>
			<trkpt lat="54.740740" lon="21.789850"><ele>36.4</ele><time>2026-06-04T14:03:12Z</time></trkpt>
			<trkpt lat="54.736300" lon="21.790350"><ele>37.1</ele><time>2026-06-04T14:03:21Z</time></trkpt>
			<trkpt lat="54.733460" lon="21.790320"><ele>36.8</ele><time>2026-06-04T14:03:31Z</time></trkpt>
			<trkpt lat="54.729570" lon="21.789820"><ele>36.5</ele><time>2026-06-04T14:03:41Z</time></trkpt>
			<trkpt lat="54.728600" lon="21.789530"><ele>36.4</ele><time>2026-06-04T14:03:51Z</time></trkpt>
			<trkpt lat="54.725150" lon="21.787560"><ele>37.1</ele><time>2026-06-04T14:04:01Z</time></trkpt>
			<trkpt lat="54.722900" lon="21.785820"><ele>37.6</ele><time>2026-06-04T14:04:11Z</time></trkpt>
			<trkpt lat="54.722400" lon="21.785550"><ele>37.7</ele><time>2026-06-04T14:04:21Z</time></trkpt>
			<trkpt lat="54.721680" lon="21.785680"><ele>37.9</ele><time>2026-06-04T14:04:31Z</time></trkpt>
			<trkpt lat="54.715440" lon="21.788350"><ele>37.2</ele><time>2026-06-04T14:04:41Z</time></trkpt>
			<trkpt lat="54.706980" lon="21.792250"><ele>35.9</ele><time>2026-06-04T14:04:50Z</time></trkpt>
			<trkpt lat="54.706420" lon="21.792320"><ele>35.9</ele><time>2026-06-04T14:05:00Z</time></trkpt>
			<trkpt lat="54.698410" lon="21.790340"><ele>33.6</ele><time>2026-06-04T14:05:10Z</time></trkpt>
			<trkpt lat="54.693300" lon="21.789170"><ele>31.2</ele><time>2026-06-04T14:05:20Z</time></trkpt>
			<trkpt lat="54.693000" lon="21.789300"><ele>31.3</ele><time>2026-06-04T14:05:30Z</time></trkpt>
			<trkpt lat="54.689970" lon="21.792760"><ele>31.6</ele><time>2026-06-04T14:05:40Z</time></trkpt>
			<trkpt lat="54.688520" lon="21.794270"><ele>31.7</ele><time>2026-06-04T14:05:50Z</time></trkpt>
			<trkpt lat="54.686260" lon="21.796590"><ele>31.9</ele><time>2026-06-04T14:06:00Z</time></trkpt>
			<trkpt lat="54.686040" lon="21.796830"><ele>31.9</ele><time>2026-06-04T14:06:10Z</time></trkpt>
			<trkpt lat="54.682520" lon="21.796730"><ele>29.7</ele><time>2026-06-04T14:06:19Z</time></trkpt>
			<trkpt lat="54.677940" lon="21.799190"><ele>26.4</ele><time>2026-06-04T14:06:29Z</time></trkpt>
			<trkpt lat="54.670710" lon="21.802950"><ele>25.8</ele><time>2026-06-04T14:06:39Z</time></trkpt>
			<trkpt lat="54.668600" lon="21.804000"><ele>25.8</ele><time>2026-06-04T14:06:49Z</time></trkpt>
			<trkpt lat="54.668170" lon="21.804130"><ele>25.7</ele><time>2026-06-04T14:06:59Z</time></trkpt>
			<trkpt lat="54.666880" lon="21.803820"><ele>25.3</ele><time>2026-06-04T14:07:09Z</time></trkpt>
			<trkpt lat="54.664430" lon="21.803280"><ele>24.6</ele><time>2026-06-04T14:07:19Z</time></trkpt>
			<trkpt lat="54.663150" lon="21.802990"><ele>24.2</ele><time>2026-06-04T14:07:29Z</time></trkpt>
			<trkpt lat="54.662920" lon="21.802940"><ele>24.1</ele><time>2026-06-04T14:07:39Z</time></trkpt>
			<trkpt lat="54.662500" lon="21.802840"><ele>24.0</ele><time>2026-06-04T14:07:48Z</time></trkpt>
			<trkpt lat="54.661940" lon="21.802820"><ele>23.8</ele><time>2026-06-04T14:07:58Z</time></trkpt>
			<trkpt lat="54.661730" lon="21.802990"><ele>23.7</ele><time>2026-06-04T14:08:08Z</time></trkpt>
			<trkpt lat="54.661500" lon="21.803180"><ele>23.7</ele><time>2026-06-04T14:08:18Z</time></trkpt>
			<trkpt lat="54.660620" lon="21.805130"><ele>23.2</ele><time>2026-06-04T14:08:28Z</time></trkpt>
			<trkpt lat="54.660530" lon="21.805320"><ele>23.2</ele><time>2026-06-04T14:08:38Z</time></trkpt>
			<trkpt lat="54.660290" lon="21.805920"><ele>23.0</ele><time>2026-06-04T14:08:48Z</time></trkpt>
			<trkpt lat="54.660230" lon="21.806300"><ele>22.8</ele><time>2026-06-04T14:08:58Z</time></trkpt>
			<trkpt lat="54.660180" lon="21.806690"><ele>22.5</ele><time>2026-06-04T14:09:08Z</time></trkpt>
			<trkpt lat="54.659930" lon="21.806390"><ele>22.1</ele><time>2026-06-04T14:09:17Z</time></trkpt>
			<trkpt lat="54.659420" lon="21.805860"><ele>21.4</ele><time>2026-06-04T14:09:27Z</time></trkpt>
			<trkpt lat="54.659140" lon="21.805510"><ele>21.0</ele><time>2026-06-04T14:09:37Z</time></trkpt>
			<trkpt lat="54.658850" lon="21.805040"><ele>20.5</ele><time>2026-06-04T14:09:47Z</time></trkpt>
			<trkpt lat="54.658490" lon="21.804420"><ele>19.9</ele><time>2026-06-04T14:09:57Z</time></trkpt>
			<trkpt lat="54.658320" lon="21.804110"><ele>19.6</ele><time>2026-06-04T14:10:07Z</time></trkpt>
			<trkpt lat="54.658170" lon="21.803780"><ele>19.3</ele><time>2026-06-04T14:10:17Z</time></trkpt>
			<trkpt lat="54.657960" lon="21.803280"><ele>18.9</ele><time>2026-06-04T14:10:27Z</time></trkpt>
			<trkpt lat="54.657420" lon="21.801770"><ele>17.7</ele><time>2026-06-04T14:10:37Z</time></trkpt>
			<trkpt lat="54.657240" lon="21.801280"><ele>17.3</ele><time>2026-06-04T14:10:46Z</time></trkpt>
			<trkpt lat="54.657120" lon="21.801030"><ele>17.0</ele><time>2026-06-04T14:10:56Z</time></trkpt>
			<trkpt lat="54.656420" lon="21.799710"><ele>15.8</ele><time>2026-06-04T14:11:06Z</time></trkpt>
			<trkpt lat="54.656200" lon="21.799270"><ele>15.4</ele><time>2026-06-04T14:11:16Z</time></trkpt>
			<trkpt lat="54.656040" lon="21.798870"><ele>15.0</ele><time>2026-06-04T14:11:26Z</time></trkpt>
			<trkpt lat="54.655930" lon="21.798460"><ele>14.7</ele><time>2026-06-04T14:11:36Z</time></trkpt>
			<trkpt lat="54.655390" lon="21.796140"><ele>13.0</ele><time>2026-06-04T14:11:46Z</time></trkpt>
			<trkpt lat="54.655290" lon="21.795700"><ele>12.7</ele><time>2026-06-04T14:11:56Z</time></trkpt>
			<trkpt lat="54.654860" lon="21.793890"><ele>12.4</ele><time>2026-06-04T14:12:06Z</time></trkpt>
			<trkpt lat="54.654780" lon="21.793710"><ele>12.4</ele><time>2026-06-04T14:12:15Z</time></trkpt>
			<trkpt lat="54.654350" lon="21.792670"><ele>12.5</ele><time>2026-06-04T14:12:25Z</time></trkpt>
			<trkpt lat="54.653900" lon="21.791690"><ele>12.6</ele><time>2026-06-04T14:12:35Z</time></trkpt>
			<trkpt lat="54.652400" lon="21.788450"><ele>12.9</ele><time>2026-06-04T14:12:45Z</time></trkpt>
			<trkpt lat="54.652400" lon="21.788450"><ele>12.9</ele><time>2026-06-04T14:12:53Z</time></trkpt>
			<trkpt lat="54.652050" lon="21.787700"><ele>12.9</ele><time>2026-06-04T14:13:00Z</time></trkpt>
			<trkpt lat="54.651740" lon="21.787040"><ele>13.0</ele><time>2026-06-04T14:13:08Z</time></trkpt>
			<trkpt lat="54.651340" lon="21.786390"><ele>13.1</ele><time>2026-06-04T14:13:15Z</time></trkpt>
			<trkpt lat="54.650340" lon="21.782450"><ele>13.4</ele><time>2026-06-04T14:13:22Z</time></trkpt>
			<trkpt lat="54.649660" lon="21.779610"><ele>13.9</ele><time>2026-06-04T14:13:30Z</time></trkpt>
			<trkpt lat="54.649250" lon="21.776770"><ele>14.5</ele><time>2026-06-04T14:13:37Z</time></trkpt>
			<trkpt lat="54.649070" lon="21.775810"><ele>14.6</ele><time>2026-06-04T14:13:45Z</time></trkpt>
			<trkpt lat="54.648970" lon="21.775160"><ele>14.8</ele><time>2026-06-04T14:13:52Z</time></trkpt>
			<trkpt lat="54.648740" lon="21.773530"><ele>15.1</ele><time>2026-06-04T14:14:00Z</time></trkpt>
			<trkpt lat="54.648730" lon="21.773380"><ele>15.1</ele><time>2026-06-04T14:14:07Z</time></trkpt>
			<trkpt lat="54.648610" lon="21.768040"><ele>16.1</ele><time>2026-06-04T14:14:15Z</time></trkpt>
			<trkpt lat="54.648540" lon="21.765430"><ele>15.8</ele><time>2026-06-04T14:14:22Z</time></trkpt>
			<trkpt lat="54.648450" lon="21.764070"><ele>15.5</ele><time>2026-06-04T14:14:30Z</time></trkpt>
			<trkpt lat="54.648430" lon="21.763380"><ele>15.3</ele><time>2026-06-04T14:14:37Z</time></trkpt>
			<trkpt lat="54.648420" lon="21.762700"><ele>15.2</ele><time>2026-06-04T14:14:44Z</time></trkpt>
			<trkpt lat="54.648490" lon="21.760640"><ele>14.6</ele><time>2026-06-04T14:14:52Z</time></trkpt>
			<trkpt lat="54.648530" lon="21.759660"><ele>14.4</ele><time>2026-06-04T14:14:59Z</time></trkpt>
			<trkpt lat="54.648610" lon="21.758700"><ele>14.2</ele><time>2026-06-04T14:15:07Z</time></trkpt>
			<trkpt lat="54.648830" lon="21.757380"><ele>13.8</ele><time>2026-06-04T14:15:14Z</time></trkpt>
			<trkpt lat="54.649210" lon="21.754790"><ele>13.2</ele><time>2026-06-04T14:15:22Z</time></trkpt>
			<trkpt lat="54.649620" lon="21.752220"><ele>12.5</ele><time>2026-06-04T14:15:29Z</time></trkpt>
			<trkpt lat="54.649810" lon="21.750830"><ele>12.5</ele><time>2026-06-04T14:15:37Z</time></trkpt>
			<trkpt lat="54.650170" lon="21.748380"><ele>12.6</ele><time>2026-06-04T14:15:44Z</time></trkpt>
			<trkpt lat="54.650320" lon="21.747480"><ele>12.7</ele><time>2026-06-04T14:15:52Z</time></trkpt>
			<trkpt lat="54.650690" lon="21.746170"><ele>12.7</ele><time>2026-06-04T14:15:59Z</time></trkpt>
			<trkpt lat="54.650800" lon="21.745350"><ele>12.8</ele><time>2026-06-04T14:16:06Z</time></trkpt>
			<trkpt lat="54.650910" lon="21.744100"><ele>12.9</ele><time>2026-06-04T14:16:14Z</time></trkpt>
			<trkpt lat="54.650990" lon="21.742860"><ele>12.9</ele><time>2026-06-04T14:16:21Z</time></trkpt>
			<trkpt lat="54.651120" lon="21.740590"><ele>13.1</ele><time>2026-06-04T14:16:29Z</time></trkpt>
			<trkpt lat="54.651170" lon="21.739860"><ele>13.1</ele><time>2026-06-04T14:16:36Z</time></trkpt>
			<trkpt lat="54.651510" lon="21.736260"><ele>13.3</ele><time>2026-06-04T14:16:44Z</time></trkpt>
			<trkpt lat="54.651590" lon="21.735210"><ele>13.4</ele><time>2026-06-04T14:16:51Z</time></trkpt>
			<trkpt lat="54.651660" lon="21.733870"><ele>13.5</ele><time>2026-06-04T14:16:59Z</time></trkpt>
			<trkpt lat="54.651890" lon="21.729340"><ele>13.9</ele><time>2026-06-04T14:17:06Z</time></trkpt>
			<trkpt lat="54.651930" lon="21.728600"><ele>13.9</ele><time>2026-06-04T14:17:14Z</time></trkpt>
			<trkpt lat="54.651950" lon="21.728050"><ele>14.0</ele><time>2026-06-04T14:17:21Z</time></trkpt>
			<trkpt lat="54.651940" lon="21.727460"><ele>14.0</ele><time>2026-06-04T14:17:29Z</time></trkpt>
			<trkpt lat="54.651910" lon="21.726770"><ele>14.1</ele><time>2026-06-04T14:17:36Z</time></trkpt>
			<trkpt lat="54.651890" lon="21.726390"><ele>14.1</ele><time>2026-06-04T14:17:43Z</time></trkpt>
			<trkpt lat="54.651860" lon="21.725810"><ele>14.2</ele><time>2026-06-04T14:17:51Z</time></trkpt>
			<trkpt lat="54.651750" lon="21.723370"><ele>14.4</ele><time>2026-06-04T14:17:58Z</time></trkpt>
			<trkpt lat="54.651740" lon="21.723170"><ele>14.4</ele><time>2026-06-04T14:18:06Z</time></trkpt>
			<trkpt lat="54.651620" lon="21.721730"><ele>14.5</ele><time>2026-06-04T14:18:13Z</time></trkpt>
			<trkpt lat="54.651550" lon="21.720740"><ele>14.4</ele><time>2026-06-04T14:18:21Z</time></trkpt>
			<trkpt lat="54.651540" lon="21.720290"><ele>14.3</ele><time>2026-06-04T14:18:28Z</time></trkpt>
			<trkpt lat="54.651530" lon="21.719510"><ele>14.2</ele><time>2026-06-04T14:18:36Z</time></trkpt>
			<trkpt lat="54.651620" lon="21.715290"><ele>13.3</ele><time>2026-06-04T14:18:43Z</time></trkpt>
			<trkpt lat="54.651700" lon="21.712260"><ele>12.7</ele><time>2026-06-04T14:18:51Z</time></trkpt>
			<trkpt lat="54.651480" lon="21.709840"><ele>12.1</ele><time>2026-06-04T14:18:58Z</time></trkpt>
			<trkpt lat="54.651010" lon="21.706030"><ele>11.3</ele><time>2026-06-04T14:19:05Z</time></trkpt>
			<trkpt lat="54.650830" lon="21.702240"><ele>12.1</ele><time>2026-06-04T14:19:13Z</time></trkpt>
			<trkpt lat="54.650900" lon="21.700760"><ele>12.5</ele><time>2026-06-04T14:19:20Z</time></trkpt>
			<trkpt lat="54.650970" lon="21.699440"><ele>12.8</ele><time>2026-06-04T14:19:28Z</time></trkpt>
			<trkpt lat="54.651020" lon="21.698150"><ele>13.1</ele><time>2026-06-04T14:19:35Z</time></trkpt>
			<trkpt lat="54.650950" lon="21.697650"><ele>13.3</ele><time>2026-06-04T14:19:43Z</time></trkpt>
			<trkpt lat="54.650430" lon="21.695920"><ele>13.7</ele><time>2026-06-04T14:19:50Z</time></trkpt>
			<trkpt lat="54.650270" lon="21.695320"><ele>13.9</ele><time>2026-06-04T14:19:58Z</time></trkpt>
			<trkpt lat="54.650130" lon="21.694510"><ele>14.1</ele><time>2026-06-04T14:20:05Z</time></trkpt>
			<trkpt lat="54.649680" lon="21.690150"><ele>15.0</ele><time>2026-06-04T14:20:13Z</time></trkpt>
			<trkpt lat="54.649250" lon="21.685870"><ele>14.9</ele><time>2026-06-04T14:20:20Z</time></trkpt>
			<trkpt lat="54.649040" lon="21.684030"><ele>14.9</ele><time>2026-06-04T14:20:28Z</time></trkpt>
			<trkpt lat="54.648830" lon="21.683310"><ele>14.9</ele><time>2026-06-04T14:20:35Z</time></trkpt>
			<trkpt lat="54.648740" lon="21.682680"><ele>14.8</ele><time>2026-06-04T14:20:42Z</time></trkpt>
			<trkpt lat="54.648780" lon="21.682070"><ele>14.8</ele><time>2026-06-04T14:20:50Z</time></trkpt>
			<trkpt lat="54.648840" lon="21.681550"><ele>14.8</ele><time>2026-06-04T14:20:57Z</time></trkpt>
			<trkpt lat="54.648880" lon="21.681220"><ele>14.8</ele><time>2026-06-04T14:21:05Z</time></trkpt>
			<trkpt lat="54.648940" lon="21.680420"><ele>14.8</ele><time>2026-06-04T14:21:12Z</time></trkpt>
			<trkpt lat="54.649030" lon="21.679520"><ele>14.8</ele><time>2026-06-04T14:21:20Z</time></trkpt>
			<trkpt lat="54.649060" lon="21.679220"><ele>14.8</ele><time>2026-06-04T14:21:27Z</time></trkpt>
			<trkpt lat="54.649070" lon="21.678700"><ele>14.7</ele><time>2026-06-04T14:21:35Z</time></trkpt>
			<trkpt lat="54.648970" lon="21.676730"><ele>14.7</ele><time>2026-06-04T14:21:42Z</time></trkpt>
			<trkpt lat="54.648960" lon="21.676410"><ele>14.7</ele><time>2026-06-04T14:21:50Z</time></trkpt>
			<trkpt lat="54.648950" lon="21.676110"><ele>14.7</ele><time>2026-06-04T14:21:57Z</time></trkpt>
			<trkpt lat="54.648840" lon="21.675030"><ele>14.6</ele><time>2026-06-04T14:22:04Z</time></trkpt>
			<trkpt lat="54.648560" lon="21.672300"><ele>14.3</ele><time>2026-06-04T14:22:12Z</time></trkpt>
			<trkpt lat="54.648030" lon="21.667120"><ele>13.8</ele><time>2026-06-04T14:22:19Z</time></trkpt>
			<trkpt lat="54.648000" lon="21.666830"><ele>13.7</ele><time>2026-06-04T14:22:27Z</time></trkpt>
			<trkpt lat="54.647910" lon="21.666400"><ele>13.7</ele><time>2026-06-04T14:22:34Z</time></trkpt>
			<trkpt lat="54.647770" lon="21.665790"><ele>13.6</ele><time>2026-06-04T14:22:42Z</time></trkpt>
			<trkpt lat="54.645230" lon="21.656130"><ele>11.1</ele><time>2026-06-04T14:22:49Z</time></trkpt>
			<trkpt lat="54.644710" lon="21.654160"><ele>10.3</ele><time>2026-06-04T14:22:57Z</time></trkpt>
			<trkpt lat="54.643880" lon="21.650870"><ele>8.9</ele><time>2026-06-04T14:23:04Z</time></trkpt>
			<trkpt lat="54.643770" lon="21.650350"><ele>8.7</ele><time>2026-06-04T14:23:12Z</time></trkpt>
			<trkpt lat="54.643710" lon="21.649920"><ele>8.5</ele><time>2026-06-04T14:23:19Z</time></trkpt>
			<trkpt lat="54.643690" lon="21.649670"><ele>8.4</ele><time>2026-06-04T14:23:26Z</time></trkpt>
			<trkpt lat="54.643690" lon="21.649330"><ele>8.3</ele><time>2026-06-04T14:23:34Z</time></trkpt>
			<trkpt lat="54.643750" lon="21.646460"><ele>7.2</ele><time>2026-06-04T14:23:41Z</time></trkpt>
			<trkpt lat="54.643660" lon="21.644180"><ele>7.5</ele><time>2026-06-04T14:23:49Z</time></trkpt>
			<trkpt lat="54.643570" lon="21.642410"><ele>8.0</ele><time>2026-06-04T14:23:56Z</time></trkpt>
			<trkpt lat="54.643560" lon="21.641550"><ele>8.2</ele><time>2026-06-04T14:24:04Z</time></trkpt>
			<trkpt lat="54.643650" lon="21.640990"><ele>8.4</ele><time>2026-06-04T14:24:11Z</time></trkpt>
			<trkpt lat="54.643750" lon="21.640460"><ele>8.5</ele><time>2026-06-04T14:24:19Z</time></trkpt>
			<trkpt lat="54.643840" lon="21.639860"><ele>8.7</ele><time>2026-06-04T14:24:26Z</time></trkpt>
			<trkpt lat="54.643890" lon="21.639080"><ele>8.9</ele><time>2026-06-04T14:24:34Z</time></trkpt>
			<trkpt lat="54.643930" lon="21.637960"><ele>9.2</ele><time>2026-06-04T14:24:41Z</time></trkpt>
			<trkpt lat="54.643950" lon="21.636880"><ele>9.5</ele><time>2026-06-04T14:24:49Z</time></trkpt>
			<trkpt lat="54.644000" lon="21.636310"><ele>9.7</ele><time>2026-06-04T14:24:56Z</time></trkpt>
			<trkpt lat="54.644140" lon="21.635650"><ele>9.9</ele><time>2026-06-04T14:25:03Z</time></trkpt>
			<trkpt lat="54.644440" lon="21.634430"><ele>10.3</ele><time>2026-06-04T14:25:11Z</time></trkpt>
			<trkpt lat="54.645700" lon="21.629560"><ele>11.9</ele><time>2026-06-04T14:25:18Z</time></trkpt>
			<trkpt lat="54.647060" lon="21.624270"><ele>14.1</ele><time>2026-06-04T14:25:26Z</time></trkpt>
			<trkpt lat="54.647270" lon="21.623540"><ele>14.4</ele><time>2026-06-04T14:25:33Z</time></trkpt>
			<trkpt lat="54.647380" lon="21.622880"><ele>14.6</ele><time>2026-06-04T14:25:41Z</time></trkpt>
			<trkpt lat="54.647390" lon="21.622280"><ele>14.9</ele><time>2026-06-04T14:25:48Z</time></trkpt>
			<trkpt lat="54.647330" lon="21.619980"><ele>15.7</ele><time>2026-06-04T14:25:56Z</time></trkpt>
			<trkpt lat="54.647120" lon="21.614060"><ele>17.2</ele><time>2026-06-04T14:26:03Z</time></trkpt>
			<trkpt lat="54.647100" lon="21.613110"><ele>17.3</ele><time>2026-06-04T14:26:11Z</time></trkpt>
			<trkpt lat="54.647120" lon="21.612420"><ele>17.3</ele><time>2026-06-04T14:26:18Z</time></trkpt>
			<trkpt lat="54.647130" lon="21.612330"><ele>17.3</ele><time>2026-06-04T14:26:25Z</time></trkpt>
			<trkpt lat="54.647350" lon="21.611100"><ele>17.4</ele><time>2026-06-04T14:26:33Z</time></trkpt>
			<trkpt lat="54.647430" lon="21.610650"><ele>17.4</ele><time>2026-06-04T14:26:40Z</time></trkpt>
			<trkpt lat="54.647510" lon="21.610010"><ele>17.4</ele><time>2026-06-04T14:26:48Z</time></trkpt>
			<trkpt lat="54.647740" lon="21.606750"><ele>17.5</ele><time>2026-06-04T14:26:55Z</time></trkpt>
			<trkpt lat="54.647880" lon="21.605520"><ele>17.6</ele><time>2026-06-04T14:27:03Z</time></trkpt>
			<trkpt lat="54.648020" lon="21.604870"><ele>17.6</ele><time>2026-06-04T14:27:10Z</time></trkpt>
			<trkpt lat="54.648290" lon="21.604080"><ele>17.7</ele><time>2026-06-04T14:27:18Z</time></trkpt>
			<trkpt lat="54.648360" lon="21.603830"><ele>17.7</ele><time>2026-06-04T14:27:25Z</time></trkpt>
			<trkpt lat="54.648450" lon="21.603440"><ele>17.7</ele><time>2026-06-04T14:27:33Z</time></trkpt>
			<trkpt lat="54.648600" lon="21.602260"><ele>17.7</ele><time>2026-06-04T14:27:40Z</time></trkpt>
			<trkpt lat="54.648640" lon="21.601880"><ele>17.8</ele><time>2026-06-04T14:27:47Z</time></trkpt>
			<trkpt lat="54.648630" lon="21.601360"><ele>17.8</ele><time>2026-06-04T14:27:55Z</time></trkpt>
			<trkpt lat="54.648520" lon="21.600690"><ele>17.8</ele><time>2026-06-04T14:28:02Z</time></trkpt>
			<trkpt lat="54.648470" lon="21.600280"><ele>17.8</ele><time>2026-06-04T14:28:10Z</time></trkpt>
			<trkpt lat="54.648450" lon="21.599940"><ele>17.8</ele><time>2026-06-04T14:28:17Z</time></trkpt>
			<trkpt lat="54.648330" lon="21.598290"><ele>17.9</ele><time>2026-06-04T14:28:25Z</time></trkpt>
			<trkpt lat="54.648200" lon="21.595690"><ele>18.0</ele><time>2026-06-04T14:28:32Z</time></trkpt>
			<trkpt lat="54.648080" lon="21.591050"><ele>18.1</ele><time>2026-06-04T14:28:40Z</time></trkpt>
			<trkpt lat="54.647860" lon="21.581350"><ele>16.4</ele><time>2026-06-04T14:28:47Z</time></trkpt>
			<trkpt lat="54.647870" lon="21.580530"><ele>16.1</ele><time>2026-06-04T14:28:55Z</time></trkpt>
			<trkpt lat="54.648250" lon="21.576150"><ele>14.1</ele><time>2026-06-04T14:29:02Z</time></trkpt>
			<trkpt lat="54.648290" lon="21.575600"><ele>13.9</ele><time>2026-06-04T14:29:10Z</time></trkpt>
			<trkpt lat="54.648600" lon="21.571400"><ele>12.0</ele><time>2026-06-04T14:29:17Z</time></trkpt>
			<trkpt lat="54.648750" lon="21.569580"><ele>11.3</ele><time>2026-06-04T14:29:24Z</time></trkpt>
			<trkpt lat="54.648830" lon="21.569000"><ele>11.3</ele><time>2026-06-04T14:29:32Z</time></trkpt>
			<trkpt lat="54.648930" lon="21.568570"><ele>11.2</ele><time>2026-06-04T14:29:39Z</time></trkpt>
			<trkpt lat="54.649050" lon="21.568140"><ele>11.1</ele><time>2026-06-04T14:29:47Z</time></trkpt>
			<trkpt lat="54.649220" lon="21.567770"><ele>11.0</ele><time>2026-06-04T14:29:54Z</time></trkpt>
			<trkpt lat="54.649500" lon="21.567230"><ele>10.9</ele><time>2026-06-04T14:30:02Z</time></trkpt>
			<trkpt lat="54.650210" lon="21.565760"><ele>10.6</ele><time>2026-06-04T14:30:09Z</time></trkpt>
			<trkpt lat="54.651240" lon="21.563570"><ele>10.1</ele><time>2026-06-04T14:30:17Z</time></trkpt>
			<trkpt lat="54.651770" lon="21.562360"><ele>9.9</ele><time>2026-06-04T14:30:24Z</time></trkpt>
			<trkpt lat="54.652030" lon="21.561890"><ele>9.8</ele><time>2026-06-04T14:30:32Z</time></trkpt>
			<trkpt lat="54.652260" lon="21.561250"><ele>9.7</ele><time>2026-06-04T14:30:39Z</time></trkpt>
			<trkpt lat="54.652750" lon="21.559850"><ele>9.4</ele><time>2026-06-04T14:30:46Z</time></trkpt>
			<trkpt lat="54.652930" lon="21.559320"><ele>9.3</ele><time>2026-06-04T14:30:54Z</time></trkpt>
			<trkpt lat="54.653380" lon="21.557880"><ele>9.0</ele><time>2026-06-04T14:31:01Z</time></trkpt>
			<trkpt lat="54.653510" lon="21.557450"><ele>8.9</ele><time>2026-06-04T14:31:09Z</time></trkpt>
			<trkpt lat="54.653750" lon="21.556640"><ele>8.7</ele><time>2026-06-04T14:31:16Z</time></trkpt>
			<trkpt lat="54.654090" lon="21.555480"><ele>8.4</ele><time>2026-06-04T14:31:24Z</time></trkpt>
			<trkpt lat="54.654350" lon="21.554180"><ele>8.0</ele><time>2026-06-04T14:31:31Z</time></trkpt>
			<trkpt lat="54.654420" lon="21.553920"><ele>8.0</ele><time>2026-06-04T14:31:39Z</time></trkpt>
			<trkpt lat="54.654530" lon="21.553600"><ele>7.9</ele><time>2026-06-04T14:31:46Z</time></trkpt>
			<trkpt lat="54.654640" lon="21.553410"><ele>7.8</ele><time>2026-06-04T14:31:54Z</time></trkpt>
			<trkpt lat="54.654810" lon="21.553240"><ele>7.7</ele><time>2026-06-04T14:32:01Z</time></trkpt>
			<trkpt lat="54.655100" lon="21.553010"><ele>7.6</ele><time>2026-06-04T14:32:09Z</time></trkpt>
			<trkpt lat="54.655250" lon="21.552820"><ele>7.5</ele><time>2026-06-04T14:32:16Z</time></trkpt>
			<trkpt lat="54.655310" lon="21.552640"><ele>7.4</ele><time>2026-06-04T14:32:23Z</time></trkpt>
			<trkpt lat="54.655340" lon="21.552430"><ele>7.4</ele><time>2026-06-04T14:32:31Z</time></trkpt>
			<trkpt lat="54.655310" lon="21.552140"><ele>7.3</ele><time>2026-06-04T14:32:38Z</time></trkpt>
			<trkpt lat="54.655250" lon="21.550700"><ele>6.9</ele><time>2026-06-04T14:32:46Z</time></trkpt>
			<trkpt lat="54.655260" lon="21.549790"><ele>6.7</ele><time>2026-06-04T14:32:53Z</time></trkpt>
			<trkpt lat="54.655350" lon="21.548670"><ele>6.4</ele><time>2026-06-04T14:33:01Z</time></trkpt>
			<trkpt lat="54.655390" lon="21.548460"><ele>6.3</ele><time>2026-06-04T14:33:08Z</time></trkpt>
			<trkpt lat="54.655450" lon="21.548220"><ele>6.3</ele><time>2026-06-04T14:33:16Z</time></trkpt>
			<trkpt lat="54.655410" lon="21.548030"><ele>6.2</ele><time>2026-06-04T14:33:23Z</time></trkpt>
			<trkpt lat="54.655350" lon="21.547840"><ele>6.2</ele><time>2026-06-04T14:33:31Z</time></trkpt>
			<trkpt lat="54.655190" lon="21.547510"><ele>6.1</ele><time>2026-06-04T14:33:38Z</time></trkpt>
			<trkpt lat="54.654250" lon="21.546700"><ele>5.6</ele><time>2026-06-04T14:33:45Z</time></trkpt>
			<trkpt lat="54.652870" lon="21.546350"><ele>5.0</ele><time>2026-06-04T14:33:53Z</time></trkpt>
			<trkpt lat="54.651650" lon="21.545890"><ele>6.2</ele><time>2026-06-04T14:34:00Z</time></trkpt>
			<trkpt lat="54.651270" lon="21.545670"><ele>6.7</ele><time>2026-06-04T14:34:08Z</time></trkpt>
			<trkpt lat="54.648670" lon="21.543190"><ele>10.2</ele><time>2026-06-04T14:34:15Z</time></trkpt>
			<trkpt lat="54.647990" lon="21.542530"><ele>11.2</ele><time>2026-06-04T14:34:23Z</time></trkpt>
			<trkpt lat="54.647060" lon="21.540590"><ele>12.9</ele><time>2026-06-04T14:34:30Z</time></trkpt>
			<trkpt lat="54.645330" lon="21.536980"><ele>15.7</ele><time>2026-06-04T14:34:38Z</time></trkpt>
			<trkpt lat="54.643530" lon="21.533460"><ele>15.4</ele><time>2026-06-04T14:34:45Z</time></trkpt>
			<trkpt lat="54.642630" lon="21.532390"><ele>15.3</ele><time>2026-06-04T14:34:53Z</time></trkpt>
			<trkpt lat="54.640480" lon="21.530120"><ele>15.1</ele><time>2026-06-04T14:35:00Z</time></trkpt>
			<trkpt lat="54.640160" lon="21.529850"><ele>15.0</ele><time>2026-06-04T14:35:07Z</time></trkpt>
			<trkpt lat="54.639970" lon="21.529750"><ele>15.0</ele><time>2026-06-04T14:35:15Z</time></trkpt>
			<trkpt lat="54.639770" lon="21.529650"><ele>15.0</ele><time>2026-06-04T14:35:22Z</time></trkpt>
			<trkpt lat="54.639170" lon="21.529590"><ele>14.9</ele><time>2026-06-04T14:35:30Z</time></trkpt>
			<trkpt lat="54.638610" lon="21.529580"><ele>14.9</ele><time>2026-06-04T14:35:37Z</time></trkpt>
			<trkpt lat="54.636410" lon="21.529610"><ele>13.0</ele><time>2026-06-04T14:35:45Z</time></trkpt>
			<trkpt lat="54.635280" lon="21.529600"><ele>11.9</ele><time>2026-06-04T14:35:52Z</time></trkpt>
			<trkpt lat="54.634030" lon="21.529640"><ele>10.7</ele><time>2026-06-04T14:36:00Z</time></trkpt>
			<trkpt lat="54.632890" lon="21.529540"><ele>9.6</ele><time>2026-06-04T14:36:07Z</time></trkpt>
			<trkpt lat="54.629030" lon="21.529350"><ele>6.0</ele><time>2026-06-04T14:36:15Z</time></trkpt>
			<trkpt lat="54.629030" lon="21.529350"><ele>6.0</ele><time>2026-06-04T14:36:22Z</time></trkpt>
			<trkpt lat="54.627490" lon="21.529280"><ele>6.3</ele><time>2026-06-04T14:36:29Z</time></trkpt>
			<trkpt lat="54.626340" lon="21.529250"><ele>6.5</ele><time>2026-06-04T14:36:36Z</time></trkpt>
			<trkpt lat="54.626060" lon="21.529410"><ele>6.6</ele><time>2026-06-04T14:36:43Z</time></trkpt>
			<trkpt lat="54.625780" lon="21.529590"><ele>6.6</ele><time>2026-06-04T14:36:51Z</time></trkpt>
			<trkpt lat="54.625780" lon="21.529720"><ele>6.6</ele><time>2026-06-04T14:36:58Z</time></trkpt>
			<trkpt lat="54.625840" lon="21.530300"><ele>6.7</ele><time>2026-06-04T14:37:05Z</time></trkpt>
			<trkpt lat="54.625850" lon="21.530470"><ele>6.7</ele><time>2026-06-04T14:37:12Z</time></trkpt>
			<trkpt lat="54.625830" lon="21.530740"><ele>6.8</ele><time>2026-06-04T14:37:19Z</time></trkpt>
			<trkpt lat="54.625390" lon="21.534480"><ele>7.1</ele><time>2026-06-04T14:37:27Z</time></trkpt>
			<trkpt lat="54.625170" lon="21.536430"><ele>7.4</ele><time>2026-06-04T14:37:34Z</time></trkpt>
			<trkpt lat="54.625100" lon="21.537300"><ele>7.4</ele><time>2026-06-04T14:37:41Z</time></trkpt>
			<trkpt lat="54.625020" lon="21.538440"><ele>7.6</ele><time>2026-06-04T14:37:48Z</time></trkpt>
			<trkpt lat="54.624940" lon="21.541050"><ele>9.8</ele><time>2026-06-04T14:37:55Z</time></trkpt>
			<trkpt lat="54.624900" lon="21.541460"><ele>10.3</ele><time>2026-06-04T14:38:03Z</time></trkpt>
			<trkpt lat="54.624850" lon="21.541810"><ele>10.6</ele><time>2026-06-04T14:38:10Z</time></trkpt>
			<trkpt lat="54.624780" lon="21.542150"><ele>11.0</ele><time>2026-06-04T14:38:17Z</time></trkpt>
			<trkpt lat="54.624720" lon="21.542350"><ele>11.2</ele><time>2026-06-04T14:38:24Z</time></trkpt>
			<trkpt lat="54.624330" lon="21.543560"><ele>12.7</ele><time>2026-06-04T14:38:31Z</time></trkpt>
			<trkpt lat="54.623870" lon="21.544860"><ele>14.3</ele><time>2026-06-04T14:38:39Z</time></trkpt>
			<trkpt lat="54.623720" lon="21.545390"><ele>14.9</ele><time>2026-06-04T14:38:46Z</time></trkpt>
			<trkpt lat="54.623650" lon="21.545660"><ele>15.2</ele><time>2026-06-04T14:38:53Z</time></trkpt>
			<trkpt lat="54.623570" lon="21.546080"><ele>15.6</ele><time>2026-06-04T14:39:00Z</time></trkpt>
			<trkpt lat="54.623510" lon="21.546900"><ele>16.5</ele><time>2026-06-04T14:39:07Z</time></trkpt>
			<trkpt lat="54.623530" lon="21.548810"><ele>18.5</ele><time>2026-06-04T14:39:14Z</time></trkpt>
			<trkpt lat="54.623540" lon="21.552350"><ele>22.1</ele><time>2026-06-04T14:39:22Z</time></trkpt>
			<trkpt lat="54.623550" lon="21.553600"><ele>23.4</ele><time>2026-06-04T14:39:29Z</time></trkpt>
			<trkpt lat="54.623790" lon="21.570240"><ele>18.6</ele><time>2026-06-04T14:39:36Z</time></trkpt>
			<trkpt lat="54.623820" lon="21.573280"><ele>20.0</ele><time>2026-06-04T14:39:43Z</time></trkpt>
			<trkpt lat="54.623850" lon="21.574970"><ele>20.8</ele><time>2026-06-04T14:39:50Z</time></trkpt>
			<trkpt lat="54.623860" lon="21.577410"><ele>21.9</ele><time>2026-06-04T14:39:58Z</time></trkpt>
			<trkpt lat="54.623510" lon="21.577360"><ele>22.2</ele><time>2026-06-04T14:40:05Z</time></trkpt>
			<trkpt lat="54.623290" lon="21.577380"><ele>22.4</ele><time>2026-06-04T14:40:12Z</time></trkpt>
			<trkpt lat="54.623030" lon="21.577430"><ele>22.6</ele><time>2026-06-04T14:40:19Z</time></trkpt>
			<trkpt lat="54.622770" lon="21.577560"><ele>22.8</ele><time>2026-06-04T14:40:26Z</time></trkpt>
			<trkpt lat="54.622340" lon="21.577760"><ele>23.2</ele><time>2026-06-04T14:40:34Z</time></trkpt>
			<trkpt lat="54.622240" lon="21.577800"><ele>23.3</ele><time>2026-06-04T14:40:41Z</time></trkpt>
			<trkpt lat="54.620230" lon="21.577940"><ele>24.9</ele><time>2026-06-04T14:40:48Z</time></trkpt>
			<trkpt lat="54.618090" lon="21.577980"><ele>26.1</ele><time>2026-06-04T14:40:55Z</time></trkpt>
			<trkpt lat="54.615220" lon="21.578190"><ele>27.4</ele><time>2026-06-04T14:41:02Z</time></trkpt>
			<trkpt lat="54.615050" lon="21.578180"><ele>27.5</ele><time>2026-06-04T14:41:10Z</time></trkpt>
			<trkpt lat="54.614690" lon="21.578230"><ele>27.6</ele><time>2026-06-04T14:41:17Z</time></trkpt>
			<trkpt lat="54.614520" lon="21.578310"><ele>27.7</ele><time>2026-06-04T14:41:24Z</time></trkpt>
			<trkpt lat="54.614310" lon="21.578520"><ele>27.8</ele><time>2026-06-04T14:41:31Z</time></trkpt>
			<trkpt lat="54.613040" lon="21.580510"><ele>28.6</ele><time>2026-06-04T14:41:38Z</time></trkpt>
			<trkpt lat="54.609800" lon="21.584160"><ele>29.2</ele><time>2026-06-04T14:41:46Z</time></trkpt>
			<trkpt lat="54.608790" lon="21.585280"><ele>29.0</ele><time>2026-06-04T14:41:53Z</time></trkpt>
			<trkpt lat="54.608790" lon="21.585280"><ele>29.0</ele><time>2026-06-04T14:42:03Z</time></trkpt>
			<trkpt lat="54.606640" lon="21.587650"><ele>28.5</ele><time>2026-06-04T14:42:12Z</time></trkpt>
			<trkpt lat="54.601460" lon="21.596620"><ele>30.1</ele><time>2026-06-04T14:42:22Z</time></trkpt>
			<trkpt lat="54.601060" lon="21.597250"><ele>30.4</ele><time>2026-06-04T14:42:32Z</time></trkpt>
			<trkpt lat="54.600180" lon="21.597900"><ele>31.0</ele><time>2026-06-04T14:42:42Z</time></trkpt>
			<trkpt lat="54.598690" lon="21.598910"><ele>31.9</ele><time>2026-06-04T14:42:52Z</time></trkpt>
			<trkpt lat="54.598300" lon="21.599210"><ele>32.1</ele><time>2026-06-04T14:43:02Z</time></trkpt>
			<trkpt lat="54.598120" lon="21.599440"><ele>32.3</ele><time>2026-06-04T14:43:11Z</time></trkpt>
			<trkpt lat="54.597880" lon="21.600110"><ele>32.5</ele><time>2026-06-04T14:43:21Z</time></trkpt>
			<trkpt lat="54.597210" lon="21.601760"><ele>32.8</ele><time>2026-06-04T14:43:31Z</time></trkpt>
			<trkpt lat="54.596930" lon="21.602300"><ele>32.5</ele><time>2026-06-04T14:43:41Z</time></trkpt>
			<trkpt lat="54.596620" lon="21.602750"><ele>32.1</ele><time>2026-06-04T14:43:51Z</time></trkpt>
			<trkpt lat="54.595430" lon="21.604550"><ele>30.9</ele><time>2026-06-04T14:44:00Z</time></trkpt>
			<trkpt lat="54.594670" lon="21.605310"><ele>30.3</ele><time>2026-06-04T14:44:10Z</time></trkpt>
			<trkpt lat="54.594400" lon="21.605380"><ele>30.1</ele><time>2026-06-04T14:44:20Z</time></trkpt>
			<trkpt lat="54.593910" lon="21.605160"><ele>29.7</ele><time>2026-06-04T14:44:30Z</time></trkpt>
			<trkpt lat="54.593690" lon="21.605110"><ele>29.5</ele><time>2026-06-04T14:44:40Z</time></trkpt>
			<trkpt lat="54.592020" lon="21.605530"><ele>28.2</ele><time>2026-06-04T14:44:50Z</time></trkpt>
			<trkpt lat="54.591870" lon="21.605530"><ele>28.1</ele><time>2026-06-04T14:44:59Z</time></trkpt>
			<trkpt lat="54.591590" lon="21.605500"><ele>27.9</ele><time>2026-06-04T14:45:09Z</time></trkpt>
			<trkpt lat="54.590930" lon="21.605260"><ele>27.4</ele><time>2026-06-04T14:45:19Z</time></trkpt>
			<trkpt lat="54.589560" lon="21.604800"><ele>26.3</ele><time>2026-06-04T14:45:29Z</time></trkpt>
			<trkpt lat="54.589390" lon="21.604750"><ele>26.2</ele><time>2026-06-04T14:45:39Z</time></trkpt>
			<trkpt lat="54.589120" lon="21.604710"><ele>26.7</ele><time>2026-06-04T14:45:49Z</time></trkpt>
			<trkpt lat="54.587020" lon="21.604820"><ele>31.6</ele><time>2026-06-04T14:45:58Z</time></trkpt>
			<trkpt lat="54.586280" lon="21.604430"><ele>33.5</ele><time>2026-06-04T14:46:08Z</time></trkpt>
			<trkpt lat="54.585720" lon="21.604590"><ele>34.8</ele><time>2026-06-04T14:46:18Z</time></trkpt>
			<trkpt lat="54.585100" lon="21.604800"><ele>36.3</ele><time>2026-06-04T14:46:28Z</time></trkpt>
			<trkpt lat="54.584750" lon="21.604790"><ele>37.1</ele><time>2026-06-04T14:46:38Z</time></trkpt>
			<trkpt lat="54.584510" lon="21.604600"><ele>37.7</ele><time>2026-06-04T14:46:47Z</time></trkpt>
			<trkpt lat="54.584300" lon="21.603780"><ele>39.0</ele><time>2026-06-04T14:46:57Z</time></trkpt>
			<trkpt lat="54.583600" lon="21.603900"><ele>40.6</ele><time>2026-06-04T14:47:07Z</time></trkpt>
			<trkpt lat="54.581980" lon="21.604180"><ele>44.4</ele><time>2026-06-04T14:47:17Z</time></trkpt>
			<trkpt lat="54.581530" lon="21.604260"><ele>45.5</ele><time>2026-06-04T14:47:27Z</time></trkpt>
			<trkpt lat="54.578990" lon="21.605430"><ele>44.5</ele><time>2026-06-04T14:47:37Z</time></trkpt>
			<trkpt lat="54.578590" lon="21.605720"><ele>43.8</ele><time>2026-06-04T14:47:46Z</time></trkpt>
			<trkpt lat="54.577130" lon="21.607290"><ele>41.2</ele><time>2026-06-04T14:47:56Z</time></trkpt>
			<trkpt lat="54.573680" lon="21.611220"><ele>34.9</ele><time>2026-06-04T14:48:06Z</time></trkpt>
			<trkpt lat="54.571810" lon="21.613170"><ele>34.7</ele><time>2026-06-04T14:48:16Z</time></trkpt>
			<trkpt lat="54.570600" lon="21.614560"><ele>35.8</ele><time>2026-06-04T14:48:26Z</time></trkpt>
			<trkpt lat="54.569920" lon="21.615270"><ele>36.4</ele><time>2026-06-04T14:48:35Z</time></trkpt>
			<trkpt lat="54.569030" lon="21.618530"><ele>38.1</ele><time>2026-06-04T14:48:45Z</time></trkpt>
			<trkpt lat="54.568380" lon="21.620890"><ele>39.3</ele><time>2026-06-04T14:48:55Z</time></trkpt>
			<trkpt lat="54.567150" lon="21.625310"><ele>39.7</ele><time>2026-06-04T14:49:05Z</time></trkpt>
			<trkpt lat="54.566340" lon="21.628350"><ele>37.8</ele><time>2026-06-04T14:49:15Z</time></trkpt>
			<trkpt lat="54.565980" lon="21.629770"><ele>36.9</ele><time>2026-06-04T14:49:25Z</time></trkpt>
			<trkpt lat="54.565040" lon="21.635340"><ele>33.7</ele><time>2026-06-04T14:49:34Z</time></trkpt>
			<trkpt lat="54.563400" lon="21.644850"><ele>35.0</ele><time>2026-06-04T14:49:44Z</time></trkpt>
			<trkpt lat="54.563090" lon="21.646070"><ele>35.6</ele><time>2026-06-04T14:49:54Z</time></trkpt>
			<trkpt lat="54.562460" lon="21.647090"><ele>36.3</ele><time>2026-06-04T14:50:04Z</time></trkpt>
			<trkpt lat="54.562020" lon="21.647950"><ele>36.8</ele><time>2026-06-04T14:50:14Z</time></trkpt>
			<trkpt lat="54.561600" lon="21.648440"><ele>37.2</ele><time>2026-06-04T14:50:24Z</time></trkpt>
			<trkpt lat="54.560980" lon="21.648980"><ele>37.7</ele><time>2026-06-04T14:50:33Z</time></trkpt>
			<trkpt lat="54.559390" lon="21.651790"><ele>38.4</ele><time>2026-06-04T14:50:43Z</time></trkpt>
			<trkpt lat="54.556070" lon="21.657890"><ele>35.5</ele><time>2026-06-04T14:50:53Z</time></trkpt>
			<trkpt lat="54.555630" lon="21.657760"><ele>35.2</ele><time>2026-06-04T14:51:03Z</time></trkpt>
			<trkpt lat="54.554870" lon="21.657390"><ele>34.7</ele><time>2026-06-04T14:51:13Z</time></trkpt>
			<trkpt lat="54.554700" lon="21.657390"><ele>34.6</ele><time>2026-06-04T14:51:22Z</time></trkpt>
			<trkpt lat="54.554480" lon="21.657470"><ele>34.5</ele><time>2026-06-04T14:51:32Z</time></trkpt>
			<trkpt lat="54.554260" lon="21.657680"><ele>34.3</ele><time>2026-06-04T14:51:42Z</time></trkpt>
			<trkpt lat="54.553960" lon="21.658080"><ele>34.1</ele><time>2026-06-04T14:51:52Z</time></trkpt>
			<trkpt lat="54.553830" lon="21.658300"><ele>34.0</ele><time>2026-06-04T14:52:02Z</time></trkpt>
			<trkpt lat="54.553630" lon="21.658620"><ele>33.8</ele><time>2026-06-04T14:52:12Z</time></trkpt>
			<trkpt lat="54.553250" lon="21.659290"><ele>33.5</ele><time>2026-06-04T14:52:21Z</time></trkpt>
			<trkpt lat="54.551490" lon="21.664110"><ele>31.8</ele><time>2026-06-04T14:52:31Z</time></trkpt>
			<trkpt lat="54.550490" lon="21.666820"><ele>30.8</ele><time>2026-06-04T14:52:41Z</time></trkpt>
			<trkpt lat="54.547760" lon="21.674310"><ele>29.2</ele><time>2026-06-04T14:52:51Z</time></trkpt>
			<trkpt lat="54.547000" lon="21.676420"><ele>29.7</ele><time>2026-06-04T14:53:01Z</time></trkpt>
			<trkpt lat="54.546920" lon="21.677130"><ele>29.8</ele><time>2026-06-04T14:53:10Z</time></trkpt>
			<trkpt lat="54.546900" lon="21.677900"><ele>29.9</ele><time>2026-06-04T14:53:20Z</time></trkpt>
			<trkpt lat="54.547160" lon="21.681460"><ele>30.6</ele><time>2026-06-04T14:53:30Z</time></trkpt>
			<trkpt lat="54.547800" lon="21.689250"><ele>32.1</ele><time>2026-06-04T14:53:40Z</time></trkpt>
			<trkpt lat="54.547880" lon="21.689990"><ele>32.2</ele><time>2026-06-04T14:53:50Z</time></trkpt>
			<trkpt lat="54.549660" lon="21.698360"><ele>34.0</ele><time>2026-06-04T14:54:00Z</time></trkpt>
			<trkpt lat="54.550210" lon="21.701180"><ele>34.6</ele><time>2026-06-04T14:54:09Z</time></trkpt>
			<trkpt lat="54.550510" lon="21.702700"><ele>34.7</ele><time>2026-06-04T14:54:19Z</time></trkpt>
			<trkpt lat="54.551960" lon="21.709280"><ele>34.2</ele><time>2026-06-04T14:54:29Z</time></trkpt>
			<trkpt lat="54.552950" lon="21.713690"><ele>33.9</ele><time>2026-06-04T14:54:39Z</time></trkpt>
			<trkpt lat="54.553050" lon="21.714230"><ele>33.9</ele><time>2026-06-04T14:54:49Z</time></trkpt>
			<trkpt lat="54.553070" lon="21.715050"><ele>33.8</ele><time>2026-06-04T14:54:59Z</time></trkpt>
			<trkpt lat="54.553060" lon="21.715360"><ele>33.8</ele><time>2026-06-04T14:55:08Z</time></trkpt>
			<trkpt lat="54.553050" lon="21.715490"><ele>33.8</ele><time>2026-06-04T14:55:18Z</time></trkpt>
			<trkpt lat="54.553020" lon="21.715610"><ele>33.8</ele><time>2026-06-04T14:55:28Z</time></trkpt>
			<trkpt lat="54.552990" lon="21.715700"><ele>33.8</ele><time>2026-06-04T14:55:38Z</time></trkpt>
			<trkpt lat="54.552930" lon="21.715760"><ele>33.8</ele><time>2026-06-04T14:55:48Z</time></trkpt>
			<trkpt lat="54.551750" lon="21.716670"><ele>34.0</ele><time>2026-06-04T14:55:57Z</time></trkpt>
			<trkpt lat="54.551630" lon="21.716810"><ele>34.0</ele><time>2026-06-04T14:56:07Z</time></trkpt>
			<trkpt lat="54.551070" lon="21.717780"><ele>34.3</ele><time>2026-06-04T14:56:17Z</time></trkpt>
			<trkpt lat="54.548630" lon="21.721770"><ele>35.5</ele><time>2026-06-04T14:56:27Z</time></trkpt>
			<trkpt lat="54.545570" lon="21.726540"><ele>36.9</ele><time>2026-06-04T14:56:37Z</time></trkpt>
			<trkpt lat="54.545150" lon="21.727000"><ele>36.9</ele><time>2026-06-04T14:56:47Z</time></trkpt>
			<trkpt lat="54.545000" lon="21.727210"><ele>36.8</ele><time>2026-06-04T14:56:56Z</time></trkpt>
			<trkpt lat="54.544870" lon="21.727420"><ele>36.8</ele><time>2026-06-04T14:57:06Z</time></trkpt>
			<trkpt lat="54.544670" lon="21.727880"><ele>36.8</ele><time>2026-06-04T14:57:16Z</time></trkpt>
			<trkpt lat="54.544430" lon="21.728460"><ele>36.8</ele><time>2026-06-04T14:57:26Z</time></trkpt>
			<trkpt lat="54.544290" lon="21.728770"><ele>36.8</ele><time>2026-06-04T14:57:36Z</time></trkpt>
			<trkpt lat="54.543960" lon="21.729480"><ele>36.8</ele><time>2026-06-04T14:57:45Z</time></trkpt>
			<trkpt lat="54.543810" lon="21.729790"><ele>36.8</ele><time>2026-06-04T14:57:55Z</time></trkpt>
			<trkpt lat="54.543550" lon="21.730350"><ele>36.8</ele><time>2026-06-04T14:58:05Z</time></trkpt>
			<trkpt lat="54.543380" lon="21.730700"><ele>36.7</ele><time>2026-06-04T14:58:15Z</time></trkpt>
			<trkpt lat="54.543190" lon="21.731160"><ele>36.7</ele><time>2026-06-04T14:58:25Z</time></trkpt>
			<trkpt lat="54.543020" lon="21.731640"><ele>36.7</ele><time>2026-06-04T14:58:35Z</time></trkpt>
			<trkpt lat="54.542710" lon="21.733030"><ele>36.7</ele><time>2026-06-04T14:58:44Z</time></trkpt>
			<trkpt lat="54.542440" lon="21.734260"><ele>36.7</ele><time>2026-06-04T14:58:54Z</time></trkpt>
			<trkpt lat="54.542140" lon="21.735790"><ele>36.6</ele><time>2026-06-04T14:59:04Z</time></trkpt>
			<trkpt lat="54.541740" lon="21.737560"><ele>36.6</ele><time>2026-06-04T14:59:14Z</time></trkpt>
			<trkpt lat="54.541160" lon="21.740020"><ele>36.7</ele><time>2026-06-04T14:59:24Z</time></trkpt>
			<trkpt lat="54.540880" lon="21.741050"><ele>37.0</ele><time>2026-06-04T14:59:34Z</time></trkpt>
			<trkpt lat="54.540460" lon="21.742420"><ele>37.4</ele><time>2026-06-04T14:59:43Z</time></trkpt>
			<trkpt lat="54.540260" lon="21.743100"><ele>37.6</ele><time>2026-06-04T14:59:53Z</time></trkpt>
			<trkpt lat="54.539840" lon="21.744500"><ele>38.0</ele><time>2026-06-04T15:00:03Z</time></trkpt>
			<trkpt lat="54.539460" lon="21.744970"><ele>38.2</ele><time>2026-06-04T15:00:13Z</time></trkpt>
			<trkpt lat="54.539030" lon="21.745460"><ele>38.5</ele><time>2026-06-04T15:00:23Z</time></trkpt>
			<trkpt lat="54.538760" lon="21.745640"><ele>38.6</ele><time>2026-06-04T15:00:32Z</time></trkpt>
			<trkpt lat="54.537840" lon="21.746040"><ele>39.0</ele><time>2026-06-04T15:00:42Z</time></trkpt>
			<trkpt lat="54.535090" lon="21.747150"><ele>40.3</ele><time>2026-06-04T15:00:52Z</time></trkpt>
			<trkpt lat="54.532240" lon="21.748230"><ele>39.7</ele><time>2026-06-04T15:01:02Z</time></trkpt>
			<trkpt lat="54.531780" lon="21.748370"><ele>39.5</ele><time>2026-06-04T15:01:12Z</time></trkpt>
			<trkpt lat="54.531340" lon="21.748490"><ele>39.3</ele><time>2026-06-04T15:01:22Z</time></trkpt>
			<trkpt lat="54.531070" lon="21.748480"><ele>39.2</ele><time>2026-06-04T15:01:31Z</time></trkpt>
			<trkpt lat="54.530000" lon="21.748420"><ele>38.7</ele><time>2026-06-04T15:01:41Z</time></trkpt>
			<trkpt lat="54.528630" lon="21.748480"><ele>38.2</ele><time>2026-06-04T15:01:51Z</time></trkpt>
			<trkpt lat="54.528420" lon="21.748490"><ele>38.1</ele><time>2026-06-04T15:02:01Z</time></trkpt>
			<trkpt lat="54.527820" lon="21.748510"><ele>37.8</ele><time>2026-06-04T15:02:11Z</time></trkpt>
			<trkpt lat="54.527390" lon="21.748720"><ele>37.6</ele><time>2026-06-04T15:02:20Z</time></trkpt>
			<trkpt lat="54.526470" lon="21.750070"><ele>37.1</ele><time>2026-06-04T15:02:30Z</time></trkpt>
			<trkpt lat="54.523350" lon="21.755060"><ele>38.5</ele><time>2026-06-04T15:02:40Z</time></trkpt>
			<trkpt lat="54.522950" lon="21.755490"><ele>38.7</ele><time>2026-06-04T15:02:50Z</time></trkpt>
			<trkpt lat="54.520400" lon="21.757660"><ele>40.0</ele><time>2026-06-04T15:03:00Z</time></trkpt>
			<trkpt lat="54.517210" lon="21.760340"><ele>41.1</ele><time>2026-06-04T15:03:10Z</time></trkpt>
			<trkpt lat="54.517020" lon="21.760680"><ele>41.1</ele><time>2026-06-04T15:03:19Z</time></trkpt>
			<trkpt lat="54.516620" lon="21.761950"><ele>41.2</ele><time>2026-06-04T15:03:29Z</time></trkpt>
			<trkpt lat="54.516270" lon="21.763380"><ele>41.3</ele><time>2026-06-04T15:03:39Z</time></trkpt>
			<trkpt lat="54.515880" lon="21.765460"><ele>41.5</ele><time>2026-06-04T15:03:49Z</time></trkpt>
			<trkpt lat="54.515660" lon="21.766470"><ele>41.6</ele><time>2026-06-04T15:03:59Z</time></trkpt>
			<trkpt lat="54.515370" lon="21.767340"><ele>41.6</ele><time>2026-06-04T15:04:09Z</time></trkpt>
			<trkpt lat="54.514710" lon="21.769060"><ele>41.8</ele><time>2026-06-04T15:04:18Z</time></trkpt>
			<trkpt lat="54.513860" lon="21.771480"><ele>42.0</ele><time>2026-06-04T15:04:28Z</time></trkpt>
			<trkpt lat="54.512950" lon="21.773260"><ele>41.6</ele><time>2026-06-04T15:04:38Z</time></trkpt>
			<trkpt lat="54.512800" lon="21.773440"><ele>41.5</ele><time>2026-06-04T15:04:48Z</time></trkpt>
			<trkpt lat="54.510360" lon="21.776620"><ele>40.5</ele><time>2026-06-04T15:04:58Z</time></trkpt>
			<trkpt lat="54.510360" lon="21.776620"><ele>40.5</ele><time>2026-06-04T15:05:10Z</time></trkpt>
			<trkpt lat="54.507840" lon="21.779900"><ele>39.3</ele><time>2026-06-04T15:05:22Z</time></trkpt>
			<trkpt lat="54.507360" lon="21.780580"><ele>39.1</ele><time>2026-06-04T15:05:34Z</time></trkpt>
			<trkpt lat="54.507230" lon="21.780770"><ele>39.1</ele><time>2026-06-04T15:05:47Z</time></trkpt>
			<trkpt lat="54.505850" lon="21.782730"><ele>39.4</ele><time>2026-06-04T15:05:59Z</time></trkpt>
			<trkpt lat="54.504870" lon="21.783500"><ele>40.0</ele><time>2026-06-04T15:06:11Z</time></trkpt>
			<trkpt lat="54.503330" lon="21.784240"><ele>40.8</ele><time>2026-06-04T15:06:23Z</time></trkpt>
			<trkpt lat="54.502500" lon="21.784960"><ele>41.3</ele><time>2026-06-04T15:06:36Z</time></trkpt>
			<trkpt lat="54.501720" lon="21.786180"><ele>41.9</ele><time>2026-06-04T15:06:48Z</time></trkpt>
			<trkpt lat="54.501100" lon="21.787620"><ele>42.4</ele><time>2026-06-04T15:07:00Z</time></trkpt>
			<trkpt lat="54.500490" lon="21.789280"><ele>43.0</ele><time>2026-06-04T15:07:12Z</time></trkpt>
			<trkpt lat="54.499630" lon="21.791460"><ele>43.4</ele><time>2026-06-04T15:07:25Z</time></trkpt>
			<trkpt lat="54.499560" lon="21.791750"><ele>43.3</ele><time>2026-06-04T15:07:37Z</time></trkpt>
			<trkpt lat="54.499400" lon="21.792650"><ele>43.2</ele><time>2026-06-04T15:07:49Z</time></trkpt>
			<trkpt lat="54.499180" lon="21.794100"><ele>43.0</ele><time>2026-06-04T15:08:01Z</time></trkpt>
			<trkpt lat="54.498920" lon="21.795760"><ele>42.7</ele><time>2026-06-04T15:08:14Z</time></trkpt>
			<trkpt lat="54.498820" lon="21.796200"><ele>42.6</ele><time>2026-06-04T15:08:26Z</time></trkpt>
			<trkpt lat="54.498700" lon="21.796590"><ele>42.6</ele><time>2026-06-04T15:08:38Z</time></trkpt>
			<trkpt lat="54.498550" lon="21.796970"><ele>42.5</ele><time>2026-06-04T15:08:50Z</time></trkpt>
			<trkpt lat="54.498370" lon="21.797330"><ele>42.4</ele><time>2026-06-04T15:09:03Z</time></trkpt>
			<trkpt lat="54.496960" lon="21.799840"><ele>41.9</ele><time>2026-06-04T15:09:15Z</time></trkpt>
			<trkpt lat="54.495890" lon="21.801730"><ele>41.5</ele><time>2026-06-04T15:09:27Z</time></trkpt>
			<trkpt lat="54.495710" lon="21.802040"><ele>41.4</ele><time>2026-06-04T15:09:39Z</time></trkpt>
			<trkpt lat="54.495510" lon="21.802320"><ele>41.4</ele><time>2026-06-04T15:09:52Z</time></trkpt>
			<trkpt lat="54.495200" lon="21.802720"><ele>41.3</ele><time>2026-06-04T15:10:04Z</time></trkpt>
			<trkpt lat="54.494590" lon="21.803340"><ele>41.3</ele><time>2026-06-04T15:10:16Z</time></trkpt>
			<trkpt lat="54.493270" lon="21.804310"><ele>41.9</ele><time>2026-06-04T15:10:28Z</time></trkpt>
			<trkpt lat="54.490850" lon="21.804650"><ele>43.0</ele><time>2026-06-04T15:10:41Z</time></trkpt>
			<trkpt lat="54.485630" lon="21.805070"><ele>45.0</ele><time>2026-06-04T15:10:53Z</time></trkpt>
			<trkpt lat="54.484690" lon="21.805490"><ele>45.1</ele><time>2026-06-04T15:11:05Z</time></trkpt>
			<trkpt lat="54.481410" lon="21.808180"><ele>45.4</ele><time>2026-06-04T15:11:17Z</time></trkpt>
			<trkpt lat="54.479200" lon="21.810030"><ele>45.6</ele><time>2026-06-04T15:11:30Z</time></trkpt>
			<trkpt lat="54.476480" lon="21.813400"><ele>49.0</ele><time>2026-06-04T15:11:42Z</time></trkpt>
			<trkpt lat="54.476000" lon="21.814140"><ele>50.1</ele><time>2026-06-04T15:11:54Z</time></trkpt>
			<trkpt lat="54.475750" lon="21.814510"><ele>50.7</ele><time>2026-06-04T15:12:06Z</time></trkpt>
			<trkpt lat="54.474620" lon="21.815310"><ele>52.8</ele><time>2026-06-04T15:12:19Z</time></trkpt>
			<trkpt lat="54.474820" lon="21.817130"><ele>54.6</ele><time>2026-06-04T15:12:31Z</time></trkpt>
			<trkpt lat="54.474040" lon="21.817870"><ele>56.1</ele><time>2026-06-04T15:12:43Z</time></trkpt>
			<trkpt lat="54.473240" lon="21.818520"><ele>57.7</ele><time>2026-06-04T15:12:56Z</time></trkpt>
			<trkpt lat="54.469330" lon="21.822470"><ele>63.2</ele><time>2026-06-04T15:13:08Z</time></trkpt>
			<trkpt lat="54.468680" lon="21.823120"><ele>63.7</ele><time>2026-06-04T15:13:20Z</time></trkpt>
			<trkpt lat="54.467940" lon="21.823550"><ele>64.4</ele><time>2026-06-04T15:13:32Z</time></trkpt>
			<trkpt lat="54.465870" lon="21.824530"><ele>66.0</ele><time>2026-06-04T15:13:45Z</time></trkpt>
			<trkpt lat="54.468640" lon="21.832970"><ele>67.3</ele><time>2026-06-04T15:13:57Z</time></trkpt>
			<trkpt lat="54.470020" lon="21.837150"><ele>66.4</ele><time>2026-06-04T15:14:09Z</time></trkpt>
			<trkpt lat="54.471290" lon="21.841170"><ele>65.5</ele><time>2026-06-04T15:14:21Z</time></trkpt>
			<trkpt lat="54.472370" lon="21.844170"><ele>65.9</ele><time>2026-06-04T15:14:34Z</time></trkpt>
			<trkpt lat="54.475020" lon="21.847750"><ele>67.6</ele><time>2026-06-04T15:14:46Z</time></trkpt>
			<trkpt lat="54.481630" lon="21.856740"><ele>69.4</ele><time>2026-06-04T15:14:58Z</time></trkpt>
			<trkpt lat="54.482430" lon="21.857790"><ele>69.3</ele><time>2026-06-04T15:15:10Z</time></trkpt>
			<trkpt lat="54.483210" lon="21.858880"><ele>69.2</ele><time>2026-06-04T15:15:23Z</time></trkpt>
			<trkpt lat="54.483370" lon="21.859140"><ele>69.2</ele><time>2026-06-04T15:15:35Z</time></trkpt>
			<trkpt lat="54.483520" lon="21.859420"><ele>69.1</ele><time>2026-06-04T15:15:47Z</time></trkpt>
			<trkpt lat="54.483880" lon="21.860230"><ele>69.1</ele><time>2026-06-04T15:15:59Z</time></trkpt>
			<trkpt lat="54.484170" lon="21.860950"><ele>69.0</ele><time>2026-06-04T15:16:12Z</time></trkpt>
			<trkpt lat="54.484290" lon="21.861250"><ele>69.0</ele><time>2026-06-04T15:16:24Z</time></trkpt>
			<trkpt lat="54.484510" lon="21.862040"><ele>69.0</ele><time>2026-06-04T15:16:36Z</time></trkpt>
			<trkpt lat="54.484830" lon="21.863320"><ele>69.0</ele><time>2026-06-04T15:16:48Z</time></trkpt>
			<trkpt lat="54.486290" lon="21.869170"><ele>70.4</ele><time>2026-06-04T15:17:01Z</time></trkpt>
			<trkpt lat="54.487730" lon="21.874100"><ele>71.7</ele><time>2026-06-04T15:17:13Z</time></trkpt>
			<trkpt lat="54.490120" lon="21.882120"><ele>72.6</ele><time>2026-06-04T15:17:25Z</time></trkpt>
			<trkpt lat="54.492360" lon="21.889670"><ele>72.7</ele><time>2026-06-04T15:17:37Z</time></trkpt>
			<trkpt lat="54.492410" lon="21.889890"><ele>72.7</ele><time>2026-06-04T15:17:50Z</time></trkpt>
			<trkpt lat="54.490240" lon="21.890660"><ele>73.5</ele><time>2026-06-04T15:18:02Z</time></trkpt>
			<trkpt lat="54.489960" lon="21.890850"><ele>73.6</ele><time>2026-06-04T15:18:14Z</time></trkpt>
			<trkpt lat="54.489480" lon="21.891310"><ele>73.9</ele><time>2026-06-04T15:18:26Z</time></trkpt>
			<trkpt lat="54.489180" lon="21.891700"><ele>74.0</ele><time>2026-06-04T15:18:39Z</time></trkpt>
			<trkpt lat="54.488900" lon="21.891910"><ele>74.2</ele><time>2026-06-04T15:18:51Z</time></trkpt>
			<trkpt lat="54.488580" lon="21.891980"><ele>74.3</ele><time>2026-06-04T15:19:03Z</time></trkpt>
			<trkpt lat="54.487920" lon="21.891840"><ele>74.7</ele><time>2026-06-04T15:19:15Z</time></trkpt>
			<trkpt lat="54.487240" lon="21.891800"><ele>75.0</ele><time>2026-06-04T15:19:28Z</time></trkpt>
			<trkpt lat="54.486920" lon="21.891980"><ele>75.1</ele><time>2026-06-04T15:19:40Z</time></trkpt>
			<trkpt lat="54.486920" lon="21.891980"><ele>75.1</ele><time>2026-06-04T15:19:45Z</time></trkpt>
			<trkpt lat="54.486420" lon="21.892280"><ele>75.4</ele><time>2026-06-04T15:19:51Z</time></trkpt>
			<trkpt lat="54.486070" lon="21.892880"><ele>75.6</ele><time>2026-06-04T15:19:56Z</time></trkpt>
			<trkpt lat="54.482620" lon="21.900440"><ele>77.9</ele><time>2026-06-04T15:20:01Z</time></trkpt>
			<trkpt lat="54.479340" lon="21.907570"><ele>79.7</ele><time>2026-06-04T15:20:07Z</time></trkpt>
			<trkpt lat="54.478310" lon="21.909740"><ele>80.5</ele><time>2026-06-04T15:20:12Z</time></trkpt>
			<trkpt lat="54.477820" lon="21.910920"><ele>81.0</ele><time>2026-06-04T15:20:18Z</time></trkpt>
			<trkpt lat="54.477550" lon="21.911560"><ele>81.3</ele><time>2026-06-04T15:20:23Z</time></trkpt>
			<trkpt lat="54.477250" lon="21.912190"><ele>81.6</ele><time>2026-06-04T15:20:28Z</time></trkpt>
			<trkpt lat="54.476790" lon="21.913230"><ele>82.1</ele><time>2026-06-04T15:20:34Z</time></trkpt>
			<trkpt lat="54.476260" lon="21.914140"><ele>82.6</ele><time>2026-06-04T15:20:39Z</time></trkpt>
			<trkpt lat="54.475560" lon="21.914680"><ele>83.1</ele><time>2026-06-04T15:20:44Z</time></trkpt>
			<trkpt lat="54.474960" lon="21.914870"><ele>83.5</ele><time>2026-06-04T15:20:50Z</time></trkpt>
			<trkpt lat="54.474760" lon="21.915140"><ele>83.6</ele><time>2026-06-04T15:20:55Z</time></trkpt>
			<trkpt lat="54.474600" lon="21.915470"><ele>83.8</ele><time>2026-06-04T15:21:01Z</time></trkpt>
			<trkpt lat="54.474590" lon="21.915900"><ele>84.0</ele><time>2026-06-04T15:21:06Z</time></trkpt>
			<trkpt lat="54.474650" lon="21.916300"><ele>84.1</ele><time>2026-06-04T15:21:11Z</time></trkpt>
			<trkpt lat="54.475080" lon="21.919060"><ele>85.2</ele><time>2026-06-04T15:21:17Z</time></trkpt>
			<trkpt lat="54.475480" lon="21.921180"><ele>86.0</ele><time>2026-06-04T15:21:22Z</time></trkpt>
			<trkpt lat="54.475740" lon="21.922350"><ele>86.4</ele><time>2026-06-04T15:21:27Z</time></trkpt>
			<trkpt lat="54.476350" lon="21.923250"><ele>86.9</ele><time>2026-06-04T15:21:33Z</time></trkpt>
			<trkpt lat="54.476600" lon="21.923710"><ele>87.1</ele><time>2026-06-04T15:21:38Z</time></trkpt>
			<trkpt lat="54.477150" lon="21.924690"><ele>87.6</ele><time>2026-06-04T15:21:44Z</time></trkpt>
			<trkpt lat="54.477880" lon="21.925990"><ele>88.2</ele><time>2026-06-04T15:21:49Z</time></trkpt>
			<trkpt lat="54.478290" lon="21.926660"><ele>88.6</ele><time>2026-06-04T15:21:54Z</time></trkpt>
			<trkpt lat="54.478700" lon="21.927360"><ele>88.9</ele><time>2026-06-04T15:22:00Z</time></trkpt>
			<trkpt lat="54.479030" lon="21.927870"><ele>89.2</ele><time>2026-06-04T15:22:05Z</time></trkpt>
			<trkpt lat="54.479320" lon="21.928450"><ele>89.5</ele><time>2026-06-04T15:22:11Z</time></trkpt>
			<trkpt lat="54.479460" lon="21.928820"><ele>89.6</ele><time>2026-06-04T15:22:16Z</time></trkpt>
			<trkpt lat="54.479560" lon="21.929210"><ele>89.8</ele><time>2026-06-04T15:22:21Z</time></trkpt>
			<trkpt lat="54.479640" lon="21.930030"><ele>90.1</ele><time>2026-06-04T15:22:27Z</time></trkpt>
			<trkpt lat="54.479640" lon="21.930420"><ele>90.2</ele><time>2026-06-04T15:22:32Z</time></trkpt>
			<trkpt lat="54.479600" lon="21.930820"><ele>90.3</ele><time>2026-06-04T15:22:37Z</time></trkpt>
			<trkpt lat="54.479510" lon="21.931320"><ele>90.5</ele><time>2026-06-04T15:22:43Z</time></trkpt>
			<trkpt lat="54.479360" lon="21.931930"><ele>90.7</ele><time>2026-06-04T15:22:48Z</time></trkpt>
			<trkpt lat="54.478790" lon="21.933710"><ele>91.1</ele><time>2026-06-04T15:22:54Z</time></trkpt>
			<trkpt lat="54.478640" lon="21.934070"><ele>90.9</ele><time>2026-06-04T15:22:59Z</time></trkpt>
			<trkpt lat="54.477810" lon="21.935930"><ele>90.2</ele><time>2026-06-04T15:23:04Z</time></trkpt>
			<trkpt lat="54.477740" lon="21.936110"><ele>90.1</ele><time>2026-06-04T15:23:10Z</time></trkpt>
			<trkpt lat="54.477680" lon="21.936270"><ele>90.0</ele><time>2026-06-04T15:23:15Z</time></trkpt>
			<trkpt lat="54.477610" lon="21.936600"><ele>89.9</ele><time>2026-06-04T15:23:21Z</time></trkpt>
			<trkpt lat="54.477550" lon="21.937000"><ele>89.8</ele><time>2026-06-04T15:23:26Z</time></trkpt>
			<trkpt lat="54.477530" lon="21.937410"><ele>89.7</ele><time>2026-06-04T15:23:31Z</time></trkpt>
			<trkpt lat="54.477550" lon="21.937830"><ele>89.5</ele><time>2026-06-04T15:23:37Z</time></trkpt>
			<trkpt lat="54.477610" lon="21.938250"><ele>89.4</ele><time>2026-06-04T15:23:42Z</time></trkpt>
			<trkpt lat="54.477710" lon="21.938660"><ele>89.3</ele><time>2026-06-04T15:23:47Z</time></trkpt>
			<trkpt lat="54.477840" lon="21.939040"><ele>89.1</ele><time>2026-06-04T15:23:53Z</time></trkpt>
			<trkpt lat="54.478660" lon="21.940690"><ele>88.4</ele><time>2026-06-04T15:23:58Z</time></trkpt>
			<trkpt lat="54.478800" lon="21.940990"><ele>88.3</ele><time>2026-06-04T15:24:04Z</time></trkpt>
			<trkpt lat="54.478920" lon="21.941310"><ele>88.2</ele><time>2026-06-04T15:24:09Z</time></trkpt>
			<trkpt lat="54.479010" lon="21.941670"><ele>88.1</ele><time>2026-06-04T15:24:14Z</time></trkpt>
			<trkpt lat="54.479090" lon="21.942060"><ele>87.9</ele><time>2026-06-04T15:24:20Z</time></trkpt>
			<trkpt lat="54.479270" lon="21.943210"><ele>87.6</ele><time>2026-06-04T15:24:25Z</time></trkpt>
			<trkpt lat="54.479350" lon="21.943700"><ele>87.4</ele><time>2026-06-04T15:24:30Z</time></trkpt>
			<trkpt lat="54.479420" lon="21.944000"><ele>87.3</ele><time>2026-06-04T15:24:36Z</time></trkpt>
			<trkpt lat="54.479510" lon="21.944320"><ele>87.2</ele><time>2026-06-04T15:24:41Z</time></trkpt>
			<trkpt lat="54.479620" lon="21.944600"><ele>87.1</ele><time>2026-06-04T15:24:47Z</time></trkpt>
			<trkpt lat="54.480530" lon="21.946480"><ele>86.4</ele><time>2026-06-04T15:24:52Z</time></trkpt>
			<trkpt lat="54.480620" lon="21.946720"><ele>86.4</ele><time>2026-06-04T15:24:57Z</time></trkpt>
			<trkpt lat="54.480670" lon="21.946950"><ele>86.4</ele><time>2026-06-04T15:25:03Z</time></trkpt>
			<trkpt lat="54.480700" lon="21.947230"><ele>86.5</ele><time>2026-06-04T15:25:08Z</time></trkpt>
			<trkpt lat="54.480710" lon="21.949980"><ele>86.8</ele><time>2026-06-04T15:25:14Z</time></trkpt>
			<trkpt lat="54.480700" lon="21.950260"><ele>86.9</ele><time>2026-06-04T15:25:19Z</time></trkpt>
			<trkpt lat="54.480670" lon="21.950560"><ele>86.9</ele><time>2026-06-04T15:25:24Z</time></trkpt>
			<trkpt lat="54.480620" lon="21.950890"><ele>87.0</ele><time>2026-06-04T15:25:30Z</time></trkpt>
			<trkpt lat="54.480520" lon="21.951280"><ele>87.0</ele><time>2026-06-04T15:25:35Z</time></trkpt>
			<trkpt lat="54.479470" lon="21.954950"><ele>87.5</ele><time>2026-06-04T15:25:40Z</time></trkpt>
			<trkpt lat="54.479380" lon="21.955120"><ele>87.6</ele><time>2026-06-04T15:25:46Z</time></trkpt>
			<trkpt lat="54.479260" lon="21.955310"><ele>87.6</ele><time>2026-06-04T15:25:51Z</time></trkpt>
			<trkpt lat="54.478790" lon="21.955920"><ele>87.7</ele><time>2026-06-04T15:25:57Z</time></trkpt>
			<trkpt lat="54.478700" lon="21.956070"><ele>87.8</ele><time>2026-06-04T15:26:02Z</time></trkpt>
			<trkpt lat="54.478600" lon="21.956300"><ele>87.8</ele><time>2026-06-04T15:26:07Z</time></trkpt>
			<trkpt lat="54.477570" lon="21.959770"><ele>88.3</ele><time>2026-06-04T15:26:13Z</time></trkpt>
			<trkpt lat="54.477510" lon="21.960020"><ele>88.3</ele><time>2026-06-04T15:26:18Z</time></trkpt>
			<trkpt lat="54.477490" lon="21.960410"><ele>88.6</ele><time>2026-06-04T15:26:23Z</time></trkpt>
			<trkpt lat="54.477630" lon="21.960910"><ele>89.2</ele><time>2026-06-04T15:26:29Z</time></trkpt>
			<trkpt lat="54.477750" lon="21.961240"><ele>89.6</ele><time>2026-06-04T15:26:34Z</time></trkpt>
			<trkpt lat="54.477940" lon="21.961640"><ele>90.1</ele><time>2026-06-04T15:26:40Z</time></trkpt>
			<trkpt lat="54.478080" lon="21.962000"><ele>90.6</ele><time>2026-06-04T15:26:45Z</time></trkpt>
			<trkpt lat="54.478200" lon="21.962420"><ele>91.0</ele><time>2026-06-04T15:26:50Z</time></trkpt>
			<trkpt lat="54.478280" lon="21.962900"><ele>91.6</ele><time>2026-06-04T15:26:56Z</time></trkpt>
			<trkpt lat="54.478440" lon="21.963940"><ele>92.7</ele><time>2026-06-04T15:27:01Z</time></trkpt>
			<trkpt lat="54.478880" lon="21.966670"><ele>95.6</ele><time>2026-06-04T15:27:07Z</time></trkpt>
			<trkpt lat="54.478920" lon="21.966970"><ele>95.9</ele><time>2026-06-04T15:27:12Z</time></trkpt>
			<trkpt lat="54.478950" lon="21.967400"><ele>96.4</ele><time>2026-06-04T15:27:17Z</time></trkpt>
			<trkpt lat="54.478960" lon="21.967970"><ele>97.0</ele><time>2026-06-04T15:27:23Z</time></trkpt>
			<trkpt lat="54.478950" lon="21.968950"><ele>98.0</ele><time>2026-06-04T15:27:28Z</time></trkpt>
			<trkpt lat="54.478960" lon="21.969340"><ele>98.4</ele><time>2026-06-04T15:27:33Z</time></trkpt>
			<trkpt lat="54.479020" lon="21.970200"><ele>99.3</ele><time>2026-06-04T15:27:39Z</time></trkpt>
			<trkpt lat="54.479160" lon="21.971510"><ele>100.7</ele><time>2026-06-04T15:27:44Z</time></trkpt>
			<trkpt lat="54.479290" lon="21.973290"><ele>102.6</ele><time>2026-06-04T15:27:50Z</time></trkpt>
			<trkpt lat="54.479340" lon="21.974060"><ele>103.4</ele><time>2026-06-04T15:27:55Z</time></trkpt>
			<trkpt lat="54.479780" lon="21.976980"><ele>104.8</ele><time>2026-06-04T15:28:00Z</time></trkpt>
			<trkpt lat="54.480110" lon="21.978080"><ele>104.9</ele><time>2026-06-04T15:28:06Z</time></trkpt>
			<trkpt lat="54.480270" lon="21.978770"><ele>105.1</ele><time>2026-06-04T15:28:11Z</time></trkpt>
			<trkpt lat="54.480590" lon="21.980470"><ele>105.3</ele><time>2026-06-04T15:28:16Z</time></trkpt>
			<trkpt lat="54.480120" lon="21.981070"><ele>105.5</ele><time>2026-06-04T15:28:22Z</time></trkpt>
			<trkpt lat="54.479620" lon="21.981590"><ele>105.7</ele><time>2026-06-04T15:28:27Z</time></trkpt>
			<trkpt lat="54.479350" lon="21.981750"><ele>105.7</ele><time>2026-06-04T15:28:33Z</time></trkpt>
			<trkpt lat="54.478900" lon="21.981900"><ele>105.9</ele><time>2026-06-04T15:28:38Z</time></trkpt>
			<trkpt lat="54.477530" lon="21.982260"><ele>106.2</ele><time>2026-06-04T15:28:43Z</time></trkpt>
			<trkpt lat="54.476430" lon="21.982630"><ele>106.6</ele><time>2026-06-04T15:28:49Z</time></trkpt>
			<trkpt lat="54.476280" lon="21.982730"><ele>106.6</ele><time>2026-06-04T15:28:54Z</time></trkpt>
			<trkpt lat="54.476160" lon="21.982900"><ele>106.6</ele><time>2026-06-04T15:29:00Z</time></trkpt>
			<trkpt lat="54.475930" lon="21.983360"><ele>106.7</ele><time>2026-06-04T15:29:05Z</time></trkpt>
			<trkpt lat="54.474320" lon="21.987210"><ele>107.5</ele><time>2026-06-04T15:29:10Z</time></trkpt>
			<trkpt lat="54.474200" lon="21.987430"><ele>107.5</ele><time>2026-06-04T15:29:16Z</time></trkpt>
			<trkpt lat="54.474090" lon="21.987570"><ele>107.6</ele><time>2026-06-04T15:29:21Z</time></trkpt>
			<trkpt lat="54.473910" lon="21.987700"><ele>107.6</ele><time>2026-06-04T15:29:26Z</time></trkpt>
			<trkpt lat="54.473540" lon="21.987890"><ele>107.7</ele><time>2026-06-04T15:29:32Z</time></trkpt>
			<trkpt lat="54.472960" lon="21.988110"><ele>107.9</ele><time>2026-06-04T15:29:37Z</time></trkpt>
			<trkpt lat="54.471830" lon="21.988520"><ele>108.2</ele><time>2026-06-04T15:29:43Z</time></trkpt>
			<trkpt lat="54.471630" lon="21.988540"><ele>108.2</ele><time>2026-06-04T15:29:48Z</time></trkpt>
			<trkpt lat="54.469860" lon="21.988390"><ele>108.7</ele><time>2026-06-04T15:29:53Z</time></trkpt>
			<trkpt lat="54.469900" lon="21.988790"><ele>108.8</ele><time>2026-06-04T15:29:59Z</time></trkpt>
			<trkpt lat="54.469960" lon="21.989980"><ele>109.0</ele><time>2026-06-04T15:30:04Z</time></trkpt>
			<trkpt lat="54.470600" lon="21.998240"><ele>108.0</ele><time>2026-06-04T15:30:09Z</time></trkpt>
			<trkpt lat="54.471020" lon="22.003870"><ele>106.9</ele><time>2026-06-04T15:30:15Z</time></trkpt>
			<trkpt lat="54.471300" lon="22.007990"><ele>105.2</ele><time>2026-06-04T15:30:20Z</time></trkpt>
			<trkpt lat="54.471300" lon="22.007990"><ele>105.2</ele><time>2026-06-04T15:30:27Z</time></trkpt>
			<trkpt lat="54.471420" lon="22.009740"><ele>102.1</ele><time>2026-06-04T15:30:34Z</time></trkpt>
			<trkpt lat="54.471610" lon="22.010520"><ele>100.5</ele><time>2026-06-04T15:30:41Z</time></trkpt>
			<trkpt lat="54.471730" lon="22.010840"><ele>99.9</ele><time>2026-06-04T15:30:48Z</time></trkpt>
			<trkpt lat="54.471910" lon="22.011170"><ele>99.0</ele><time>2026-06-04T15:30:55Z</time></trkpt>
			<trkpt lat="54.472100" lon="22.011460"><ele>98.3</ele><time>2026-06-04T15:31:02Z</time></trkpt>
			<trkpt lat="54.476470" lon="22.016850"><ele>81.7</ele><time>2026-06-04T15:31:09Z</time></trkpt>
			<trkpt lat="54.479610" lon="22.020620"><ele>78.4</ele><time>2026-06-04T15:31:16Z</time></trkpt>
			<trkpt lat="54.483480" lon="22.025260"><ele>78.5</ele><time>2026-06-04T15:31:23Z</time></trkpt>
			<trkpt lat="54.487820" lon="22.030520"><ele>79.0</ele><time>2026-06-04T15:31:30Z</time></trkpt>
			<trkpt lat="54.490970" lon="22.034420"><ele>79.4</ele><time>2026-06-04T15:31:37Z</time></trkpt>
			<trkpt lat="54.496050" lon="22.040530"><ele>78.7</ele><time>2026-06-04T15:31:44Z</time></trkpt>
			<trkpt lat="54.506210" lon="22.052780"><ele>78.8</ele><time>2026-06-04T15:31:51Z</time></trkpt>
			<trkpt lat="54.509300" lon="22.056500"><ele>74.8</ele><time>2026-06-04T15:31:58Z</time></trkpt>
			<trkpt lat="54.510160" lon="22.058350"><ele>73.0</ele><time>2026-06-04T15:32:05Z</time></trkpt>
			<trkpt lat="54.510400" lon="22.058790"><ele>72.5</ele><time>2026-06-04T15:32:12Z</time></trkpt>
			<trkpt lat="54.510680" lon="22.059090"><ele>72.1</ele><time>2026-06-04T15:32:19Z</time></trkpt>
			<trkpt lat="54.511330" lon="22.059560"><ele>71.1</ele><time>2026-06-04T15:32:26Z</time></trkpt>
			<trkpt lat="54.514110" lon="22.061560"><ele>67.1</ele><time>2026-06-04T15:32:33Z</time></trkpt>
			<trkpt lat="54.516110" lon="22.063000"><ele>66.5</ele><time>2026-06-04T15:32:40Z</time></trkpt>
			<trkpt lat="54.517160" lon="22.063710"><ele>66.3</ele><time>2026-06-04T15:32:47Z</time></trkpt>
			<trkpt lat="54.519390" lon="22.065330"><ele>65.8</ele><time>2026-06-04T15:32:54Z</time></trkpt>
			<trkpt lat="54.519640" lon="22.065510"><ele>65.8</ele><time>2026-06-04T15:33:01Z</time></trkpt>
			<trkpt lat="54.519790" lon="22.065590"><ele>65.7</ele><time>2026-06-04T15:33:08Z</time></trkpt>
			<trkpt lat="54.519860" lon="22.065640"><ele>65.7</ele><time>2026-06-04T15:33:15Z</time></trkpt>
			<trkpt lat="54.520540" lon="22.066130"><ele>65.6</ele><time>2026-06-04T15:33:22Z</time></trkpt>
			<trkpt lat="54.521410" lon="22.066770"><ele>65.4</ele><time>2026-06-04T15:33:29Z</time></trkpt>
			<trkpt lat="54.521550" lon="22.066890"><ele>65.4</ele><time>2026-06-04T15:33:36Z</time></trkpt>
			<trkpt lat="54.521660" lon="22.066960"><ele>65.3</ele><time>2026-06-04T15:33:43Z</time></trkpt>
			<trkpt lat="54.521960" lon="22.067190"><ele>65.3</ele><time>2026-06-04T15:33:50Z</time></trkpt>
			<trkpt lat="54.522590" lon="22.067700"><ele>65.1</ele><time>2026-06-04T15:33:57Z</time></trkpt>
			<trkpt lat="54.523050" lon="22.068040"><ele>64.6</ele><time>2026-06-04T15:34:04Z</time></trkpt>
			<trkpt lat="54.523220" lon="22.068200"><ele>64.4</ele><time>2026-06-04T15:34:11Z</time></trkpt>
			<trkpt lat="54.523330" lon="22.068320"><ele>64.3</ele><time>2026-06-04T15:34:18Z</time></trkpt>
			<trkpt lat="54.523420" lon="22.068470"><ele>64.2</ele><time>2026-06-04T15:34:25Z</time></trkpt>
			<trkpt lat="54.523530" lon="22.068680"><ele>64.0</ele><time>2026-06-04T15:34:32Z</time></trkpt>
			<trkpt lat="54.523680" lon="22.069090"><ele>63.8</ele><time>2026-06-04T15:34:38Z</time></trkpt>
			<trkpt lat="54.523790" lon="22.069520"><ele>63.5</ele><time>2026-06-04T15:34:45Z</time></trkpt>
			<trkpt lat="54.523830" lon="22.069830"><ele>63.3</ele><time>2026-06-04T15:34:52Z</time></trkpt>
			<trkpt lat="54.523970" lon="22.070970"><ele>62.6</ele><time>2026-06-04T15:34:59Z</time></trkpt>
			<trkpt lat="54.524020" lon="22.071780"><ele>62.2</ele><time>2026-06-04T15:35:06Z</time></trkpt>
			<trkpt lat="54.524010" lon="22.072010"><ele>62.0</ele><time>2026-06-04T15:35:13Z</time></trkpt>
			<trkpt lat="54.523990" lon="22.072210"><ele>61.9</ele><time>2026-06-04T15:35:20Z</time></trkpt>
			<trkpt lat="54.523940" lon="22.072450"><ele>61.8</ele><time>2026-06-04T15:35:27Z</time></trkpt>
			<trkpt lat="54.523910" lon="22.072580"><ele>61.7</ele><time>2026-06-04T15:35:34Z</time></trkpt>
			<trkpt lat="54.523860" lon="22.072760"><ele>61.6</ele><time>2026-06-04T15:35:41Z</time></trkpt>
			<trkpt lat="54.523820" lon="22.072880"><ele>61.5</ele><time>2026-06-04T15:35:48Z</time></trkpt>
			<trkpt lat="54.523700" lon="22.073190"><ele>61.3</ele><time>2026-06-04T15:35:55Z</time></trkpt>
			<trkpt lat="54.523230" lon="22.074270"><ele>60.5</ele><time>2026-06-04T15:36:02Z</time></trkpt>
			<trkpt lat="54.522830" lon="22.075170"><ele>59.9</ele><time>2026-06-04T15:36:09Z</time></trkpt>
			<trkpt lat="54.522540" lon="22.075830"><ele>59.4</ele><time>2026-06-04T15:36:16Z</time></trkpt>
			<trkpt lat="54.522470" lon="22.076160"><ele>59.2</ele><time>2026-06-04T15:36:23Z</time></trkpt>
			<trkpt lat="54.522440" lon="22.076310"><ele>59.1</ele><time>2026-06-04T15:36:30Z</time></trkpt>
			<trkpt lat="54.522290" lon="22.077860"><ele>58.2</ele><time>2026-06-04T15:36:37Z</time></trkpt>
			<trkpt lat="54.522190" lon="22.079200"><ele>57.5</ele><time>2026-06-04T15:36:44Z</time></trkpt>
			<trkpt lat="54.522200" lon="22.080380"><ele>56.8</ele><time>2026-06-04T15:36:51Z</time></trkpt>
			<trkpt lat="54.522230" lon="22.081510"><ele>56.5</ele><time>2026-06-04T15:36:58Z</time></trkpt>
			<trkpt lat="54.522560" lon="22.082970"><ele>57.5</ele><time>2026-06-04T15:37:05Z</time></trkpt>
			<trkpt lat="54.523210" lon="22.085060"><ele>59.1</ele><time>2026-06-04T15:37:12Z</time></trkpt>
			<trkpt lat="54.523970" lon="22.087680"><ele>61.0</ele><time>2026-06-04T15:37:19Z</time></trkpt>
			<trkpt lat="54.524440" lon="22.088960"><ele>62.0</ele><time>2026-06-04T15:37:26Z</time></trkpt>
			<trkpt lat="54.524770" lon="22.089640"><ele>62.6</ele><time>2026-06-04T15:37:33Z</time></trkpt>
			<trkpt lat="54.529390" lon="22.098840"><ele>66.0</ele><time>2026-06-04T15:37:40Z</time></trkpt>
			<trkpt lat="54.533590" lon="22.107290"><ele>64.9</ele><time>2026-06-04T15:37:47Z</time></trkpt>
			<trkpt lat="54.536870" lon="22.114290"><ele>63.8</ele><time>2026-06-04T15:37:54Z</time></trkpt>
			<trkpt lat="54.538110" lon="22.117000"><ele>63.4</ele><time>2026-06-04T15:38:01Z</time></trkpt>
			<trkpt lat="54.538340" lon="22.117990"><ele>63.3</ele><time>2026-06-04T15:38:08Z</time></trkpt>
			<trkpt lat="54.538550" lon="22.118920"><ele>63.3</ele><time>2026-06-04T15:38:15Z</time></trkpt>
			<trkpt lat="54.539290" lon="22.120540"><ele>63.3</ele><time>2026-06-04T15:38:22Z</time></trkpt>
			<trkpt lat="54.540800" lon="22.123010"><ele>63.4</ele><time>2026-06-04T15:38:29Z</time></trkpt>
			<trkpt lat="54.541870" lon="22.124720"><ele>63.5</ele><time>2026-06-04T15:38:36Z</time></trkpt>
			<trkpt lat="54.542230" lon="22.125470"><ele>63.5</ele><time>2026-06-04T15:38:43Z</time></trkpt>
			<trkpt lat="54.542880" lon="22.127540"><ele>63.6</ele><time>2026-06-04T15:38:50Z</time></trkpt>
			<trkpt lat="54.545520" lon="22.136990"><ele>62.3</ele><time>2026-06-04T15:38:57Z</time></trkpt>
			<trkpt lat="54.547020" lon="22.142360"><ele>61.3</ele><time>2026-06-04T15:39:04Z</time></trkpt>
			<trkpt lat="54.547710" lon="22.144740"><ele>60.9</ele><time>2026-06-04T15:39:11Z</time></trkpt>
			<trkpt lat="54.547780" lon="22.145070"><ele>60.9</ele><time>2026-06-04T15:39:18Z</time></trkpt>
			<trkpt lat="54.547930" lon="22.145420"><ele>61.0</ele><time>2026-06-04T15:39:25Z</time></trkpt>
			<trkpt lat="54.549470" lon="22.148700"><ele>61.5</ele><time>2026-06-04T15:39:32Z</time></trkpt>
			<trkpt lat="54.550560" lon="22.151050"><ele>61.8</ele><time>2026-06-04T15:39:39Z</time></trkpt>
			<trkpt lat="54.551030" lon="22.151890"><ele>62.0</ele><time>2026-06-04T15:39:46Z</time></trkpt>
			<trkpt lat="54.551190" lon="22.152200"><ele>62.0</ele><time>2026-06-04T15:39:53Z</time></trkpt>
			<trkpt lat="54.551240" lon="22.152400"><ele>62.0</ele><time>2026-06-04T15:40:00Z</time></trkpt>
			<trkpt lat="54.551260" lon="22.152600"><ele>62.1</ele><time>2026-06-04T15:40:07Z</time></trkpt>
			<trkpt lat="54.551270" lon="22.152740"><ele>62.1</ele><time>2026-06-04T15:40:14Z</time></trkpt>
			<trkpt lat="54.551320" lon="22.152880"><ele>62.1</ele><time>2026-06-04T15:40:20Z</time></trkpt>
			<trkpt lat="54.551460" lon="22.153180"><ele>62.2</ele><time>2026-06-04T15:40:27Z</time></trkpt>
			<trkpt lat="54.551740" lon="22.153760"><ele>62.2</ele><time>2026-06-04T15:40:34Z</time></trkpt>
			<trkpt lat="54.552200" lon="22.154700"><ele>62.4</ele><time>2026-06-04T15:40:41Z</time></trkpt>
			<trkpt lat="54.552970" lon="22.156410"><ele>62.6</ele><time>2026-06-04T15:40:48Z</time></trkpt>
			<trkpt lat="54.553620" lon="22.157820"><ele>62.2</ele><time>2026-06-04T15:40:55Z</time></trkpt>
			<trkpt lat="54.556310" lon="22.163870"><ele>59.7</ele><time>2026-06-04T15:41:02Z</time></trkpt>
			<trkpt lat="54.556460" lon="22.164180"><ele>59.6</ele><time>2026-06-04T15:41:09Z</time></trkpt>
			<trkpt lat="54.556530" lon="22.164310"><ele>59.5</ele><time>2026-06-04T15:41:16Z</time></trkpt>
			<trkpt lat="54.556610" lon="22.164410"><ele>59.4</ele><time>2026-06-04T15:41:23Z</time></trkpt>
			<trkpt lat="54.556780" lon="22.164570"><ele>59.3</ele><time>2026-06-04T15:41:30Z</time></trkpt>
			<trkpt lat="54.556940" lon="22.164690"><ele>59.2</ele><time>2026-06-04T15:41:37Z</time></trkpt>
			<trkpt lat="54.557420" lon="22.164950"><ele>59.0</ele><time>2026-06-04T15:41:44Z</time></trkpt>
			<trkpt lat="54.557600" lon="22.165130"><ele>58.8</ele><time>2026-06-04T15:41:51Z</time></trkpt>
			<trkpt lat="54.557920" lon="22.165420"><ele>58.6</ele><time>2026-06-04T15:41:58Z</time></trkpt>
			<trkpt lat="54.558250" lon="22.165820"><ele>58.4</ele><time>2026-06-04T15:42:05Z</time></trkpt>
			<trkpt lat="54.558960" lon="22.166810"><ele>57.9</ele><time>2026-06-04T15:42:12Z</time></trkpt>
			<trkpt lat="54.559070" lon="22.166950"><ele>57.8</ele><time>2026-06-04T15:42:19Z</time></trkpt>
			<trkpt lat="54.559180" lon="22.167050"><ele>57.8</ele><time>2026-06-04T15:42:26Z</time></trkpt>
			<trkpt lat="54.559400" lon="22.167190"><ele>57.6</ele><time>2026-06-04T15:42:33Z</time></trkpt>
			<trkpt lat="54.560710" lon="22.167810"><ele>57.4</ele><time>2026-06-04T15:42:40Z</time></trkpt>
			<trkpt lat="54.560850" lon="22.167900"><ele>57.4</ele><time>2026-06-04T15:42:47Z</time></trkpt>
			<trkpt lat="54.561000" lon="22.168010"><ele>57.3</ele><time>2026-06-04T15:42:54Z</time></trkpt>
			<trkpt lat="54.562670" lon="22.169500"><ele>57.0</ele><time>2026-06-04T15:43:01Z</time></trkpt>
			<trkpt lat="54.567020" lon="22.173320"><ele>56.1</ele><time>2026-06-04T15:43:08Z</time></trkpt>
			<trkpt lat="54.567890" lon="22.174100"><ele>55.4</ele><time>2026-06-04T15:43:15Z</time></trkpt>
			<trkpt lat="54.568340" lon="22.174530"><ele>54.7</ele><time>2026-06-04T15:43:22Z</time></trkpt>
			<trkpt lat="54.569410" lon="22.175470"><ele>53.0</ele><time>2026-06-04T15:43:29Z</time></trkpt>
			<trkpt lat="54.572110" lon="22.177830"><ele>48.9</ele><time>2026-06-04T15:43:36Z</time></trkpt>
			<trkpt lat="54.574390" lon="22.179810"><ele>45.4</ele><time>2026-06-04T15:43:43Z</time></trkpt>
			<trkpt lat="54.575840" lon="22.181130"><ele>43.9</ele><time>2026-06-04T15:43:50Z</time></trkpt>
			<trkpt lat="54.577440" lon="22.182550"><ele>45.1</ele><time>2026-06-04T15:43:57Z</time></trkpt>
			<trkpt lat="54.578660" lon="22.183660"><ele>46.0</ele><time>2026-06-04T15:44:04Z</time></trkpt>
			<trkpt lat="54.578750" lon="22.183780"><ele>46.1</ele><time>2026-06-04T15:44:11Z</time></trkpt>
			<trkpt lat="54.578950" lon="22.184160"><ele>46.3</ele><time>2026-06-04T15:44:18Z</time></trkpt>
			<trkpt lat="54.579040" lon="22.184350"><ele>46.4</ele><time>2026-06-04T15:44:25Z</time></trkpt>
			<trkpt lat="54.579090" lon="22.184530"><ele>46.5</ele><time>2026-06-04T15:44:32Z</time></trkpt>
			<trkpt lat="54.579140" lon="22.184760"><ele>46.6</ele><time>2026-06-04T15:44:39Z</time></trkpt>
			<trkpt lat="54.579190" lon="22.185220"><ele>46.8</ele><time>2026-06-04T15:44:46Z</time></trkpt>
			<trkpt lat="54.579420" lon="22.187040"><ele>47.5</ele><time>2026-06-04T15:44:53Z</time></trkpt>
			<trkpt lat="54.579550" lon="22.188240"><ele>48.0</ele><time>2026-06-04T15:45:00Z</time></trkpt>
			<trkpt lat="54.579680" lon="22.189190"><ele>48.3</ele><time>2026-06-04T15:45:07Z</time></trkpt>
			<trkpt lat="54.579760" lon="22.189510"><ele>48.5</ele><time>2026-06-04T15:45:14Z</time></trkpt>
			<trkpt lat="54.579820" lon="22.189660"><ele>48.6</ele><time>2026-06-04T15:45:21Z</time></trkpt>
			<trkpt lat="54.579910" lon="22.189780"><ele>48.6</ele><time>2026-06-04T15:45:28Z</time></trkpt>
			<trkpt lat="54.580090" lon="22.189960"><ele>48.8</ele><time>2026-06-04T15:45:35Z</time></trkpt>
			<trkpt lat="54.580400" lon="22.190250"><ele>49.0</ele><time>2026-06-04T15:45:42Z</time></trkpt>
			<trkpt lat="54.581140" lon="22.190990"><ele>49.6</ele><time>2026-06-04T15:45:49Z</time></trkpt>
			<trkpt lat="54.581250" lon="22.191100"><ele>49.7</ele><time>2026-06-04T15:45:55Z</time></trkpt>
			<trkpt lat="54.581630" lon="22.191480"><ele>49.5</ele><time>2026-06-04T15:46:02Z</time></trkpt>
			<trkpt lat="54.582770" lon="22.192520"><ele>48.7</ele><time>2026-06-04T15:46:09Z</time></trkpt>
			<trkpt lat="54.582840" lon="22.192580"><ele>48.6</ele><time>2026-06-04T15:46:16Z</time></trkpt>
			<trkpt lat="54.582890" lon="22.192630"><ele>48.6</ele><time>2026-06-04T15:46:23Z</time></trkpt>
			<trkpt lat="54.582920" lon="22.192650"><ele>48.6</ele><time>2026-06-04T15:46:30Z</time></trkpt>
			<trkpt lat="54.582940" lon="22.192670"><ele>48.6</ele><time>2026-06-04T15:46:37Z</time></trkpt>
			<trkpt lat="54.582980" lon="22.192710"><ele>48.5</ele><time>2026-06-04T15:46:44Z</time></trkpt>
			<trkpt lat="54.584440" lon="22.194150"><ele>47.5</ele><time>2026-06-04T15:46:51Z</time></trkpt>
			<trkpt lat="54.584770" lon="22.194460"><ele>47.3</ele><time>2026-06-04T15:46:58Z</time></trkpt>
			<trkpt lat="54.585280" lon="22.194940"><ele>46.9</ele><time>2026-06-04T15:47:05Z</time></trkpt>
			<trkpt lat="54.586060" lon="22.195690"><ele>46.4</ele><time>2026-06-04T15:47:12Z</time></trkpt>
			<trkpt lat="54.586590" lon="22.196190"><ele>46.0</ele><time>2026-06-04T15:47:19Z</time></trkpt>
			<trkpt lat="54.586690" lon="22.195880"><ele>45.9</ele><time>2026-06-04T15:47:26Z</time></trkpt>
			<trkpt lat="54.586690" lon="22.195880"><ele>45.9</ele><time>2026-06-04T15:47:29Z</time></trkpt>
			<trkpt lat="54.586820" lon="22.195460"><ele>45.7</ele><time>2026-06-04T15:47:32Z</time></trkpt>
			<trkpt lat="54.587150" lon="22.194380"><ele>45.3</ele><time>2026-06-04T15:47:35Z</time></trkpt>
			<trkpt lat="54.587320" lon="22.193830"><ele>45.0</ele><time>2026-06-04T15:47:38Z</time></trkpt>
			<trkpt lat="54.587460" lon="22.193390"><ele>44.9</ele><time>2026-06-04T15:47:41Z</time></trkpt>
			<trkpt lat="54.587510" lon="22.193440"><ele>44.8</ele><time>2026-06-04T15:47:44Z</time></trkpt>
			<trkpt lat="54.587990" lon="22.193900"><ele>44.5</ele><time>2026-06-04T15:47:47Z</time></trkpt>
			<trkpt lat="54.588110" lon="22.194030"><ele>44.4</ele><time>2026-06-04T15:47:50Z</time></trkpt>
			<trkpt lat="54.588590" lon="22.194490"><ele>44.2</ele><time>2026-06-04T15:47:53Z</time></trkpt>
			<trkpt lat="54.588620" lon="22.194510"><ele>44.2</ele><time>2026-06-04T15:47:56Z</time></trkpt>
			<trkpt lat="54.588650" lon="22.194540"><ele>44.2</ele><time>2026-06-04T15:47:59Z</time></trkpt>
			<trkpt lat="54.588800" lon="22.194680"><ele>44.2</ele><time>2026-06-04T15:48:02Z</time></trkpt>
			<trkpt lat="54.589120" lon="22.194990"><ele>44.2</ele><time>2026-06-04T15:48:05Z</time></trkpt>
			<trkpt lat="54.590719" lon="22.196529"><ele>44.1</ele><time>2026-06-04T15:52:19Z</time></trkpt>
			<trkpt lat="54.590995" lon="22.195988"><ele>44.1</ele><time>2026-06-04T15:53:17Z</time></trkpt>
			<trkpt lat="54.591388" lon="22.196382"><ele>44.1</ele><time>2026-06-04T15:54:20Z</time></trkpt>
			<trkpt lat="54.590997" lon="22.196010"><ele>44.0</ele><time>2026-06-04T15:55:22Z</time></trkpt>
			<trkpt lat="54.590753" lon="22.196565"><ele>44.0</ele><time>2026-06-04T15:56:18Z</time></trkpt>
			<trkpt lat="54.589141" lon="22.195010"><ele>44.0</ele><time>2026-06-04T16:00:35Z</time></trkpt>
			<trkpt lat="54.589140" lon="22.195010"><ele>44.0</ele><time>2026-06-04T16:00:38Z</time></trkpt>
			<trkpt lat="54.588800" lon="22.194680"><ele>43.9</ele><time>2026-06-04T16:00:41Z</time></trkpt>
			<trkpt lat="54.588650" lon="22.194540"><ele>43.9</ele><time>2026-06-04T16:00:44Z</time></trkpt>
			<trkpt lat="54.588620" lon="22.194510"><ele>43.9</ele><time>2026-06-04T16:00:47Z</time></trkpt>
			<trkpt lat="54.588590" lon="22.194490"><ele>43.9</ele><time>2026-06-04T16:00:50Z</time></trkpt>
			<trkpt lat="54.588110" lon="22.194030"><ele>43.9</ele><time>2026-06-04T16:00:53Z</time></trkpt>
			<trkpt lat="54.587990" lon="22.193900"><ele>43.9</ele><time>2026-06-04T16:00:55Z</time></trkpt>
			<trkpt lat="54.587510" lon="22.193440"><ele>43.9</ele><time>2026-06-04T16:00:58Z</time></trkpt>
			<trkpt lat="54.587460" lon="22.193390"><ele>43.9</ele><time>2026-06-04T16:01:01Z</time></trkpt>
			<trkpt lat="54.587460" lon="22.193390"><ele>43.9</ele><time>2026-06-04T16:01:04Z</time></trkpt>
			<trkpt lat="54.587460" lon="22.193390"><ele>43.9</ele><time>2026-06-04T16:01:11Z</time></trkpt>
			<trkpt lat="54.587460" lon="22.193390"><ele>43.9</ele><time>2026-06-04T16:01:18Z</time></trkpt>
			<trkpt lat="54.587320" lon="22.193830"><ele>43.9</ele><time>2026-06-04T16:01:24Z</time></trkpt>
			<trkpt lat="54.587150" lon="22.194380"><ele>43.9</ele><time>2026-06-04T16:01:31Z</time></trkpt>
			<trkpt lat="54.586820" lon="22.195460"><ele>44.2</ele><time>2026-06-04T16:01:38Z</time></trkpt>
			<trkpt lat="54.586590" lon="22.196190"><ele>44.5</ele><time>2026-06-04T16:01:45Z</time></trkpt>
			<trkpt lat="54.586060" lon="22.195690"><ele>44.9</ele><time>2026-06-04T16:01:51Z</time></trkpt>
			<trkpt lat="54.585280" lon="22.194940"><ele>45.5</ele><time>2026-06-04T16:01:58Z</time></trkpt>
			<trkpt lat="54.584770" lon="22.194460"><ele>45.9</ele><time>2026-06-04T16:02:05Z</time></trkpt>
			<trkpt lat="54.584440" lon="22.194150"><ele>46.1</ele><time>2026-06-04T16:02:12Z</time></trkpt>
			<trkpt lat="54.582980" lon="22.192710"><ele>47.2</ele><time>2026-06-04T16:02:19Z</time></trkpt>
			<trkpt lat="54.582940" lon="22.192670"><ele>47.3</ele><time>2026-06-04T16:02:25Z</time></trkpt>
			<trkpt lat="54.582920" lon="22.192650"><ele>47.3</ele><time>2026-06-04T16:02:32Z</time></trkpt>
			<trkpt lat="54.582890" lon="22.192630"><ele>47.3</ele><time>2026-06-04T16:02:39Z</time></trkpt>
			<trkpt lat="54.582840" lon="22.192580"><ele>47.4</ele><time>2026-06-04T16:02:46Z</time></trkpt>
			<trkpt lat="54.582770" lon="22.192520"><ele>47.4</ele><time>2026-06-04T16:02:52Z</time></trkpt>
			<trkpt lat="54.581630" lon="22.191480"><ele>48.3</ele><time>2026-06-04T16:02:59Z</time></trkpt>
			<trkpt lat="54.581250" lon="22.191100"><ele>48.6</ele><time>2026-06-04T16:03:06Z</time></trkpt>
			<trkpt lat="54.581140" lon="22.190990"><ele>48.6</ele><time>2026-06-04T16:03:13Z</time></trkpt>
			<trkpt lat="54.580400" lon="22.190250"><ele>49.2</ele><time>2026-06-04T16:03:19Z</time></trkpt>
			<trkpt lat="54.580090" lon="22.189960"><ele>49.5</ele><time>2026-06-04T16:03:26Z</time></trkpt>
			<trkpt lat="54.579910" lon="22.189780"><ele>49.6</ele><time>2026-06-04T16:03:33Z</time></trkpt>
			<trkpt lat="54.579820" lon="22.189660"><ele>49.7</ele><time>2026-06-04T16:03:40Z</time></trkpt>
			<trkpt lat="54.579760" lon="22.189510"><ele>49.7</ele><time>2026-06-04T16:03:47Z</time></trkpt>
			<trkpt lat="54.579680" lon="22.189190"><ele>49.8</ele><time>2026-06-04T16:03:53Z</time></trkpt>
			<trkpt lat="54.579550" lon="22.188240"><ele>49.6</ele><time>2026-06-04T16:04:00Z</time></trkpt>
			<trkpt lat="54.579420" lon="22.187040"><ele>49.3</ele><time>2026-06-04T16:04:07Z</time></trkpt>
			<trkpt lat="54.579190" lon="22.185220"><ele>48.8</ele><time>2026-06-04T16:04:14Z</time></trkpt>
			<trkpt lat="54.579140" lon="22.184760"><ele>48.7</ele><time>2026-06-04T16:04:20Z</time></trkpt>
			<trkpt lat="54.579090" lon="22.184530"><ele>48.6</ele><time>2026-06-04T16:04:27Z</time></trkpt>
			<trkpt lat="54.579040" lon="22.184350"><ele>48.6</ele><time>2026-06-04T16:04:34Z</time></trkpt>
			<trkpt lat="54.578950" lon="22.184160"><ele>48.5</ele><time>2026-06-04T16:04:41Z</time></trkpt>
			<trkpt lat="54.578750" lon="22.183780"><ele>48.4</ele><time>2026-06-04T16:04:47Z</time></trkpt>
			<trkpt lat="54.578660" lon="22.183660"><ele>48.3</ele><time>2026-06-04T16:04:54Z</time></trkpt>
			<trkpt lat="54.577440" lon="22.182550"><ele>47.7</ele><time>2026-06-04T16:05:01Z</time></trkpt>
			<trkpt lat="54.575840" lon="22.181130"><ele>46.9</ele><time>2026-06-04T16:05:08Z</time></trkpt>
			<trkpt lat="54.574390" lon="22.179810"><ele>46.2</ele><time>2026-06-04T16:05:15Z</time></trkpt>
			<trkpt lat="54.572110" lon="22.177830"><ele>47.3</ele><time>2026-06-04T16:05:21Z</time></trkpt>
			<trkpt lat="54.569410" lon="22.175470"><ele>49.5</ele><time>2026-06-04T16:05:28Z</time></trkpt>
			<trkpt lat="54.568340" lon="22.174530"><ele>50.4</ele><time>2026-06-04T16:05:35Z</time></trkpt>
			<trkpt lat="54.567890" lon="22.174100"><ele>50.8</ele><time>2026-06-04T16:05:42Z</time></trkpt>
			<trkpt lat="54.567020" lon="22.173320"><ele>51.6</ele><time>2026-06-04T16:05:48Z</time></trkpt>
			<trkpt lat="54.562670" lon="22.169500"><ele>56.0</ele><time>2026-06-04T16:05:55Z</time></trkpt>
			<trkpt lat="54.561000" lon="22.168010"><ele>57.8</ele><time>2026-06-04T16:06:02Z</time></trkpt>
			<trkpt lat="54.560850" lon="22.167900"><ele>57.9</ele><time>2026-06-04T16:06:09Z</time></trkpt>
			<trkpt lat="54.560710" lon="22.167810"><ele>58.1</ele><time>2026-06-04T16:06:15Z</time></trkpt>
			<trkpt lat="54.559400" lon="22.167190"><ele>59.4</ele><time>2026-06-04T16:06:22Z</time></trkpt>
			<trkpt lat="54.559180" lon="22.167050"><ele>59.6</ele><time>2026-06-04T16:06:29Z</time></trkpt>
			<trkpt lat="54.559070" lon="22.166950"><ele>59.7</ele><time>2026-06-04T16:06:36Z</time></trkpt>
			<trkpt lat="54.558960" lon="22.166810"><ele>59.9</ele><time>2026-06-04T16:06:42Z</time></trkpt>
			<trkpt lat="54.558250" lon="22.165820"><ele>60.7</ele><time>2026-06-04T16:06:49Z</time></trkpt>
			<trkpt lat="54.557920" lon="22.165420"><ele>61.1</ele><time>2026-06-04T16:06:56Z</time></trkpt>
			<trkpt lat="54.557600" lon="22.165130"><ele>61.3</ele><time>2026-06-04T16:07:03Z</time></trkpt>
			<trkpt lat="54.557420" lon="22.164950"><ele>61.3</ele><time>2026-06-04T16:07:10Z</time></trkpt>
			<trkpt lat="54.556940" lon="22.164690"><ele>61.2</ele><time>2026-06-04T16:07:16Z</time></trkpt>
			<trkpt lat="54.556780" lon="22.164570"><ele>61.2</ele><time>2026-06-04T16:07:23Z</time></trkpt>
			<trkpt lat="54.556610" lon="22.164410"><ele>61.2</ele><time>2026-06-04T16:07:30Z</time></trkpt>
			<trkpt lat="54.556530" lon="22.164310"><ele>61.1</ele><time>2026-06-04T16:07:37Z</time></trkpt>
			<trkpt lat="54.556460" lon="22.164180"><ele>61.1</ele><time>2026-06-04T16:07:43Z</time></trkpt>
			<trkpt lat="54.556310" lon="22.163870"><ele>61.1</ele><time>2026-06-04T16:07:50Z</time></trkpt>
			<trkpt lat="54.553620" lon="22.157820"><ele>60.5</ele><time>2026-06-04T16:07:57Z</time></trkpt>
			<trkpt lat="54.552970" lon="22.156410"><ele>60.4</ele><time>2026-06-04T16:08:04Z</time></trkpt>
			<trkpt lat="54.552200" lon="22.154700"><ele>60.2</ele><time>2026-06-04T16:08:10Z</time></trkpt>
			<trkpt lat="54.551740" lon="22.153760"><ele>60.1</ele><time>2026-06-04T16:08:17Z</time></trkpt>
			<trkpt lat="54.551460" lon="22.153180"><ele>60.1</ele><time>2026-06-04T16:08:24Z</time></trkpt>
			<trkpt lat="54.551320" lon="22.152880"><ele>60.1</ele><time>2026-06-04T16:08:31Z</time></trkpt>
			<trkpt lat="54.551270" lon="22.152740"><ele>60.1</ele><time>2026-06-04T16:08:38Z</time></trkpt>
			<trkpt lat="54.551260" lon="22.152600"><ele>60.1</ele><time>2026-06-04T16:08:44Z</time></trkpt>
			<trkpt lat="54.551240" lon="22.152400"><ele>60.1</ele><time>2026-06-04T16:08:51Z</time></trkpt>
			<trkpt lat="54.551190" lon="22.152200"><ele>60.1</ele><time>2026-06-04T16:08:58Z</time></trkpt>
			<trkpt lat="54.551030" lon="22.151890"><ele>60.1</ele><time>2026-06-04T16:09:05Z</time></trkpt>
			<trkpt lat="54.550560" lon="22.151050"><ele>60.1</ele><time>2026-06-04T16:09:11Z</time></trkpt>
			<trkpt lat="54.549470" lon="22.148700"><ele>60.1</ele><time>2026-06-04T16:09:18Z</time></trkpt>
			<trkpt lat="54.547930" lon="22.145420"><ele>60.1</ele><time>2026-06-04T16:09:25Z</time></trkpt>
			<trkpt lat="54.547780" lon="22.145070"><ele>60.1</ele><time>2026-06-04T16:09:32Z</time></trkpt>
			<trkpt lat="54.547710" lon="22.144740"><ele>60.1</ele><time>2026-06-04T16:09:38Z</time></trkpt>
			<trkpt lat="54.547020" lon="22.142360"><ele>60.1</ele><time>2026-06-04T16:09:45Z</time></trkpt>
			<trkpt lat="54.545520" lon="22.136990"><ele>61.1</ele><time>2026-06-04T16:09:52Z</time></trkpt>
			<trkpt lat="54.542880" lon="22.127540"><ele>63.3</ele><time>2026-06-04T16:09:59Z</time></trkpt>
			<trkpt lat="54.542230" lon="22.125470"><ele>63.5</ele><time>2026-06-04T16:10:06Z</time></trkpt>
			<trkpt lat="54.541870" lon="22.124720"><ele>63.5</ele><time>2026-06-04T16:10:12Z</time></trkpt>
			<trkpt lat="54.540800" lon="22.123010"><ele>63.7</ele><time>2026-06-04T16:10:19Z</time></trkpt>
			<trkpt lat="54.539290" lon="22.120540"><ele>63.9</ele><time>2026-06-04T16:10:26Z</time></trkpt>
			<trkpt lat="54.538550" lon="22.118920"><ele>64.0</ele><time>2026-06-04T16:10:33Z</time></trkpt>
			<trkpt lat="54.538340" lon="22.117990"><ele>64.1</ele><time>2026-06-04T16:10:39Z</time></trkpt>
			<trkpt lat="54.538110" lon="22.117000"><ele>64.2</ele><time>2026-06-04T16:10:46Z</time></trkpt>
			<trkpt lat="54.536870" lon="22.114290"><ele>64.4</ele><time>2026-06-04T16:10:53Z</time></trkpt>
			<trkpt lat="54.533590" lon="22.107290"><ele>64.8</ele><time>2026-06-04T16:11:00Z</time></trkpt>
			<trkpt lat="54.529390" lon="22.098840"><ele>66.2</ele><time>2026-06-04T16:11:06Z</time></trkpt>
			<trkpt lat="54.524770" lon="22.089640"><ele>64.7</ele><time>2026-06-04T16:11:13Z</time></trkpt>
			<trkpt lat="54.524440" lon="22.088960"><ele>63.6</ele><time>2026-06-04T16:11:20Z</time></trkpt>
			<trkpt lat="54.523970" lon="22.087680"><ele>61.5</ele><time>2026-06-04T16:11:27Z</time></trkpt>
			<trkpt lat="54.523210" lon="22.085060"><ele>57.6</ele><time>2026-06-04T16:11:34Z</time></trkpt>
			<trkpt lat="54.522560" lon="22.082970"><ele>54.5</ele><time>2026-06-04T16:11:40Z</time></trkpt>
			<trkpt lat="54.522230" lon="22.081510"><ele>52.4</ele><time>2026-06-04T16:11:47Z</time></trkpt>
			<trkpt lat="54.522200" lon="22.080380"><ele>50.9</ele><time>2026-06-04T16:11:54Z</time></trkpt>
			<trkpt lat="54.522190" lon="22.079200"><ele>49.3</ele><time>2026-06-04T16:12:01Z</time></trkpt>
			<trkpt lat="54.522290" lon="22.077860"><ele>47.5</ele><time>2026-06-04T16:12:07Z</time></trkpt>
			<trkpt lat="54.522440" lon="22.076310"><ele>49.4</ele><time>2026-06-04T16:12:14Z</time></trkpt>
			<trkpt lat="54.522470" lon="22.076160"><ele>49.6</ele><time>2026-06-04T16:12:21Z</time></trkpt>
			<trkpt lat="54.522540" lon="22.075830"><ele>50.1</ele><time>2026-06-04T16:12:28Z</time></trkpt>
			<trkpt lat="54.522830" lon="22.075170"><ele>51.1</ele><time>2026-06-04T16:12:34Z</time></trkpt>
			<trkpt lat="54.523230" lon="22.074270"><ele>52.5</ele><time>2026-06-04T16:12:41Z</time></trkpt>
			<trkpt lat="54.523700" lon="22.073190"><ele>54.2</ele><time>2026-06-04T16:12:48Z</time></trkpt>
			<trkpt lat="54.523820" lon="22.072880"><ele>54.7</ele><time>2026-06-04T16:12:55Z</time></trkpt>
			<trkpt lat="54.523860" lon="22.072760"><ele>54.9</ele><time>2026-06-04T16:13:01Z</time></trkpt>
			<trkpt lat="54.523910" lon="22.072580"><ele>55.1</ele><time>2026-06-04T16:13:08Z</time></trkpt>
			<trkpt lat="54.523940" lon="22.072450"><ele>55.3</ele><time>2026-06-04T16:13:15Z</time></trkpt>
			<trkpt lat="54.523990" lon="22.072210"><ele>55.6</ele><time>2026-06-04T16:13:22Z</time></trkpt>
			<trkpt lat="54.524010" lon="22.072010"><ele>55.9</ele><time>2026-06-04T16:13:29Z</time></trkpt>
			<trkpt lat="54.524020" lon="22.071780"><ele>56.2</ele><time>2026-06-04T16:13:35Z</time></trkpt>
			<trkpt lat="54.523970" lon="22.070970"><ele>57.2</ele><time>2026-06-04T16:13:42Z</time></trkpt>
			<trkpt lat="54.523830" lon="22.069830"><ele>58.7</ele><time>2026-06-04T16:13:49Z</time></trkpt>
			<trkpt lat="54.523790" lon="22.069520"><ele>59.1</ele><time>2026-06-04T16:13:56Z</time></trkpt>
			<trkpt lat="54.523680" lon="22.069090"><ele>59.7</ele><time>2026-06-04T16:14:02Z</time></trkpt>
			<trkpt lat="54.523530" lon="22.068680"><ele>60.3</ele><time>2026-06-04T16:14:09Z</time></trkpt>
			<trkpt lat="54.523420" lon="22.068470"><ele>60.7</ele><time>2026-06-04T16:14:16Z</time></trkpt>
			<trkpt lat="54.523330" lon="22.068320"><ele>60.9</ele><time>2026-06-04T16:14:23Z</time></trkpt>
			<trkpt lat="54.523220" lon="22.068200"><ele>61.2</ele><time>2026-06-04T16:14:29Z</time></trkpt>
			<trkpt lat="54.523050" lon="22.068040"><ele>61.6</ele><time>2026-06-04T16:14:36Z</time></trkpt>
			<trkpt lat="54.522590" lon="22.067700"><ele>62.7</ele><time>2026-06-04T16:14:43Z</time></trkpt>
			<trkpt lat="54.521960" lon="22.067190"><ele>64.2</ele><time>2026-06-04T16:14:50Z</time></trkpt>
			<trkpt lat="54.521660" lon="22.066960"><ele>65.0</ele><time>2026-06-04T16:14:57Z</time></trkpt>
			<trkpt lat="54.521550" lon="22.066890"><ele>65.2</ele><time>2026-06-04T16:15:03Z</time></trkpt>
			<trkpt lat="54.521410" lon="22.066770"><ele>65.6</ele><time>2026-06-04T16:15:10Z</time></trkpt>
			<trkpt lat="54.520540" lon="22.066130"><ele>67.1</ele><time>2026-06-04T16:15:17Z</time></trkpt>
			<trkpt lat="54.519860" lon="22.065640"><ele>67.3</ele><time>2026-06-04T16:15:24Z</time></trkpt>
			<trkpt lat="54.519790" lon="22.065590"><ele>67.3</ele><time>2026-06-04T16:15:30Z</time></trkpt>
			<trkpt lat="54.519640" lon="22.065510"><ele>67.3</ele><time>2026-06-04T16:15:37Z</time></trkpt>
			<trkpt lat="54.519390" lon="22.065330"><ele>67.4</ele><time>2026-06-04T16:15:44Z</time></trkpt>
			<trkpt lat="54.517160" lon="22.063710"><ele>67.8</ele><time>2026-06-04T16:15:51Z</time></trkpt>
			<trkpt lat="54.516110" lon="22.063000"><ele>68.1</ele><time>2026-06-04T16:15:57Z</time></trkpt>
			<trkpt lat="54.514110" lon="22.061560"><ele>68.5</ele><time>2026-06-04T16:16:04Z</time></trkpt>
			<trkpt lat="54.511330" lon="22.059560"><ele>70.1</ele><time>2026-06-04T16:16:11Z</time></trkpt>
			<trkpt lat="54.510680" lon="22.059090"><ele>70.8</ele><time>2026-06-04T16:16:18Z</time></trkpt>
			<trkpt lat="54.510400" lon="22.058790"><ele>71.1</ele><time>2026-06-04T16:16:25Z</time></trkpt>
			<trkpt lat="54.510160" lon="22.058350"><ele>71.5</ele><time>2026-06-04T16:16:31Z</time></trkpt>
			<trkpt lat="54.509300" lon="22.056500"><ele>72.9</ele><time>2026-06-04T16:16:38Z</time></trkpt>
			<trkpt lat="54.506210" lon="22.052780"><ele>76.7</ele><time>2026-06-04T16:16:45Z</time></trkpt>
			<trkpt lat="54.496050" lon="22.040530"><ele>80.5</ele><time>2026-06-04T16:16:52Z</time></trkpt>
			<trkpt lat="54.490970" lon="22.034420"><ele>81.6</ele><time>2026-06-04T16:16:58Z</time></trkpt>
			<trkpt lat="54.487820" lon="22.030520"><ele>79.7</ele><time>2026-06-04T16:17:05Z</time></trkpt>
			<trkpt lat="54.483480" lon="22.025260"><ele>76.4</ele><time>2026-06-04T16:17:12Z</time></trkpt>
			<trkpt lat="54.479610" lon="22.020620"><ele>81.2</ele><time>2026-06-04T16:17:19Z</time></trkpt>
			<trkpt lat="54.476470" lon="22.016850"><ele>85.8</ele><time>2026-06-04T16:17:25Z</time></trkpt>
			<trkpt lat="54.472100" lon="22.011460"><ele>95.2</ele><time>2026-06-04T16:17:32Z</time></trkpt>
			<trkpt lat="54.471910" lon="22.011170"><ele>95.7</ele><time>2026-06-04T16:17:39Z</time></trkpt>
			<trkpt lat="54.471730" lon="22.010840"><ele>96.2</ele><time>2026-06-04T16:17:46Z</time></trkpt>
			<trkpt lat="54.471610" lon="22.010520"><ele>96.6</ele><time>2026-06-04T16:17:52Z</time></trkpt>
			<trkpt lat="54.471420" lon="22.009740"><ele>97.5</ele><time>2026-06-04T16:17:59Z</time></trkpt>
			<trkpt lat="54.471020" lon="22.003870"><ele>103.9</ele><time>2026-06-04T16:18:06Z</time></trkpt>
			<trkpt lat="54.470600" lon="21.998240"><ele>109.0</ele><time>2026-06-04T16:18:13Z</time></trkpt>
			<trkpt lat="54.469960" lon="21.989980"><ele>116.6</ele><time>2026-06-04T16:18:20Z</time></trkpt>
			<trkpt lat="54.469900" lon="21.988790"><ele>117.7</ele><time>2026-06-04T16:18:26Z</time></trkpt>
			<trkpt lat="54.469860" lon="21.988390"><ele>118.0</ele><time>2026-06-04T16:18:33Z</time></trkpt>
			<trkpt lat="54.469500" lon="21.988370"><ele>118.3</ele><time>2026-06-04T16:18:40Z</time></trkpt>
			<trkpt lat="54.468370" lon="21.988210"><ele>119.4</ele><time>2026-06-04T16:18:47Z</time></trkpt>
			<trkpt lat="54.468130" lon="21.988130"><ele>119.7</ele><time>2026-06-04T16:18:53Z</time></trkpt>
			<trkpt lat="54.468020" lon="21.988070"><ele>119.8</ele><time>2026-06-04T16:19:00Z</time></trkpt>
			<trkpt lat="54.466270" lon="21.986850"><ele>121.6</ele><time>2026-06-04T16:19:07Z</time></trkpt>
			<trkpt lat="54.465930" lon="21.986600"><ele>122.0</ele><time>2026-06-04T16:19:14Z</time></trkpt>
			<trkpt lat="54.464270" lon="21.985380"><ele>123.8</ele><time>2026-06-04T16:19:20Z</time></trkpt>
			<trkpt lat="54.464160" lon="21.985280"><ele>123.9</ele><time>2026-06-04T16:19:27Z</time></trkpt>
			<trkpt lat="54.463960" lon="21.985180"><ele>124.1</ele><time>2026-06-04T16:19:34Z</time></trkpt>
			<trkpt lat="54.463770" lon="21.985130"><ele>124.3</ele><time>2026-06-04T16:19:41Z</time></trkpt>
			<trkpt lat="54.461750" lon="21.984900"><ele>126.3</ele><time>2026-06-04T16:19:48Z</time></trkpt>
			<trkpt lat="54.460660" lon="21.984750"><ele>126.2</ele><time>2026-06-04T16:19:54Z</time></trkpt>
			<trkpt lat="54.459970" lon="21.984690"><ele>125.7</ele><time>2026-06-04T16:20:01Z</time></trkpt>
			<trkpt lat="54.458140" lon="21.984530"><ele>124.6</ele><time>2026-06-04T16:20:08Z</time></trkpt>
			<trkpt lat="54.457950" lon="21.984530"><ele>124.5</ele><time>2026-06-04T16:20:15Z</time></trkpt>
			<trkpt lat="54.457790" lon="21.984590"><ele>124.4</ele><time>2026-06-04T16:20:21Z</time></trkpt>
			<trkpt lat="54.455440" lon="21.985450"><ele>122.9</ele><time>2026-06-04T16:20:28Z</time></trkpt>
			<trkpt lat="54.455280" lon="21.985560"><ele>122.8</ele><time>2026-06-04T16:20:35Z</time></trkpt>
			<trkpt lat="54.455140" lon="21.985730"><ele>122.7</ele><time>2026-06-04T16:20:42Z</time></trkpt>
			<trkpt lat="54.453970" lon="21.987240"><ele>121.9</ele><time>2026-06-04T16:20:48Z</time></trkpt>
			<trkpt lat="54.450480" lon="21.991820"><ele>117.1</ele><time>2026-06-04T16:20:55Z</time></trkpt>
			<trkpt lat="54.450310" lon="21.992110"><ele>116.8</ele><time>2026-06-04T16:21:02Z</time></trkpt>
			<trkpt lat="54.450130" lon="21.992530"><ele>116.4</ele><time>2026-06-04T16:21:09Z</time></trkpt>
			<trkpt lat="54.449630" lon="21.994110"><ele>115.1</ele><time>2026-06-04T16:21:16Z</time></trkpt>
			<trkpt lat="54.449490" lon="21.994460"><ele>114.8</ele><time>2026-06-04T16:21:22Z</time></trkpt>
			<trkpt lat="54.449300" lon="21.994820"><ele>114.5</ele><time>2026-06-04T16:21:29Z</time></trkpt>
			<trkpt lat="54.449110" lon="21.995110"><ele>114.2</ele><time>2026-06-04T16:21:36Z</time></trkpt>
			<trkpt lat="54.448920" lon="21.995340"><ele>113.9</ele><time>2026-06-04T16:21:43Z</time></trkpt>
			<trkpt lat="54.448690" lon="21.995580"><ele>113.5</ele><time>2026-06-04T16:21:49Z</time></trkpt>
			<trkpt lat="54.448410" lon="21.995780"><ele>113.2</ele><time>2026-06-04T16:21:56Z</time></trkpt>
			<trkpt lat="54.447540" lon="21.996200"><ele>112.0</ele><time>2026-06-04T16:22:03Z</time></trkpt>
			<trkpt lat="54.447540" lon="21.996200"><ele>112.0</ele><time>2026-06-04T16:22:07Z</time></trkpt>
			<trkpt lat="54.444600" lon="21.997630"><ele>108.2</ele><time>2026-06-04T16:22:11Z</time></trkpt>
			<trkpt lat="54.444240" lon="21.997820"><ele>107.7</ele><time>2026-06-04T16:22:14Z</time></trkpt>
			<trkpt lat="54.444000" lon="21.997940"><ele>107.4</ele><time>2026-06-04T16:22:18Z</time></trkpt>
			<trkpt lat="54.443580" lon="21.998080"><ele>106.8</ele><time>2026-06-04T16:22:22Z</time></trkpt>
			<trkpt lat="54.443380" lon="21.998140"><ele>106.6</ele><time>2026-06-04T16:22:26Z</time></trkpt>
			<trkpt lat="54.442450" lon="21.998290"><ele>105.3</ele><time>2026-06-04T16:22:30Z</time></trkpt>
			<trkpt lat="54.442280" lon="21.998330"><ele>105.1</ele><time>2026-06-04T16:22:34Z</time></trkpt>
			<trkpt lat="54.442040" lon="21.998360"><ele>104.8</ele><time>2026-06-04T16:22:38Z</time></trkpt>
			<trkpt lat="54.441760" lon="21.998390"><ele>104.5</ele><time>2026-06-04T16:22:42Z</time></trkpt>
			<trkpt lat="54.441170" lon="21.998440"><ele>103.7</ele><time>2026-06-04T16:22:45Z</time></trkpt>
			<trkpt lat="54.438870" lon="21.998130"><ele>100.7</ele><time>2026-06-04T16:22:49Z</time></trkpt>
			<trkpt lat="54.438400" lon="21.998110"><ele>100.1</ele><time>2026-06-04T16:22:53Z</time></trkpt>
			<trkpt lat="54.438150" lon="21.998110"><ele>99.8</ele><time>2026-06-04T16:22:57Z</time></trkpt>
			<trkpt lat="54.437870" lon="21.998170"><ele>99.4</ele><time>2026-06-04T16:23:01Z</time></trkpt>
			<trkpt lat="54.437570" lon="21.998300"><ele>99.0</ele><time>2026-06-04T16:23:05Z</time></trkpt>
			<trkpt lat="54.432450" lon="22.001220"><ele>98.7</ele><time>2026-06-04T16:23:09Z</time></trkpt>
			<trkpt lat="54.432220" lon="22.001330"><ele>98.7</ele><time>2026-06-04T16:23:13Z</time></trkpt>
			<trkpt lat="54.431980" lon="22.001400"><ele>98.7</ele><time>2026-06-04T16:23:16Z</time></trkpt>
			<trkpt lat="54.431640" lon="22.001460"><ele>98.8</ele><time>2026-06-04T16:23:20Z</time></trkpt>
			<trkpt lat="54.428540" lon="22.001900"><ele>99.0</ele><time>2026-06-04T16:23:24Z</time></trkpt>
			<trkpt lat="54.428170" lon="22.002020"><ele>99.0</ele><time>2026-06-04T16:23:28Z</time></trkpt>
			<trkpt lat="54.426580" lon="22.002830"><ele>98.9</ele><time>2026-06-04T16:23:32Z</time></trkpt>
			<trkpt lat="54.425130" lon="22.003620"><ele>98.8</ele><time>2026-06-04T16:23:36Z</time></trkpt>
			<trkpt lat="54.424880" lon="22.003830"><ele>98.8</ele><time>2026-06-04T16:23:40Z</time></trkpt>
			<trkpt lat="54.424660" lon="22.004040"><ele>98.8</ele><time>2026-06-04T16:23:44Z</time></trkpt>
			<trkpt lat="54.419500" lon="22.009630"><ele>95.8</ele><time>2026-06-04T16:23:47Z</time></trkpt>
			<trkpt lat="54.418710" lon="22.010690"><ele>93.0</ele><time>2026-06-04T16:23:51Z</time></trkpt>
			<trkpt lat="54.418540" lon="22.010910"><ele>92.5</ele><time>2026-06-04T16:23:55Z</time></trkpt>
			<trkpt lat="54.418320" lon="22.011110"><ele>91.8</ele><time>2026-06-04T16:23:59Z</time></trkpt>
			<trkpt lat="54.418100" lon="22.011390"><ele>91.0</ele><time>2026-06-04T16:24:03Z</time></trkpt>
			<trkpt lat="54.417290" lon="22.012480"><ele>88.3</ele><time>2026-06-04T16:24:07Z</time></trkpt>
			<trkpt lat="54.416820" lon="22.013150"><ele>86.6</ele><time>2026-06-04T16:24:11Z</time></trkpt>
			<trkpt lat="54.416400" lon="22.013650"><ele>85.2</ele><time>2026-06-04T16:24:14Z</time></trkpt>
			<trkpt lat="54.416170" lon="22.013900"><ele>84.5</ele><time>2026-06-04T16:24:18Z</time></trkpt>
			<trkpt lat="54.415970" lon="22.014080"><ele>83.9</ele><time>2026-06-04T16:24:22Z</time></trkpt>
			<trkpt lat="54.415500" lon="22.014400"><ele>82.5</ele><time>2026-06-04T16:24:26Z</time></trkpt>
			<trkpt lat="54.414260" lon="22.015240"><ele>78.9</ele><time>2026-06-04T16:24:30Z</time></trkpt>
			<trkpt lat="54.414020" lon="22.015390"><ele>78.2</ele><time>2026-06-04T16:24:34Z</time></trkpt>
			<trkpt lat="54.413710" lon="22.015520"><ele>77.3</ele><time>2026-06-04T16:24:38Z</time></trkpt>
			<trkpt lat="54.413250" lon="22.015600"><ele>76.0</ele><time>2026-06-04T16:24:42Z</time></trkpt>
			<trkpt lat="54.412580" lon="22.015650"><ele>74.2</ele><time>2026-06-04T16:24:45Z</time></trkpt>
			<trkpt lat="54.412370" lon="22.015680"><ele>74.2</ele><time>2026-06-04T16:24:49Z</time></trkpt>
			<trkpt lat="54.412150" lon="22.015750"><ele>74.4</ele><time>2026-06-04T16:24:53Z</time></trkpt>
			<trkpt lat="54.411300" lon="22.016270"><ele>75.5</ele><time>2026-06-04T16:24:57Z</time></trkpt>
			<trkpt lat="54.411050" lon="22.016390"><ele>75.8</ele><time>2026-06-04T16:25:01Z</time></trkpt>
			<trkpt lat="54.410890" lon="22.016420"><ele>75.9</ele><time>2026-06-04T16:25:05Z</time></trkpt>
			<trkpt lat="54.409770" lon="22.016460"><ele>77.2</ele><time>2026-06-04T16:25:09Z</time></trkpt>
			<trkpt lat="54.409540" lon="22.016210"><ele>77.5</ele><time>2026-06-04T16:25:13Z</time></trkpt>
			<trkpt lat="54.408690" lon="22.016560"><ele>78.5</ele><time>2026-06-04T16:25:16Z</time></trkpt>
			<trkpt lat="54.408320" lon="22.016890"><ele>79.0</ele><time>2026-06-04T16:25:20Z</time></trkpt>
			<trkpt lat="54.408140" lon="22.017110"><ele>79.2</ele><time>2026-06-04T16:25:24Z</time></trkpt>
			<trkpt lat="54.408030" lon="22.017270"><ele>79.4</ele><time>2026-06-04T16:25:28Z</time></trkpt>
			<trkpt lat="54.407920" lon="22.017350"><ele>79.5</ele><time>2026-06-04T16:25:32Z</time></trkpt>
			<trkpt lat="54.407810" lon="22.017390"><ele>79.7</ele><time>2026-06-04T16:25:36Z</time></trkpt>
			<trkpt lat="54.407340" lon="22.017510"><ele>80.2</ele><time>2026-06-04T16:25:40Z</time></trkpt>
			<trkpt lat="54.407010" lon="22.017600"><ele>80.6</ele><time>2026-06-04T16:25:43Z</time></trkpt>
			<trkpt lat="54.406780" lon="22.017650"><ele>80.8</ele><time>2026-06-04T16:25:47Z</time></trkpt>
			<trkpt lat="54.406530" lon="22.017750"><ele>81.1</ele><time>2026-06-04T16:25:51Z</time></trkpt>
			<trkpt lat="54.406260" lon="22.017860"><ele>81.4</ele><time>2026-06-04T16:25:55Z</time></trkpt>
			<trkpt lat="54.406160" lon="22.017880"><ele>81.5</ele><time>2026-06-04T16:25:59Z</time></trkpt>
			<trkpt lat="54.406080" lon="22.017880"><ele>81.6</ele><time>2026-06-04T16:26:03Z</time></trkpt>
			<trkpt lat="54.406010" lon="22.017840"><ele>81.7</ele><time>2026-06-04T16:26:07Z</time></trkpt>
			<trkpt lat="54.405930" lon="22.017770"><ele>81.8</ele><time>2026-06-04T16:26:11Z</time></trkpt>
			<trkpt lat="54.405860" lon="22.017690"><ele>81.9</ele><time>2026-06-04T16:26:14Z</time></trkpt>
			<trkpt lat="54.405800" lon="22.017550"><ele>82.0</ele><time>2026-06-04T16:26:18Z</time></trkpt>
			<trkpt lat="54.405770" lon="22.017380"><ele>82.2</ele><time>2026-06-04T16:26:22Z</time></trkpt>
			<trkpt lat="54.405770" lon="22.017160"><ele>82.3</ele><time>2026-06-04T16:26:26Z</time></trkpt>
			<trkpt lat="54.405780" lon="22.016320"><ele>82.9</ele><time>2026-06-04T16:26:30Z</time></trkpt>
			<trkpt lat="54.405760" lon="22.016050"><ele>83.0</ele><time>2026-06-04T16:26:34Z</time></trkpt>
			<trkpt lat="54.405690" lon="22.015820"><ele>83.2</ele><time>2026-06-04T16:26:38Z</time></trkpt>
			<trkpt lat="54.405590" lon="22.015640"><ele>83.4</ele><time>2026-06-04T16:26:42Z</time></trkpt>
			<trkpt lat="54.405440" lon="22.015510"><ele>83.6</ele><time>2026-06-04T16:26:45Z</time></trkpt>
			<trkpt lat="54.405170" lon="22.015460"><ele>83.9</ele><time>2026-06-04T16:26:49Z</time></trkpt>
			<trkpt lat="54.404900" lon="22.015420"><ele>84.2</ele><time>2026-06-04T16:26:53Z</time></trkpt>
			<trkpt lat="54.404530" lon="22.015380"><ele>84.7</ele><time>2026-06-04T16:26:57Z</time></trkpt>
			<trkpt lat="54.404300" lon="22.015380"><ele>85.0</ele><time>2026-06-04T16:27:01Z</time></trkpt>
			<trkpt lat="54.404260" lon="22.015410"><ele>85.0</ele><time>2026-06-04T16:27:05Z</time></trkpt>
			<trkpt lat="54.404260" lon="22.015410"><ele>85.0</ele><time>2026-06-04T16:27:08Z</time></trkpt>
			<trkpt lat="54.404110" lon="22.015530"><ele>85.3</ele><time>2026-06-04T16:27:11Z</time></trkpt>
			<trkpt lat="54.404040" lon="22.015640"><ele>85.4</ele><time>2026-06-04T16:27:14Z</time></trkpt>
			<trkpt lat="54.403940" lon="22.015940"><ele>85.7</ele><time>2026-06-04T16:27:17Z</time></trkpt>
			<trkpt lat="54.403850" lon="22.016800"><ele>86.4</ele><time>2026-06-04T16:27:20Z</time></trkpt>
			<trkpt lat="54.403770" lon="22.017550"><ele>87.0</ele><time>2026-06-04T16:27:23Z</time></trkpt>
			<trkpt lat="54.403760" lon="22.017620"><ele>87.1</ele><time>2026-06-04T16:27:26Z</time></trkpt>
			<trkpt lat="54.403690" lon="22.018490"><ele>87.8</ele><time>2026-06-04T16:27:29Z</time></trkpt>
			<trkpt lat="54.403620" lon="22.018950"><ele>88.2</ele><time>2026-06-04T16:27:32Z</time></trkpt>
			<trkpt lat="54.403550" lon="22.019280"><ele>88.4</ele><time>2026-06-04T16:27:36Z</time></trkpt>
			<trkpt lat="54.403480" lon="22.019490"><ele>88.6</ele><time>2026-06-04T16:27:39Z</time></trkpt>
			<trkpt lat="54.403360" lon="22.019830"><ele>88.9</ele><time>2026-06-04T16:27:42Z</time></trkpt>
			<trkpt lat="54.403230" lon="22.020130"><ele>89.3</ele><time>2026-06-04T16:27:45Z</time></trkpt>
			<trkpt lat="54.403170" lon="22.020340"><ele>89.4</ele><time>2026-06-04T16:27:48Z</time></trkpt>
			<trkpt lat="54.403140" lon="22.020550"><ele>89.6</ele><time>2026-06-04T16:27:51Z</time></trkpt>
			<trkpt lat="54.403130" lon="22.020750"><ele>89.8</ele><time>2026-06-04T16:27:54Z</time></trkpt>
			<trkpt lat="54.403140" lon="22.021250"><ele>90.2</ele><time>2026-06-04T16:27:57Z</time></trkpt>
			<trkpt lat="54.403260" lon="22.024490"><ele>92.8</ele><time>2026-06-04T16:28:00Z</time></trkpt>
			<trkpt lat="54.403270" lon="22.024660"><ele>92.9</ele><time>2026-06-04T16:28:03Z</time></trkpt>
			<trkpt lat="54.403250" lon="22.025410"><ele>93.5</ele><time>2026-06-04T16:28:06Z</time></trkpt>
			<trkpt lat="54.403090" lon="22.026670"><ele>94.6</ele><time>2026-06-04T16:28:09Z</time></trkpt>
			<trkpt lat="54.402850" lon="22.028690"><ele>96.2</ele><time>2026-06-04T16:28:13Z</time></trkpt>
			<trkpt lat="54.402670" lon="22.030040"><ele>96.4</ele><time>2026-06-04T16:28:16Z</time></trkpt>
			<trkpt lat="54.402640" lon="22.030460"><ele>96.4</ele><time>2026-06-04T16:28:19Z</time></trkpt>
			<trkpt lat="54.402640" lon="22.030800"><ele>96.3</ele><time>2026-06-04T16:28:22Z</time></trkpt>
			<trkpt lat="54.402670" lon="22.031070"><ele>96.2</ele><time>2026-06-04T16:28:25Z</time></trkpt>
			<trkpt lat="54.402850" lon="22.031950"><ele>96.0</ele><time>2026-06-04T16:28:28Z</time></trkpt>
			<trkpt lat="54.403620" lon="22.035760"><ele>95.1</ele><time>2026-06-04T16:28:31Z</time></trkpt>
			<trkpt lat="54.403660" lon="22.036210"><ele>94.9</ele><time>2026-06-04T16:28:34Z</time></trkpt>
			<trkpt lat="54.407100" lon="22.040570"><ele>93.2</ele><time>2026-06-04T16:28:37Z</time></trkpt>
			<trkpt lat="54.407170" lon="22.040670"><ele>93.2</ele><time>2026-06-04T16:28:40Z</time></trkpt>
			<trkpt lat="54.407230" lon="22.040770"><ele>93.2</ele><time>2026-06-04T16:28:43Z</time></trkpt>
			<trkpt lat="54.407240" lon="22.040900"><ele>93.1</ele><time>2026-06-04T16:28:46Z</time></trkpt>
			<trkpt lat="54.407220" lon="22.041030"><ele>93.1</ele><time>2026-06-04T16:28:50Z</time></trkpt>
			<trkpt lat="54.406650" lon="22.042010"><ele>92.8</ele><time>2026-06-04T16:28:53Z</time></trkpt>
			<trkpt lat="54.406190" lon="22.042750"><ele>92.5</ele><time>2026-06-04T16:28:56Z</time></trkpt>
			<trkpt lat="54.405750" lon="22.043530"><ele>92.2</ele><time>2026-06-04T16:28:59Z</time></trkpt>
			<trkpt lat="54.405730" lon="22.043580"><ele>92.2</ele><time>2026-06-04T16:29:02Z</time></trkpt>
			<trkpt lat="54.405720" lon="22.043780"><ele>92.2</ele><time>2026-06-04T16:29:05Z</time></trkpt>
			<trkpt lat="54.405740" lon="22.043860"><ele>92.1</ele><time>2026-06-04T16:29:08Z</time></trkpt>
			<trkpt lat="54.405780" lon="22.043930"><ele>92.1</ele><time>2026-06-04T16:29:11Z</time></trkpt>
			<trkpt lat="54.405960" lon="22.044220"><ele>92.0</ele><time>2026-06-04T16:29:14Z</time></trkpt>
			<trkpt lat="54.406030" lon="22.044320"><ele>92.0</ele><time>2026-06-04T16:29:17Z</time></trkpt>
			<trkpt lat="54.406130" lon="22.044430"><ele>91.9</ele><time>2026-06-04T16:29:20Z</time></trkpt>
			<trkpt lat="54.406440" lon="22.044720"><ele>91.8</ele><time>2026-06-04T16:29:23Z</time></trkpt>
			<trkpt lat="54.406660" lon="22.044980"><ele>91.6</ele><time>2026-06-04T16:29:27Z</time></trkpt>
			<trkpt lat="54.406750" lon="22.045120"><ele>91.6</ele><time>2026-06-04T16:29:30Z</time></trkpt>
			<trkpt lat="54.406820" lon="22.045270"><ele>91.5</ele><time>2026-06-04T16:29:33Z</time></trkpt>
			<trkpt lat="54.408190" lon="22.048810"><ele>90.5</ele><time>2026-06-04T16:29:36Z</time></trkpt>
			<trkpt lat="54.408850" lon="22.050560"><ele>90.0</ele><time>2026-06-04T16:29:39Z</time></trkpt>
			<trkpt lat="54.408850" lon="22.050560"><ele>90.0</ele><time>2026-06-04T16:29:44Z</time></trkpt>
			<trkpt lat="54.409330" lon="22.051810"><ele>89.6</ele><time>2026-06-04T16:29:49Z</time></trkpt>
			<trkpt lat="54.410910" lon="22.055810"><ele>89.2</ele><time>2026-06-04T16:29:54Z</time></trkpt>
			<trkpt lat="54.411540" lon="22.057490"><ele>89.3</ele><time>2026-06-04T16:29:58Z</time></trkpt>
			<trkpt lat="54.411920" lon="22.058540"><ele>89.3</ele><time>2026-06-04T16:30:03Z</time></trkpt>
			<trkpt lat="54.412440" lon="22.060090"><ele>89.3</ele><time>2026-06-04T16:30:08Z</time></trkpt>
			<trkpt lat="54.412910" lon="22.061620"><ele>89.3</ele><time>2026-06-04T16:30:13Z</time></trkpt>
			<trkpt lat="54.414010" lon="22.065160"><ele>89.4</ele><time>2026-06-04T16:30:18Z</time></trkpt>
			<trkpt lat="54.414380" lon="22.066220"><ele>89.4</ele><time>2026-06-04T16:30:23Z</time></trkpt>
			<trkpt lat="54.414550" lon="22.066620"><ele>89.4</ele><time>2026-06-04T16:30:28Z</time></trkpt>
			<trkpt lat="54.414690" lon="22.066870"><ele>89.4</ele><time>2026-06-04T16:30:33Z</time></trkpt>
			<trkpt lat="54.415170" lon="22.067660"><ele>89.4</ele><time>2026-06-04T16:30:38Z</time></trkpt>
			<trkpt lat="54.415330" lon="22.067990"><ele>89.4</ele><time>2026-06-04T16:30:42Z</time></trkpt>
			<trkpt lat="54.415410" lon="22.068210"><ele>89.3</ele><time>2026-06-04T16:30:47Z</time></trkpt>
			<trkpt lat="54.415650" lon="22.068440"><ele>89.3</ele><time>2026-06-04T16:30:52Z</time></trkpt>
			<trkpt lat="54.417070" lon="22.069420"><ele>89.2</ele><time>2026-06-04T16:30:57Z</time></trkpt>
			<trkpt lat="54.417560" lon="22.069820"><ele>89.2</ele><time>2026-06-04T16:31:02Z</time></trkpt>
			<trkpt lat="54.417730" lon="22.070040"><ele>89.2</ele><time>2026-06-04T16:31:07Z</time></trkpt>
			<trkpt lat="54.417880" lon="22.070270"><ele>89.2</ele><time>2026-06-04T16:31:12Z</time></trkpt>
			<trkpt lat="54.417990" lon="22.070490"><ele>89.2</ele><time>2026-06-04T16:31:17Z</time></trkpt>
			<trkpt lat="54.418080" lon="22.070760"><ele>89.1</ele><time>2026-06-04T16:31:22Z</time></trkpt>
			<trkpt lat="54.418140" lon="22.071040"><ele>89.1</ele><time>2026-06-04T16:31:27Z</time></trkpt>
			<trkpt lat="54.418600" lon="22.074040"><ele>89.0</ele><time>2026-06-04T16:31:31Z</time></trkpt>
			<trkpt lat="54.419410" lon="22.079370"><ele>88.8</ele><time>2026-06-04T16:31:36Z</time></trkpt>
			<trkpt lat="54.419430" lon="22.079620"><ele>88.8</ele><time>2026-06-04T16:31:41Z</time></trkpt>
			<trkpt lat="54.418470" lon="22.095970"><ele>87.8</ele><time>2026-06-04T16:31:46Z</time></trkpt>
			<trkpt lat="54.418620" lon="22.098140"><ele>87.5</ele><time>2026-06-04T16:31:51Z</time></trkpt>
			<trkpt lat="54.418560" lon="22.098560"><ele>87.5</ele><time>2026-06-04T16:31:56Z</time></trkpt>
			<trkpt lat="54.418330" lon="22.099310"><ele>87.4</ele><time>2026-06-04T16:32:01Z</time></trkpt>
			<trkpt lat="54.418270" lon="22.099420"><ele>87.3</ele><time>2026-06-04T16:32:06Z</time></trkpt>
			<trkpt lat="54.415950" lon="22.104360"><ele>86.4</ele><time>2026-06-04T16:32:11Z</time></trkpt>
			<trkpt lat="54.415380" lon="22.105730"><ele>86.2</ele><time>2026-06-04T16:32:15Z</time></trkpt>
			<trkpt lat="54.414150" lon="22.108990"><ele>86.7</ele><time>2026-06-04T16:32:20Z</time></trkpt>
			<trkpt lat="54.413710" lon="22.110640"><ele>87.3</ele><time>2026-06-04T16:32:25Z</time></trkpt>
			<trkpt lat="54.413460" lon="22.111660"><ele>87.6</ele><time>2026-06-04T16:32:30Z</time></trkpt>
			<trkpt lat="54.412960" lon="22.113580"><ele>88.2</ele><time>2026-06-04T16:32:35Z</time></trkpt>
			<trkpt lat="54.412930" lon="22.114080"><ele>88.3</ele><time>2026-06-04T16:32:40Z</time></trkpt>
			<trkpt lat="54.413010" lon="22.115940"><ele>88.9</ele><time>2026-06-04T16:32:45Z</time></trkpt>
			<trkpt lat="54.413260" lon="22.120970"><ele>90.3</ele><time>2026-06-04T16:32:50Z</time></trkpt>
			<trkpt lat="54.413660" lon="22.128910"><ele>89.8</ele><time>2026-06-04T16:32:55Z</time></trkpt>
			<trkpt lat="54.413810" lon="22.131820"><ele>89.6</ele><time>2026-06-04T16:33:00Z</time></trkpt>
			<trkpt lat="54.414160" lon="22.137630"><ele>89.3</ele><time>2026-06-04T16:33:04Z</time></trkpt>
			<trkpt lat="54.414550" lon="22.145480"><ele>90.6</ele><time>2026-06-04T16:33:09Z</time></trkpt>
			<trkpt lat="54.414550" lon="22.145970"><ele>90.7</ele><time>2026-06-04T16:33:14Z</time></trkpt>
			<trkpt lat="54.414370" lon="22.148310"><ele>91.1</ele><time>2026-06-04T16:33:19Z</time></trkpt>
			<trkpt lat="54.414040" lon="22.152370"><ele>91.7</ele><time>2026-06-04T16:33:24Z</time></trkpt>
			<trkpt lat="54.413950" lon="22.153470"><ele>91.2</ele><time>2026-06-04T16:33:29Z</time></trkpt>
			<trkpt lat="54.413860" lon="22.154230"><ele>90.9</ele><time>2026-06-04T16:33:34Z</time></trkpt>
			<trkpt lat="54.413820" lon="22.154760"><ele>90.7</ele><time>2026-06-04T16:33:39Z</time></trkpt>
			<trkpt lat="54.413870" lon="22.155360"><ele>90.4</ele><time>2026-06-04T16:33:44Z</time></trkpt>
			<trkpt lat="54.413950" lon="22.156200"><ele>90.1</ele><time>2026-06-04T16:33:48Z</time></trkpt>
			<trkpt lat="54.414090" lon="22.157280"><ele>89.7</ele><time>2026-06-04T16:33:53Z</time></trkpt>
			<trkpt lat="54.414190" lon="22.157970"><ele>89.4</ele><time>2026-06-04T16:33:58Z</time></trkpt>
			<trkpt lat="54.414210" lon="22.158050"><ele>89.3</ele><time>2026-06-04T16:34:03Z</time></trkpt>
			<trkpt lat="54.414600" lon="22.160360"><ele>88.4</ele><time>2026-06-04T16:34:08Z</time></trkpt>
			<trkpt lat="54.414720" lon="22.161210"><ele>88.0</ele><time>2026-06-04T16:34:13Z</time></trkpt>
			<trkpt lat="54.414730" lon="22.161540"><ele>87.9</ele><time>2026-06-04T16:34:18Z</time></trkpt>
			<trkpt lat="54.414690" lon="22.161920"><ele>87.7</ele><time>2026-06-04T16:34:23Z</time></trkpt>
			<trkpt lat="54.414460" lon="22.162950"><ele>87.3</ele><time>2026-06-04T16:34:28Z</time></trkpt>
			<trkpt lat="54.414090" lon="22.164640"><ele>86.6</ele><time>2026-06-04T16:34:32Z</time></trkpt>
			<trkpt lat="54.414070" lon="22.164960"><ele>86.4</ele><time>2026-06-04T16:34:37Z</time></trkpt>
			<trkpt lat="54.414080" lon="22.165230"><ele>86.3</ele><time>2026-06-04T16:34:42Z</time></trkpt>
			<trkpt lat="54.414190" lon="22.167180"><ele>85.5</ele><time>2026-06-04T16:34:47Z</time></trkpt>
			<trkpt lat="54.414180" lon="22.167790"><ele>85.2</ele><time>2026-06-04T16:34:52Z</time></trkpt>
			<trkpt lat="54.413770" lon="22.183170"><ele>77.8</ele><time>2026-06-04T16:34:57Z</time></trkpt>
			<trkpt lat="54.413770" lon="22.183550"><ele>78.1</ele><time>2026-06-04T16:35:02Z</time></trkpt>
			<trkpt lat="54.413800" lon="22.183810"><ele>78.2</ele><time>2026-06-04T16:35:07Z</time></trkpt>
			<trkpt lat="54.413930" lon="22.184010"><ele>78.4</ele><time>2026-06-04T16:35:12Z</time></trkpt>
			<trkpt lat="54.414740" lon="22.184720"><ele>79.4</ele><time>2026-06-04T16:35:17Z</time></trkpt>
			<trkpt lat="54.415050" lon="22.184990"><ele>79.8</ele><time>2026-06-04T16:35:21Z</time></trkpt>
			<trkpt lat="54.415270" lon="22.185140"><ele>80.0</ele><time>2026-06-04T16:35:26Z</time></trkpt>
			<trkpt lat="54.415420" lon="22.185270"><ele>80.2</ele><time>2026-06-04T16:35:31Z</time></trkpt>
			<trkpt lat="54.415560" lon="22.185430"><ele>80.4</ele><time>2026-06-04T16:35:36Z</time></trkpt>
			<trkpt lat="54.415630" lon="22.185660"><ele>80.5</ele><time>2026-06-04T16:35:41Z</time></trkpt>
			<trkpt lat="54.415650" lon="22.185930"><ele>80.7</ele><time>2026-06-04T16:35:46Z</time></trkpt>
			<trkpt lat="54.415620" lon="22.186220"><ele>80.9</ele><time>2026-06-04T16:35:51Z</time></trkpt>
			<trkpt lat="54.415410" lon="22.186750"><ele>81.3</ele><time>2026-06-04T16:35:56Z</time></trkpt>
			<trkpt lat="54.415150" lon="22.187270"><ele>81.7</ele><time>2026-06-04T16:36:01Z</time></trkpt>
			<trkpt lat="54.414900" lon="22.187970"><ele>82.2</ele><time>2026-06-04T16:36:05Z</time></trkpt>
			<trkpt lat="54.414660" lon="22.188740"><ele>82.8</ele><time>2026-06-04T16:36:10Z</time></trkpt>
			<trkpt lat="54.414500" lon="22.189320"><ele>83.2</ele><time>2026-06-04T16:36:15Z</time></trkpt>
			<trkpt lat="54.413980" lon="22.193240"><ele>85.7</ele><time>2026-06-04T16:36:20Z</time></trkpt>
			<trkpt lat="54.413870" lon="22.193640"><ele>86.0</ele><time>2026-06-04T16:36:25Z</time></trkpt>
			<trkpt lat="54.413640" lon="22.194070"><ele>86.4</ele><time>2026-06-04T16:36:30Z</time></trkpt>
			<trkpt lat="54.411630" lon="22.197430"><ele>91.0</ele><time>2026-06-04T16:36:35Z</time></trkpt>
			<trkpt lat="54.411480" lon="22.197550"><ele>91.3</ele><time>2026-06-04T16:36:40Z</time></trkpt>
			<trkpt lat="54.411330" lon="22.197580"><ele>91.6</ele><time>2026-06-04T16:36:45Z</time></trkpt>
			<trkpt lat="54.411090" lon="22.197540"><ele>92.0</ele><time>2026-06-04T16:36:50Z</time></trkpt>
			<trkpt lat="54.410380" lon="22.197330"><ele>93.4</ele><time>2026-06-04T16:36:54Z</time></trkpt>
			<trkpt lat="54.409970" lon="22.197250"><ele>94.1</ele><time>2026-06-04T16:36:59Z</time></trkpt>
			<trkpt lat="54.409660" lon="22.197270"><ele>94.7</ele><time>2026-06-04T16:37:04Z</time></trkpt>
			<trkpt lat="54.407510" lon="22.197650"><ele>98.8</ele><time>2026-06-04T16:37:09Z</time></trkpt>
			<trkpt lat="54.407280" lon="22.197810"><ele>99.2</ele><time>2026-06-04T16:37:14Z</time></trkpt>
			<trkpt lat="54.405980" lon="22.199190"><ele>102.1</ele><time>2026-06-04T16:37:19Z</time></trkpt>
			<trkpt lat="54.405860" lon="22.199360"><ele>102.4</ele><time>2026-06-04T16:37:24Z</time></trkpt>
			<trkpt lat="54.405770" lon="22.199680"><ele>102.8</ele><time>2026-06-04T16:37:29Z</time></trkpt>
			<trkpt lat="54.405170" lon="22.202090"><ele>104.3</ele><time>2026-06-04T16:37:34Z</time></trkpt>
			<trkpt lat="54.405080" lon="22.202630"><ele>104.4</ele><time>2026-06-04T16:37:38Z</time></trkpt>
			<trkpt lat="54.405080" lon="22.202950"><ele>104.4</ele><time>2026-06-04T16:37:43Z</time></trkpt>
			<trkpt lat="54.405220" lon="22.205370"><ele>104.8</ele><time>2026-06-04T16:37:48Z</time></trkpt>
			<trkpt lat="54.405340" lon="22.207950"><ele>105.2</ele><time>2026-06-04T16:37:53Z</time></trkpt>
			<trkpt lat="54.405410" lon="22.209880"><ele>105.5</ele><time>2026-06-04T16:37:58Z</time></trkpt>
			<trkpt lat="54.405450" lon="22.210600"><ele>105.7</ele><time>2026-06-04T16:38:03Z</time></trkpt>
			<trkpt lat="54.405460" lon="22.210880"><ele>105.7</ele><time>2026-06-04T16:38:08Z</time></trkpt>
			<trkpt lat="54.405450" lon="22.211080"><ele>105.7</ele><time>2026-06-04T16:38:13Z</time></trkpt>
			<trkpt lat="54.405420" lon="22.211280"><ele>105.8</ele><time>2026-06-04T16:38:18Z</time></trkpt>
			<trkpt lat="54.404500" lon="22.215030"><ele>106.4</ele><time>2026-06-04T16:38:23Z</time></trkpt>
			<trkpt lat="54.404260" lon="22.215940"><ele>106.5</ele><time>2026-06-04T16:38:27Z</time></trkpt>
			<trkpt lat="54.402880" lon="22.220270"><ele>106.2</ele><time>2026-06-04T16:38:32Z</time></trkpt>
			<trkpt lat="54.401830" lon="22.224240"><ele>105.9</ele><time>2026-06-04T16:38:37Z</time></trkpt>
			<trkpt lat="54.401300" lon="22.225940"><ele>105.8</ele><time>2026-06-04T16:38:42Z</time></trkpt>
			<trkpt lat="54.400040" lon="22.229470"><ele>105.5</ele><time>2026-06-04T16:38:47Z</time></trkpt>
			<trkpt lat="54.399820" lon="22.230050"><ele>105.5</ele><time>2026-06-04T16:38:52Z</time></trkpt>
			<trkpt lat="54.399620" lon="22.230670"><ele>105.6</ele><time>2026-06-04T16:38:57Z</time></trkpt>
			<trkpt lat="54.398890" lon="22.234290"><ele>105.8</ele><time>2026-06-04T16:39:02Z</time></trkpt>
			<trkpt lat="54.398720" lon="22.236700"><ele>106.0</ele><time>2026-06-04T16:39:07Z</time></trkpt>
			<trkpt lat="54.398700" lon="22.236960"><ele>106.0</ele><time>2026-06-04T16:39:11Z</time></trkpt>
			<trkpt lat="54.398680" lon="22.237260"><ele>106.0</ele><time>2026-06-04T16:39:16Z</time></trkpt>
			<trkpt lat="54.398650" lon="22.237610"><ele>106.0</ele><time>2026-06-04T16:39:21Z</time></trkpt>
			<trkpt lat="54.398610" lon="22.237940"><ele>106.0</ele><time>2026-06-04T16:39:26Z</time></trkpt>
			<trkpt lat="54.398390" lon="22.238280"><ele>106.1</ele><time>2026-06-04T16:39:31Z</time></trkpt>
			<trkpt lat="54.398180" lon="22.238700"><ele>106.1</ele><time>2026-06-04T16:39:36Z</time></trkpt>
			<trkpt lat="54.397840" lon="22.239540"><ele>106.2</ele><time>2026-06-04T16:39:41Z</time></trkpt>
			<trkpt lat="54.397610" lon="22.240050"><ele>106.2</ele><time>2026-06-04T16:39:46Z</time></trkpt>
			<trkpt lat="54.397080" lon="22.241150"><ele>106.3</ele><time>2026-06-04T16:39:51Z</time></trkpt>
			<trkpt lat="54.396950" lon="22.241520"><ele>106.3</ele><time>2026-06-04T16:39:56Z</time></trkpt>
			<trkpt lat="54.396810" lon="22.241760"><ele>106.3</ele><time>2026-06-04T16:40:00Z</time></trkpt>
			<trkpt lat="54.396670" lon="22.241950"><ele>106.3</ele><time>2026-06-04T16:40:05Z</time></trkpt>
			<trkpt lat="54.396050" lon="22.242330"><ele>106.4</ele><time>2026-06-04T16:40:10Z</time></trkpt>
			<trkpt lat="54.395810" lon="22.242480"><ele>106.6</ele><time>2026-06-04T16:40:15Z</time></trkpt>
			<trkpt lat="54.395340" lon="22.242700"><ele>106.9</ele><time>2026-06-04T16:40:20Z</time></trkpt>
			<trkpt lat="54.395080" lon="22.242900"><ele>107.1</ele><time>2026-06-04T16:40:25Z</time></trkpt>
			<trkpt lat="54.394450" lon="22.243650"><ele>107.7</ele><time>2026-06-04T16:40:30Z</time></trkpt>
			<trkpt lat="54.394240" lon="22.243920"><ele>107.8</ele><time>2026-06-04T16:40:35Z</time></trkpt>
			<trkpt lat="54.392820" lon="22.245550"><ele>109.0</ele><time>2026-06-04T16:40:40Z</time></trkpt>
			<trkpt lat="54.392640" lon="22.245780"><ele>109.2</ele><time>2026-06-04T16:40:44Z</time></trkpt>
			<trkpt lat="54.392550" lon="22.245930"><ele>109.2</ele><time>2026-06-04T16:40:49Z</time></trkpt>
			<trkpt lat="54.392470" lon="22.246120"><ele>109.3</ele><time>2026-06-04T16:40:54Z</time></trkpt>
			<trkpt lat="54.392390" lon="22.246360"><ele>109.5</ele><time>2026-06-04T16:40:59Z</time></trkpt>
			<trkpt lat="54.391880" lon="22.248290"><ele>110.3</ele><time>2026-06-04T16:41:04Z</time></trkpt>
			<trkpt lat="54.391670" lon="22.249090"><ele>110.7</ele><time>2026-06-04T16:41:09Z</time></trkpt>
			<trkpt lat="54.391510" lon="22.249590"><ele>110.9</ele><time>2026-06-04T16:41:14Z</time></trkpt>
			<trkpt lat="54.390380" lon="22.252140"><ele>112.2</ele><time>2026-06-04T16:41:19Z</time></trkpt>
			<trkpt lat="54.390380" lon="22.252140"><ele>112.2</ele><time>2026-06-04T16:41:22Z</time></trkpt>
			<trkpt lat="54.389810" lon="22.253420"><ele>112.6</ele><time>2026-06-04T16:41:25Z</time></trkpt>
			<trkpt lat="54.388620" lon="22.256900"><ele>112.2</ele><time>2026-06-04T16:41:29Z</time></trkpt>
			<trkpt lat="54.388530" lon="22.257130"><ele>112.1</ele><time>2026-06-04T16:41:32Z</time></trkpt>
			<trkpt lat="54.388450" lon="22.257300"><ele>112.1</ele><time>2026-06-04T16:41:36Z</time></trkpt>
			<trkpt lat="54.388340" lon="22.257500"><ele>112.1</ele><time>2026-06-04T16:41:39Z</time></trkpt>
			<trkpt lat="54.388210" lon="22.257630"><ele>112.1</ele><time>2026-06-04T16:41:42Z</time></trkpt>
			<trkpt lat="54.388080" lon="22.257710"><ele>112.1</ele><time>2026-06-04T16:41:46Z</time></trkpt>
			<trkpt lat="54.387920" lon="22.257740"><ele>112.0</ele><time>2026-06-04T16:41:49Z</time></trkpt>
			<trkpt lat="54.387760" lon="22.257720"><ele>112.0</ele><time>2026-06-04T16:41:52Z</time></trkpt>
			<trkpt lat="54.385730" lon="22.256900"><ele>111.7</ele><time>2026-06-04T16:41:56Z</time></trkpt>
			<trkpt lat="54.385570" lon="22.256790"><ele>111.6</ele><time>2026-06-04T16:41:59Z</time></trkpt>
			<trkpt lat="54.384890" lon="22.255940"><ele>111.5</ele><time>2026-06-04T16:42:02Z</time></trkpt>
			<trkpt lat="54.384060" lon="22.254630"><ele>111.3</ele><time>2026-06-04T16:42:06Z</time></trkpt>
			<trkpt lat="54.383820" lon="22.254320"><ele>111.3</ele><time>2026-06-04T16:42:09Z</time></trkpt>
			<trkpt lat="54.383650" lon="22.254150"><ele>111.2</ele><time>2026-06-04T16:42:13Z</time></trkpt>
			<trkpt lat="54.383450" lon="22.254020"><ele>111.2</ele><time>2026-06-04T16:42:16Z</time></trkpt>
			<trkpt lat="54.383250" lon="22.253940"><ele>111.2</ele><time>2026-06-04T16:42:19Z</time></trkpt>
			<trkpt lat="54.383090" lon="22.253900"><ele>111.2</ele><time>2026-06-04T16:42:23Z</time></trkpt>
			<trkpt lat="54.382910" lon="22.253880"><ele>111.7</ele><time>2026-06-04T16:42:26Z</time></trkpt>
			<trkpt lat="54.382240" lon="22.254010"><ele>113.5</ele><time>2026-06-04T16:42:29Z</time></trkpt>
			<trkpt lat="54.381950" lon="22.254020"><ele>114.3</ele><time>2026-06-04T16:42:33Z</time></trkpt>
			<trkpt lat="54.381730" lon="22.253980"><ele>114.9</ele><time>2026-06-04T16:42:36Z</time></trkpt>
			<trkpt lat="54.381540" lon="22.253900"><ele>115.4</ele><time>2026-06-04T16:42:39Z</time></trkpt>
			<trkpt lat="54.381370" lon="22.253790"><ele>115.9</ele><time>2026-06-04T16:42:43Z</time></trkpt>
			<trkpt lat="54.381250" lon="22.253690"><ele>116.3</ele><time>2026-06-04T16:42:46Z</time></trkpt>
			<trkpt lat="54.381110" lon="22.253530"><ele>116.7</ele><time>2026-06-04T16:42:50Z</time></trkpt>
			<trkpt lat="54.380940" lon="22.253390"><ele>117.2</ele><time>2026-06-04T16:42:53Z</time></trkpt>
			<trkpt lat="54.380480" lon="22.253120"><ele>118.6</ele><time>2026-06-04T16:42:56Z</time></trkpt>
			<trkpt lat="54.380270" lon="22.253100"><ele>119.1</ele><time>2026-06-04T16:43:00Z</time></trkpt>
			<trkpt lat="54.380080" lon="22.253130"><ele>119.6</ele><time>2026-06-04T16:43:03Z</time></trkpt>
			<trkpt lat="54.379670" lon="22.253280"><ele>120.8</ele><time>2026-06-04T16:43:06Z</time></trkpt>
			<trkpt lat="54.379480" lon="22.253380"><ele>121.3</ele><time>2026-06-04T16:43:10Z</time></trkpt>
			<trkpt lat="54.379350" lon="22.253510"><ele>121.7</ele><time>2026-06-04T16:43:13Z</time></trkpt>
			<trkpt lat="54.379260" lon="22.253660"><ele>122.0</ele><time>2026-06-04T16:43:16Z</time></trkpt>
			<trkpt lat="54.378140" lon="22.255530"><ele>126.3</ele><time>2026-06-04T16:43:20Z</time></trkpt>
			<trkpt lat="54.377220" lon="22.257090"><ele>129.8</ele><time>2026-06-04T16:43:23Z</time></trkpt>
			<trkpt lat="54.372330" lon="22.265250"><ele>142.4</ele><time>2026-06-04T16:43:27Z</time></trkpt>
			<trkpt lat="54.371190" lon="22.267630"><ele>145.0</ele><time>2026-06-04T16:43:30Z</time></trkpt>
			<trkpt lat="54.371030" lon="22.267920"><ele>145.3</ele><time>2026-06-04T16:43:33Z</time></trkpt>
			<trkpt lat="54.370910" lon="22.268070"><ele>145.6</ele><time>2026-06-04T16:43:37Z</time></trkpt>
			<trkpt lat="54.370750" lon="22.268220"><ele>145.8</ele><time>2026-06-04T16:43:40Z</time></trkpt>
			<trkpt lat="54.369260" lon="22.269130"><ele>148.2</ele><time>2026-06-04T16:43:43Z</time></trkpt>
			<trkpt lat="54.368790" lon="22.269390"><ele>148.5</ele><time>2026-06-04T16:43:47Z</time></trkpt>
			<trkpt lat="54.368370" lon="22.269690"><ele>148.0</ele><time>2026-06-04T16:43:50Z</time></trkpt>
			<trkpt lat="54.368180" lon="22.269860"><ele>147.7</ele><time>2026-06-04T16:43:53Z</time></trkpt>
			<trkpt lat="54.366350" lon="22.272070"><ele>145.3</ele><time>2026-06-04T16:43:57Z</time></trkpt>
			<trkpt lat="54.366240" lon="22.272250"><ele>145.1</ele><time>2026-06-04T16:44:00Z</time></trkpt>
			<trkpt lat="54.366170" lon="22.272450"><ele>144.9</ele><time>2026-06-04T16:44:04Z</time></trkpt>
			<trkpt lat="54.366000" lon="22.273050"><ele>144.5</ele><time>2026-06-04T16:44:07Z</time></trkpt>
			<trkpt lat="54.365750" lon="22.273900"><ele>143.9</ele><time>2026-06-04T16:44:10Z</time></trkpt>
			<trkpt lat="54.365590" lon="22.274530"><ele>143.5</ele><time>2026-06-04T16:44:14Z</time></trkpt>
			<trkpt lat="54.365310" lon="22.275870"><ele>142.5</ele><time>2026-06-04T16:44:17Z</time></trkpt>
			<trkpt lat="54.365030" lon="22.277470"><ele>141.5</ele><time>2026-06-04T16:44:20Z</time></trkpt>
			<trkpt lat="54.365000" lon="22.277730"><ele>141.3</ele><time>2026-06-04T16:44:24Z</time></trkpt>
			<trkpt lat="54.364960" lon="22.278170"><ele>141.0</ele><time>2026-06-04T16:44:27Z</time></trkpt>
			<trkpt lat="54.364960" lon="22.278570"><ele>140.7</ele><time>2026-06-04T16:44:30Z</time></trkpt>
			<trkpt lat="54.364980" lon="22.279100"><ele>140.4</ele><time>2026-06-04T16:44:34Z</time></trkpt>
			<trkpt lat="54.365000" lon="22.279510"><ele>140.1</ele><time>2026-06-04T16:44:37Z</time></trkpt>
			<trkpt lat="54.365010" lon="22.280000"><ele>139.8</ele><time>2026-06-04T16:44:41Z</time></trkpt>
			<trkpt lat="54.364980" lon="22.280280"><ele>139.6</ele><time>2026-06-04T16:44:44Z</time></trkpt>
			<trkpt lat="54.364930" lon="22.280400"><ele>139.5</ele><time>2026-06-04T16:44:47Z</time></trkpt>
			<trkpt lat="54.364880" lon="22.280540"><ele>139.4</ele><time>2026-06-04T16:44:51Z</time></trkpt>
			<trkpt lat="54.364860" lon="22.280580"><ele>139.4</ele><time>2026-06-04T16:44:54Z</time></trkpt>
			<trkpt lat="54.364680" lon="22.280830"><ele>139.1</ele><time>2026-06-04T16:44:57Z</time></trkpt>
			<trkpt lat="54.364040" lon="22.281640"><ele>140.4</ele><time>2026-06-04T16:45:01Z</time></trkpt>
			<trkpt lat="54.363830" lon="22.281940"><ele>141.7</ele><time>2026-06-04T16:45:04Z</time></trkpt>
			<trkpt lat="54.363400" lon="22.282340"><ele>144.0</ele><time>2026-06-04T16:45:07Z</time></trkpt>
			<trkpt lat="54.362080" lon="22.283250"><ele>150.5</ele><time>2026-06-04T16:45:11Z</time></trkpt>
			<trkpt lat="54.361550" lon="22.283620"><ele>153.2</ele><time>2026-06-04T16:45:14Z</time></trkpt>
			<trkpt lat="54.361130" lon="22.283870"><ele>155.2</ele><time>2026-06-04T16:45:17Z</time></trkpt>
			<trkpt lat="54.360880" lon="22.284170"><ele>156.7</ele><time>2026-06-04T16:45:21Z</time></trkpt>
			<trkpt lat="54.360620" lon="22.284490"><ele>158.1</ele><time>2026-06-04T16:45:24Z</time></trkpt>
			<trkpt lat="54.360410" lon="22.284910"><ele>159.6</ele><time>2026-06-04T16:45:28Z</time></trkpt>
			<trkpt lat="54.360040" lon="22.286140"><ele>163.4</ele><time>2026-06-04T16:45:31Z</time></trkpt>
			<trkpt lat="54.359980" lon="22.286330"><ele>163.9</ele><time>2026-06-04T16:45:34Z</time></trkpt>
			<trkpt lat="54.359680" lon="22.287300"><ele>166.9</ele><time>2026-06-04T16:45:38Z</time></trkpt>
			<trkpt lat="54.358770" lon="22.288710"><ele>172.6</ele><time>2026-06-04T16:45:41Z</time></trkpt>
			<trkpt lat="54.357560" lon="22.290480"><ele>179.9</ele><time>2026-06-04T16:45:44Z</time></trkpt>
			<trkpt lat="54.356100" lon="22.293100"><ele>180.5</ele><time>2026-06-04T16:45:48Z</time></trkpt>
			<trkpt lat="54.355050" lon="22.294170"><ele>180.6</ele><time>2026-06-04T16:45:51Z</time></trkpt>
			<trkpt lat="54.354110" lon="22.294640"><ele>180.7</ele><time>2026-06-04T16:45:54Z</time></trkpt>
			<trkpt lat="54.352860" lon="22.295810"><ele>180.8</ele><time>2026-06-04T16:45:58Z</time></trkpt>
			<trkpt lat="54.352400" lon="22.296060"><ele>180.9</ele><time>2026-06-04T16:46:01Z</time></trkpt>
			<trkpt lat="54.350950" lon="22.296040"><ele>181.0</ele><time>2026-06-04T16:46:05Z</time></trkpt>
			<trkpt lat="54.350380" lon="22.296370"><ele>181.1</ele><time>2026-06-04T16:46:08Z</time></trkpt>
			<trkpt lat="54.349890" lon="22.297120"><ele>181.1</ele><time>2026-06-04T16:46:11Z</time></trkpt>
			<trkpt lat="54.349130" lon="22.297810"><ele>178.9</ele><time>2026-06-04T16:46:15Z</time></trkpt>
			<trkpt lat="54.348360" lon="22.297920"><ele>176.4</ele><time>2026-06-04T16:46:18Z</time></trkpt>
			<trkpt lat="54.347980" lon="22.297920"><ele>175.2</ele><time>2026-06-04T16:46:21Z</time></trkpt>
			<trkpt lat="54.347710" lon="22.297970"><ele>174.4</ele><time>2026-06-04T16:46:25Z</time></trkpt>
			<trkpt lat="54.347600" lon="22.298020"><ele>174.0</ele><time>2026-06-04T16:46:28Z</time></trkpt>
			<trkpt lat="54.347500" lon="22.298060"><ele>173.7</ele><time>2026-06-04T16:46:31Z</time></trkpt>
			<trkpt lat="54.347370" lon="22.298150"><ele>173.3</ele><time>2026-06-04T16:46:35Z</time></trkpt>
			<trkpt lat="54.347270" lon="22.298220"><ele>172.9</ele><time>2026-06-04T16:46:38Z</time></trkpt>
			<trkpt lat="54.347190" lon="22.298320"><ele>172.6</ele><time>2026-06-04T16:46:42Z</time></trkpt>
			<trkpt lat="54.346980" lon="22.298520"><ele>171.8</ele><time>2026-06-04T16:46:45Z</time></trkpt>
			<trkpt lat="54.346920" lon="22.298600"><ele>171.6</ele><time>2026-06-04T16:46:48Z</time></trkpt>
			<trkpt lat="54.346900" lon="22.298570"><ele>171.5</ele><time>2026-06-04T16:46:52Z</time></trkpt>
			<trkpt lat="54.346870" lon="22.298560"><ele>171.4</ele><time>2026-06-04T16:46:55Z</time></trkpt>
			<trkpt lat="54.346840" lon="22.298570"><ele>171.3</ele><time>2026-06-04T16:46:58Z</time></trkpt>
			<trkpt lat="54.346820" lon="22.298600"><ele>171.2</ele><time>2026-06-04T16:47:02Z</time></trkpt>
			<trkpt lat="54.346800" lon="22.298650"><ele>171.1</ele><time>2026-06-04T16:47:05Z</time></trkpt>
			<trkpt lat="54.346800" lon="22.298690"><ele>171.1</ele><time>2026-06-04T16:47:08Z</time></trkpt>
			<trkpt lat="54.346800" lon="22.298740"><ele>171.0</ele><time>2026-06-04T16:47:12Z</time></trkpt>
			<trkpt lat="54.346820" lon="22.298780"><ele>170.9</ele><time>2026-06-04T16:47:15Z</time></trkpt>
			<trkpt lat="54.346840" lon="22.298810"><ele>170.8</ele><time>2026-06-04T16:47:19Z</time></trkpt>
			<trkpt lat="54.346870" lon="22.298820"><ele>170.7</ele><time>2026-06-04T16:47:22Z</time></trkpt>
			<trkpt lat="54.346900" lon="22.298810"><ele>170.6</ele><time>2026-06-04T16:47:25Z</time></trkpt>
			<trkpt lat="54.346920" lon="22.298790"><ele>170.5</ele><time>2026-06-04T16:47:29Z</time></trkpt>
			<trkpt lat="54.347060" lon="22.299180"><ele>169.7</ele><time>2026-06-04T16:47:32Z</time></trkpt>
			<trkpt lat="54.347110" lon="22.299280"><ele>169.4</ele><time>2026-06-04T16:47:35Z</time></trkpt>
			<trkpt lat="54.347380" lon="22.300140"><ele>167.6</ele><time>2026-06-04T16:47:39Z</time></trkpt>
			<trkpt lat="54.347470" lon="22.300460"><ele>167.0</ele><time>2026-06-04T16:47:42Z</time></trkpt>
			<trkpt lat="54.347470" lon="22.300460"><ele>167.0</ele><time>2026-06-04T16:47:46Z</time></trkpt>
			<trkpt lat="54.347660" lon="22.301230"><ele>165.4</ele><time>2026-06-04T16:47:51Z</time></trkpt>
			<trkpt lat="54.348260" lon="22.303410"><ele>161.0</ele><time>2026-06-04T16:47:55Z</time></trkpt>
			<trkpt lat="54.348430" lon="22.303960"><ele>159.8</ele><time>2026-06-04T16:48:00Z</time></trkpt>
			<trkpt lat="54.348700" lon="22.304720"><ele>158.2</ele><time>2026-06-04T16:48:04Z</time></trkpt>
			<trkpt lat="54.348940" lon="22.305260"><ele>157.0</ele><time>2026-06-04T16:48:08Z</time></trkpt>
			<trkpt lat="54.349280" lon="22.305900"><ele>155.4</ele><time>2026-06-04T16:48:13Z</time></trkpt>
			<trkpt lat="54.350350" lon="22.307740"><ele>154.5</ele><time>2026-06-04T16:48:17Z</time></trkpt>
			<trkpt lat="54.351050" lon="22.308830"><ele>157.1</ele><time>2026-06-04T16:48:21Z</time></trkpt>
			<trkpt lat="54.351490" lon="22.309390"><ele>158.6</ele><time>2026-06-04T16:48:26Z</time></trkpt>
			<trkpt lat="54.352020" lon="22.309950"><ele>160.3</ele><time>2026-06-04T16:48:30Z</time></trkpt>
			<trkpt lat="54.352480" lon="22.310370"><ele>161.7</ele><time>2026-06-04T16:48:34Z</time></trkpt>
			<trkpt lat="54.352880" lon="22.310670"><ele>162.9</ele><time>2026-06-04T16:48:39Z</time></trkpt>
			<trkpt lat="54.353230" lon="22.310870"><ele>163.9</ele><time>2026-06-04T16:48:43Z</time></trkpt>
			<trkpt lat="54.353570" lon="22.311020"><ele>164.8</ele><time>2026-06-04T16:48:48Z</time></trkpt>
			<trkpt lat="54.354040" lon="22.311150"><ele>166.1</ele><time>2026-06-04T16:48:52Z</time></trkpt>
			<trkpt lat="54.354730" lon="22.311280"><ele>168.0</ele><time>2026-06-04T16:48:56Z</time></trkpt>
			<trkpt lat="54.357330" lon="22.311650"><ele>175.1</ele><time>2026-06-04T16:49:01Z</time></trkpt>
			<trkpt lat="54.358340" lon="22.311810"><ele>177.1</ele><time>2026-06-04T16:49:05Z</time></trkpt>
			<trkpt lat="54.359110" lon="22.311960"><ele>176.8</ele><time>2026-06-04T16:49:09Z</time></trkpt>
			<trkpt lat="54.359610" lon="22.312140"><ele>176.7</ele><time>2026-06-04T16:49:14Z</time></trkpt>
			<trkpt lat="54.359940" lon="22.312300"><ele>176.6</ele><time>2026-06-04T16:49:18Z</time></trkpt>
			<trkpt lat="54.360530" lon="22.312650"><ele>176.4</ele><time>2026-06-04T16:49:22Z</time></trkpt>
			<trkpt lat="54.361150" lon="22.313140"><ele>176.2</ele><time>2026-06-04T16:49:27Z</time></trkpt>
			<trkpt lat="54.362120" lon="22.314020"><ele>175.8</ele><time>2026-06-04T16:49:31Z</time></trkpt>
			<trkpt lat="54.362640" lon="22.314450"><ele>175.6</ele><time>2026-06-04T16:49:36Z</time></trkpt>
			<trkpt lat="54.363080" lon="22.314770"><ele>175.5</ele><time>2026-06-04T16:49:40Z</time></trkpt>
			<trkpt lat="54.363320" lon="22.314920"><ele>175.4</ele><time>2026-06-04T16:49:44Z</time></trkpt>
			<trkpt lat="54.364090" lon="22.315300"><ele>175.2</ele><time>2026-06-04T16:49:49Z</time></trkpt>
			<trkpt lat="54.364440" lon="22.315440"><ele>175.1</ele><time>2026-06-04T16:49:53Z</time></trkpt>
			<trkpt lat="54.365310" lon="22.315730"><ele>174.8</ele><time>2026-06-04T16:49:57Z</time></trkpt>
			<trkpt lat="54.366000" lon="22.315980"><ele>174.6</ele><time>2026-06-04T16:50:02Z</time></trkpt>
			<trkpt lat="54.366230" lon="22.316100"><ele>174.5</ele><time>2026-06-04T16:50:06Z</time></trkpt>
			<trkpt lat="54.366560" lon="22.316280"><ele>174.4</ele><time>2026-06-04T16:50:10Z</time></trkpt>
			<trkpt lat="54.366900" lon="22.316520"><ele>174.4</ele><time>2026-06-04T16:50:15Z</time></trkpt>
			<trkpt lat="54.367340" lon="22.316870"><ele>174.5</ele><time>2026-06-04T16:50:19Z</time></trkpt>
			<trkpt lat="54.367460" lon="22.316970"><ele>174.5</ele><time>2026-06-04T16:50:24Z</time></trkpt>
			<trkpt lat="54.367800" lon="22.317320"><ele>174.5</ele><time>2026-06-04T16:50:28Z</time></trkpt>
			<trkpt lat="54.368200" lon="22.317780"><ele>174.6</ele><time>2026-06-04T16:50:32Z</time></trkpt>
			<trkpt lat="54.370630" lon="22.321160"><ele>175.0</ele><time>2026-06-04T16:50:37Z</time></trkpt>
			<trkpt lat="54.371120" lon="22.321870"><ele>175.1</ele><time>2026-06-04T16:50:41Z</time></trkpt>
			<trkpt lat="54.371740" lon="22.322850"><ele>175.2</ele><time>2026-06-04T16:50:45Z</time></trkpt>
			<trkpt lat="54.372650" lon="22.324410"><ele>175.3</ele><time>2026-06-04T16:50:50Z</time></trkpt>
			<trkpt lat="54.373100" lon="22.325220"><ele>175.4</ele><time>2026-06-04T16:50:54Z</time></trkpt>
			<trkpt lat="54.374300" lon="22.327530"><ele>173.0</ele><time>2026-06-04T16:50:58Z</time></trkpt>
			<trkpt lat="54.374610" lon="22.328100"><ele>172.1</ele><time>2026-06-04T16:51:03Z</time></trkpt>
			<trkpt lat="54.374920" lon="22.328640"><ele>171.2</ele><time>2026-06-04T16:51:07Z</time></trkpt>
			<trkpt lat="54.375210" lon="22.329130"><ele>170.3</ele><time>2026-06-04T16:51:12Z</time></trkpt>
			<trkpt lat="54.375680" lon="22.329880"><ele>168.9</ele><time>2026-06-04T16:51:16Z</time></trkpt>
			<trkpt lat="54.376430" lon="22.330980"><ele>166.9</ele><time>2026-06-04T16:51:20Z</time></trkpt>
			<trkpt lat="54.376940" lon="22.331680"><ele>165.5</ele><time>2026-06-04T16:51:25Z</time></trkpt>
			<trkpt lat="54.377760" lon="22.332700"><ele>163.4</ele><time>2026-06-04T16:51:29Z</time></trkpt>
			<trkpt lat="54.377980" lon="22.332940"><ele>162.8</ele><time>2026-06-04T16:51:33Z</time></trkpt>
			<trkpt lat="54.379320" lon="22.334260"><ele>159.6</ele><time>2026-06-04T16:51:38Z</time></trkpt>
			<trkpt lat="54.379660" lon="22.334570"><ele>158.8</ele><time>2026-06-04T16:51:42Z</time></trkpt>
			<trkpt lat="54.380250" lon="22.335040"><ele>157.4</ele><time>2026-06-04T16:51:46Z</time></trkpt>
			<trkpt lat="54.380740" lon="22.335380"><ele>156.4</ele><time>2026-06-04T16:51:51Z</time></trkpt>
			<trkpt lat="54.381710" lon="22.336010"><ele>155.5</ele><time>2026-06-04T16:51:55Z</time></trkpt>
			<trkpt lat="54.382250" lon="22.336310"><ele>155.0</ele><time>2026-06-04T16:52:00Z</time></trkpt>
			<trkpt lat="54.383290" lon="22.336820"><ele>154.0</ele><time>2026-06-04T16:52:04Z</time></trkpt>
			<trkpt lat="54.384250" lon="22.337190"><ele>153.2</ele><time>2026-06-04T16:52:08Z</time></trkpt>
			<trkpt lat="54.384750" lon="22.337340"><ele>152.7</ele><time>2026-06-04T16:52:13Z</time></trkpt>
			<trkpt lat="54.385690" lon="22.337540"><ele>151.9</ele><time>2026-06-04T16:52:17Z</time></trkpt>
			<trkpt lat="54.387250" lon="22.337720"><ele>150.5</ele><time>2026-06-04T16:52:21Z</time></trkpt>
			<trkpt lat="54.387680" lon="22.337750"><ele>150.1</ele><time>2026-06-04T16:52:26Z</time></trkpt>
			<trkpt lat="54.388140" lon="22.337720"><ele>149.7</ele><time>2026-06-04T16:52:30Z</time></trkpt>
			<trkpt lat="54.389830" lon="22.337550"><ele>146.9</ele><time>2026-06-04T16:52:34Z</time></trkpt>
			<trkpt lat="54.391690" lon="22.337400"><ele>139.3</ele><time>2026-06-04T16:52:39Z</time></trkpt>
			<trkpt lat="54.392820" lon="22.337210"><ele>134.7</ele><time>2026-06-04T16:52:43Z</time></trkpt>
			<trkpt lat="54.393970" lon="22.337160"><ele>130.0</ele><time>2026-06-04T16:52:48Z</time></trkpt>
			<trkpt lat="54.396230" lon="22.336980"><ele>120.8</ele><time>2026-06-04T16:52:52Z</time></trkpt>
			<trkpt lat="54.397080" lon="22.336870"><ele>117.3</ele><time>2026-06-04T16:52:56Z</time></trkpt>
			<trkpt lat="54.397530" lon="22.336790"><ele>115.5</ele><time>2026-06-04T16:53:01Z</time></trkpt>
			<trkpt lat="54.397930" lon="22.336680"><ele>113.8</ele><time>2026-06-04T16:53:05Z</time></trkpt>
			<trkpt lat="54.398550" lon="22.336380"><ele>111.9</ele><time>2026-06-04T16:53:09Z</time></trkpt>
			<trkpt lat="54.399170" lon="22.336050"><ele>112.0</ele><time>2026-06-04T16:53:14Z</time></trkpt>
			<trkpt lat="54.400150" lon="22.335340"><ele>112.1</ele><time>2026-06-04T16:53:18Z</time></trkpt>
			<trkpt lat="54.400370" lon="22.335140"><ele>112.1</ele><time>2026-06-04T16:53:22Z</time></trkpt>
			<trkpt lat="54.401130" lon="22.334440"><ele>112.2</ele><time>2026-06-04T16:53:27Z</time></trkpt>
			<trkpt lat="54.401550" lon="22.334080"><ele>112.2</ele><time>2026-06-04T16:53:31Z</time></trkpt>
			<trkpt lat="54.402500" lon="22.333310"><ele>112.3</ele><time>2026-06-04T16:53:35Z</time></trkpt>
			<trkpt lat="54.404620" lon="22.331570"><ele>112.5</ele><time>2026-06-04T16:53:40Z</time></trkpt>
			<trkpt lat="54.406720" lon="22.329800"><ele>112.6</ele><time>2026-06-04T16:53:44Z</time></trkpt>
			<trkpt lat="54.408260" lon="22.327800"><ele>111.8</ele><time>2026-06-04T16:53:49Z</time></trkpt>
			<trkpt lat="54.409100" lon="22.326680"><ele>111.3</ele><time>2026-06-04T16:53:53Z</time></trkpt>
			<trkpt lat="54.409770" lon="22.325940"><ele>111.0</ele><time>2026-06-04T16:53:57Z</time></trkpt>
			<trkpt lat="54.409870" lon="22.325750"><ele>110.9</ele><time>2026-06-04T16:54:02Z</time></trkpt>
			<trkpt lat="54.409860" lon="22.325680"><ele>110.9</ele><time>2026-06-04T16:54:06Z</time></trkpt>
			<trkpt lat="54.409860" lon="22.325520"><ele>110.8</ele><time>2026-06-04T16:54:10Z</time></trkpt>
			<trkpt lat="54.409860" lon="22.325430"><ele>110.8</ele><time>2026-06-04T16:54:15Z</time></trkpt>
			<trkpt lat="54.409830" lon="22.325020"><ele>110.7</ele><time>2026-06-04T16:54:19Z</time></trkpt>
			<trkpt lat="54.409720" lon="22.324360"><ele>110.5</ele><time>2026-06-04T16:54:23Z</time></trkpt>
			<trkpt lat="54.409710" lon="22.323860"><ele>110.4</ele><time>2026-06-04T16:54:28Z</time></trkpt>
			<trkpt lat="54.409760" lon="22.323270"><ele>110.3</ele><time>2026-06-04T16:54:32Z</time></trkpt>
			<trkpt lat="54.409930" lon="22.322610"><ele>110.1</ele><time>2026-06-04T16:54:37Z</time></trkpt>
			<trkpt lat="54.410170" lon="22.322080"><ele>109.9</ele><time>2026-06-04T16:54:41Z</time></trkpt>
			<trkpt lat="54.410810" lon="22.320780"><ele>109.5</ele><time>2026-06-04T16:54:45Z</time></trkpt>
			<trkpt lat="54.410900" lon="22.320600"><ele>109.4</ele><time>2026-06-04T16:54:50Z</time></trkpt>
			<trkpt lat="54.411810" lon="22.318800"><ele>108.8</ele><time>2026-06-04T16:54:54Z</time></trkpt>
			<trkpt lat="54.412080" lon="22.318120"><ele>108.2</ele><time>2026-06-04T16:54:58Z</time></trkpt>
			<trkpt lat="54.412330" lon="22.317230"><ele>107.5</ele><time>2026-06-04T16:55:03Z</time></trkpt>
			<trkpt lat="54.413290" lon="22.313670"><ele>104.5</ele><time>2026-06-04T16:55:07Z</time></trkpt>
			<trkpt lat="54.413790" lon="22.311770"><ele>102.8</ele><time>2026-06-04T16:55:11Z</time></trkpt>
			<trkpt lat="54.413850" lon="22.311590"><ele>102.7</ele><time>2026-06-04T16:55:16Z</time></trkpt>
			<trkpt lat="54.413960" lon="22.311150"><ele>102.3</ele><time>2026-06-04T16:55:20Z</time></trkpt>
			<trkpt lat="54.414320" lon="22.309780"><ele>101.2</ele><time>2026-06-04T16:55:25Z</time></trkpt>
			<trkpt lat="54.414530" lon="22.309240"><ele>100.7</ele><time>2026-06-04T16:55:29Z</time></trkpt>
			<trkpt lat="54.414580" lon="22.309130"><ele>100.5</ele><time>2026-06-04T16:55:33Z</time></trkpt>
			<trkpt lat="54.414740" lon="22.308950"><ele>100.3</ele><time>2026-06-04T16:55:38Z</time></trkpt>
			<trkpt lat="54.414880" lon="22.308910"><ele>100.1</ele><time>2026-06-04T16:55:42Z</time></trkpt>
			<trkpt lat="54.415000" lon="22.308900"><ele>99.9</ele><time>2026-06-04T16:55:46Z</time></trkpt>
			<trkpt lat="54.415190" lon="22.308930"><ele>99.7</ele><time>2026-06-04T16:55:51Z</time></trkpt>
			<trkpt lat="54.415540" lon="22.309040"><ele>99.2</ele><time>2026-06-04T16:55:55Z</time></trkpt>
			<trkpt lat="54.415950" lon="22.309190"><ele>98.7</ele><time>2026-06-04T16:55:59Z</time></trkpt>
			<trkpt lat="54.416030" lon="22.309200"><ele>98.6</ele><time>2026-06-04T16:56:04Z</time></trkpt>
			<trkpt lat="54.416150" lon="22.309220"><ele>98.4</ele><time>2026-06-04T16:56:08Z</time></trkpt>
			<trkpt lat="54.416230" lon="22.309220"><ele>98.3</ele><time>2026-06-04T16:56:13Z</time></trkpt>
			<trkpt lat="54.418000" lon="22.309010"><ele>98.9</ele><time>2026-06-04T16:56:17Z</time></trkpt>
			<trkpt lat="54.418530" lon="22.308960"><ele>100.4</ele><time>2026-06-04T16:56:21Z</time></trkpt>
			<trkpt lat="54.419800" lon="22.308800"><ele>104.2</ele><time>2026-06-04T16:56:26Z</time></trkpt>
			<trkpt lat="54.420220" lon="22.308700"><ele>105.4</ele><time>2026-06-04T16:56:30Z</time></trkpt>
			<trkpt lat="54.420650" lon="22.308430"><ele>106.7</ele><time>2026-06-04T16:56:34Z</time></trkpt>
			<trkpt lat="54.421480" lon="22.307690"><ele>109.5</ele><time>2026-06-04T16:56:39Z</time></trkpt>
			<trkpt lat="54.423360" lon="22.306140"><ele>115.5</ele><time>2026-06-04T16:56:43Z</time></trkpt>
			<trkpt lat="54.426190" lon="22.303830"><ele>122.4</ele><time>2026-06-04T16:56:47Z</time></trkpt>
			<trkpt lat="54.428140" lon="22.302240"><ele>119.6</ele><time>2026-06-04T16:56:52Z</time></trkpt>
			<trkpt lat="54.432530" lon="22.298690"><ele>113.2</ele><time>2026-06-04T16:56:56Z</time></trkpt>
			<trkpt lat="54.440330" lon="22.292370"><ele>102.4</ele><time>2026-06-04T16:57:01Z</time></trkpt>
			<trkpt lat="54.440720" lon="22.292190"><ele>101.9</ele><time>2026-06-04T16:57:05Z</time></trkpt>
			<trkpt lat="54.441410" lon="22.291990"><ele>101.1</ele><time>2026-06-04T16:57:09Z</time></trkpt>
			<trkpt lat="54.442640" lon="22.291700"><ele>99.9</ele><time>2026-06-04T16:57:14Z</time></trkpt>
			<trkpt lat="54.443070" lon="22.291750"><ele>99.6</ele><time>2026-06-04T16:57:18Z</time></trkpt>
			<trkpt lat="54.445230" lon="22.292050"><ele>98.2</ele><time>2026-06-04T16:57:22Z</time></trkpt>
			<trkpt lat="54.445540" lon="22.292200"><ele>98.0</ele><time>2026-06-04T16:57:27Z</time></trkpt>
			<trkpt lat="54.445940" lon="22.292500"><ele>97.7</ele><time>2026-06-04T16:57:31Z</time></trkpt>
			<trkpt lat="54.448820" lon="22.295010"><ele>95.7</ele><time>2026-06-04T16:57:35Z</time></trkpt>
			<trkpt lat="54.448940" lon="22.295110"><ele>95.6</ele><time>2026-06-04T16:57:40Z</time></trkpt>
			<trkpt lat="54.449110" lon="22.296240"><ele>95.2</ele><time>2026-06-04T16:57:44Z</time></trkpt>
			<trkpt lat="54.449160" lon="22.297030"><ele>94.9</ele><time>2026-06-04T16:57:49Z</time></trkpt>
			<trkpt lat="54.449210" lon="22.297690"><ele>94.6</ele><time>2026-06-04T16:57:53Z</time></trkpt>
			<trkpt lat="54.448650" lon="22.299040"><ele>95.1</ele><time>2026-06-04T16:57:57Z</time></trkpt>
			<trkpt lat="54.448570" lon="22.299480"><ele>95.4</ele><time>2026-06-04T16:58:02Z</time></trkpt>
			<trkpt lat="54.448680" lon="22.300390"><ele>95.8</ele><time>2026-06-04T16:58:06Z</time></trkpt>
			<trkpt lat="54.448920" lon="22.301570"><ele>96.5</ele><time>2026-06-04T16:58:10Z</time></trkpt>
			<trkpt lat="54.449110" lon="22.303060"><ele>97.3</ele><time>2026-06-04T16:58:15Z</time></trkpt>
			<trkpt lat="54.449260" lon="22.304540"><ele>98.1</ele><time>2026-06-04T16:58:19Z</time></trkpt>
			<trkpt lat="54.449260" lon="22.305060"><ele>98.3</ele><time>2026-06-04T16:58:23Z</time></trkpt>
			<trkpt lat="54.449260" lon="22.305060"><ele>98.3</ele><time>2026-06-04T16:58:30Z</time></trkpt>
			<trkpt lat="54.449270" lon="22.306330"><ele>99.0</ele><time>2026-06-04T16:58:37Z</time></trkpt>
			<trkpt lat="54.449180" lon="22.306970"><ele>99.3</ele><time>2026-06-04T16:58:44Z</time></trkpt>
			<trkpt lat="54.449100" lon="22.307680"><ele>99.7</ele><time>2026-06-04T16:58:51Z</time></trkpt>
			<trkpt lat="54.448280" lon="22.310270"><ele>101.3</ele><time>2026-06-04T16:58:58Z</time></trkpt>
			<trkpt lat="54.448170" lon="22.311010"><ele>101.7</ele><time>2026-06-04T16:59:05Z</time></trkpt>
			<trkpt lat="54.448230" lon="22.315110"><ele>100.2</ele><time>2026-06-04T16:59:12Z</time></trkpt>
			<trkpt lat="54.448650" lon="22.317530"><ele>97.8</ele><time>2026-06-04T16:59:19Z</time></trkpt>
			<trkpt lat="54.448970" lon="22.319130"><ele>96.2</ele><time>2026-06-04T16:59:26Z</time></trkpt>
			<trkpt lat="54.449310" lon="22.319810"><ele>95.3</ele><time>2026-06-04T16:59:33Z</time></trkpt>
			<trkpt lat="54.449740" lon="22.320610"><ele>94.3</ele><time>2026-06-04T16:59:39Z</time></trkpt>
			<trkpt lat="54.449760" lon="22.320750"><ele>94.1</ele><time>2026-06-04T16:59:46Z</time></trkpt>
			<trkpt lat="54.449900" lon="22.321570"><ele>93.3</ele><time>2026-06-04T16:59:53Z</time></trkpt>
			<trkpt lat="54.450010" lon="22.323800"><ele>91.2</ele><time>2026-06-04T17:00:00Z</time></trkpt>
			<trkpt lat="54.449950" lon="22.324710"><ele>90.3</ele><time>2026-06-04T17:00:07Z</time></trkpt>
			<trkpt lat="54.449720" lon="22.325100"><ele>89.8</ele><time>2026-06-04T17:00:14Z</time></trkpt>
			<trkpt lat="54.449190" lon="22.325450"><ele>88.9</ele><time>2026-06-04T17:00:21Z</time></trkpt>
			<trkpt lat="54.448910" lon="22.325810"><ele>88.3</ele><time>2026-06-04T17:00:28Z</time></trkpt>
			<trkpt lat="54.448220" lon="22.327900"><ele>90.7</ele><time>2026-06-04T17:00:35Z</time></trkpt>
			<trkpt lat="54.447900" lon="22.328970"><ele>92.6</ele><time>2026-06-04T17:00:42Z</time></trkpt>
			<trkpt lat="54.447960" lon="22.329830"><ele>94.0</ele><time>2026-06-04T17:00:48Z</time></trkpt>
			<trkpt lat="54.448380" lon="22.331230"><ele>96.4</ele><time>2026-06-04T17:00:55Z</time></trkpt>
			<trkpt lat="54.448940" lon="22.332250"><ele>98.7</ele><time>2026-06-04T17:01:02Z</time></trkpt>
			<trkpt lat="54.449720" lon="22.333460"><ele>101.5</ele><time>2026-06-04T17:01:09Z</time></trkpt>
			<trkpt lat="54.450600" lon="22.334720"><ele>104.6</ele><time>2026-06-04T17:01:16Z</time></trkpt>
			<trkpt lat="54.451430" lon="22.336130"><ele>107.8</ele><time>2026-06-04T17:01:23Z</time></trkpt>
			<trkpt lat="54.451420" lon="22.341820"><ele>113.7</ele><time>2026-06-04T17:01:30Z</time></trkpt>
			<trkpt lat="54.451550" lon="22.342780"><ele>114.2</ele><time>2026-06-04T17:01:37Z</time></trkpt>
			<trkpt lat="54.452310" lon="22.346060"><ele>115.9</ele><time>2026-06-04T17:01:44Z</time></trkpt>
			<trkpt lat="54.454120" lon="22.353870"><ele>120.0</ele><time>2026-06-04T17:01:51Z</time></trkpt>
			<trkpt lat="54.455340" lon="22.359070"><ele>119.5</ele><time>2026-06-04T17:01:58Z</time></trkpt>
			<trkpt lat="54.456020" lon="22.361270"><ele>119.3</ele><time>2026-06-04T17:02:04Z</time></trkpt>
			<trkpt lat="54.457670" lon="22.365910"><ele>118.9</ele><time>2026-06-04T17:02:11Z</time></trkpt>
			<trkpt lat="54.457770" lon="22.366760"><ele>118.8</ele><time>2026-06-04T17:02:18Z</time></trkpt>
			<trkpt lat="54.457760" lon="22.367070"><ele>118.8</ele><time>2026-06-04T17:02:25Z</time></trkpt>
			<trkpt lat="54.457750" lon="22.367340"><ele>118.8</ele><time>2026-06-04T17:02:32Z</time></trkpt>
			<trkpt lat="54.457730" lon="22.368260"><ele>119.0</ele><time>2026-06-04T17:02:39Z</time></trkpt>
			<trkpt lat="54.457620" lon="22.370950"><ele>119.8</ele><time>2026-06-04T17:02:46Z</time></trkpt>
			<trkpt lat="54.457670" lon="22.372350"><ele>120.3</ele><time>2026-06-04T17:02:53Z</time></trkpt>
			<trkpt lat="54.457700" lon="22.373130"><ele>120.5</ele><time>2026-06-04T17:03:00Z</time></trkpt>
			<trkpt lat="54.457830" lon="22.374310"><ele>120.9</ele><time>2026-06-04T17:03:07Z</time></trkpt>
			<trkpt lat="54.458040" lon="22.376110"><ele>121.4</ele><time>2026-06-04T17:03:14Z</time></trkpt>
			<trkpt lat="54.458270" lon="22.377410"><ele>121.8</ele><time>2026-06-04T17:03:20Z</time></trkpt>
			<trkpt lat="54.458540" lon="22.378790"><ele>122.3</ele><time>2026-06-04T17:03:27Z</time></trkpt>
			<trkpt lat="54.459150" lon="22.380410"><ele>122.9</ele><time>2026-06-04T17:03:34Z</time></trkpt>
			<trkpt lat="54.459590" lon="22.381520"><ele>123.3</ele><time>2026-06-04T17:03:41Z</time></trkpt>
			<trkpt lat="54.459800" lon="22.382060"><ele>123.5</ele><time>2026-06-04T17:03:48Z</time></trkpt>
			<trkpt lat="54.460160" lon="22.383350"><ele>123.8</ele><time>2026-06-04T17:03:55Z</time></trkpt>
			<trkpt lat="54.460310" lon="22.384040"><ele>124.0</ele><time>2026-06-04T17:04:02Z</time></trkpt>
			<trkpt lat="54.460510" lon="22.384980"><ele>124.3</ele><time>2026-06-04T17:04:09Z</time></trkpt>
			<trkpt lat="54.460710" lon="22.386620"><ele>124.7</ele><time>2026-06-04T17:04:16Z</time></trkpt>
			<trkpt lat="54.460910" lon="22.388630"><ele>125.3</ele><time>2026-06-04T17:04:23Z</time></trkpt>
			<trkpt lat="54.460950" lon="22.389760"><ele>125.6</ele><time>2026-06-04T17:04:29Z</time></trkpt>
			<trkpt lat="54.460700" lon="22.392100"><ele>126.2</ele><time>2026-06-04T17:04:36Z</time></trkpt>
			<trkpt lat="54.460450" lon="22.394650"><ele>126.9</ele><time>2026-06-04T17:04:43Z</time></trkpt>
			<trkpt lat="54.460280" lon="22.395670"><ele>127.2</ele><time>2026-06-04T17:04:50Z</time></trkpt>
			<trkpt lat="54.459650" lon="22.398580"><ele>128.2</ele><time>2026-06-04T17:04:57Z</time></trkpt>
			<trkpt lat="54.458750" lon="22.402470"><ele>130.0</ele><time>2026-06-04T17:05:04Z</time></trkpt>
			<trkpt lat="54.458480" lon="22.403930"><ele>130.6</ele><time>2026-06-04T17:05:11Z</time></trkpt>
			<trkpt lat="54.458490" lon="22.404880"><ele>131.0</ele><time>2026-06-04T17:05:18Z</time></trkpt>
			<trkpt lat="54.458750" lon="22.410130"><ele>133.2</ele><time>2026-06-04T17:05:25Z</time></trkpt>
			<trkpt lat="54.458800" lon="22.411400"><ele>133.8</ele><time>2026-06-04T17:05:32Z</time></trkpt>
			<trkpt lat="54.458800" lon="22.412250"><ele>133.9</ele><time>2026-06-04T17:05:39Z</time></trkpt>
			<trkpt lat="54.458780" lon="22.413150"><ele>133.4</ele><time>2026-06-04T17:05:45Z</time></trkpt>
			<trkpt lat="54.458610" lon="22.414480"><ele>132.7</ele><time>2026-06-04T17:05:52Z</time></trkpt>
			<trkpt lat="54.458410" lon="22.416360"><ele>131.6</ele><time>2026-06-04T17:05:59Z</time></trkpt>
			<trkpt lat="54.458350" lon="22.417090"><ele>131.2</ele><time>2026-06-04T17:06:06Z</time></trkpt>
			<trkpt lat="54.458240" lon="22.418030"><ele>130.7</ele><time>2026-06-04T17:06:13Z</time></trkpt>
			<trkpt lat="54.457840" lon="22.420340"><ele>129.4</ele><time>2026-06-04T17:06:20Z</time></trkpt>
			<trkpt lat="54.457730" lon="22.420900"><ele>129.0</ele><time>2026-06-04T17:06:27Z</time></trkpt>
			<trkpt lat="54.457360" lon="22.422910"><ele>127.9</ele><time>2026-06-04T17:06:34Z</time></trkpt>
			<trkpt lat="54.457060" lon="22.424510"><ele>126.9</ele><time>2026-06-04T17:06:41Z</time></trkpt>
			<trkpt lat="54.456710" lon="22.426260"><ele>125.9</ele><time>2026-06-04T17:06:48Z</time></trkpt>
			<trkpt lat="54.456570" lon="22.427000"><ele>125.5</ele><time>2026-06-04T17:06:55Z</time></trkpt>
			<trkpt lat="54.456270" lon="22.428620"><ele>124.9</ele><time>2026-06-04T17:07:01Z</time></trkpt>
			<trkpt lat="54.456000" lon="22.430070"><ele>124.4</ele><time>2026-06-04T17:07:08Z</time></trkpt>
			<trkpt lat="54.455860" lon="22.430880"><ele>124.2</ele><time>2026-06-04T17:07:15Z</time></trkpt>
			<trkpt lat="54.455910" lon="22.431260"><ele>124.0</ele><time>2026-06-04T17:07:22Z</time></trkpt>
			<trkpt lat="54.455990" lon="22.431580"><ele>123.9</ele><time>2026-06-04T17:07:29Z</time></trkpt>
			<trkpt lat="54.456140" lon="22.431950"><ele>123.8</ele><time>2026-06-04T17:07:36Z</time></trkpt>
			<trkpt lat="54.456750" lon="22.433090"><ele>123.3</ele><time>2026-06-04T17:07:43Z</time></trkpt>
			<trkpt lat="54.457330" lon="22.434140"><ele>122.8</ele><time>2026-06-04T17:07:50Z</time></trkpt>
			<trkpt lat="54.457500" lon="22.434450"><ele>122.7</ele><time>2026-06-04T17:07:57Z</time></trkpt>
			<trkpt lat="54.457710" lon="22.434820"><ele>122.5</ele><time>2026-06-04T17:08:04Z</time></trkpt>
			<trkpt lat="54.458430" lon="22.435920"><ele>122.0</ele><time>2026-06-04T17:08:11Z</time></trkpt>
			<trkpt lat="54.458660" lon="22.436240"><ele>121.8</ele><time>2026-06-04T17:08:17Z</time></trkpt>
			<trkpt lat="54.459010" lon="22.436670"><ele>121.6</ele><time>2026-06-04T17:08:24Z</time></trkpt>
			<trkpt lat="54.459090" lon="22.436800"><ele>121.5</ele><time>2026-06-04T17:08:31Z</time></trkpt>
			<trkpt lat="54.459150" lon="22.436940"><ele>121.4</ele><time>2026-06-04T17:08:38Z</time></trkpt>
			<trkpt lat="54.459210" lon="22.437150"><ele>121.4</ele><time>2026-06-04T17:08:45Z</time></trkpt>
			<trkpt lat="54.459240" lon="22.437330"><ele>121.3</ele><time>2026-06-04T17:08:52Z</time></trkpt>
			<trkpt lat="54.459250" lon="22.437520"><ele>121.2</ele><time>2026-06-04T17:08:59Z</time></trkpt>
			<trkpt lat="54.459250" lon="22.438560"><ele>120.9</ele><time>2026-06-04T17:09:06Z</time></trkpt>
			<trkpt lat="54.459290" lon="22.439340"><ele>120.7</ele><time>2026-06-04T17:09:13Z</time></trkpt>
			<trkpt lat="54.459220" lon="22.440190"><ele>120.5</ele><time>2026-06-04T17:09:20Z</time></trkpt>
			<trkpt lat="54.459140" lon="22.440550"><ele>120.6</ele><time>2026-06-04T17:09:26Z</time></trkpt>
			<trkpt lat="54.458690" lon="22.441970"><ele>120.8</ele><time>2026-06-04T17:09:33Z</time></trkpt>
			<trkpt lat="54.458580" lon="22.442310"><ele>120.9</ele><time>2026-06-04T17:09:40Z</time></trkpt>
			<trkpt lat="54.458540" lon="22.442560"><ele>120.9</ele><time>2026-06-04T17:09:47Z</time></trkpt>
			<trkpt lat="54.458560" lon="22.442820"><ele>121.0</ele><time>2026-06-04T17:09:54Z</time></trkpt>
			<trkpt lat="54.459330" lon="22.448410"><ele>121.9</ele><time>2026-06-04T17:10:01Z</time></trkpt>
			<trkpt lat="54.460270" lon="22.455310"><ele>123.1</ele><time>2026-06-04T17:10:08Z</time></trkpt>
			<trkpt lat="54.460280" lon="22.455550"><ele>123.2</ele><time>2026-06-04T17:10:15Z</time></trkpt>
			<trkpt lat="54.460270" lon="22.455760"><ele>123.3</ele><time>2026-06-04T17:10:22Z</time></trkpt>
			<trkpt lat="54.459910" lon="22.459290"><ele>124.9</ele><time>2026-06-04T17:10:29Z</time></trkpt>
			<trkpt lat="54.459520" lon="22.463390"><ele>126.7</ele><time>2026-06-04T17:10:36Z</time></trkpt>
			<trkpt lat="54.458810" lon="22.470340"><ele>129.5</ele><time>2026-06-04T17:10:42Z</time></trkpt>
			<trkpt lat="54.458810" lon="22.470750"><ele>129.4</ele><time>2026-06-04T17:10:49Z</time></trkpt>
			<trkpt lat="54.458870" lon="22.471000"><ele>129.4</ele><time>2026-06-04T17:10:56Z</time></trkpt>
			<trkpt lat="54.460290" lon="22.473200"><ele>128.7</ele><time>2026-06-04T17:11:03Z</time></trkpt>
			<trkpt lat="54.461040" lon="22.474360"><ele>128.4</ele><time>2026-06-04T17:11:10Z</time></trkpt>
			<trkpt lat="54.461510" lon="22.475210"><ele>128.2</ele><time>2026-06-04T17:11:17Z</time></trkpt>
			<trkpt lat="54.461670" lon="22.475570"><ele>128.1</ele><time>2026-06-04T17:11:24Z</time></trkpt>
			<trkpt lat="54.461750" lon="22.475950"><ele>128.0</ele><time>2026-06-04T17:11:31Z</time></trkpt>
			<trkpt lat="54.461740" lon="22.476330"><ele>127.9</ele><time>2026-06-04T17:11:38Z</time></trkpt>
			<trkpt lat="54.461690" lon="22.476820"><ele>127.9</ele><time>2026-06-04T17:11:45Z</time></trkpt>
			<trkpt lat="54.461480" lon="22.478630"><ele>127.5</ele><time>2026-06-04T17:11:52Z</time></trkpt>
			<trkpt lat="54.461420" lon="22.479360"><ele>127.4</ele><time>2026-06-04T17:11:58Z</time></trkpt>
			<trkpt lat="54.461330" lon="22.480250"><ele>127.2</ele><time>2026-06-04T17:12:05Z</time></trkpt>
			<trkpt lat="54.461330" lon="22.480770"><ele>127.1</ele><time>2026-06-04T17:12:12Z</time></trkpt>
			<trkpt lat="54.461360" lon="22.481320"><ele>127.0</ele><time>2026-06-04T17:12:19Z</time></trkpt>
			<trkpt lat="54.461540" lon="22.482480"><ele>126.7</ele><time>2026-06-04T17:12:26Z</time></trkpt>
			<trkpt lat="54.461660" lon="22.482930"><ele>126.7</ele><time>2026-06-04T17:12:33Z</time></trkpt>
			<trkpt lat="54.463800" lon="22.488730"><ele>125.5</ele><time>2026-06-04T17:12:40Z</time></trkpt>
			<trkpt lat="54.464780" lon="22.491410"><ele>125.0</ele><time>2026-06-04T17:12:47Z</time></trkpt>
			<trkpt lat="54.465110" lon="22.492460"><ele>124.7</ele><time>2026-06-04T17:12:54Z</time></trkpt>
			<trkpt lat="54.467210" lon="22.502890"><ele>128.0</ele><time>2026-06-04T17:13:01Z</time></trkpt>
			<trkpt lat="54.468700" lon="22.510400"><ele>132.9</ele><time>2026-06-04T17:13:07Z</time></trkpt>
			<trkpt lat="54.468830" lon="22.510940"><ele>133.2</ele><time>2026-06-04T17:13:14Z</time></trkpt>
			<trkpt lat="54.468980" lon="22.511190"><ele>133.5</ele><time>2026-06-04T17:13:21Z</time></trkpt>
			<trkpt lat="54.470110" lon="22.511970"><ele>133.9</ele><time>2026-06-04T17:13:28Z</time></trkpt>
			<trkpt lat="54.471100" lon="22.512610"><ele>134.3</ele><time>2026-06-04T17:13:35Z</time></trkpt>
			<trkpt lat="54.470320" lon="22.514950"><ele>134.9</ele><time>2026-06-04T17:13:42Z</time></trkpt>
			<trkpt lat="54.470040" lon="22.515600"><ele>135.0</ele><time>2026-06-04T17:13:49Z</time></trkpt>
			<trkpt lat="54.469760" lon="22.516130"><ele>135.2</ele><time>2026-06-04T17:13:56Z</time></trkpt>
			<trkpt lat="54.468310" lon="22.518140"><ele>135.8</ele><time>2026-06-04T17:14:03Z</time></trkpt>
			<trkpt lat="54.466610" lon="22.520390"><ele>136.6</ele><time>2026-06-04T17:14:10Z</time></trkpt>
			<trkpt lat="54.466170" lon="22.521090"><ele>136.8</ele><time>2026-06-04T17:14:17Z</time></trkpt>
			<trkpt lat="54.465800" lon="22.521950"><ele>137.1</ele><time>2026-06-04T17:14:23Z</time></trkpt>
			<trkpt lat="54.465170" lon="22.523600"><ele>137.7</ele><time>2026-06-04T17:14:30Z</time></trkpt>
			<trkpt lat="54.464590" lon="22.525090"><ele>138.2</ele><time>2026-06-04T17:14:37Z</time></trkpt>
			<trkpt lat="54.464240" lon="22.526030"><ele>138.5</ele><time>2026-06-04T17:14:44Z</time></trkpt>
			<trkpt lat="54.464110" lon="22.526740"><ele>138.7</ele><time>2026-06-04T17:14:51Z</time></trkpt>
			<trkpt lat="54.464030" lon="22.527600"><ele>139.0</ele><time>2026-06-04T17:14:58Z</time></trkpt>
			<trkpt lat="54.463970" lon="22.528460"><ele>139.2</ele><time>2026-06-04T17:15:05Z</time></trkpt>
			<trkpt lat="54.463890" lon="22.529530"><ele>139.5</ele><time>2026-06-04T17:15:12Z</time></trkpt>
			<trkpt lat="54.463890" lon="22.530350"><ele>139.7</ele><time>2026-06-04T17:15:19Z</time></trkpt>
			<trkpt lat="54.463940" lon="22.530880"><ele>139.9</ele><time>2026-06-04T17:15:26Z</time></trkpt>
			<trkpt lat="54.464940" lon="22.540010"><ele>143.5</ele><time>2026-06-04T17:15:33Z</time></trkpt>
			<trkpt lat="54.464970" lon="22.540420"><ele>143.7</ele><time>2026-06-04T17:15:39Z</time></trkpt>
			<trkpt lat="54.464980" lon="22.540860"><ele>143.9</ele><time>2026-06-04T17:15:46Z</time></trkpt>
			<trkpt lat="54.465010" lon="22.544350"><ele>145.6</ele><time>2026-06-04T17:15:53Z</time></trkpt>
			<trkpt lat="54.465080" lon="22.548310"><ele>147.5</ele><time>2026-06-04T17:16:00Z</time></trkpt>
			<trkpt lat="54.465090" lon="22.548710"><ele>147.7</ele><time>2026-06-04T17:16:07Z</time></trkpt>
			<trkpt lat="54.465150" lon="22.549140"><ele>147.9</ele><time>2026-06-04T17:16:14Z</time></trkpt>
			<trkpt lat="54.465430" lon="22.550410"><ele>148.5</ele><time>2026-06-04T17:16:21Z</time></trkpt>
			<trkpt lat="54.465470" lon="22.550850"><ele>148.6</ele><time>2026-06-04T17:16:28Z</time></trkpt>
			<trkpt lat="54.465470" lon="22.551230"><ele>148.7</ele><time>2026-06-04T17:16:35Z</time></trkpt>
			<trkpt lat="54.465420" lon="22.551630"><ele>148.7</ele><time>2026-06-04T17:16:42Z</time></trkpt>
			<trkpt lat="54.465300" lon="22.552110"><ele>148.8</ele><time>2026-06-04T17:16:48Z</time></trkpt>
			<trkpt lat="54.464110" lon="22.556320"><ele>149.7</ele><time>2026-06-04T17:16:55Z</time></trkpt>
			<trkpt lat="54.463990" lon="22.556650"><ele>149.8</ele><time>2026-06-04T17:17:02Z</time></trkpt>
			<trkpt lat="54.463860" lon="22.556960"><ele>149.8</ele><time>2026-06-04T17:17:09Z</time></trkpt>
			<trkpt lat="54.463710" lon="22.557260"><ele>149.9</ele><time>2026-06-04T17:17:16Z</time></trkpt>
			<trkpt lat="54.463550" lon="22.557520"><ele>150.0</ele><time>2026-06-04T17:17:23Z</time></trkpt>
			<trkpt lat="54.463260" lon="22.557880"><ele>150.1</ele><time>2026-06-04T17:17:30Z</time></trkpt>
			<trkpt lat="54.460340" lon="22.560780"><ele>151.2</ele><time>2026-06-04T17:17:37Z</time></trkpt>
			<trkpt lat="54.459430" lon="22.561470"><ele>151.1</ele><time>2026-06-04T17:17:44Z</time></trkpt>
			<trkpt lat="54.457500" lon="22.562830"><ele>149.8</ele><time>2026-06-04T17:17:51Z</time></trkpt>
			<trkpt lat="54.456330" lon="22.563710"><ele>149.1</ele><time>2026-06-04T17:17:58Z</time></trkpt>
			<trkpt lat="54.455300" lon="22.564390"><ele>148.5</ele><time>2026-06-04T17:18:04Z</time></trkpt>
			<trkpt lat="54.454200" lon="22.565220"><ele>147.8</ele><time>2026-06-04T17:18:11Z</time></trkpt>
			<trkpt lat="54.453830" lon="22.565620"><ele>147.5</ele><time>2026-06-04T17:18:18Z</time></trkpt>
			<trkpt lat="54.453540" lon="22.566010"><ele>147.3</ele><time>2026-06-04T17:18:25Z</time></trkpt>
			<trkpt lat="54.452520" lon="22.567700"><ele>146.5</ele><time>2026-06-04T17:18:32Z</time></trkpt>
			<trkpt lat="54.452300" lon="22.568020"><ele>146.3</ele><time>2026-06-04T17:18:39Z</time></trkpt>
			<trkpt lat="54.452020" lon="22.568460"><ele>146.1</ele><time>2026-06-04T17:18:46Z</time></trkpt>
			<trkpt lat="54.451830" lon="22.568750"><ele>146.2</ele><time>2026-06-04T17:18:53Z</time></trkpt>
			<trkpt lat="54.451680" lon="22.568950"><ele>146.2</ele><time>2026-06-04T17:19:00Z</time></trkpt>
			<trkpt lat="54.451460" lon="22.569200"><ele>146.2</ele><time>2026-06-04T17:19:07Z</time></trkpt>
			<trkpt lat="54.450520" lon="22.570180"><ele>146.4</ele><time>2026-06-04T17:19:14Z</time></trkpt>
			<trkpt lat="54.448630" lon="22.572020"><ele>146.8</ele><time>2026-06-04T17:19:20Z</time></trkpt>
			<trkpt lat="54.447760" lon="22.572890"><ele>147.0</ele><time>2026-06-04T17:19:27Z</time></trkpt>
			<trkpt lat="54.446740" lon="22.573950"><ele>147.2</ele><time>2026-06-04T17:19:34Z</time></trkpt>
			<trkpt lat="54.446560" lon="22.574160"><ele>147.3</ele><time>2026-06-04T17:19:41Z</time></trkpt>
			<trkpt lat="54.446150" lon="22.574740"><ele>147.4</ele><time>2026-06-04T17:19:48Z</time></trkpt>
			<trkpt lat="54.446060" lon="22.574680"><ele>147.4</ele><time>2026-06-04T17:19:55Z</time></trkpt>
			<trkpt lat="54.446010" lon="22.574640"><ele>147.4</ele><time>2026-06-04T17:20:02Z</time></trkpt>
			<trkpt lat="54.445980" lon="22.574590"><ele>147.4</ele><time>2026-06-04T17:20:09Z</time></trkpt>
			<trkpt lat="54.445880" lon="22.574390"><ele>147.4</ele><time>2026-06-04T17:20:16Z</time></trkpt>
			<trkpt lat="54.445680" lon="22.573930"><ele>147.5</ele><time>2026-06-04T17:20:23Z</time></trkpt>
			<trkpt lat="54.445520" lon="22.573560"><ele>147.5</ele><time>2026-06-04T17:20:29Z</time></trkpt>
			<trkpt lat="54.445360" lon="22.573230"><ele>147.6</ele><time>2026-06-04T17:20:36Z</time></trkpt>
			<trkpt lat="54.445260" lon="22.573040"><ele>147.6</ele><time>2026-06-04T17:20:43Z</time></trkpt>
			<trkpt lat="54.445190" lon="22.572920"><ele>147.6</ele><time>2026-06-04T17:20:50Z</time></trkpt>
			<trkpt lat="54.445040" lon="22.572820"><ele>147.7</ele><time>2026-06-04T17:20:57Z</time></trkpt>
			<trkpt lat="54.444680" lon="22.572690"><ele>147.7</ele><time>2026-06-04T17:21:04Z</time></trkpt>
			<trkpt lat="54.444550" lon="22.572660"><ele>147.8</ele><time>2026-06-04T17:21:11Z</time></trkpt>
			<trkpt lat="54.444390" lon="22.572660"><ele>147.9</ele><time>2026-06-04T17:21:18Z</time></trkpt>
			<trkpt lat="54.444270" lon="22.572700"><ele>147.9</ele><time>2026-06-04T17:21:25Z</time></trkpt>
			<trkpt lat="54.444140" lon="22.572780"><ele>148.0</ele><time>2026-06-04T17:21:32Z</time></trkpt>
			<trkpt lat="54.443790" lon="22.573130"><ele>148.2</ele><time>2026-06-04T17:21:39Z</time></trkpt>
			<trkpt lat="54.442610" lon="22.574360"><ele>148.9</ele><time>2026-06-04T17:21:45Z</time></trkpt>
			<trkpt lat="54.442470" lon="22.574510"><ele>149.0</ele><time>2026-06-04T17:21:52Z</time></trkpt>
			<trkpt lat="54.442470" lon="22.574510"><ele>149.0</ele><time>2026-06-04T17:22:01Z</time></trkpt>
			<trkpt lat="54.435680" lon="22.581570"><ele>154.7</ele><time>2026-06-04T17:22:09Z</time></trkpt>
			<trkpt lat="54.434380" lon="22.582920"><ele>157.2</ele><time>2026-06-04T17:22:17Z</time></trkpt>
			<trkpt lat="54.434000" lon="22.583410"><ele>158.0</ele><time>2026-06-04T17:22:26Z</time></trkpt>
			<trkpt lat="54.433520" lon="22.584270"><ele>159.2</ele><time>2026-06-04T17:22:34Z</time></trkpt>
			<trkpt lat="54.431680" lon="22.588310"><ele>164.1</ele><time>2026-06-04T17:22:42Z</time></trkpt>
			<trkpt lat="54.431450" lon="22.588700"><ele>164.6</ele><time>2026-06-04T17:22:51Z</time></trkpt>
			<trkpt lat="54.431290" lon="22.588840"><ele>164.9</ele><time>2026-06-04T17:22:59Z</time></trkpt>
			<trkpt lat="54.431160" lon="22.588880"><ele>165.1</ele><time>2026-06-04T17:23:07Z</time></trkpt>
			<trkpt lat="54.431020" lon="22.588880"><ele>165.4</ele><time>2026-06-04T17:23:16Z</time></trkpt>
			<trkpt lat="54.430760" lon="22.588810"><ele>165.8</ele><time>2026-06-04T17:23:24Z</time></trkpt>
			<trkpt lat="54.428350" lon="22.587820"><ele>167.4</ele><time>2026-06-04T17:23:32Z</time></trkpt>
			<trkpt lat="54.428130" lon="22.587770"><ele>167.5</ele><time>2026-06-04T17:23:41Z</time></trkpt>
			<trkpt lat="54.427880" lon="22.587770"><ele>167.5</ele><time>2026-06-04T17:23:49Z</time></trkpt>
			<trkpt lat="54.427560" lon="22.587810"><ele>167.5</ele><time>2026-06-04T17:23:57Z</time></trkpt>
			<trkpt lat="54.427060" lon="22.587940"><ele>167.6</ele><time>2026-06-04T17:24:06Z</time></trkpt>
			<trkpt lat="54.426140" lon="22.588270"><ele>167.7</ele><time>2026-06-04T17:24:14Z</time></trkpt>
			<trkpt lat="54.425610" lon="22.588460"><ele>167.7</ele><time>2026-06-04T17:24:22Z</time></trkpt>
			<trkpt lat="54.424080" lon="22.588950"><ele>167.9</ele><time>2026-06-04T17:24:30Z</time></trkpt>
			<trkpt lat="54.423900" lon="22.589030"><ele>167.9</ele><time>2026-06-04T17:24:39Z</time></trkpt>
			<trkpt lat="54.423760" lon="22.589170"><ele>167.9</ele><time>2026-06-04T17:24:47Z</time></trkpt>
			<trkpt lat="54.423660" lon="22.589370"><ele>167.9</ele><time>2026-06-04T17:24:55Z</time></trkpt>
			<trkpt lat="54.423550" lon="22.589610"><ele>167.9</ele><time>2026-06-04T17:25:04Z</time></trkpt>
			<trkpt lat="54.423250" lon="22.590400"><ele>168.0</ele><time>2026-06-04T17:25:12Z</time></trkpt>
			<trkpt lat="54.422980" lon="22.591020"><ele>168.0</ele><time>2026-06-04T17:25:20Z</time></trkpt>
			<trkpt lat="54.422800" lon="22.591350"><ele>168.0</ele><time>2026-06-04T17:25:29Z</time></trkpt>
			<trkpt lat="54.422600" lon="22.591620"><ele>168.1</ele><time>2026-06-04T17:25:37Z</time></trkpt>
			<trkpt lat="54.422170" lon="22.591840"><ele>168.1</ele><time>2026-06-04T17:25:45Z</time></trkpt>
			<trkpt lat="54.421900" lon="22.591750"><ele>168.1</ele><time>2026-06-04T17:25:54Z</time></trkpt>
			<trkpt lat="54.421760" lon="22.591590"><ele>168.1</ele><time>2026-06-04T17:26:02Z</time></trkpt>
			<trkpt lat="54.421070" lon="22.589720"><ele>167.6</ele><time>2026-06-04T17:26:10Z</time></trkpt>
			<trkpt lat="54.420950" lon="22.589560"><ele>167.5</ele><time>2026-06-04T17:26:19Z</time></trkpt>
			<trkpt lat="54.420800" lon="22.589400"><ele>167.5</ele><time>2026-06-04T17:26:27Z</time></trkpt>
			<trkpt lat="54.420620" lon="22.589330"><ele>167.4</ele><time>2026-06-04T17:26:35Z</time></trkpt>
			<trkpt lat="54.420420" lon="22.589290"><ele>167.3</ele><time>2026-06-04T17:26:44Z</time></trkpt>
			<trkpt lat="54.419710" lon="22.589340"><ele>167.0</ele><time>2026-06-04T17:26:52Z</time></trkpt>
			<trkpt lat="54.418520" lon="22.589370"><ele>166.5</ele><time>2026-06-04T17:27:00Z</time></trkpt>
			<trkpt lat="54.417920" lon="22.589420"><ele>166.2</ele><time>2026-06-04T17:27:09Z</time></trkpt>
			<trkpt lat="54.417580" lon="22.589460"><ele>166.0</ele><time>2026-06-04T17:27:17Z</time></trkpt>
			<trkpt lat="54.417190" lon="22.589880"><ele>165.8</ele><time>2026-06-04T17:27:25Z</time></trkpt>
			<trkpt lat="54.416850" lon="22.590500"><ele>165.6</ele><time>2026-06-04T17:27:34Z</time></trkpt>
			<trkpt lat="54.415970" lon="22.592080"><ele>165.1</ele><time>2026-06-04T17:27:42Z</time></trkpt>
			<trkpt lat="54.415590" lon="22.592910"><ele>164.8</ele><time>2026-06-04T17:27:50Z</time></trkpt>
			<trkpt lat="54.415180" lon="22.594890"><ele>164.3</ele><time>2026-06-04T17:27:59Z</time></trkpt>
			<trkpt lat="54.414710" lon="22.597420"><ele>165.1</ele><time>2026-06-04T17:28:07Z</time></trkpt>
			<trkpt lat="54.414600" lon="22.597870"><ele>165.3</ele><time>2026-06-04T17:28:15Z</time></trkpt>
			<trkpt lat="54.414350" lon="22.598510"><ele>165.5</ele><time>2026-06-04T17:28:24Z</time></trkpt>
			<trkpt lat="54.413720" lon="22.599410"><ele>166.0</ele><time>2026-06-04T17:28:32Z</time></trkpt>
			<trkpt lat="54.411740" lon="22.601470"><ele>167.4</ele><time>2026-06-04T17:28:40Z</time></trkpt>
			<trkpt lat="54.408760" lon="22.604890"><ele>169.5</ele><time>2026-06-04T17:28:49Z</time></trkpt>
			<trkpt lat="54.406770" lon="22.607270"><ele>168.9</ele><time>2026-06-04T17:28:57Z</time></trkpt>
			<trkpt lat="54.405930" lon="22.608300"><ele>168.7</ele><time>2026-06-04T17:29:05Z</time></trkpt>
			<trkpt lat="54.405630" lon="22.608960"><ele>168.5</ele><time>2026-06-04T17:29:13Z</time></trkpt>
			<trkpt lat="54.405290" lon="22.609780"><ele>168.4</ele><time>2026-06-04T17:29:22Z</time></trkpt>
			<trkpt lat="54.404790" lon="22.612410"><ele>167.9</ele><time>2026-06-04T17:29:30Z</time></trkpt>
			<trkpt lat="54.404610" lon="22.613400"><ele>167.8</ele><time>2026-06-04T17:29:38Z</time></trkpt>
			<trkpt lat="54.404340" lon="22.614090"><ele>167.7</ele><time>2026-06-04T17:29:47Z</time></trkpt>
			<trkpt lat="54.403530" lon="22.615910"><ele>167.3</ele><time>2026-06-04T17:29:55Z</time></trkpt>
			<trkpt lat="54.403380" lon="22.616400"><ele>167.2</ele><time>2026-06-04T17:30:03Z</time></trkpt>
			<trkpt lat="54.402830" lon="22.618360"><ele>171.3</ele><time>2026-06-04T17:30:12Z</time></trkpt>
			<trkpt lat="54.402430" lon="22.619960"><ele>175.3</ele><time>2026-06-04T17:30:20Z</time></trkpt>
			<trkpt lat="54.400830" lon="22.624710"><ele>187.8</ele><time>2026-06-04T17:30:28Z</time></trkpt>
			<trkpt lat="54.398390" lon="22.629610"><ele>202.5</ele><time>2026-06-04T17:30:37Z</time></trkpt>
			<trkpt lat="54.397210" lon="22.631770"><ele>201.6</ele><time>2026-06-04T17:30:45Z</time></trkpt>
			<trkpt lat="54.396670" lon="22.632770"><ele>201.3</ele><time>2026-06-04T17:30:53Z</time></trkpt>
			<trkpt lat="54.395170" lon="22.634710"><ele>200.4</ele><time>2026-06-04T17:31:02Z</time></trkpt>
			<trkpt lat="54.393620" lon="22.637170"><ele>199.3</ele><time>2026-06-04T17:31:10Z</time></trkpt>
			<trkpt lat="54.391960" lon="22.639900"><ele>198.2</ele><time>2026-06-04T17:31:18Z</time></trkpt>
			<trkpt lat="54.389490" lon="22.644380"><ele>193.2</ele><time>2026-06-04T17:31:27Z</time></trkpt>
			<trkpt lat="54.388960" lon="22.645460"><ele>191.9</ele><time>2026-06-04T17:31:35Z</time></trkpt>
			<trkpt lat="54.388670" lon="22.646730"><ele>190.8</ele><time>2026-06-04T17:31:43Z</time></trkpt>
			<trkpt lat="54.388340" lon="22.647990"><ele>189.6</ele><time>2026-06-04T17:31:52Z</time></trkpt>
			<trkpt lat="54.388150" lon="22.648630"><ele>189.0</ele><time>2026-06-04T17:32:00Z</time></trkpt>
			<trkpt lat="54.388020" lon="22.649710"><ele>188.1</ele><time>2026-06-04T17:32:08Z</time></trkpt>
			<trkpt lat="54.388010" lon="22.650280"><ele>187.6</ele><time>2026-06-04T17:32:17Z</time></trkpt>
			<trkpt lat="54.387990" lon="22.651340"><ele>186.7</ele><time>2026-06-04T17:32:25Z</time></trkpt>
			<trkpt lat="54.388010" lon="22.652260"><ele>185.9</ele><time>2026-06-04T17:32:33Z</time></trkpt>
			<trkpt lat="54.388040" lon="22.653030"><ele>185.2</ele><time>2026-06-04T17:32:42Z</time></trkpt>
			<trkpt lat="54.388070" lon="22.653560"><ele>185.3</ele><time>2026-06-04T17:32:50Z</time></trkpt>
			<trkpt lat="54.388010" lon="22.654140"><ele>186.0</ele><time>2026-06-04T17:32:58Z</time></trkpt>
			<trkpt lat="54.387680" lon="22.655970"><ele>188.4</ele><time>2026-06-04T17:33:07Z</time></trkpt>
			<trkpt lat="54.387450" lon="22.658610"><ele>191.6</ele><time>2026-06-04T17:33:15Z</time></trkpt>
			<trkpt lat="54.387180" lon="22.661250"><ele>194.9</ele><time>2026-06-04T17:33:23Z</time></trkpt>
			<trkpt lat="54.386930" lon="22.664420"><ele>198.9</ele><time>2026-06-04T17:33:31Z</time></trkpt>
			<trkpt lat="54.386820" lon="22.665460"><ele>200.2</ele><time>2026-06-04T17:33:40Z</time></trkpt>
			<trkpt lat="54.386730" lon="22.666460"><ele>201.4</ele><time>2026-06-04T17:33:48Z</time></trkpt>
			<trkpt lat="54.386600" lon="22.670570"><ele>204.4</ele><time>2026-06-04T17:33:56Z</time></trkpt>
			<trkpt lat="54.386470" lon="22.675730"><ele>205.5</ele><time>2026-06-04T17:34:05Z</time></trkpt>
			<trkpt lat="54.386480" lon="22.676890"><ele>205.7</ele><time>2026-06-04T17:34:13Z</time></trkpt>
			<trkpt lat="54.386490" lon="22.677510"><ele>205.9</ele><time>2026-06-04T17:34:21Z</time></trkpt>
			<trkpt lat="54.387060" lon="22.681590"><ele>206.7</ele><time>2026-06-04T17:34:30Z</time></trkpt>
			<trkpt lat="54.387660" lon="22.685640"><ele>206.7</ele><time>2026-06-04T17:34:38Z</time></trkpt>
			<trkpt lat="54.387950" lon="22.687690"><ele>206.1</ele><time>2026-06-04T17:34:46Z</time></trkpt>
			<trkpt lat="54.388360" lon="22.687700"><ele>205.9</ele><time>2026-06-04T17:34:55Z</time></trkpt>
			<trkpt lat="54.388540" lon="22.687760"><ele>205.8</ele><time>2026-06-04T17:35:03Z</time></trkpt>
			<trkpt lat="54.388710" lon="22.687770"><ele>205.7</ele><time>2026-06-04T17:35:11Z</time></trkpt>
			<trkpt lat="54.388880" lon="22.687680"><ele>205.6</ele><time>2026-06-04T17:35:20Z</time></trkpt>
			<trkpt lat="54.388880" lon="22.687680"><ele>205.6</ele><time>2026-06-04T17:35:25Z</time></trkpt>
			<trkpt lat="54.388940" lon="22.687650"><ele>205.6</ele><time>2026-06-04T17:35:30Z</time></trkpt>
			<trkpt lat="54.389280" lon="22.687390"><ele>205.4</ele><time>2026-06-04T17:35:35Z</time></trkpt>
			<trkpt lat="54.389650" lon="22.687170"><ele>205.2</ele><time>2026-06-04T17:35:40Z</time></trkpt>
			<trkpt lat="54.391100" lon="22.686590"><ele>204.5</ele><time>2026-06-04T17:35:45Z</time></trkpt>
			<trkpt lat="54.394050" lon="22.685370"><ele>203.0</ele><time>2026-06-04T17:35:50Z</time></trkpt>
			<trkpt lat="54.394720" lon="22.685200"><ele>202.5</ele><time>2026-06-04T17:35:55Z</time></trkpt>
			<trkpt lat="54.397790" lon="22.685520"><ele>199.3</ele><time>2026-06-04T17:36:00Z</time></trkpt>
			<trkpt lat="54.398060" lon="22.685520"><ele>199.1</ele><time>2026-06-04T17:36:05Z</time></trkpt>
			<trkpt lat="54.398310" lon="22.685570"><ele>198.8</ele><time>2026-06-04T17:36:10Z</time></trkpt>
			<trkpt lat="54.398570" lon="22.685690"><ele>198.5</ele><time>2026-06-04T17:36:15Z</time></trkpt>
			<trkpt lat="54.399010" lon="22.686130"><ele>198.0</ele><time>2026-06-04T17:36:20Z</time></trkpt>
			<trkpt lat="54.399430" lon="22.686630"><ele>197.5</ele><time>2026-06-04T17:36:25Z</time></trkpt>
			<trkpt lat="54.400920" lon="22.688280"><ele>195.6</ele><time>2026-06-04T17:36:30Z</time></trkpt>
			<trkpt lat="54.401090" lon="22.688420"><ele>195.4</ele><time>2026-06-04T17:36:35Z</time></trkpt>
			<trkpt lat="54.401800" lon="22.688790"><ele>194.6</ele><time>2026-06-04T17:36:40Z</time></trkpt>
			<trkpt lat="54.403040" lon="22.689340"><ele>193.3</ele><time>2026-06-04T17:36:45Z</time></trkpt>
			<trkpt lat="54.403250" lon="22.689290"><ele>193.1</ele><time>2026-06-04T17:36:50Z</time></trkpt>
			<trkpt lat="54.404730" lon="22.688780"><ele>191.6</ele><time>2026-06-04T17:36:55Z</time></trkpt>
			<trkpt lat="54.406540" lon="22.688020"><ele>189.7</ele><time>2026-06-04T17:37:00Z</time></trkpt>
			<trkpt lat="54.407080" lon="22.687800"><ele>189.1</ele><time>2026-06-04T17:37:05Z</time></trkpt>
			<trkpt lat="54.407240" lon="22.687740"><ele>189.0</ele><time>2026-06-04T17:37:10Z</time></trkpt>
			<trkpt lat="54.407490" lon="22.687730"><ele>188.7</ele><time>2026-06-04T17:37:15Z</time></trkpt>
			<trkpt lat="54.408610" lon="22.687980"><ele>187.6</ele><time>2026-06-04T17:37:20Z</time></trkpt>
			<trkpt lat="54.411260" lon="22.688690"><ele>184.9</ele><time>2026-06-04T17:37:25Z</time></trkpt>
			<trkpt lat="54.411440" lon="22.688730"><ele>184.7</ele><time>2026-06-04T17:37:30Z</time></trkpt>
			<trkpt lat="54.411490" lon="22.688740"><ele>184.6</ele><time>2026-06-04T17:37:35Z</time></trkpt>
			<trkpt lat="54.414130" lon="22.689290"><ele>181.5</ele><time>2026-06-04T17:37:40Z</time></trkpt>
			<trkpt lat="54.414650" lon="22.689440"><ele>180.9</ele><time>2026-06-04T17:37:45Z</time></trkpt>
			<trkpt lat="54.415850" lon="22.689640"><ele>179.5</ele><time>2026-06-04T17:37:50Z</time></trkpt>
			<trkpt lat="54.416030" lon="22.689670"><ele>179.3</ele><time>2026-06-04T17:37:55Z</time></trkpt>
			<trkpt lat="54.416220" lon="22.689670"><ele>179.1</ele><time>2026-06-04T17:38:00Z</time></trkpt>
			<trkpt lat="54.416420" lon="22.689610"><ele>178.8</ele><time>2026-06-04T17:38:05Z</time></trkpt>
			<trkpt lat="54.416850" lon="22.689280"><ele>178.3</ele><time>2026-06-04T17:38:10Z</time></trkpt>
			<trkpt lat="54.417000" lon="22.689170"><ele>178.1</ele><time>2026-06-04T17:38:15Z</time></trkpt>
			<trkpt lat="54.417260" lon="22.689080"><ele>177.8</ele><time>2026-06-04T17:38:20Z</time></trkpt>
			<trkpt lat="54.417400" lon="22.689070"><ele>177.6</ele><time>2026-06-04T17:38:25Z</time></trkpt>
			<trkpt lat="54.417600" lon="22.689120"><ele>177.4</ele><time>2026-06-04T17:38:30Z</time></trkpt>
			<trkpt lat="54.417750" lon="22.689100"><ele>177.2</ele><time>2026-06-04T17:38:35Z</time></trkpt>
			<trkpt lat="54.417930" lon="22.688980"><ele>177.0</ele><time>2026-06-04T17:38:40Z</time></trkpt>
			<trkpt lat="54.419210" lon="22.687960"><ele>175.3</ele><time>2026-06-04T17:38:45Z</time></trkpt>
			<trkpt lat="54.419950" lon="22.687500"><ele>174.4</ele><time>2026-06-04T17:38:50Z</time></trkpt>
			<trkpt lat="54.420660" lon="22.687130"><ele>173.9</ele><time>2026-06-04T17:38:55Z</time></trkpt>
			<trkpt lat="54.421630" lon="22.686750"><ele>174.1</ele><time>2026-06-04T17:39:00Z</time></trkpt>
			<trkpt lat="54.421930" lon="22.686610"><ele>174.2</ele><time>2026-06-04T17:39:05Z</time></trkpt>
			<trkpt lat="54.422080" lon="22.686490"><ele>174.2</ele><time>2026-06-04T17:39:10Z</time></trkpt>
			<trkpt lat="54.422150" lon="22.686430"><ele>174.2</ele><time>2026-06-04T17:39:15Z</time></trkpt>
			<trkpt lat="54.422260" lon="22.686330"><ele>174.3</ele><time>2026-06-04T17:39:20Z</time></trkpt>
			<trkpt lat="54.422430" lon="22.686060"><ele>174.3</ele><time>2026-06-04T17:39:25Z</time></trkpt>
			<trkpt lat="54.424220" lon="22.680790"><ele>175.1</ele><time>2026-06-04T17:39:30Z</time></trkpt>
			<trkpt lat="54.424420" lon="22.680330"><ele>175.2</ele><time>2026-06-04T17:39:35Z</time></trkpt>
			<trkpt lat="54.424590" lon="22.680200"><ele>175.3</ele><time>2026-06-04T17:39:40Z</time></trkpt>
			<trkpt lat="54.424770" lon="22.680140"><ele>175.3</ele><time>2026-06-04T17:39:45Z</time></trkpt>
			<trkpt lat="54.426680" lon="22.680140"><ele>175.8</ele><time>2026-06-04T17:39:50Z</time></trkpt>
			<trkpt lat="54.428210" lon="22.680110"><ele>176.7</ele><time>2026-06-04T17:39:55Z</time></trkpt>
			<trkpt lat="54.429300" lon="22.680110"><ele>177.7</ele><time>2026-06-04T17:40:00Z</time></trkpt>
			<trkpt lat="54.430390" lon="22.680250"><ele>178.7</ele><time>2026-06-04T17:40:05Z</time></trkpt>
			<trkpt lat="54.432400" lon="22.680560"><ele>180.6</ele><time>2026-06-04T17:40:10Z</time></trkpt>
			<trkpt lat="54.433740" lon="22.680720"><ele>181.8</ele><time>2026-06-04T17:40:15Z</time></trkpt>
			<trkpt lat="54.434410" lon="22.680630"><ele>182.5</ele><time>2026-06-04T17:40:20Z</time></trkpt>
			<trkpt lat="54.434970" lon="22.680480"><ele>183.0</ele><time>2026-06-04T17:40:25Z</time></trkpt>
			<trkpt lat="54.435590" lon="22.680190"><ele>183.6</ele><time>2026-06-04T17:40:30Z</time></trkpt>
			<trkpt lat="54.436960" lon="22.679380"><ele>184.7</ele><time>2026-06-04T17:40:35Z</time></trkpt>
			<trkpt lat="54.437770" lon="22.679080"><ele>185.1</ele><time>2026-06-04T17:40:40Z</time></trkpt>
			<trkpt lat="54.438830" lon="22.678730"><ele>185.8</ele><time>2026-06-04T17:40:45Z</time></trkpt>
			<trkpt lat="54.440020" lon="22.678260"><ele>186.5</ele><time>2026-06-04T17:40:50Z</time></trkpt>
			<trkpt lat="54.441760" lon="22.677700"><ele>187.5</ele><time>2026-06-04T17:40:55Z</time></trkpt>
			<trkpt lat="54.442100" lon="22.677540"><ele>187.7</ele><time>2026-06-04T17:41:00Z</time></trkpt>
			<trkpt lat="54.443950" lon="22.676390"><ele>188.8</ele><time>2026-06-04T17:41:05Z</time></trkpt>
			<trkpt lat="54.445350" lon="22.675510"><ele>188.4</ele><time>2026-06-04T17:41:10Z</time></trkpt>
			<trkpt lat="54.446330" lon="22.674880"><ele>186.0</ele><time>2026-06-04T17:41:15Z</time></trkpt>
			<trkpt lat="54.447320" lon="22.674260"><ele>183.7</ele><time>2026-06-04T17:41:20Z</time></trkpt>
			<trkpt lat="54.447740" lon="22.673980"><ele>182.6</ele><time>2026-06-04T17:41:25Z</time></trkpt>
			<trkpt lat="54.447940" lon="22.673800"><ele>182.1</ele><time>2026-06-04T17:41:30Z</time></trkpt>
			<trkpt lat="54.448090" lon="22.673620"><ele>181.7</ele><time>2026-06-04T17:41:35Z</time></trkpt>
			<trkpt lat="54.448320" lon="22.673240"><ele>181.0</ele><time>2026-06-04T17:41:40Z</time></trkpt>
			<trkpt lat="54.449110" lon="22.671800"><ele>178.4</ele><time>2026-06-04T17:41:46Z</time></trkpt>
			<trkpt lat="54.449860" lon="22.670460"><ele>176.0</ele><time>2026-06-04T17:41:51Z</time></trkpt>
			<trkpt lat="54.450710" lon="22.668900"><ele>173.2</ele><time>2026-06-04T17:41:56Z</time></trkpt>
			<trkpt lat="54.450920" lon="22.668530"><ele>172.5</ele><time>2026-06-04T17:42:01Z</time></trkpt>
			<trkpt lat="54.451370" lon="22.667760"><ele>171.1</ele><time>2026-06-04T17:42:06Z</time></trkpt>
			<trkpt lat="54.451470" lon="22.667600"><ele>170.8</ele><time>2026-06-04T17:42:11Z</time></trkpt>
			<trkpt lat="54.451580" lon="22.667500"><ele>170.5</ele><time>2026-06-04T17:42:16Z</time></trkpt>
			<trkpt lat="54.452010" lon="22.667240"><ele>169.5</ele><time>2026-06-04T17:42:21Z</time></trkpt>
			<trkpt lat="54.452140" lon="22.667140"><ele>169.2</ele><time>2026-06-04T17:42:26Z</time></trkpt>
			<trkpt lat="54.452310" lon="22.666970"><ele>169.6</ele><time>2026-06-04T17:42:31Z</time></trkpt>
			<trkpt lat="54.452420" lon="22.666810"><ele>169.9</ele><time>2026-06-04T17:42:36Z</time></trkpt>
			<trkpt lat="54.452520" lon="22.666630"><ele>170.2</ele><time>2026-06-04T17:42:41Z</time></trkpt>
			<trkpt lat="54.452620" lon="22.666380"><ele>170.6</ele><time>2026-06-04T17:42:46Z</time></trkpt>
			<trkpt lat="54.452730" lon="22.666070"><ele>171.0</ele><time>2026-06-04T17:42:51Z</time></trkpt>
			<trkpt lat="54.452940" lon="22.665600"><ele>171.8</ele><time>2026-06-04T17:42:56Z</time></trkpt>
			<trkpt lat="54.453300" lon="22.664920"><ele>172.9</ele><time>2026-06-04T17:43:01Z</time></trkpt>
			<trkpt lat="54.453500" lon="22.664610"><ele>173.5</ele><time>2026-06-04T17:43:06Z</time></trkpt>
			<trkpt lat="54.454120" lon="22.663760"><ele>175.2</ele><time>2026-06-04T17:43:11Z</time></trkpt>
			<trkpt lat="54.458790" lon="22.657440"><ele>187.9</ele><time>2026-06-04T17:43:16Z</time></trkpt>
			<trkpt lat="54.459050" lon="22.657130"><ele>188.3</ele><time>2026-06-04T17:43:21Z</time></trkpt>
			<trkpt lat="54.459420" lon="22.656750"><ele>187.7</ele><time>2026-06-04T17:43:26Z</time></trkpt>
			<trkpt lat="54.462880" lon="22.653440"><ele>182.6</ele><time>2026-06-04T17:43:31Z</time></trkpt>
			<trkpt lat="54.463120" lon="22.653250"><ele>182.3</ele><time>2026-06-04T17:43:36Z</time></trkpt>
			<trkpt lat="54.463320" lon="22.653180"><ele>182.0</ele><time>2026-06-04T17:43:41Z</time></trkpt>
			<trkpt lat="54.463430" lon="22.653170"><ele>181.9</ele><time>2026-06-04T17:43:46Z</time></trkpt>
			<trkpt lat="54.463540" lon="22.653190"><ele>181.7</ele><time>2026-06-04T17:43:51Z</time></trkpt>
			<trkpt lat="54.463630" lon="22.653220"><ele>181.6</ele><time>2026-06-04T17:43:56Z</time></trkpt>
			<trkpt lat="54.465460" lon="22.654140"><ele>179.1</ele><time>2026-06-04T17:44:01Z</time></trkpt>
			<trkpt lat="54.466390" lon="22.654900"><ele>177.8</ele><time>2026-06-04T17:44:06Z</time></trkpt>
			<trkpt lat="54.467920" lon="22.656240"><ele>175.5</ele><time>2026-06-04T17:44:11Z</time></trkpt>
			<trkpt lat="54.468230" lon="22.656480"><ele>175.0</ele><time>2026-06-04T17:44:16Z</time></trkpt>
			<trkpt lat="54.468500" lon="22.656680"><ele>174.6</ele><time>2026-06-04T17:44:21Z</time></trkpt>
			<trkpt lat="54.470820" lon="22.658170"><ele>171.1</ele><time>2026-06-04T17:44:26Z</time></trkpt>
			<trkpt lat="54.472320" lon="22.659110"><ele>168.8</ele><time>2026-06-04T17:44:31Z</time></trkpt>
			<trkpt lat="54.473810" lon="22.660080"><ele>166.5</ele><time>2026-06-04T17:44:36Z</time></trkpt>
			<trkpt lat="54.474150" lon="22.660270"><ele>166.0</ele><time>2026-06-04T17:44:41Z</time></trkpt>
			<trkpt lat="54.474360" lon="22.660360"><ele>165.7</ele><time>2026-06-04T17:44:46Z</time></trkpt>
			<trkpt lat="54.474810" lon="22.660500"><ele>165.1</ele><time>2026-06-04T17:44:51Z</time></trkpt>
			<trkpt lat="54.475740" lon="22.660710"><ele>164.1</ele><time>2026-06-04T17:44:56Z</time></trkpt>
			<trkpt lat="54.477460" lon="22.661180"><ele>165.3</ele><time>2026-06-04T17:45:01Z</time></trkpt>
			<trkpt lat="54.479720" lon="22.661700"><ele>166.8</ele><time>2026-06-04T17:45:06Z</time></trkpt>
			<trkpt lat="54.479960" lon="22.661790"><ele>166.9</ele><time>2026-06-04T17:45:11Z</time></trkpt>
			<trkpt lat="54.480310" lon="22.662000"><ele>167.2</ele><time>2026-06-04T17:45:16Z</time></trkpt>
			<trkpt lat="54.482150" lon="22.663280"><ele>168.5</ele><time>2026-06-04T17:45:21Z</time></trkpt>
			<trkpt lat="54.482380" lon="22.663440"><ele>168.7</ele><time>2026-06-04T17:45:26Z</time></trkpt>
			<trkpt lat="54.482540" lon="22.663600"><ele>168.8</ele><time>2026-06-04T17:45:31Z</time></trkpt>
			<trkpt lat="54.482710" lon="22.663830"><ele>168.9</ele><time>2026-06-04T17:45:36Z</time></trkpt>
			<trkpt lat="54.483110" lon="22.664400"><ele>169.3</ele><time>2026-06-04T17:45:41Z</time></trkpt>
			<trkpt lat="54.483260" lon="22.664590"><ele>169.4</ele><time>2026-06-04T17:45:46Z</time></trkpt>
			<trkpt lat="54.483390" lon="22.664730"><ele>169.5</ele><time>2026-06-04T17:45:51Z</time></trkpt>
			<trkpt lat="54.483520" lon="22.664840"><ele>169.6</ele><time>2026-06-04T17:45:56Z</time></trkpt>
			<trkpt lat="54.483730" lon="22.664890"><ele>169.8</ele><time>2026-06-04T17:46:01Z</time></trkpt>
			<trkpt lat="54.484230" lon="22.665030"><ele>169.8</ele><time>2026-06-04T17:46:06Z</time></trkpt>
			<trkpt lat="54.484370" lon="22.665080"><ele>169.7</ele><time>2026-06-04T17:46:11Z</time></trkpt>
			<trkpt lat="54.484460" lon="22.665140"><ele>169.6</ele><time>2026-06-04T17:46:16Z</time></trkpt>
			<trkpt lat="54.484610" lon="22.665390"><ele>169.4</ele><time>2026-06-04T17:46:21Z</time></trkpt>
			<trkpt lat="54.484950" lon="22.665950"><ele>168.9</ele><time>2026-06-04T17:46:26Z</time></trkpt>
			<trkpt lat="54.485210" lon="22.666330"><ele>168.6</ele><time>2026-06-04T17:46:31Z</time></trkpt>
			<trkpt lat="54.485340" lon="22.666440"><ele>168.4</ele><time>2026-06-04T17:46:36Z</time></trkpt>
			<trkpt lat="54.485420" lon="22.666470"><ele>168.4</ele><time>2026-06-04T17:46:41Z</time></trkpt>
			<trkpt lat="54.485500" lon="22.666470"><ele>168.3</ele><time>2026-06-04T17:46:46Z</time></trkpt>
			<trkpt lat="54.485640" lon="22.666420"><ele>168.1</ele><time>2026-06-04T17:46:51Z</time></trkpt>
			<trkpt lat="54.486780" lon="22.665790"><ele>167.0</ele><time>2026-06-04T17:46:56Z</time></trkpt>
			<trkpt lat="54.487560" lon="22.665340"><ele>166.2</ele><time>2026-06-04T17:47:01Z</time></trkpt>
			<trkpt lat="54.488690" lon="22.664790"><ele>165.0</ele><time>2026-06-04T17:47:06Z</time></trkpt>
			<trkpt lat="54.489690" lon="22.664320"><ele>164.0</ele><time>2026-06-04T17:47:11Z</time></trkpt>
			<trkpt lat="54.495010" lon="22.661720"><ele>156.3</ele><time>2026-06-04T17:47:16Z</time></trkpt>
			<trkpt lat="54.497360" lon="22.660350"><ele>151.8</ele><time>2026-06-04T17:47:21Z</time></trkpt>
			<trkpt lat="54.497740" lon="22.660100"><ele>151.0</ele><time>2026-06-04T17:47:26Z</time></trkpt>
			<trkpt lat="54.497970" lon="22.659930"><ele>150.6</ele><time>2026-06-04T17:47:31Z</time></trkpt>
			<trkpt lat="54.498200" lon="22.659710"><ele>150.1</ele><time>2026-06-04T17:47:36Z</time></trkpt>
			<trkpt lat="54.498380" lon="22.659530"><ele>149.7</ele><time>2026-06-04T17:47:41Z</time></trkpt>
			<trkpt lat="54.498550" lon="22.659340"><ele>149.3</ele><time>2026-06-04T17:47:46Z</time></trkpt>
			<trkpt lat="54.500670" lon="22.656490"><ele>144.4</ele><time>2026-06-04T17:47:51Z</time></trkpt>
			<trkpt lat="54.500850" lon="22.656310"><ele>144.1</ele><time>2026-06-04T17:47:56Z</time></trkpt>
			<trkpt lat="54.501030" lon="22.656180"><ele>143.9</ele><time>2026-06-04T17:48:01Z</time></trkpt>
			<trkpt lat="54.501230" lon="22.656110"><ele>143.6</ele><time>2026-06-04T17:48:06Z</time></trkpt>
			<trkpt lat="54.502240" lon="22.655840"><ele>142.2</ele><time>2026-06-04T17:48:11Z</time></trkpt>
			<trkpt lat="54.503350" lon="22.655540"><ele>140.6</ele><time>2026-06-04T17:48:16Z</time></trkpt>
			<trkpt lat="54.503620" lon="22.655510"><ele>140.2</ele><time>2026-06-04T17:48:21Z</time></trkpt>
			<trkpt lat="54.503910" lon="22.655530"><ele>139.8</ele><time>2026-06-04T17:48:26Z</time></trkpt>
			<trkpt lat="54.504180" lon="22.655590"><ele>139.5</ele><time>2026-06-04T17:48:31Z</time></trkpt>
			<trkpt lat="54.504530" lon="22.655700"><ele>139.0</ele><time>2026-06-04T17:48:36Z</time></trkpt>
			<trkpt lat="54.505680" lon="22.656160"><ele>137.3</ele><time>2026-06-04T17:48:41Z</time></trkpt>
			<trkpt lat="54.506830" lon="22.656610"><ele>135.7</ele><time>2026-06-04T17:48:46Z</time></trkpt>
			<trkpt lat="54.507400" lon="22.656850"><ele>134.9</ele><time>2026-06-04T17:48:51Z</time></trkpt>
			<trkpt lat="54.507900" lon="22.657100"><ele>134.2</ele><time>2026-06-04T17:48:56Z</time></trkpt>
			<trkpt lat="54.508870" lon="22.657550"><ele>132.8</ele><time>2026-06-04T17:49:01Z</time></trkpt>
			<trkpt lat="54.508990" lon="22.657610"><ele>132.6</ele><time>2026-06-04T17:49:06Z</time></trkpt>
			<trkpt lat="54.509180" lon="22.657690"><ele>132.3</ele><time>2026-06-04T17:49:11Z</time></trkpt>
			<trkpt lat="54.509750" lon="22.657950"><ele>132.4</ele><time>2026-06-04T17:49:16Z</time></trkpt>
			<trkpt lat="54.509890" lon="22.658000"><ele>132.4</ele><time>2026-06-04T17:49:21Z</time></trkpt>
			<trkpt lat="54.510000" lon="22.658010"><ele>132.5</ele><time>2026-06-04T17:49:26Z</time></trkpt>
			<trkpt lat="54.510080" lon="22.658000"><ele>132.5</ele><time>2026-06-04T17:49:31Z</time></trkpt>
			<trkpt lat="54.510250" lon="22.657910"><ele>132.6</ele><time>2026-06-04T17:49:37Z</time></trkpt>
			<trkpt lat="54.510310" lon="22.657860"><ele>132.6</ele><time>2026-06-04T17:49:42Z</time></trkpt>
			<trkpt lat="54.510390" lon="22.657750"><ele>132.6</ele><time>2026-06-04T17:49:47Z</time></trkpt>
			<trkpt lat="54.510520" lon="22.657560"><ele>132.7</ele><time>2026-06-04T17:49:52Z</time></trkpt>
			<trkpt lat="54.510600" lon="22.657450"><ele>132.8</ele><time>2026-06-04T17:49:57Z</time></trkpt>
			<trkpt lat="54.510670" lon="22.657300"><ele>132.8</ele><time>2026-06-04T17:50:02Z</time></trkpt>
			<trkpt lat="54.510730" lon="22.657140"><ele>132.8</ele><time>2026-06-04T17:50:07Z</time></trkpt>
			<trkpt lat="54.510770" lon="22.656970"><ele>132.9</ele><time>2026-06-04T17:50:12Z</time></trkpt>
			<trkpt lat="54.510800" lon="22.656760"><ele>132.9</ele><time>2026-06-04T17:50:17Z</time></trkpt>
			<trkpt lat="54.510830" lon="22.656390"><ele>133.0</ele><time>2026-06-04T17:50:22Z</time></trkpt>
			<trkpt lat="54.510850" lon="22.656210"><ele>133.1</ele><time>2026-06-04T17:50:27Z</time></trkpt>
			<trkpt lat="54.510880" lon="22.656070"><ele>133.1</ele><time>2026-06-04T17:50:32Z</time></trkpt>
			<trkpt lat="54.510930" lon="22.655960"><ele>133.1</ele><time>2026-06-04T17:50:37Z</time></trkpt>
			<trkpt lat="54.511020" lon="22.655840"><ele>133.2</ele><time>2026-06-04T17:50:42Z</time></trkpt>
			<trkpt lat="54.511250" lon="22.655700"><ele>133.3</ele><time>2026-06-04T17:50:47Z</time></trkpt>
			<trkpt lat="54.511430" lon="22.655620"><ele>133.4</ele><time>2026-06-04T17:50:52Z</time></trkpt>
			<trkpt lat="54.511600" lon="22.655570"><ele>133.4</ele><time>2026-06-04T17:50:57Z</time></trkpt>
			<trkpt lat="54.511780" lon="22.655580"><ele>133.5</ele><time>2026-06-04T17:51:02Z</time></trkpt>
			<trkpt lat="54.512100" lon="22.655660"><ele>133.6</ele><time>2026-06-04T17:51:07Z</time></trkpt>
			<trkpt lat="54.512240" lon="22.655680"><ele>133.7</ele><time>2026-06-04T17:51:12Z</time></trkpt>
			<trkpt lat="54.512310" lon="22.655670"><ele>133.7</ele><time>2026-06-04T17:51:17Z</time></trkpt>
			<trkpt lat="54.512470" lon="22.655650"><ele>133.8</ele><time>2026-06-04T17:51:22Z</time></trkpt>
			<trkpt lat="54.512550" lon="22.655630"><ele>133.8</ele><time>2026-06-04T17:51:27Z</time></trkpt>
			<trkpt lat="54.512720" lon="22.655600"><ele>133.9</ele><time>2026-06-04T17:51:32Z</time></trkpt>
			<trkpt lat="54.512950" lon="22.655550"><ele>134.0</ele><time>2026-06-04T17:51:37Z</time></trkpt>
			<trkpt lat="54.513010" lon="22.655520"><ele>134.0</ele><time>2026-06-04T17:51:42Z</time></trkpt>
			<trkpt lat="54.513140" lon="22.655340"><ele>134.1</ele><time>2026-06-04T17:51:47Z</time></trkpt>
			<trkpt lat="54.513220" lon="22.655160"><ele>134.1</ele><time>2026-06-04T17:51:52Z</time></trkpt>
			<trkpt lat="54.513410" lon="22.654610"><ele>134.3</ele><time>2026-06-04T17:51:57Z</time></trkpt>
			<trkpt lat="54.513520" lon="22.654290"><ele>134.4</ele><time>2026-06-04T17:52:02Z</time></trkpt>
			<trkpt lat="54.513610" lon="22.654080"><ele>134.4</ele><time>2026-06-04T17:52:07Z</time></trkpt>
			<trkpt lat="54.513670" lon="22.653980"><ele>134.5</ele><time>2026-06-04T17:52:12Z</time></trkpt>
			<trkpt lat="54.513800" lon="22.653730"><ele>134.6</ele><time>2026-06-04T17:52:17Z</time></trkpt>
			<trkpt lat="54.514020" lon="22.653370"><ele>134.7</ele><time>2026-06-04T17:52:22Z</time></trkpt>
			<trkpt lat="54.514210" lon="22.653060"><ele>134.8</ele><time>2026-06-04T17:52:27Z</time></trkpt>
			<trkpt lat="54.514320" lon="22.652900"><ele>134.8</ele><time>2026-06-04T17:52:32Z</time></trkpt>
			<trkpt lat="54.514450" lon="22.652730"><ele>134.9</ele><time>2026-06-04T17:52:37Z</time></trkpt>
			<trkpt lat="54.514540" lon="22.652650"><ele>135.0</ele><time>2026-06-04T17:52:42Z</time></trkpt>
			<trkpt lat="54.514620" lon="22.652630"><ele>135.0</ele><time>2026-06-04T17:52:47Z</time></trkpt>
			<trkpt lat="54.514680" lon="22.652640"><ele>135.0</ele><time>2026-06-04T17:52:52Z</time></trkpt>
			<trkpt lat="54.514740" lon="22.652670"><ele>135.0</ele><time>2026-06-04T17:52:57Z</time></trkpt>
			<trkpt lat="54.515200" lon="22.653100"><ele>135.2</ele><time>2026-06-04T17:53:02Z</time></trkpt>
			<trkpt lat="54.515240" lon="22.653140"><ele>135.3</ele><time>2026-06-04T17:53:07Z</time></trkpt>
			<trkpt lat="54.515470" lon="22.653350"><ele>135.4</ele><time>2026-06-04T17:53:12Z</time></trkpt>
			<trkpt lat="54.515700" lon="22.653540"><ele>135.5</ele><time>2026-06-04T17:53:17Z</time></trkpt>
			<trkpt lat="54.515830" lon="22.653650"><ele>135.5</ele><time>2026-06-04T17:53:22Z</time></trkpt>
			<trkpt lat="54.516830" lon="22.654270"><ele>135.4</ele><time>2026-06-04T17:53:27Z</time></trkpt>
			<trkpt lat="54.517200" lon="22.654500"><ele>134.8</ele><time>2026-06-04T17:53:32Z</time></trkpt>
			<trkpt lat="54.517320" lon="22.654570"><ele>134.6</ele><time>2026-06-04T17:53:37Z</time></trkpt>
			<trkpt lat="54.517620" lon="22.654730"><ele>134.1</ele><time>2026-06-04T17:53:42Z</time></trkpt>
			<trkpt lat="54.517790" lon="22.654780"><ele>133.9</ele><time>2026-06-04T17:53:47Z</time></trkpt>
			<trkpt lat="54.517830" lon="22.654790"><ele>133.8</ele><time>2026-06-04T17:53:52Z</time></trkpt>
			<trkpt lat="54.517970" lon="22.654830"><ele>133.6</ele><time>2026-06-04T17:53:57Z</time></trkpt>
			<trkpt lat="54.518230" lon="22.654880"><ele>133.2</ele><time>2026-06-04T17:54:02Z</time></trkpt>
			<trkpt lat="54.518670" lon="22.654850"><ele>132.5</ele><time>2026-06-04T17:54:07Z</time></trkpt>
			<trkpt lat="54.519080" lon="22.654740"><ele>131.9</ele><time>2026-06-04T17:54:12Z</time></trkpt>
			<trkpt lat="54.519640" lon="22.654550"><ele>131.0</ele><time>2026-06-04T17:54:17Z</time></trkpt>
			<trkpt lat="54.519730" lon="22.654520"><ele>130.9</ele><time>2026-06-04T17:54:22Z</time></trkpt>
			<trkpt lat="54.528790" lon="22.651440"><ele>119.6</ele><time>2026-06-04T17:54:27Z</time></trkpt>
			<trkpt lat="54.528890" lon="22.651410"><ele>119.5</ele><time>2026-06-04T17:54:32Z</time></trkpt>
			<trkpt lat="54.529140" lon="22.651410"><ele>119.3</ele><time>2026-06-04T17:54:37Z</time></trkpt>
			<trkpt lat="54.529270" lon="22.651420"><ele>119.3</ele><time>2026-06-04T17:54:42Z</time></trkpt>
			<trkpt lat="54.529660" lon="22.651510"><ele>119.0</ele><time>2026-06-04T17:54:47Z</time></trkpt>
			<trkpt lat="54.532920" lon="22.652340"><ele>116.6</ele><time>2026-06-04T17:54:52Z</time></trkpt>
			<trkpt lat="54.533740" lon="22.652460"><ele>116.0</ele><time>2026-06-04T17:54:57Z</time></trkpt>
			<trkpt lat="54.535950" lon="22.652700"><ele>112.4</ele><time>2026-06-04T17:55:02Z</time></trkpt>
			<trkpt lat="54.536650" lon="22.652790"><ele>111.1</ele><time>2026-06-04T17:55:07Z</time></trkpt>
			<trkpt lat="54.536940" lon="22.652810"><ele>110.6</ele><time>2026-06-04T17:55:12Z</time></trkpt>
			<trkpt lat="54.537690" lon="22.652740"><ele>109.2</ele><time>2026-06-04T17:55:17Z</time></trkpt>
			<trkpt lat="54.538550" lon="22.652540"><ele>107.6</ele><time>2026-06-04T17:55:22Z</time></trkpt>
			<trkpt lat="54.538730" lon="22.652450"><ele>107.3</ele><time>2026-06-04T17:55:27Z</time></trkpt>
			<trkpt lat="54.538850" lon="22.652360"><ele>107.0</ele><time>2026-06-04T17:55:32Z</time></trkpt>
			<trkpt lat="54.538980" lon="22.652230"><ele>106.7</ele><time>2026-06-04T17:55:37Z</time></trkpt>
			<trkpt lat="54.539940" lon="22.651230"><ele>104.7</ele><time>2026-06-04T17:55:42Z</time></trkpt>
			<trkpt lat="54.541910" lon="22.649030"><ele>100.3</ele><time>2026-06-04T17:55:47Z</time></trkpt>
			<trkpt lat="54.545030" lon="22.645390"><ele>94.4</ele><time>2026-06-04T17:55:52Z</time></trkpt>
			<trkpt lat="54.545840" lon="22.644400"><ele>92.9</ele><time>2026-06-04T17:55:57Z</time></trkpt>
			<trkpt lat="54.546290" lon="22.643640"><ele>91.9</ele><time>2026-06-04T17:56:02Z</time></trkpt>
			<trkpt lat="54.547910" lon="22.641150"><ele>88.6</ele><time>2026-06-04T17:56:07Z</time></trkpt>
			<trkpt lat="54.547980" lon="22.641030"><ele>88.5</ele><time>2026-06-04T17:56:12Z</time></trkpt>
			<trkpt lat="54.548060" lon="22.640840"><ele>88.2</ele><time>2026-06-04T17:56:17Z</time></trkpt>
			<trkpt lat="54.548100" lon="22.640740"><ele>88.1</ele><time>2026-06-04T17:56:22Z</time></trkpt>
			<trkpt lat="54.548260" lon="22.640170"><ele>87.6</ele><time>2026-06-04T17:56:27Z</time></trkpt>
			<trkpt lat="54.548300" lon="22.640050"><ele>87.5</ele><time>2026-06-04T17:56:32Z</time></trkpt>
			<trkpt lat="54.548350" lon="22.639940"><ele>87.3</ele><time>2026-06-04T17:56:37Z</time></trkpt>
			<trkpt lat="54.548470" lon="22.639760"><ele>87.1</ele><time>2026-06-04T17:56:42Z</time></trkpt>
			<trkpt lat="54.548810" lon="22.639380"><ele>86.5</ele><time>2026-06-04T17:56:47Z</time></trkpt>
			<trkpt lat="54.548890" lon="22.639260"><ele>86.3</ele><time>2026-06-04T17:56:52Z</time></trkpt>
			<trkpt lat="54.548970" lon="22.639130"><ele>86.2</ele><time>2026-06-04T17:56:57Z</time></trkpt>
			<trkpt lat="54.549050" lon="22.638970"><ele>86.0</ele><time>2026-06-04T17:57:02Z</time></trkpt>
			<trkpt lat="54.549290" lon="22.638340"><ele>85.3</ele><time>2026-06-04T17:57:07Z</time></trkpt>
			<trkpt lat="54.549370" lon="22.638170"><ele>85.3</ele><time>2026-06-04T17:57:12Z</time></trkpt>
			<trkpt lat="54.549440" lon="22.638070"><ele>85.2</ele><time>2026-06-04T17:57:17Z</time></trkpt>
			<trkpt lat="54.549570" lon="22.637910"><ele>85.2</ele><time>2026-06-04T17:57:22Z</time></trkpt>
			<trkpt lat="54.549650" lon="22.637840"><ele>85.2</ele><time>2026-06-04T17:57:28Z</time></trkpt>
			<trkpt lat="54.549750" lon="22.637770"><ele>85.1</ele><time>2026-06-04T17:57:33Z</time></trkpt>
			<trkpt lat="54.549970" lon="22.637700"><ele>85.1</ele><time>2026-06-04T17:57:38Z</time></trkpt>
			<trkpt lat="54.550080" lon="22.637690"><ele>85.1</ele><time>2026-06-04T17:57:43Z</time></trkpt>
			<trkpt lat="54.550320" lon="22.637680"><ele>85.0</ele><time>2026-06-04T17:57:48Z</time></trkpt>
			<trkpt lat="54.551140" lon="22.637700"><ele>84.8</ele><time>2026-06-04T17:57:53Z</time></trkpt>
			<trkpt lat="54.551520" lon="22.637770"><ele>84.7</ele><time>2026-06-04T17:57:58Z</time></trkpt>
			<trkpt lat="54.551890" lon="22.637860"><ele>84.6</ele><time>2026-06-04T17:58:03Z</time></trkpt>
			<trkpt lat="54.552310" lon="22.637990"><ele>84.4</ele><time>2026-06-04T17:58:08Z</time></trkpt>
			<trkpt lat="54.553060" lon="22.638190"><ele>84.2</ele><time>2026-06-04T17:58:13Z</time></trkpt>
			<trkpt lat="54.553460" lon="22.638250"><ele>84.1</ele><time>2026-06-04T17:58:18Z</time></trkpt>
			<trkpt lat="54.556640" lon="22.638390"><ele>83.3</ele><time>2026-06-04T17:58:23Z</time></trkpt>
			<trkpt lat="54.556870" lon="22.638380"><ele>83.2</ele><time>2026-06-04T17:58:28Z</time></trkpt>
			<trkpt lat="54.557060" lon="22.638360"><ele>83.1</ele><time>2026-06-04T17:58:33Z</time></trkpt>
			<trkpt lat="54.557280" lon="22.638310"><ele>83.1</ele><time>2026-06-04T17:58:38Z</time></trkpt>
			<trkpt lat="54.557450" lon="22.638250"><ele>83.0</ele><time>2026-06-04T17:58:43Z</time></trkpt>
			<trkpt lat="54.557730" lon="22.638090"><ele>82.9</ele><time>2026-06-04T17:58:48Z</time></trkpt>
			<trkpt lat="54.558000" lon="22.637900"><ele>82.9</ele><time>2026-06-04T17:58:53Z</time></trkpt>
			<trkpt lat="54.563940" lon="22.632550"><ele>75.5</ele><time>2026-06-04T17:58:58Z</time></trkpt>
			<trkpt lat="54.564140" lon="22.632390"><ele>75.3</ele><time>2026-06-04T17:59:03Z</time></trkpt>
			<trkpt lat="54.564340" lon="22.632250"><ele>75.1</ele><time>2026-06-04T17:59:08Z</time></trkpt>
			<trkpt lat="54.565340" lon="22.631880"><ele>73.9</ele><time>2026-06-04T17:59:13Z</time></trkpt>
			<trkpt lat="54.567600" lon="22.631200"><ele>72.6</ele><time>2026-06-04T17:59:18Z</time></trkpt>
			<trkpt lat="54.568220" lon="22.630980"><ele>72.5</ele><time>2026-06-04T17:59:23Z</time></trkpt>
			<trkpt lat="54.568640" lon="22.630660"><ele>72.4</ele><time>2026-06-04T17:59:28Z</time></trkpt>
			<trkpt lat="54.569110" lon="22.630160"><ele>72.2</ele><time>2026-06-04T17:59:33Z</time></trkpt>
			<trkpt lat="54.569810" lon="22.629120"><ele>72.0</ele><time>2026-06-04T17:59:38Z</time></trkpt>
			<trkpt lat="54.570190" lon="22.628680"><ele>71.9</ele><time>2026-06-04T17:59:43Z</time></trkpt>
			<trkpt lat="54.570760" lon="22.628180"><ele>71.8</ele><time>2026-06-04T17:59:48Z</time></trkpt>
			<trkpt lat="54.571260" lon="22.627700"><ele>71.7</ele><time>2026-06-04T17:59:53Z</time></trkpt>
			<trkpt lat="54.571770" lon="22.627270"><ele>71.6</ele><time>2026-06-04T17:59:58Z</time></trkpt>
			<trkpt lat="54.572370" lon="22.626470"><ele>71.4</ele><time>2026-06-04T18:00:03Z</time></trkpt>
			<trkpt lat="54.572800" lon="22.625800"><ele>71.3</ele><time>2026-06-04T18:00:08Z</time></trkpt>
			<trkpt lat="54.573190" lon="22.625080"><ele>71.1</ele><time>2026-06-04T18:00:13Z</time></trkpt>
			<trkpt lat="54.573560" lon="22.624480"><ele>71.0</ele><time>2026-06-04T18:00:18Z</time></trkpt>
			<trkpt lat="54.574480" lon="22.623250"><ele>71.3</ele><time>2026-06-04T18:00:23Z</time></trkpt>
			<trkpt lat="54.575410" lon="22.622060"><ele>71.8</ele><time>2026-06-04T18:00:28Z</time></trkpt>
			<trkpt lat="54.575760" lon="22.621780"><ele>72.0</ele><time>2026-06-04T18:00:33Z</time></trkpt>
			<trkpt lat="54.575940" lon="22.621690"><ele>72.1</ele><time>2026-06-04T18:00:38Z</time></trkpt>
			<trkpt lat="54.576460" lon="22.621620"><ele>72.3</ele><time>2026-06-04T18:00:43Z</time></trkpt>
			<trkpt lat="54.577920" lon="22.621600"><ele>72.9</ele><time>2026-06-04T18:00:48Z</time></trkpt>
			<trkpt lat="54.578480" lon="22.621570"><ele>73.2</ele><time>2026-06-04T18:00:53Z</time></trkpt>
			<trkpt lat="54.578620" lon="22.621530"><ele>73.3</ele><time>2026-06-04T18:00:58Z</time></trkpt>
			<trkpt lat="54.578860" lon="22.621410"><ele>73.4</ele><time>2026-06-04T18:01:03Z</time></trkpt>
			<trkpt lat="54.580800" lon="22.619490"><ele>74.4</ele><time>2026-06-04T18:01:08Z</time></trkpt>
			<trkpt lat="54.582920" lon="22.617330"><ele>75.2</ele><time>2026-06-04T18:01:13Z</time></trkpt>
			<trkpt lat="54.583130" lon="22.617020"><ele>75.3</ele><time>2026-06-04T18:01:18Z</time></trkpt>
			<trkpt lat="54.583750" lon="22.615780"><ele>75.4</ele><time>2026-06-04T18:01:23Z</time></trkpt>
			<trkpt lat="54.584500" lon="22.614110"><ele>75.6</ele><time>2026-06-04T18:01:28Z</time></trkpt>
			<trkpt lat="54.585230" lon="22.612630"><ele>75.9</ele><time>2026-06-04T18:01:33Z</time></trkpt>
			<trkpt lat="54.586520" lon="22.609960"><ele>76.2</ele><time>2026-06-04T18:01:38Z</time></trkpt>
			<trkpt lat="54.586710" lon="22.609580"><ele>76.3</ele><time>2026-06-04T18:01:43Z</time></trkpt>
			<trkpt lat="54.586830" lon="22.609370"><ele>76.3</ele><time>2026-06-04T18:01:48Z</time></trkpt>
			<trkpt lat="54.586920" lon="22.609270"><ele>76.3</ele><time>2026-06-04T18:01:53Z</time></trkpt>
			<trkpt lat="54.587030" lon="22.609200"><ele>76.3</ele><time>2026-06-04T18:01:58Z</time></trkpt>
			<trkpt lat="54.587150" lon="22.609170"><ele>76.4</ele><time>2026-06-04T18:02:03Z</time></trkpt>
			<trkpt lat="54.587320" lon="22.609170"><ele>76.4</ele><time>2026-06-04T18:02:08Z</time></trkpt>
			<trkpt lat="54.587540" lon="22.609180"><ele>76.4</ele><time>2026-06-04T18:02:13Z</time></trkpt>
			<trkpt lat="54.588090" lon="22.609240"><ele>76.5</ele><time>2026-06-04T18:02:18Z</time></trkpt>
			<trkpt lat="54.588140" lon="22.609250"><ele>76.5</ele><time>2026-06-04T18:02:23Z</time></trkpt>
			<trkpt lat="54.588420" lon="22.609250"><ele>76.6</ele><time>2026-06-04T18:02:28Z</time></trkpt>
			<trkpt lat="54.588560" lon="22.609230"><ele>76.6</ele><time>2026-06-04T18:02:33Z</time></trkpt>
			<trkpt lat="54.588750" lon="22.609170"><ele>76.6</ele><time>2026-06-04T18:02:38Z</time></trkpt>
			<trkpt lat="54.590270" lon="22.608540"><ele>76.3</ele><time>2026-06-04T18:02:43Z</time></trkpt>
			<trkpt lat="54.591320" lon="22.608170"><ele>76.1</ele><time>2026-06-04T18:02:48Z</time></trkpt>
			<trkpt lat="54.592210" lon="22.607940"><ele>76.0</ele><time>2026-06-04T18:02:53Z</time></trkpt>
			<trkpt lat="54.593120" lon="22.607730"><ele>75.8</ele><time>2026-06-04T18:02:58Z</time></trkpt>
			<trkpt lat="54.594640" lon="22.607370"><ele>75.5</ele><time>2026-06-04T18:03:03Z</time></trkpt>
			<trkpt lat="54.595360" lon="22.607180"><ele>75.4</ele><time>2026-06-04T18:03:08Z</time></trkpt>
			<trkpt lat="54.595690" lon="22.607100"><ele>75.3</ele><time>2026-06-04T18:03:13Z</time></trkpt>
			<trkpt lat="54.598210" lon="22.606500"><ele>74.5</ele><time>2026-06-04T18:03:18Z</time></trkpt>
			<trkpt lat="54.598610" lon="22.606480"><ele>74.3</ele><time>2026-06-04T18:03:23Z</time></trkpt>
			<trkpt lat="54.599270" lon="22.606170"><ele>73.9</ele><time>2026-06-04T18:03:28Z</time></trkpt>
			<trkpt lat="54.600800" lon="22.605370"><ele>72.9</ele><time>2026-06-04T18:03:33Z</time></trkpt>
			<trkpt lat="54.601430" lon="22.604940"><ele>72.5</ele><time>2026-06-04T18:03:38Z</time></trkpt>
			<trkpt lat="54.601530" lon="22.604830"><ele>72.5</ele><time>2026-06-04T18:03:43Z</time></trkpt>
			<trkpt lat="54.602030" lon="22.603930"><ele>72.0</ele><time>2026-06-04T18:03:48Z</time></trkpt>
			<trkpt lat="54.602110" lon="22.603760"><ele>72.0</ele><time>2026-06-04T18:03:53Z</time></trkpt>
			<trkpt lat="54.602170" lon="22.603580"><ele>71.9</ele><time>2026-06-04T18:03:58Z</time></trkpt>
			<trkpt lat="54.602230" lon="22.603330"><ele>71.8</ele><time>2026-06-04T18:04:03Z</time></trkpt>
			<trkpt lat="54.602290" lon="22.602920"><ele>71.7</ele><time>2026-06-04T18:04:08Z</time></trkpt>
			<trkpt lat="54.602330" lon="22.602770"><ele>71.6</ele><time>2026-06-04T18:04:13Z</time></trkpt>
			<trkpt lat="54.602380" lon="22.602640"><ele>71.6</ele><time>2026-06-04T18:04:18Z</time></trkpt>
			<trkpt lat="54.602430" lon="22.602560"><ele>71.5</ele><time>2026-06-04T18:04:23Z</time></trkpt>
			<trkpt lat="54.602500" lon="22.602500"><ele>71.5</ele><time>2026-06-04T18:04:28Z</time></trkpt>
			<trkpt lat="54.602590" lon="22.602460"><ele>71.4</ele><time>2026-06-04T18:04:33Z</time></trkpt>
			<trkpt lat="54.602640" lon="22.602450"><ele>71.4</ele><time>2026-06-04T18:04:38Z</time></trkpt>
			<trkpt lat="54.602690" lon="22.602460"><ele>71.4</ele><time>2026-06-04T18:04:43Z</time></trkpt>
			<trkpt lat="54.602790" lon="22.602490"><ele>71.3</ele><time>2026-06-04T18:04:48Z</time></trkpt>
			<trkpt lat="54.602910" lon="22.602610"><ele>71.2</ele><time>2026-06-04T18:04:53Z</time></trkpt>
			<trkpt lat="54.603220" lon="22.602970"><ele>71.0</ele><time>2026-06-04T18:04:58Z</time></trkpt>
			<trkpt lat="54.603330" lon="22.603040"><ele>70.9</ele><time>2026-06-04T18:05:03Z</time></trkpt>
			<trkpt lat="54.603480" lon="22.603090"><ele>70.8</ele><time>2026-06-04T18:05:08Z</time></trkpt>
			<trkpt lat="54.603600" lon="22.603230"><ele>70.7</ele><time>2026-06-04T18:05:14Z</time></trkpt>
			<trkpt lat="54.604010" lon="22.603810"><ele>70.4</ele><time>2026-06-04T18:05:19Z</time></trkpt>
			<trkpt lat="54.604340" lon="22.604400"><ele>70.1</ele><time>2026-06-04T18:05:24Z</time></trkpt>
			<trkpt lat="54.604450" lon="22.604610"><ele>70.0</ele><time>2026-06-04T18:05:29Z</time></trkpt>
			<trkpt lat="54.604510" lon="22.604770"><ele>70.0</ele><time>2026-06-04T18:05:34Z</time></trkpt>
			<trkpt lat="54.604560" lon="22.604930"><ele>69.9</ele><time>2026-06-04T18:05:39Z</time></trkpt>
			<trkpt lat="54.604590" lon="22.605140"><ele>69.8</ele><time>2026-06-04T18:05:44Z</time></trkpt>
			<trkpt lat="54.604640" lon="22.605920"><ele>69.6</ele><time>2026-06-04T18:05:49Z</time></trkpt>
			<trkpt lat="54.604660" lon="22.606010"><ele>69.5</ele><time>2026-06-04T18:05:54Z</time></trkpt>
			<trkpt lat="54.604720" lon="22.606150"><ele>69.5</ele><time>2026-06-04T18:05:59Z</time></trkpt>
			<trkpt lat="54.604790" lon="22.606220"><ele>69.4</ele><time>2026-06-04T18:06:04Z</time></trkpt>
			<trkpt lat="54.604870" lon="22.606260"><ele>69.4</ele><time>2026-06-04T18:06:09Z</time></trkpt>
			<trkpt lat="54.605190" lon="22.606340"><ele>69.2</ele><time>2026-06-04T18:06:14Z</time></trkpt>
			<trkpt lat="54.605460" lon="22.606340"><ele>69.1</ele><time>2026-06-04T18:06:19Z</time></trkpt>
			<trkpt lat="54.605920" lon="22.606280"><ele>68.8</ele><time>2026-06-04T18:06:24Z</time></trkpt>
			<trkpt lat="54.606510" lon="22.606160"><ele>68.5</ele><time>2026-06-04T18:06:29Z</time></trkpt>
			<trkpt lat="54.608720" lon="22.605660"><ele>67.2</ele><time>2026-06-04T18:06:34Z</time></trkpt>
			<trkpt lat="54.609780" lon="22.605430"><ele>66.6</ele><time>2026-06-04T18:06:39Z</time></trkpt>
			<trkpt lat="54.611590" lon="22.605020"><ele>65.6</ele><time>2026-06-04T18:06:44Z</time></trkpt>
			<trkpt lat="54.612590" lon="22.604810"><ele>65.0</ele><time>2026-06-04T18:06:49Z</time></trkpt>
			<trkpt lat="54.616030" lon="22.604180"><ele>65.2</ele><time>2026-06-04T18:06:54Z</time></trkpt>
			<trkpt lat="54.617140" lon="22.603940"><ele>65.5</ele><time>2026-06-04T18:06:59Z</time></trkpt>
			<trkpt lat="54.617340" lon="22.603820"><ele>65.5</ele><time>2026-06-04T18:07:04Z</time></trkpt>
			<trkpt lat="54.617610" lon="22.603610"><ele>65.6</ele><time>2026-06-04T18:07:09Z</time></trkpt>
			<trkpt lat="54.618360" lon="22.602730"><ele>65.8</ele><time>2026-06-04T18:07:14Z</time></trkpt>
			<trkpt lat="54.621250" lon="22.599460"><ele>66.6</ele><time>2026-06-04T18:07:19Z</time></trkpt>
			<trkpt lat="54.621930" lon="22.598610"><ele>66.8</ele><time>2026-06-04T18:07:24Z</time></trkpt>
			<trkpt lat="54.622660" lon="22.597840"><ele>67.0</ele><time>2026-06-04T18:07:29Z</time></trkpt>
			<trkpt lat="54.622750" lon="22.597710"><ele>67.0</ele><time>2026-06-04T18:07:34Z</time></trkpt>
			<trkpt lat="54.622790" lon="22.597630"><ele>67.0</ele><time>2026-06-04T18:07:39Z</time></trkpt>
			<trkpt lat="54.622820" lon="22.597540"><ele>67.0</ele><time>2026-06-04T18:07:44Z</time></trkpt>
			<trkpt lat="54.622850" lon="22.597410"><ele>67.0</ele><time>2026-06-04T18:07:49Z</time></trkpt>
			<trkpt lat="54.622890" lon="22.597080"><ele>67.1</ele><time>2026-06-04T18:07:54Z</time></trkpt>
			<trkpt lat="54.622960" lon="22.596620"><ele>67.1</ele><time>2026-06-04T18:07:59Z</time></trkpt>
			<trkpt lat="54.623360" lon="22.594750"><ele>67.3</ele><time>2026-06-04T18:08:04Z</time></trkpt>
			<trkpt lat="54.623840" lon="22.592230"><ele>67.6</ele><time>2026-06-04T18:08:09Z</time></trkpt>
			<trkpt lat="54.624420" lon="22.589480"><ele>67.8</ele><time>2026-06-04T18:08:14Z</time></trkpt>
			<trkpt lat="54.625050" lon="22.586390"><ele>68.2</ele><time>2026-06-04T18:08:19Z</time></trkpt>
			<trkpt lat="54.625160" lon="22.585940"><ele>68.2</ele><time>2026-06-04T18:08:24Z</time></trkpt>
			<trkpt lat="54.625270" lon="22.585560"><ele>68.2</ele><time>2026-06-04T18:08:29Z</time></trkpt>
			<trkpt lat="54.625470" lon="22.584990"><ele>68.3</ele><time>2026-06-04T18:08:34Z</time></trkpt>
			<trkpt lat="54.625570" lon="22.584730"><ele>68.4</ele><time>2026-06-04T18:08:39Z</time></trkpt>
			<trkpt lat="54.625880" lon="22.584020"><ele>68.4</ele><time>2026-06-04T18:08:44Z</time></trkpt>
			<trkpt lat="54.626320" lon="22.583050"><ele>68.6</ele><time>2026-06-04T18:08:49Z</time></trkpt>
			<trkpt lat="54.626620" lon="22.582360"><ele>68.7</ele><time>2026-06-04T18:08:54Z</time></trkpt>
			<trkpt lat="54.627150" lon="22.581030"><ele>68.8</ele><time>2026-06-04T18:08:59Z</time></trkpt>
			<trkpt lat="54.627340" lon="22.580450"><ele>68.9</ele><time>2026-06-04T18:09:04Z</time></trkpt>
			<trkpt lat="54.627460" lon="22.580190"><ele>68.9</ele><time>2026-06-04T18:09:09Z</time></trkpt>
			<trkpt lat="54.627500" lon="22.580120"><ele>69.0</ele><time>2026-06-04T18:09:14Z</time></trkpt>
			<trkpt lat="54.627810" lon="22.579730"><ele>69.0</ele><time>2026-06-04T18:09:19Z</time></trkpt>
			<trkpt lat="54.628020" lon="22.579460"><ele>69.1</ele><time>2026-06-04T18:09:24Z</time></trkpt>
			<trkpt lat="54.628200" lon="22.579180"><ele>69.1</ele><time>2026-06-04T18:09:29Z</time></trkpt>
			<trkpt lat="54.628220" lon="22.579130"><ele>69.1</ele><time>2026-06-04T18:09:34Z</time></trkpt>
			<trkpt lat="54.628240" lon="22.579070"><ele>69.1</ele><time>2026-06-04T18:09:39Z</time></trkpt>
			<trkpt lat="54.628240" lon="22.578950"><ele>69.1</ele><time>2026-06-04T18:09:44Z</time></trkpt>
			<trkpt lat="54.628220" lon="22.578720"><ele>69.2</ele><time>2026-06-04T18:09:49Z</time></trkpt>
			<trkpt lat="54.628130" lon="22.578190"><ele>69.2</ele><time>2026-06-04T18:09:54Z</time></trkpt>
			<trkpt lat="54.627690" lon="22.576020"><ele>69.5</ele><time>2026-06-04T18:09:59Z</time></trkpt>
			<trkpt lat="54.627680" lon="22.575920"><ele>69.5</ele><time>2026-06-04T18:10:04Z</time></trkpt>
			<trkpt lat="54.627690" lon="22.575710"><ele>69.5</ele><time>2026-06-04T18:10:09Z</time></trkpt>
			<trkpt lat="54.627730" lon="22.575610"><ele>69.5</ele><time>2026-06-04T18:10:14Z</time></trkpt>
			<trkpt lat="54.627790" lon="22.575490"><ele>69.5</ele><time>2026-06-04T18:10:19Z</time></trkpt>
			<trkpt lat="54.627830" lon="22.575430"><ele>69.6</ele><time>2026-06-04T18:10:24Z</time></trkpt>
			<trkpt lat="54.627990" lon="22.575320"><ele>69.6</ele><time>2026-06-04T18:10:29Z</time></trkpt>
			<trkpt lat="54.628200" lon="22.575120"><ele>69.6</ele><time>2026-06-04T18:10:34Z</time></trkpt>
			<trkpt lat="54.628370" lon="22.575010"><ele>69.7</ele><time>2026-06-04T18:10:39Z</time></trkpt>
			<trkpt lat="54.628500" lon="22.574870"><ele>69.7</ele><time>2026-06-04T18:10:44Z</time></trkpt>
			<trkpt lat="54.628540" lon="22.574820"><ele>69.7</ele><time>2026-06-04T18:10:49Z</time></trkpt>
			<trkpt lat="54.629860" lon="22.573320"><ele>69.8</ele><time>2026-06-04T18:10:54Z</time></trkpt>
			<trkpt lat="54.630650" lon="22.572350"><ele>69.3</ele><time>2026-06-04T18:10:59Z</time></trkpt>
			<trkpt lat="54.630780" lon="22.572200"><ele>69.3</ele><time>2026-06-04T18:11:04Z</time></trkpt>
			<trkpt lat="54.631060" lon="22.571870"><ele>69.1</ele><time>2026-06-04T18:11:09Z</time></trkpt>
			<trkpt lat="54.631100" lon="22.571840"><ele>69.1</ele><time>2026-06-04T18:11:14Z</time></trkpt>
			<trkpt lat="54.631160" lon="22.571850"><ele>69.1</ele><time>2026-06-04T18:11:19Z</time></trkpt>
			<trkpt lat="54.631170" lon="22.571790"><ele>69.1</ele><time>2026-06-04T18:11:24Z</time></trkpt>
			<trkpt lat="54.631200" lon="22.571730"><ele>69.0</ele><time>2026-06-04T18:11:29Z</time></trkpt>
			<trkpt lat="54.631450" lon="22.571430"><ele>68.9</ele><time>2026-06-04T18:11:34Z</time></trkpt>
			<trkpt lat="54.631820" lon="22.571030"><ele>68.7</ele><time>2026-06-04T18:11:39Z</time></trkpt>
			<trkpt lat="54.632680" lon="22.569960"><ele>68.3</ele><time>2026-06-04T18:11:44Z</time></trkpt>
			<trkpt lat="54.632760" lon="22.569830"><ele>68.2</ele><time>2026-06-04T18:11:49Z</time></trkpt>
			<trkpt lat="54.632790" lon="22.569680"><ele>68.2</ele><time>2026-06-04T18:11:54Z</time></trkpt>
			<trkpt lat="54.632900" lon="22.569240"><ele>68.1</ele><time>2026-06-04T18:11:59Z</time></trkpt>
			<trkpt lat="54.633020" lon="22.569040"><ele>68.0</ele><time>2026-06-04T18:12:04Z</time></trkpt>
			<trkpt lat="54.633550" lon="22.568630"><ele>67.7</ele><time>2026-06-04T18:12:09Z</time></trkpt>
			<trkpt lat="54.634160" lon="22.568100"><ele>67.4</ele><time>2026-06-04T18:12:14Z</time></trkpt>
			<trkpt lat="54.634750" lon="22.567430"><ele>67.1</ele><time>2026-06-04T18:12:19Z</time></trkpt>
			<trkpt lat="54.634800" lon="22.567310"><ele>67.1</ele><time>2026-06-04T18:12:24Z</time></trkpt>
			<trkpt lat="54.634750" lon="22.566880"><ele>67.0</ele><time>2026-06-04T18:12:29Z</time></trkpt>
			<trkpt lat="54.634690" lon="22.566550"><ele>66.9</ele><time>2026-06-04T18:12:34Z</time></trkpt>
			<trkpt lat="54.634650" lon="22.566190"><ele>66.8</ele><time>2026-06-04T18:12:39Z</time></trkpt>
			<trkpt lat="54.636610" lon="22.564040"><ele>65.6</ele><time>2026-06-04T18:12:44Z</time></trkpt>
			<trkpt lat="54.638000" lon="22.562490"><ele>64.3</ele><time>2026-06-04T18:12:49Z</time></trkpt>
			<trkpt lat="54.638850" lon="22.561430"><ele>63.4</ele><time>2026-06-04T18:12:54Z</time></trkpt>
			<trkpt lat="54.639330" lon="22.560820"><ele>62.9</ele><time>2026-06-04T18:12:59Z</time></trkpt>
			<trkpt lat="54.640500" lon="22.559270"><ele>61.7</ele><time>2026-06-04T18:13:05Z</time></trkpt>
			<trkpt lat="54.641860" lon="22.557550"><ele>60.4</ele><time>2026-06-04T18:13:10Z</time></trkpt>
			<trkpt lat="54.641990" lon="22.557480"><ele>60.3</ele><time>2026-06-04T18:13:15Z</time></trkpt>
			<trkpt lat="54.642150" lon="22.557470"><ele>60.1</ele><time>2026-06-04T18:13:20Z</time></trkpt>
			<trkpt lat="54.642250" lon="22.557520"><ele>60.1</ele><time>2026-06-04T18:13:25Z</time></trkpt>
			<trkpt lat="54.642720" lon="22.557770"><ele>59.7</ele><time>2026-06-04T18:13:30Z</time></trkpt>
			<trkpt lat="54.643740" lon="22.558110"><ele>58.8</ele><time>2026-06-04T18:13:35Z</time></trkpt>
			<trkpt lat="54.644780" lon="22.558750"><ele>57.8</ele><time>2026-06-04T18:13:40Z</time></trkpt>
			<trkpt lat="54.645110" lon="22.558920"><ele>57.5</ele><time>2026-06-04T18:13:45Z</time></trkpt>
			<trkpt lat="54.645250" lon="22.558940"><ele>57.4</ele><time>2026-06-04T18:13:50Z</time></trkpt>
			<trkpt lat="54.645510" lon="22.558900"><ele>57.2</ele><time>2026-06-04T18:13:55Z</time></trkpt>
			<trkpt lat="54.645970" lon="22.558690"><ele>56.7</ele><time>2026-06-04T18:14:00Z</time></trkpt>
			<trkpt lat="54.647820" lon="22.557920"><ele>55.0</ele><time>2026-06-04T18:14:05Z</time></trkpt>
			<trkpt lat="54.648020" lon="22.557910"><ele>54.8</ele><time>2026-06-04T18:14:10Z</time></trkpt>
			<trkpt lat="54.648180" lon="22.557980"><ele>54.7</ele><time>2026-06-04T18:14:15Z</time></trkpt>
			<trkpt lat="54.648760" lon="22.558490"><ele>54.1</ele><time>2026-06-04T18:14:20Z</time></trkpt>
			<trkpt lat="54.649550" lon="22.559230"><ele>53.3</ele><time>2026-06-04T18:14:25Z</time></trkpt>
			<trkpt lat="54.649750" lon="22.559350"><ele>53.1</ele><time>2026-06-04T18:14:30Z</time></trkpt>
			<trkpt lat="54.649990" lon="22.559400"><ele>52.9</ele><time>2026-06-04T18:14:35Z</time></trkpt>
			<trkpt lat="54.649990" lon="22.559400"><ele>52.9</ele><time>2026-06-04T18:14:43Z</time></trkpt>
			<trkpt lat="54.652240" lon="22.559620"><ele>50.8</ele><time>2026-06-04T18:14:51Z</time></trkpt>
			<trkpt lat="54.655340" lon="22.559900"><ele>50.2</ele><time>2026-06-04T18:14:59Z</time></trkpt>
			<trkpt lat="54.656070" lon="22.559960"><ele>50.0</ele><time>2026-06-04T18:15:07Z</time></trkpt>
			<trkpt lat="54.656370" lon="22.559960"><ele>50.0</ele><time>2026-06-04T18:15:15Z</time></trkpt>
			<trkpt lat="54.656830" lon="22.559880"><ele>49.9</ele><time>2026-06-04T18:15:23Z</time></trkpt>
			<trkpt lat="54.657180" lon="22.559880"><ele>49.9</ele><time>2026-06-04T18:15:31Z</time></trkpt>
			<trkpt lat="54.657390" lon="22.559910"><ele>49.8</ele><time>2026-06-04T18:15:39Z</time></trkpt>
			<trkpt lat="54.657500" lon="22.559920"><ele>49.8</ele><time>2026-06-04T18:15:47Z</time></trkpt>
			<trkpt lat="54.657640" lon="22.559960"><ele>49.8</ele><time>2026-06-04T18:15:55Z</time></trkpt>
			<trkpt lat="54.657840" lon="22.560040"><ele>49.8</ele><time>2026-06-04T18:16:03Z</time></trkpt>
			<trkpt lat="54.658560" lon="22.560370"><ele>49.7</ele><time>2026-06-04T18:16:11Z</time></trkpt>
			<trkpt lat="54.659570" lon="22.560810"><ele>49.5</ele><time>2026-06-04T18:16:19Z</time></trkpt>
			<trkpt lat="54.659980" lon="22.560940"><ele>49.4</ele><time>2026-06-04T18:16:27Z</time></trkpt>
			<trkpt lat="54.660110" lon="22.560960"><ele>49.4</ele><time>2026-06-04T18:16:36Z</time></trkpt>
			<trkpt lat="54.660220" lon="22.560950"><ele>49.4</ele><time>2026-06-04T18:16:44Z</time></trkpt>
			<trkpt lat="54.660350" lon="22.560920"><ele>49.4</ele><time>2026-06-04T18:16:52Z</time></trkpt>
			<trkpt lat="54.660710" lon="22.560800"><ele>49.3</ele><time>2026-06-04T18:17:00Z</time></trkpt>
			<trkpt lat="54.662320" lon="22.560190"><ele>49.7</ele><time>2026-06-04T18:17:08Z</time></trkpt>
			<trkpt lat="54.665000" lon="22.559210"><ele>51.0</ele><time>2026-06-04T18:17:16Z</time></trkpt>
			<trkpt lat="54.667190" lon="22.558440"><ele>52.0</ele><time>2026-06-04T18:17:24Z</time></trkpt>
			<trkpt lat="54.667310" lon="22.558380"><ele>52.1</ele><time>2026-06-04T18:17:32Z</time></trkpt>
			<trkpt lat="54.667420" lon="22.558300"><ele>52.1</ele><time>2026-06-04T18:17:40Z</time></trkpt>
			<trkpt lat="54.667740" lon="22.558030"><ele>52.3</ele><time>2026-06-04T18:17:48Z</time></trkpt>
			<trkpt lat="54.671890" lon="22.553970"><ele>53.6</ele><time>2026-06-04T18:17:56Z</time></trkpt>
			<trkpt lat="54.673290" lon="22.552630"><ele>53.6</ele><time>2026-06-04T18:18:04Z</time></trkpt>
			<trkpt lat="54.673670" lon="22.552270"><ele>53.7</ele><time>2026-06-04T18:18:12Z</time></trkpt>
			<trkpt lat="54.674740" lon="22.551220"><ele>53.7</ele><time>2026-06-04T18:18:20Z</time></trkpt>
			<trkpt lat="54.676110" lon="22.549930"><ele>53.8</ele><time>2026-06-04T18:18:28Z</time></trkpt>
			<trkpt lat="54.676290" lon="22.549800"><ele>53.8</ele><time>2026-06-04T18:18:36Z</time></trkpt>
			<trkpt lat="54.676520" lon="22.549700"><ele>53.8</ele><time>2026-06-04T18:18:44Z</time></trkpt>
			<trkpt lat="54.676910" lon="22.549560"><ele>53.8</ele><time>2026-06-04T18:18:52Z</time></trkpt>
			<trkpt lat="54.677270" lon="22.549460"><ele>53.8</ele><time>2026-06-04T18:19:00Z</time></trkpt>
			<trkpt lat="54.677920" lon="22.549330"><ele>53.9</ele><time>2026-06-04T18:19:09Z</time></trkpt>
			<trkpt lat="54.680490" lon="22.548890"><ele>54.0</ele><time>2026-06-04T18:19:17Z</time></trkpt>
			<trkpt lat="54.680760" lon="22.548860"><ele>54.1</ele><time>2026-06-04T18:19:25Z</time></trkpt>
			<trkpt lat="54.680870" lon="22.548860"><ele>54.1</ele><time>2026-06-04T18:19:33Z</time></trkpt>
			<trkpt lat="54.680980" lon="22.548890"><ele>54.1</ele><time>2026-06-04T18:19:41Z</time></trkpt>
			<trkpt lat="54.681090" lon="22.548940"><ele>54.1</ele><time>2026-06-04T18:19:49Z</time></trkpt>
			<trkpt lat="54.681210" lon="22.549020"><ele>54.1</ele><time>2026-06-04T18:19:57Z</time></trkpt>
			<trkpt lat="54.681520" lon="22.549290"><ele>54.1</ele><time>2026-06-04T18:20:05Z</time></trkpt>
			<trkpt lat="54.682150" lon="22.549860"><ele>54.2</ele><time>2026-06-04T18:20:13Z</time></trkpt>
			<trkpt lat="54.686440" lon="22.553630"><ele>54.4</ele><time>2026-06-04T18:20:21Z</time></trkpt>
			<trkpt lat="54.686550" lon="22.553720"><ele>54.3</ele><time>2026-06-04T18:20:29Z</time></trkpt>
			<trkpt lat="54.686640" lon="22.553760"><ele>54.2</ele><time>2026-06-04T18:20:37Z</time></trkpt>
			<trkpt lat="54.686750" lon="22.553800"><ele>54.2</ele><time>2026-06-04T18:20:45Z</time></trkpt>
			<trkpt lat="54.686900" lon="22.553810"><ele>54.1</ele><time>2026-06-04T18:20:53Z</time></trkpt>
			<trkpt lat="54.687430" lon="22.553740"><ele>53.8</ele><time>2026-06-04T18:21:01Z</time></trkpt>
			<trkpt lat="54.692290" lon="22.552950"><ele>51.2</ele><time>2026-06-04T18:21:09Z</time></trkpt>
			<trkpt lat="54.694220" lon="22.552440"><ele>50.2</ele><time>2026-06-04T18:21:17Z</time></trkpt>
			<trkpt lat="54.694990" lon="22.552220"><ele>49.8</ele><time>2026-06-04T18:21:25Z</time></trkpt>
			<trkpt lat="54.695100" lon="22.552190"><ele>49.7</ele><time>2026-06-04T18:21:34Z</time></trkpt>
			<trkpt lat="54.695340" lon="22.552100"><ele>49.8</ele><time>2026-06-04T18:21:42Z</time></trkpt>
			<trkpt lat="54.695690" lon="22.551960"><ele>50.0</ele><time>2026-06-04T18:21:50Z</time></trkpt>
			<trkpt lat="54.695990" lon="22.551780"><ele>50.2</ele><time>2026-06-04T18:21:58Z</time></trkpt>
			<trkpt lat="54.696530" lon="22.551340"><ele>50.5</ele><time>2026-06-04T18:22:06Z</time></trkpt>
			<trkpt lat="54.698140" lon="22.549850"><ele>51.6</ele><time>2026-06-04T18:22:14Z</time></trkpt>
			<trkpt lat="54.703300" lon="22.545030"><ele>55.0</ele><time>2026-06-04T18:22:22Z</time></trkpt>
			<trkpt lat="54.704720" lon="22.543710"><ele>55.6</ele><time>2026-06-04T18:22:30Z</time></trkpt>
			<trkpt lat="54.706650" lon="22.541900"><ele>56.5</ele><time>2026-06-04T18:22:38Z</time></trkpt>
			<trkpt lat="54.708070" lon="22.540580"><ele>57.1</ele><time>2026-06-04T18:22:46Z</time></trkpt>
			<trkpt lat="54.710070" lon="22.538700"><ele>57.9</ele><time>2026-06-04T18:22:54Z</time></trkpt>
			<trkpt lat="54.710730" lon="22.538090"><ele>58.2</ele><time>2026-06-04T18:23:02Z</time></trkpt>
			<trkpt lat="54.711170" lon="22.537700"><ele>58.3</ele><time>2026-06-04T18:23:10Z</time></trkpt>
			<trkpt lat="54.711370" lon="22.537570"><ele>58.2</ele><time>2026-06-04T18:23:18Z</time></trkpt>
			<trkpt lat="54.711470" lon="22.537520"><ele>58.2</ele><time>2026-06-04T18:23:26Z</time></trkpt>
			<trkpt lat="54.712440" lon="22.537280"><ele>57.9</ele><time>2026-06-04T18:23:34Z</time></trkpt>
			<trkpt lat="54.712630" lon="22.537220"><ele>57.8</ele><time>2026-06-04T18:23:42Z</time></trkpt>
			<trkpt lat="54.712740" lon="22.537140"><ele>57.8</ele><time>2026-06-04T18:23:50Z</time></trkpt>
			<trkpt lat="54.712900" lon="22.536950"><ele>57.8</ele><time>2026-06-04T18:23:58Z</time></trkpt>
			<trkpt lat="54.712990" lon="22.536770"><ele>57.7</ele><time>2026-06-04T18:24:07Z</time></trkpt>
			<trkpt lat="54.713090" lon="22.536460"><ele>57.6</ele><time>2026-06-04T18:24:15Z</time></trkpt>
			<trkpt lat="54.713340" lon="22.535200"><ele>57.4</ele><time>2026-06-04T18:24:23Z</time></trkpt>
			<trkpt lat="54.713450" lon="22.534650"><ele>57.3</ele><time>2026-06-04T18:24:31Z</time></trkpt>
			<trkpt lat="54.713780" lon="22.533470"><ele>57.1</ele><time>2026-06-04T18:24:39Z</time></trkpt>
			<trkpt lat="54.713900" lon="22.533090"><ele>57.0</ele><time>2026-06-04T18:24:47Z</time></trkpt>
			<trkpt lat="54.713990" lon="22.532910"><ele>57.0</ele><time>2026-06-04T18:24:55Z</time></trkpt>
			<trkpt lat="54.714040" lon="22.532830"><ele>56.9</ele><time>2026-06-04T18:25:03Z</time></trkpt>
			<trkpt lat="54.714100" lon="22.532760"><ele>56.9</ele><time>2026-06-04T18:25:11Z</time></trkpt>
			<trkpt lat="54.714220" lon="22.532670"><ele>56.9</ele><time>2026-06-04T18:25:19Z</time></trkpt>
			<trkpt lat="54.715870" lon="22.531810"><ele>56.3</ele><time>2026-06-04T18:25:27Z</time></trkpt>
			<trkpt lat="54.716150" lon="22.531660"><ele>56.2</ele><time>2026-06-04T18:25:35Z</time></trkpt>
			<trkpt lat="54.716580" lon="22.531440"><ele>56.1</ele><time>2026-06-04T18:25:43Z</time></trkpt>
			<trkpt lat="54.716700" lon="22.531380"><ele>56.1</ele><time>2026-06-04T18:25:51Z</time></trkpt>
			<trkpt lat="54.717960" lon="22.530750"><ele>55.7</ele><time>2026-06-04T18:25:59Z</time></trkpt>
			<trkpt lat="54.718110" lon="22.530660"><ele>55.6</ele><time>2026-06-04T18:26:07Z</time></trkpt>
			<trkpt lat="54.718190" lon="22.530600"><ele>55.6</ele><time>2026-06-04T18:26:15Z</time></trkpt>
			<trkpt lat="54.718330" lon="22.530460"><ele>55.6</ele><time>2026-06-04T18:26:23Z</time></trkpt>
			<trkpt lat="54.718920" lon="22.529660"><ele>55.9</ele><time>2026-06-04T18:26:31Z</time></trkpt>
			<trkpt lat="54.723050" lon="22.523850"><ele>57.9</ele><time>2026-06-04T18:26:40Z</time></trkpt>
			<trkpt lat="54.727140" lon="22.518110"><ele>59.8</ele><time>2026-06-04T18:26:48Z</time></trkpt>
			<trkpt lat="54.728250" lon="22.516540"><ele>60.2</ele><time>2026-06-04T18:26:56Z</time></trkpt>
			<trkpt lat="54.728580" lon="22.516040"><ele>60.4</ele><time>2026-06-04T18:27:04Z</time></trkpt>
			<trkpt lat="54.729220" lon="22.514950"><ele>60.7</ele><time>2026-06-04T18:27:12Z</time></trkpt>
			<trkpt lat="54.733840" lon="22.506690"><ele>60.7</ele><time>2026-06-04T18:27:20Z</time></trkpt>
			<trkpt lat="54.737890" lon="22.499500"><ele>58.5</ele><time>2026-06-04T18:27:28Z</time></trkpt>
			<trkpt lat="54.738110" lon="22.499140"><ele>58.3</ele><time>2026-06-04T18:27:36Z</time></trkpt>
			<trkpt lat="54.738290" lon="22.498890"><ele>58.3</ele><time>2026-06-04T18:27:44Z</time></trkpt>
			<trkpt lat="54.738480" lon="22.498680"><ele>58.4</ele><time>2026-06-04T18:27:52Z</time></trkpt>
			<trkpt lat="54.738600" lon="22.498580"><ele>58.4</ele><time>2026-06-04T18:28:00Z</time></trkpt>
			<trkpt lat="54.738720" lon="22.498520"><ele>58.4</ele><time>2026-06-04T18:28:08Z</time></trkpt>
			<trkpt lat="54.738820" lon="22.498510"><ele>58.4</ele><time>2026-06-04T18:28:16Z</time></trkpt>
			<trkpt lat="54.739730" lon="22.498710"><ele>58.5</ele><time>2026-06-04T18:28:24Z</time></trkpt>
			<trkpt lat="54.740320" lon="22.498790"><ele>58.6</ele><time>2026-06-04T18:28:32Z</time></trkpt>
			<trkpt lat="54.746740" lon="22.499430"><ele>59.3</ele><time>2026-06-04T18:28:40Z</time></trkpt>
			<trkpt lat="54.752320" lon="22.500100"><ele>60.8</ele><time>2026-06-04T18:28:48Z</time></trkpt>
			<trkpt lat="54.756860" lon="22.500610"><ele>63.3</ele><time>2026-06-04T18:28:56Z</time></trkpt>
			<trkpt lat="54.759860" lon="22.500920"><ele>68.6</ele><time>2026-06-04T18:29:05Z</time></trkpt>
			<trkpt lat="54.760520" lon="22.500970"><ele>69.8</ele><time>2026-06-04T18:29:13Z</time></trkpt>
			<trkpt lat="54.761510" lon="22.501070"><ele>71.6</ele><time>2026-06-04T18:29:21Z</time></trkpt>
			<trkpt lat="54.762430" lon="22.501160"><ele>73.2</ele><time>2026-06-04T18:29:29Z</time></trkpt>
			<trkpt lat="54.762440" lon="22.501160"><ele>73.2</ele><time>2026-06-04T18:29:37Z</time></trkpt>
			<trkpt lat="54.763190" lon="22.501240"><ele>74.5</ele><time>2026-06-04T18:29:45Z</time></trkpt>
			<trkpt lat="54.763850" lon="22.501310"><ele>75.7</ele><time>2026-06-04T18:29:53Z</time></trkpt>
			<trkpt lat="54.764140" lon="22.501370"><ele>76.2</ele><time>2026-06-04T18:30:01Z</time></trkpt>
			<trkpt lat="54.764530" lon="22.501530"><ele>76.9</ele><time>2026-06-04T18:30:09Z</time></trkpt>
			<trkpt lat="54.766500" lon="22.502400"><ele>74.2</ele><time>2026-06-04T18:30:17Z</time></trkpt>
			<trkpt lat="54.766680" lon="22.502470"><ele>73.8</ele><time>2026-06-04T18:30:25Z</time></trkpt>
			<trkpt lat="54.767660" lon="22.502940"><ele>71.4</ele><time>2026-06-04T18:30:33Z</time></trkpt>
			<trkpt lat="54.768020" lon="22.503230"><ele>70.5</ele><time>2026-06-04T18:30:41Z</time></trkpt>
			<trkpt lat="54.768670" lon="22.503760"><ele>68.8</ele><time>2026-06-04T18:30:49Z</time></trkpt>
			<trkpt lat="54.768760" lon="22.503790"><ele>68.6</ele><time>2026-06-04T18:30:57Z</time></trkpt>
			<trkpt lat="54.769730" lon="22.504070"><ele>66.2</ele><time>2026-06-04T18:31:05Z</time></trkpt>
			<trkpt lat="54.769810" lon="22.504090"><ele>66.1</ele><time>2026-06-04T18:31:13Z</time></trkpt>
			<trkpt lat="54.769890" lon="22.504040"><ele>65.9</ele><time>2026-06-04T18:31:21Z</time></trkpt>
			<trkpt lat="54.770140" lon="22.503930"><ele>65.3</ele><time>2026-06-04T18:31:29Z</time></trkpt>
			<trkpt lat="54.770240" lon="22.503920"><ele>65.0</ele><time>2026-06-04T18:31:38Z</time></trkpt>
			<trkpt lat="54.770400" lon="22.503950"><ele>64.6</ele><time>2026-06-04T18:31:46Z</time></trkpt>
			<trkpt lat="54.770670" lon="22.504080"><ele>64.0</ele><time>2026-06-04T18:31:54Z</time></trkpt>
			<trkpt lat="54.771230" lon="22.504330"><ele>62.6</ele><time>2026-06-04T18:32:02Z</time></trkpt>
			<trkpt lat="54.771290" lon="22.504340"><ele>62.5</ele><time>2026-06-04T18:32:10Z</time></trkpt>
			<trkpt lat="54.771460" lon="22.504450"><ele>62.1</ele><time>2026-06-04T18:32:18Z</time></trkpt>
			<trkpt lat="54.771690" lon="22.504630"><ele>61.5</ele><time>2026-06-04T18:32:26Z</time></trkpt>
			<trkpt lat="54.772730" lon="22.505430"><ele>58.8</ele><time>2026-06-04T18:32:34Z</time></trkpt>
			<trkpt lat="54.773020" lon="22.505660"><ele>58.0</ele><time>2026-06-04T18:32:42Z</time></trkpt>
			<trkpt lat="54.773160" lon="22.505740"><ele>57.7</ele><time>2026-06-04T18:32:50Z</time></trkpt>
			<trkpt lat="54.773340" lon="22.505820"><ele>57.3</ele><time>2026-06-04T18:32:58Z</time></trkpt>
			<trkpt lat="54.773710" lon="22.505940"><ele>56.6</ele><time>2026-06-04T18:33:06Z</time></trkpt>
			<trkpt lat="54.775710" lon="22.506510"><ele>54.8</ele><time>2026-06-04T18:33:14Z</time></trkpt>
			<trkpt lat="54.775840" lon="22.506520"><ele>54.7</ele><time>2026-06-04T18:33:22Z</time></trkpt>
			<trkpt lat="54.776120" lon="22.506480"><ele>54.5</ele><time>2026-06-04T18:33:30Z</time></trkpt>
			<trkpt lat="54.780220" lon="22.505710"><ele>51.0</ele><time>2026-06-04T18:33:38Z</time></trkpt>
			<trkpt lat="54.780700" lon="22.505610"><ele>50.5</ele><time>2026-06-04T18:33:46Z</time></trkpt>
			<trkpt lat="54.781190" lon="22.505530"><ele>50.1</ele><time>2026-06-04T18:33:54Z</time></trkpt>
			<trkpt lat="54.781430" lon="22.505510"><ele>49.9</ele><time>2026-06-04T18:34:03Z</time></trkpt>
			<trkpt lat="54.781680" lon="22.505510"><ele>49.7</ele><time>2026-06-04T18:34:11Z</time></trkpt>
			<trkpt lat="54.781880" lon="22.505530"><ele>49.5</ele><time>2026-06-04T18:34:19Z</time></trkpt>
			<trkpt lat="54.782280" lon="22.505630"><ele>49.2</ele><time>2026-06-04T18:34:27Z</time></trkpt>
			<trkpt lat="54.782500" lon="22.505720"><ele>49.0</ele><time>2026-06-04T18:34:35Z</time></trkpt>
			<trkpt lat="54.784160" lon="22.506550"><ele>49.5</ele><time>2026-06-04T18:34:43Z</time></trkpt>
			<trkpt lat="54.784760" lon="22.506860"><ele>49.7</ele><time>2026-06-04T18:34:51Z</time></trkpt>
			<trkpt lat="54.786560" lon="22.507780"><ele>50.2</ele><time>2026-06-04T18:34:59Z</time></trkpt>
			<trkpt lat="54.788340" lon="22.508680"><ele>50.8</ele><time>2026-06-04T18:35:07Z</time></trkpt>
			<trkpt lat="54.789450" lon="22.509250"><ele>51.1</ele><time>2026-06-04T18:35:15Z</time></trkpt>
			<trkpt lat="54.791540" lon="22.510310"><ele>51.8</ele><time>2026-06-04T18:35:23Z</time></trkpt>
			<trkpt lat="54.794690" lon="22.511910"><ele>53.0</ele><time>2026-06-04T18:35:31Z</time></trkpt>
			<trkpt lat="54.795600" lon="22.512390"><ele>53.3</ele><time>2026-06-04T18:35:39Z</time></trkpt>
			<trkpt lat="54.796150" lon="22.512660"><ele>53.5</ele><time>2026-06-04T18:35:47Z</time></trkpt>
			<trkpt lat="54.796630" lon="22.512850"><ele>53.7</ele><time>2026-06-04T18:35:55Z</time></trkpt>
			<trkpt lat="54.797030" lon="22.512950"><ele>53.9</ele><time>2026-06-04T18:36:03Z</time></trkpt>
			<trkpt lat="54.797520" lon="22.513030"><ele>54.0</ele><time>2026-06-04T18:36:11Z</time></trkpt>
			<trkpt lat="54.797760" lon="22.513090"><ele>54.1</ele><time>2026-06-04T18:36:19Z</time></trkpt>
			<trkpt lat="54.799970" lon="22.513550"><ele>54.9</ele><time>2026-06-04T18:36:27Z</time></trkpt>
			<trkpt lat="54.801390" lon="22.513880"><ele>54.1</ele><time>2026-06-04T18:36:36Z</time></trkpt>
			<trkpt lat="54.805150" lon="22.514660"><ele>52.3</ele><time>2026-06-04T18:36:44Z</time></trkpt>
			<trkpt lat="54.808200" lon="22.515310"><ele>50.7</ele><time>2026-06-04T18:36:52Z</time></trkpt>
			<trkpt lat="54.809420" lon="22.515630"><ele>49.8</ele><time>2026-06-04T18:37:00Z</time></trkpt>
			<trkpt lat="54.809940" lon="22.515600"><ele>49.3</ele><time>2026-06-04T18:37:08Z</time></trkpt>
			<trkpt lat="54.811150" lon="22.515650"><ele>48.1</ele><time>2026-06-04T18:37:16Z</time></trkpt>
			<trkpt lat="54.814210" lon="22.515810"><ele>45.0</ele><time>2026-06-04T18:37:24Z</time></trkpt>
			<trkpt lat="54.817480" lon="22.515970"><ele>41.7</ele><time>2026-06-04T18:37:32Z</time></trkpt>
			<trkpt lat="54.821500" lon="22.516250"><ele>42.7</ele><time>2026-06-04T18:37:40Z</time></trkpt>
			<trkpt lat="54.822370" lon="22.516350"><ele>43.0</ele><time>2026-06-04T18:37:48Z</time></trkpt>
			<trkpt lat="54.822860" lon="22.516550"><ele>43.2</ele><time>2026-06-04T18:37:56Z</time></trkpt>
			<trkpt lat="54.822990" lon="22.516650"><ele>43.2</ele><time>2026-06-04T18:38:04Z</time></trkpt>
			<trkpt lat="54.823120" lon="22.516750"><ele>43.3</ele><time>2026-06-04T18:38:12Z</time></trkpt>
			<trkpt lat="54.826850" lon="22.519440"><ele>44.5</ele><time>2026-06-04T18:38:20Z</time></trkpt>
			<trkpt lat="54.827160" lon="22.519700"><ele>44.4</ele><time>2026-06-04T18:38:28Z</time></trkpt>
			<trkpt lat="54.827670" lon="22.520000"><ele>44.2</ele><time>2026-06-04T18:38:36Z</time></trkpt>
			<trkpt lat="54.827970" lon="22.520100"><ele>44.1</ele><time>2026-06-04T18:38:44Z</time></trkpt>
			<trkpt lat="54.828330" lon="22.520080"><ele>44.0</ele><time>2026-06-04T18:38:52Z</time></trkpt>
			<trkpt lat="54.828680" lon="22.520020"><ele>43.9</ele><time>2026-06-04T18:39:01Z</time></trkpt>
			<trkpt lat="54.829100" lon="22.519730"><ele>43.7</ele><time>2026-06-04T18:39:09Z</time></trkpt>
			<trkpt lat="54.830950" lon="22.517970"><ele>43.1</ele><time>2026-06-04T18:39:17Z</time></trkpt>
			<trkpt lat="54.836160" lon="22.513080"><ele>40.7</ele><time>2026-06-04T18:39:25Z</time></trkpt>
			<trkpt lat="54.852880" lon="22.497490"><ele>33.6</ele><time>2026-06-04T18:39:33Z</time></trkpt>
			<trkpt lat="54.861480" lon="22.489460"><ele>39.0</ele><time>2026-06-04T18:39:41Z</time></trkpt>
			<trkpt lat="54.862830" lon="22.488140"><ele>41.5</ele><time>2026-06-04T18:39:49Z</time></trkpt>
			<trkpt lat="54.863550" lon="22.487460"><ele>42.8</ele><time>2026-06-04T18:39:57Z</time></trkpt>
			<trkpt lat="54.864120" lon="22.486960"><ele>43.9</ele><time>2026-06-04T18:40:05Z</time></trkpt>
			<trkpt lat="54.864230" lon="22.486870"><ele>44.1</ele><time>2026-06-04T18:40:13Z</time></trkpt>
			<trkpt lat="54.864340" lon="22.486800"><ele>44.3</ele><time>2026-06-04T18:40:21Z</time></trkpt>
			<trkpt lat="54.864530" lon="22.486750"><ele>44.6</ele><time>2026-06-04T18:40:29Z</time></trkpt>
			<trkpt lat="54.865400" lon="22.486650"><ele>46.0</ele><time>2026-06-04T18:40:37Z</time></trkpt>
			<trkpt lat="54.866470" lon="22.486470"><ele>47.8</ele><time>2026-06-04T18:40:45Z</time></trkpt>
			<trkpt lat="54.868100" lon="22.486350"><ele>48.4</ele><time>2026-06-04T18:40:53Z</time></trkpt>
			<trkpt lat="54.871710" lon="22.485990"><ele>49.5</ele><time>2026-06-04T18:41:01Z</time></trkpt>
			<trkpt lat="54.878650" lon="22.485260"><ele>45.4</ele><time>2026-06-04T18:41:09Z</time></trkpt>
			<trkpt lat="54.880850" lon="22.485060"><ele>41.7</ele><time>2026-06-04T18:41:17Z</time></trkpt>
			<trkpt lat="54.882790" lon="22.485430"><ele>38.5</ele><time>2026-06-04T18:41:25Z</time></trkpt>
			<trkpt lat="54.883340" lon="22.485430"><ele>37.5</ele><time>2026-06-04T18:41:34Z</time></trkpt>
			<trkpt lat="54.883480" lon="22.485430"><ele>37.3</ele><time>2026-06-04T18:41:42Z</time></trkpt>
			<trkpt lat="54.890230" lon="22.485730"><ele>36.7</ele><time>2026-06-04T18:41:50Z</time></trkpt>
			<trkpt lat="54.895050" lon="22.485950"><ele>38.8</ele><time>2026-06-04T18:41:58Z</time></trkpt>
			<trkpt lat="54.895470" lon="22.485970"><ele>39.2</ele><time>2026-06-04T18:42:06Z</time></trkpt>
			<trkpt lat="54.895790" lon="22.485970"><ele>39.6</ele><time>2026-06-04T18:42:14Z</time></trkpt>
			<trkpt lat="54.895990" lon="22.485960"><ele>39.7</ele><time>2026-06-04T18:42:22Z</time></trkpt>
			<trkpt lat="54.896200" lon="22.485920"><ele>39.9</ele><time>2026-06-04T18:42:30Z</time></trkpt>
			<trkpt lat="54.896380" lon="22.485860"><ele>40.1</ele><time>2026-06-04T18:42:38Z</time></trkpt>
			<trkpt lat="54.896520" lon="22.485790"><ele>40.3</ele><time>2026-06-04T18:42:46Z</time></trkpt>
			<trkpt lat="54.896620" lon="22.485740"><ele>40.4</ele><time>2026-06-04T18:42:54Z</time></trkpt>
			<trkpt lat="54.896760" lon="22.485650"><ele>40.5</ele><time>2026-06-04T18:43:02Z</time></trkpt>
			<trkpt lat="54.896970" lon="22.485500"><ele>40.7</ele><time>2026-06-04T18:43:10Z</time></trkpt>
			<trkpt lat="54.897770" lon="22.484840"><ele>41.6</ele><time>2026-06-04T18:43:18Z</time></trkpt>
			<trkpt lat="54.898570" lon="22.484270"><ele>42.4</ele><time>2026-06-04T18:43:26Z</time></trkpt>
			<trkpt lat="54.899500" lon="22.483500"><ele>43.4</ele><time>2026-06-04T18:43:34Z</time></trkpt>
			<trkpt lat="54.899930" lon="22.483180"><ele>43.8</ele><time>2026-06-04T18:43:42Z</time></trkpt>
			<trkpt lat="54.900500" lon="22.483050"><ele>44.4</ele><time>2026-06-04T18:43:50Z</time></trkpt>
			<trkpt lat="54.905600" lon="22.482490"><ele>43.7</ele><time>2026-06-04T18:43:59Z</time></trkpt>
			<trkpt lat="54.907480" lon="22.482280"><ele>42.5</ele><time>2026-06-04T18:44:07Z</time></trkpt>
			<trkpt lat="54.910330" lon="22.482000"><ele>40.6</ele><time>2026-06-04T18:44:15Z</time></trkpt>
			<trkpt lat="54.913290" lon="22.481730"><ele>39.7</ele><time>2026-06-04T18:44:23Z</time></trkpt>
			<trkpt lat="54.914200" lon="22.481620"><ele>39.6</ele><time>2026-06-04T18:44:31Z</time></trkpt>
			<trkpt lat="54.914860" lon="22.481360"><ele>39.5</ele><time>2026-06-04T18:44:39Z</time></trkpt>
			<trkpt lat="54.915230" lon="22.481180"><ele>39.4</ele><time>2026-06-04T18:44:47Z</time></trkpt>
			<trkpt lat="54.918100" lon="22.479810"><ele>38.9</ele><time>2026-06-04T18:44:55Z</time></trkpt>
			<trkpt lat="54.918450" lon="22.479660"><ele>38.8</ele><time>2026-06-04T18:45:03Z</time></trkpt>
			<trkpt lat="54.918800" lon="22.479640"><ele>38.8</ele><time>2026-06-04T18:45:11Z</time></trkpt>
			<trkpt lat="54.919820" lon="22.479770"><ele>38.6</ele><time>2026-06-04T18:45:19Z</time></trkpt>
			<trkpt lat="54.921630" lon="22.480080"><ele>40.2</ele><time>2026-06-04T18:45:27Z</time></trkpt>
			<trkpt lat="54.925300" lon="22.480810"><ele>44.0</ele><time>2026-06-04T18:45:35Z</time></trkpt>
			<trkpt lat="54.927530" lon="22.481170"><ele>46.3</ele><time>2026-06-04T18:45:43Z</time></trkpt>
			<trkpt lat="54.928020" lon="22.481350"><ele>46.9</ele><time>2026-06-04T18:45:51Z</time></trkpt>
			<trkpt lat="54.929530" lon="22.482000"><ele>47.2</ele><time>2026-06-04T18:45:59Z</time></trkpt>
			<trkpt lat="54.933390" lon="22.483630"><ele>43.2</ele><time>2026-06-04T18:46:07Z</time></trkpt>
			<trkpt lat="54.933660" lon="22.483750"><ele>42.9</ele><time>2026-06-04T18:46:15Z</time></trkpt>
			<trkpt lat="54.933950" lon="22.483350"><ele>42.5</ele><time>2026-06-04T18:46:23Z</time></trkpt>
			<trkpt lat="54.934170" lon="22.483060"><ele>42.2</ele><time>2026-06-04T18:46:32Z</time></trkpt>
			<trkpt lat="54.934500" lon="22.482710"><ele>41.9</ele><time>2026-06-04T18:46:40Z</time></trkpt>
			<trkpt lat="54.934860" lon="22.482360"><ele>41.4</ele><time>2026-06-04T18:46:48Z</time></trkpt>
			<trkpt lat="54.935130" lon="22.482140"><ele>41.1</ele><time>2026-06-04T18:46:56Z</time></trkpt>
			<trkpt lat="54.935390" lon="22.481950"><ele>40.9</ele><time>2026-06-04T18:47:04Z</time></trkpt>
			<trkpt lat="54.935780" lon="22.481700"><ele>40.4</ele><time>2026-06-04T18:47:12Z</time></trkpt>
			<trkpt lat="54.936010" lon="22.481580"><ele>40.2</ele><time>2026-06-04T18:47:20Z</time></trkpt>
			<trkpt lat="54.936130" lon="22.481530"><ele>40.1</ele><time>2026-06-04T18:47:28Z</time></trkpt>
			<trkpt lat="54.936320" lon="22.481480"><ele>39.9</ele><time>2026-06-04T18:47:36Z</time></trkpt>
			<trkpt lat="54.936700" lon="22.481430"><ele>39.5</ele><time>2026-06-04T18:47:44Z</time></trkpt>
			<trkpt lat="54.937070" lon="22.481410"><ele>39.1</ele><time>2026-06-04T18:47:52Z</time></trkpt>
			<trkpt lat="54.937400" lon="22.481410"><ele>38.8</ele><time>2026-06-04T18:48:00Z</time></trkpt>
			<trkpt lat="54.938170" lon="22.481380"><ele>38.0</ele><time>2026-06-04T18:48:08Z</time></trkpt>
			<trkpt lat="54.938470" lon="22.481330"><ele>37.6</ele><time>2026-06-04T18:48:16Z</time></trkpt>
			<trkpt lat="54.938790" lon="22.481230"><ele>37.3</ele><time>2026-06-04T18:48:24Z</time></trkpt>
			<trkpt lat="54.938990" lon="22.481130"><ele>37.0</ele><time>2026-06-04T18:48:32Z</time></trkpt>
			<trkpt lat="54.939270" lon="22.480930"><ele>36.7</ele><time>2026-06-04T18:48:40Z</time></trkpt>
			<trkpt lat="54.939450" lon="22.480770"><ele>36.5</ele><time>2026-06-04T18:48:48Z</time></trkpt>
			<trkpt lat="54.939550" lon="22.480660"><ele>36.3</ele><time>2026-06-04T18:48:57Z</time></trkpt>
			<trkpt lat="54.939550" lon="22.480660"><ele>36.3</ele><time>2026-06-04T18:49:05Z</time></trkpt>
			<trkpt lat="54.939690" lon="22.480500"><ele>36.2</ele><time>2026-06-04T18:49:14Z</time></trkpt>
			<trkpt lat="54.939890" lon="22.480250"><ele>35.9</ele><time>2026-06-04T18:49:22Z</time></trkpt>
			<trkpt lat="54.940130" lon="22.479900"><ele>35.5</ele><time>2026-06-04T18:49:31Z</time></trkpt>
			<trkpt lat="54.940410" lon="22.479420"><ele>35.1</ele><time>2026-06-04T18:49:40Z</time></trkpt>
			<trkpt lat="54.940600" lon="22.479020"><ele>34.8</ele><time>2026-06-04T18:49:48Z</time></trkpt>
			<trkpt lat="54.940850" lon="22.478480"><ele>34.4</ele><time>2026-06-04T18:49:57Z</time></trkpt>
			<trkpt lat="54.941170" lon="22.477760"><ele>33.8</ele><time>2026-06-04T18:50:05Z</time></trkpt>
			<trkpt lat="54.941610" lon="22.476810"><ele>33.0</ele><time>2026-06-04T18:50:14Z</time></trkpt>
			<trkpt lat="54.942060" lon="22.475890"><ele>32.2</ele><time>2026-06-04T18:50:23Z</time></trkpt>
			<trkpt lat="54.942760" lon="22.474340"><ele>31.0</ele><time>2026-06-04T18:50:31Z</time></trkpt>
			<trkpt lat="54.943250" lon="22.473450"><ele>30.2</ele><time>2026-06-04T18:50:40Z</time></trkpt>
			<trkpt lat="54.943640" lon="22.472940"><ele>29.7</ele><time>2026-06-04T18:50:48Z</time></trkpt>
			<trkpt lat="54.944050" lon="22.472550"><ele>29.2</ele><time>2026-06-04T18:50:57Z</time></trkpt>
			<trkpt lat="54.944360" lon="22.472320"><ele>28.9</ele><time>2026-06-04T18:51:06Z</time></trkpt>
			<trkpt lat="54.944680" lon="22.472130"><ele>29.4</ele><time>2026-06-04T18:51:14Z</time></trkpt>
			<trkpt lat="54.945070" lon="22.472000"><ele>29.9</ele><time>2026-06-04T18:51:23Z</time></trkpt>
			<trkpt lat="54.945580" lon="22.471950"><ele>30.5</ele><time>2026-06-04T18:51:31Z</time></trkpt>
			<trkpt lat="54.946230" lon="22.472020"><ele>31.4</ele><time>2026-06-04T18:51:40Z</time></trkpt>
			<trkpt lat="54.946510" lon="22.472070"><ele>31.8</ele><time>2026-06-04T18:51:49Z</time></trkpt>
			<trkpt lat="54.946830" lon="22.472170"><ele>32.2</ele><time>2026-06-04T18:51:57Z</time></trkpt>
			<trkpt lat="54.947130" lon="22.472300"><ele>32.6</ele><time>2026-06-04T18:52:06Z</time></trkpt>
			<trkpt lat="54.947370" lon="22.472360"><ele>32.9</ele><time>2026-06-04T18:52:15Z</time></trkpt>
			<trkpt lat="54.947570" lon="22.471860"><ele>33.3</ele><time>2026-06-04T18:52:23Z</time></trkpt>
			<trkpt lat="54.949090" lon="22.467360"><ele>37.2</ele><time>2026-06-04T18:52:32Z</time></trkpt>
			<trkpt lat="54.949130" lon="22.467250"><ele>37.3</ele><time>2026-06-04T18:52:40Z</time></trkpt>
			<trkpt lat="54.949280" lon="22.466700"><ele>37.8</ele><time>2026-06-04T18:52:49Z</time></trkpt>
			<trkpt lat="54.949360" lon="22.466230"><ele>38.1</ele><time>2026-06-04T18:52:58Z</time></trkpt>
			<trkpt lat="54.949370" lon="22.466090"><ele>38.2</ele><time>2026-06-04T18:53:06Z</time></trkpt>
			<trkpt lat="54.950190" lon="22.451120"><ele>41.8</ele><time>2026-06-04T18:53:15Z</time></trkpt>
			<trkpt lat="54.951050" lon="22.435730"><ele>42.5</ele><time>2026-06-04T18:53:23Z</time></trkpt>
			<trkpt lat="54.951480" lon="22.429050"><ele>40.2</ele><time>2026-06-04T18:53:32Z</time></trkpt>
			<trkpt lat="54.951760" lon="22.424570"><ele>36.2</ele><time>2026-06-04T18:53:41Z</time></trkpt>
			<trkpt lat="54.951860" lon="22.423190"><ele>35.0</ele><time>2026-06-04T18:53:49Z</time></trkpt>
			<trkpt lat="54.951940" lon="22.422590"><ele>34.5</ele><time>2026-06-04T18:53:58Z</time></trkpt>
			<trkpt lat="54.952050" lon="22.422030"><ele>34.0</ele><time>2026-06-04T18:54:06Z</time></trkpt>
			<trkpt lat="54.952210" lon="22.421500"><ele>33.5</ele><time>2026-06-04T18:54:15Z</time></trkpt>
			<trkpt lat="54.952380" lon="22.420990"><ele>33.0</ele><time>2026-06-04T18:54:24Z</time></trkpt>
			<trkpt lat="54.952740" lon="22.420190"><ele>32.1</ele><time>2026-06-04T18:54:32Z</time></trkpt>
			<trkpt lat="54.953100" lon="22.419410"><ele>31.2</ele><time>2026-06-04T18:54:41Z</time></trkpt>
			<trkpt lat="54.953840" lon="22.417740"><ele>29.4</ele><time>2026-06-04T18:54:50Z</time></trkpt>
			<trkpt lat="54.954570" lon="22.416050"><ele>29.1</ele><time>2026-06-04T18:54:58Z</time></trkpt>
			<trkpt lat="54.954800" lon="22.415500"><ele>29.2</ele><time>2026-06-04T18:55:07Z</time></trkpt>
			<trkpt lat="54.955040" lon="22.415000"><ele>29.2</ele><time>2026-06-04T18:55:15Z</time></trkpt>
			<trkpt lat="54.955560" lon="22.414070"><ele>29.3</ele><time>2026-06-04T18:55:24Z</time></trkpt>
			<trkpt lat="54.957520" lon="22.410790"><ele>29.5</ele><time>2026-06-04T18:55:33Z</time></trkpt>
			<trkpt lat="54.958230" lon="22.409470"><ele>29.6</ele><time>2026-06-04T18:55:41Z</time></trkpt>
			<trkpt lat="54.958630" lon="22.408420"><ele>29.7</ele><time>2026-06-04T18:55:50Z</time></trkpt>
			<trkpt lat="54.959100" lon="22.405880"><ele>29.8</ele><time>2026-06-04T18:55:58Z</time></trkpt>
			<trkpt lat="54.959620" lon="22.402890"><ele>31.3</ele><time>2026-06-04T18:56:07Z</time></trkpt>
			<trkpt lat="54.959660" lon="22.402670"><ele>31.5</ele><time>2026-06-04T18:56:16Z</time></trkpt>
			<trkpt lat="54.960050" lon="22.400530"><ele>32.9</ele><time>2026-06-04T18:56:24Z</time></trkpt>
			<trkpt lat="54.960240" lon="22.399410"><ele>33.7</ele><time>2026-06-04T18:56:33Z</time></trkpt>
			<trkpt lat="54.960750" lon="22.396610"><ele>35.5</ele><time>2026-06-04T18:56:41Z</time></trkpt>
			<trkpt lat="54.961110" lon="22.394540"><ele>36.9</ele><time>2026-06-04T18:56:50Z</time></trkpt>
			<trkpt lat="54.961430" lon="22.392920"><ele>38.0</ele><time>2026-06-04T18:56:59Z</time></trkpt>
			<trkpt lat="54.961690" lon="22.391750"><ele>38.8</ele><time>2026-06-04T18:57:07Z</time></trkpt>
			<trkpt lat="54.963770" lon="22.383240"><ele>40.6</ele><time>2026-06-04T18:57:16Z</time></trkpt>
			<trkpt lat="54.964190" lon="22.381650"><ele>40.8</ele><time>2026-06-04T18:57:24Z</time></trkpt>
			<trkpt lat="54.965030" lon="22.379680"><ele>41.0</ele><time>2026-06-04T18:57:33Z</time></trkpt>
			<trkpt lat="54.965540" lon="22.378590"><ele>41.1</ele><time>2026-06-04T18:57:42Z</time></trkpt>
			<trkpt lat="54.965910" lon="22.377810"><ele>41.2</ele><time>2026-06-04T18:57:50Z</time></trkpt>
			<trkpt lat="54.966190" lon="22.377080"><ele>41.3</ele><time>2026-06-04T18:57:59Z</time></trkpt>
			<trkpt lat="54.966360" lon="22.376550"><ele>41.3</ele><time>2026-06-04T18:58:08Z</time></trkpt>
			<trkpt lat="54.966540" lon="22.375840"><ele>40.7</ele><time>2026-06-04T18:58:16Z</time></trkpt>
			<trkpt lat="54.966640" lon="22.375110"><ele>40.1</ele><time>2026-06-04T18:58:25Z</time></trkpt>
			<trkpt lat="54.966690" lon="22.374210"><ele>39.4</ele><time>2026-06-04T18:58:33Z</time></trkpt>
			<trkpt lat="54.966620" lon="22.369140"><ele>35.4</ele><time>2026-06-04T18:58:42Z</time></trkpt>
			<trkpt lat="54.966170" lon="22.346010"><ele>25.3</ele><time>2026-06-04T18:58:51Z</time></trkpt>
			<trkpt lat="54.966150" lon="22.345640"><ele>25.2</ele><time>2026-06-04T18:58:59Z</time></trkpt>
			<trkpt lat="54.966090" lon="22.345110"><ele>25.2</ele><time>2026-06-04T18:59:08Z</time></trkpt>
			<trkpt lat="54.965930" lon="22.343900"><ele>25.4</ele><time>2026-06-04T18:59:16Z</time></trkpt>
			<trkpt lat="54.965570" lon="22.341090"><ele>25.9</ele><time>2026-06-04T18:59:25Z</time></trkpt>
			<trkpt lat="54.964980" lon="22.336450"><ele>26.8</ele><time>2026-06-04T18:59:34Z</time></trkpt>
			<trkpt lat="54.964220" lon="22.330720"><ele>27.8</ele><time>2026-06-04T18:59:42Z</time></trkpt>
			<trkpt lat="54.963870" lon="22.328170"><ele>28.1</ele><time>2026-06-04T18:59:51Z</time></trkpt>
			<trkpt lat="54.963820" lon="22.327810"><ele>28.1</ele><time>2026-06-04T18:59:59Z</time></trkpt>
			<trkpt lat="54.963270" lon="22.323810"><ele>28.4</ele><time>2026-06-04T19:00:08Z</time></trkpt>
			<trkpt lat="54.962510" lon="22.318260"><ele>28.8</ele><time>2026-06-04T19:00:17Z</time></trkpt>
			<trkpt lat="54.962480" lon="22.318030"><ele>28.8</ele><time>2026-06-04T19:00:25Z</time></trkpt>
			<trkpt lat="54.962150" lon="22.315740"><ele>28.9</ele><time>2026-06-04T19:00:34Z</time></trkpt>
			<trkpt lat="54.961750" lon="22.312650"><ele>28.7</ele><time>2026-06-04T19:00:43Z</time></trkpt>
			<trkpt lat="54.961730" lon="22.312500"><ele>28.6</ele><time>2026-06-04T19:00:51Z</time></trkpt>
			<trkpt lat="54.961540" lon="22.310880"><ele>28.4</ele><time>2026-06-04T19:01:00Z</time></trkpt>
			<trkpt lat="54.960850" lon="22.305820"><ele>27.6</ele><time>2026-06-04T19:01:08Z</time></trkpt>
			<trkpt lat="54.957790" lon="22.282640"><ele>23.8</ele><time>2026-06-04T19:01:17Z</time></trkpt>
			<trkpt lat="54.957610" lon="22.281220"><ele>24.1</ele><time>2026-06-04T19:01:26Z</time></trkpt>
			<trkpt lat="54.957300" lon="22.278980"><ele>24.6</ele><time>2026-06-04T19:01:34Z</time></trkpt>
			<trkpt lat="54.957240" lon="22.278480"><ele>24.8</ele><time>2026-06-04T19:01:43Z</time></trkpt>
			<trkpt lat="54.956780" lon="22.275070"><ele>25.6</ele><time>2026-06-04T19:01:51Z</time></trkpt>
			<trkpt lat="54.956690" lon="22.274520"><ele>25.7</ele><time>2026-06-04T19:02:00Z</time></trkpt>
			<trkpt lat="54.956610" lon="22.273970"><ele>25.8</ele><time>2026-06-04T19:02:09Z</time></trkpt>
			<trkpt lat="54.956570" lon="22.273140"><ele>26.0</ele><time>2026-06-04T19:02:17Z</time></trkpt>
			<trkpt lat="54.956600" lon="22.271130"><ele>26.5</ele><time>2026-06-04T19:02:26Z</time></trkpt>
			<trkpt lat="54.956620" lon="22.270950"><ele>26.5</ele><time>2026-06-04T19:02:34Z</time></trkpt>
			<trkpt lat="54.956690" lon="22.270610"><ele>26.6</ele><time>2026-06-04T19:02:43Z</time></trkpt>
			<trkpt lat="54.956730" lon="22.270450"><ele>26.6</ele><time>2026-06-04T19:02:52Z</time></trkpt>
			<trkpt lat="54.956820" lon="22.270160"><ele>26.7</ele><time>2026-06-04T19:03:00Z</time></trkpt>
			<trkpt lat="54.957380" lon="22.268770"><ele>27.2</ele><time>2026-06-04T19:03:09Z</time></trkpt>
			<trkpt lat="54.957880" lon="22.267630"><ele>27.8</ele><time>2026-06-04T19:03:18Z</time></trkpt>
			<trkpt lat="54.959220" lon="22.264500"><ele>29.5</ele><time>2026-06-04T19:03:26Z</time></trkpt>
			<trkpt lat="54.959300" lon="22.264300"><ele>29.6</ele><time>2026-06-04T19:03:35Z</time></trkpt>
			<trkpt lat="54.959540" lon="22.263700"><ele>29.9</ele><time>2026-06-04T19:03:43Z</time></trkpt>
			<trkpt lat="54.960690" lon="22.261080"><ele>31.3</ele><time>2026-06-04T19:03:52Z</time></trkpt>
			<trkpt lat="54.961380" lon="22.259670"><ele>32.1</ele><time>2026-06-04T19:04:01Z</time></trkpt>
			<trkpt lat="54.962220" lon="22.257930"><ele>33.1</ele><time>2026-06-04T19:04:09Z</time></trkpt>
			<trkpt lat="54.963240" lon="22.255210"><ele>32.8</ele><time>2026-06-04T19:04:18Z</time></trkpt>
			<trkpt lat="54.964690" lon="22.250880"><ele>30.3</ele><time>2026-06-04T19:04:26Z</time></trkpt>
			<trkpt lat="54.969730" lon="22.235160"><ele>24.6</ele><time>2026-06-04T19:04:35Z</time></trkpt>
			<trkpt lat="54.970810" lon="22.231850"><ele>24.1</ele><time>2026-06-04T19:04:44Z</time></trkpt>
			<trkpt lat="54.971940" lon="22.228220"><ele>23.2</ele><time>2026-06-04T19:04:52Z</time></trkpt>
			<trkpt lat="54.972950" lon="22.224450"><ele>21.4</ele><time>2026-06-04T19:05:01Z</time></trkpt>
			<trkpt lat="54.974160" lon="22.219880"><ele>19.2</ele><time>2026-06-04T19:05:09Z</time></trkpt>
			<trkpt lat="54.974590" lon="22.218180"><ele>18.4</ele><time>2026-06-04T19:05:18Z</time></trkpt>
			<trkpt lat="54.976540" lon="22.210520"><ele>16.5</ele><time>2026-06-04T19:05:27Z</time></trkpt>
			<trkpt lat="54.976930" lon="22.209130"><ele>16.4</ele><time>2026-06-04T19:05:35Z</time></trkpt>
			<trkpt lat="54.977640" lon="22.207120"><ele>16.2</ele><time>2026-06-04T19:05:44Z</time></trkpt>
			<trkpt lat="54.978000" lon="22.206230"><ele>16.1</ele><time>2026-06-04T19:05:52Z</time></trkpt>
			<trkpt lat="54.978370" lon="22.205410"><ele>16.0</ele><time>2026-06-04T19:06:01Z</time></trkpt>
			<trkpt lat="54.978920" lon="22.204310"><ele>15.9</ele><time>2026-06-04T19:06:10Z</time></trkpt>
			<trkpt lat="54.979480" lon="22.203330"><ele>15.7</ele><time>2026-06-04T19:06:18Z</time></trkpt>
			<trkpt lat="54.982940" lon="22.197230"><ele>14.9</ele><time>2026-06-04T19:06:27Z</time></trkpt>
			<trkpt lat="54.983360" lon="22.196550"><ele>14.8</ele><time>2026-06-04T19:06:36Z</time></trkpt>
			<trkpt lat="54.983760" lon="22.195970"><ele>14.7</ele><time>2026-06-04T19:06:44Z</time></trkpt>
			<trkpt lat="54.984480" lon="22.194880"><ele>14.5</ele><time>2026-06-04T19:06:53Z</time></trkpt>
			<trkpt lat="54.984940" lon="22.194250"><ele>14.4</ele><time>2026-06-04T19:07:01Z</time></trkpt>
			<trkpt lat="54.985370" lon="22.193600"><ele>14.3</ele><time>2026-06-04T19:07:10Z</time></trkpt>
			<trkpt lat="54.986430" lon="22.192050"><ele>14.0</ele><time>2026-06-04T19:07:19Z</time></trkpt>
			<trkpt lat="54.987230" lon="22.190940"><ele>13.9</ele><time>2026-06-04T19:07:27Z</time></trkpt>
			<trkpt lat="54.987800" lon="22.190260"><ele>13.9</ele><time>2026-06-04T19:07:36Z</time></trkpt>
			<trkpt lat="54.988200" lon="22.189840"><ele>13.9</ele><time>2026-06-04T19:07:44Z</time></trkpt>
			<trkpt lat="54.988580" lon="22.189490"><ele>13.9</ele><time>2026-06-04T19:07:53Z</time></trkpt>
			<trkpt lat="54.989950" lon="22.188220"><ele>13.8</ele><time>2026-06-04T19:08:02Z</time></trkpt>
			<trkpt lat="54.991350" lon="22.186960"><ele>13.8</ele><time>2026-06-04T19:08:10Z</time></trkpt>
			<trkpt lat="54.992010" lon="22.186350"><ele>13.8</ele><time>2026-06-04T19:08:19Z</time></trkpt>
			<trkpt lat="54.992670" lon="22.185700"><ele>13.7</ele><time>2026-06-04T19:08:27Z</time></trkpt>
			<trkpt lat="54.992960" lon="22.185360"><ele>13.7</ele><time>2026-06-04T19:08:36Z</time></trkpt>
			<trkpt lat="54.993210" lon="22.185010"><ele>13.7</ele><time>2026-06-04T19:08:45Z</time></trkpt>
			<trkpt lat="54.993460" lon="22.184620"><ele>13.7</ele><time>2026-06-04T19:08:53Z</time></trkpt>
			<trkpt lat="54.994020" lon="22.183710"><ele>13.7</ele><time>2026-06-04T19:09:02Z</time></trkpt>
			<trkpt lat="54.994160" lon="22.183470"><ele>13.7</ele><time>2026-06-04T19:09:11Z</time></trkpt>
			<trkpt lat="54.994210" lon="22.183350"><ele>13.7</ele><time>2026-06-04T19:09:19Z</time></trkpt>
			<trkpt lat="54.994330" lon="22.183090"><ele>13.7</ele><time>2026-06-04T19:09:28Z</time></trkpt>
			<trkpt lat="54.994710" lon="22.182180"><ele>13.6</ele><time>2026-06-04T19:09:36Z</time></trkpt>
			<trkpt lat="54.995070" lon="22.181090"><ele>13.5</ele><time>2026-06-04T19:09:45Z</time></trkpt>
			<trkpt lat="54.995430" lon="22.180050"><ele>13.5</ele><time>2026-06-04T19:09:54Z</time></trkpt>
			<trkpt lat="54.997020" lon="22.175400"><ele>13.2</ele><time>2026-06-04T19:10:02Z</time></trkpt>
			<trkpt lat="54.998480" lon="22.170970"><ele>12.9</ele><time>2026-06-04T19:10:11Z</time></trkpt>
			<trkpt lat="55.001610" lon="22.161660"><ele>14.7</ele><time>2026-06-04T19:10:19Z</time></trkpt>
			<trkpt lat="55.001610" lon="22.161660"><ele>14.7</ele><time>2026-06-04T19:10:24Z</time></trkpt>
			<trkpt lat="55.003710" lon="22.155390"><ele>16.2</ele><time>2026-06-04T19:10:30Z</time></trkpt>
			<trkpt lat="55.004480" lon="22.153060"><ele>16.8</ele><time>2026-06-04T19:10:35Z</time></trkpt>
			<trkpt lat="55.004560" lon="22.152830"><ele>16.9</ele><time>2026-06-04T19:10:40Z</time></trkpt>
			<trkpt lat="55.009120" lon="22.139280"><ele>27.3</ele><time>2026-06-04T19:10:45Z</time></trkpt>
			<trkpt lat="55.011380" lon="22.132420"><ele>42.9</ele><time>2026-06-04T19:10:50Z</time></trkpt>
			<trkpt lat="55.013610" lon="22.125690"><ele>49.9</ele><time>2026-06-04T19:10:55Z</time></trkpt>
			<trkpt lat="55.014240" lon="22.123750"><ele>49.5</ele><time>2026-06-04T19:11:00Z</time></trkpt>
			<trkpt lat="55.015030" lon="22.121300"><ele>49.0</ele><time>2026-06-04T19:11:05Z</time></trkpt>
			<trkpt lat="55.016140" lon="22.117900"><ele>48.4</ele><time>2026-06-04T19:11:10Z</time></trkpt>
			<trkpt lat="55.016380" lon="22.117180"><ele>48.2</ele><time>2026-06-04T19:11:15Z</time></trkpt>
			<trkpt lat="55.016640" lon="22.116250"><ele>48.0</ele><time>2026-06-04T19:11:20Z</time></trkpt>
			<trkpt lat="55.016850" lon="22.115380"><ele>47.9</ele><time>2026-06-04T19:11:25Z</time></trkpt>
			<trkpt lat="55.016970" lon="22.114710"><ele>47.5</ele><time>2026-06-04T19:11:30Z</time></trkpt>
			<trkpt lat="55.017000" lon="22.114500"><ele>47.4</ele><time>2026-06-04T19:11:35Z</time></trkpt>
			<trkpt lat="55.017070" lon="22.113720"><ele>47.0</ele><time>2026-06-04T19:11:40Z</time></trkpt>
			<trkpt lat="55.017130" lon="22.112810"><ele>46.5</ele><time>2026-06-04T19:11:46Z</time></trkpt>
			<trkpt lat="55.017130" lon="22.111920"><ele>46.0</ele><time>2026-06-04T19:11:51Z</time></trkpt>
			<trkpt lat="55.017150" lon="22.111220"><ele>45.6</ele><time>2026-06-04T19:11:56Z</time></trkpt>
			<trkpt lat="55.017190" lon="22.110380"><ele>45.2</ele><time>2026-06-04T19:12:01Z</time></trkpt>
			<trkpt lat="55.017220" lon="22.110100"><ele>45.0</ele><time>2026-06-04T19:12:06Z</time></trkpt>
			<trkpt lat="55.017380" lon="22.108840"><ele>44.3</ele><time>2026-06-04T19:12:11Z</time></trkpt>
			<trkpt lat="55.017970" lon="22.105360"><ele>42.4</ele><time>2026-06-04T19:12:16Z</time></trkpt>
			<trkpt lat="55.018050" lon="22.104650"><ele>42.0</ele><time>2026-06-04T19:12:21Z</time></trkpt>
			<trkpt lat="55.018330" lon="22.101480"><ele>40.3</ele><time>2026-06-04T19:12:26Z</time></trkpt>
			<trkpt lat="55.018330" lon="22.101430"><ele>40.2</ele><time>2026-06-04T19:12:31Z</time></trkpt>
			<trkpt lat="55.018630" lon="22.098100"><ele>38.8</ele><time>2026-06-04T19:12:36Z</time></trkpt>
			<trkpt lat="55.018710" lon="22.097160"><ele>38.5</ele><time>2026-06-04T19:12:41Z</time></trkpt>
			<trkpt lat="55.019270" lon="22.090820"><ele>36.4</ele><time>2026-06-04T19:12:46Z</time></trkpt>
			<trkpt lat="55.019560" lon="22.087440"><ele>35.3</ele><time>2026-06-04T19:12:51Z</time></trkpt>
			<trkpt lat="55.019870" lon="22.084060"><ele>34.3</ele><time>2026-06-04T19:12:57Z</time></trkpt>
			<trkpt lat="55.020070" lon="22.081690"><ele>34.4</ele><time>2026-06-04T19:13:02Z</time></trkpt>
			<trkpt lat="55.020090" lon="22.081500"><ele>34.5</ele><time>2026-06-04T19:13:07Z</time></trkpt>
			<trkpt lat="55.020170" lon="22.080710"><ele>34.5</ele><time>2026-06-04T19:13:12Z</time></trkpt>
			<trkpt lat="55.020340" lon="22.078630"><ele>34.6</ele><time>2026-06-04T19:13:17Z</time></trkpt>
			<trkpt lat="55.020490" lon="22.075120"><ele>34.8</ele><time>2026-06-04T19:13:22Z</time></trkpt>
			<trkpt lat="55.020520" lon="22.075000"><ele>34.8</ele><time>2026-06-04T19:13:27Z</time></trkpt>
			<trkpt lat="55.020700" lon="22.074380"><ele>34.9</ele><time>2026-06-04T19:13:32Z</time></trkpt>
			<trkpt lat="55.020730" lon="22.074290"><ele>34.9</ele><time>2026-06-04T19:13:37Z</time></trkpt>
			<trkpt lat="55.021780" lon="22.070890"><ele>35.1</ele><time>2026-06-04T19:13:42Z</time></trkpt>
			<trkpt lat="55.021950" lon="22.070340"><ele>35.1</ele><time>2026-06-04T19:13:47Z</time></trkpt>
			<trkpt lat="55.023760" lon="22.064460"><ele>35.3</ele><time>2026-06-04T19:13:52Z</time></trkpt>
			<trkpt lat="55.024780" lon="22.061220"><ele>35.4</ele><time>2026-06-04T19:13:57Z</time></trkpt>
			<trkpt lat="55.025420" lon="22.059150"><ele>35.5</ele><time>2026-06-04T19:14:02Z</time></trkpt>
			<trkpt lat="55.026180" lon="22.056650"><ele>35.5</ele><time>2026-06-04T19:14:07Z</time></trkpt>
			<trkpt lat="55.026220" lon="22.056510"><ele>35.5</ele><time>2026-06-04T19:14:13Z</time></trkpt>
			<trkpt lat="55.026370" lon="22.056060"><ele>35.5</ele><time>2026-06-04T19:14:18Z</time></trkpt>
			<trkpt lat="55.026680" lon="22.055180"><ele>35.6</ele><time>2026-06-04T19:14:23Z</time></trkpt>
			<trkpt lat="55.027240" lon="22.053810"><ele>35.6</ele><time>2026-06-04T19:14:28Z</time></trkpt>
			<trkpt lat="55.029470" lon="22.048620"><ele>35.8</ele><time>2026-06-04T19:14:33Z</time></trkpt>
			<trkpt lat="55.029870" lon="22.047670"><ele>35.8</ele><time>2026-06-04T19:14:38Z</time></trkpt>
			<trkpt lat="55.030110" lon="22.047180"><ele>35.8</ele><time>2026-06-04T19:14:43Z</time></trkpt>
			<trkpt lat="55.030330" lon="22.046820"><ele>35.8</ele><time>2026-06-04T19:14:48Z</time></trkpt>
			<trkpt lat="55.030520" lon="22.046550"><ele>35.8</ele><time>2026-06-04T19:14:53Z</time></trkpt>
			<trkpt lat="55.031850" lon="22.044550"><ele>35.9</ele><time>2026-06-04T19:14:58Z</time></trkpt>
			<trkpt lat="55.031930" lon="22.044420"><ele>35.9</ele><time>2026-06-04T19:15:03Z</time></trkpt>
			<trkpt lat="55.033040" lon="22.042770"><ele>34.4</ele><time>2026-06-04T19:15:08Z</time></trkpt>
			<trkpt lat="55.033130" lon="22.042620"><ele>34.2</ele><time>2026-06-04T19:15:13Z</time></trkpt>
			<trkpt lat="55.033210" lon="22.042400"><ele>34.0</ele><time>2026-06-04T19:15:18Z</time></trkpt>
			<trkpt lat="55.033260" lon="22.042160"><ele>33.8</ele><time>2026-06-04T19:15:23Z</time></trkpt>
			<trkpt lat="55.033320" lon="22.042110"><ele>33.7</ele><time>2026-06-04T19:15:29Z</time></trkpt>
			<trkpt lat="55.033360" lon="22.042020"><ele>33.6</ele><time>2026-06-04T19:15:34Z</time></trkpt>
			<trkpt lat="55.033730" lon="22.040340"><ele>32.0</ele><time>2026-06-04T19:15:39Z</time></trkpt>
			<trkpt lat="55.033790" lon="22.040120"><ele>31.8</ele><time>2026-06-04T19:15:44Z</time></trkpt>
			<trkpt lat="55.033860" lon="22.039860"><ele>31.5</ele><time>2026-06-04T19:15:49Z</time></trkpt>
			<trkpt lat="55.034040" lon="22.039250"><ele>30.9</ele><time>2026-06-04T19:15:54Z</time></trkpt>
			<trkpt lat="55.034800" lon="22.037070"><ele>28.7</ele><time>2026-06-04T19:15:59Z</time></trkpt>
			<trkpt lat="55.034860" lon="22.036800"><ele>28.5</ele><time>2026-06-04T19:16:04Z</time></trkpt>
			<trkpt lat="55.034940" lon="22.036050"><ele>27.8</ele><time>2026-06-04T19:16:09Z</time></trkpt>
			<trkpt lat="55.034980" lon="22.035790"><ele>27.5</ele><time>2026-06-04T19:16:14Z</time></trkpt>
			<trkpt lat="55.035040" lon="22.035580"><ele>27.3</ele><time>2026-06-04T19:16:19Z</time></trkpt>
			<trkpt lat="55.035110" lon="22.035410"><ele>27.2</ele><time>2026-06-04T19:16:24Z</time></trkpt>
			<trkpt lat="55.035380" lon="22.035090"><ele>26.7</ele><time>2026-06-04T19:16:29Z</time></trkpt>
			<trkpt lat="55.035430" lon="22.035030"><ele>26.6</ele><time>2026-06-04T19:16:34Z</time></trkpt>
			<trkpt lat="55.035670" lon="22.034810"><ele>26.2</ele><time>2026-06-04T19:16:39Z</time></trkpt>
			<trkpt lat="55.035840" lon="22.034580"><ele>25.8</ele><time>2026-06-04T19:16:45Z</time></trkpt>
			<trkpt lat="55.036260" lon="22.033830"><ele>24.9</ele><time>2026-06-04T19:16:50Z</time></trkpt>
			<trkpt lat="55.036330" lon="22.033720"><ele>24.8</ele><time>2026-06-04T19:16:55Z</time></trkpt>
			<trkpt lat="55.036530" lon="22.033420"><ele>24.4</ele><time>2026-06-04T19:17:00Z</time></trkpt>
			<trkpt lat="55.036610" lon="22.033280"><ele>24.2</ele><time>2026-06-04T19:17:05Z</time></trkpt>
			<trkpt lat="55.036920" lon="22.032910"><ele>23.6</ele><time>2026-06-04T19:17:10Z</time></trkpt>
			<trkpt lat="55.037070" lon="22.032740"><ele>23.3</ele><time>2026-06-04T19:17:15Z</time></trkpt>
			<trkpt lat="55.037140" lon="22.032660"><ele>23.2</ele><time>2026-06-04T19:17:20Z</time></trkpt>
			<trkpt lat="55.037620" lon="22.032470"><ele>22.5</ele><time>2026-06-04T19:17:25Z</time></trkpt>
			<trkpt lat="55.037770" lon="22.032350"><ele>22.2</ele><time>2026-06-04T19:17:30Z</time></trkpt>
			<trkpt lat="55.037870" lon="22.032220"><ele>22.1</ele><time>2026-06-04T19:17:35Z</time></trkpt>
			<trkpt lat="55.037950" lon="22.032070"><ele>22.1</ele><time>2026-06-04T19:17:40Z</time></trkpt>
			<trkpt lat="55.038030" lon="22.031800"><ele>22.1</ele><time>2026-06-04T19:17:45Z</time></trkpt>
			<trkpt lat="55.038110" lon="22.030860"><ele>22.0</ele><time>2026-06-04T19:17:50Z</time></trkpt>
			<trkpt lat="55.038150" lon="22.030340"><ele>22.0</ele><time>2026-06-04T19:17:56Z</time></trkpt>
			<trkpt lat="55.038220" lon="22.029830"><ele>21.9</ele><time>2026-06-04T19:18:01Z</time></trkpt>
			<trkpt lat="55.038330" lon="22.029450"><ele>21.9</ele><time>2026-06-04T19:18:06Z</time></trkpt>
			<trkpt lat="55.038380" lon="22.029330"><ele>21.9</ele><time>2026-06-04T19:18:11Z</time></trkpt>
			<trkpt lat="55.038830" lon="22.028240"><ele>21.8</ele><time>2026-06-04T19:18:16Z</time></trkpt>
			<trkpt lat="55.038880" lon="22.028130"><ele>21.8</ele><time>2026-06-04T19:18:21Z</time></trkpt>
			<trkpt lat="55.039310" lon="22.027160"><ele>21.7</ele><time>2026-06-04T19:18:26Z</time></trkpt>
			<trkpt lat="55.039430" lon="22.026900"><ele>21.7</ele><time>2026-06-04T19:18:31Z</time></trkpt>
			<trkpt lat="55.039510" lon="22.026660"><ele>21.6</ele><time>2026-06-04T19:18:36Z</time></trkpt>
			<trkpt lat="55.039530" lon="22.026550"><ele>21.6</ele><time>2026-06-04T19:18:41Z</time></trkpt>
			<trkpt lat="55.039580" lon="22.026340"><ele>21.6</ele><time>2026-06-04T19:18:46Z</time></trkpt>
			<trkpt lat="55.039700" lon="22.025450"><ele>21.5</ele><time>2026-06-04T19:18:51Z</time></trkpt>
			<trkpt lat="55.039820" lon="22.024670"><ele>21.5</ele><time>2026-06-04T19:18:56Z</time></trkpt>
			<trkpt lat="55.039880" lon="22.024350"><ele>21.5</ele><time>2026-06-04T19:19:01Z</time></trkpt>
			<trkpt lat="55.040010" lon="22.023910"><ele>21.4</ele><time>2026-06-04T19:19:06Z</time></trkpt>
			<trkpt lat="55.040150" lon="22.023750"><ele>21.4</ele><time>2026-06-04T19:19:12Z</time></trkpt>
			<trkpt lat="55.040350" lon="22.023630"><ele>21.4</ele><time>2026-06-04T19:19:17Z</time></trkpt>
			<trkpt lat="55.040970" lon="22.023410"><ele>21.3</ele><time>2026-06-04T19:19:22Z</time></trkpt>
			<trkpt lat="55.041330" lon="22.023260"><ele>21.2</ele><time>2026-06-04T19:19:27Z</time></trkpt>
			<trkpt lat="55.041490" lon="22.023180"><ele>21.2</ele><time>2026-06-04T19:19:32Z</time></trkpt>
			<trkpt lat="55.041600" lon="22.023070"><ele>21.2</ele><time>2026-06-04T19:19:37Z</time></trkpt>
			<trkpt lat="55.041750" lon="22.022810"><ele>21.2</ele><time>2026-06-04T19:19:42Z</time></trkpt>
			<trkpt lat="55.042030" lon="22.022210"><ele>21.1</ele><time>2026-06-04T19:19:47Z</time></trkpt>
			<trkpt lat="55.042950" lon="22.020320"><ele>21.1</ele><time>2026-06-04T19:19:52Z</time></trkpt>
			<trkpt lat="55.043050" lon="22.020120"><ele>21.3</ele><time>2026-06-04T19:19:57Z</time></trkpt>
			<trkpt lat="55.043130" lon="22.019950"><ele>21.4</ele><time>2026-06-04T19:20:02Z</time></trkpt>
			<trkpt lat="55.043190" lon="22.019820"><ele>21.5</ele><time>2026-06-04T19:20:07Z</time></trkpt>
			<trkpt lat="55.043240" lon="22.019730"><ele>21.6</ele><time>2026-06-04T19:20:12Z</time></trkpt>
			<trkpt lat="55.043300" lon="22.019590"><ele>21.7</ele><time>2026-06-04T19:20:17Z</time></trkpt>
			<trkpt lat="55.043400" lon="22.019330"><ele>21.9</ele><time>2026-06-04T19:20:22Z</time></trkpt>
			<trkpt lat="55.043670" lon="22.018340"><ele>22.5</ele><time>2026-06-04T19:20:28Z</time></trkpt>
			<trkpt lat="55.043790" lon="22.017720"><ele>22.9</ele><time>2026-06-04T19:20:33Z</time></trkpt>
			<trkpt lat="55.044360" lon="22.014410"><ele>24.9</ele><time>2026-06-04T19:20:38Z</time></trkpt>
			<trkpt lat="55.044680" lon="22.012570"><ele>26.1</ele><time>2026-06-04T19:20:43Z</time></trkpt>
			<trkpt lat="55.045100" lon="22.010210"><ele>27.6</ele><time>2026-06-04T19:20:48Z</time></trkpt>
			<trkpt lat="55.045260" lon="22.009160"><ele>28.2</ele><time>2026-06-04T19:20:53Z</time></trkpt>
			<trkpt lat="55.045300" lon="22.008580"><ele>28.5</ele><time>2026-06-04T19:20:58Z</time></trkpt>
			<trkpt lat="55.045300" lon="22.008060"><ele>28.9</ele><time>2026-06-04T19:21:03Z</time></trkpt>
			<trkpt lat="55.045270" lon="22.005400"><ele>30.3</ele><time>2026-06-04T19:21:08Z</time></trkpt>
			<trkpt lat="55.045260" lon="22.005240"><ele>30.3</ele><time>2026-06-04T19:21:13Z</time></trkpt>
			<trkpt lat="55.045250" lon="22.003610"><ele>30.4</ele><time>2026-06-04T19:21:18Z</time></trkpt>
			<trkpt lat="55.045230" lon="22.002350"><ele>30.5</ele><time>2026-06-04T19:21:23Z</time></trkpt>
			<trkpt lat="55.045150" lon="21.998100"><ele>30.8</ele><time>2026-06-04T19:21:28Z</time></trkpt>
			<trkpt lat="55.045080" lon="21.996910"><ele>30.9</ele><time>2026-06-04T19:21:33Z</time></trkpt>
			<trkpt lat="55.044670" lon="21.993220"><ele>31.2</ele><time>2026-06-04T19:21:39Z</time></trkpt>
			<trkpt lat="55.044600" lon="21.992600"><ele>31.2</ele><time>2026-06-04T19:21:44Z</time></trkpt>
			<trkpt lat="55.044600" lon="21.992120"><ele>31.3</ele><time>2026-06-04T19:21:49Z</time></trkpt>
			<trkpt lat="55.044730" lon="21.990680"><ele>31.4</ele><time>2026-06-04T19:21:54Z</time></trkpt>
			<trkpt lat="55.044830" lon="21.989820"><ele>31.7</ele><time>2026-06-04T19:21:59Z</time></trkpt>
			<trkpt lat="55.044930" lon="21.989280"><ele>32.3</ele><time>2026-06-04T19:22:04Z</time></trkpt>
			<trkpt lat="55.045120" lon="21.988570"><ele>33.1</ele><time>2026-06-04T19:22:09Z</time></trkpt>
			<trkpt lat="55.045710" lon="21.986610"><ele>35.3</ele><time>2026-06-04T19:22:14Z</time></trkpt>
			<trkpt lat="55.045990" lon="21.985520"><ele>36.5</ele><time>2026-06-04T19:22:19Z</time></trkpt>
			<trkpt lat="55.046110" lon="21.985130"><ele>37.0</ele><time>2026-06-04T19:22:24Z</time></trkpt>
			<trkpt lat="55.046980" lon="21.982680"><ele>39.9</ele><time>2026-06-04T19:22:29Z</time></trkpt>
			<trkpt lat="55.048030" lon="21.979400"><ele>43.7</ele><time>2026-06-04T19:22:34Z</time></trkpt>
			<trkpt lat="55.048250" lon="21.978730"><ele>44.4</ele><time>2026-06-04T19:22:39Z</time></trkpt>
			<trkpt lat="55.048570" lon="21.978000"><ele>45.4</ele><time>2026-06-04T19:22:44Z</time></trkpt>
			<trkpt lat="55.050740" lon="21.973640"><ele>42.3</ele><time>2026-06-04T19:22:49Z</time></trkpt>
			<trkpt lat="55.050740" lon="21.973640"><ele>42.3</ele><time>2026-06-04T19:22:52Z</time></trkpt>
			<trkpt lat="55.050980" lon="21.973150"><ele>41.4</ele><time>2026-06-04T19:22:55Z</time></trkpt>
			<trkpt lat="55.051470" lon="21.972130"><ele>39.8</ele><time>2026-06-04T19:22:58Z</time></trkpt>
			<trkpt lat="55.051890" lon="21.971120"><ele>38.2</ele><time>2026-06-04T19:23:01Z</time></trkpt>
			<trkpt lat="55.053080" lon="21.968000"><ele>33.4</ele><time>2026-06-04T19:23:04Z</time></trkpt>
			<trkpt lat="55.053230" lon="21.967530"><ele>32.7</ele><time>2026-06-04T19:23:07Z</time></trkpt>
			<trkpt lat="55.053340" lon="21.967140"><ele>32.2</ele><time>2026-06-04T19:23:10Z</time></trkpt>
			<trkpt lat="55.053380" lon="21.966940"><ele>31.9</ele><time>2026-06-04T19:23:13Z</time></trkpt>
			<trkpt lat="55.053410" lon="21.966730"><ele>31.6</ele><time>2026-06-04T19:23:16Z</time></trkpt>
			<trkpt lat="55.053450" lon="21.966080"><ele>30.8</ele><time>2026-06-04T19:23:19Z</time></trkpt>
			<trkpt lat="55.053470" lon="21.965310"><ele>29.8</ele><time>2026-06-04T19:23:21Z</time></trkpt>
			<trkpt lat="55.053470" lon="21.965070"><ele>29.5</ele><time>2026-06-04T19:23:24Z</time></trkpt>
			<trkpt lat="55.053490" lon="21.964470"><ele>28.8</ele><time>2026-06-04T19:23:27Z</time></trkpt>
			<trkpt lat="55.053480" lon="21.964250"><ele>28.5</ele><time>2026-06-04T19:23:30Z</time></trkpt>
			<trkpt lat="55.053520" lon="21.963660"><ele>27.7</ele><time>2026-06-04T19:23:33Z</time></trkpt>
			<trkpt lat="55.053610" lon="21.963130"><ele>27.2</ele><time>2026-06-04T19:23:36Z</time></trkpt>
			<trkpt lat="55.053890" lon="21.961800"><ele>26.6</ele><time>2026-06-04T19:23:39Z</time></trkpt>
			<trkpt lat="55.054190" lon="21.960700"><ele>26.1</ele><time>2026-06-04T19:23:42Z</time></trkpt>
			<trkpt lat="55.054710" lon="21.958900"><ele>25.2</ele><time>2026-06-04T19:23:45Z</time></trkpt>
			<trkpt lat="55.055090" lon="21.957560"><ele>24.6</ele><time>2026-06-04T19:23:48Z</time></trkpt>
			<trkpt lat="55.055300" lon="21.956790"><ele>24.2</ele><time>2026-06-04T19:23:51Z</time></trkpt>
			<trkpt lat="55.055460" lon="21.956300"><ele>24.0</ele><time>2026-06-04T19:23:53Z</time></trkpt>
			<trkpt lat="55.055630" lon="21.955900"><ele>23.8</ele><time>2026-06-04T19:23:56Z</time></trkpt>
			<trkpt lat="55.055690" lon="21.955790"><ele>23.7</ele><time>2026-06-04T19:23:59Z</time></trkpt>
			<trkpt lat="55.056260" lon="21.955100"><ele>23.2</ele><time>2026-06-04T19:24:02Z</time></trkpt>
			<trkpt lat="55.056910" lon="21.954230"><ele>22.6</ele><time>2026-06-04T19:24:05Z</time></trkpt>
			<trkpt lat="55.057500" lon="21.953250"><ele>22.0</ele><time>2026-06-04T19:24:08Z</time></trkpt>
			<trkpt lat="55.057800" lon="21.952690"><ele>21.6</ele><time>2026-06-04T19:24:11Z</time></trkpt>
			<trkpt lat="55.058430" lon="21.951500"><ele>21.0</ele><time>2026-06-04T19:24:14Z</time></trkpt>
			<trkpt lat="55.058850" lon="21.950690"><ele>20.6</ele><time>2026-06-04T19:24:17Z</time></trkpt>
			<trkpt lat="55.059240" lon="21.950020"><ele>20.8</ele><time>2026-06-04T19:24:20Z</time></trkpt>
			<trkpt lat="55.059740" lon="21.949410"><ele>21.0</ele><time>2026-06-04T19:24:22Z</time></trkpt>
			<trkpt lat="55.060530" lon="21.948490"><ele>21.2</ele><time>2026-06-04T19:24:25Z</time></trkpt>
			<trkpt lat="55.060830" lon="21.948210"><ele>21.3</ele><time>2026-06-04T19:24:28Z</time></trkpt>
			<trkpt lat="55.061230" lon="21.948010"><ele>21.5</ele><time>2026-06-04T19:24:31Z</time></trkpt>
			<trkpt lat="55.061370" lon="21.947980"><ele>21.5</ele><time>2026-06-04T19:24:34Z</time></trkpt>
			<trkpt lat="55.061490" lon="21.948000"><ele>21.5</ele><time>2026-06-04T19:24:37Z</time></trkpt>
			<trkpt lat="55.061570" lon="21.948090"><ele>21.6</ele><time>2026-06-04T19:24:40Z</time></trkpt>
			<trkpt lat="55.061660" lon="21.948330"><ele>21.6</ele><time>2026-06-04T19:24:43Z</time></trkpt>
			<trkpt lat="55.061720" lon="21.948900"><ele>21.7</ele><time>2026-06-04T19:24:46Z</time></trkpt>
			<trkpt lat="55.061710" lon="21.949390"><ele>21.8</ele><time>2026-06-04T19:24:49Z</time></trkpt>
			<trkpt lat="55.061630" lon="21.949730"><ele>21.8</ele><time>2026-06-04T19:24:52Z</time></trkpt>
			<trkpt lat="55.061610" lon="21.949770"><ele>21.8</ele><time>2026-06-04T19:24:54Z</time></trkpt>
			<trkpt lat="55.061610" lon="21.949770"><ele>21.8</ele><time>2026-06-04T19:25:04Z</time></trkpt>
			<trkpt lat="55.061530" lon="21.949940"><ele>21.9</ele><time>2026-06-04T19:25:13Z</time></trkpt>
			<trkpt lat="55.061420" lon="21.950070"><ele>21.9</ele><time>2026-06-04T19:25:22Z</time></trkpt>
			<trkpt lat="55.061260" lon="21.950230"><ele>22.0</ele><time>2026-06-04T19:25:31Z</time></trkpt>
			<trkpt lat="55.061080" lon="21.950260"><ele>22.0</ele><time>2026-06-04T19:25:40Z</time></trkpt>
			<trkpt lat="55.060430" lon="21.950120"><ele>22.2</ele><time>2026-06-04T19:25:49Z</time></trkpt>
			<trkpt lat="55.059400" lon="21.949730"><ele>22.5</ele><time>2026-06-04T19:25:58Z</time></trkpt>
			<trkpt lat="55.058370" lon="21.949190"><ele>22.8</ele><time>2026-06-04T19:26:07Z</time></trkpt>
			<trkpt lat="55.057620" lon="21.948700"><ele>23.0</ele><time>2026-06-04T19:26:16Z</time></trkpt>
			<trkpt lat="55.056600" lon="21.948020"><ele>22.9</ele><time>2026-06-04T19:26:25Z</time></trkpt>
			<trkpt lat="55.055540" lon="21.947220"><ele>22.6</ele><time>2026-06-04T19:26:34Z</time></trkpt>
			<trkpt lat="55.054180" lon="21.945920"><ele>22.1</ele><time>2026-06-04T19:26:43Z</time></trkpt>
			<trkpt lat="55.053000" lon="21.944620"><ele>21.7</ele><time>2026-06-04T19:26:52Z</time></trkpt>
			<trkpt lat="55.051910" lon="21.943170"><ele>21.3</ele><time>2026-06-04T19:27:02Z</time></trkpt>
			<trkpt lat="55.050850" lon="21.941590"><ele>20.8</ele><time>2026-06-04T19:27:11Z</time></trkpt>
			<trkpt lat="55.050400" lon="21.940890"><ele>20.7</ele><time>2026-06-04T19:27:20Z</time></trkpt>
			<trkpt lat="55.049980" lon="21.940160"><ele>20.5</ele><time>2026-06-04T19:27:29Z</time></trkpt>
			<trkpt lat="55.049160" lon="21.938470"><ele>19.5</ele><time>2026-06-04T19:27:38Z</time></trkpt>
			<trkpt lat="55.048380" lon="21.936730"><ele>18.5</ele><time>2026-06-04T19:27:47Z</time></trkpt>
			<trkpt lat="55.047440" lon="21.934530"><ele>17.2</ele><time>2026-06-04T19:27:56Z</time></trkpt>
			<trkpt lat="55.045230" lon="21.929440"><ele>14.1</ele><time>2026-06-04T19:28:05Z</time></trkpt>
			<trkpt lat="55.044880" lon="21.928640"><ele>13.6</ele><time>2026-06-04T19:28:14Z</time></trkpt>
			<trkpt lat="55.043090" lon="21.924480"><ele>13.6</ele><time>2026-06-04T19:28:23Z</time></trkpt>
			<trkpt lat="55.043040" lon="21.924360"><ele>13.7</ele><time>2026-06-04T19:28:32Z</time></trkpt>
			<trkpt lat="55.041390" lon="21.920600"><ele>14.7</ele><time>2026-06-04T19:28:41Z</time></trkpt>
			<trkpt lat="55.041230" lon="21.920240"><ele>14.8</ele><time>2026-06-04T19:28:50Z</time></trkpt>
			<trkpt lat="55.037180" lon="21.911190"><ele>18.5</ele><time>2026-06-04T19:29:00Z</time></trkpt>
			<trkpt lat="55.035980" lon="21.908550"><ele>20.2</ele><time>2026-06-04T19:29:09Z</time></trkpt>
			<trkpt lat="55.032380" lon="21.899940"><ele>23.1</ele><time>2026-06-04T19:29:18Z</time></trkpt>
			<trkpt lat="55.027110" lon="21.887970"><ele>21.8</ele><time>2026-06-04T19:29:27Z</time></trkpt>
			<trkpt lat="55.026840" lon="21.887340"><ele>22.4</ele><time>2026-06-04T19:29:36Z</time></trkpt>
			<trkpt lat="55.026000" lon="21.885330"><ele>24.5</ele><time>2026-06-04T19:29:45Z</time></trkpt>
			<trkpt lat="55.025440" lon="21.883950"><ele>25.9</ele><time>2026-06-04T19:29:54Z</time></trkpt>
			<trkpt lat="55.024990" lon="21.882780"><ele>27.1</ele><time>2026-06-04T19:30:03Z</time></trkpt>
			<trkpt lat="55.024580" lon="21.881590"><ele>28.2</ele><time>2026-06-04T19:30:12Z</time></trkpt>
			<trkpt lat="55.024230" lon="21.880450"><ele>29.3</ele><time>2026-06-04T19:30:21Z</time></trkpt>
			<trkpt lat="55.023840" lon="21.879050"><ele>30.6</ele><time>2026-06-04T19:30:30Z</time></trkpt>
			<trkpt lat="55.023410" lon="21.877390"><ele>32.1</ele><time>2026-06-04T19:30:39Z</time></trkpt>
			<trkpt lat="55.023010" lon="21.875690"><ele>32.0</ele><time>2026-06-04T19:30:48Z</time></trkpt>
			<trkpt lat="55.022640" lon="21.873830"><ele>30.4</ele><time>2026-06-04T19:30:58Z</time></trkpt>
			<trkpt lat="55.022310" lon="21.871800"><ele>28.8</ele><time>2026-06-04T19:31:07Z</time></trkpt>
			<trkpt lat="55.022070" lon="21.869900"><ele>27.3</ele><time>2026-06-04T19:31:16Z</time></trkpt>
			<trkpt lat="55.021740" lon="21.866960"><ele>25.0</ele><time>2026-06-04T19:31:25Z</time></trkpt>
			<trkpt lat="55.021640" lon="21.865170"><ele>23.6</ele><time>2026-06-04T19:31:34Z</time></trkpt>
			<trkpt lat="55.021590" lon="21.863980"><ele>22.7</ele><time>2026-06-04T19:31:43Z</time></trkpt>
			<trkpt lat="55.021570" lon="21.862130"><ele>21.2</ele><time>2026-06-04T19:31:52Z</time></trkpt>
			<trkpt lat="55.021580" lon="21.861110"><ele>20.6</ele><time>2026-06-04T19:32:01Z</time></trkpt>
			<trkpt lat="55.021600" lon="21.844770"><ele>19.9</ele><time>2026-06-04T19:32:10Z</time></trkpt>
			<trkpt lat="55.021630" lon="21.839060"><ele>18.9</ele><time>2026-06-04T19:32:19Z</time></trkpt>
			<trkpt lat="55.021600" lon="21.837260"><ele>18.5</ele><time>2026-06-04T19:32:28Z</time></trkpt>
			<trkpt lat="55.021550" lon="21.836260"><ele>18.4</ele><time>2026-06-04T19:32:37Z</time></trkpt>
			<trkpt lat="55.021470" lon="21.835290"><ele>18.2</ele><time>2026-06-04T19:32:46Z</time></trkpt>
			<trkpt lat="55.021360" lon="21.834320"><ele>18.0</ele><time>2026-06-04T19:32:56Z</time></trkpt>
			<trkpt lat="55.021220" lon="21.833430"><ele>17.8</ele><time>2026-06-04T19:33:05Z</time></trkpt>
			<trkpt lat="55.021070" lon="21.832570"><ele>17.7</ele><time>2026-06-04T19:33:14Z</time></trkpt>
			<trkpt lat="55.020820" lon="21.831410"><ele>17.4</ele><time>2026-06-04T19:33:23Z</time></trkpt>
			<trkpt lat="55.020610" lon="21.830510"><ele>17.3</ele><time>2026-06-04T19:33:32Z</time></trkpt>
			<trkpt lat="55.020390" lon="21.829730"><ele>17.2</ele><time>2026-06-04T19:33:41Z</time></trkpt>
			<trkpt lat="55.020210" lon="21.829110"><ele>17.1</ele><time>2026-06-04T19:33:50Z</time></trkpt>
			<trkpt lat="55.020050" lon="21.828610"><ele>17.1</ele><time>2026-06-04T19:33:59Z</time></trkpt>
			<trkpt lat="55.019870" lon="21.828080"><ele>17.0</ele><time>2026-06-04T19:34:08Z</time></trkpt>
			<trkpt lat="55.019790" lon="21.827880"><ele>17.0</ele><time>2026-06-04T19:34:17Z</time></trkpt>
			<trkpt lat="55.019770" lon="21.827820"><ele>17.0</ele><time>2026-06-04T19:34:26Z</time></trkpt>
			<trkpt lat="55.019450" lon="21.827010"><ele>16.9</ele><time>2026-06-04T19:34:35Z</time></trkpt>
			<trkpt lat="55.018820" lon="21.825720"><ele>16.8</ele><time>2026-06-04T19:34:44Z</time></trkpt>
			<trkpt lat="55.018460" lon="21.825130"><ele>16.7</ele><time>2026-06-04T19:34:54Z</time></trkpt>
			<trkpt lat="55.018070" lon="21.824560"><ele>16.7</ele><time>2026-06-04T19:35:03Z</time></trkpt>
			<trkpt lat="55.017510" lon="21.823750"><ele>16.6</ele><time>2026-06-04T19:35:12Z</time></trkpt>
			<trkpt lat="55.016460" lon="21.822220"><ele>16.4</ele><time>2026-06-04T19:35:21Z</time></trkpt>
			<trkpt lat="55.013090" lon="21.817530"><ele>15.7</ele><time>2026-06-04T19:35:30Z</time></trkpt>
			<trkpt lat="55.007330" lon="21.809530"><ele>14.2</ele><time>2026-06-04T19:35:39Z</time></trkpt>
			<trkpt lat="55.003780" lon="21.804570"><ele>11.9</ele><time>2026-06-04T19:35:48Z</time></trkpt>
			<trkpt lat="55.003210" lon="21.803800"><ele>11.6</ele><time>2026-06-04T19:35:57Z</time></trkpt>
			<trkpt lat="55.002720" lon="21.803130"><ele>11.2</ele><time>2026-06-04T19:36:06Z</time></trkpt>
			<trkpt lat="55.002410" lon="21.802660"><ele>11.0</ele><time>2026-06-04T19:36:15Z</time></trkpt>
			<trkpt lat="55.002270" lon="21.802410"><ele>10.9</ele><time>2026-06-04T19:36:24Z</time></trkpt>
			<trkpt lat="55.001950" lon="21.801810"><ele>10.7</ele><time>2026-06-04T19:36:33Z</time></trkpt>
			<trkpt lat="55.001690" lon="21.801230"><ele>10.5</ele><time>2026-06-04T19:36:42Z</time></trkpt>
			<trkpt lat="55.001630" lon="21.801080"><ele>10.4</ele><time>2026-06-04T19:36:52Z</time></trkpt>
			<trkpt lat="55.001090" lon="21.799910"><ele>10.0</ele><time>2026-06-04T19:37:01Z</time></trkpt>
			<trkpt lat="55.000530" lon="21.798670"><ele>9.9</ele><time>2026-06-04T19:37:10Z</time></trkpt>
			<trkpt lat="55.000210" lon="21.797960"><ele>10.7</ele><time>2026-06-04T19:37:19Z</time></trkpt>
			<trkpt lat="55.000030" lon="21.797570"><ele>11.1</ele><time>2026-06-04T19:37:28Z</time></trkpt>
			<trkpt lat="54.999760" lon="21.796980"><ele>11.8</ele><time>2026-06-04T19:37:37Z</time></trkpt>
			<trkpt lat="54.997910" lon="21.792960"><ele>16.5</ele><time>2026-06-04T19:37:46Z</time></trkpt>
			<trkpt lat="54.996270" lon="21.789470"><ele>20.6</ele><time>2026-06-04T19:37:55Z</time></trkpt>
			<trkpt lat="54.995600" lon="21.787880"><ele>22.4</ele><time>2026-06-04T19:38:04Z</time></trkpt>
			<trkpt lat="54.995320" lon="21.787280"><ele>23.1</ele><time>2026-06-04T19:38:13Z</time></trkpt>
			<trkpt lat="54.995220" lon="21.787060"><ele>23.4</ele><time>2026-06-04T19:38:22Z</time></trkpt>
			<trkpt lat="54.993440" lon="21.783080"><ele>22.2</ele><time>2026-06-04T19:38:31Z</time></trkpt>
			<trkpt lat="54.992710" lon="21.781460"><ele>21.4</ele><time>2026-06-04T19:38:40Z</time></trkpt>
			<trkpt lat="54.992500" lon="21.781040"><ele>21.2</ele><time>2026-06-04T19:38:49Z</time></trkpt>
			<trkpt lat="54.992260" lon="21.780710"><ele>21.0</ele><time>2026-06-04T19:38:59Z</time></trkpt>
			<trkpt lat="54.987840" lon="21.775960"><ele>17.9</ele><time>2026-06-04T19:39:08Z</time></trkpt>
			<trkpt lat="54.986560" lon="21.774560"><ele>17.8</ele><time>2026-06-04T19:39:17Z</time></trkpt>
			<trkpt lat="54.985860" lon="21.773750"><ele>17.7</ele><time>2026-06-04T19:39:26Z</time></trkpt>
			<trkpt lat="54.986140" lon="21.772970"><ele>17.6</ele><time>2026-06-04T19:39:35Z</time></trkpt>
			<trkpt lat="54.986420" lon="21.772370"><ele>17.6</ele><time>2026-06-04T19:39:44Z</time></trkpt>
			<trkpt lat="54.986810" lon="21.771720"><ele>17.5</ele><time>2026-06-04T19:39:53Z</time></trkpt>
			<trkpt lat="54.987700" lon="21.770210"><ele>17.4</ele><time>2026-06-04T19:40:02Z</time></trkpt>
			<trkpt lat="54.988920" lon="21.768330"><ele>17.2</ele><time>2026-06-04T19:40:11Z</time></trkpt>
			<trkpt lat="54.991380" lon="21.764750"><ele>16.3</ele><time>2026-06-04T19:40:20Z</time></trkpt>
			<trkpt lat="54.997260" lon="21.756040"><ele>12.1</ele><time>2026-06-04T19:40:29Z</time></trkpt>
			<trkpt lat="54.998050" lon="21.754950"><ele>11.4</ele><time>2026-06-04T19:40:38Z</time></trkpt>
			<trkpt lat="54.999990" lon="21.752140"><ele>9.5</ele><time>2026-06-04T19:40:47Z</time></trkpt>
			<trkpt lat="55.000070" lon="21.752040"><ele>9.4</ele><time>2026-06-04T19:40:57Z</time></trkpt>
			<trkpt lat="55.000280" lon="21.751790"><ele>9.2</ele><time>2026-06-04T19:41:06Z</time></trkpt>
			<trkpt lat="55.000530" lon="21.751530"><ele>9.0</ele><time>2026-06-04T19:41:15Z</time></trkpt>
			<trkpt lat="55.002090" lon="21.750020"><ele>7.7</ele><time>2026-06-04T19:41:24Z</time></trkpt>
			<trkpt lat="55.002940" lon="21.749170"><ele>6.9</ele><time>2026-06-04T19:41:33Z</time></trkpt>
			<trkpt lat="55.004300" lon="21.747830"><ele>5.8</ele><time>2026-06-04T19:41:42Z</time></trkpt>
			<trkpt lat="55.007460" lon="21.744730"><ele>4.2</ele><time>2026-06-04T19:41:51Z</time></trkpt>
			<trkpt lat="55.007640" lon="21.743930"><ele>4.0</ele><time>2026-06-04T19:42:00Z</time></trkpt>
			<trkpt lat="55.007640" lon="21.743930"><ele>4.0</ele><time>2026-06-04T19:42:07Z</time></trkpt>
			<trkpt lat="55.008350" lon="21.740800"><ele>3.2</ele><time>2026-06-04T19:42:13Z</time></trkpt>
			<trkpt lat="55.008460" lon="21.740320"><ele>3.1</ele><time>2026-06-04T19:42:20Z</time></trkpt>
			<trkpt lat="55.008550" lon="21.739900"><ele>2.9</ele><time>2026-06-04T19:42:26Z</time></trkpt>
			<trkpt lat="55.008980" lon="21.738050"><ele>2.5</ele><time>2026-06-04T19:42:32Z</time></trkpt>
			<trkpt lat="55.010170" lon="21.733530"><ele>1.9</ele><time>2026-06-04T19:42:39Z</time></trkpt>
			<trkpt lat="55.010410" lon="21.732610"><ele>1.9</ele><time>2026-06-04T19:42:45Z</time></trkpt>
			<trkpt lat="55.010630" lon="21.731920"><ele>1.9</ele><time>2026-06-04T19:42:52Z</time></trkpt>
			<trkpt lat="55.011420" lon="21.730470"><ele>1.9</ele><time>2026-06-04T19:42:58Z</time></trkpt>
			<trkpt lat="55.013310" lon="21.727040"><ele>2.0</ele><time>2026-06-04T19:43:05Z</time></trkpt>
			<trkpt lat="55.013590" lon="21.726540"><ele>2.0</ele><time>2026-06-04T19:43:11Z</time></trkpt>
			<trkpt lat="55.013860" lon="21.726120"><ele>2.0</ele><time>2026-06-04T19:43:18Z</time></trkpt>
			<trkpt lat="55.016110" lon="21.723320"><ele>1.9</ele><time>2026-06-04T19:43:24Z</time></trkpt>
			<trkpt lat="55.016270" lon="21.723120"><ele>1.8</ele><time>2026-06-04T19:43:31Z</time></trkpt>
			<trkpt lat="55.016360" lon="21.722980"><ele>1.8</ele><time>2026-06-04T19:43:37Z</time></trkpt>
			<trkpt lat="55.016410" lon="21.722870"><ele>1.8</ele><time>2026-06-04T19:43:44Z</time></trkpt>
			<trkpt lat="55.016450" lon="21.722750"><ele>1.8</ele><time>2026-06-04T19:43:50Z</time></trkpt>
			<trkpt lat="55.016480" lon="21.722570"><ele>1.8</ele><time>2026-06-04T19:43:57Z</time></trkpt>
			<trkpt lat="55.016520" lon="21.722310"><ele>1.7</ele><time>2026-06-04T19:44:03Z</time></trkpt>
			<trkpt lat="55.016630" lon="21.721330"><ele>1.6</ele><time>2026-06-04T19:44:10Z</time></trkpt>
			<trkpt lat="55.016690" lon="21.721110"><ele>1.6</ele><time>2026-06-04T19:44:16Z</time></trkpt>
			<trkpt lat="55.016810" lon="21.720680"><ele>1.5</ele><time>2026-06-04T19:44:23Z</time></trkpt>
			<trkpt lat="55.017330" lon="21.719210"><ele>1.3</ele><time>2026-06-04T19:44:29Z</time></trkpt>
			<trkpt lat="55.019140" lon="21.714040"><ele>0.6</ele><time>2026-06-04T19:44:36Z</time></trkpt>
			<trkpt lat="55.019440" lon="21.713200"><ele>0.5</ele><time>2026-06-04T19:44:42Z</time></trkpt>
			<trkpt lat="55.019540" lon="21.712980"><ele>0.5</ele><time>2026-06-04T19:44:48Z</time></trkpt>
			<trkpt lat="55.019680" lon="21.712740"><ele>0.4</ele><time>2026-06-04T19:44:55Z</time></trkpt>
			<trkpt lat="55.019820" lon="21.712560"><ele>0.4</ele><time>2026-06-04T19:45:01Z</time></trkpt>
			<trkpt lat="55.019990" lon="21.712400"><ele>0.4</ele><time>2026-06-04T19:45:08Z</time></trkpt>
			<trkpt lat="55.020160" lon="21.712270"><ele>0.3</ele><time>2026-06-04T19:45:14Z</time></trkpt>
			<trkpt lat="55.020860" lon="21.711830"><ele>0.3</ele><time>2026-06-04T19:45:21Z</time></trkpt>
			<trkpt lat="55.021200" lon="21.711580"><ele>0.4</ele><time>2026-06-04T19:45:27Z</time></trkpt>
			<trkpt lat="55.023410" lon="21.709840"><ele>1.1</ele><time>2026-06-04T19:45:34Z</time></trkpt>
			<trkpt lat="55.024620" lon="21.708880"><ele>1.6</ele><time>2026-06-04T19:45:40Z</time></trkpt>
			<trkpt lat="55.024980" lon="21.708580"><ele>1.7</ele><time>2026-06-04T19:45:47Z</time></trkpt>
			<trkpt lat="55.025080" lon="21.708500"><ele>1.7</ele><time>2026-06-04T19:45:53Z</time></trkpt>
			<trkpt lat="55.028330" lon="21.705690"><ele>2.9</ele><time>2026-06-04T19:46:00Z</time></trkpt>
			<trkpt lat="55.031940" lon="21.702740"><ele>1.5</ele><time>2026-06-04T19:46:06Z</time></trkpt>
			<trkpt lat="55.032150" lon="21.702550"><ele>1.4</ele><time>2026-06-04T19:46:13Z</time></trkpt>
			<trkpt lat="55.032270" lon="21.702420"><ele>1.3</ele><time>2026-06-04T19:46:19Z</time></trkpt>
			<trkpt lat="55.032410" lon="21.702240"><ele>1.2</ele><time>2026-06-04T19:46:26Z</time></trkpt>
			<trkpt lat="55.032630" lon="21.701830"><ele>1.1</ele><time>2026-06-04T19:46:32Z</time></trkpt>
			<trkpt lat="55.034030" lon="21.698880"><ele>0.1</ele><time>2026-06-04T19:46:39Z</time></trkpt>
			<trkpt lat="55.034860" lon="21.697130"><ele>-0.5</ele><time>2026-06-04T19:46:45Z</time></trkpt>
			<trkpt lat="55.035960" lon="21.694490"><ele>-0.6</ele><time>2026-06-04T19:46:51Z</time></trkpt>
			<trkpt lat="55.036540" lon="21.693140"><ele>-0.1</ele><time>2026-06-04T19:46:58Z</time></trkpt>
			<trkpt lat="55.036650" lon="21.692900"><ele>0.0</ele><time>2026-06-04T19:47:04Z</time></trkpt>
			<trkpt lat="55.036950" lon="21.692370"><ele>0.3</ele><time>2026-06-04T19:47:11Z</time></trkpt>
			<trkpt lat="55.037130" lon="21.692110"><ele>0.4</ele><time>2026-06-04T19:47:17Z</time></trkpt>
			<trkpt lat="55.038230" lon="21.690490"><ele>1.2</ele><time>2026-06-04T19:47:24Z</time></trkpt>
			<trkpt lat="55.038640" lon="21.689900"><ele>1.5</ele><time>2026-06-04T19:47:30Z</time></trkpt>
			<trkpt lat="55.039070" lon="21.689330"><ele>1.8</ele><time>2026-06-04T19:47:37Z</time></trkpt>
			<trkpt lat="55.039210" lon="21.689160"><ele>1.9</ele><time>2026-06-04T19:47:43Z</time></trkpt>
			<trkpt lat="55.040400" lon="21.687690"><ele>2.8</ele><time>2026-06-04T19:47:50Z</time></trkpt>
			<trkpt lat="55.040700" lon="21.687330"><ele>3.0</ele><time>2026-06-04T19:47:56Z</time></trkpt>
			<trkpt lat="55.040800" lon="21.687190"><ele>3.0</ele><time>2026-06-04T19:48:03Z</time></trkpt>
			<trkpt lat="55.041240" lon="21.686710"><ele>3.3</ele><time>2026-06-04T19:48:09Z</time></trkpt>
			<trkpt lat="55.042010" lon="21.686090"><ele>3.8</ele><time>2026-06-04T19:48:16Z</time></trkpt>
			<trkpt lat="55.042358" lon="21.685819"><ele>4.0</ele><time>2026-06-04T19:48:22Z</time></trkpt>
			<trkpt lat="55.042360" lon="21.685820"><ele>4.0</ele><time>2026-06-04T19:49:12Z</time></trkpt>
			<trkpt lat="55.042450" lon="21.685750"><ele>4.1</ele><time>2026-06-04T19:50:03Z</time></trkpt>
			<trkpt lat="55.043120" lon="21.685240"><ele>4.0</ele><time>2026-06-04T19:50:53Z</time></trkpt>
			<trkpt lat="55.044090" lon="21.684490"><ele>3.8</ele><time>2026-06-04T19:51:43Z</time></trkpt>
			<trkpt lat="55.045110" lon="21.683660"><ele>3.6</ele><time>2026-06-04T19:52:33Z</time></trkpt>
			<trkpt lat="55.045040" lon="21.683480"><ele>3.6</ele><time>2026-06-04T19:53:23Z</time></trkpt>
			<trkpt lat="55.045040" lon="21.683480"><ele>3.6</ele><time>2026-06-04T19:53:41Z</time></trkpt>
			<trkpt lat="55.044830" lon="21.682880"><ele>3.5</ele><time>2026-06-04T19:53:59Z</time></trkpt>
			<trkpt lat="55.044800" lon="21.682780"><ele>3.5</ele><time>2026-06-04T19:54:16Z</time></trkpt>
			<trkpt lat="55.044680" lon="21.682410"><ele>3.4</ele><time>2026-06-04T19:54:34Z</time></trkpt>
			<trkpt lat="55.044640" lon="21.682290"><ele>3.4</ele><time>2026-06-04T19:54:52Z</time></trkpt>
			<trkpt lat="55.044550" lon="21.682040"><ele>3.4</ele><time>2026-06-04T19:55:09Z</time></trkpt>
			<trkpt lat="55.044460" lon="21.681760"><ele>3.4</ele><time>2026-06-04T19:55:27Z</time></trkpt>
			<trkpt lat="55.044410" lon="21.681600"><ele>3.3</ele><time>2026-06-04T19:55:45Z</time></trkpt>
			<trkpt lat="55.044370" lon="21.681570"><ele>3.3</ele><time>2026-06-04T19:56:02Z</time></trkpt>
			<trkpt lat="55.044060" lon="21.680670"><ele>3.2</ele><time>2026-06-04T19:56:20Z</time></trkpt>
			<trkpt lat="55.043820" lon="21.680020"><ele>3.1</ele><time>2026-06-04T19:56:38Z</time></trkpt>
			<trkpt lat="55.043770" lon="21.679890"><ele>3.1</ele><time>2026-06-04T19:56:55Z</time></trkpt>
			<trkpt lat="55.043774" lon="21.679892"><ele>3.1</ele><time>2026-06-04T19:57:02Z</time></trkpt>
			<trkpt lat="55.043710" lon="21.679720"><ele>3.1</ele><time>2026-06-04T19:57:08Z</time></trkpt>
			<trkpt lat="55.043530" lon="21.679180"><ele>3.0</ele><time>2026-06-04T19:57:15Z</time></trkpt>
			<trkpt lat="55.043430" lon="21.678900"><ele>3.0</ele><time>2026-06-04T19:57:21Z</time></trkpt>
			<trkpt lat="55.043210" lon="21.678260"><ele>2.9</ele><time>2026-06-04T19:57:28Z</time></trkpt>
			<trkpt lat="55.043120" lon="21.678010"><ele>2.9</ele><time>2026-06-04T19:57:34Z</time></trkpt>
			<trkpt lat="55.042570" lon="21.676420"><ele>2.7</ele><time>2026-06-04T19:57:41Z</time></trkpt>
			<trkpt lat="55.042130" lon="21.675100"><ele>2.6</ele><time>2026-06-04T19:57:47Z</time></trkpt>
			<trkpt lat="55.041890" lon="21.674390"><ele>2.5</ele><time>2026-06-04T19:57:54Z</time></trkpt>
			<trkpt lat="55.041830" lon="21.674190"><ele>2.4</ele><time>2026-06-04T19:58:00Z</time></trkpt>
			<trkpt lat="55.041150" lon="21.672130"><ele>1.9</ele><time>2026-06-04T19:58:07Z</time></trkpt>
			<trkpt lat="55.040980" lon="21.671620"><ele>1.7</ele><time>2026-06-04T19:58:13Z</time></trkpt>
			<trkpt lat="55.040530" lon="21.670180"><ele>1.4</ele><time>2026-06-04T19:58:20Z</time></trkpt>
			<trkpt lat="55.040470" lon="21.670000"><ele>1.3</ele><time>2026-06-04T19:58:26Z</time></trkpt>
			<trkpt lat="55.040440" lon="21.669910"><ele>1.3</ele><time>2026-06-04T19:58:33Z</time></trkpt>
			<trkpt lat="55.040320" lon="21.669500"><ele>1.2</ele><time>2026-06-04T19:58:39Z</time></trkpt>
			<trkpt lat="55.040250" lon="21.669280"><ele>1.1</ele><time>2026-06-04T19:58:46Z</time></trkpt>
			<trkpt lat="55.040140" lon="21.668700"><ele>1.0</ele><time>2026-06-04T19:58:52Z</time></trkpt>
			<trkpt lat="55.040120" lon="21.668440"><ele>0.9</ele><time>2026-06-04T19:58:59Z</time></trkpt>
			<trkpt lat="55.040110" lon="21.667980"><ele>0.8</ele><time>2026-06-04T19:59:05Z</time></trkpt>
			<trkpt lat="55.040120" lon="21.667100"><ele>0.7</ele><time>2026-06-04T19:59:12Z</time></trkpt>
			<trkpt lat="55.040130" lon="21.666100"><ele>0.4</ele><time>2026-06-04T19:59:18Z</time></trkpt>
			<trkpt lat="55.040140" lon="21.665400"><ele>0.3</ele><time>2026-06-04T19:59:25Z</time></trkpt>
			<trkpt lat="55.040140" lon="21.663840"><ele>-0.1</ele><time>2026-06-04T19:59:31Z</time></trkpt>
			<trkpt lat="55.040140" lon="21.663490"><ele>-0.2</ele><time>2026-06-04T19:59:38Z</time></trkpt>
			<trkpt lat="55.040130" lon="21.662610"><ele>-0.4</ele><time>2026-06-04T19:59:44Z</time></trkpt>
			<trkpt lat="55.040100" lon="21.662040"><ele>-0.5</ele><time>2026-06-04T19:59:51Z</time></trkpt>
			<trkpt lat="55.040060" lon="21.660830"><ele>-0.8</ele><time>2026-06-04T19:59:57Z</time></trkpt>
			<trkpt lat="55.040050" lon="21.660500"><ele>-0.8</ele><time>2026-06-04T20:00:04Z</time></trkpt>
			<trkpt lat="55.040000" lon="21.659840"><ele>-1.0</ele><time>2026-06-04T20:00:10Z</time></trkpt>
			<trkpt lat="55.039920" lon="21.659460"><ele>-1.0</ele><time>2026-06-04T20:00:17Z</time></trkpt>
			<trkpt lat="55.039800" lon="21.659030"><ele>-1.1</ele><time>2026-06-04T20:00:23Z</time></trkpt>
			<trkpt lat="55.039400" lon="21.657680"><ele>-1.2</ele><time>2026-06-04T20:00:30Z</time></trkpt>
			<trkpt lat="55.038890" lon="21.656020"><ele>-1.4</ele><time>2026-06-04T20:00:36Z</time></trkpt>
			<trkpt lat="55.036880" lon="21.649300"><ele>-2.0</ele><time>2026-06-04T20:00:43Z</time></trkpt>
			<trkpt lat="55.036760" lon="21.648920"><ele>-2.1</ele><time>2026-06-04T20:00:49Z</time></trkpt>
			<trkpt lat="55.036490" lon="21.648190"><ele>-2.1</ele><time>2026-06-04T20:00:56Z</time></trkpt>
			<trkpt lat="55.036220" lon="21.647600"><ele>-2.2</ele><time>2026-06-04T20:01:02Z</time></trkpt>
			<trkpt lat="55.035130" lon="21.645250"><ele>-2.2</ele><time>2026-06-04T20:01:09Z</time></trkpt>
			<trkpt lat="55.035040" lon="21.645060"><ele>-2.2</ele><time>2026-06-04T20:01:15Z</time></trkpt>
			<trkpt lat="55.033740" lon="21.642090"><ele>-1.5</ele><time>2026-06-04T20:01:22Z</time></trkpt>
			<trkpt lat="55.033430" lon="21.641340"><ele>-1.4</ele><time>2026-06-04T20:01:28Z</time></trkpt>
			<trkpt lat="55.033300" lon="21.641050"><ele>-1.3</ele><time>2026-06-04T20:01:35Z</time></trkpt>
			<trkpt lat="55.033130" lon="21.640690"><ele>-1.3</ele><time>2026-06-04T20:01:41Z</time></trkpt>
			<trkpt lat="55.032620" lon="21.639830"><ele>-1.1</ele><time>2026-06-04T20:01:48Z</time></trkpt>
			<trkpt lat="55.032440" lon="21.639490"><ele>-1.0</ele><time>2026-06-04T20:01:54Z</time></trkpt>
			<trkpt lat="55.032310" lon="21.639210"><ele>-0.9</ele><time>2026-06-04T20:02:00Z</time></trkpt>
			<trkpt lat="55.032120" lon="21.638740"><ele>-0.8</ele><time>2026-06-04T20:02:07Z</time></trkpt>
			<trkpt lat="55.031870" lon="21.638130"><ele>-0.7</ele><time>2026-06-04T20:02:13Z</time></trkpt>
			<trkpt lat="55.031320" lon="21.636740"><ele>-0.4</ele><time>2026-06-04T20:02:20Z</time></trkpt>
			<trkpt lat="55.030980" lon="21.635810"><ele>-0.3</ele><time>2026-06-04T20:02:26Z</time></trkpt>
			<trkpt lat="55.030250" lon="21.633930"><ele>0.1</ele><time>2026-06-04T20:02:33Z</time></trkpt>
			<trkpt lat="55.029600" lon="21.632330"><ele>1.7</ele><time>2026-06-04T20:02:39Z</time></trkpt>
			<trkpt lat="55.028670" lon="21.630280"><ele>4.2</ele><time>2026-06-04T20:02:46Z</time></trkpt>
			<trkpt lat="55.028370" lon="21.629620"><ele>5.1</ele><time>2026-06-04T20:02:52Z</time></trkpt>
			<trkpt lat="55.028080" lon="21.629060"><ele>5.8</ele><time>2026-06-04T20:02:59Z</time></trkpt>
			<trkpt lat="55.027910" lon="21.628820"><ele>6.2</ele><time>2026-06-04T20:03:05Z</time></trkpt>
			<trkpt lat="55.027490" lon="21.628320"><ele>7.0</ele><time>2026-06-04T20:03:12Z</time></trkpt>
			<trkpt lat="55.026920" lon="21.627620"><ele>8.2</ele><time>2026-06-04T20:03:18Z</time></trkpt>
			<trkpt lat="55.026270" lon="21.626750"><ele>9.6</ele><time>2026-06-04T20:03:25Z</time></trkpt>
			<trkpt lat="55.025780" lon="21.626260"><ele>10.6</ele><time>2026-06-04T20:03:31Z</time></trkpt>
			<trkpt lat="55.025440" lon="21.626140"><ele>11.2</ele><time>2026-06-04T20:03:38Z</time></trkpt>
			<trkpt lat="55.024790" lon="21.626030"><ele>12.3</ele><time>2026-06-04T20:03:44Z</time></trkpt>
			<trkpt lat="55.023880" lon="21.625840"><ele>13.9</ele><time>2026-06-04T20:03:51Z</time></trkpt>
			<trkpt lat="55.023550" lon="21.625760"><ele>14.4</ele><time>2026-06-04T20:03:57Z</time></trkpt>
			<trkpt lat="55.022580" lon="21.625510"><ele>15.6</ele><time>2026-06-04T20:04:04Z</time></trkpt>
			<trkpt lat="55.022280" lon="21.625500"><ele>15.7</ele><time>2026-06-04T20:04:10Z</time></trkpt>
			<trkpt lat="55.021710" lon="21.625430"><ele>15.9</ele><time>2026-06-04T20:04:17Z</time></trkpt>
			<trkpt lat="55.021400" lon="21.625330"><ele>16.1</ele><time>2026-06-04T20:04:23Z</time></trkpt>
			<trkpt lat="55.021100" lon="21.625070"><ele>16.2</ele><time>2026-06-04T20:04:30Z</time></trkpt>
			<trkpt lat="55.020770" lon="21.624580"><ele>16.3</ele><time>2026-06-04T20:04:36Z</time></trkpt>
			<trkpt lat="55.019580" lon="21.622780"><ele>16.9</ele><time>2026-06-04T20:04:43Z</time></trkpt>
			<trkpt lat="55.019040" lon="21.621900"><ele>17.1</ele><time>2026-06-04T20:04:49Z</time></trkpt>
			<trkpt lat="55.018290" lon="21.620600"><ele>17.5</ele><time>2026-06-04T20:04:56Z</time></trkpt>
			<trkpt lat="55.017970" lon="21.619980"><ele>17.7</ele><time>2026-06-04T20:05:02Z</time></trkpt>
			<trkpt lat="55.017640" lon="21.619350"><ele>17.8</ele><time>2026-06-04T20:05:09Z</time></trkpt>
			<trkpt lat="55.016590" lon="21.617450"><ele>18.4</ele><time>2026-06-04T20:05:15Z</time></trkpt>
			<trkpt lat="55.015760" lon="21.615880"><ele>17.8</ele><time>2026-06-04T20:05:22Z</time></trkpt>
			<trkpt lat="55.015020" lon="21.614260"><ele>15.3</ele><time>2026-06-04T20:05:28Z</time></trkpt>
			<trkpt lat="55.014290" lon="21.612820"><ele>12.9</ele><time>2026-06-04T20:05:35Z</time></trkpt>
			<trkpt lat="55.014160" lon="21.612410"><ele>12.3</ele><time>2026-06-04T20:05:41Z</time></trkpt>
			<trkpt lat="55.014140" lon="21.612200"><ele>12.1</ele><time>2026-06-04T20:05:48Z</time></trkpt>
			<trkpt lat="55.014050" lon="21.611310"><ele>10.9</ele><time>2026-06-04T20:05:54Z</time></trkpt>
			<trkpt lat="55.013740" lon="21.607530"><ele>6.2</ele><time>2026-06-04T20:06:01Z</time></trkpt>
			<trkpt lat="55.013470" lon="21.605310"><ele>3.4</ele><time>2026-06-04T20:06:07Z</time></trkpt>
			<trkpt lat="55.013190" lon="21.603010"><ele>0.5</ele><time>2026-06-04T20:06:14Z</time></trkpt>
			<trkpt lat="55.013070" lon="21.600750"><ele>-1.0</ele><time>2026-06-04T20:06:20Z</time></trkpt>
			<trkpt lat="55.013050" lon="21.600160"><ele>-1.0</ele><time>2026-06-04T20:06:27Z</time></trkpt>
			<trkpt lat="55.013060" lon="21.599570"><ele>-1.1</ele><time>2026-06-04T20:06:33Z</time></trkpt>
			<trkpt lat="55.013120" lon="21.598130"><ele>-1.3</ele><time>2026-06-04T20:06:40Z</time></trkpt>
			<trkpt lat="55.013110" lon="21.597860"><ele>-1.4</ele><time>2026-06-04T20:06:46Z</time></trkpt>
			<trkpt lat="55.013090" lon="21.597590"><ele>-1.4</ele><time>2026-06-04T20:06:53Z</time></trkpt>
			<trkpt lat="55.013000" lon="21.596660"><ele>-1.5</ele><time>2026-06-04T20:06:59Z</time></trkpt>
			<trkpt lat="55.012930" lon="21.595940"><ele>-1.6</ele><time>2026-06-04T20:07:06Z</time></trkpt>
			<trkpt lat="55.012940" lon="21.594750"><ele>-1.8</ele><time>2026-06-04T20:07:12Z</time></trkpt>
			<trkpt lat="55.012930" lon="21.594140"><ele>-1.9</ele><time>2026-06-04T20:07:19Z</time></trkpt>
			<trkpt lat="55.012820" lon="21.586540"><ele>-3.0</ele><time>2026-06-04T20:07:25Z</time></trkpt>
			<trkpt lat="55.012710" lon="21.582940"><ele>-2.6</ele><time>2026-06-04T20:07:32Z</time></trkpt>
			<trkpt lat="55.012640" lon="21.581580"><ele>-2.5</ele><time>2026-06-04T20:07:38Z</time></trkpt>
			<trkpt lat="55.012580" lon="21.580980"><ele>-2.4</ele><time>2026-06-04T20:07:45Z</time></trkpt>
			<trkpt lat="55.012530" lon="21.580230"><ele>-2.4</ele><time>2026-06-04T20:07:51Z</time></trkpt>
			<trkpt lat="55.012480" lon="21.579440"><ele>-2.3</ele><time>2026-06-04T20:07:57Z</time></trkpt>
			<trkpt lat="55.012500" lon="21.578680"><ele>-2.2</ele><time>2026-06-04T20:08:04Z</time></trkpt>
			<trkpt lat="55.012630" lon="21.576910"><ele>-2.0</ele><time>2026-06-04T20:08:10Z</time></trkpt>
			<trkpt lat="55.012750" lon="21.575100"><ele>-1.8</ele><time>2026-06-04T20:08:17Z</time></trkpt>
			<trkpt lat="55.012960" lon="21.571350"><ele>-1.4</ele><time>2026-06-04T20:08:23Z</time></trkpt>
			<trkpt lat="55.013030" lon="21.570350"><ele>-1.3</ele><time>2026-06-04T20:08:30Z</time></trkpt>
			<trkpt lat="55.013060" lon="21.569510"><ele>-1.3</ele><time>2026-06-04T20:08:36Z</time></trkpt>
			<trkpt lat="55.013080" lon="21.568280"><ele>-1.3</ele><time>2026-06-04T20:08:43Z</time></trkpt>
			<trkpt lat="55.013080" lon="21.567580"><ele>-1.2</ele><time>2026-06-04T20:08:49Z</time></trkpt>
			<trkpt lat="55.013030" lon="21.566880"><ele>-1.2</ele><time>2026-06-04T20:08:56Z</time></trkpt>
			<trkpt lat="55.013010" lon="21.566440"><ele>-1.2</ele><time>2026-06-04T20:09:02Z</time></trkpt>
			<trkpt lat="55.013000" lon="21.566400"><ele>-1.2</ele><time>2026-06-04T20:09:09Z</time></trkpt>
			<trkpt lat="55.012980" lon="21.566010"><ele>-1.2</ele><time>2026-06-04T20:09:15Z</time></trkpt>
			<trkpt lat="55.012950" lon="21.565680"><ele>-1.2</ele><time>2026-06-04T20:09:22Z</time></trkpt>
			<trkpt lat="55.012900" lon="21.565310"><ele>-1.2</ele><time>2026-06-04T20:09:28Z</time></trkpt>
			<trkpt lat="55.012860" lon="21.565140"><ele>-1.2</ele><time>2026-06-04T20:09:35Z</time></trkpt>
			<trkpt lat="55.012760" lon="21.564710"><ele>-1.1</ele><time>2026-06-04T20:09:41Z</time></trkpt>
			<trkpt lat="55.012000" lon="21.561680"><ele>-1.0</ele><time>2026-06-04T20:09:48Z</time></trkpt>
			<trkpt lat="55.011940" lon="21.561380"><ele>-1.0</ele><time>2026-06-04T20:09:54Z</time></trkpt>
			<trkpt lat="55.011390" lon="21.561880"><ele>-1.0</ele><time>2026-06-04T20:10:01Z</time></trkpt>
			<trkpt lat="55.011300" lon="21.562040"><ele>-1.0</ele><time>2026-06-04T20:10:07Z</time></trkpt>
			<trkpt lat="55.009940" lon="21.563370"><ele>-0.9</ele><time>2026-06-04T20:10:14Z</time></trkpt>
			<trkpt lat="55.008740" lon="21.564620"><ele>-0.9</ele><time>2026-06-04T20:10:20Z</time></trkpt>
			<trkpt lat="55.008420" lon="21.564960"><ele>-1.0</ele><time>2026-06-04T20:10:27Z</time></trkpt>
			<trkpt lat="55.008220" lon="21.565150"><ele>-1.0</ele><time>2026-06-04T20:10:33Z</time></trkpt>
			<trkpt lat="55.003890" lon="21.569350"><ele>-2.1</ele><time>2026-06-04T20:10:40Z</time></trkpt>
			<trkpt lat="55.003810" lon="21.569430"><ele>-2.1</ele><time>2026-06-04T20:10:46Z</time></trkpt>
			<trkpt lat="54.998150" lon="21.575080"><ele>-2.5</ele><time>2026-06-04T20:10:53Z</time></trkpt>
			<trkpt lat="54.997960" lon="21.575240"><ele>-2.5</ele><time>2026-06-04T20:10:59Z</time></trkpt>
			<trkpt lat="54.997860" lon="21.575280"><ele>-2.5</ele><time>2026-06-04T20:11:06Z</time></trkpt>
			<trkpt lat="54.997750" lon="21.575310"><ele>-2.5</ele><time>2026-06-04T20:11:12Z</time></trkpt>
			<trkpt lat="54.997460" lon="21.575260"><ele>-2.4</ele><time>2026-06-04T20:11:19Z</time></trkpt>
			<trkpt lat="54.989420" lon="21.573130"><ele>-2.2</ele><time>2026-06-04T20:11:25Z</time></trkpt>
			<trkpt lat="54.988710" lon="21.572950"><ele>-2.3</ele><time>2026-06-04T20:11:32Z</time></trkpt>
			<trkpt lat="54.988250" lon="21.572910"><ele>-2.3</ele><time>2026-06-04T20:11:38Z</time></trkpt>
			<trkpt lat="54.987500" lon="21.573070"><ele>-2.4</ele><time>2026-06-04T20:11:45Z</time></trkpt>
			<trkpt lat="54.984590" lon="21.573570"><ele>-2.6</ele><time>2026-06-04T20:11:51Z</time></trkpt>
			<trkpt lat="54.984210" lon="21.573710"><ele>-2.6</ele><time>2026-06-04T20:11:58Z</time></trkpt>
			<trkpt lat="54.983760" lon="21.574120"><ele>-2.6</ele><time>2026-06-04T20:12:04Z</time></trkpt>
			<trkpt lat="54.979250" lon="21.578780"><ele>-2.3</ele><time>2026-06-04T20:12:11Z</time></trkpt>
			<trkpt lat="54.976930" lon="21.581190"><ele>-2.1</ele><time>2026-06-04T20:12:17Z</time></trkpt>
			<trkpt lat="54.973600" lon="21.582820"><ele>-2.2</ele><time>2026-06-04T20:12:24Z</time></trkpt>
			<trkpt lat="54.973250" lon="21.583000"><ele>-2.3</ele><time>2026-06-04T20:12:30Z</time></trkpt>
			<trkpt lat="54.972800" lon="21.583240"><ele>-2.3</ele><time>2026-06-04T20:12:37Z</time></trkpt>
			<trkpt lat="54.971200" lon="21.584060"><ele>-2.4</ele><time>2026-06-04T20:12:43Z</time></trkpt>
			<trkpt lat="54.970780" lon="21.584260"><ele>-2.5</ele><time>2026-06-04T20:12:50Z</time></trkpt>
			<trkpt lat="54.969740" lon="21.584790"><ele>-2.6</ele><time>2026-06-04T20:12:56Z</time></trkpt>
			<trkpt lat="54.969740" lon="21.584790"><ele>-2.6</ele><time>2026-06-04T20:13:07Z</time></trkpt>
			<trkpt lat="54.964190" lon="21.587580"><ele>-1.8</ele><time>2026-06-04T20:13:19Z</time></trkpt>
			<trkpt lat="54.963650" lon="21.587880"><ele>-1.6</ele><time>2026-06-04T20:13:30Z</time></trkpt>
			<trkpt lat="54.963370" lon="21.588110"><ele>-1.5</ele><time>2026-06-04T20:13:42Z</time></trkpt>
			<trkpt lat="54.960490" lon="21.590820"><ele>-0.5</ele><time>2026-06-04T20:13:53Z</time></trkpt>
			<trkpt lat="54.957180" lon="21.593810"><ele>2.8</ele><time>2026-06-04T20:14:05Z</time></trkpt>
			<trkpt lat="54.953390" lon="21.597230"><ele>8.5</ele><time>2026-06-04T20:14:16Z</time></trkpt>
			<trkpt lat="54.948040" lon="21.602110"><ele>10.5</ele><time>2026-06-04T20:14:27Z</time></trkpt>
			<trkpt lat="54.942050" lon="21.607580"><ele>7.0</ele><time>2026-06-04T20:14:39Z</time></trkpt>
			<trkpt lat="54.941680" lon="21.607830"><ele>6.7</ele><time>2026-06-04T20:14:50Z</time></trkpt>
			<trkpt lat="54.941310" lon="21.607950"><ele>6.3</ele><time>2026-06-04T20:15:02Z</time></trkpt>
			<trkpt lat="54.937850" lon="21.608240"><ele>3.3</ele><time>2026-06-04T20:15:13Z</time></trkpt>
			<trkpt lat="54.930680" lon="21.608830"><ele>0.1</ele><time>2026-06-04T20:15:24Z</time></trkpt>
			<trkpt lat="54.923530" lon="21.609300"><ele>0.3</ele><time>2026-06-04T20:15:36Z</time></trkpt>
			<trkpt lat="54.922740" lon="21.609370"><ele>0.4</ele><time>2026-06-04T20:15:47Z</time></trkpt>
			<trkpt lat="54.922600" lon="21.609390"><ele>0.4</ele><time>2026-06-04T20:15:59Z</time></trkpt>
			<trkpt lat="54.922390" lon="21.609480"><ele>0.5</ele><time>2026-06-04T20:16:10Z</time></trkpt>
			<trkpt lat="54.922280" lon="21.609540"><ele>0.5</ele><time>2026-06-04T20:16:22Z</time></trkpt>
			<trkpt lat="54.922100" lon="21.609680"><ele>0.5</ele><time>2026-06-04T20:16:33Z</time></trkpt>
			<trkpt lat="54.921100" lon="21.610650"><ele>0.7</ele><time>2026-06-04T20:16:44Z</time></trkpt>
			<trkpt lat="54.920700" lon="21.611070"><ele>0.8</ele><time>2026-06-04T20:16:56Z</time></trkpt>
			<trkpt lat="54.920290" lon="21.611440"><ele>0.8</ele><time>2026-06-04T20:17:07Z</time></trkpt>
			<trkpt lat="54.919790" lon="21.612030"><ele>0.9</ele><time>2026-06-04T20:17:19Z</time></trkpt>
			<trkpt lat="54.919360" lon="21.612550"><ele>1.0</ele><time>2026-06-04T20:17:30Z</time></trkpt>
			<trkpt lat="54.918220" lon="21.614220"><ele>1.3</ele><time>2026-06-04T20:17:41Z</time></trkpt>
			<trkpt lat="54.917650" lon="21.615100"><ele>1.4</ele><time>2026-06-04T20:17:53Z</time></trkpt>
			<trkpt lat="54.917270" lon="21.615590"><ele>1.4</ele><time>2026-06-04T20:18:04Z</time></trkpt>
			<trkpt lat="54.916940" lon="21.615930"><ele>1.4</ele><time>2026-06-04T20:18:16Z</time></trkpt>
			<trkpt lat="54.915980" lon="21.616850"><ele>1.2</ele><time>2026-06-04T20:18:27Z</time></trkpt>
			<trkpt lat="54.915210" lon="21.617670"><ele>1.1</ele><time>2026-06-04T20:18:39Z</time></trkpt>
			<trkpt lat="54.914180" lon="21.618850"><ele>0.9</ele><time>2026-06-04T20:18:50Z</time></trkpt>
			<trkpt lat="54.908400" lon="21.625740"><ele>0.8</ele><time>2026-06-04T20:19:01Z</time></trkpt>
			<trkpt lat="54.905840" lon="21.628970"><ele>1.8</ele><time>2026-06-04T20:19:13Z</time></trkpt>
			<trkpt lat="54.904630" lon="21.630500"><ele>2.2</ele><time>2026-06-04T20:19:24Z</time></trkpt>
			<trkpt lat="54.901690" lon="21.633750"><ele>3.3</ele><time>2026-06-04T20:19:36Z</time></trkpt>
			<trkpt lat="54.900130" lon="21.636020"><ele>4.0</ele><time>2026-06-04T20:19:47Z</time></trkpt>
			<trkpt lat="54.897310" lon="21.640090"><ele>5.2</ele><time>2026-06-04T20:19:58Z</time></trkpt>
			<trkpt lat="54.896260" lon="21.641530"><ele>5.7</ele><time>2026-06-04T20:20:10Z</time></trkpt>
			<trkpt lat="54.893540" lon="21.644450"><ele>6.2</ele><time>2026-06-04T20:20:21Z</time></trkpt>
			<trkpt lat="54.891040" lon="21.647160"><ele>6.4</ele><time>2026-06-04T20:20:33Z</time></trkpt>
			<trkpt lat="54.890090" lon="21.648150"><ele>6.5</ele><time>2026-06-04T20:20:44Z</time></trkpt>
			<trkpt lat="54.889770" lon="21.648470"><ele>6.5</ele><time>2026-06-04T20:20:56Z</time></trkpt>
			<trkpt lat="54.889370" lon="21.648730"><ele>6.6</ele><time>2026-06-04T20:21:07Z</time></trkpt>
			<trkpt lat="54.889250" lon="21.648780"><ele>6.6</ele><time>2026-06-04T20:21:18Z</time></trkpt>
			<trkpt lat="54.888870" lon="21.648790"><ele>6.6</ele><time>2026-06-04T20:21:30Z</time></trkpt>
			<trkpt lat="54.888780" lon="21.648790"><ele>6.6</ele><time>2026-06-04T20:21:41Z</time></trkpt>
			<trkpt lat="54.888200" lon="21.648670"><ele>6.7</ele><time>2026-06-04T20:21:53Z</time></trkpt>
			<trkpt lat="54.887410" lon="21.648590"><ele>6.7</ele><time>2026-06-04T20:22:04Z</time></trkpt>
			<trkpt lat="54.884860" lon="21.648850"><ele>7.8</ele><time>2026-06-04T20:22:15Z</time></trkpt>
			<trkpt lat="54.884770" lon="21.648860"><ele>7.8</ele><time>2026-06-04T20:22:27Z</time></trkpt>
			<trkpt lat="54.884400" lon="21.648900"><ele>8.0</ele><time>2026-06-04T20:22:38Z</time></trkpt>
			<trkpt lat="54.883650" lon="21.648960"><ele>8.3</ele><time>2026-06-04T20:22:50Z</time></trkpt>
			<trkpt lat="54.882700" lon="21.649080"><ele>8.7</ele><time>2026-06-04T20:23:01Z</time></trkpt>
			<trkpt lat="54.881780" lon="21.649170"><ele>9.1</ele><time>2026-06-04T20:23:13Z</time></trkpt>
			<trkpt lat="54.879680" lon="21.649710"><ele>10.0</ele><time>2026-06-04T20:23:24Z</time></trkpt>
			<trkpt lat="54.878190" lon="21.650040"><ele>10.3</ele><time>2026-06-04T20:23:35Z</time></trkpt>
			<trkpt lat="54.877390" lon="21.650220"><ele>9.8</ele><time>2026-06-04T20:23:47Z</time></trkpt>
			<trkpt lat="54.876810" lon="21.650200"><ele>9.4</ele><time>2026-06-04T20:23:58Z</time></trkpt>
			<trkpt lat="54.876710" lon="21.650200"><ele>9.3</ele><time>2026-06-04T20:24:10Z</time></trkpt>
			<trkpt lat="54.876300" lon="21.650180"><ele>9.0</ele><time>2026-06-04T20:24:21Z</time></trkpt>
			<trkpt lat="54.876180" lon="21.650830"><ele>8.8</ele><time>2026-06-04T20:24:32Z</time></trkpt>
			<trkpt lat="54.876170" lon="21.650870"><ele>8.8</ele><time>2026-06-04T20:24:44Z</time></trkpt>
			<trkpt lat="54.876090" lon="21.651460"><ele>8.5</ele><time>2026-06-04T20:24:55Z</time></trkpt>
			<trkpt lat="54.876000" lon="21.652760"><ele>8.0</ele><time>2026-06-04T20:25:07Z</time></trkpt>
			<trkpt lat="54.875930" lon="21.653060"><ele>7.9</ele><time>2026-06-04T20:25:18Z</time></trkpt>
			<trkpt lat="54.875880" lon="21.653090"><ele>7.8</ele><time>2026-06-04T20:25:30Z</time></trkpt>
			<trkpt lat="54.875850" lon="21.653160"><ele>7.8</ele><time>2026-06-04T20:25:41Z</time></trkpt>
			<trkpt lat="54.875840" lon="21.653250"><ele>7.8</ele><time>2026-06-04T20:25:52Z</time></trkpt>
			<trkpt lat="54.875860" lon="21.653310"><ele>7.7</ele><time>2026-06-04T20:26:04Z</time></trkpt>
			<trkpt lat="54.875900" lon="21.653360"><ele>7.7</ele><time>2026-06-04T20:26:15Z</time></trkpt>
			<trkpt lat="54.875940" lon="21.653360"><ele>7.7</ele><time>2026-06-04T20:26:27Z</time></trkpt>
			<trkpt lat="54.875980" lon="21.653320"><ele>7.6</ele><time>2026-06-04T20:26:38Z</time></trkpt>
			<trkpt lat="54.876060" lon="21.653450"><ele>7.6</ele><time>2026-06-04T20:26:49Z</time></trkpt>
			<trkpt lat="54.876170" lon="21.653590"><ele>7.5</ele><time>2026-06-04T20:27:01Z</time></trkpt>
			<trkpt lat="54.876420" lon="21.653940"><ele>7.3</ele><time>2026-06-04T20:27:12Z</time></trkpt>
			<trkpt lat="54.876420" lon="21.653940"><ele>7.3</ele><time>2026-06-04T20:27:23Z</time></trkpt>
			<trkpt lat="54.876630" lon="21.654290"><ele>7.1</ele><time>2026-06-04T20:27:34Z</time></trkpt>
			<trkpt lat="54.876710" lon="21.654830"><ele>6.8</ele><time>2026-06-04T20:27:44Z</time></trkpt>
			<trkpt lat="54.876740" lon="21.654930"><ele>6.8</ele><time>2026-06-04T20:27:55Z</time></trkpt>
			<trkpt lat="54.876930" lon="21.655530"><ele>6.5</ele><time>2026-06-04T20:28:06Z</time></trkpt>
			<trkpt lat="54.878400" lon="21.659480"><ele>4.7</ele><time>2026-06-04T20:28:17Z</time></trkpt>
			<trkpt lat="54.879620" lon="21.662800"><ele>5.9</ele><time>2026-06-04T20:28:27Z</time></trkpt>
			<trkpt lat="54.879830" lon="21.663470"><ele>6.3</ele><time>2026-06-04T20:28:38Z</time></trkpt>
			<trkpt lat="54.879990" lon="21.663960"><ele>6.5</ele><time>2026-06-04T20:28:49Z</time></trkpt>
			<trkpt lat="54.880540" lon="21.666200"><ele>7.7</ele><time>2026-06-04T20:28:59Z</time></trkpt>
			<trkpt lat="54.880660" lon="21.666770"><ele>8.0</ele><time>2026-06-04T20:29:10Z</time></trkpt>
			<trkpt lat="54.880870" lon="21.668250"><ele>8.7</ele><time>2026-06-04T20:29:21Z</time></trkpt>
			<trkpt lat="54.881130" lon="21.669810"><ele>9.5</ele><time>2026-06-04T20:29:32Z</time></trkpt>
			<trkpt lat="54.882090" lon="21.677480"><ele>12.8</ele><time>2026-06-04T20:29:42Z</time></trkpt>
			<trkpt lat="54.882370" lon="21.680460"><ele>13.8</ele><time>2026-06-04T20:29:53Z</time></trkpt>
			<trkpt lat="54.882970" lon="21.687170"><ele>16.0</ele><time>2026-06-04T20:30:04Z</time></trkpt>
			<trkpt lat="54.882980" lon="21.687270"><ele>16.0</ele><time>2026-06-04T20:30:15Z</time></trkpt>
			<trkpt lat="54.883250" lon="21.689800"><ele>16.9</ele><time>2026-06-04T20:30:25Z</time></trkpt>
			<trkpt lat="54.883430" lon="21.691100"><ele>16.6</ele><time>2026-06-04T20:30:36Z</time></trkpt>
			<trkpt lat="54.883640" lon="21.692160"><ele>16.1</ele><time>2026-06-04T20:30:47Z</time></trkpt>
			<trkpt lat="54.883660" lon="21.692290"><ele>16.1</ele><time>2026-06-04T20:30:57Z</time></trkpt>
			<trkpt lat="54.884010" lon="21.693680"><ele>15.5</ele><time>2026-06-04T20:31:08Z</time></trkpt>
			<trkpt lat="54.884070" lon="21.694670"><ele>15.2</ele><time>2026-06-04T20:31:19Z</time></trkpt>
			<trkpt lat="54.883900" lon="21.695930"><ele>14.7</ele><time>2026-06-04T20:31:30Z</time></trkpt>
			<trkpt lat="54.883760" lon="21.697600"><ele>14.1</ele><time>2026-06-04T20:31:40Z</time></trkpt>
			<trkpt lat="54.883420" lon="21.699220"><ele>13.4</ele><time>2026-06-04T20:31:51Z</time></trkpt>
			<trkpt lat="54.883370" lon="21.699430"><ele>13.3</ele><time>2026-06-04T20:32:02Z</time></trkpt>
			<trkpt lat="54.883310" lon="21.700260"><ele>13.0</ele><time>2026-06-04T20:32:13Z</time></trkpt>
			<trkpt lat="54.883210" lon="21.702340"><ele>12.3</ele><time>2026-06-04T20:32:23Z</time></trkpt>
			<trkpt lat="54.883220" lon="21.702750"><ele>12.1</ele><time>2026-06-04T20:32:34Z</time></trkpt>
			<trkpt lat="54.883250" lon="21.703350"><ele>11.9</ele><time>2026-06-04T20:32:45Z</time></trkpt>
			<trkpt lat="54.883330" lon="21.703890"><ele>11.7</ele><time>2026-06-04T20:32:55Z</time></trkpt>
			<trkpt lat="54.883410" lon="21.704280"><ele>11.5</ele><time>2026-06-04T20:33:06Z</time></trkpt>
			<trkpt lat="54.883630" lon="21.705190"><ele>11.2</ele><time>2026-06-04T20:33:17Z</time></trkpt>
			<trkpt lat="54.883760" lon="21.705860"><ele>11.4</ele><time>2026-06-04T20:33:28Z</time></trkpt>
			<trkpt lat="54.883870" lon="21.706560"><ele>11.6</ele><time>2026-06-04T20:33:38Z</time></trkpt>
			<trkpt lat="54.883940" lon="21.707240"><ele>11.9</ele><time>2026-06-04T20:33:49Z</time></trkpt>
			<trkpt lat="54.883970" lon="21.707860"><ele>12.0</ele><time>2026-06-04T20:34:00Z</time></trkpt>
			<trkpt lat="54.883960" lon="21.708520"><ele>12.3</ele><time>2026-06-04T20:34:10Z</time></trkpt>
			<trkpt lat="54.883880" lon="21.710250"><ele>12.8</ele><time>2026-06-04T20:34:21Z</time></trkpt>
			<trkpt lat="54.883640" lon="21.717180"><ele>14.9</ele><time>2026-06-04T20:34:32Z</time></trkpt>
			<trkpt lat="54.883630" lon="21.718040"><ele>15.2</ele><time>2026-06-04T20:34:43Z</time></trkpt>
			<trkpt lat="54.883720" lon="21.720930"><ele>16.0</ele><time>2026-06-04T20:34:53Z</time></trkpt>
			<trkpt lat="54.884010" lon="21.728470"><ele>16.7</ele><time>2026-06-04T20:35:04Z</time></trkpt>
			<trkpt lat="54.884060" lon="21.729450"><ele>16.8</ele><time>2026-06-04T20:35:15Z</time></trkpt>
			<trkpt lat="54.884170" lon="21.732850"><ele>17.0</ele><time>2026-06-04T20:35:26Z</time></trkpt>
			<trkpt lat="54.884160" lon="21.733660"><ele>17.1</ele><time>2026-06-04T20:35:36Z</time></trkpt>
			<trkpt lat="54.884110" lon="21.734610"><ele>17.2</ele><time>2026-06-04T20:35:47Z</time></trkpt>
			<trkpt lat="54.884030" lon="21.735500"><ele>17.3</ele><time>2026-06-04T20:35:58Z</time></trkpt>
			<trkpt lat="54.883860" lon="21.737340"><ele>17.2</ele><time>2026-06-04T20:36:08Z</time></trkpt>
			<trkpt lat="54.883640" lon="21.740190"><ele>17.0</ele><time>2026-06-04T20:36:19Z</time></trkpt>
			<trkpt lat="54.883610" lon="21.740670"><ele>16.9</ele><time>2026-06-04T20:36:30Z</time></trkpt>
			<trkpt lat="54.883760" lon="21.742020"><ele>16.8</ele><time>2026-06-04T20:36:41Z</time></trkpt>
			<trkpt lat="54.884050" lon="21.743730"><ele>16.6</ele><time>2026-06-04T20:36:51Z</time></trkpt>
			<trkpt lat="54.884140" lon="21.744340"><ele>16.6</ele><time>2026-06-04T20:37:02Z</time></trkpt>
			<trkpt lat="54.884120" lon="21.744510"><ele>16.6</ele><time>2026-06-04T20:37:13Z</time></trkpt>
			<trkpt lat="54.883220" lon="21.746660"><ele>16.3</ele><time>2026-06-04T20:37:23Z</time></trkpt>
			<trkpt lat="54.882730" lon="21.747920"><ele>16.2</ele><time>2026-06-04T20:37:34Z</time></trkpt>
			<trkpt lat="54.882300" lon="21.749430"><ele>16.0</ele><time>2026-06-04T20:37:45Z</time></trkpt>
			<trkpt lat="54.881590" lon="21.752740"><ele>16.7</ele><time>2026-06-04T20:37:56Z</time></trkpt>
			<trkpt lat="54.881330" lon="21.753920"><ele>17.2</ele><time>2026-06-04T20:38:06Z</time></trkpt>
			<trkpt lat="54.881200" lon="21.754570"><ele>17.5</ele><time>2026-06-04T20:38:17Z</time></trkpt>
			<trkpt lat="54.881100" lon="21.755320"><ele>17.8</ele><time>2026-06-04T20:38:28Z</time></trkpt>
			<trkpt lat="54.880600" lon="21.760540"><ele>19.8</ele><time>2026-06-04T20:38:39Z</time></trkpt>
			<trkpt lat="54.880060" lon="21.765760"><ele>21.9</ele><time>2026-06-04T20:38:49Z</time></trkpt>
			<trkpt lat="54.879940" lon="21.767400"><ele>22.2</ele><time>2026-06-04T20:39:00Z</time></trkpt>
			<trkpt lat="54.879960" lon="21.773480"><ele>23.3</ele><time>2026-06-04T20:39:11Z</time></trkpt>
			<trkpt lat="54.879990" lon="21.775800"><ele>23.7</ele><time>2026-06-04T20:39:21Z</time></trkpt>
			<trkpt lat="54.880120" lon="21.777660"><ele>24.1</ele><time>2026-06-04T20:39:32Z</time></trkpt>
			<trkpt lat="54.880620" lon="21.780210"><ele>24.6</ele><time>2026-06-04T20:39:43Z</time></trkpt>
			<trkpt lat="54.880650" lon="21.780620"><ele>24.6</ele><time>2026-06-04T20:39:54Z</time></trkpt>
			<trkpt lat="54.880660" lon="21.780960"><ele>24.7</ele><time>2026-06-04T20:40:04Z</time></trkpt>
			<trkpt lat="54.880570" lon="21.781340"><ele>24.8</ele><time>2026-06-04T20:40:15Z</time></trkpt>
			<trkpt lat="54.879040" lon="21.784730"><ele>23.4</ele><time>2026-06-04T20:40:26Z</time></trkpt>
			<trkpt lat="54.878520" lon="21.786050"><ele>22.8</ele><time>2026-06-04T20:40:36Z</time></trkpt>
			<trkpt lat="54.876900" lon="21.789790"><ele>21.3</ele><time>2026-06-04T20:40:47Z</time></trkpt>
			<trkpt lat="54.876480" lon="21.790570"><ele>21.0</ele><time>2026-06-04T20:40:58Z</time></trkpt>
			<trkpt lat="54.876320" lon="21.790850"><ele>20.8</ele><time>2026-06-04T20:41:09Z</time></trkpt>
			<trkpt lat="54.876190" lon="21.791150"><ele>20.7</ele><time>2026-06-04T20:41:19Z</time></trkpt>
			<trkpt lat="54.875690" lon="21.793510"><ele>19.9</ele><time>2026-06-04T20:41:30Z</time></trkpt>
			<trkpt lat="54.873450" lon="21.803460"><ele>26.3</ele><time>2026-06-04T20:41:41Z</time></trkpt>
			<trkpt lat="54.872690" lon="21.807030"><ele>28.9</ele><time>2026-06-04T20:41:52Z</time></trkpt>
			<trkpt lat="54.872350" lon="21.807800"><ele>29.5</ele><time>2026-06-04T20:42:02Z</time></trkpt>
			<trkpt lat="54.868120" lon="21.815440"><ele>33.5</ele><time>2026-06-04T20:42:13Z</time></trkpt>
			<trkpt lat="54.865540" lon="21.820060"><ele>35.7</ele><time>2026-06-04T20:42:24Z</time></trkpt>
			<trkpt lat="54.864460" lon="21.821960"><ele>36.2</ele><time>2026-06-04T20:42:34Z</time></trkpt>
			<trkpt lat="54.864330" lon="21.822260"><ele>36.3</ele><time>2026-06-04T20:42:45Z</time></trkpt>
			<trkpt lat="54.864330" lon="21.822530"><ele>36.3</ele><time>2026-06-04T20:42:56Z</time></trkpt>
			<trkpt lat="54.864500" lon="21.823660"><ele>36.5</ele><time>2026-06-04T20:43:07Z</time></trkpt>
			<trkpt lat="54.864610" lon="21.824070"><ele>36.6</ele><time>2026-06-04T20:43:17Z</time></trkpt>
			<trkpt lat="54.864810" lon="21.824470"><ele>36.7</ele><time>2026-06-04T20:43:28Z</time></trkpt>
			<trkpt lat="54.869570" lon="21.832160"><ele>37.9</ele><time>2026-06-04T20:43:39Z</time></trkpt>
			<trkpt lat="54.869760" lon="21.832530"><ele>37.7</ele><time>2026-06-04T20:43:49Z</time></trkpt>
			<trkpt lat="54.869910" lon="21.832950"><ele>37.5</ele><time>2026-06-04T20:44:00Z</time></trkpt>
			<trkpt lat="54.870020" lon="21.833330"><ele>37.3</ele><time>2026-06-04T20:44:11Z</time></trkpt>
			<trkpt lat="54.870270" lon="21.834470"><ele>36.8</ele><time>2026-06-04T20:44:22Z</time></trkpt>
			<trkpt lat="54.870530" lon="21.836480"><ele>35.9</ele><time>2026-06-04T20:44:32Z</time></trkpt>
			<trkpt lat="54.870610" lon="21.836860"><ele>35.7</ele><time>2026-06-04T20:44:43Z</time></trkpt>
			<trkpt lat="54.870860" lon="21.837470"><ele>35.4</ele><time>2026-06-04T20:44:54Z</time></trkpt>
			<trkpt lat="54.871900" lon="21.839320"><ele>34.3</ele><time>2026-06-04T20:45:05Z</time></trkpt>
			<trkpt lat="54.872300" lon="21.840140"><ele>33.9</ele><time>2026-06-04T20:45:15Z</time></trkpt>
			<trkpt lat="54.872610" lon="21.841250"><ele>33.4</ele><time>2026-06-04T20:45:26Z</time></trkpt>
			<trkpt lat="54.873000" lon="21.842750"><ele>32.7</ele><time>2026-06-04T20:45:37Z</time></trkpt>
			<trkpt lat="54.873270" lon="21.843860"><ele>32.2</ele><time>2026-06-04T20:45:47Z</time></trkpt>
			<trkpt lat="54.873850" lon="21.845540"><ele>32.7</ele><time>2026-06-04T20:45:58Z</time></trkpt>
			<trkpt lat="54.876990" lon="21.854560"><ele>37.7</ele><time>2026-06-04T20:46:09Z</time></trkpt>
			<trkpt lat="54.880340" lon="21.864630"><ele>38.9</ele><time>2026-06-04T20:46:20Z</time></trkpt>
			<trkpt lat="54.883650" lon="21.874770"><ele>38.0</ele><time>2026-06-04T20:46:30Z</time></trkpt>
			<trkpt lat="54.884500" lon="21.877270"><ele>37.7</ele><time>2026-06-04T20:46:41Z</time></trkpt>
			<trkpt lat="54.885100" lon="21.879230"><ele>37.5</ele><time>2026-06-04T20:46:52Z</time></trkpt>
			<trkpt lat="54.885430" lon="21.880160"><ele>37.4</ele><time>2026-06-04T20:47:02Z</time></trkpt>
			<trkpt lat="54.885710" lon="21.880840"><ele>37.3</ele><time>2026-06-04T20:47:13Z</time></trkpt>
			<trkpt lat="54.886070" lon="21.881660"><ele>37.2</ele><time>2026-06-04T20:47:24Z</time></trkpt>
			<trkpt lat="54.886990" lon="21.883620"><ele>36.9</ele><time>2026-06-04T20:47:35Z</time></trkpt>
			<trkpt lat="54.887600" lon="21.884830"><ele>36.3</ele><time>2026-06-04T20:47:45Z</time></trkpt>
			<trkpt lat="54.888270" lon="21.886000"><ele>34.9</ele><time>2026-06-04T20:47:56Z</time></trkpt>
			<trkpt lat="54.890220" lon="21.889370"><ele>31.0</ele><time>2026-06-04T20:48:07Z</time></trkpt>
			<trkpt lat="54.893450" lon="21.894960"><ele>24.5</ele><time>2026-06-04T20:48:18Z</time></trkpt>
			<trkpt lat="54.893980" lon="21.895920"><ele>24.1</ele><time>2026-06-04T20:48:28Z</time></trkpt>
			<trkpt lat="54.894910" lon="21.897510"><ele>24.2</ele><time>2026-06-04T20:48:39Z</time></trkpt>
			<trkpt lat="54.896830" lon="21.900870"><ele>24.6</ele><time>2026-06-04T20:48:50Z</time></trkpt>
			<trkpt lat="54.898970" lon="21.905110"><ele>25.0</ele><time>2026-06-04T20:49:00Z</time></trkpt>
			<trkpt lat="54.901030" lon="21.909270"><ele>25.0</ele><time>2026-06-04T20:49:11Z</time></trkpt>
			<trkpt lat="54.902200" lon="21.911580"><ele>24.8</ele><time>2026-06-04T20:49:22Z</time></trkpt>
			<trkpt lat="54.902650" lon="21.912490"><ele>24.7</ele><time>2026-06-04T20:49:33Z</time></trkpt>
			<trkpt lat="54.902830" lon="21.912860"><ele>24.7</ele><time>2026-06-04T20:49:43Z</time></trkpt>
			<trkpt lat="54.903060" lon="21.913340"><ele>24.6</ele><time>2026-06-04T20:49:54Z</time></trkpt>
			<trkpt lat="54.903390" lon="21.913980"><ele>24.6</ele><time>2026-06-04T20:50:05Z</time></trkpt>
			<trkpt lat="54.903910" lon="21.914990"><ele>24.5</ele><time>2026-06-04T20:50:15Z</time></trkpt>
			<trkpt lat="54.904650" lon="21.916490"><ele>24.4</ele><time>2026-06-04T20:50:26Z</time></trkpt>
			<trkpt lat="54.904880" lon="21.917010"><ele>24.3</ele><time>2026-06-04T20:50:37Z</time></trkpt>
			<trkpt lat="54.905000" lon="21.917430"><ele>24.3</ele><time>2026-06-04T20:50:48Z</time></trkpt>
			<trkpt lat="54.905100" lon="21.917910"><ele>24.3</ele><time>2026-06-04T20:50:58Z</time></trkpt>
			<trkpt lat="54.905130" lon="21.918380"><ele>24.2</ele><time>2026-06-04T20:51:09Z</time></trkpt>
			<trkpt lat="54.905170" lon="21.918970"><ele>24.2</ele><time>2026-06-04T20:51:20Z</time></trkpt>
			<trkpt lat="54.905180" lon="21.919720"><ele>24.4</ele><time>2026-06-04T20:51:31Z</time></trkpt>
			<trkpt lat="54.905160" lon="21.919910"><ele>24.5</ele><time>2026-06-04T20:51:41Z</time></trkpt>
			<trkpt lat="54.904900" lon="21.920550"><ele>24.7</ele><time>2026-06-04T20:51:52Z</time></trkpt>
			<trkpt lat="54.904720" lon="21.921030"><ele>25.0</ele><time>2026-06-04T20:52:03Z</time></trkpt>
			<trkpt lat="54.904450" lon="21.921740"><ele>25.3</ele><time>2026-06-04T20:52:13Z</time></trkpt>
			<trkpt lat="54.904200" lon="21.922460"><ele>25.6</ele><time>2026-06-04T20:52:24Z</time></trkpt>
			<trkpt lat="54.904120" lon="21.922720"><ele>25.7</ele><time>2026-06-04T20:52:35Z</time></trkpt>
			<trkpt lat="54.903920" lon="21.923510"><ele>26.0</ele><time>2026-06-04T20:52:46Z</time></trkpt>
			<trkpt lat="54.903890" lon="21.923700"><ele>26.1</ele><time>2026-06-04T20:52:56Z</time></trkpt>
			<trkpt lat="54.903590" lon="21.924910"><ele>26.6</ele><time>2026-06-04T20:53:07Z</time></trkpt>
			<trkpt lat="54.903230" lon="21.926640"><ele>27.2</ele><time>2026-06-04T20:53:18Z</time></trkpt>
			<trkpt lat="54.903130" lon="21.926900"><ele>27.4</ele><time>2026-06-04T20:53:28Z</time></trkpt>
			<trkpt lat="54.902990" lon="21.927210"><ele>27.5</ele><time>2026-06-04T20:53:39Z</time></trkpt>
			<trkpt lat="54.902940" lon="21.927300"><ele>27.5</ele><time>2026-06-04T20:53:50Z</time></trkpt>
			<trkpt lat="54.902870" lon="21.927360"><ele>27.6</ele><time>2026-06-04T20:54:01Z</time></trkpt>
			<trkpt lat="54.902880" lon="21.927650"><ele>27.7</ele><time>2026-06-04T20:54:11Z</time></trkpt>
			<trkpt lat="54.903010" lon="21.928110"><ele>27.9</ele><time>2026-06-04T20:54:22Z</time></trkpt>
			<trkpt lat="54.903220" lon="21.928600"><ele>28.1</ele><time>2026-06-04T20:54:33Z</time></trkpt>
			<trkpt lat="54.903840" lon="21.929360"><ele>28.6</ele><time>2026-06-04T20:54:44Z</time></trkpt>
			<trkpt lat="54.904050" lon="21.929760"><ele>28.8</ele><time>2026-06-04T20:54:54Z</time></trkpt>
			<trkpt lat="54.904410" lon="21.931040"><ele>29.3</ele><time>2026-06-04T20:55:05Z</time></trkpt>
			<trkpt lat="54.904520" lon="21.931560"><ele>29.5</ele><time>2026-06-04T20:55:16Z</time></trkpt>
			<trkpt lat="54.904880" lon="21.933450"><ele>29.9</ele><time>2026-06-04T20:55:26Z</time></trkpt>
			<trkpt lat="54.904900" lon="21.933540"><ele>29.8</ele><time>2026-06-04T20:55:37Z</time></trkpt>
			<trkpt lat="54.905680" lon="21.937800"><ele>29.5</ele><time>2026-06-04T20:55:48Z</time></trkpt>
			<trkpt lat="54.907760" lon="21.949140"><ele>28.4</ele><time>2026-06-04T20:55:59Z</time></trkpt>
			<trkpt lat="54.908470" lon="21.952980"><ele>27.6</ele><time>2026-06-04T20:56:09Z</time></trkpt>
			<trkpt lat="54.909370" lon="21.957970"><ele>26.5</ele><time>2026-06-04T20:56:20Z</time></trkpt>
			<trkpt lat="54.909430" lon="21.958720"><ele>26.3</ele><time>2026-06-04T20:56:31Z</time></trkpt>
			<trkpt lat="54.909840" lon="21.969160"><ele>25.7</ele><time>2026-06-04T20:56:41Z</time></trkpt>
			<trkpt lat="54.909990" lon="21.972760"><ele>25.8</ele><time>2026-06-04T20:56:52Z</time></trkpt>
			<trkpt lat="54.910050" lon="21.974050"><ele>25.9</ele><time>2026-06-04T20:57:03Z</time></trkpt>
			<trkpt lat="54.910130" lon="21.975080"><ele>25.9</ele><time>2026-06-04T20:57:14Z</time></trkpt>
			<trkpt lat="54.911340" lon="21.984070"><ele>25.2</ele><time>2026-06-04T20:57:24Z</time></trkpt>
			<trkpt lat="54.911380" lon="21.984470"><ele>25.2</ele><time>2026-06-04T20:57:35Z</time></trkpt>
			<trkpt lat="54.911580" lon="21.985990"><ele>25.0</ele><time>2026-06-04T20:57:46Z</time></trkpt>
			<trkpt lat="54.911690" lon="21.987110"><ele>24.8</ele><time>2026-06-04T20:57:57Z</time></trkpt>
			<trkpt lat="54.911720" lon="21.988260"><ele>24.7</ele><time>2026-06-04T20:58:07Z</time></trkpt>
			<trkpt lat="54.911660" lon="21.991780"><ele>24.2</ele><time>2026-06-04T20:58:18Z</time></trkpt>
			<trkpt lat="54.911160" lon="22.020250"><ele>23.5</ele><time>2026-06-04T20:58:29Z</time></trkpt>
			<trkpt lat="54.912890" lon="22.034330"><ele>24.5</ele><time>2026-06-04T20:58:39Z</time></trkpt>
			<trkpt lat="54.913130" lon="22.036070"><ele>24.8</ele><time>2026-06-04T20:58:50Z</time></trkpt>
			<trkpt lat="54.913310" lon="22.037040"><ele>24.9</ele><time>2026-06-04T20:59:01Z</time></trkpt>
			<trkpt lat="54.915180" lon="22.048200"><ele>39.0</ele><time>2026-06-04T20:59:12Z</time></trkpt>
			<trkpt lat="54.916010" lon="22.053080"><ele>47.2</ele><time>2026-06-04T20:59:22Z</time></trkpt>
			<trkpt lat="54.916870" lon="22.058140"><ele>52.6</ele><time>2026-06-04T20:59:33Z</time></trkpt>
			<trkpt lat="54.917330" lon="22.061040"><ele>54.5</ele><time>2026-06-04T20:59:44Z</time></trkpt>
			<trkpt lat="54.917480" lon="22.062040"><ele>55.2</ele><time>2026-06-04T20:59:55Z</time></trkpt>
			<trkpt lat="54.918740" lon="22.070570"><ele>60.7</ele><time>2026-06-04T21:00:05Z</time></trkpt>
			<trkpt lat="54.918790" lon="22.070900"><ele>60.7</ele><time>2026-06-04T21:00:16Z</time></trkpt>
			<trkpt lat="54.919490" lon="22.075660"><ele>60.6</ele><time>2026-06-04T21:00:27Z</time></trkpt>
			<trkpt lat="54.919700" lon="22.077150"><ele>60.5</ele><time>2026-06-04T21:00:37Z</time></trkpt>
			<trkpt lat="54.919770" lon="22.077460"><ele>60.5</ele><time>2026-06-04T21:00:48Z</time></trkpt>
			<trkpt lat="54.919870" lon="22.077820"><ele>60.5</ele><time>2026-06-04T21:00:59Z</time></trkpt>
			<trkpt lat="54.920000" lon="22.078210"><ele>60.5</ele><time>2026-06-04T21:01:10Z</time></trkpt>
			<trkpt lat="54.920320" lon="22.079540"><ele>60.4</ele><time>2026-06-04T21:01:20Z</time></trkpt>
			<trkpt lat="54.920410" lon="22.080040"><ele>60.4</ele><time>2026-06-04T21:01:31Z</time></trkpt>
			<trkpt lat="54.920500" lon="22.080630"><ele>60.4</ele><time>2026-06-04T21:01:42Z</time></trkpt>
			<trkpt lat="54.920700" lon="22.082260"><ele>60.3</ele><time>2026-06-04T21:01:52Z</time></trkpt>
			<trkpt lat="54.920800" lon="22.083100"><ele>60.3</ele><time>2026-06-04T21:02:03Z</time></trkpt>
			<trkpt lat="54.921090" lon="22.085540"><ele>60.1</ele><time>2026-06-04T21:02:14Z</time></trkpt>
			<trkpt lat="54.921190" lon="22.086650"><ele>59.6</ele><time>2026-06-04T21:02:25Z</time></trkpt>
			<trkpt lat="54.921380" lon="22.089240"><ele>58.5</ele><time>2026-06-04T21:02:35Z</time></trkpt>
			<trkpt lat="54.921660" lon="22.092730"><ele>57.0</ele><time>2026-06-04T21:02:46Z</time></trkpt>
			<trkpt lat="54.921800" lon="22.094430"><ele>56.3</ele><time>2026-06-04T21:02:57Z</time></trkpt>
			<trkpt lat="54.921910" lon="22.096570"><ele>55.4</ele><time>2026-06-04T21:03:08Z</time></trkpt>
			<trkpt lat="54.921910" lon="22.097460"><ele>55.0</ele><time>2026-06-04T21:03:18Z</time></trkpt>
			<trkpt lat="54.921890" lon="22.098260"><ele>54.7</ele><time>2026-06-04T21:03:29Z</time></trkpt>
			<trkpt lat="54.921840" lon="22.098960"><ele>54.4</ele><time>2026-06-04T21:03:40Z</time></trkpt>
			<trkpt lat="54.921770" lon="22.099650"><ele>54.1</ele><time>2026-06-04T21:03:50Z</time></trkpt>
			<trkpt lat="54.921690" lon="22.100210"><ele>53.9</ele><time>2026-06-04T21:04:01Z</time></trkpt>
			<trkpt lat="54.921550" lon="22.100970"><ele>53.1</ele><time>2026-06-04T21:04:12Z</time></trkpt>
			<trkpt lat="54.921350" lon="22.101720"><ele>51.5</ele><time>2026-06-04T21:04:23Z</time></trkpt>
			<trkpt lat="54.921160" lon="22.102350"><ele>50.1</ele><time>2026-06-04T21:04:33Z</time></trkpt>
			<trkpt lat="54.920900" lon="22.103090"><ele>48.4</ele><time>2026-06-04T21:04:44Z</time></trkpt>
			<trkpt lat="54.920520" lon="22.103970"><ele>46.2</ele><time>2026-06-04T21:04:55Z</time></trkpt>
			<trkpt lat="54.919350" lon="22.106880"><ele>39.3</ele><time>2026-06-04T21:05:05Z</time></trkpt>
			<trkpt lat="54.918760" lon="22.108390"><ele>35.8</ele><time>2026-06-04T21:05:16Z</time></trkpt>
			<trkpt lat="54.918550" lon="22.109090"><ele>34.2</ele><time>2026-06-04T21:05:27Z</time></trkpt>
			<trkpt lat="54.918380" lon="22.109870"><ele>32.6</ele><time>2026-06-04T21:05:38Z</time></trkpt>
			<trkpt lat="54.918260" lon="22.110640"><ele>31.1</ele><time>2026-06-04T21:05:48Z</time></trkpt>
			<trkpt lat="54.918220" lon="22.111560"><ele>29.3</ele><time>2026-06-04T21:05:59Z</time></trkpt>
			<trkpt lat="54.918170" lon="22.116020"><ele>22.5</ele><time>2026-06-04T21:06:10Z</time></trkpt>
			<trkpt lat="54.918140" lon="22.118270"><ele>21.4</ele><time>2026-06-04T21:06:21Z</time></trkpt>
			<trkpt lat="54.918100" lon="22.121780"><ele>19.6</ele><time>2026-06-04T21:06:31Z</time></trkpt>
			<trkpt lat="54.918020" lon="22.131000"><ele>15.8</ele><time>2026-06-04T21:06:42Z</time></trkpt>
			<trkpt lat="54.918020" lon="22.131240"><ele>16.0</ele><time>2026-06-04T21:06:53Z</time></trkpt>
			<trkpt lat="54.917980" lon="22.132990"><ele>17.4</ele><time>2026-06-04T21:07:03Z</time></trkpt>
			<trkpt lat="54.917970" lon="22.133180"><ele>17.5</ele><time>2026-06-04T21:07:14Z</time></trkpt>
			<trkpt lat="54.917970" lon="22.133370"><ele>17.7</ele><time>2026-06-04T21:07:25Z</time></trkpt>
			<trkpt lat="54.917930" lon="22.133910"><ele>18.1</ele><time>2026-06-04T21:07:36Z</time></trkpt>
			<trkpt lat="54.917880" lon="22.134560"><ele>18.7</ele><time>2026-06-04T21:07:46Z</time></trkpt>
			<trkpt lat="54.917850" lon="22.136390"><ele>20.1</ele><time>2026-06-04T21:07:57Z</time></trkpt>
			<trkpt lat="54.917810" lon="22.140080"><ele>23.1</ele><time>2026-06-04T21:08:08Z</time></trkpt>
			<trkpt lat="54.917760" lon="22.140950"><ele>23.8</ele><time>2026-06-04T21:08:18Z</time></trkpt>
			<trkpt lat="54.917680" lon="22.141750"><ele>24.5</ele><time>2026-06-04T21:08:29Z</time></trkpt>
			<trkpt lat="54.917540" lon="22.142600"><ele>25.2</ele><time>2026-06-04T21:08:40Z</time></trkpt>
			<trkpt lat="54.917020" lon="22.144660"><ele>27.0</ele><time>2026-06-04T21:08:51Z</time></trkpt>
			<trkpt lat="54.915620" lon="22.149780"><ele>28.4</ele><time>2026-06-04T21:09:01Z</time></trkpt>
			<trkpt lat="54.913880" lon="22.156050"><ele>29.1</ele><time>2026-06-04T21:09:12Z</time></trkpt>
			<trkpt lat="54.913880" lon="22.156050"><ele>29.1</ele><time>2026-06-04T21:09:30Z</time></trkpt>
			<trkpt lat="54.907910" lon="22.177780"><ele>27.1</ele><time>2026-06-04T21:09:48Z</time></trkpt>
			<trkpt lat="54.907110" lon="22.180750"><ele>27.9</ele><time>2026-06-04T21:10:05Z</time></trkpt>
			<trkpt lat="54.902770" lon="22.196440"><ele>26.7</ele><time>2026-06-04T21:10:23Z</time></trkpt>
			<trkpt lat="54.901600" lon="22.200750"><ele>25.0</ele><time>2026-06-04T21:10:41Z</time></trkpt>
			<trkpt lat="54.897930" lon="22.214230"><ele>21.8</ele><time>2026-06-04T21:10:59Z</time></trkpt>
			<trkpt lat="54.896940" lon="22.217660"><ele>21.3</ele><time>2026-06-04T21:11:17Z</time></trkpt>
			<trkpt lat="54.896700" lon="22.218360"><ele>21.3</ele><time>2026-06-04T21:11:34Z</time></trkpt>
			<trkpt lat="54.896450" lon="22.218990"><ele>21.3</ele><time>2026-06-04T21:11:52Z</time></trkpt>
			<trkpt lat="54.896150" lon="22.219640"><ele>21.3</ele><time>2026-06-04T21:12:10Z</time></trkpt>
			<trkpt lat="54.894550" lon="22.222750"><ele>21.3</ele><time>2026-06-04T21:12:28Z</time></trkpt>
			<trkpt lat="54.894320" lon="22.223170"><ele>21.3</ele><time>2026-06-04T21:12:46Z</time></trkpt>
			<trkpt lat="54.893360" lon="22.225010"><ele>21.2</ele><time>2026-06-04T21:13:03Z</time></trkpt>
			<trkpt lat="54.893030" lon="22.225770"><ele>21.2</ele><time>2026-06-04T21:13:21Z</time></trkpt>
			<trkpt lat="54.892810" lon="22.226360"><ele>21.2</ele><time>2026-06-04T21:13:39Z</time></trkpt>
			<trkpt lat="54.892610" lon="22.227070"><ele>21.2</ele><time>2026-06-04T21:13:57Z</time></trkpt>
			<trkpt lat="54.892400" lon="22.228010"><ele>21.2</ele><time>2026-06-04T21:14:15Z</time></trkpt>
			<trkpt lat="54.891560" lon="22.232460"><ele>21.5</ele><time>2026-06-04T21:14:32Z</time></trkpt>
			<trkpt lat="54.891540" lon="22.232570"><ele>21.5</ele><time>2026-06-04T21:14:50Z</time></trkpt>
			<trkpt lat="54.890750" lon="22.236640"><ele>21.9</ele><time>2026-06-04T21:15:08Z</time></trkpt>
			<trkpt lat="54.890140" lon="22.240120"><ele>22.2</ele><time>2026-06-04T21:15:26Z</time></trkpt>
			<trkpt lat="54.890010" lon="22.240820"><ele>22.2</ele><time>2026-06-04T21:15:43Z</time></trkpt>
			<trkpt lat="54.889180" lon="22.245170"><ele>23.1</ele><time>2026-06-04T21:16:01Z</time></trkpt>
			<trkpt lat="54.888940" lon="22.246330"><ele>23.7</ele><time>2026-06-04T21:16:19Z</time></trkpt>
			<trkpt lat="54.888850" lon="22.246610"><ele>23.8</ele><time>2026-06-04T21:16:37Z</time></trkpt>
			<trkpt lat="54.888720" lon="22.246950"><ele>24.0</ele><time>2026-06-04T21:16:55Z</time></trkpt>
			<trkpt lat="54.888400" lon="22.247440"><ele>24.3</ele><time>2026-06-04T21:17:12Z</time></trkpt>
			<trkpt lat="54.888150" lon="22.247760"><ele>24.6</ele><time>2026-06-04T21:17:30Z</time></trkpt>
			<trkpt lat="54.887740" lon="22.248340"><ele>25.0</ele><time>2026-06-04T21:17:48Z</time></trkpt>
			<trkpt lat="54.883370" lon="22.254440"><ele>29.3</ele><time>2026-06-04T21:18:06Z</time></trkpt>
			<trkpt lat="54.873110" lon="22.268800"><ele>32.5</ele><time>2026-06-04T21:18:24Z</time></trkpt>
			<trkpt lat="54.868630" lon="22.275320"><ele>33.2</ele><time>2026-06-04T21:18:41Z</time></trkpt>
			<trkpt lat="54.866600" lon="22.278310"><ele>33.6</ele><time>2026-06-04T21:18:59Z</time></trkpt>
			<trkpt lat="54.865140" lon="22.280340"><ele>33.8</ele><time>2026-06-04T21:19:17Z</time></trkpt>
			<trkpt lat="54.864620" lon="22.280950"><ele>33.9</ele><time>2026-06-04T21:19:35Z</time></trkpt>
			<trkpt lat="54.864550" lon="22.281020"><ele>33.9</ele><time>2026-06-04T21:19:53Z</time></trkpt>
			<trkpt lat="54.864290" lon="22.281270"><ele>34.0</ele><time>2026-06-04T21:20:10Z</time></trkpt>
			<trkpt lat="54.864000" lon="22.281500"><ele>34.0</ele><time>2026-06-04T21:20:28Z</time></trkpt>
			<trkpt lat="54.862930" lon="22.282230"><ele>34.2</ele><time>2026-06-04T21:20:46Z</time></trkpt>
			<trkpt lat="54.862430" lon="22.282600"><ele>34.2</ele><time>2026-06-04T21:21:04Z</time></trkpt>
			<trkpt lat="54.861780" lon="22.283040"><ele>34.3</ele><time>2026-06-04T21:21:22Z</time></trkpt>
			<trkpt lat="54.861460" lon="22.283250"><ele>34.3</ele><time>2026-06-04T21:21:39Z</time></trkpt>
			<trkpt lat="54.861130" lon="22.283480"><ele>34.4</ele><time>2026-06-04T21:21:57Z</time></trkpt>
			<trkpt lat="54.860870" lon="22.283640"><ele>34.4</ele><time>2026-06-04T21:22:15Z</time></trkpt>
			<trkpt lat="54.859150" lon="22.284930"><ele>34.5</ele><time>2026-06-04T21:22:33Z</time></trkpt>
			<trkpt lat="54.855530" lon="22.287330"><ele>34.7</ele><time>2026-06-04T21:22:50Z</time></trkpt>
			<trkpt lat="54.854870" lon="22.287770"><ele>34.7</ele><time>2026-06-04T21:23:08Z</time></trkpt>
			<trkpt lat="54.850840" lon="22.290450"><ele>34.8</ele><time>2026-06-04T21:23:26Z</time></trkpt>
			<trkpt lat="54.845740" lon="22.293970"><ele>34.7</ele><time>2026-06-04T21:23:44Z</time></trkpt>
			<trkpt lat="54.845740" lon="22.293970"><ele>34.7</ele><time>2026-06-04T21:23:56Z</time></trkpt>
			<trkpt lat="54.845130" lon="22.294400"><ele>34.7</ele><time>2026-06-04T21:24:09Z</time></trkpt>
			<trkpt lat="54.843990" lon="22.295140"><ele>35.2</ele><time>2026-06-04T21:24:21Z</time></trkpt>
			<trkpt lat="54.842060" lon="22.296440"><ele>35.9</ele><time>2026-06-04T21:24:33Z</time></trkpt>
			<trkpt lat="54.834890" lon="22.301240"><ele>38.6</ele><time>2026-06-04T21:24:46Z</time></trkpt>
			<trkpt lat="54.825200" lon="22.307780"><ele>40.2</ele><time>2026-06-04T21:24:58Z</time></trkpt>
			<trkpt lat="54.819590" lon="22.311610"><ele>39.5</ele><time>2026-06-04T21:25:10Z</time></trkpt>
			<trkpt lat="54.817550" lon="22.313090"><ele>40.0</ele><time>2026-06-04T21:25:23Z</time></trkpt>
			<trkpt lat="54.815840" lon="22.314370"><ele>40.5</ele><time>2026-06-04T21:25:35Z</time></trkpt>
			<trkpt lat="54.815500" lon="22.314670"><ele>40.6</ele><time>2026-06-04T21:25:47Z</time></trkpt>
			<trkpt lat="54.815020" lon="22.315410"><ele>40.7</ele><time>2026-06-04T21:26:00Z</time></trkpt>
			<trkpt lat="54.814850" lon="22.315710"><ele>40.8</ele><time>2026-06-04T21:26:12Z</time></trkpt>
			<trkpt lat="54.814620" lon="22.315900"><ele>40.9</ele><time>2026-06-04T21:26:24Z</time></trkpt>
			<trkpt lat="54.814220" lon="22.316060"><ele>41.0</ele><time>2026-06-04T21:26:37Z</time></trkpt>
			<trkpt lat="54.807490" lon="22.319210"><ele>42.6</ele><time>2026-06-04T21:26:49Z</time></trkpt>
			<trkpt lat="54.801620" lon="22.322050"><ele>44.7</ele><time>2026-06-04T21:27:01Z</time></trkpt>
			<trkpt lat="54.797520" lon="22.323970"><ele>48.0</ele><time>2026-06-04T21:27:14Z</time></trkpt>
			<trkpt lat="54.796850" lon="22.324280"><ele>48.5</ele><time>2026-06-04T21:27:26Z</time></trkpt>
			<trkpt lat="54.787990" lon="22.328580"><ele>56.6</ele><time>2026-06-04T21:27:38Z</time></trkpt>
			<trkpt lat="54.787340" lon="22.328800"><ele>57.3</ele><time>2026-06-04T21:27:51Z</time></trkpt>
			<trkpt lat="54.787130" lon="22.328840"><ele>57.5</ele><time>2026-06-04T21:28:03Z</time></trkpt>
			<trkpt lat="54.786560" lon="22.328880"><ele>58.0</ele><time>2026-06-04T21:28:15Z</time></trkpt>
			<trkpt lat="54.786340" lon="22.328940"><ele>58.2</ele><time>2026-06-04T21:28:28Z</time></trkpt>
			<trkpt lat="54.786140" lon="22.329070"><ele>58.4</ele><time>2026-06-04T21:28:40Z</time></trkpt>
			<trkpt lat="54.785860" lon="22.329290"><ele>58.7</ele><time>2026-06-04T21:28:52Z</time></trkpt>
			<trkpt lat="54.785490" lon="22.329490"><ele>58.9</ele><time>2026-06-04T21:29:05Z</time></trkpt>
			<trkpt lat="54.785120" lon="22.329620"><ele>58.9</ele><time>2026-06-04T21:29:17Z</time></trkpt>
			<trkpt lat="54.784640" lon="22.329750"><ele>58.9</ele><time>2026-06-04T21:29:29Z</time></trkpt>
			<trkpt lat="54.783550" lon="22.330260"><ele>59.0</ele><time>2026-06-04T21:29:42Z</time></trkpt>
			<trkpt lat="54.782360" lon="22.330850"><ele>59.1</ele><time>2026-06-04T21:29:54Z</time></trkpt>
			<trkpt lat="54.780980" lon="22.331510"><ele>59.2</ele><time>2026-06-04T21:30:06Z</time></trkpt>
			<trkpt lat="54.779310" lon="22.332290"><ele>59.3</ele><time>2026-06-04T21:30:19Z</time></trkpt>
			<trkpt lat="54.779070" lon="22.332420"><ele>59.3</ele><time>2026-06-04T21:30:31Z</time></trkpt>
			<trkpt lat="54.774030" lon="22.334850"><ele>58.3</ele><time>2026-06-04T21:30:44Z</time></trkpt>
			<trkpt lat="54.769250" lon="22.337080"><ele>56.5</ele><time>2026-06-04T21:30:56Z</time></trkpt>
			<trkpt lat="54.762310" lon="22.340360"><ele>59.1</ele><time>2026-06-04T21:31:08Z</time></trkpt>
			<trkpt lat="54.761030" lon="22.340960"><ele>59.8</ele><time>2026-06-04T21:31:21Z</time></trkpt>
			<trkpt lat="54.760890" lon="22.341080"><ele>59.9</ele><time>2026-06-04T21:31:33Z</time></trkpt>
			<trkpt lat="54.760200" lon="22.342540"><ele>60.4</ele><time>2026-06-04T21:31:45Z</time></trkpt>
			<trkpt lat="54.759950" lon="22.343010"><ele>60.5</ele><time>2026-06-04T21:31:58Z</time></trkpt>
			<trkpt lat="54.759820" lon="22.343220"><ele>60.6</ele><time>2026-06-04T21:32:10Z</time></trkpt>
			<trkpt lat="54.759680" lon="22.343450"><ele>60.6</ele><time>2026-06-04T21:32:22Z</time></trkpt>
			<trkpt lat="54.758760" lon="22.344620"><ele>60.8</ele><time>2026-06-04T21:32:35Z</time></trkpt>
			<trkpt lat="54.758600" lon="22.344780"><ele>60.8</ele><time>2026-06-04T21:32:47Z</time></trkpt>
			<trkpt lat="54.758410" lon="22.344980"><ele>60.9</ele><time>2026-06-04T21:32:59Z</time></trkpt>
			<trkpt lat="54.758050" lon="22.345370"><ele>61.0</ele><time>2026-06-04T21:33:12Z</time></trkpt>
			<trkpt lat="54.757260" lon="22.346480"><ele>61.2</ele><time>2026-06-04T21:33:24Z</time></trkpt>
			<trkpt lat="54.756890" lon="22.346750"><ele>61.2</ele><time>2026-06-04T21:33:36Z</time></trkpt>
			<trkpt lat="54.756600" lon="22.347100"><ele>61.3</ele><time>2026-06-04T21:33:49Z</time></trkpt>
			<trkpt lat="54.756480" lon="22.346900"><ele>61.3</ele><time>2026-06-04T21:34:01Z</time></trkpt>
			<trkpt lat="54.756260" lon="22.346510"><ele>61.4</ele><time>2026-06-04T21:34:13Z</time></trkpt>
			<trkpt lat="54.756060" lon="22.346080"><ele>61.5</ele><time>2026-06-04T21:34:26Z</time></trkpt>
			<trkpt lat="54.755880" lon="22.345840"><ele>61.5</ele><time>2026-06-04T21:34:38Z</time></trkpt>
			<trkpt lat="54.754440" lon="22.344740"><ele>61.8</ele><time>2026-06-04T21:34:50Z</time></trkpt>
			<trkpt lat="54.753910" lon="22.344180"><ele>61.9</ele><time>2026-06-04T21:35:03Z</time></trkpt>
			<trkpt lat="54.753710" lon="22.343940"><ele>62.0</ele><time>2026-06-04T21:35:15Z</time></trkpt>
			<trkpt lat="54.752800" lon="22.342900"><ele>62.2</ele><time>2026-06-04T21:35:27Z</time></trkpt>
			<trkpt lat="54.752700" lon="22.342780"><ele>62.2</ele><time>2026-06-04T21:35:40Z</time></trkpt>
			<trkpt lat="54.752100" lon="22.342060"><ele>61.9</ele><time>2026-06-04T21:35:52Z</time></trkpt>
			<trkpt lat="54.751800" lon="22.341660"><ele>61.7</ele><time>2026-06-04T21:36:04Z</time></trkpt>
			<trkpt lat="54.751420" lon="22.341210"><ele>61.5</ele><time>2026-06-04T21:36:17Z</time></trkpt>
			<trkpt lat="54.750310" lon="22.339890"><ele>60.8</ele><time>2026-06-04T21:36:29Z</time></trkpt>
			<trkpt lat="54.748720" lon="22.337950"><ele>59.9</ele><time>2026-06-04T21:36:41Z</time></trkpt>
			<trkpt lat="54.748290" lon="22.337400"><ele>59.6</ele><time>2026-06-04T21:36:54Z</time></trkpt>
			<trkpt lat="54.748000" lon="22.337160"><ele>59.5</ele><time>2026-06-04T21:37:06Z</time></trkpt>
			<trkpt lat="54.747550" lon="22.336880"><ele>59.3</ele><time>2026-06-04T21:37:18Z</time></trkpt>
			<trkpt lat="54.746910" lon="22.336630"><ele>58.9</ele><time>2026-06-04T21:37:31Z</time></trkpt>
			<trkpt lat="54.745180" lon="22.336190"><ele>58.1</ele><time>2026-06-04T21:37:43Z</time></trkpt>
			<trkpt lat="54.742110" lon="22.335630"><ele>57.9</ele><time>2026-06-04T21:37:56Z</time></trkpt>
			<trkpt lat="54.741500" lon="22.335550"><ele>57.9</ele><time>2026-06-04T21:38:08Z</time></trkpt>
			<trkpt lat="54.741340" lon="22.335540"><ele>57.9</ele><time>2026-06-04T21:38:20Z</time></trkpt>
			<trkpt lat="54.741340" lon="22.335540"><ele>57.9</ele><time>2026-06-04T21:38:26Z</time></trkpt>
			<trkpt lat="54.740920" lon="22.335510"><ele>57.9</ele><time>2026-06-04T21:38:31Z</time></trkpt>
			<trkpt lat="54.739390" lon="22.335510"><ele>58.0</ele><time>2026-06-04T21:38:36Z</time></trkpt>
			<trkpt lat="54.738520" lon="22.335530"><ele>58.0</ele><time>2026-06-04T21:38:42Z</time></trkpt>
			<trkpt lat="54.737560" lon="22.335510"><ele>58.0</ele><time>2026-06-04T21:38:47Z</time></trkpt>
			<trkpt lat="54.736880" lon="22.335390"><ele>58.0</ele><time>2026-06-04T21:38:53Z</time></trkpt>
			<trkpt lat="54.736170" lon="22.335160"><ele>58.0</ele><time>2026-06-04T21:38:58Z</time></trkpt>
			<trkpt lat="54.735230" lon="22.334710"><ele>58.0</ele><time>2026-06-04T21:39:04Z</time></trkpt>
			<trkpt lat="54.734070" lon="22.334050"><ele>58.1</ele><time>2026-06-04T21:39:09Z</time></trkpt>
			<trkpt lat="54.731090" lon="22.332420"><ele>58.4</ele><time>2026-06-04T21:39:14Z</time></trkpt>
			<trkpt lat="54.730750" lon="22.332170"><ele>58.4</ele><time>2026-06-04T21:39:20Z</time></trkpt>
			<trkpt lat="54.730460" lon="22.331830"><ele>58.5</ele><time>2026-06-04T21:39:25Z</time></trkpt>
			<trkpt lat="54.730200" lon="22.331350"><ele>58.5</ele><time>2026-06-04T21:39:31Z</time></trkpt>
			<trkpt lat="54.729530" lon="22.329820"><ele>58.6</ele><time>2026-06-04T21:39:36Z</time></trkpt>
			<trkpt lat="54.728770" lon="22.328120"><ele>58.7</ele><time>2026-06-04T21:39:42Z</time></trkpt>
			<trkpt lat="54.728570" lon="22.327850"><ele>58.7</ele><time>2026-06-04T21:39:47Z</time></trkpt>
			<trkpt lat="54.728240" lon="22.327610"><ele>58.7</ele><time>2026-06-04T21:39:52Z</time></trkpt>
			<trkpt lat="54.727560" lon="22.327160"><ele>58.5</ele><time>2026-06-04T21:39:58Z</time></trkpt>
			<trkpt lat="54.726800" lon="22.326690"><ele>58.3</ele><time>2026-06-04T21:40:03Z</time></trkpt>
			<trkpt lat="54.726510" lon="22.326390"><ele>58.1</ele><time>2026-06-04T21:40:09Z</time></trkpt>
			<trkpt lat="54.726220" lon="22.326010"><ele>58.0</ele><time>2026-06-04T21:40:14Z</time></trkpt>
			<trkpt lat="54.725980" lon="22.325630"><ele>57.9</ele><time>2026-06-04T21:40:20Z</time></trkpt>
			<trkpt lat="54.725680" lon="22.325090"><ele>57.8</ele><time>2026-06-04T21:40:25Z</time></trkpt>
			<trkpt lat="54.725390" lon="22.324410"><ele>57.6</ele><time>2026-06-04T21:40:30Z</time></trkpt>
			<trkpt lat="54.725100" lon="22.323800"><ele>57.5</ele><time>2026-06-04T21:40:36Z</time></trkpt>
			<trkpt lat="54.724650" lon="22.323050"><ele>57.3</ele><time>2026-06-04T21:40:41Z</time></trkpt>
			<trkpt lat="54.714130" lon="22.309510"><ele>50.4</ele><time>2026-06-04T21:40:47Z</time></trkpt>
			<trkpt lat="54.713850" lon="22.309240"><ele>50.2</ele><time>2026-06-04T21:40:52Z</time></trkpt>
			<trkpt lat="54.713670" lon="22.309100"><ele>50.3</ele><time>2026-06-04T21:40:58Z</time></trkpt>
			<trkpt lat="54.713410" lon="22.309040"><ele>50.5</ele><time>2026-06-04T21:41:03Z</time></trkpt>
			<trkpt lat="54.713220" lon="22.309060"><ele>50.6</ele><time>2026-06-04T21:41:08Z</time></trkpt>
			<trkpt lat="54.712410" lon="22.309310"><ele>51.2</ele><time>2026-06-04T21:41:14Z</time></trkpt>
			<trkpt lat="54.709420" lon="22.310170"><ele>53.5</ele><time>2026-06-04T21:41:19Z</time></trkpt>
			<trkpt lat="54.708570" lon="22.310480"><ele>54.1</ele><time>2026-06-04T21:41:25Z</time></trkpt>
			<trkpt lat="54.706520" lon="22.311370"><ele>55.6</ele><time>2026-06-04T21:41:30Z</time></trkpt>
			<trkpt lat="54.706000" lon="22.311560"><ele>56.0</ele><time>2026-06-04T21:41:36Z</time></trkpt>
			<trkpt lat="54.703910" lon="22.312000"><ele>56.5</ele><time>2026-06-04T21:41:41Z</time></trkpt>
			<trkpt lat="54.702420" lon="22.312370"><ele>56.2</ele><time>2026-06-04T21:41:46Z</time></trkpt>
			<trkpt lat="54.701990" lon="22.312440"><ele>56.1</ele><time>2026-06-04T21:41:52Z</time></trkpt>
			<trkpt lat="54.701690" lon="22.312440"><ele>56.0</ele><time>2026-06-04T21:41:57Z</time></trkpt>
			<trkpt lat="54.701300" lon="22.312340"><ele>56.0</ele><time>2026-06-04T21:42:03Z</time></trkpt>
			<trkpt lat="54.699880" lon="22.311860"><ele>55.6</ele><time>2026-06-04T21:42:08Z</time></trkpt>
			<trkpt lat="54.698040" lon="22.311290"><ele>55.2</ele><time>2026-06-04T21:42:14Z</time></trkpt>
			<trkpt lat="54.697320" lon="22.311060"><ele>55.1</ele><time>2026-06-04T21:42:19Z</time></trkpt>
			<trkpt lat="54.696850" lon="22.310860"><ele>55.0</ele><time>2026-06-04T21:42:24Z</time></trkpt>
			<trkpt lat="54.696630" lon="22.310710"><ele>54.9</ele><time>2026-06-04T21:42:30Z</time></trkpt>
			<trkpt lat="54.696470" lon="22.310500"><ele>54.9</ele><time>2026-06-04T21:42:35Z</time></trkpt>
			<trkpt lat="54.696330" lon="22.310170"><ele>54.8</ele><time>2026-06-04T21:42:41Z</time></trkpt>
			<trkpt lat="54.695710" lon="22.308310"><ele>55.9</ele><time>2026-06-04T21:42:46Z</time></trkpt>
			<trkpt lat="54.695460" lon="22.307740"><ele>56.3</ele><time>2026-06-04T21:42:52Z</time></trkpt>
			<trkpt lat="54.695170" lon="22.307280"><ele>56.6</ele><time>2026-06-04T21:42:57Z</time></trkpt>
			<trkpt lat="54.694720" lon="22.306640"><ele>57.2</ele><time>2026-06-04T21:43:02Z</time></trkpt>
			<trkpt lat="54.694470" lon="22.306350"><ele>57.4</ele><time>2026-06-04T21:43:08Z</time></trkpt>
			<trkpt lat="54.694180" lon="22.306110"><ele>57.7</ele><time>2026-06-04T21:43:13Z</time></trkpt>
			<trkpt lat="54.693750" lon="22.305930"><ele>58.1</ele><time>2026-06-04T21:43:19Z</time></trkpt>
			<trkpt lat="54.689960" lon="22.304470"><ele>61.6</ele><time>2026-06-04T21:43:24Z</time></trkpt>
			<trkpt lat="54.686140" lon="22.303020"><ele>64.0</ele><time>2026-06-04T21:43:29Z</time></trkpt>
			<trkpt lat="54.683340" lon="22.301900"><ele>65.2</ele><time>2026-06-04T21:43:35Z</time></trkpt>
			<trkpt lat="54.683120" lon="22.301840"><ele>65.3</ele><time>2026-06-04T21:43:40Z</time></trkpt>
			<trkpt lat="54.682980" lon="22.301820"><ele>65.4</ele><time>2026-06-04T21:43:46Z</time></trkpt>
			<trkpt lat="54.682880" lon="22.301830"><ele>65.4</ele><time>2026-06-04T21:43:51Z</time></trkpt>
			<trkpt lat="54.682800" lon="22.301860"><ele>65.5</ele><time>2026-06-04T21:43:57Z</time></trkpt>
			<trkpt lat="54.682550" lon="22.301980"><ele>65.6</ele><time>2026-06-04T21:44:02Z</time></trkpt>
			<trkpt lat="54.682330" lon="22.302150"><ele>65.7</ele><time>2026-06-04T21:44:07Z</time></trkpt>
			<trkpt lat="54.681900" lon="22.302560"><ele>65.9</ele><time>2026-06-04T21:44:13Z</time></trkpt>
			<trkpt lat="54.680960" lon="22.303430"><ele>66.4</ele><time>2026-06-04T21:44:18Z</time></trkpt>
			<trkpt lat="54.680020" lon="22.304280"><ele>66.8</ele><time>2026-06-04T21:44:24Z</time></trkpt>
			<trkpt lat="54.679510" lon="22.304740"><ele>66.9</ele><time>2026-06-04T21:44:29Z</time></trkpt>
			<trkpt lat="54.679220" lon="22.304930"><ele>67.0</ele><time>2026-06-04T21:44:35Z</time></trkpt>
			<trkpt lat="54.679030" lon="22.305020"><ele>67.0</ele><time>2026-06-04T21:44:40Z</time></trkpt>
			<trkpt lat="54.678830" lon="22.305090"><ele>67.1</ele><time>2026-06-04T21:44:45Z</time></trkpt>
			<trkpt lat="54.678560" lon="22.305140"><ele>67.1</ele><time>2026-06-04T21:44:51Z</time></trkpt>
			<trkpt lat="54.678030" lon="22.305150"><ele>67.2</ele><time>2026-06-04T21:44:56Z</time></trkpt>
			<trkpt lat="54.677730" lon="22.305130"><ele>67.3</ele><time>2026-06-04T21:45:02Z</time></trkpt>
			<trkpt lat="54.676860" lon="22.304980"><ele>67.4</ele><time>2026-06-04T21:45:07Z</time></trkpt>
			<trkpt lat="54.676290" lon="22.304860"><ele>67.5</ele><time>2026-06-04T21:45:13Z</time></trkpt>
			<trkpt lat="54.675690" lon="22.304700"><ele>67.6</ele><time>2026-06-04T21:45:18Z</time></trkpt>
			<trkpt lat="54.672220" lon="22.302950"><ele>68.3</ele><time>2026-06-04T21:45:23Z</time></trkpt>
			<trkpt lat="54.671740" lon="22.302710"><ele>68.3</ele><time>2026-06-04T21:45:29Z</time></trkpt>
			<trkpt lat="54.669030" lon="22.301380"><ele>69.8</ele><time>2026-06-04T21:45:34Z</time></trkpt>
			<trkpt lat="54.666020" lon="22.299860"><ele>71.7</ele><time>2026-06-04T21:45:40Z</time></trkpt>
			<trkpt lat="54.662530" lon="22.298100"><ele>73.7</ele><time>2026-06-04T21:45:45Z</time></trkpt>
			<trkpt lat="54.658560" lon="22.295540"><ele>71.2</ele><time>2026-06-04T21:45:51Z</time></trkpt>
			<trkpt lat="54.658080" lon="22.295210"><ele>70.9</ele><time>2026-06-04T21:45:56Z</time></trkpt>
			<trkpt lat="54.657730" lon="22.294840"><ele>70.7</ele><time>2026-06-04T21:46:01Z</time></trkpt>
			<trkpt lat="54.657260" lon="22.294200"><ele>70.4</ele><time>2026-06-04T21:46:07Z</time></trkpt>
			<trkpt lat="54.656310" lon="22.292940"><ele>69.7</ele><time>2026-06-04T21:46:12Z</time></trkpt>
			<trkpt lat="54.653960" lon="22.289850"><ele>68.3</ele><time>2026-06-04T21:46:18Z</time></trkpt>
			<trkpt lat="54.653550" lon="22.289310"><ele>68.1</ele><time>2026-06-04T21:46:23Z</time></trkpt>
			<trkpt lat="54.651330" lon="22.286410"><ele>67.2</ele><time>2026-06-04T21:46:29Z</time></trkpt>
			<trkpt lat="54.648310" lon="22.282450"><ele>66.1</ele><time>2026-06-04T21:46:34Z</time></trkpt>
			<trkpt lat="54.648120" lon="22.282120"><ele>66.0</ele><time>2026-06-04T21:46:39Z</time></trkpt>
			<trkpt lat="54.647860" lon="22.281480"><ele>65.9</ele><time>2026-06-04T21:46:45Z</time></trkpt>
			<trkpt lat="54.647420" lon="22.280240"><ele>65.3</ele><time>2026-06-04T21:46:50Z</time></trkpt>
			<trkpt lat="54.647270" lon="22.279900"><ele>65.1</ele><time>2026-06-04T21:46:56Z</time></trkpt>
			<trkpt lat="54.647240" lon="22.279840"><ele>65.1</ele><time>2026-06-04T21:47:01Z</time></trkpt>
			<trkpt lat="54.647110" lon="22.279710"><ele>64.9</ele><time>2026-06-04T21:47:07Z</time></trkpt>
			<trkpt lat="54.646950" lon="22.279650"><ele>64.8</ele><time>2026-06-04T21:47:12Z</time></trkpt>
			<trkpt lat="54.646070" lon="22.279460"><ele>64.1</ele><time>2026-06-04T21:47:17Z</time></trkpt>
			<trkpt lat="54.645210" lon="22.279240"><ele>63.5</ele><time>2026-06-04T21:47:23Z</time></trkpt>
			<trkpt lat="54.645030" lon="22.279090"><ele>63.3</ele><time>2026-06-04T21:47:28Z</time></trkpt>
			<trkpt lat="54.644140" lon="22.278130"><ele>62.5</ele><time>2026-06-04T21:47:34Z</time></trkpt>
			<trkpt lat="54.643990" lon="22.277920"><ele>62.3</ele><time>2026-06-04T21:47:39Z</time></trkpt>
			<trkpt lat="54.643840" lon="22.277620"><ele>62.2</ele><time>2026-06-04T21:47:44Z</time></trkpt>
			<trkpt lat="54.642670" lon="22.274470"><ele>60.5</ele><time>2026-06-04T21:47:50Z</time></trkpt>
			<trkpt lat="54.642560" lon="22.274200"><ele>60.3</ele><time>2026-06-04T21:47:55Z</time></trkpt>
			<trkpt lat="54.641390" lon="22.271140"><ele>58.8</ele><time>2026-06-04T21:48:01Z</time></trkpt>
			<trkpt lat="54.641200" lon="22.270620"><ele>58.7</ele><time>2026-06-04T21:48:06Z</time></trkpt>
			<trkpt lat="54.641010" lon="22.270240"><ele>58.6</ele><time>2026-06-04T21:48:12Z</time></trkpt>
			<trkpt lat="54.640460" lon="22.269450"><ele>58.4</ele><time>2026-06-04T21:48:17Z</time></trkpt>
			<trkpt lat="54.639740" lon="22.268520"><ele>58.1</ele><time>2026-06-04T21:48:22Z</time></trkpt>
			<trkpt lat="54.635470" lon="22.262760"><ele>56.4</ele><time>2026-06-04T21:48:28Z</time></trkpt>
			<trkpt lat="54.631980" lon="22.258160"><ele>55.1</ele><time>2026-06-04T21:48:33Z</time></trkpt>
			<trkpt lat="54.630060" lon="22.255580"><ele>54.4</ele><time>2026-06-04T21:48:39Z</time></trkpt>
			<trkpt lat="54.627000" lon="22.251530"><ele>53.5</ele><time>2026-06-04T21:48:44Z</time></trkpt>
			<trkpt lat="54.626480" lon="22.250840"><ele>53.4</ele><time>2026-06-04T21:48:50Z</time></trkpt>
			<trkpt lat="54.623960" lon="22.247480"><ele>53.3</ele><time>2026-06-04T21:48:55Z</time></trkpt>
			<trkpt lat="54.622830" lon="22.245980"><ele>53.3</ele><time>2026-06-04T21:49:00Z</time></trkpt>
			<trkpt lat="54.621280" lon="22.243860"><ele>53.2</ele><time>2026-06-04T21:49:06Z</time></trkpt>
			<trkpt lat="54.620880" lon="22.243330"><ele>53.2</ele><time>2026-06-04T21:49:11Z</time></trkpt>
			<trkpt lat="54.620510" lon="22.242850"><ele>53.2</ele><time>2026-06-04T21:49:17Z</time></trkpt>
			<trkpt lat="54.620200" lon="22.242490"><ele>53.1</ele><time>2026-06-04T21:49:22Z</time></trkpt>
			<trkpt lat="54.619860" lon="22.242400"><ele>53.0</ele><time>2026-06-04T21:49:28Z</time></trkpt>
			<trkpt lat="54.616040" lon="22.242030"><ele>51.9</ele><time>2026-06-04T21:49:33Z</time></trkpt>
			<trkpt lat="54.613150" lon="22.241710"><ele>51.1</ele><time>2026-06-04T21:49:38Z</time></trkpt>
			<trkpt lat="54.612840" lon="22.241670"><ele>51.0</ele><time>2026-06-04T21:49:44Z</time></trkpt>
			<trkpt lat="54.612370" lon="22.241620"><ele>50.8</ele><time>2026-06-04T21:49:49Z</time></trkpt>
			<trkpt lat="54.612220" lon="22.241560"><ele>50.8</ele><time>2026-06-04T21:49:55Z</time></trkpt>
			<trkpt lat="54.612020" lon="22.241440"><ele>50.7</ele><time>2026-06-04T21:50:00Z</time></trkpt>
			<trkpt lat="54.611900" lon="22.241320"><ele>50.7</ele><time>2026-06-04T21:50:06Z</time></trkpt>
			<trkpt lat="54.611700" lon="22.241110"><ele>50.6</ele><time>2026-06-04T21:50:11Z</time></trkpt>
			<trkpt lat="54.609190" lon="22.237300"><ele>52.5</ele><time>2026-06-04T21:50:16Z</time></trkpt>
			<trkpt lat="54.608970" lon="22.236950"><ele>52.7</ele><time>2026-06-04T21:50:22Z</time></trkpt>
			<trkpt lat="54.608760" lon="22.236650"><ele>52.8</ele><time>2026-06-04T21:50:27Z</time></trkpt>
			<trkpt lat="54.606950" lon="22.233900"><ele>54.3</ele><time>2026-06-04T21:50:33Z</time></trkpt>
			<trkpt lat="54.606410" lon="22.233100"><ele>54.8</ele><time>2026-06-04T21:50:38Z</time></trkpt>
			<trkpt lat="54.605640" lon="22.231870"><ele>55.4</ele><time>2026-06-04T21:50:44Z</time></trkpt>
			<trkpt lat="54.605450" lon="22.231570"><ele>55.6</ele><time>2026-06-04T21:50:49Z</time></trkpt>
			<trkpt lat="54.605260" lon="22.231250"><ele>55.8</ele><time>2026-06-04T21:50:54Z</time></trkpt>
			<trkpt lat="54.604920" lon="22.230730"><ele>56.0</ele><time>2026-06-04T21:51:00Z</time></trkpt>
			<trkpt lat="54.603910" lon="22.229230"><ele>56.7</ele><time>2026-06-04T21:51:05Z</time></trkpt>
			<trkpt lat="54.602930" lon="22.227730"><ele>57.3</ele><time>2026-06-04T21:51:11Z</time></trkpt>
			<trkpt lat="54.602080" lon="22.226520"><ele>57.9</ele><time>2026-06-04T21:51:16Z</time></trkpt>
			<trkpt lat="54.601060" lon="22.224900"><ele>58.5</ele><time>2026-06-04T21:51:22Z</time></trkpt>
			<trkpt lat="54.599840" lon="22.223110"><ele>59.3</ele><time>2026-06-04T21:51:27Z</time></trkpt>
			<trkpt lat="54.599520" lon="22.222640"><ele>59.5</ele><time>2026-06-04T21:51:32Z</time></trkpt>
			<trkpt lat="54.598220" lon="22.220580"><ele>60.4</ele><time>2026-06-04T21:51:38Z</time></trkpt>
			<trkpt lat="54.597780" lon="22.219940"><ele>60.0</ele><time>2026-06-04T21:51:43Z</time></trkpt>
			<trkpt lat="54.596240" lon="22.217590"><ele>56.5</ele><time>2026-06-04T21:51:49Z</time></trkpt>
			<trkpt lat="54.595750" lon="22.216840"><ele>55.4</ele><time>2026-06-04T21:51:54Z</time></trkpt>
			<trkpt lat="54.595600" lon="22.216610"><ele>55.0</ele><time>2026-06-04T21:52:00Z</time></trkpt>
			<trkpt lat="54.595390" lon="22.216360"><ele>54.6</ele><time>2026-06-04T21:52:05Z</time></trkpt>
			<trkpt lat="54.595280" lon="22.216240"><ele>54.4</ele><time>2026-06-04T21:52:10Z</time></trkpt>
			<trkpt lat="54.595090" lon="22.216060"><ele>54.0</ele><time>2026-06-04T21:52:16Z</time></trkpt>
			<trkpt lat="54.593530" lon="22.214940"><ele>51.1</ele><time>2026-06-04T21:52:21Z</time></trkpt>
			<trkpt lat="54.593000" lon="22.214540"><ele>50.1</ele><time>2026-06-04T21:52:27Z</time></trkpt>
			<trkpt lat="54.592940" lon="22.214520"><ele>50.0</ele><time>2026-06-04T21:52:32Z</time></trkpt>
			<trkpt lat="54.592870" lon="22.214520"><ele>49.9</ele><time>2026-06-04T21:52:37Z</time></trkpt>
			<trkpt lat="54.592810" lon="22.214540"><ele>49.8</ele><time>2026-06-04T21:52:43Z</time></trkpt>
			<trkpt lat="54.592630" lon="22.213610"><ele>48.8</ele><time>2026-06-04T21:52:48Z</time></trkpt>
			<trkpt lat="54.592620" lon="22.213520"><ele>48.7</ele><time>2026-06-04T21:52:54Z</time></trkpt>
			<trkpt lat="54.592190" lon="22.211870"><ele>46.9</ele><time>2026-06-04T21:52:59Z</time></trkpt>
			<trkpt lat="54.591950" lon="22.210900"><ele>45.9</ele><time>2026-06-04T21:53:05Z</time></trkpt>
			<trkpt lat="54.591860" lon="22.210580"><ele>45.5</ele><time>2026-06-04T21:53:10Z</time></trkpt>
			<trkpt lat="54.591820" lon="22.210400"><ele>45.3</ele><time>2026-06-04T21:53:15Z</time></trkpt>
			<trkpt lat="54.591780" lon="22.210130"><ele>45.1</ele><time>2026-06-04T21:53:21Z</time></trkpt>
			<trkpt lat="54.591720" lon="22.209770"><ele>45.1</ele><time>2026-06-04T21:53:26Z</time></trkpt>
			<trkpt lat="54.591690" lon="22.209430"><ele>45.1</ele><time>2026-06-04T21:53:32Z</time></trkpt>
			<trkpt lat="54.591610" lon="22.208490"><ele>45.1</ele><time>2026-06-04T21:53:37Z</time></trkpt>
			<trkpt lat="54.591510" lon="22.207490"><ele>45.0</ele><time>2026-06-04T21:53:43Z</time></trkpt>
			<trkpt lat="54.591510" lon="22.207440"><ele>45.0</ele><time>2026-06-04T21:53:48Z</time></trkpt>
			<trkpt lat="54.591330" lon="22.205320"><ele>45.0</ele><time>2026-06-04T21:53:53Z</time></trkpt>
			<trkpt lat="54.591190" lon="22.203690"><ele>44.9</ele><time>2026-06-04T21:53:59Z</time></trkpt>
			<trkpt lat="54.591190" lon="22.203520"><ele>44.9</ele><time>2026-06-04T21:54:04Z</time></trkpt>
			<trkpt lat="54.591200" lon="22.203360"><ele>44.9</ele><time>2026-06-04T21:54:10Z</time></trkpt>
			<trkpt lat="54.591230" lon="22.203220"><ele>44.9</ele><time>2026-06-04T21:54:15Z</time></trkpt>
			<trkpt lat="54.591310" lon="22.202960"><ele>44.9</ele><time>2026-06-04T21:54:21Z</time></trkpt>
			<trkpt lat="54.591400" lon="22.202690"><ele>44.9</ele><time>2026-06-04T21:54:26Z</time></trkpt>
			<trkpt lat="54.591600" lon="22.202010"><ele>44.9</ele><time>2026-06-04T21:54:31Z</time></trkpt>
			<trkpt lat="54.591740" lon="22.201760"><ele>44.9</ele><time>2026-06-04T21:54:37Z</time></trkpt>
			<trkpt lat="54.591810" lon="22.201580"><ele>44.9</ele><time>2026-06-04T21:54:42Z</time></trkpt>
			<trkpt lat="54.591870" lon="22.201630"><ele>44.9</ele><time>2026-06-04T21:54:48Z</time></trkpt>
			<trkpt lat="54.592080" lon="22.201840"><ele>44.8</ele><time>2026-06-04T21:54:53Z</time></trkpt>
			<trkpt lat="54.592220" lon="22.201920"><ele>44.8</ele><time>2026-06-04T21:54:59Z</time></trkpt>
			<trkpt lat="54.592290" lon="22.201910"><ele>44.8</ele><time>2026-06-04T21:55:04Z</time></trkpt>
			<trkpt lat="54.592370" lon="22.201870"><ele>44.8</ele><time>2026-06-04T21:55:09Z</time></trkpt>
			<trkpt lat="54.592450" lon="22.201640"><ele>44.8</ele><time>2026-06-04T21:55:15Z</time></trkpt>
			<trkpt lat="54.592480" lon="22.201470"><ele>44.8</ele><time>2026-06-04T21:55:20Z</time></trkpt>
			<trkpt lat="54.592480" lon="22.201350"><ele>44.8</ele><time>2026-06-04T21:55:26Z</time></trkpt>
			<trkpt lat="54.592450" lon="22.201240"><ele>44.8</ele><time>2026-06-04T21:55:31Z</time></trkpt>
			<trkpt lat="54.592390" lon="22.201170"><ele>44.8</ele><time>2026-06-04T21:55:37Z</time></trkpt>
			<trkpt lat="54.592320" lon="22.201110"><ele>44.8</ele><time>2026-06-04T21:55:42Z</time></trkpt>
			<trkpt lat="54.592080" lon="22.200860"><ele>44.8</ele><time>2026-06-04T21:55:47Z</time></trkpt>
			<trkpt lat="54.591970" lon="22.200770"><ele>44.8</ele><time>2026-06-04T21:55:53Z</time></trkpt>
			<trkpt lat="54.591910" lon="22.200750"><ele>44.8</ele><time>2026-06-04T21:55:58Z</time></trkpt>
			<trkpt lat="54.591870" lon="22.200780"><ele>44.8</ele><time>2026-06-04T21:56:04Z</time></trkpt>
			<trkpt lat="54.591830" lon="22.200830"><ele>44.8</ele><time>2026-06-04T21:56:09Z</time></trkpt>
			<trkpt lat="54.591640" lon="22.200850"><ele>44.8</ele><time>2026-06-04T21:56:15Z</time></trkpt>
			<trkpt lat="54.591540" lon="22.200810"><ele>44.8</ele><time>2026-06-04T21:56:20Z</time></trkpt>
			<trkpt lat="54.591490" lon="22.200790"><ele>44.8</ele><time>2026-06-04T21:56:25Z</time></trkpt>
			<trkpt lat="54.591200" lon="22.200510"><ele>44.8</ele><time>2026-06-04T21:56:31Z</time></trkpt>
			<trkpt lat="54.590990" lon="22.200340"><ele>44.7</ele><time>2026-06-04T21:56:36Z</time></trkpt>
			<trkpt lat="54.590940" lon="22.200300"><ele>44.7</ele><time>2026-06-04T21:56:42Z</time></trkpt>
			<trkpt lat="54.590570" lon="22.199950"><ele>44.7</ele><time>2026-06-04T21:56:47Z</time></trkpt>
			<trkpt lat="54.590530" lon="22.199900"><ele>44.7</ele><time>2026-06-04T21:56:53Z</time></trkpt>
			<trkpt lat="54.590380" lon="22.199730"><ele>44.7</ele><time>2026-06-04T21:56:58Z</time></trkpt>
			<trkpt lat="54.590310" lon="22.199660"><ele>44.7</ele><time>2026-06-04T21:57:03Z</time></trkpt>
			<trkpt lat="54.590310" lon="22.199650"><ele>44.7</ele><time>2026-06-04T21:57:09Z</time></trkpt>
			<trkpt lat="54.591146" lon="22.196967"><ele>44.9</ele><time>2026-06-04T22:01:14Z</time></trkpt>
			<trkpt lat="54.590832" lon="22.196656"><ele>45.0</ele><time>2026-06-04T22:02:04Z</time></trkpt>
			<trkpt lat="54.590981" lon="22.196088"><ele>45.1</ele><time>2026-06-04T22:02:54Z</time></trkpt>
			<trkpt lat="54.591366" lon="22.196454"><ele>45.2</ele><time>2026-06-04T22:03:55Z</time></trkpt>
			<trkpt lat="54.590978" lon="22.196069"><ele>45.2</ele><time>2026-06-04T22:04:57Z</time></trkpt>
			<trkpt lat="54.590793" lon="22.196611"><ele>45.3</ele><time>2026-06-04T22:05:48Z</time></trkpt>
			<trkpt lat="54.591163" lon="22.196954"><ele>45.4</ele><time>2026-06-04T22:06:46Z</time></trkpt>
			<trkpt lat="54.590266" lon="22.199617"><ele>45.7</ele><time>2026-06-04T22:10:54Z</time></trkpt>
			<trkpt lat="54.590270" lon="22.199620"><ele>45.7</ele><time>2026-06-04T22:10:55Z</time></trkpt>
			<trkpt lat="54.590310" lon="22.199660"><ele>45.7</ele><time>2026-06-04T22:10:57Z</time></trkpt>
			<trkpt lat="54.590380" lon="22.199730"><ele>45.7</ele><time>2026-06-04T22:10:58Z</time></trkpt>
			<trkpt lat="54.590530" lon="22.199900"><ele>45.8</ele><time>2026-06-04T22:11:00Z</time></trkpt>
			<trkpt lat="54.590570" lon="22.199950"><ele>45.8</ele><time>2026-06-04T22:11:01Z</time></trkpt>
			<trkpt lat="54.590940" lon="22.200300"><ele>45.9</ele><time>2026-06-04T22:11:03Z</time></trkpt>
			<trkpt lat="54.590990" lon="22.200340"><ele>45.9</ele><time>2026-06-04T22:11:04Z</time></trkpt>
			<trkpt lat="54.591200" lon="22.200510"><ele>45.9</ele><time>2026-06-04T22:11:06Z</time></trkpt>
			<trkpt lat="54.591490" lon="22.200790"><ele>46.0</ele><time>2026-06-04T22:11:08Z</time></trkpt>
			<trkpt lat="54.591530" lon="22.200850"><ele>46.0</ele><time>2026-06-04T22:11:09Z</time></trkpt>
			<trkpt lat="54.591600" lon="22.200980"><ele>46.0</ele><time>2026-06-04T22:11:11Z</time></trkpt>
			<trkpt lat="54.591660" lon="22.201100"><ele>46.0</ele><time>2026-06-04T22:11:12Z</time></trkpt>
			<trkpt lat="54.591700" lon="22.201250"><ele>46.0</ele><time>2026-06-04T22:11:14Z</time></trkpt>
			<trkpt lat="54.591720" lon="22.201470"><ele>46.1</ele><time>2026-06-04T22:11:15Z</time></trkpt>
			<trkpt lat="54.591810" lon="22.201580"><ele>46.1</ele><time>2026-06-04T22:11:17Z</time></trkpt>
			<trkpt lat="54.591870" lon="22.201630"><ele>46.1</ele><time>2026-06-04T22:11:18Z</time></trkpt>
			<trkpt lat="54.592080" lon="22.201840"><ele>46.1</ele><time>2026-06-04T22:11:20Z</time></trkpt>
			<trkpt lat="54.592220" lon="22.201920"><ele>46.2</ele><time>2026-06-04T22:11:21Z</time></trkpt>
			<trkpt lat="54.592290" lon="22.201910"><ele>46.2</ele><time>2026-06-04T22:11:23Z</time></trkpt>
			<trkpt lat="54.592370" lon="22.201870"><ele>46.2</ele><time>2026-06-04T22:11:24Z</time></trkpt>
			<trkpt lat="54.592440" lon="22.201820"><ele>46.2</ele><time>2026-06-04T22:11:26Z</time></trkpt>
			<trkpt lat="54.592520" lon="22.201830"><ele>46.2</ele><time>2026-06-04T22:11:27Z</time></trkpt>
			<trkpt lat="54.592670" lon="22.201890"><ele>46.2</ele><time>2026-06-04T22:11:29Z</time></trkpt>
			<trkpt lat="54.593010" lon="22.202190"><ele>46.3</ele><time>2026-06-04T22:11:30Z</time></trkpt>
			<trkpt lat="54.594190" lon="22.203350"><ele>47.6</ele><time>2026-06-04T22:11:32Z</time></trkpt>
			<trkpt lat="54.594710" lon="22.203900"><ele>48.2</ele><time>2026-06-04T22:11:34Z</time></trkpt>
			<trkpt lat="54.594790" lon="22.203990"><ele>48.3</ele><time>2026-06-04T22:11:35Z</time></trkpt>
			<trkpt lat="54.594800" lon="22.204000"><ele>48.3</ele><time>2026-06-04T22:11:37Z</time></trkpt>
			<trkpt lat="54.595200" lon="22.204380"><ele>48.8</ele><time>2026-06-04T22:11:38Z</time></trkpt>
			<trkpt lat="54.595590" lon="22.204750"><ele>49.2</ele><time>2026-06-04T22:11:40Z</time></trkpt>
			<trkpt lat="54.596060" lon="22.205200"><ele>49.8</ele><time>2026-06-04T22:11:41Z</time></trkpt>
			<trkpt lat="54.596300" lon="22.205430"><ele>50.1</ele><time>2026-06-04T22:11:43Z</time></trkpt>
			<trkpt lat="54.596730" lon="22.205850"><ele>50.6</ele><time>2026-06-04T22:11:44Z</time></trkpt>
			<trkpt lat="54.597260" lon="22.206370"><ele>51.2</ele><time>2026-06-04T22:11:46Z</time></trkpt>
			<trkpt lat="54.597570" lon="22.206660"><ele>51.5</ele><time>2026-06-04T22:11:47Z</time></trkpt>
			<trkpt lat="54.597570" lon="22.206660"><ele>51.5</ele><time>2026-06-04T22:11:54Z</time></trkpt>
			<trkpt lat="54.598620" lon="22.207680"><ele>52.8</ele><time>2026-06-04T22:12:01Z</time></trkpt>
			<trkpt lat="54.599000" lon="22.208040"><ele>53.2</ele><time>2026-06-04T22:12:08Z</time></trkpt>
			<trkpt lat="54.599860" lon="22.208880"><ele>54.2</ele><time>2026-06-04T22:12:15Z</time></trkpt>
			<trkpt lat="54.600440" lon="22.209470"><ele>54.9</ele><time>2026-06-04T22:12:21Z</time></trkpt>
			<trkpt lat="54.600490" lon="22.209530"><ele>55.0</ele><time>2026-06-04T22:12:28Z</time></trkpt>
			<trkpt lat="54.600590" lon="22.209640"><ele>55.1</ele><time>2026-06-04T22:12:35Z</time></trkpt>
			<trkpt lat="54.600660" lon="22.209710"><ele>55.2</ele><time>2026-06-04T22:12:42Z</time></trkpt>
			<trkpt lat="54.601580" lon="22.210580"><ele>54.5</ele><time>2026-06-04T22:12:49Z</time></trkpt>
			<trkpt lat="54.601620" lon="22.210610"><ele>54.5</ele><time>2026-06-04T22:12:56Z</time></trkpt>
			<trkpt lat="54.602040" lon="22.210910"><ele>53.8</ele><time>2026-06-04T22:13:02Z</time></trkpt>
			<trkpt lat="54.602530" lon="22.211210"><ele>53.1</ele><time>2026-06-04T22:13:09Z</time></trkpt>
			<trkpt lat="54.603000" lon="22.211400"><ele>52.5</ele><time>2026-06-04T22:13:16Z</time></trkpt>
			<trkpt lat="54.603100" lon="22.211430"><ele>52.3</ele><time>2026-06-04T22:13:23Z</time></trkpt>
			<trkpt lat="54.603460" lon="22.211490"><ele>51.9</ele><time>2026-06-04T22:13:30Z</time></trkpt>
			<trkpt lat="54.603820" lon="22.211510"><ele>51.4</ele><time>2026-06-04T22:13:37Z</time></trkpt>
			<trkpt lat="54.604190" lon="22.211500"><ele>50.9</ele><time>2026-06-04T22:13:43Z</time></trkpt>
			<trkpt lat="54.604800" lon="22.211390"><ele>50.0</ele><time>2026-06-04T22:13:50Z</time></trkpt>
			<trkpt lat="54.605600" lon="22.211200"><ele>48.9</ele><time>2026-06-04T22:13:57Z</time></trkpt>
			<trkpt lat="54.606550" lon="22.210940"><ele>47.6</ele><time>2026-06-04T22:14:04Z</time></trkpt>
			<trkpt lat="54.607070" lon="22.210800"><ele>46.9</ele><time>2026-06-04T22:14:11Z</time></trkpt>
			<trkpt lat="54.607570" lon="22.210690"><ele>46.2</ele><time>2026-06-04T22:14:18Z</time></trkpt>
			<trkpt lat="54.608150" lon="22.210530"><ele>45.4</ele><time>2026-06-04T22:14:24Z</time></trkpt>
			<trkpt lat="54.608230" lon="22.210510"><ele>45.3</ele><time>2026-06-04T22:14:31Z</time></trkpt>
			<trkpt lat="54.609630" lon="22.210190"><ele>43.4</ele><time>2026-06-04T22:14:38Z</time></trkpt>
			<trkpt lat="54.610810" lon="22.209880"><ele>44.6</ele><time>2026-06-04T22:14:45Z</time></trkpt>
			<trkpt lat="54.611010" lon="22.209830"><ele>44.8</ele><time>2026-06-04T22:14:52Z</time></trkpt>
			<trkpt lat="54.611140" lon="22.209800"><ele>45.0</ele><time>2026-06-04T22:14:59Z</time></trkpt>
			<trkpt lat="54.615400" lon="22.208760"><ele>50.2</ele><time>2026-06-04T22:15:05Z</time></trkpt>
			<trkpt lat="54.615690" lon="22.208760"><ele>50.6</ele><time>2026-06-04T22:15:12Z</time></trkpt>
			<trkpt lat="54.616310" lon="22.208570"><ele>51.3</ele><time>2026-06-04T22:15:19Z</time></trkpt>
			<trkpt lat="54.616850" lon="22.208430"><ele>52.0</ele><time>2026-06-04T22:15:26Z</time></trkpt>
			<trkpt lat="54.616910" lon="22.208410"><ele>52.1</ele><time>2026-06-04T22:15:33Z</time></trkpt>
			<trkpt lat="54.617170" lon="22.208340"><ele>52.4</ele><time>2026-06-04T22:15:40Z</time></trkpt>
			<trkpt lat="54.618250" lon="22.208070"><ele>53.7</ele><time>2026-06-04T22:15:46Z</time></trkpt>
			<trkpt lat="54.621830" lon="22.207170"><ele>56.4</ele><time>2026-06-04T22:15:53Z</time></trkpt>
			<trkpt lat="54.622100" lon="22.207100"><ele>56.6</ele><time>2026-06-04T22:16:00Z</time></trkpt>
			<trkpt lat="54.623270" lon="22.206790"><ele>57.5</ele><time>2026-06-04T22:16:07Z</time></trkpt>
			<trkpt lat="54.624600" lon="22.206450"><ele>58.4</ele><time>2026-06-04T22:16:14Z</time></trkpt>
			<trkpt lat="54.625930" lon="22.206170"><ele>59.4</ele><time>2026-06-04T22:16:20Z</time></trkpt>
			<trkpt lat="54.626270" lon="22.206080"><ele>59.6</ele><time>2026-06-04T22:16:27Z</time></trkpt>
			<trkpt lat="54.627040" lon="22.205870"><ele>60.2</ele><time>2026-06-04T22:16:34Z</time></trkpt>
			<trkpt lat="54.629040" lon="22.205400"><ele>59.3</ele><time>2026-06-04T22:16:41Z</time></trkpt>
			<trkpt lat="54.630050" lon="22.205160"><ele>58.5</ele><time>2026-06-04T22:16:48Z</time></trkpt>
			<trkpt lat="54.630610" lon="22.205030"><ele>58.1</ele><time>2026-06-04T22:16:55Z</time></trkpt>
			<trkpt lat="54.630940" lon="22.204970"><ele>57.8</ele><time>2026-06-04T22:17:01Z</time></trkpt>
			<trkpt lat="54.632540" lon="22.204850"><ele>56.6</ele><time>2026-06-04T22:17:08Z</time></trkpt>
			<trkpt lat="54.633880" lon="22.204710"><ele>55.5</ele><time>2026-06-04T22:17:15Z</time></trkpt>
			<trkpt lat="54.635700" lon="22.204570"><ele>54.1</ele><time>2026-06-04T22:17:22Z</time></trkpt>
			<trkpt lat="54.636290" lon="22.204500"><ele>53.6</ele><time>2026-06-04T22:17:29Z</time></trkpt>
			<trkpt lat="54.637170" lon="22.204500"><ele>54.2</ele><time>2026-06-04T22:17:36Z</time></trkpt>
			<trkpt lat="54.637540" lon="22.204480"><ele>54.6</ele><time>2026-06-04T22:17:42Z</time></trkpt>
			<trkpt lat="54.637710" lon="22.204490"><ele>54.8</ele><time>2026-06-04T22:17:49Z</time></trkpt>
			<trkpt lat="54.638360" lon="22.204590"><ele>55.6</ele><time>2026-06-04T22:17:56Z</time></trkpt>
			<trkpt lat="54.639240" lon="22.204830"><ele>56.5</ele><time>2026-06-04T22:18:03Z</time></trkpt>
			<trkpt lat="54.641360" lon="22.205390"><ele>58.9</ele><time>2026-06-04T22:18:10Z</time></trkpt>
			<trkpt lat="54.643500" lon="22.205980"><ele>61.3</ele><time>2026-06-04T22:18:17Z</time></trkpt>
			<trkpt lat="54.646810" lon="22.206850"><ele>63.3</ele><time>2026-06-04T22:18:23Z</time></trkpt>
			<trkpt lat="54.648580" lon="22.207340"><ele>63.0</ele><time>2026-06-04T22:18:30Z</time></trkpt>
			<trkpt lat="54.651930" lon="22.208220"><ele>62.6</ele><time>2026-06-04T22:18:37Z</time></trkpt>
			<trkpt lat="54.654390" lon="22.208880"><ele>62.2</ele><time>2026-06-04T22:18:44Z</time></trkpt>
			<trkpt lat="54.654610" lon="22.208910"><ele>62.1</ele><time>2026-06-04T22:18:51Z</time></trkpt>
			<trkpt lat="54.654770" lon="22.208900"><ele>62.0</ele><time>2026-06-04T22:18:58Z</time></trkpt>
			<trkpt lat="54.655350" lon="22.208850"><ele>61.7</ele><time>2026-06-04T22:19:04Z</time></trkpt>
			<trkpt lat="54.659720" lon="22.207950"><ele>59.5</ele><time>2026-06-04T22:19:11Z</time></trkpt>
			<trkpt lat="54.661790" lon="22.207510"><ele>58.5</ele><time>2026-06-04T22:19:18Z</time></trkpt>
			<trkpt lat="54.664410" lon="22.206870"><ele>57.0</ele><time>2026-06-04T22:19:25Z</time></trkpt>
			<trkpt lat="54.666860" lon="22.206330"><ele>55.3</ele><time>2026-06-04T22:19:32Z</time></trkpt>
			<trkpt lat="54.669840" lon="22.205610"><ele>53.2</ele><time>2026-06-04T22:19:39Z</time></trkpt>
			<trkpt lat="54.670850" lon="22.205430"><ele>52.5</ele><time>2026-06-04T22:19:45Z</time></trkpt>
			<trkpt lat="54.673180" lon="22.205210"><ele>51.4</ele><time>2026-06-04T22:19:52Z</time></trkpt>
			<trkpt lat="54.674660" lon="22.205090"><ele>51.0</ele><time>2026-06-04T22:19:59Z</time></trkpt>
			<trkpt lat="54.676210" lon="22.204910"><ele>50.6</ele><time>2026-06-04T22:20:06Z</time></trkpt>
			<trkpt lat="54.677380" lon="22.204840"><ele>50.3</ele><time>2026-06-04T22:20:13Z</time></trkpt>
			<trkpt lat="54.677760" lon="22.204910"><ele>50.2</ele><time>2026-06-04T22:20:20Z</time></trkpt>
			<trkpt lat="54.678130" lon="22.205030"><ele>50.1</ele><time>2026-06-04T22:20:26Z</time></trkpt>
			<trkpt lat="54.678940" lon="22.205380"><ele>49.9</ele><time>2026-06-04T22:20:33Z</time></trkpt>
			<trkpt lat="54.679020" lon="22.205430"><ele>49.9</ele><time>2026-06-04T22:20:40Z</time></trkpt>
			<trkpt lat="54.680130" lon="22.205900"><ele>49.6</ele><time>2026-06-04T22:20:47Z</time></trkpt>
			<trkpt lat="54.681300" lon="22.206510"><ele>49.6</ele><time>2026-06-04T22:20:54Z</time></trkpt>
			<trkpt lat="54.681880" lon="22.206830"><ele>50.0</ele><time>2026-06-04T22:21:01Z</time></trkpt>
			<trkpt lat="54.682550" lon="22.207320"><ele>50.5</ele><time>2026-06-04T22:21:07Z</time></trkpt>
			<trkpt lat="54.687210" lon="22.210040"><ele>53.8</ele><time>2026-06-04T22:21:14Z</time></trkpt>
			<trkpt lat="54.693820" lon="22.213990"><ele>53.5</ele><time>2026-06-04T22:21:21Z</time></trkpt>
			<trkpt lat="54.705310" lon="22.220870"><ele>51.1</ele><time>2026-06-04T22:21:28Z</time></trkpt>
			<trkpt lat="54.707200" lon="22.222060"><ele>51.4</ele><time>2026-06-04T22:21:35Z</time></trkpt>
			<trkpt lat="54.707260" lon="22.222100"><ele>51.5</ele><time>2026-06-04T22:21:41Z</time></trkpt>
			<trkpt lat="54.707790" lon="22.222430"><ele>51.9</ele><time>2026-06-04T22:21:48Z</time></trkpt>
			<trkpt lat="54.709000" lon="22.223160"><ele>52.7</ele><time>2026-06-04T22:21:55Z</time></trkpt>
			<trkpt lat="54.709510" lon="22.223310"><ele>53.0</ele><time>2026-06-04T22:22:02Z</time></trkpt>
			<trkpt lat="54.711120" lon="22.223580"><ele>54.1</ele><time>2026-06-04T22:22:09Z</time></trkpt>
			<trkpt lat="54.713380" lon="22.223890"><ele>55.5</ele><time>2026-06-04T22:22:16Z</time></trkpt>
			<trkpt lat="54.713790" lon="22.224030"><ele>55.8</ele><time>2026-06-04T22:22:22Z</time></trkpt>
			<trkpt lat="54.714030" lon="22.224140"><ele>55.9</ele><time>2026-06-04T22:22:29Z</time></trkpt>
			<trkpt lat="54.714250" lon="22.224280"><ele>56.1</ele><time>2026-06-04T22:22:36Z</time></trkpt>
			<trkpt lat="54.714470" lon="22.224490"><ele>56.3</ele><time>2026-06-04T22:22:43Z</time></trkpt>
			<trkpt lat="54.716370" lon="22.226670"><ele>57.1</ele><time>2026-06-04T22:22:50Z</time></trkpt>
			<trkpt lat="54.718610" lon="22.229260"><ele>57.6</ele><time>2026-06-04T22:22:57Z</time></trkpt>
			<trkpt lat="54.720780" lon="22.231760"><ele>58.2</ele><time>2026-06-04T22:23:03Z</time></trkpt>
			<trkpt lat="54.720980" lon="22.231960"><ele>58.2</ele><time>2026-06-04T22:23:10Z</time></trkpt>
			<trkpt lat="54.721150" lon="22.232080"><ele>58.2</ele><time>2026-06-04T22:23:17Z</time></trkpt>
			<trkpt lat="54.721290" lon="22.232130"><ele>58.3</ele><time>2026-06-04T22:23:24Z</time></trkpt>
			<trkpt lat="54.721450" lon="22.232110"><ele>58.3</ele><time>2026-06-04T22:23:31Z</time></trkpt>
			<trkpt lat="54.721630" lon="22.232000"><ele>58.3</ele><time>2026-06-04T22:23:38Z</time></trkpt>
			<trkpt lat="54.721950" lon="22.231720"><ele>58.4</ele><time>2026-06-04T22:23:44Z</time></trkpt>
			<trkpt lat="54.722030" lon="22.231650"><ele>58.4</ele><time>2026-06-04T22:23:51Z</time></trkpt>
			<trkpt lat="54.722580" lon="22.231310"><ele>58.5</ele><time>2026-06-04T22:23:58Z</time></trkpt>
			<trkpt lat="54.722930" lon="22.231060"><ele>58.6</ele><time>2026-06-04T22:24:05Z</time></trkpt>
			<trkpt lat="54.723260" lon="22.230780"><ele>58.6</ele><time>2026-06-04T22:24:12Z</time></trkpt>
			<trkpt lat="54.723540" lon="22.230590"><ele>58.6</ele><time>2026-06-04T22:24:19Z</time></trkpt>
			<trkpt lat="54.723970" lon="22.230390"><ele>58.7</ele><time>2026-06-04T22:24:25Z</time></trkpt>
			<trkpt lat="54.724420" lon="22.230200"><ele>58.7</ele><time>2026-06-04T22:24:32Z</time></trkpt>
			<trkpt lat="54.725830" lon="22.229900"><ele>58.8</ele><time>2026-06-04T22:24:39Z</time></trkpt>
			<trkpt lat="54.726200" lon="22.229740"><ele>58.8</ele><time>2026-06-04T22:24:46Z</time></trkpt>
			<trkpt lat="54.726630" lon="22.229430"><ele>58.8</ele><time>2026-06-04T22:24:53Z</time></trkpt>
			<trkpt lat="54.727250" lon="22.229000"><ele>58.8</ele><time>2026-06-04T22:25:00Z</time></trkpt>
			<trkpt lat="54.727630" lon="22.228710"><ele>58.9</ele><time>2026-06-04T22:25:06Z</time></trkpt>
			<trkpt lat="54.727970" lon="22.228360"><ele>58.9</ele><time>2026-06-04T22:25:13Z</time></trkpt>
			<trkpt lat="54.728770" lon="22.227470"><ele>58.9</ele><time>2026-06-04T22:25:20Z</time></trkpt>
			<trkpt lat="54.729040" lon="22.227170"><ele>58.9</ele><time>2026-06-04T22:25:27Z</time></trkpt>
			<trkpt lat="54.729100" lon="22.227090"><ele>58.9</ele><time>2026-06-04T22:25:34Z</time></trkpt>
			<trkpt lat="54.729310" lon="22.226800"><ele>59.0</ele><time>2026-06-04T22:25:41Z</time></trkpt>
			<trkpt lat="54.729600" lon="22.226270"><ele>59.0</ele><time>2026-06-04T22:25:47Z</time></trkpt>
			<trkpt lat="54.729840" lon="22.225800"><ele>59.0</ele><time>2026-06-04T22:25:54Z</time></trkpt>
			<trkpt lat="54.730010" lon="22.225510"><ele>59.0</ele><time>2026-06-04T22:26:01Z</time></trkpt>
			<trkpt lat="54.730180" lon="22.225270"><ele>59.0</ele><time>2026-06-04T22:26:08Z</time></trkpt>
			<trkpt lat="54.730390" lon="22.225070"><ele>59.0</ele><time>2026-06-04T22:26:15Z</time></trkpt>
			<trkpt lat="54.730580" lon="22.224950"><ele>59.0</ele><time>2026-06-04T22:26:22Z</time></trkpt>
			<trkpt lat="54.731590" lon="22.224520"><ele>58.1</ele><time>2026-06-04T22:26:28Z</time></trkpt>
			<trkpt lat="54.734110" lon="22.223410"><ele>54.6</ele><time>2026-06-04T22:26:35Z</time></trkpt>
			<trkpt lat="54.734390" lon="22.223230"><ele>54.2</ele><time>2026-06-04T22:26:42Z</time></trkpt>
			<trkpt lat="54.734660" lon="22.222970"><ele>53.8</ele><time>2026-06-04T22:26:49Z</time></trkpt>
			<trkpt lat="54.735010" lon="22.222550"><ele>53.2</ele><time>2026-06-04T22:26:56Z</time></trkpt>
			<trkpt lat="54.735520" lon="22.221950"><ele>52.4</ele><time>2026-06-04T22:27:02Z</time></trkpt>
			<trkpt lat="54.741220" lon="22.215020"><ele>47.2</ele><time>2026-06-04T22:27:09Z</time></trkpt>
			<trkpt lat="54.743250" lon="22.212540"><ele>47.3</ele><time>2026-06-04T22:27:16Z</time></trkpt>
			<trkpt lat="54.743250" lon="22.212540"><ele>47.3</ele><time>2026-06-04T22:27:24Z</time></trkpt>
			<trkpt lat="54.745180" lon="22.210170"><ele>47.4</ele><time>2026-06-04T22:27:32Z</time></trkpt>
			<trkpt lat="54.745890" lon="22.209390"><ele>47.5</ele><time>2026-06-04T22:27:41Z</time></trkpt>
			<trkpt lat="54.748750" lon="22.207070"><ele>46.7</ele><time>2026-06-04T22:27:49Z</time></trkpt>
			<trkpt lat="54.765080" lon="22.194030"><ele>41.2</ele><time>2026-06-04T22:27:57Z</time></trkpt>
			<trkpt lat="54.765180" lon="22.193960"><ele>41.2</ele><time>2026-06-04T22:28:05Z</time></trkpt>
			<trkpt lat="54.772050" lon="22.188480"><ele>41.9</ele><time>2026-06-04T22:28:13Z</time></trkpt>
			<trkpt lat="54.775340" lon="22.185970"><ele>42.3</ele><time>2026-06-04T22:28:22Z</time></trkpt>
			<trkpt lat="54.779050" lon="22.183220"><ele>42.8</ele><time>2026-06-04T22:28:30Z</time></trkpt>
			<trkpt lat="54.779800" lon="22.182600"><ele>42.4</ele><time>2026-06-04T22:28:38Z</time></trkpt>
			<trkpt lat="54.780350" lon="22.182010"><ele>42.2</ele><time>2026-06-04T22:28:46Z</time></trkpt>
			<trkpt lat="54.780820" lon="22.181450"><ele>41.9</ele><time>2026-06-04T22:28:54Z</time></trkpt>
			<trkpt lat="54.781530" lon="22.180580"><ele>41.6</ele><time>2026-06-04T22:29:02Z</time></trkpt>
			<trkpt lat="54.785270" lon="22.175810"><ele>39.6</ele><time>2026-06-04T22:29:11Z</time></trkpt>
			<trkpt lat="54.787210" lon="22.173350"><ele>39.4</ele><time>2026-06-04T22:29:19Z</time></trkpt>
			<trkpt lat="54.787510" lon="22.172990"><ele>39.5</ele><time>2026-06-04T22:29:27Z</time></trkpt>
			<trkpt lat="54.787810" lon="22.172690"><ele>39.6</ele><time>2026-06-04T22:29:35Z</time></trkpt>
			<trkpt lat="54.788470" lon="22.172200"><ele>39.9</ele><time>2026-06-04T22:29:43Z</time></trkpt>
			<trkpt lat="54.788980" lon="22.171870"><ele>40.0</ele><time>2026-06-04T22:29:51Z</time></trkpt>
			<trkpt lat="54.789160" lon="22.171760"><ele>40.1</ele><time>2026-06-04T22:30:00Z</time></trkpt>
			<trkpt lat="54.789640" lon="22.171430"><ele>40.3</ele><time>2026-06-04T22:30:08Z</time></trkpt>
			<trkpt lat="54.790020" lon="22.171270"><ele>40.4</ele><time>2026-06-04T22:30:16Z</time></trkpt>
			<trkpt lat="54.790310" lon="22.171180"><ele>40.5</ele><time>2026-06-04T22:30:24Z</time></trkpt>
			<trkpt lat="54.790840" lon="22.171070"><ele>40.7</ele><time>2026-06-04T22:30:32Z</time></trkpt>
			<trkpt lat="54.792080" lon="22.170770"><ele>41.1</ele><time>2026-06-04T22:30:40Z</time></trkpt>
			<trkpt lat="54.795260" lon="22.169970"><ele>42.1</ele><time>2026-06-04T22:30:49Z</time></trkpt>
			<trkpt lat="54.795720" lon="22.169850"><ele>42.2</ele><time>2026-06-04T22:30:57Z</time></trkpt>
			<trkpt lat="54.796040" lon="22.169600"><ele>42.3</ele><time>2026-06-04T22:31:05Z</time></trkpt>
			<trkpt lat="54.796210" lon="22.169330"><ele>42.4</ele><time>2026-06-04T22:31:13Z</time></trkpt>
			<trkpt lat="54.796310" lon="22.169090"><ele>42.4</ele><time>2026-06-04T22:31:21Z</time></trkpt>
			<trkpt lat="54.797000" lon="22.166840"><ele>42.8</ele><time>2026-06-04T22:31:29Z</time></trkpt>
			<trkpt lat="54.798310" lon="22.162730"><ele>43.5</ele><time>2026-06-04T22:31:38Z</time></trkpt>
			<trkpt lat="54.798340" lon="22.162650"><ele>43.5</ele><time>2026-06-04T22:31:46Z</time></trkpt>
			<trkpt lat="54.800460" lon="22.155850"><ele>43.1</ele><time>2026-06-04T22:31:54Z</time></trkpt>
			<trkpt lat="54.800530" lon="22.155540"><ele>42.9</ele><time>2026-06-04T22:32:02Z</time></trkpt>
			<trkpt lat="54.800570" lon="22.155270"><ele>42.8</ele><time>2026-06-04T22:32:10Z</time></trkpt>
			<trkpt lat="54.800600" lon="22.154930"><ele>42.6</ele><time>2026-06-04T22:32:18Z</time></trkpt>
			<trkpt lat="54.800870" lon="22.149360"><ele>39.9</ele><time>2026-06-04T22:32:27Z</time></trkpt>
			<trkpt lat="54.800930" lon="22.148420"><ele>39.4</ele><time>2026-06-04T22:32:35Z</time></trkpt>
			<trkpt lat="54.801100" lon="22.146350"><ele>38.4</ele><time>2026-06-04T22:32:43Z</time></trkpt>
			<trkpt lat="54.801140" lon="22.146040"><ele>38.2</ele><time>2026-06-04T22:32:51Z</time></trkpt>
			<trkpt lat="54.801200" lon="22.145360"><ele>37.9</ele><time>2026-06-04T22:32:59Z</time></trkpt>
			<trkpt lat="54.801240" lon="22.145130"><ele>37.8</ele><time>2026-06-04T22:33:07Z</time></trkpt>
			<trkpt lat="54.801290" lon="22.144930"><ele>37.7</ele><time>2026-06-04T22:33:16Z</time></trkpt>
			<trkpt lat="54.801480" lon="22.144280"><ele>37.3</ele><time>2026-06-04T22:33:24Z</time></trkpt>
			<trkpt lat="54.801710" lon="22.143520"><ele>36.9</ele><time>2026-06-04T22:33:32Z</time></trkpt>
			<trkpt lat="54.801840" lon="22.143010"><ele>36.6</ele><time>2026-06-04T22:33:40Z</time></trkpt>
			<trkpt lat="54.801920" lon="22.142580"><ele>36.5</ele><time>2026-06-04T22:33:48Z</time></trkpt>
			<trkpt lat="54.802050" lon="22.142110"><ele>36.4</ele><time>2026-06-04T22:33:56Z</time></trkpt>
			<trkpt lat="54.802120" lon="22.141950"><ele>36.3</ele><time>2026-06-04T22:34:05Z</time></trkpt>
			<trkpt lat="54.802240" lon="22.141760"><ele>36.2</ele><time>2026-06-04T22:34:13Z</time></trkpt>
			<trkpt lat="54.802380" lon="22.141510"><ele>36.2</ele><time>2026-06-04T22:34:21Z</time></trkpt>
			<trkpt lat="54.802510" lon="22.141250"><ele>36.1</ele><time>2026-06-04T22:34:29Z</time></trkpt>
			<trkpt lat="54.802730" lon="22.140720"><ele>35.9</ele><time>2026-06-04T22:34:37Z</time></trkpt>
			<trkpt lat="54.803490" lon="22.139250"><ele>35.5</ele><time>2026-06-04T22:34:46Z</time></trkpt>
			<trkpt lat="54.804070" lon="22.138080"><ele>35.2</ele><time>2026-06-04T22:34:54Z</time></trkpt>
			<trkpt lat="54.809270" lon="22.127930"><ele>31.5</ele><time>2026-06-04T22:35:02Z</time></trkpt>
			<trkpt lat="54.811470" lon="22.123740"><ele>29.4</ele><time>2026-06-04T22:35:10Z</time></trkpt>
			<trkpt lat="54.814520" lon="22.118520"><ele>25.9</ele><time>2026-06-04T22:35:18Z</time></trkpt>
			<trkpt lat="54.817170" lon="22.113890"><ele>20.7</ele><time>2026-06-04T22:35:26Z</time></trkpt>
			<trkpt lat="54.817980" lon="22.112590"><ele>19.1</ele><time>2026-06-04T22:35:35Z</time></trkpt>
			<trkpt lat="54.818490" lon="22.111670"><ele>18.1</ele><time>2026-06-04T22:35:43Z</time></trkpt>
			<trkpt lat="54.824500" lon="22.101340"><ele>15.3</ele><time>2026-06-04T22:35:51Z</time></trkpt>
			<trkpt lat="54.824570" lon="22.101220"><ele>15.4</ele><time>2026-06-04T22:35:59Z</time></trkpt>
			<trkpt lat="54.825950" lon="22.098830"><ele>15.6</ele><time>2026-06-04T22:36:07Z</time></trkpt>
			<trkpt lat="54.826140" lon="22.098510"><ele>15.6</ele><time>2026-06-04T22:36:15Z</time></trkpt>
			<trkpt lat="54.826660" lon="22.097600"><ele>15.7</ele><time>2026-06-04T22:36:24Z</time></trkpt>
			<trkpt lat="54.826760" lon="22.097380"><ele>15.7</ele><time>2026-06-04T22:36:32Z</time></trkpt>
			<trkpt lat="54.826820" lon="22.097140"><ele>15.7</ele><time>2026-06-04T22:36:40Z</time></trkpt>
			<trkpt lat="54.826840" lon="22.096960"><ele>15.7</ele><time>2026-06-04T22:36:48Z</time></trkpt>
			<trkpt lat="54.826850" lon="22.096770"><ele>15.7</ele><time>2026-06-04T22:36:56Z</time></trkpt>
			<trkpt lat="54.826830" lon="22.096530"><ele>15.7</ele><time>2026-06-04T22:37:04Z</time></trkpt>
			<trkpt lat="54.826820" lon="22.096440"><ele>15.7</ele><time>2026-06-04T22:37:13Z</time></trkpt>
			<trkpt lat="54.826770" lon="22.096140"><ele>15.7</ele><time>2026-06-04T22:37:21Z</time></trkpt>
			<trkpt lat="54.826280" lon="22.093800"><ele>15.6</ele><time>2026-06-04T22:37:29Z</time></trkpt>
			<trkpt lat="54.826230" lon="22.093380"><ele>15.6</ele><time>2026-06-04T22:37:37Z</time></trkpt>
			<trkpt lat="54.826220" lon="22.093020"><ele>15.6</ele><time>2026-06-04T22:37:45Z</time></trkpt>
			<trkpt lat="54.826280" lon="22.090200"><ele>15.6</ele><time>2026-06-04T22:37:53Z</time></trkpt>
			<trkpt lat="54.826250" lon="22.090050"><ele>15.6</ele><time>2026-06-04T22:38:02Z</time></trkpt>
			<trkpt lat="54.826240" lon="22.089900"><ele>15.6</ele><time>2026-06-04T22:38:10Z</time></trkpt>
			<trkpt lat="54.826230" lon="22.089110"><ele>15.6</ele><time>2026-06-04T22:38:18Z</time></trkpt>
			<trkpt lat="54.826160" lon="22.088660"><ele>15.6</ele><time>2026-06-04T22:38:26Z</time></trkpt>
			<trkpt lat="54.826060" lon="22.088730"><ele>15.6</ele><time>2026-06-04T22:38:34Z</time></trkpt>
			<trkpt lat="54.825860" lon="22.088800"><ele>15.6</ele><time>2026-06-04T22:38:42Z</time></trkpt>
			<trkpt lat="54.825790" lon="22.088780"><ele>15.6</ele><time>2026-06-04T22:38:51Z</time></trkpt>
			<trkpt lat="54.825730" lon="22.088730"><ele>15.6</ele><time>2026-06-04T22:38:59Z</time></trkpt>
			<trkpt lat="54.825650" lon="22.088530"><ele>15.6</ele><time>2026-06-04T22:39:07Z</time></trkpt>
			<trkpt lat="54.825330" lon="22.087560"><ele>15.6</ele><time>2026-06-04T22:39:15Z</time></trkpt>
			<trkpt lat="54.824630" lon="22.085720"><ele>15.6</ele><time>2026-06-04T22:39:23Z</time></trkpt>
			<trkpt lat="54.823780" lon="22.083630"><ele>15.6</ele><time>2026-06-04T22:39:31Z</time></trkpt>
			<trkpt lat="54.823440" lon="22.082730"><ele>15.7</ele><time>2026-06-04T22:39:40Z</time></trkpt>
			<trkpt lat="54.823180" lon="22.081910"><ele>15.7</ele><time>2026-06-04T22:39:48Z</time></trkpt>
			<trkpt lat="54.823030" lon="22.081420"><ele>15.7</ele><time>2026-06-04T22:39:56Z</time></trkpt>
			<trkpt lat="54.822840" lon="22.080830"><ele>15.8</ele><time>2026-06-04T22:40:04Z</time></trkpt>
			<trkpt lat="54.821900" lon="22.077920"><ele>15.9</ele><time>2026-06-04T22:40:12Z</time></trkpt>
			<trkpt lat="54.821900" lon="22.077920"><ele>15.9</ele><time>2026-06-04T22:40:21Z</time></trkpt>
			<trkpt lat="54.821130" lon="22.075560"><ele>16.1</ele><time>2026-06-04T22:40:29Z</time></trkpt>
			<trkpt lat="54.820860" lon="22.074730"><ele>16.1</ele><time>2026-06-04T22:40:37Z</time></trkpt>
			<trkpt lat="54.820470" lon="22.073450"><ele>16.2</ele><time>2026-06-04T22:40:46Z</time></trkpt>
			<trkpt lat="54.820230" lon="22.072750"><ele>16.2</ele><time>2026-06-04T22:40:54Z</time></trkpt>
			<trkpt lat="54.818280" lon="22.066720"><ele>18.0</ele><time>2026-06-04T22:41:02Z</time></trkpt>
			<trkpt lat="54.816350" lon="22.060680"><ele>20.5</ele><time>2026-06-04T22:41:11Z</time></trkpt>
			<trkpt lat="54.816200" lon="22.060200"><ele>20.7</ele><time>2026-06-04T22:41:19Z</time></trkpt>
			<trkpt lat="54.816060" lon="22.059810"><ele>20.9</ele><time>2026-06-04T22:41:27Z</time></trkpt>
			<trkpt lat="54.815900" lon="22.059520"><ele>21.0</ele><time>2026-06-04T22:41:36Z</time></trkpt>
			<trkpt lat="54.815730" lon="22.059230"><ele>21.2</ele><time>2026-06-04T22:41:44Z</time></trkpt>
			<trkpt lat="54.815240" lon="22.058500"><ele>21.6</ele><time>2026-06-04T22:41:52Z</time></trkpt>
			<trkpt lat="54.814560" lon="22.057530"><ele>22.1</ele><time>2026-06-04T22:42:01Z</time></trkpt>
			<trkpt lat="54.814210" lon="22.056950"><ele>22.4</ele><time>2026-06-04T22:42:09Z</time></trkpt>
			<trkpt lat="54.813880" lon="22.056350"><ele>22.6</ele><time>2026-06-04T22:42:17Z</time></trkpt>
			<trkpt lat="54.813130" lon="22.054810"><ele>23.3</ele><time>2026-06-04T22:42:26Z</time></trkpt>
			<trkpt lat="54.812800" lon="22.054190"><ele>23.6</ele><time>2026-06-04T22:42:34Z</time></trkpt>
			<trkpt lat="54.812510" lon="22.053600"><ele>23.8</ele><time>2026-06-04T22:42:42Z</time></trkpt>
			<trkpt lat="54.812250" lon="22.053180"><ele>24.0</ele><time>2026-06-04T22:42:51Z</time></trkpt>
			<trkpt lat="54.811890" lon="22.052680"><ele>24.3</ele><time>2026-06-04T22:42:59Z</time></trkpt>
			<trkpt lat="54.810700" lon="22.051210"><ele>25.1</ele><time>2026-06-04T22:43:07Z</time></trkpt>
			<trkpt lat="54.810070" lon="22.050480"><ele>25.5</ele><time>2026-06-04T22:43:16Z</time></trkpt>
			<trkpt lat="54.808580" lon="22.048780"><ele>26.5</ele><time>2026-06-04T22:43:24Z</time></trkpt>
			<trkpt lat="54.803260" lon="22.042590"><ele>23.2</ele><time>2026-06-04T22:43:32Z</time></trkpt>
			<trkpt lat="54.802960" lon="22.042220"><ele>22.9</ele><time>2026-06-04T22:43:41Z</time></trkpt>
			<trkpt lat="54.802650" lon="22.041660"><ele>22.6</ele><time>2026-06-04T22:43:49Z</time></trkpt>
			<trkpt lat="54.801650" lon="22.039930"><ele>21.6</ele><time>2026-06-04T22:43:57Z</time></trkpt>
			<trkpt lat="54.800290" lon="22.037640"><ele>20.8</ele><time>2026-06-04T22:44:06Z</time></trkpt>
			<trkpt lat="54.797980" lon="22.033640"><ele>21.5</ele><time>2026-06-04T22:44:14Z</time></trkpt>
			<trkpt lat="54.793130" lon="22.025100"><ele>21.8</ele><time>2026-06-04T22:44:23Z</time></trkpt>
			<trkpt lat="54.792430" lon="22.023760"><ele>21.2</ele><time>2026-06-04T22:44:31Z</time></trkpt>
			<trkpt lat="54.790750" lon="22.019960"><ele>19.7</ele><time>2026-06-04T22:44:39Z</time></trkpt>
			<trkpt lat="54.788040" lon="22.014130"><ele>17.2</ele><time>2026-06-04T22:44:48Z</time></trkpt>
			<trkpt lat="54.786820" lon="22.011890"><ele>16.1</ele><time>2026-06-04T22:44:56Z</time></trkpt>
			<trkpt lat="54.783560" lon="22.006140"><ele>13.3</ele><time>2026-06-04T22:45:04Z</time></trkpt>
			<trkpt lat="54.782130" lon="22.003580"><ele>12.5</ele><time>2026-06-04T22:45:13Z</time></trkpt>
			<trkpt lat="54.781490" lon="22.002210"><ele>13.3</ele><time>2026-06-04T22:45:21Z</time></trkpt>
			<trkpt lat="54.781220" lon="22.001200"><ele>13.9</ele><time>2026-06-04T22:45:29Z</time></trkpt>
			<trkpt lat="54.780610" lon="21.998630"><ele>15.2</ele><time>2026-06-04T22:45:38Z</time></trkpt>
			<trkpt lat="54.780230" lon="21.996970"><ele>16.1</ele><time>2026-06-04T22:45:46Z</time></trkpt>
			<trkpt lat="54.779700" lon="21.994990"><ele>17.1</ele><time>2026-06-04T22:45:54Z</time></trkpt>
			<trkpt lat="54.779260" lon="21.993960"><ele>17.8</ele><time>2026-06-04T22:46:03Z</time></trkpt>
			<trkpt lat="54.777510" lon="21.990470"><ele>19.7</ele><time>2026-06-04T22:46:11Z</time></trkpt>
			<trkpt lat="54.777250" lon="21.989710"><ele>19.5</ele><time>2026-06-04T22:46:19Z</time></trkpt>
			<trkpt lat="54.775700" lon="21.986940"><ele>18.8</ele><time>2026-06-04T22:46:28Z</time></trkpt>
			<trkpt lat="54.775290" lon="21.986120"><ele>18.6</ele><time>2026-06-04T22:46:36Z</time></trkpt>
			<trkpt lat="54.774700" lon="21.984220"><ele>18.1</ele><time>2026-06-04T22:46:44Z</time></trkpt>
			<trkpt lat="54.773900" lon="21.981810"><ele>17.6</ele><time>2026-06-04T22:46:53Z</time></trkpt>
			<trkpt lat="54.773590" lon="21.981080"><ele>17.4</ele><time>2026-06-04T22:47:01Z</time></trkpt>
			<trkpt lat="54.771870" lon="21.977430"><ele>16.7</ele><time>2026-06-04T22:47:09Z</time></trkpt>
			<trkpt lat="54.771100" lon="21.975470"><ele>16.6</ele><time>2026-06-04T22:47:18Z</time></trkpt>
			<trkpt lat="54.770470" lon="21.973670"><ele>16.5</ele><time>2026-06-04T22:47:26Z</time></trkpt>
			<trkpt lat="54.770270" lon="21.972880"><ele>16.5</ele><time>2026-06-04T22:47:34Z</time></trkpt>
			<trkpt lat="54.770020" lon="21.972170"><ele>16.5</ele><time>2026-06-04T22:47:43Z</time></trkpt>
			<trkpt lat="54.769380" lon="21.970270"><ele>16.4</ele><time>2026-06-04T22:47:51Z</time></trkpt>
			<trkpt lat="54.769170" lon="21.969890"><ele>16.4</ele><time>2026-06-04T22:47:59Z</time></trkpt>
			<trkpt lat="54.768630" lon="21.969040"><ele>16.4</ele><time>2026-06-04T22:48:08Z</time></trkpt>
			<trkpt lat="54.768380" lon="21.968550"><ele>16.3</ele><time>2026-06-04T22:48:16Z</time></trkpt>
			<trkpt lat="54.767840" lon="21.967410"><ele>16.3</ele><time>2026-06-04T22:48:24Z</time></trkpt>
			<trkpt lat="54.767500" lon="21.966750"><ele>16.3</ele><time>2026-06-04T22:48:33Z</time></trkpt>
			<trkpt lat="54.766970" lon="21.965810"><ele>16.2</ele><time>2026-06-04T22:48:41Z</time></trkpt>
			<trkpt lat="54.766720" lon="21.965530"><ele>16.3</ele><time>2026-06-04T22:48:49Z</time></trkpt>
			<trkpt lat="54.766050" lon="21.965060"><ele>16.3</ele><time>2026-06-04T22:48:58Z</time></trkpt>
			<trkpt lat="54.765400" lon="21.964540"><ele>16.4</ele><time>2026-06-04T22:49:06Z</time></trkpt>
			<trkpt lat="54.765070" lon="21.964160"><ele>16.5</ele><time>2026-06-04T22:49:14Z</time></trkpt>
			<trkpt lat="54.762610" lon="21.960380"><ele>16.8</ele><time>2026-06-04T22:49:23Z</time></trkpt>
			<trkpt lat="54.759240" lon="21.955150"><ele>17.1</ele><time>2026-06-04T22:49:31Z</time></trkpt>
			<trkpt lat="54.754900" lon="21.948550"><ele>16.2</ele><time>2026-06-04T22:49:39Z</time></trkpt>
			<trkpt lat="54.753090" lon="21.945460"><ele>15.8</ele><time>2026-06-04T22:49:48Z</time></trkpt>
			<trkpt lat="54.750720" lon="21.942800"><ele>15.3</ele><time>2026-06-04T22:49:56Z</time></trkpt>
			<trkpt lat="54.750500" lon="21.942480"><ele>15.2</ele><time>2026-06-04T22:50:04Z</time></trkpt>
			<trkpt lat="54.750390" lon="21.942220"><ele>15.2</ele><time>2026-06-04T22:50:13Z</time></trkpt>
			<trkpt lat="54.749960" lon="21.941110"><ele>15.1</ele><time>2026-06-04T22:50:21Z</time></trkpt>
			<trkpt lat="54.749830" lon="21.940840"><ele>15.0</ele><time>2026-06-04T22:50:29Z</time></trkpt>
			<trkpt lat="54.749690" lon="21.940640"><ele>15.0</ele><time>2026-06-04T22:50:38Z</time></trkpt>
			<trkpt lat="54.749060" lon="21.939920"><ele>14.8</ele><time>2026-06-04T22:50:46Z</time></trkpt>
			<trkpt lat="54.747990" lon="21.938790"><ele>14.6</ele><time>2026-06-04T22:50:55Z</time></trkpt>
			<trkpt lat="54.746260" lon="21.936830"><ele>14.2</ele><time>2026-06-04T22:51:03Z</time></trkpt>
			<trkpt lat="54.744240" lon="21.934330"><ele>14.6</ele><time>2026-06-04T22:51:11Z</time></trkpt>
			<trkpt lat="54.743250" lon="21.932800"><ele>14.9</ele><time>2026-06-04T22:51:20Z</time></trkpt>
			<trkpt lat="54.742350" lon="21.930620"><ele>15.2</ele><time>2026-06-04T22:51:28Z</time></trkpt>
			<trkpt lat="54.741940" lon="21.930010"><ele>15.3</ele><time>2026-06-04T22:51:36Z</time></trkpt>
			<trkpt lat="54.738870" lon="21.925670"><ele>16.5</ele><time>2026-06-04T22:51:45Z</time></trkpt>
			<trkpt lat="54.738290" lon="21.924910"><ele>17.2</ele><time>2026-06-04T22:51:53Z</time></trkpt>
			<trkpt lat="54.736140" lon="21.921850"><ele>19.9</ele><time>2026-06-04T22:52:01Z</time></trkpt>
			<trkpt lat="54.735320" lon="21.920380"><ele>21.0</ele><time>2026-06-04T22:52:10Z</time></trkpt>
			<trkpt lat="54.733320" lon="21.916640"><ele>23.9</ele><time>2026-06-04T22:52:18Z</time></trkpt>
			<trkpt lat="54.733080" lon="21.916300"><ele>24.1</ele><time>2026-06-04T22:52:26Z</time></trkpt>
			<trkpt lat="54.732280" lon="21.915220"><ele>23.9</ele><time>2026-06-04T22:52:35Z</time></trkpt>
			<trkpt lat="54.730960" lon="21.913510"><ele>22.7</ele><time>2026-06-04T22:52:43Z</time></trkpt>
			<trkpt lat="54.730870" lon="21.913410"><ele>22.6</ele><time>2026-06-04T22:52:51Z</time></trkpt>
			<trkpt lat="54.730780" lon="21.913360"><ele>22.6</ele><time>2026-06-04T22:53:00Z</time></trkpt>
			<trkpt lat="54.729510" lon="21.912810"><ele>21.6</ele><time>2026-06-04T22:53:08Z</time></trkpt>
			<trkpt lat="54.728350" lon="21.912330"><ele>20.7</ele><time>2026-06-04T22:53:16Z</time></trkpt>
			<trkpt lat="54.728290" lon="21.912330"><ele>20.7</ele><time>2026-06-04T22:53:25Z</time></trkpt>
			<trkpt lat="54.728140" lon="21.912310"><ele>20.6</ele><time>2026-06-04T22:53:33Z</time></trkpt>
			<trkpt lat="54.727960" lon="21.912330"><ele>20.4</ele><time>2026-06-04T22:53:41Z</time></trkpt>
			<trkpt lat="54.727170" lon="21.912470"><ele>19.8</ele><time>2026-06-04T22:53:50Z</time></trkpt>
			<trkpt lat="54.726370" lon="21.912700"><ele>19.2</ele><time>2026-06-04T22:53:58Z</time></trkpt>
			<trkpt lat="54.726030" lon="21.912470"><ele>19.0</ele><time>2026-06-04T22:54:06Z</time></trkpt>
			<trkpt lat="54.725880" lon="21.912350"><ele>18.8</ele><time>2026-06-04T22:54:15Z</time></trkpt>
			<trkpt lat="54.725620" lon="21.912110"><ele>18.6</ele><time>2026-06-04T22:54:23Z</time></trkpt>
			<trkpt lat="54.725260" lon="21.911790"><ele>18.3</ele><time>2026-06-04T22:54:31Z</time></trkpt>
			<trkpt lat="54.725050" lon="21.911570"><ele>18.1</ele><time>2026-06-04T22:54:40Z</time></trkpt>
			<trkpt lat="54.724900" lon="21.911420"><ele>18.0</ele><time>2026-06-04T22:54:48Z</time></trkpt>
			<trkpt lat="54.724000" lon="21.910630"><ele>17.8</ele><time>2026-06-04T22:54:56Z</time></trkpt>
			<trkpt lat="54.723830" lon="21.910460"><ele>17.8</ele><time>2026-06-04T22:55:05Z</time></trkpt>
			<trkpt lat="54.722600" lon="21.909500"><ele>17.8</ele><time>2026-06-04T22:55:13Z</time></trkpt>
			<trkpt lat="54.722250" lon="21.909220"><ele>17.8</ele><time>2026-06-04T22:55:21Z</time></trkpt>
			<trkpt lat="54.721770" lon="21.908830"><ele>17.8</ele><time>2026-06-04T22:55:30Z</time></trkpt>
			<trkpt lat="54.721050" lon="21.908300"><ele>17.8</ele><time>2026-06-04T22:55:38Z</time></trkpt>
			<trkpt lat="54.718770" lon="21.906840"><ele>17.8</ele><time>2026-06-04T22:55:46Z</time></trkpt>
			<trkpt lat="54.718210" lon="21.906430"><ele>17.8</ele><time>2026-06-04T22:55:55Z</time></trkpt>
			<trkpt lat="54.716850" lon="21.905040"><ele>17.8</ele><time>2026-06-04T22:56:03Z</time></trkpt>
			<trkpt lat="54.714900" lon="21.903520"><ele>18.7</ele><time>2026-06-04T22:56:11Z</time></trkpt>
			<trkpt lat="54.711450" lon="21.900990"><ele>20.7</ele><time>2026-06-04T22:56:20Z</time></trkpt>
			<trkpt lat="54.711380" lon="21.900940"><ele>20.8</ele><time>2026-06-04T22:56:28Z</time></trkpt>
			<trkpt lat="54.710520" lon="21.899940"><ele>21.3</ele><time>2026-06-04T22:56:36Z</time></trkpt>
			<trkpt lat="54.709680" lon="21.898070"><ele>22.0</ele><time>2026-06-04T22:56:45Z</time></trkpt>
			<trkpt lat="54.709100" lon="21.895500"><ele>22.4</ele><time>2026-06-04T22:56:53Z</time></trkpt>
			<trkpt lat="54.708790" lon="21.894520"><ele>22.1</ele><time>2026-06-04T22:57:01Z</time></trkpt>
			<trkpt lat="54.708440" lon="21.893680"><ele>21.9</ele><time>2026-06-04T22:57:10Z</time></trkpt>
			<trkpt lat="54.707640" lon="21.892370"><ele>21.5</ele><time>2026-06-04T22:57:18Z</time></trkpt>
			<trkpt lat="54.707190" lon="21.891830"><ele>21.3</ele><time>2026-06-04T22:57:27Z</time></trkpt>
			<trkpt lat="54.706770" lon="21.891340"><ele>21.1</ele><time>2026-06-04T22:57:35Z</time></trkpt>
			<trkpt lat="54.706310" lon="21.890600"><ele>20.8</ele><time>2026-06-04T22:57:43Z</time></trkpt>
			<trkpt lat="54.705360" lon="21.888690"><ele>20.2</ele><time>2026-06-04T22:57:52Z</time></trkpt>
			<trkpt lat="54.704960" lon="21.887750"><ele>20.0</ele><time>2026-06-04T22:58:00Z</time></trkpt>
			<trkpt lat="54.704600" lon="21.886850"><ele>19.7</ele><time>2026-06-04T22:58:08Z</time></trkpt>
			<trkpt lat="54.704390" lon="21.886260"><ele>19.6</ele><time>2026-06-04T22:58:17Z</time></trkpt>
			<trkpt lat="54.704260" lon="21.885680"><ele>19.4</ele><time>2026-06-04T22:58:25Z</time></trkpt>
			<trkpt lat="54.702830" lon="21.878060"><ele>18.3</ele><time>2026-06-04T22:58:33Z</time></trkpt>
			<trkpt lat="54.701950" lon="21.875860"><ele>17.9</ele><time>2026-06-04T22:58:42Z</time></trkpt>
			<trkpt lat="54.701430" lon="21.874840"><ele>17.8</ele><time>2026-06-04T22:58:50Z</time></trkpt>
			<trkpt lat="54.698290" lon="21.869830"><ele>17.1</ele><time>2026-06-04T22:58:58Z</time></trkpt>
			<trkpt lat="54.697460" lon="21.868550"><ele>17.0</ele><time>2026-06-04T22:59:07Z</time></trkpt>
			<trkpt lat="54.696670" lon="21.867030"><ele>16.9</ele><time>2026-06-04T22:59:15Z</time></trkpt>
			<trkpt lat="54.695450" lon="21.864520"><ele>16.8</ele><time>2026-06-04T22:59:23Z</time></trkpt>
			<trkpt lat="54.694960" lon="21.863700"><ele>16.8</ele><time>2026-06-04T22:59:32Z</time></trkpt>
			<trkpt lat="54.692760" lon="21.860670"><ele>16.6</ele><time>2026-06-04T22:59:40Z</time></trkpt>
			<trkpt lat="54.692490" lon="21.860070"><ele>16.7</ele><time>2026-06-04T22:59:48Z</time></trkpt>
			<trkpt lat="54.692330" lon="21.859500"><ele>16.8</ele><time>2026-06-04T22:59:57Z</time></trkpt>
			<trkpt lat="54.691750" lon="21.855830"><ele>17.2</ele><time>2026-06-04T23:00:05Z</time></trkpt>
			<trkpt lat="54.691630" lon="21.855090"><ele>17.3</ele><time>2026-06-04T23:00:13Z</time></trkpt>
			<trkpt lat="54.691210" lon="21.853570"><ele>17.5</ele><time>2026-06-04T23:00:22Z</time></trkpt>
			<trkpt lat="54.690990" lon="21.853180"><ele>17.6</ele><time>2026-06-04T23:00:30Z</time></trkpt>
			<trkpt lat="54.690790" lon="21.852830"><ele>17.6</ele><time>2026-06-04T23:00:38Z</time></trkpt>
			<trkpt lat="54.690380" lon="21.852200"><ele>17.8</ele><time>2026-06-04T23:00:47Z</time></trkpt>
			<trkpt lat="54.689460" lon="21.850520"><ele>18.0</ele><time>2026-06-04T23:00:55Z</time></trkpt>
			<trkpt lat="54.687330" lon="21.848590"><ele>18.4</ele><time>2026-06-04T23:01:03Z</time></trkpt>
			<trkpt lat="54.686390" lon="21.847450"><ele>18.1</ele><time>2026-06-04T23:01:12Z</time></trkpt>
			<trkpt lat="54.682620" lon="21.845950"><ele>17.2</ele><time>2026-06-04T23:01:20Z</time></trkpt>
			<trkpt lat="54.681730" lon="21.845820"><ele>17.0</ele><time>2026-06-04T23:01:28Z</time></trkpt>
			<trkpt lat="54.681140" lon="21.845370"><ele>16.9</ele><time>2026-06-04T23:01:37Z</time></trkpt>
			<trkpt lat="54.679290" lon="21.843680"><ele>16.4</ele><time>2026-06-04T23:01:45Z</time></trkpt>
			<trkpt lat="54.678220" lon="21.842590"><ele>16.1</ele><time>2026-06-04T23:01:53Z</time></trkpt>
			<trkpt lat="54.677070" lon="21.841210"><ele>15.9</ele><time>2026-06-04T23:02:02Z</time></trkpt>
			<trkpt lat="54.676330" lon="21.839790"><ele>15.7</ele><time>2026-06-04T23:02:10Z</time></trkpt>
			<trkpt lat="54.675700" lon="21.838720"><ele>15.5</ele><time>2026-06-04T23:02:18Z</time></trkpt>
			<trkpt lat="54.674250" lon="21.836380"><ele>15.2</ele><time>2026-06-04T23:02:27Z</time></trkpt>
			<trkpt lat="54.673200" lon="21.833940"><ele>14.8</ele><time>2026-06-04T23:02:35Z</time></trkpt>
			<trkpt lat="54.671210" lon="21.830560"><ele>15.3</ele><time>2026-06-04T23:02:43Z</time></trkpt>
			<trkpt lat="54.669650" lon="21.827430"><ele>15.9</ele><time>2026-06-04T23:02:52Z</time></trkpt>
			<trkpt lat="54.669300" lon="21.826690"><ele>16.0</ele><time>2026-06-04T23:03:00Z</time></trkpt>
			<trkpt lat="54.667000" lon="21.821970"><ele>17.0</ele><time>2026-06-04T23:03:08Z</time></trkpt>
			<trkpt lat="54.664460" lon="21.816950"><ele>17.1</ele><time>2026-06-04T23:03:17Z</time></trkpt>
			<trkpt lat="54.663730" lon="21.815450"><ele>17.1</ele><time>2026-06-04T23:03:25Z</time></trkpt>
			<trkpt lat="54.663330" lon="21.814590"><ele>17.1</ele><time>2026-06-04T23:03:33Z</time></trkpt>
			<trkpt lat="54.662960" lon="21.813730"><ele>17.1</ele><time>2026-06-04T23:03:42Z</time></trkpt>
			<trkpt lat="54.662910" lon="21.813610"><ele>17.1</ele><time>2026-06-04T23:03:50Z</time></trkpt>
			<trkpt lat="54.662670" lon="21.812660"><ele>17.1</ele><time>2026-06-04T23:03:59Z</time></trkpt>
			<trkpt lat="54.662380" lon="21.811730"><ele>17.1</ele><time>2026-06-04T23:04:07Z</time></trkpt>
			<trkpt lat="54.662100" lon="21.810880"><ele>17.1</ele><time>2026-06-04T23:04:15Z</time></trkpt>
			<trkpt lat="54.661830" lon="21.810190"><ele>17.2</ele><time>2026-06-04T23:04:24Z</time></trkpt>
			<trkpt lat="54.661630" lon="21.809710"><ele>17.2</ele><time>2026-06-04T23:04:32Z</time></trkpt>
			<trkpt lat="54.661480" lon="21.809370"><ele>17.2</ele><time>2026-06-04T23:04:40Z</time></trkpt>
			<trkpt lat="54.660160" lon="21.806840"><ele>16.8</ele><time>2026-06-04T23:04:49Z</time></trkpt>
			<trkpt lat="54.660030" lon="21.807300"><ele>16.7</ele><time>2026-06-04T23:04:57Z</time></trkpt>
			<trkpt lat="54.659770" lon="21.808040"><ele>16.6</ele><time>2026-06-04T23:05:05Z</time></trkpt>
			<trkpt lat="54.659620" lon="21.808440"><ele>16.6</ele><time>2026-06-04T23:05:14Z</time></trkpt>
			<trkpt lat="54.659420" lon="21.808910"><ele>16.5</ele><time>2026-06-04T23:05:22Z</time></trkpt>
			<trkpt lat="54.659080" lon="21.809620"><ele>16.4</ele><time>2026-06-04T23:05:30Z</time></trkpt>
			<trkpt lat="54.658610" lon="21.810510"><ele>16.3</ele><time>2026-06-04T23:05:39Z</time></trkpt>
			<trkpt lat="54.658460" lon="21.810750"><ele>16.2</ele><time>2026-06-04T23:05:47Z</time></trkpt>
			<trkpt lat="54.658380" lon="21.810860"><ele>16.2</ele><time>2026-06-04T23:05:55Z</time></trkpt>
			<trkpt lat="54.658200" lon="21.811090"><ele>16.2</ele><time>2026-06-04T23:06:04Z</time></trkpt>
			<trkpt lat="54.658030" lon="21.811280"><ele>16.1</ele><time>2026-06-04T23:06:12Z</time></trkpt>
			<trkpt lat="54.657740" lon="21.811540"><ele>16.1</ele><time>2026-06-04T23:06:20Z</time></trkpt>
			<trkpt lat="54.657600" lon="21.811630"><ele>16.0</ele><time>2026-06-04T23:06:29Z</time></trkpt>
			<trkpt lat="54.657380" lon="21.811740"><ele>16.0</ele><time>2026-06-04T23:06:37Z</time></trkpt>
			<trkpt lat="54.656400" lon="21.812130"><ele>15.8</ele><time>2026-06-04T23:06:45Z</time></trkpt>
			<trkpt lat="54.652550" lon="21.813580"><ele>15.6</ele><time>2026-06-04T23:06:54Z</time></trkpt>
			<trkpt lat="54.652550" lon="21.813570"><ele>15.6</ele><time>2026-06-04T23:06:57Z</time></trkpt>
			<trkpt lat="54.651940" lon="21.813810"><ele>15.7</ele><time>2026-06-04T23:07:01Z</time></trkpt>
			<trkpt lat="54.651410" lon="21.814030"><ele>15.7</ele><time>2026-06-04T23:07:04Z</time></trkpt>
			<trkpt lat="54.650860" lon="21.814140"><ele>15.8</ele><time>2026-06-04T23:07:08Z</time></trkpt>
			<trkpt lat="54.650700" lon="21.814140"><ele>15.8</ele><time>2026-06-04T23:07:12Z</time></trkpt>
			<trkpt lat="54.650030" lon="21.813820"><ele>15.9</ele><time>2026-06-04T23:07:15Z</time></trkpt>
			<trkpt lat="54.649530" lon="21.813150"><ele>16.0</ele><time>2026-06-04T23:07:19Z</time></trkpt>
			<trkpt lat="54.647960" lon="21.810700"><ele>16.3</ele><time>2026-06-04T23:07:22Z</time></trkpt>
			<trkpt lat="54.647700" lon="21.810320"><ele>16.4</ele><time>2026-06-04T23:07:26Z</time></trkpt>
			<trkpt lat="54.647410" lon="21.809910"><ele>16.4</ele><time>2026-06-04T23:07:30Z</time></trkpt>
			<trkpt lat="54.647140" lon="21.809630"><ele>16.4</ele><time>2026-06-04T23:07:33Z</time></trkpt>
			<trkpt lat="54.646870" lon="21.809380"><ele>16.5</ele><time>2026-06-04T23:07:37Z</time></trkpt>
			<trkpt lat="54.646650" lon="21.809250"><ele>16.5</ele><time>2026-06-04T23:07:40Z</time></trkpt>
			<trkpt lat="54.646400" lon="21.809140"><ele>16.6</ele><time>2026-06-04T23:07:44Z</time></trkpt>
			<trkpt lat="54.646280" lon="21.809120"><ele>16.6</ele><time>2026-06-04T23:07:48Z</time></trkpt>
			<trkpt lat="54.645670" lon="21.809030"><ele>17.0</ele><time>2026-06-04T23:07:51Z</time></trkpt>
			<trkpt lat="54.645090" lon="21.808950"><ele>17.3</ele><time>2026-06-04T23:07:55Z</time></trkpt>
			<trkpt lat="54.644530" lon="21.808870"><ele>17.7</ele><time>2026-06-04T23:07:58Z</time></trkpt>
			<trkpt lat="54.643470" lon="21.808350"><ele>18.3</ele><time>2026-06-04T23:08:02Z</time></trkpt>
			<trkpt lat="54.643380" lon="21.808310"><ele>18.4</ele><time>2026-06-04T23:08:06Z</time></trkpt>
			<trkpt lat="54.643360" lon="21.808300"><ele>18.4</ele><time>2026-06-04T23:08:09Z</time></trkpt>
			<trkpt lat="54.642750" lon="21.808030"><ele>18.8</ele><time>2026-06-04T23:08:13Z</time></trkpt>
			<trkpt lat="54.642590" lon="21.807960"><ele>18.9</ele><time>2026-06-04T23:08:16Z</time></trkpt>
			<trkpt lat="54.642430" lon="21.807900"><ele>19.0</ele><time>2026-06-04T23:08:20Z</time></trkpt>
			<trkpt lat="54.641910" lon="21.807700"><ele>19.3</ele><time>2026-06-04T23:08:24Z</time></trkpt>
			<trkpt lat="54.641740" lon="21.807570"><ele>19.4</ele><time>2026-06-04T23:08:27Z</time></trkpt>
			<trkpt lat="54.641500" lon="21.807510"><ele>19.6</ele><time>2026-06-04T23:08:31Z</time></trkpt>
			<trkpt lat="54.640940" lon="21.807550"><ele>19.9</ele><time>2026-06-04T23:08:34Z</time></trkpt>
			<trkpt lat="54.640850" lon="21.807560"><ele>19.9</ele><time>2026-06-04T23:08:38Z</time></trkpt>
			<trkpt lat="54.640410" lon="21.807610"><ele>20.2</ele><time>2026-06-04T23:08:42Z</time></trkpt>
			<trkpt lat="54.640140" lon="21.807630"><ele>20.4</ele><time>2026-06-04T23:08:45Z</time></trkpt>
			<trkpt lat="54.639920" lon="21.807610"><ele>20.5</ele><time>2026-06-04T23:08:49Z</time></trkpt>
			<trkpt lat="54.639530" lon="21.807590"><ele>20.7</ele><time>2026-06-04T23:08:52Z</time></trkpt>
			<trkpt lat="54.639360" lon="21.806880"><ele>21.0</ele><time>2026-06-04T23:08:56Z</time></trkpt>
			<trkpt lat="54.639270" lon="21.806340"><ele>21.2</ele><time>2026-06-04T23:09:00Z</time></trkpt>
			<trkpt lat="54.639170" lon="21.805310"><ele>21.6</ele><time>2026-06-04T23:09:03Z</time></trkpt>
			<trkpt lat="54.639090" lon="21.804890"><ele>21.7</ele><time>2026-06-04T23:09:07Z</time></trkpt>
			<trkpt lat="54.639040" lon="21.804710"><ele>21.8</ele><time>2026-06-04T23:09:10Z</time></trkpt>
			<trkpt lat="54.639010" lon="21.804610"><ele>21.8</ele><time>2026-06-04T23:09:14Z</time></trkpt>
			<trkpt lat="54.638920" lon="21.804390"><ele>21.9</ele><time>2026-06-04T23:09:18Z</time></trkpt>
			<trkpt lat="54.638820" lon="21.804170"><ele>22.1</ele><time>2026-06-04T23:09:21Z</time></trkpt>
			<trkpt lat="54.638260" lon="21.803430"><ele>22.9</ele><time>2026-06-04T23:09:25Z</time></trkpt>
			<trkpt lat="54.638190" lon="21.803340"><ele>23.0</ele><time>2026-06-04T23:09:28Z</time></trkpt>
			<trkpt lat="54.638070" lon="21.803230"><ele>23.1</ele><time>2026-06-04T23:09:32Z</time></trkpt>
			<trkpt lat="54.637930" lon="21.803180"><ele>23.3</ele><time>2026-06-04T23:09:35Z</time></trkpt>
			<trkpt lat="54.636040" lon="21.803220"><ele>25.4</ele><time>2026-06-04T23:09:39Z</time></trkpt>
			<trkpt lat="54.635970" lon="21.803220"><ele>25.4</ele><time>2026-06-04T23:09:43Z</time></trkpt>
			<trkpt lat="54.635950" lon="21.803120"><ele>25.5</ele><time>2026-06-04T23:09:46Z</time></trkpt>
			<trkpt lat="54.635830" lon="21.803120"><ele>25.7</ele><time>2026-06-04T23:09:50Z</time></trkpt>
			<trkpt lat="54.635370" lon="21.803100"><ele>26.2</ele><time>2026-06-04T23:09:53Z</time></trkpt>
			<trkpt lat="54.634990" lon="21.803100"><ele>26.6</ele><time>2026-06-04T23:09:57Z</time></trkpt>
			<trkpt lat="54.634960" lon="21.803100"><ele>26.6</ele><time>2026-06-04T23:10:01Z</time></trkpt>
			<trkpt lat="54.634320" lon="21.803110"><ele>27.3</ele><time>2026-06-04T23:10:04Z</time></trkpt>
			<trkpt lat="54.633310" lon="21.803110"><ele>28.5</ele><time>2026-06-04T23:10:08Z</time></trkpt>
			<trkpt lat="54.632900" lon="21.803100"><ele>28.9</ele><time>2026-06-04T23:10:11Z</time></trkpt>
			<trkpt lat="54.632770" lon="21.803090"><ele>29.1</ele><time>2026-06-04T23:10:15Z</time></trkpt>
			<trkpt lat="54.632690" lon="21.803090"><ele>29.2</ele><time>2026-06-04T23:10:19Z</time></trkpt>
			<trkpt lat="54.632440" lon="21.803080"><ele>29.4</ele><time>2026-06-04T23:10:22Z</time></trkpt>
			<trkpt lat="54.632440" lon="21.803080"><ele>29.4</ele><time>2026-06-04T23:10:26Z</time></trkpt>
			<trkpt lat="54.632150" lon="21.803060"><ele>29.8</ele><time>2026-06-04T23:10:30Z</time></trkpt>
			<trkpt lat="54.631960" lon="21.803030"><ele>30.0</ele><time>2026-06-04T23:10:34Z</time></trkpt>
			<trkpt lat="54.631890" lon="21.802980"><ele>30.1</ele><time>2026-06-04T23:10:39Z</time></trkpt>
			<trkpt lat="54.631700" lon="21.802800"><ele>30.3</ele><time>2026-06-04T23:10:43Z</time></trkpt>
			<trkpt lat="54.631480" lon="21.802600"><ele>30.6</ele><time>2026-06-04T23:10:47Z</time></trkpt>
			<trkpt lat="54.631350" lon="21.802480"><ele>30.7</ele><time>2026-06-04T23:10:51Z</time></trkpt>
			<trkpt lat="54.631300" lon="21.802430"><ele>30.8</ele><time>2026-06-04T23:10:55Z</time></trkpt>
			<trkpt lat="54.631240" lon="21.802380"><ele>30.9</ele><time>2026-06-04T23:10:59Z</time></trkpt>
			<trkpt lat="54.631180" lon="21.802700"><ele>31.1</ele><time>2026-06-04T23:11:03Z</time></trkpt>
			<trkpt lat="54.631100" lon="21.803390"><ele>31.5</ele><time>2026-06-04T23:11:07Z</time></trkpt>
			<trkpt lat="54.630960" lon="21.804830"><ele>31.9</ele><time>2026-06-04T23:11:11Z</time></trkpt>
			<trkpt lat="54.630970" lon="21.805070"><ele>31.8</ele><time>2026-06-04T23:11:15Z</time></trkpt>
			<trkpt lat="54.630970" lon="21.805280"><ele>31.8</ele><time>2026-06-04T23:11:19Z</time></trkpt>
			<trkpt lat="54.630980" lon="21.805820"><ele>31.7</ele><time>2026-06-04T23:11:23Z</time></trkpt>
			<trkpt lat="54.630930" lon="21.806040"><ele>31.7</ele><time>2026-06-04T23:11:27Z</time></trkpt>
			<trkpt lat="54.630460" lon="21.807080"><ele>31.5</ele><time>2026-06-04T23:11:31Z</time></trkpt>
			<trkpt lat="54.630170" lon="21.808550"><ele>31.2</ele><time>2026-06-04T23:11:35Z</time></trkpt>
			<trkpt lat="54.630040" lon="21.809390"><ele>31.1</ele><time>2026-06-04T23:11:39Z</time></trkpt>
			<trkpt lat="54.629980" lon="21.809840"><ele>31.0</ele><time>2026-06-04T23:11:44Z</time></trkpt>
			<trkpt lat="54.629960" lon="21.810140"><ele>31.0</ele><time>2026-06-04T23:11:48Z</time></trkpt>
			<trkpt lat="54.629870" lon="21.810120"><ele>30.9</ele><time>2026-06-04T23:11:52Z</time></trkpt>
			<trkpt lat="54.629500" lon="21.810080"><ele>30.8</ele><time>2026-06-04T23:11:56Z</time></trkpt>
			<trkpt lat="54.629400" lon="21.810120"><ele>30.8</ele><time>2026-06-04T23:12:00Z</time></trkpt>
			<trkpt lat="54.629290" lon="21.810420"><ele>30.8</ele><time>2026-06-04T23:12:04Z</time></trkpt>
			<trkpt lat="54.629010" lon="21.811610"><ele>30.5</ele><time>2026-06-04T23:12:08Z</time></trkpt>
			<trkpt lat="54.628440" lon="21.812070"><ele>30.4</ele><time>2026-06-04T23:12:12Z</time></trkpt>
			<trkpt lat="54.627650" lon="21.812690"><ele>30.1</ele><time>2026-06-04T23:12:16Z</time></trkpt>
			<trkpt lat="54.626860" lon="21.813280"><ele>29.9</ele><time>2026-06-04T23:12:20Z</time></trkpt>
			<trkpt lat="54.626220" lon="21.813750"><ele>29.7</ele><time>2026-06-04T23:12:24Z</time></trkpt>
			<trkpt lat="54.625880" lon="21.814000"><ele>29.6</ele><time>2026-06-04T23:12:28Z</time></trkpt>
			<trkpt lat="54.625630" lon="21.814260"><ele>29.5</ele><time>2026-06-04T23:12:32Z</time></trkpt>
			<trkpt lat="54.625280" lon="21.814660"><ele>29.7</ele><time>2026-06-04T23:12:36Z</time></trkpt>
			<trkpt lat="54.625140" lon="21.815360"><ele>29.9</ele><time>2026-06-04T23:12:40Z</time></trkpt>
			<trkpt lat="54.625000" lon="21.816560"><ele>30.1</ele><time>2026-06-04T23:12:45Z</time></trkpt>
			<trkpt lat="54.624930" lon="21.816970"><ele>30.2</ele><time>2026-06-04T23:12:49Z</time></trkpt>
			<trkpt lat="54.624760" lon="21.818080"><ele>30.5</ele><time>2026-06-04T23:12:53Z</time></trkpt>
			<trkpt lat="54.624660" lon="21.818490"><ele>30.6</ele><time>2026-06-04T23:12:57Z</time></trkpt>
			<trkpt lat="54.624490" lon="21.818820"><ele>30.7</ele><time>2026-06-04T23:13:01Z</time></trkpt>
			<trkpt lat="54.622940" lon="21.821060"><ele>31.5</ele><time>2026-06-04T23:13:05Z</time></trkpt>
			<trkpt lat="54.621890" lon="21.822590"><ele>32.1</ele><time>2026-06-04T23:13:09Z</time></trkpt>
			<trkpt lat="54.621620" lon="21.823100"><ele>32.2</ele><time>2026-06-04T23:13:13Z</time></trkpt>
			<trkpt lat="54.620850" lon="21.824550"><ele>32.7</ele><time>2026-06-04T23:13:17Z</time></trkpt>
			<trkpt lat="54.620660" lon="21.824920"><ele>32.8</ele><time>2026-06-04T23:13:21Z</time></trkpt>
			<trkpt lat="54.620410" lon="21.825390"><ele>33.0</ele><time>2026-06-04T23:13:25Z</time></trkpt>
			<trkpt lat="54.619610" lon="21.826920"><ele>32.9</ele><time>2026-06-04T23:13:29Z</time></trkpt>
			<trkpt lat="54.618700" lon="21.828630"><ele>32.5</ele><time>2026-06-04T23:13:33Z</time></trkpt>
			<trkpt lat="54.618700" lon="21.828630"><ele>32.5</ele><time>2026-06-04T23:13:42Z</time></trkpt>
			<trkpt lat="54.618580" lon="21.828840"><ele>32.5</ele><time>2026-06-04T23:13:50Z</time></trkpt>
			<trkpt lat="54.618410" lon="21.829120"><ele>32.4</ele><time>2026-06-04T23:13:58Z</time></trkpt>
			<trkpt lat="54.618260" lon="21.829290"><ele>32.3</ele><time>2026-06-04T23:14:06Z</time></trkpt>
			<trkpt lat="54.618010" lon="21.829500"><ele>32.3</ele><time>2026-06-04T23:14:15Z</time></trkpt>
			<trkpt lat="54.615800" lon="21.830420"><ele>31.6</ele><time>2026-06-04T23:14:23Z</time></trkpt>
			<trkpt lat="54.614170" lon="21.831100"><ele>31.1</ele><time>2026-06-04T23:14:31Z</time></trkpt>
			<trkpt lat="54.613340" lon="21.831350"><ele>30.8</ele><time>2026-06-04T23:14:39Z</time></trkpt>
			<trkpt lat="54.613010" lon="21.831380"><ele>30.7</ele><time>2026-06-04T23:14:48Z</time></trkpt>
			<trkpt lat="54.612770" lon="21.831320"><ele>30.7</ele><time>2026-06-04T23:14:56Z</time></trkpt>
			<trkpt lat="54.612650" lon="21.831310"><ele>30.6</ele><time>2026-06-04T23:15:04Z</time></trkpt>
			<trkpt lat="54.612390" lon="21.831200"><ele>30.6</ele><time>2026-06-04T23:15:13Z</time></trkpt>
			<trkpt lat="54.612040" lon="21.830910"><ele>30.6</ele><time>2026-06-04T23:15:21Z</time></trkpt>
			<trkpt lat="54.610740" lon="21.829240"><ele>32.3</ele><time>2026-06-04T23:15:29Z</time></trkpt>
			<trkpt lat="54.609150" lon="21.827210"><ele>34.4</ele><time>2026-06-04T23:15:37Z</time></trkpt>
			<trkpt lat="54.608970" lon="21.826960"><ele>34.6</ele><time>2026-06-04T23:15:46Z</time></trkpt>
			<trkpt lat="54.608730" lon="21.826830"><ele>34.9</ele><time>2026-06-04T23:15:54Z</time></trkpt>
			<trkpt lat="54.608470" lon="21.826880"><ele>35.1</ele><time>2026-06-04T23:16:02Z</time></trkpt>
			<trkpt lat="54.605600" lon="21.828010"><ele>38.2</ele><time>2026-06-04T23:16:10Z</time></trkpt>
			<trkpt lat="54.604230" lon="21.822240"><ele>39.6</ele><time>2026-06-04T23:16:19Z</time></trkpt>
			<trkpt lat="54.603810" lon="21.820680"><ele>39.5</ele><time>2026-06-04T23:16:27Z</time></trkpt>
			<trkpt lat="54.603140" lon="21.817830"><ele>39.2</ele><time>2026-06-04T23:16:35Z</time></trkpt>
			<trkpt lat="54.602200" lon="21.814150"><ele>38.9</ele><time>2026-06-04T23:16:43Z</time></trkpt>
			<trkpt lat="54.600400" lon="21.808710"><ele>37.5</ele><time>2026-06-04T23:16:52Z</time></trkpt>
			<trkpt lat="54.600370" lon="21.808670"><ele>37.5</ele><time>2026-06-04T23:17:00Z</time></trkpt>
			<trkpt lat="54.598800" lon="21.803790"><ele>35.6</ele><time>2026-06-04T23:17:08Z</time></trkpt>
			<trkpt lat="54.598470" lon="21.802910"><ele>35.2</ele><time>2026-06-04T23:17:17Z</time></trkpt>
			<trkpt lat="54.598150" lon="21.802230"><ele>34.9</ele><time>2026-06-04T23:17:25Z</time></trkpt>
			<trkpt lat="54.597620" lon="21.801290"><ele>34.4</ele><time>2026-06-04T23:17:33Z</time></trkpt>
			<trkpt lat="54.596870" lon="21.799930"><ele>33.8</ele><time>2026-06-04T23:17:41Z</time></trkpt>
			<trkpt lat="54.596640" lon="21.799360"><ele>33.6</ele><time>2026-06-04T23:17:50Z</time></trkpt>
			<trkpt lat="54.596450" lon="21.798800"><ele>33.3</ele><time>2026-06-04T23:17:58Z</time></trkpt>
			<trkpt lat="54.596010" lon="21.797050"><ele>33.1</ele><time>2026-06-04T23:18:06Z</time></trkpt>
			<trkpt lat="54.594680" lon="21.791390"><ele>32.9</ele><time>2026-06-04T23:18:14Z</time></trkpt>
			<trkpt lat="54.594400" lon="21.790390"><ele>32.8</ele><time>2026-06-04T23:18:23Z</time></trkpt>
			<trkpt lat="54.592890" lon="21.785850"><ele>32.6</ele><time>2026-06-04T23:18:31Z</time></trkpt>
			<trkpt lat="54.591530" lon="21.781800"><ele>32.5</ele><time>2026-06-04T23:18:39Z</time></trkpt>
			<trkpt lat="54.590760" lon="21.779500"><ele>32.5</ele><time>2026-06-04T23:18:48Z</time></trkpt>
			<trkpt lat="54.589180" lon="21.774740"><ele>32.3</ele><time>2026-06-04T23:18:56Z</time></trkpt>
			<trkpt lat="54.587160" lon="21.768570"><ele>31.9</ele><time>2026-06-04T23:19:04Z</time></trkpt>
			<trkpt lat="54.586580" lon="21.766900"><ele>31.6</ele><time>2026-06-04T23:19:12Z</time></trkpt>
			<trkpt lat="54.586460" lon="21.766610"><ele>31.6</ele><time>2026-06-04T23:19:21Z</time></trkpt>
			<trkpt lat="54.586320" lon="21.766310"><ele>31.5</ele><time>2026-06-04T23:19:29Z</time></trkpt>
			<trkpt lat="54.586120" lon="21.765940"><ele>31.5</ele><time>2026-06-04T23:19:37Z</time></trkpt>
			<trkpt lat="54.585850" lon="21.765500"><ele>31.4</ele><time>2026-06-04T23:19:45Z</time></trkpt>
			<trkpt lat="54.585460" lon="21.765080"><ele>31.3</ele><time>2026-06-04T23:19:54Z</time></trkpt>
			<trkpt lat="54.585020" lon="21.764690"><ele>31.2</ele><time>2026-06-04T23:20:02Z</time></trkpt>
			<trkpt lat="54.583450" lon="21.763480"><ele>30.8</ele><time>2026-06-04T23:20:10Z</time></trkpt>
			<trkpt lat="54.582560" lon="21.762750"><ele>30.5</ele><time>2026-06-04T23:20:18Z</time></trkpt>
			<trkpt lat="54.582350" lon="21.762530"><ele>30.5</ele><time>2026-06-04T23:20:27Z</time></trkpt>
			<trkpt lat="54.582150" lon="21.762250"><ele>30.4</ele><time>2026-06-04T23:20:35Z</time></trkpt>
			<trkpt lat="54.581990" lon="21.762010"><ele>30.4</ele><time>2026-06-04T23:20:43Z</time></trkpt>
			<trkpt lat="54.581380" lon="21.761040"><ele>30.2</ele><time>2026-06-04T23:20:52Z</time></trkpt>
			<trkpt lat="54.580480" lon="21.759570"><ele>30.4</ele><time>2026-06-04T23:21:00Z</time></trkpt>
			<trkpt lat="54.579990" lon="21.758780"><ele>30.4</ele><time>2026-06-04T23:21:08Z</time></trkpt>
			<trkpt lat="54.579170" lon="21.757500"><ele>30.5</ele><time>2026-06-04T23:21:16Z</time></trkpt>
			<trkpt lat="54.578730" lon="21.756740"><ele>30.6</ele><time>2026-06-04T23:21:25Z</time></trkpt>
			<trkpt lat="54.578390" lon="21.756230"><ele>30.7</ele><time>2026-06-04T23:21:33Z</time></trkpt>
			<trkpt lat="54.578130" lon="21.755830"><ele>30.7</ele><time>2026-06-04T23:21:41Z</time></trkpt>
			<trkpt lat="54.577480" lon="21.755120"><ele>30.8</ele><time>2026-06-04T23:21:49Z</time></trkpt>
			<trkpt lat="54.577300" lon="21.754780"><ele>30.8</ele><time>2026-06-04T23:21:58Z</time></trkpt>
			<trkpt lat="54.577100" lon="21.754350"><ele>30.9</ele><time>2026-06-04T23:22:06Z</time></trkpt>
			<trkpt lat="54.576820" lon="21.753460"><ele>30.9</ele><time>2026-06-04T23:22:14Z</time></trkpt>
			<trkpt lat="54.576160" lon="21.751090"><ele>31.1</ele><time>2026-06-04T23:22:23Z</time></trkpt>
			<trkpt lat="54.576040" lon="21.750780"><ele>31.1</ele><time>2026-06-04T23:22:31Z</time></trkpt>
			<trkpt lat="54.575900" lon="21.750520"><ele>31.1</ele><time>2026-06-04T23:22:39Z</time></trkpt>
			<trkpt lat="54.575570" lon="21.750090"><ele>31.2</ele><time>2026-06-04T23:22:47Z</time></trkpt>
			<trkpt lat="54.574920" lon="21.749360"><ele>31.4</ele><time>2026-06-04T23:22:56Z</time></trkpt>
			<trkpt lat="54.574790" lon="21.749300"><ele>31.4</ele><time>2026-06-04T23:23:04Z</time></trkpt>
			<trkpt lat="54.574100" lon="21.748970"><ele>31.7</ele><time>2026-06-04T23:23:12Z</time></trkpt>
			<trkpt lat="54.573450" lon="21.748660"><ele>31.9</ele><time>2026-06-04T23:23:20Z</time></trkpt>
			<trkpt lat="54.570310" lon="21.747200"><ele>33.0</ele><time>2026-06-04T23:23:29Z</time></trkpt>
			<trkpt lat="54.566450" lon="21.745430"><ele>34.2</ele><time>2026-06-04T23:23:37Z</time></trkpt>
			<trkpt lat="54.560500" lon="21.741800"><ele>35.2</ele><time>2026-06-04T23:23:45Z</time></trkpt>
			<trkpt lat="54.556200" lon="21.739150"><ele>36.0</ele><time>2026-06-04T23:23:53Z</time></trkpt>
			<trkpt lat="54.554310" lon="21.737950"><ele>36.4</ele><time>2026-06-04T23:24:02Z</time></trkpt>
			<trkpt lat="54.554120" lon="21.737850"><ele>36.4</ele><time>2026-06-04T23:24:10Z</time></trkpt>
			<trkpt lat="54.553290" lon="21.737680"><ele>36.6</ele><time>2026-06-04T23:24:18Z</time></trkpt>
			<trkpt lat="54.550260" lon="21.737160"><ele>37.2</ele><time>2026-06-04T23:24:27Z</time></trkpt>
			<trkpt lat="54.550150" lon="21.737150"><ele>37.2</ele><time>2026-06-04T23:24:35Z</time></trkpt>
			<trkpt lat="54.549720" lon="21.737070"><ele>37.3</ele><time>2026-06-04T23:24:43Z</time></trkpt>
			<trkpt lat="54.549170" lon="21.736960"><ele>37.0</ele><time>2026-06-04T23:24:51Z</time></trkpt>
			<trkpt lat="54.549000" lon="21.736890"><ele>36.9</ele><time>2026-06-04T23:25:00Z</time></trkpt>
			<trkpt lat="54.548830" lon="21.736810"><ele>36.8</ele><time>2026-06-04T23:25:08Z</time></trkpt>
			<trkpt lat="54.548650" lon="21.736680"><ele>36.7</ele><time>2026-06-04T23:25:16Z</time></trkpt>
			<trkpt lat="54.548640" lon="21.736670"><ele>36.7</ele><time>2026-06-04T23:25:24Z</time></trkpt>
			<trkpt lat="54.548410" lon="21.736410"><ele>36.6</ele><time>2026-06-04T23:25:33Z</time></trkpt>
			<trkpt lat="54.547790" lon="21.735460"><ele>36.1</ele><time>2026-06-04T23:25:41Z</time></trkpt>
			<trkpt lat="54.546250" lon="21.733160"><ele>34.9</ele><time>2026-06-04T23:25:49Z</time></trkpt>
			<trkpt lat="54.545790" lon="21.732460"><ele>34.5</ele><time>2026-06-04T23:25:57Z</time></trkpt>
			<trkpt lat="54.545720" lon="21.732380"><ele>34.5</ele><time>2026-06-04T23:26:06Z</time></trkpt>
			<trkpt lat="54.545140" lon="21.731480"><ele>34.0</ele><time>2026-06-04T23:26:14Z</time></trkpt>
			<trkpt lat="54.545070" lon="21.731370"><ele>34.0</ele><time>2026-06-04T23:26:22Z</time></trkpt>
			<trkpt lat="54.544200" lon="21.730100"><ele>33.3</ele><time>2026-06-04T23:26:31Z</time></trkpt>
			<trkpt lat="54.544050" lon="21.729910"><ele>33.2</ele><time>2026-06-04T23:26:39Z</time></trkpt>
			<trkpt lat="54.543810" lon="21.729790"><ele>33.1</ele><time>2026-06-04T23:26:47Z</time></trkpt>
			<trkpt lat="54.543600" lon="21.729500"><ele>32.9</ele><time>2026-06-04T23:26:55Z</time></trkpt>
			<trkpt lat="54.543490" lon="21.729300"><ele>32.8</ele><time>2026-06-04T23:27:04Z</time></trkpt>
			<trkpt lat="54.543260" lon="21.728850"><ele>32.6</ele><time>2026-06-04T23:27:12Z</time></trkpt>
			<trkpt lat="54.543140" lon="21.728660"><ele>32.5</ele><time>2026-06-04T23:27:20Z</time></trkpt>
			<trkpt lat="54.542970" lon="21.728550"><ele>32.4</ele><time>2026-06-04T23:27:28Z</time></trkpt>
			<trkpt lat="54.542790" lon="21.728430"><ele>32.3</ele><time>2026-06-04T23:27:37Z</time></trkpt>
			<trkpt lat="54.541770" lon="21.727760"><ele>32.6</ele><time>2026-06-04T23:27:45Z</time></trkpt>
			<trkpt lat="54.540830" lon="21.727120"><ele>33.4</ele><time>2026-06-04T23:27:53Z</time></trkpt>
			<trkpt lat="54.540620" lon="21.726940"><ele>33.6</ele><time>2026-06-04T23:28:02Z</time></trkpt>
			<trkpt lat="54.540210" lon="21.726500"><ele>34.0</ele><time>2026-06-04T23:28:10Z</time></trkpt>
			<trkpt lat="54.539160" lon="21.725260"><ele>35.1</ele><time>2026-06-04T23:28:18Z</time></trkpt>
			<trkpt lat="54.539000" lon="21.725080"><ele>35.2</ele><time>2026-06-04T23:28:26Z</time></trkpt>
			<trkpt lat="54.538970" lon="21.725040"><ele>35.2</ele><time>2026-06-04T23:28:35Z</time></trkpt>
			<trkpt lat="54.536880" lon="21.722650"><ele>37.3</ele><time>2026-06-04T23:28:43Z</time></trkpt>
			<trkpt lat="54.534930" lon="21.720340"><ele>39.2</ele><time>2026-06-04T23:28:51Z</time></trkpt>
			<trkpt lat="54.533530" lon="21.718830"><ele>39.1</ele><time>2026-06-04T23:28:59Z</time></trkpt>
			<trkpt lat="54.530840" lon="21.715990"><ele>38.5</ele><time>2026-06-04T23:29:08Z</time></trkpt>
			<trkpt lat="54.528510" lon="21.712820"><ele>37.9</ele><time>2026-06-04T23:29:16Z</time></trkpt>
			<trkpt lat="54.528300" lon="21.712530"><ele>37.9</ele><time>2026-06-04T23:29:24Z</time></trkpt>
			<trkpt lat="54.527900" lon="21.712130"><ele>37.8</ele><time>2026-06-04T23:29:32Z</time></trkpt>
			<trkpt lat="54.523540" lon="21.708740"><ele>37.4</ele><time>2026-06-04T23:29:41Z</time></trkpt>
			<trkpt lat="54.516900" lon="21.703690"><ele>36.7</ele><time>2026-06-04T23:29:49Z</time></trkpt>
			<trkpt lat="54.512460" lon="21.700230"><ele>35.8</ele><time>2026-06-04T23:29:57Z</time></trkpt>
			<trkpt lat="54.512330" lon="21.700080"><ele>35.7</ele><time>2026-06-04T23:30:06Z</time></trkpt>
			<trkpt lat="54.508310" lon="21.695500"><ele>37.0</ele><time>2026-06-04T23:30:14Z</time></trkpt>
			<trkpt lat="54.505030" lon="21.691780"><ele>38.9</ele><time>2026-06-04T23:30:22Z</time></trkpt>
			<trkpt lat="54.503520" lon="21.690130"><ele>39.7</ele><time>2026-06-04T23:30:30Z</time></trkpt>
			<trkpt lat="54.502910" lon="21.689440"><ele>39.5</ele><time>2026-06-04T23:30:39Z</time></trkpt>
			<trkpt lat="54.502750" lon="21.689220"><ele>39.5</ele><time>2026-06-04T23:30:47Z</time></trkpt>
			<trkpt lat="54.502420" lon="21.688680"><ele>39.3</ele><time>2026-06-04T23:30:55Z</time></trkpt>
			<trkpt lat="54.502170" lon="21.688270"><ele>39.2</ele><time>2026-06-04T23:31:03Z</time></trkpt>
			<trkpt lat="54.502000" lon="21.687990"><ele>39.1</ele><time>2026-06-04T23:31:12Z</time></trkpt>
			<trkpt lat="54.501640" lon="21.687400"><ele>38.9</ele><time>2026-06-04T23:31:20Z</time></trkpt>
			<trkpt lat="54.501160" lon="21.686610"><ele>38.7</ele><time>2026-06-04T23:31:28Z</time></trkpt>
			<trkpt lat="54.500740" lon="21.685930"><ele>38.5</ele><time>2026-06-04T23:31:37Z</time></trkpt>
			<trkpt lat="54.500380" lon="21.685370"><ele>38.3</ele><time>2026-06-04T23:31:45Z</time></trkpt>
			<trkpt lat="54.499720" lon="21.684330"><ele>38.0</ele><time>2026-06-04T23:31:53Z</time></trkpt>
			<trkpt lat="54.498800" lon="21.682880"><ele>37.5</ele><time>2026-06-04T23:32:01Z</time></trkpt>
			<trkpt lat="54.498310" lon="21.681420"><ele>37.2</ele><time>2026-06-04T23:32:10Z</time></trkpt>
			<trkpt lat="54.498080" lon="21.680230"><ele>36.9</ele><time>2026-06-04T23:32:18Z</time></trkpt>
			<trkpt lat="54.497850" lon="21.679660"><ele>36.8</ele><time>2026-06-04T23:32:26Z</time></trkpt>
			<trkpt lat="54.497110" lon="21.678950"><ele>36.6</ele><time>2026-06-04T23:32:34Z</time></trkpt>
			<trkpt lat="54.494970" lon="21.677190"><ele>37.0</ele><time>2026-06-04T23:32:43Z</time></trkpt>
			<trkpt lat="54.494610" lon="21.676860"><ele>37.1</ele><time>2026-06-04T23:32:51Z</time></trkpt>
			<trkpt lat="54.494470" lon="21.676700"><ele>37.1</ele><time>2026-06-04T23:32:59Z</time></trkpt>
			<trkpt lat="54.494310" lon="21.676500"><ele>37.1</ele><time>2026-06-04T23:33:07Z</time></trkpt>
			<trkpt lat="54.494190" lon="21.676310"><ele>37.1</ele><time>2026-06-04T23:33:16Z</time></trkpt>
			<trkpt lat="54.494140" lon="21.676110"><ele>37.2</ele><time>2026-06-04T23:33:24Z</time></trkpt>
			<trkpt lat="54.494130" lon="21.675880"><ele>37.2</ele><time>2026-06-04T23:33:32Z</time></trkpt>
			<trkpt lat="54.494180" lon="21.675650"><ele>37.2</ele><time>2026-06-04T23:33:41Z</time></trkpt>
			<trkpt lat="54.494580" lon="21.674280"><ele>37.4</ele><time>2026-06-04T23:33:49Z</time></trkpt>
			<trkpt lat="54.494610" lon="21.674050"><ele>37.4</ele><time>2026-06-04T23:33:57Z</time></trkpt>
			<trkpt lat="54.494600" lon="21.673760"><ele>37.4</ele><time>2026-06-04T23:34:05Z</time></trkpt>
			<trkpt lat="54.488390" lon="21.670180"><ele>40.1</ele><time>2026-06-04T23:34:14Z</time></trkpt>
			<trkpt lat="54.486660" lon="21.669140"><ele>41.5</ele><time>2026-06-04T23:34:22Z</time></trkpt>
			<trkpt lat="54.478940" lon="21.664490"><ele>44.8</ele><time>2026-06-04T23:34:30Z</time></trkpt>
			<trkpt lat="54.472750" lon="21.660670"><ele>44.6</ele><time>2026-06-04T23:34:38Z</time></trkpt>
			<trkpt lat="54.468730" lon="21.658060"><ele>43.9</ele><time>2026-06-04T23:34:47Z</time></trkpt>
			<trkpt lat="54.465580" lon="21.655870"><ele>43.4</ele><time>2026-06-04T23:34:55Z</time></trkpt>
			<trkpt lat="54.463880" lon="21.654670"><ele>43.2</ele><time>2026-06-04T23:35:03Z</time></trkpt>
			<trkpt lat="54.463600" lon="21.654460"><ele>43.2</ele><time>2026-06-04T23:35:12Z</time></trkpt>
			<trkpt lat="54.462400" lon="21.653620"><ele>43.1</ele><time>2026-06-04T23:35:20Z</time></trkpt>
			<trkpt lat="54.459170" lon="21.651320"><ele>42.8</ele><time>2026-06-04T23:35:28Z</time></trkpt>
			<trkpt lat="54.457510" lon="21.650170"><ele>42.7</ele><time>2026-06-04T23:35:36Z</time></trkpt>
			<trkpt lat="54.456280" lon="21.649300"><ele>43.2</ele><time>2026-06-04T23:35:45Z</time></trkpt>
			<trkpt lat="54.456280" lon="21.649300"><ele>43.2</ele><time>2026-06-04T23:35:59Z</time></trkpt>
			<trkpt lat="54.448970" lon="21.644120"><ele>47.1</ele><time>2026-06-04T23:36:14Z</time></trkpt>
			<trkpt lat="54.445500" lon="21.641540"><ele>48.5</ele><time>2026-06-04T23:36:29Z</time></trkpt>
			<trkpt lat="54.442030" lon="21.639200"><ele>49.8</ele><time>2026-06-04T23:36:44Z</time></trkpt>
			<trkpt lat="54.441550" lon="21.638850"><ele>50.0</ele><time>2026-06-04T23:36:59Z</time></trkpt>
			<trkpt lat="54.441210" lon="21.638550"><ele>50.2</ele><time>2026-06-04T23:37:14Z</time></trkpt>
			<trkpt lat="54.441120" lon="21.638420"><ele>50.2</ele><time>2026-06-04T23:37:29Z</time></trkpt>
			<trkpt lat="54.440220" lon="21.636800"><ele>50.2</ele><time>2026-06-04T23:37:44Z</time></trkpt>
			<trkpt lat="54.435760" lon="21.628670"><ele>48.3</ele><time>2026-06-04T23:37:59Z</time></trkpt>
			<trkpt lat="54.435020" lon="21.627290"><ele>48.0</ele><time>2026-06-04T23:38:14Z</time></trkpt>
			<trkpt lat="54.434870" lon="21.627080"><ele>47.9</ele><time>2026-06-04T23:38:29Z</time></trkpt>
			<trkpt lat="54.434800" lon="21.626990"><ele>47.9</ele><time>2026-06-04T23:38:43Z</time></trkpt>
			<trkpt lat="54.434730" lon="21.626930"><ele>47.9</ele><time>2026-06-04T23:38:58Z</time></trkpt>
			<trkpt lat="54.432710" lon="21.625800"><ele>47.8</ele><time>2026-06-04T23:39:13Z</time></trkpt>
			<trkpt lat="54.426930" lon="21.622550"><ele>47.8</ele><time>2026-06-04T23:39:28Z</time></trkpt>
			<trkpt lat="54.426540" lon="21.622020"><ele>47.8</ele><time>2026-06-04T23:39:43Z</time></trkpt>
			<trkpt lat="54.425600" lon="21.620530"><ele>47.9</ele><time>2026-06-04T23:39:58Z</time></trkpt>
			<trkpt lat="54.425320" lon="21.620090"><ele>48.0</ele><time>2026-06-04T23:40:13Z</time></trkpt>
			<trkpt lat="54.425090" lon="21.619760"><ele>48.0</ele><time>2026-06-04T23:40:28Z</time></trkpt>
			<trkpt lat="54.424860" lon="21.619500"><ele>48.0</ele><time>2026-06-04T23:40:43Z</time></trkpt>
			<trkpt lat="54.424650" lon="21.619230"><ele>48.1</ele><time>2026-06-04T23:40:58Z</time></trkpt>
			<trkpt lat="54.424240" lon="21.618590"><ele>48.1</ele><time>2026-06-04T23:41:13Z</time></trkpt>
			<trkpt lat="54.423480" lon="21.617330"><ele>48.2</ele><time>2026-06-04T23:41:27Z</time></trkpt>
			<trkpt lat="54.422900" lon="21.616390"><ele>48.3</ele><time>2026-06-04T23:41:42Z</time></trkpt>
			<trkpt lat="54.419950" lon="21.611780"><ele>48.8</ele><time>2026-06-04T23:41:57Z</time></trkpt>
			<trkpt lat="54.419590" lon="21.611330"><ele>48.9</ele><time>2026-06-04T23:42:12Z</time></trkpt>
			<trkpt lat="54.419120" lon="21.611110"><ele>49.0</ele><time>2026-06-04T23:42:27Z</time></trkpt>
			<trkpt lat="54.414360" lon="21.608580"><ele>52.5</ele><time>2026-06-04T23:42:42Z</time></trkpt>
			<trkpt lat="54.411740" lon="21.607170"><ele>54.4</ele><time>2026-06-04T23:42:57Z</time></trkpt>
			<trkpt lat="54.404750" lon="21.603420"><ele>54.7</ele><time>2026-06-04T23:43:12Z</time></trkpt>
			<trkpt lat="54.397870" lon="21.599810"><ele>56.4</ele><time>2026-06-04T23:43:27Z</time></trkpt>
			<trkpt lat="54.393880" lon="21.597690"><ele>58.2</ele><time>2026-06-04T23:43:42Z</time></trkpt>
			<trkpt lat="54.389510" lon="21.594520"><ele>64.0</ele><time>2026-06-04T23:43:57Z</time></trkpt>
			<trkpt lat="54.381870" lon="21.588790"><ele>64.3</ele><time>2026-06-04T23:44:11Z</time></trkpt>
			<trkpt lat="54.378200" lon="21.586300"><ele>58.2</ele><time>2026-06-04T23:44:26Z</time></trkpt>
			<trkpt lat="54.376550" lon="21.584990"><ele>56.4</ele><time>2026-06-04T23:44:41Z</time></trkpt>
			<trkpt lat="54.375300" lon="21.583580"><ele>56.9</ele><time>2026-06-04T23:44:56Z</time></trkpt>
			<trkpt lat="54.369770" lon="21.577570"><ele>59.3</ele><time>2026-06-04T23:45:11Z</time></trkpt>
			<trkpt lat="54.370760" lon="21.576630"><ele>59.2</ele><time>2026-06-04T23:45:26Z</time></trkpt>
			<trkpt lat="54.372780" lon="21.574630"><ele>58.3</ele><time>2026-06-04T23:45:41Z</time></trkpt>
			<trkpt lat="54.374040" lon="21.572490"><ele>57.5</ele><time>2026-06-04T23:45:56Z</time></trkpt>
			<trkpt lat="54.375870" lon="21.568930"><ele>56.3</ele><time>2026-06-04T23:46:11Z</time></trkpt>
			<trkpt lat="54.376910" lon="21.566860"><ele>55.7</ele><time>2026-06-04T23:46:26Z</time></trkpt>
			<trkpt lat="54.378120" lon="21.565160"><ele>55.8</ele><time>2026-06-04T23:46:41Z</time></trkpt>
			<trkpt lat="54.378690" lon="21.564510"><ele>55.8</ele><time>2026-06-04T23:46:55Z</time></trkpt>
			<trkpt lat="54.378690" lon="21.564510"><ele>55.8</ele><time>2026-06-04T23:47:05Z</time></trkpt>
			<trkpt lat="54.379910" lon="21.563110"><ele>55.9</ele><time>2026-06-04T23:47:15Z</time></trkpt>
			<trkpt lat="54.384010" lon="21.558970"><ele>56.2</ele><time>2026-06-04T23:47:24Z</time></trkpt>
			<trkpt lat="54.388240" lon="21.553550"><ele>57.0</ele><time>2026-06-04T23:47:34Z</time></trkpt>
			<trkpt lat="54.389400" lon="21.551760"><ele>57.3</ele><time>2026-06-04T23:47:43Z</time></trkpt>
			<trkpt lat="54.395610" lon="21.539520"><ele>53.3</ele><time>2026-06-04T23:47:53Z</time></trkpt>
			<trkpt lat="54.396740" lon="21.537320"><ele>52.2</ele><time>2026-06-04T23:48:02Z</time></trkpt>
			<trkpt lat="54.397000" lon="21.536970"><ele>52.0</ele><time>2026-06-04T23:48:12Z</time></trkpt>
			<trkpt lat="54.398510" lon="21.535400"><ele>51.2</ele><time>2026-06-04T23:48:21Z</time></trkpt>
			<trkpt lat="54.399990" lon="21.533850"><ele>50.5</ele><time>2026-06-04T23:48:31Z</time></trkpt>
			<trkpt lat="54.400080" lon="21.533640"><ele>50.4</ele><time>2026-06-04T23:48:40Z</time></trkpt>
			<trkpt lat="54.400110" lon="21.533240"><ele>50.4</ele><time>2026-06-04T23:48:50Z</time></trkpt>
			<trkpt lat="54.400090" lon="21.525500"><ele>48.5</ele><time>2026-06-04T23:48:59Z</time></trkpt>
			<trkpt lat="54.400190" lon="21.524480"><ele>48.2</ele><time>2026-06-04T23:49:09Z</time></trkpt>
			<trkpt lat="54.400390" lon="21.523590"><ele>48.2</ele><time>2026-06-04T23:49:19Z</time></trkpt>
			<trkpt lat="54.400870" lon="21.522820"><ele>48.1</ele><time>2026-06-04T23:49:28Z</time></trkpt>
			<trkpt lat="54.402900" lon="21.520140"><ele>48.0</ele><time>2026-06-04T23:49:38Z</time></trkpt>
			<trkpt lat="54.404050" lon="21.518680"><ele>47.9</ele><time>2026-06-04T23:49:47Z</time></trkpt>
			<trkpt lat="54.407700" lon="21.514050"><ele>47.5</ele><time>2026-06-04T23:49:57Z</time></trkpt>
			<trkpt lat="54.407920" lon="21.513770"><ele>47.4</ele><time>2026-06-04T23:50:06Z</time></trkpt>
			<trkpt lat="54.415630" lon="21.506270"><ele>45.0</ele><time>2026-06-04T23:50:16Z</time></trkpt>
			<trkpt lat="54.419590" lon="21.502470"><ele>43.7</ele><time>2026-06-04T23:50:25Z</time></trkpt>
			<trkpt lat="54.419790" lon="21.502320"><ele>43.6</ele><time>2026-06-04T23:50:35Z</time></trkpt>
			<trkpt lat="54.419950" lon="21.502260"><ele>43.6</ele><time>2026-06-04T23:50:44Z</time></trkpt>
			<trkpt lat="54.420080" lon="21.502280"><ele>43.5</ele><time>2026-06-04T23:50:54Z</time></trkpt>
			<trkpt lat="54.420260" lon="21.502380"><ele>43.5</ele><time>2026-06-04T23:51:03Z</time></trkpt>
			<trkpt lat="54.420400" lon="21.502410"><ele>43.4</ele><time>2026-06-04T23:51:13Z</time></trkpt>
			<trkpt lat="54.420530" lon="21.502310"><ele>43.4</ele><time>2026-06-04T23:51:22Z</time></trkpt>
			<trkpt lat="54.421190" lon="21.501440"><ele>43.2</ele><time>2026-06-04T23:51:32Z</time></trkpt>
			<trkpt lat="54.422030" lon="21.500190"><ele>42.8</ele><time>2026-06-04T23:51:42Z</time></trkpt>
			<trkpt lat="54.431710" lon="21.486800"><ele>41.8</ele><time>2026-06-04T23:51:51Z</time></trkpt>
			<trkpt lat="54.434740" lon="21.482490"><ele>38.3</ele><time>2026-06-04T23:52:01Z</time></trkpt>
			<trkpt lat="54.434950" lon="21.482250"><ele>38.1</ele><time>2026-06-04T23:52:10Z</time></trkpt>
			<trkpt lat="54.435150" lon="21.482070"><ele>37.9</ele><time>2026-06-04T23:52:20Z</time></trkpt>
			<trkpt lat="54.435390" lon="21.481940"><ele>37.6</ele><time>2026-06-04T23:52:29Z</time></trkpt>
			<trkpt lat="54.435550" lon="21.481880"><ele>37.5</ele><time>2026-06-04T23:52:39Z</time></trkpt>
			<trkpt lat="54.435820" lon="21.481860"><ele>37.2</ele><time>2026-06-04T23:52:48Z</time></trkpt>
			<trkpt lat="54.436070" lon="21.481930"><ele>37.0</ele><time>2026-06-04T23:52:58Z</time></trkpt>
			<trkpt lat="54.436170" lon="21.481990"><ele>36.9</ele><time>2026-06-04T23:53:07Z</time></trkpt>
			<trkpt lat="54.436260" lon="21.482070"><ele>36.8</ele><time>2026-06-04T23:53:17Z</time></trkpt>
			<trkpt lat="54.436350" lon="21.482160"><ele>36.7</ele><time>2026-06-04T23:53:26Z</time></trkpt>
			<trkpt lat="54.436480" lon="21.482330"><ele>36.6</ele><time>2026-06-04T23:53:36Z</time></trkpt>
			<trkpt lat="54.436900" lon="21.482910"><ele>36.2</ele><time>2026-06-04T23:53:46Z</time></trkpt>
			<trkpt lat="54.437610" lon="21.483930"><ele>36.6</ele><time>2026-06-04T23:53:55Z</time></trkpt>
			<trkpt lat="54.438170" lon="21.484670"><ele>37.0</ele><time>2026-06-04T23:54:05Z</time></trkpt>
			<trkpt lat="54.438240" lon="21.484760"><ele>37.0</ele><time>2026-06-04T23:54:14Z</time></trkpt>
			<trkpt lat="54.438830" lon="21.484740"><ele>37.3</ele><time>2026-06-04T23:54:24Z</time></trkpt>
			<trkpt lat="54.439590" lon="21.484070"><ele>37.7</ele><time>2026-06-04T23:54:33Z</time></trkpt>
			<trkpt lat="54.440280" lon="21.483370"><ele>38.0</ele><time>2026-06-04T23:54:43Z</time></trkpt>
			<trkpt lat="54.441880" lon="21.480960"><ele>39.0</ele><time>2026-06-04T23:54:52Z</time></trkpt>
			<trkpt lat="54.443430" lon="21.478430"><ele>40.0</ele><time>2026-06-04T23:55:02Z</time></trkpt>
			<trkpt lat="54.443480" lon="21.478340"><ele>40.0</ele><time>2026-06-04T23:55:11Z</time></trkpt>
			<trkpt lat="54.443860" lon="21.477750"><ele>40.3</ele><time>2026-06-04T23:55:21Z</time></trkpt>
			<trkpt lat="54.444660" lon="21.476430"><ele>39.7</ele><time>2026-06-04T23:55:30Z</time></trkpt>
			<trkpt lat="54.445280" lon="21.475410"><ele>39.2</ele><time>2026-06-04T23:55:40Z</time></trkpt>
			<trkpt lat="54.445890" lon="21.474410"><ele>38.7</ele><time>2026-06-04T23:55:49Z</time></trkpt>
			<trkpt lat="54.446310" lon="21.473730"><ele>38.4</ele><time>2026-06-04T23:55:59Z</time></trkpt>
			<trkpt lat="54.446380" lon="21.473600"><ele>38.3</ele><time>2026-06-04T23:56:09Z</time></trkpt>
			<trkpt lat="54.448140" lon="21.470760"><ele>36.9</ele><time>2026-06-04T23:56:18Z</time></trkpt>
			<trkpt lat="54.448530" lon="21.470130"><ele>36.5</ele><time>2026-06-04T23:56:28Z</time></trkpt>
			<trkpt lat="54.449730" lon="21.468110"><ele>35.5</ele><time>2026-06-04T23:56:37Z</time></trkpt>
			<trkpt lat="54.453930" lon="21.461180"><ele>35.3</ele><time>2026-06-04T23:56:47Z</time></trkpt>
			<trkpt lat="54.454950" lon="21.459550"><ele>35.4</ele><time>2026-06-04T23:56:56Z</time></trkpt>
			<trkpt lat="54.456690" lon="21.457370"><ele>35.6</ele><time>2026-06-04T23:57:06Z</time></trkpt>
			<trkpt lat="54.456880" lon="21.457140"><ele>35.6</ele><time>2026-06-04T23:57:15Z</time></trkpt>
			<trkpt lat="54.457790" lon="21.456000"><ele>35.6</ele><time>2026-06-04T23:57:25Z</time></trkpt>
			<trkpt lat="54.459480" lon="21.453890"><ele>35.5</ele><time>2026-06-04T23:57:34Z</time></trkpt>
			<trkpt lat="54.459660" lon="21.453730"><ele>35.5</ele><time>2026-06-04T23:57:44Z</time></trkpt>
			<trkpt lat="54.459850" lon="21.453610"><ele>35.5</ele><time>2026-06-04T23:57:53Z</time></trkpt>
			<trkpt lat="54.461550" lon="21.452870"><ele>35.4</ele><time>2026-06-04T23:58:03Z</time></trkpt>
			<trkpt lat="54.462940" lon="21.452290"><ele>35.3</ele><time>2026-06-04T23:58:12Z</time></trkpt>
			<trkpt lat="54.469180" lon="21.449610"><ele>35.5</ele><time>2026-06-04T23:58:22Z</time></trkpt>
			<trkpt lat="54.469990" lon="21.449270"><ele>35.6</ele><time>2026-06-04T23:58:32Z</time></trkpt>
			<trkpt lat="54.472150" lon="21.448350"><ele>35.7</ele><time>2026-06-04T23:58:41Z</time></trkpt>
			<trkpt lat="54.473250" lon="21.447860"><ele>35.8</ele><time>2026-06-04T23:58:51Z</time></trkpt>
			<trkpt lat="54.474320" lon="21.447510"><ele>35.9</ele><time>2026-06-04T23:59:00Z</time></trkpt>
			<trkpt lat="54.482300" lon="21.444990"><ele>33.9</ele><time>2026-06-04T23:59:10Z</time></trkpt>
			<trkpt lat="54.493910" lon="21.441360"><ele>28.3</ele><time>2026-06-04T23:59:19Z</time></trkpt>
			<trkpt lat="54.496830" lon="21.440460"><ele>27.8</ele><time>2026-06-04T23:59:29Z</time></trkpt>
			<trkpt lat="54.497610" lon="21.440190"><ele>27.6</ele><time>2026-06-04T23:59:38Z</time></trkpt>
			<trkpt lat="54.497870" lon="21.440000"><ele>27.6</ele><time>2026-06-04T23:59:48Z</time></trkpt>
			<trkpt lat="54.498110" lon="21.439780"><ele>27.5</ele><time>2026-06-04T23:59:57Z</time></trkpt>
			<trkpt lat="54.498410" lon="21.439400"><ele>27.5</ele><time>2026-06-05T00:00:07Z</time></trkpt>
			<trkpt lat="54.498760" lon="21.438830"><ele>27.4</ele><time>2026-06-05T00:00:16Z</time></trkpt>
			<trkpt lat="54.498980" lon="21.438330"><ele>27.3</ele><time>2026-06-05T00:00:26Z</time></trkpt>
			<trkpt lat="54.500150" lon="21.435450"><ele>27.2</ele><time>2026-06-05T00:00:36Z</time></trkpt>
			<trkpt lat="54.500550" lon="21.434390"><ele>27.3</ele><time>2026-06-05T00:00:45Z</time></trkpt>
			<trkpt lat="54.500590" lon="21.434250"><ele>27.3</ele><time>2026-06-05T00:00:55Z</time></trkpt>
			<trkpt lat="54.500620" lon="21.434110"><ele>27.3</ele><time>2026-06-05T00:01:04Z</time></trkpt>
			<trkpt lat="54.500630" lon="21.433960"><ele>27.3</ele><time>2026-06-05T00:01:14Z</time></trkpt>
			<trkpt lat="54.500640" lon="21.433810"><ele>27.3</ele><time>2026-06-05T00:01:23Z</time></trkpt>
			<trkpt lat="54.500620" lon="21.433340"><ele>27.3</ele><time>2026-06-05T00:01:33Z</time></trkpt>
			<trkpt lat="54.500360" lon="21.430680"><ele>27.6</ele><time>2026-06-05T00:01:42Z</time></trkpt>
			<trkpt lat="54.500250" lon="21.429810"><ele>27.6</ele><time>2026-06-05T00:01:52Z</time></trkpt>
			<trkpt lat="54.500190" lon="21.429550"><ele>27.6</ele><time>2026-06-05T00:02:01Z</time></trkpt>
			<trkpt lat="54.499700" lon="21.427610"><ele>27.8</ele><time>2026-06-05T00:02:11Z</time></trkpt>
			<trkpt lat="54.499590" lon="21.427200"><ele>27.9</ele><time>2026-06-05T00:02:20Z</time></trkpt>
			<trkpt lat="54.499510" lon="21.426780"><ele>27.9</ele><time>2026-06-05T00:02:30Z</time></trkpt>
			<trkpt lat="54.499450" lon="21.426390"><ele>27.9</ele><time>2026-06-05T00:02:39Z</time></trkpt>
			<trkpt lat="54.499420" lon="21.426000"><ele>27.9</ele><time>2026-06-05T00:02:49Z</time></trkpt>
			<trkpt lat="54.499350" lon="21.423910"><ele>28.1</ele><time>2026-06-05T00:02:59Z</time></trkpt>
			<trkpt lat="54.499340" lon="21.422860"><ele>28.2</ele><time>2026-06-05T00:03:08Z</time></trkpt>
			<trkpt lat="54.499340" lon="21.422380"><ele>28.2</ele><time>2026-06-05T00:03:18Z</time></trkpt>
			<trkpt lat="54.499360" lon="21.422000"><ele>28.3</ele><time>2026-06-05T00:03:27Z</time></trkpt>
			<trkpt lat="54.499440" lon="21.421650"><ele>28.3</ele><time>2026-06-05T00:03:37Z</time></trkpt>
			<trkpt lat="54.499520" lon="21.421390"><ele>28.3</ele><time>2026-06-05T00:03:46Z</time></trkpt>
			<trkpt lat="54.500090" lon="21.420050"><ele>28.1</ele><time>2026-06-05T00:03:56Z</time></trkpt>
			<trkpt lat="54.502390" lon="21.414530"><ele>27.2</ele><time>2026-06-05T00:04:05Z</time></trkpt>
			<trkpt lat="54.502860" lon="21.413360"><ele>27.0</ele><time>2026-06-05T00:04:15Z</time></trkpt>
			<trkpt lat="54.503680" lon="21.411400"><ele>26.7</ele><time>2026-06-05T00:04:24Z</time></trkpt>
			<trkpt lat="54.504200" lon="21.410180"><ele>26.5</ele><time>2026-06-05T00:04:34Z</time></trkpt>
			<trkpt lat="54.504500" lon="21.409290"><ele>26.4</ele><time>2026-06-05T00:04:43Z</time></trkpt>
			<trkpt lat="54.504950" lon="21.407560"><ele>26.9</ele><time>2026-06-05T00:04:53Z</time></trkpt>
			<trkpt lat="54.505500" lon="21.405370"><ele>27.7</ele><time>2026-06-05T00:05:03Z</time></trkpt>
			<trkpt lat="54.505580" lon="21.404730"><ele>27.9</ele><time>2026-06-05T00:05:12Z</time></trkpt>
			<trkpt lat="54.505590" lon="21.404290"><ele>28.0</ele><time>2026-06-05T00:05:22Z</time></trkpt>
			<trkpt lat="54.505580" lon="21.402110"><ele>28.7</ele><time>2026-06-05T00:05:31Z</time></trkpt>
			<trkpt lat="54.505570" lon="21.399720"><ele>29.5</ele><time>2026-06-05T00:05:41Z</time></trkpt>
			<trkpt lat="54.505500" lon="21.389440"><ele>30.7</ele><time>2026-06-05T00:05:50Z</time></trkpt>
			<trkpt lat="54.505500" lon="21.382260"><ele>29.4</ele><time>2026-06-05T00:06:00Z</time></trkpt>
			<trkpt lat="54.505490" lon="21.380890"><ele>29.1</ele><time>2026-06-05T00:06:09Z</time></trkpt>
			<trkpt lat="54.506340" lon="21.353030"><ele>25.7</ele><time>2026-06-05T00:06:19Z</time></trkpt>
			<trkpt lat="54.506490" lon="21.348190"><ele>25.8</ele><time>2026-06-05T00:06:28Z</time></trkpt>
			<trkpt lat="54.506690" lon="21.342230"><ele>25.7</ele><time>2026-06-05T00:06:38Z</time></trkpt>
			<trkpt lat="54.506750" lon="21.340350"><ele>25.7</ele><time>2026-06-05T00:06:47Z</time></trkpt>
			<trkpt lat="54.506860" lon="21.337320"><ele>25.6</ele><time>2026-06-05T00:06:57Z</time></trkpt>
			<trkpt lat="54.506920" lon="21.336660"><ele>25.6</ele><time>2026-06-05T00:07:06Z</time></trkpt>
			<trkpt lat="54.507280" lon="21.335460"><ele>25.6</ele><time>2026-06-05T00:07:16Z</time></trkpt>
			<trkpt lat="54.507410" lon="21.334680"><ele>25.6</ele><time>2026-06-05T00:07:26Z</time></trkpt>
			<trkpt lat="54.507590" lon="21.333240"><ele>25.6</ele><time>2026-06-05T00:07:35Z</time></trkpt>
			<trkpt lat="54.508020" lon="21.330460"><ele>25.4</ele><time>2026-06-05T00:07:45Z</time></trkpt>
			<trkpt lat="54.508130" lon="21.330050"><ele>25.4</ele><time>2026-06-05T00:07:54Z</time></trkpt>
			<trkpt lat="54.508240" lon="21.329790"><ele>25.4</ele><time>2026-06-05T00:08:04Z</time></trkpt>
			<trkpt lat="54.508360" lon="21.329680"><ele>25.3</ele><time>2026-06-05T00:08:13Z</time></trkpt>
			<trkpt lat="54.508540" lon="21.329650"><ele>25.3</ele><time>2026-06-05T00:08:23Z</time></trkpt>
			<trkpt lat="54.509120" lon="21.329610"><ele>25.2</ele><time>2026-06-05T00:08:32Z</time></trkpt>
			<trkpt lat="54.509610" lon="21.329580"><ele>25.2</ele><time>2026-06-05T00:08:42Z</time></trkpt>
			<trkpt lat="54.510650" lon="21.329550"><ele>25.0</ele><time>2026-06-05T00:08:51Z</time></trkpt>
			<trkpt lat="54.512990" lon="21.329490"><ele>24.7</ele><time>2026-06-05T00:09:01Z</time></trkpt>
			<trkpt lat="54.513280" lon="21.329480"><ele>24.7</ele><time>2026-06-05T00:09:10Z</time></trkpt>
			<trkpt lat="54.513800" lon="21.329480"><ele>24.6</ele><time>2026-06-05T00:09:20Z</time></trkpt>
			<trkpt lat="54.513990" lon="21.329400"><ele>24.6</ele><time>2026-06-05T00:09:30Z</time></trkpt>
			<trkpt lat="54.514140" lon="21.329290"><ele>24.5</ele><time>2026-06-05T00:09:39Z</time></trkpt>
			<trkpt lat="54.514270" lon="21.329080"><ele>24.5</ele><time>2026-06-05T00:09:49Z</time></trkpt>
			<trkpt lat="54.514450" lon="21.328660"><ele>24.5</ele><time>2026-06-05T00:09:58Z</time></trkpt>
			<trkpt lat="54.517730" lon="21.320820"><ele>29.1</ele><time>2026-06-05T00:10:08Z</time></trkpt>
			<trkpt lat="54.518480" lon="21.318980"><ele>30.4</ele><time>2026-06-05T00:10:17Z</time></trkpt>
			<trkpt lat="54.518630" lon="21.318670"><ele>30.7</ele><time>2026-06-05T00:10:27Z</time></trkpt>
			<trkpt lat="54.518760" lon="21.318480"><ele>30.9</ele><time>2026-06-05T00:10:36Z</time></trkpt>
			<trkpt lat="54.518920" lon="21.318310"><ele>31.1</ele><time>2026-06-05T00:10:46Z</time></trkpt>
			<trkpt lat="54.519170" lon="21.318130"><ele>31.4</ele><time>2026-06-05T00:10:55Z</time></trkpt>
			<trkpt lat="54.522720" lon="21.315770"><ele>32.0</ele><time>2026-06-05T00:11:05Z</time></trkpt>
			<trkpt lat="54.524160" lon="21.314820"><ele>30.1</ele><time>2026-06-05T00:11:14Z</time></trkpt>
			<trkpt lat="54.526320" lon="21.313380"><ele>27.1</ele><time>2026-06-05T00:11:24Z</time></trkpt>
			<trkpt lat="54.528670" lon="21.311920"><ele>23.9</ele><time>2026-06-05T00:11:33Z</time></trkpt>
			<trkpt lat="54.532890" lon="21.308990"><ele>23.3</ele><time>2026-06-05T00:11:43Z</time></trkpt>
			<trkpt lat="54.540030" lon="21.304540"><ele>26.3</ele><time>2026-06-05T00:11:53Z</time></trkpt>
			<trkpt lat="54.543420" lon="21.302460"><ele>29.1</ele><time>2026-06-05T00:12:02Z</time></trkpt>
			<trkpt lat="54.545100" lon="21.301560"><ele>30.5</ele><time>2026-06-05T00:12:12Z</time></trkpt>
			<trkpt lat="54.547370" lon="21.300380"><ele>31.7</ele><time>2026-06-05T00:12:21Z</time></trkpt>
			<trkpt lat="54.548300" lon="21.298960"><ele>31.7</ele><time>2026-06-05T00:12:31Z</time></trkpt>
			<trkpt lat="54.552440" lon="21.290870"><ele>31.3</ele><time>2026-06-05T00:12:40Z</time></trkpt>
			<trkpt lat="54.554930" lon="21.287400"><ele>28.6</ele><time>2026-06-05T00:12:50Z</time></trkpt>
			<trkpt lat="54.560000" lon="21.281940"><ele>21.8</ele><time>2026-06-05T00:12:59Z</time></trkpt>
			<trkpt lat="54.562060" lon="21.280370"><ele>20.8</ele><time>2026-06-05T00:13:09Z</time></trkpt>
			<trkpt lat="54.569770" lon="21.274830"><ele>19.5</ele><time>2026-06-05T00:13:18Z</time></trkpt>
			<trkpt lat="54.572710" lon="21.272620"><ele>19.5</ele><time>2026-06-05T00:13:28Z</time></trkpt>
			<trkpt lat="54.573110" lon="21.272350"><ele>19.5</ele><time>2026-06-05T00:13:37Z</time></trkpt>
			<trkpt lat="54.574780" lon="21.271580"><ele>19.6</ele><time>2026-06-05T00:13:47Z</time></trkpt>
			<trkpt lat="54.575050" lon="21.271500"><ele>19.6</ele><time>2026-06-05T00:13:56Z</time></trkpt>
			<trkpt lat="54.575170" lon="21.271510"><ele>19.6</ele><time>2026-06-05T00:14:06Z</time></trkpt>
			<trkpt lat="54.575290" lon="21.271580"><ele>19.6</ele><time>2026-06-05T00:14:16Z</time></trkpt>
			<trkpt lat="54.575390" lon="21.271680"><ele>19.6</ele><time>2026-06-05T00:14:25Z</time></trkpt>
			<trkpt lat="54.575500" lon="21.271840"><ele>19.6</ele><time>2026-06-05T00:14:35Z</time></trkpt>
			<trkpt lat="54.575860" lon="21.272440"><ele>19.6</ele><time>2026-06-05T00:14:44Z</time></trkpt>
			<trkpt lat="54.576030" lon="21.272680"><ele>19.6</ele><time>2026-06-05T00:14:54Z</time></trkpt>
			<trkpt lat="54.576200" lon="21.272850"><ele>19.6</ele><time>2026-06-05T00:15:03Z</time></trkpt>
			<trkpt lat="54.576320" lon="21.272930"><ele>19.6</ele><time>2026-06-05T00:15:13Z</time></trkpt>
			<trkpt lat="54.576520" lon="21.273020"><ele>19.6</ele><time>2026-06-05T00:15:22Z</time></trkpt>
			<trkpt lat="54.577250" lon="21.273210"><ele>19.6</ele><time>2026-06-05T00:15:32Z</time></trkpt>
			<trkpt lat="54.577690" lon="21.273320"><ele>19.6</ele><time>2026-06-05T00:15:41Z</time></trkpt>
			<trkpt lat="54.577960" lon="21.273350"><ele>19.7</ele><time>2026-06-05T00:15:51Z</time></trkpt>
			<trkpt lat="54.578120" lon="21.273350"><ele>19.7</ele><time>2026-06-05T00:16:00Z</time></trkpt>
			<trkpt lat="54.578290" lon="21.273330"><ele>19.7</ele><time>2026-06-05T00:16:10Z</time></trkpt>
			<trkpt lat="54.578400" lon="21.273290"><ele>19.7</ele><time>2026-06-05T00:16:20Z</time></trkpt>
			<trkpt lat="54.580330" lon="21.272770"><ele>20.0</ele><time>2026-06-05T00:16:29Z</time></trkpt>
			<trkpt lat="54.580780" lon="21.272560"><ele>20.0</ele><time>2026-06-05T00:16:39Z</time></trkpt>
			<trkpt lat="54.582800" lon="21.271480"><ele>20.3</ele><time>2026-06-05T00:16:48Z</time></trkpt>
			<trkpt lat="54.583630" lon="21.271020"><ele>20.4</ele><time>2026-06-05T00:16:58Z</time></trkpt>
			<trkpt lat="54.584490" lon="21.270570"><ele>20.5</ele><time>2026-06-05T00:17:07Z</time></trkpt>
			<trkpt lat="54.586590" lon="21.269410"><ele>20.6</ele><time>2026-06-05T00:17:17Z</time></trkpt>
			<trkpt lat="54.588970" lon="21.268130"><ele>20.1</ele><time>2026-06-05T00:17:26Z</time></trkpt>
			<trkpt lat="54.590060" lon="21.267550"><ele>19.9</ele><time>2026-06-05T00:17:36Z</time></trkpt>
			<trkpt lat="54.590340" lon="21.267390"><ele>19.8</ele><time>2026-06-05T00:17:45Z</time></trkpt>
			<trkpt lat="54.590510" lon="21.267290"><ele>19.8</ele><time>2026-06-05T00:17:55Z</time></trkpt>
			<trkpt lat="54.591190" lon="21.266960"><ele>19.7</ele><time>2026-06-05T00:18:04Z</time></trkpt>
			<trkpt lat="54.591980" lon="21.266380"><ele>19.5</ele><time>2026-06-05T00:18:14Z</time></trkpt>
			<trkpt lat="54.592640" lon="21.265680"><ele>19.4</ele><time>2026-06-05T00:18:23Z</time></trkpt>
			<trkpt lat="54.593080" lon="21.265210"><ele>19.3</ele><time>2026-06-05T00:18:33Z</time></trkpt>
			<trkpt lat="54.593080" lon="21.265210"><ele>19.3</ele><time>2026-06-05T00:18:40Z</time></trkpt>
			<trkpt lat="54.593370" lon="21.264900"><ele>19.2</ele><time>2026-06-05T00:18:46Z</time></trkpt>
			<trkpt lat="54.597960" lon="21.259230"><ele>21.5</ele><time>2026-06-05T00:18:53Z</time></trkpt>
			<trkpt lat="54.601230" lon="21.255190"><ele>23.5</ele><time>2026-06-05T00:18:59Z</time></trkpt>
			<trkpt lat="54.601940" lon="21.254340"><ele>23.5</ele><time>2026-06-05T00:19:06Z</time></trkpt>
			<trkpt lat="54.604290" lon="21.251530"><ele>23.0</ele><time>2026-06-05T00:19:12Z</time></trkpt>
			<trkpt lat="54.604810" lon="21.250920"><ele>22.9</ele><time>2026-06-05T00:19:19Z</time></trkpt>
			<trkpt lat="54.604840" lon="21.250880"><ele>22.9</ele><time>2026-06-05T00:19:25Z</time></trkpt>
			<trkpt lat="54.605260" lon="21.250360"><ele>22.8</ele><time>2026-06-05T00:19:32Z</time></trkpt>
			<trkpt lat="54.605610" lon="21.249830"><ele>22.7</ele><time>2026-06-05T00:19:39Z</time></trkpt>
			<trkpt lat="54.605730" lon="21.249610"><ele>22.7</ele><time>2026-06-05T00:19:45Z</time></trkpt>
			<trkpt lat="54.605900" lon="21.249260"><ele>22.7</ele><time>2026-06-05T00:19:52Z</time></trkpt>
			<trkpt lat="54.606230" lon="21.248460"><ele>22.6</ele><time>2026-06-05T00:19:58Z</time></trkpt>
			<trkpt lat="54.606440" lon="21.248000"><ele>22.5</ele><time>2026-06-05T00:20:05Z</time></trkpt>
			<trkpt lat="54.608420" lon="21.244390"><ele>21.7</ele><time>2026-06-05T00:20:11Z</time></trkpt>
			<trkpt lat="54.608740" lon="21.243810"><ele>21.2</ele><time>2026-06-05T00:20:18Z</time></trkpt>
			<trkpt lat="54.608870" lon="21.243520"><ele>21.0</ele><time>2026-06-05T00:20:24Z</time></trkpt>
			<trkpt lat="54.608990" lon="21.243210"><ele>20.8</ele><time>2026-06-05T00:20:31Z</time></trkpt>
			<trkpt lat="54.609200" lon="21.242510"><ele>20.3</ele><time>2026-06-05T00:20:38Z</time></trkpt>
			<trkpt lat="54.609280" lon="21.242140"><ele>20.1</ele><time>2026-06-05T00:20:44Z</time></trkpt>
			<trkpt lat="54.609350" lon="21.241710"><ele>19.8</ele><time>2026-06-05T00:20:51Z</time></trkpt>
			<trkpt lat="54.609900" lon="21.238320"><ele>17.7</ele><time>2026-06-05T00:20:57Z</time></trkpt>
			<trkpt lat="54.610320" lon="21.235470"><ele>16.0</ele><time>2026-06-05T00:21:04Z</time></trkpt>
			<trkpt lat="54.610410" lon="21.234910"><ele>15.6</ele><time>2026-06-05T00:21:10Z</time></trkpt>
			<trkpt lat="54.610660" lon="21.233310"><ele>14.6</ele><time>2026-06-05T00:21:17Z</time></trkpt>
			<trkpt lat="54.610780" lon="21.232740"><ele>14.3</ele><time>2026-06-05T00:21:23Z</time></trkpt>
			<trkpt lat="54.610990" lon="21.232240"><ele>13.9</ele><time>2026-06-05T00:21:30Z</time></trkpt>
			<trkpt lat="54.611330" lon="21.231420"><ele>13.3</ele><time>2026-06-05T00:21:37Z</time></trkpt>
			<trkpt lat="54.611530" lon="21.231050"><ele>13.0</ele><time>2026-06-05T00:21:43Z</time></trkpt>
			<trkpt lat="54.611790" lon="21.230780"><ele>12.7</ele><time>2026-06-05T00:21:50Z</time></trkpt>
			<trkpt lat="54.612160" lon="21.230590"><ele>12.2</ele><time>2026-06-05T00:21:56Z</time></trkpt>
			<trkpt lat="54.613200" lon="21.229940"><ele>10.9</ele><time>2026-06-05T00:22:03Z</time></trkpt>
			<trkpt lat="54.613290" lon="21.229850"><ele>10.8</ele><time>2026-06-05T00:22:09Z</time></trkpt>
			<trkpt lat="54.613470" lon="21.229690"><ele>10.6</ele><time>2026-06-05T00:22:16Z</time></trkpt>
			<trkpt lat="54.613600" lon="21.229530"><ele>10.4</ele><time>2026-06-05T00:22:22Z</time></trkpt>
			<trkpt lat="54.613760" lon="21.229190"><ele>10.1</ele><time>2026-06-05T00:22:29Z</time></trkpt>
			<trkpt lat="54.613850" lon="21.229020"><ele>9.9</ele><time>2026-06-05T00:22:36Z</time></trkpt>
			<trkpt lat="54.614270" lon="21.228720"><ele>9.4</ele><time>2026-06-05T00:22:42Z</time></trkpt>
			<trkpt lat="54.615490" lon="21.227850"><ele>7.8</ele><time>2026-06-05T00:22:49Z</time></trkpt>
			<trkpt lat="54.616060" lon="21.227450"><ele>7.1</ele><time>2026-06-05T00:22:55Z</time></trkpt>
			<trkpt lat="54.616430" lon="21.227160"><ele>6.6</ele><time>2026-06-05T00:23:02Z</time></trkpt>
			<trkpt lat="54.616790" lon="21.226960"><ele>6.2</ele><time>2026-06-05T00:23:08Z</time></trkpt>
			<trkpt lat="54.617220" lon="21.226950"><ele>5.7</ele><time>2026-06-05T00:23:15Z</time></trkpt>
			<trkpt lat="54.617620" lon="21.227040"><ele>5.2</ele><time>2026-06-05T00:23:21Z</time></trkpt>
			<trkpt lat="54.618030" lon="21.227240"><ele>4.7</ele><time>2026-06-05T00:23:28Z</time></trkpt>
			<trkpt lat="54.618290" lon="21.227370"><ele>4.4</ele><time>2026-06-05T00:23:34Z</time></trkpt>
			<trkpt lat="54.618440" lon="21.227490"><ele>4.2</ele><time>2026-06-05T00:23:41Z</time></trkpt>
			<trkpt lat="54.618780" lon="21.227850"><ele>3.7</ele><time>2026-06-05T00:23:48Z</time></trkpt>
			<trkpt lat="54.618770" lon="21.226560"><ele>2.8</ele><time>2026-06-05T00:23:54Z</time></trkpt>
			<trkpt lat="54.618750" lon="21.226260"><ele>2.6</ele><time>2026-06-05T00:24:01Z</time></trkpt>
			<trkpt lat="54.618560" lon="21.225120"><ele>2.4</ele><time>2026-06-05T00:24:07Z</time></trkpt>
			<trkpt lat="54.618450" lon="21.224650"><ele>2.6</ele><time>2026-06-05T00:24:14Z</time></trkpt>
			<trkpt lat="54.618350" lon="21.224320"><ele>2.7</ele><time>2026-06-05T00:24:20Z</time></trkpt>
			<trkpt lat="54.618050" lon="21.223460"><ele>3.1</ele><time>2026-06-05T00:24:27Z</time></trkpt>
			<trkpt lat="54.617980" lon="21.223260"><ele>3.2</ele><time>2026-06-05T00:24:33Z</time></trkpt>
			<trkpt lat="54.617730" lon="21.222800"><ele>3.4</ele><time>2026-06-05T00:24:40Z</time></trkpt>
			<trkpt lat="54.614870" lon="21.219350"><ele>5.7</ele><time>2026-06-05T00:24:47Z</time></trkpt>
			<trkpt lat="54.614530" lon="21.218920"><ele>5.9</ele><time>2026-06-05T00:24:53Z</time></trkpt>
			<trkpt lat="54.613980" lon="21.218260"><ele>6.4</ele><time>2026-06-05T00:25:00Z</time></trkpt>
			<trkpt lat="54.613900" lon="21.218150"><ele>6.4</ele><time>2026-06-05T00:25:06Z</time></trkpt>
			<trkpt lat="54.613670" lon="21.217910"><ele>6.6</ele><time>2026-06-05T00:25:13Z</time></trkpt>
			<trkpt lat="54.612610" lon="21.216600"><ele>7.4</ele><time>2026-06-05T00:25:19Z</time></trkpt>
			<trkpt lat="54.612160" lon="21.216080"><ele>7.8</ele><time>2026-06-05T00:25:26Z</time></trkpt>
			<trkpt lat="54.611760" lon="21.215620"><ele>8.0</ele><time>2026-06-05T00:25:32Z</time></trkpt>
			<trkpt lat="54.611580" lon="21.215440"><ele>8.0</ele><time>2026-06-05T00:25:39Z</time></trkpt>
			<trkpt lat="54.611410" lon="21.215290"><ele>8.1</ele><time>2026-06-05T00:25:46Z</time></trkpt>
			<trkpt lat="54.610810" lon="21.214890"><ele>8.2</ele><time>2026-06-05T00:25:52Z</time></trkpt>
			<trkpt lat="54.610440" lon="21.214700"><ele>8.2</ele><time>2026-06-05T00:25:59Z</time></trkpt>
			<trkpt lat="54.608220" lon="21.213810"><ele>8.6</ele><time>2026-06-05T00:26:05Z</time></trkpt>
			<trkpt lat="54.608050" lon="21.213760"><ele>8.7</ele><time>2026-06-05T00:26:12Z</time></trkpt>
			<trkpt lat="54.607880" lon="21.213790"><ele>8.7</ele><time>2026-06-05T00:26:18Z</time></trkpt>
			<trkpt lat="54.607530" lon="21.213900"><ele>8.8</ele><time>2026-06-05T00:26:25Z</time></trkpt>
			<trkpt lat="54.607260" lon="21.213920"><ele>8.8</ele><time>2026-06-05T00:26:31Z</time></trkpt>
			<trkpt lat="54.606060" lon="21.213850"><ele>9.0</ele><time>2026-06-05T00:26:38Z</time></trkpt>
			<trkpt lat="54.605670" lon="21.213840"><ele>9.1</ele><time>2026-06-05T00:26:45Z</time></trkpt>
			<trkpt lat="54.605060" lon="21.213840"><ele>9.2</ele><time>2026-06-05T00:26:51Z</time></trkpt>
			<trkpt lat="54.604230" lon="21.213860"><ele>9.3</ele><time>2026-06-05T00:26:58Z</time></trkpt>
			<trkpt lat="54.603630" lon="21.213890"><ele>9.4</ele><time>2026-06-05T00:27:04Z</time></trkpt>
			<trkpt lat="54.602550" lon="21.213930"><ele>10.0</ele><time>2026-06-05T00:27:11Z</time></trkpt>
			<trkpt lat="54.599110" lon="21.214060"><ele>12.7</ele><time>2026-06-05T00:27:17Z</time></trkpt>
			<trkpt lat="54.598670" lon="21.214070"><ele>13.0</ele><time>2026-06-05T00:27:24Z</time></trkpt>
			<trkpt lat="54.598130" lon="21.214100"><ele>13.4</ele><time>2026-06-05T00:27:30Z</time></trkpt>
			<trkpt lat="54.597920" lon="21.214110"><ele>13.6</ele><time>2026-06-05T00:27:37Z</time></trkpt>
			<trkpt lat="54.597830" lon="21.214130"><ele>13.7</ele><time>2026-06-05T00:27:44Z</time></trkpt>
			<trkpt lat="54.597640" lon="21.214210"><ele>13.8</ele><time>2026-06-05T00:27:50Z</time></trkpt>
			<trkpt lat="54.597420" lon="21.214380"><ele>14.0</ele><time>2026-06-05T00:27:57Z</time></trkpt>
			<trkpt lat="54.596920" lon="21.214790"><ele>14.4</ele><time>2026-06-05T00:28:03Z</time></trkpt>
			<trkpt lat="54.596250" lon="21.215390"><ele>15.0</ele><time>2026-06-05T00:28:10Z</time></trkpt>
			<trkpt lat="54.596090" lon="21.215510"><ele>15.2</ele><time>2026-06-05T00:28:16Z</time></trkpt>
			<trkpt lat="54.595960" lon="21.215580"><ele>15.3</ele><time>2026-06-05T00:28:23Z</time></trkpt>
			<trkpt lat="54.595660" lon="21.215630"><ele>15.5</ele><time>2026-06-05T00:28:29Z</time></trkpt>
			<trkpt lat="54.595310" lon="21.215650"><ele>15.8</ele><time>2026-06-05T00:28:36Z</time></trkpt>
			<trkpt lat="54.595180" lon="21.215680"><ele>15.9</ele><time>2026-06-05T00:28:43Z</time></trkpt>
			<trkpt lat="54.595040" lon="21.215740"><ele>16.0</ele><time>2026-06-05T00:28:49Z</time></trkpt>
			<trkpt lat="54.594810" lon="21.215880"><ele>16.2</ele><time>2026-06-05T00:28:56Z</time></trkpt>
			<trkpt lat="54.594620" lon="21.216020"><ele>16.3</ele><time>2026-06-05T00:29:02Z</time></trkpt>
			<trkpt lat="54.594040" lon="21.216480"><ele>16.7</ele><time>2026-06-05T00:29:09Z</time></trkpt>
			<trkpt lat="54.593380" lon="21.216980"><ele>17.1</ele><time>2026-06-05T00:29:15Z</time></trkpt>
			<trkpt lat="54.593100" lon="21.217150"><ele>17.2</ele><time>2026-06-05T00:29:22Z</time></trkpt>
			<trkpt lat="54.592930" lon="21.217190"><ele>17.3</ele><time>2026-06-05T00:29:28Z</time></trkpt>
			<trkpt lat="54.592600" lon="21.217210"><ele>17.5</ele><time>2026-06-05T00:29:35Z</time></trkpt>
			<trkpt lat="54.592360" lon="21.217200"><ele>17.6</ele><time>2026-06-05T00:29:42Z</time></trkpt>
			<trkpt lat="54.592030" lon="21.217190"><ele>17.8</ele><time>2026-06-05T00:29:48Z</time></trkpt>
			<trkpt lat="54.591730" lon="21.217260"><ele>18.0</ele><time>2026-06-05T00:29:55Z</time></trkpt>
			<trkpt lat="54.590420" lon="21.217720"><ele>18.6</ele><time>2026-06-05T00:30:01Z</time></trkpt>
			<trkpt lat="54.590180" lon="21.217790"><ele>18.8</ele><time>2026-06-05T00:30:08Z</time></trkpt>
			<trkpt lat="54.589880" lon="21.217870"><ele>18.9</ele><time>2026-06-05T00:30:14Z</time></trkpt>
			<trkpt lat="54.588950" lon="21.218050"><ele>19.4</ele><time>2026-06-05T00:30:21Z</time></trkpt>
			<trkpt lat="54.570770" lon="21.222040"><ele>16.6</ele><time>2026-06-05T00:30:27Z</time></trkpt>
			<trkpt lat="54.561670" lon="21.224040"><ele>17.2</ele><time>2026-06-05T00:30:34Z</time></trkpt>
			<trkpt lat="54.561250" lon="21.224100"><ele>17.1</ele><time>2026-06-05T00:30:40Z</time></trkpt>
			<trkpt lat="54.560890" lon="21.224090"><ele>17.1</ele><time>2026-06-05T00:30:47Z</time></trkpt>
			<trkpt lat="54.554830" lon="21.223390"><ele>19.6</ele><time>2026-06-05T00:30:54Z</time></trkpt>
			<trkpt lat="54.554240" lon="21.223250"><ele>20.0</ele><time>2026-06-05T00:31:00Z</time></trkpt>
			<trkpt lat="54.553660" lon="21.222920"><ele>20.4</ele><time>2026-06-05T00:31:07Z</time></trkpt>
			<trkpt lat="54.553220" lon="21.222600"><ele>20.7</ele><time>2026-06-05T00:31:13Z</time></trkpt>
			<trkpt lat="54.552050" lon="21.221370"><ele>21.6</ele><time>2026-06-05T00:31:20Z</time></trkpt>
			<trkpt lat="54.550020" lon="21.219200"><ele>22.8</ele><time>2026-06-05T00:31:26Z</time></trkpt>
			<trkpt lat="54.549500" lon="21.218740"><ele>22.8</ele><time>2026-06-05T00:31:33Z</time></trkpt>
			<trkpt lat="54.549170" lon="21.218530"><ele>22.7</ele><time>2026-06-05T00:31:39Z</time></trkpt>
			<trkpt lat="54.548770" lon="21.218350"><ele>22.7</ele><time>2026-06-05T00:31:46Z</time></trkpt>
			<trkpt lat="54.545700" lon="21.217400"><ele>22.5</ele><time>2026-06-05T00:31:53Z</time></trkpt>
			<trkpt lat="54.545700" lon="21.217400"><ele>22.5</ele><time>2026-06-05T00:32:00Z</time></trkpt>
			<trkpt lat="54.544600" lon="21.217060"><ele>22.4</ele><time>2026-06-05T00:32:06Z</time></trkpt>
			<trkpt lat="54.543580" lon="21.216560"><ele>22.3</ele><time>2026-06-05T00:32:13Z</time></trkpt>
			<trkpt lat="54.541720" lon="21.215480"><ele>22.1</ele><time>2026-06-05T00:32:20Z</time></trkpt>
			<trkpt lat="54.531330" lon="21.207300"><ele>14.7</ele><time>2026-06-05T00:32:27Z</time></trkpt>
			<trkpt lat="54.531020" lon="21.207050"><ele>14.5</ele><time>2026-06-05T00:32:34Z</time></trkpt>
			<trkpt lat="54.530720" lon="21.206830"><ele>14.3</ele><time>2026-06-05T00:32:41Z</time></trkpt>
			<trkpt lat="54.529720" lon="21.206340"><ele>13.6</ele><time>2026-06-05T00:32:48Z</time></trkpt>
			<trkpt lat="54.529350" lon="21.206120"><ele>13.3</ele><time>2026-06-05T00:32:55Z</time></trkpt>
			<trkpt lat="54.529140" lon="21.205900"><ele>13.2</ele><time>2026-06-05T00:33:02Z</time></trkpt>
			<trkpt lat="54.528690" lon="21.205440"><ele>12.8</ele><time>2026-06-05T00:33:09Z</time></trkpt>
			<trkpt lat="54.528070" lon="21.204810"><ele>12.4</ele><time>2026-06-05T00:33:16Z</time></trkpt>
			<trkpt lat="54.527340" lon="21.204050"><ele>11.8</ele><time>2026-06-05T00:33:23Z</time></trkpt>
			<trkpt lat="54.526120" lon="21.202540"><ele>10.8</ele><time>2026-06-05T00:33:30Z</time></trkpt>
			<trkpt lat="54.525710" lon="21.202000"><ele>10.5</ele><time>2026-06-05T00:33:37Z</time></trkpt>
			<trkpt lat="54.525490" lon="21.201740"><ele>10.6</ele><time>2026-06-05T00:33:44Z</time></trkpt>
			<trkpt lat="54.525330" lon="21.201540"><ele>10.8</ele><time>2026-06-05T00:33:50Z</time></trkpt>
			<trkpt lat="54.524900" lon="21.201100"><ele>11.2</ele><time>2026-06-05T00:33:57Z</time></trkpt>
			<trkpt lat="54.524620" lon="21.200840"><ele>11.5</ele><time>2026-06-05T00:34:04Z</time></trkpt>
			<trkpt lat="54.523900" lon="21.200350"><ele>12.2</ele><time>2026-06-05T00:34:11Z</time></trkpt>
			<trkpt lat="54.523180" lon="21.200110"><ele>12.9</ele><time>2026-06-05T00:34:18Z</time></trkpt>
			<trkpt lat="54.522960" lon="21.200100"><ele>13.1</ele><time>2026-06-05T00:34:25Z</time></trkpt>
			<trkpt lat="54.522700" lon="21.200130"><ele>13.3</ele><time>2026-06-05T00:34:32Z</time></trkpt>
			<trkpt lat="54.522460" lon="21.200180"><ele>13.5</ele><time>2026-06-05T00:34:39Z</time></trkpt>
			<trkpt lat="54.522190" lon="21.200280"><ele>13.8</ele><time>2026-06-05T00:34:46Z</time></trkpt>
			<trkpt lat="54.521840" lon="21.200450"><ele>14.1</ele><time>2026-06-05T00:34:53Z</time></trkpt>
			<trkpt lat="54.514180" lon="21.204770"><ele>17.6</ele><time>2026-06-05T00:35:00Z</time></trkpt>
			<trkpt lat="54.513920" lon="21.204880"><ele>17.5</ele><time>2026-06-05T00:35:07Z</time></trkpt>
			<trkpt lat="54.513670" lon="21.204940"><ele>17.4</ele><time>2026-06-05T00:35:14Z</time></trkpt>
			<trkpt lat="54.513380" lon="21.204970"><ele>17.3</ele><time>2026-06-05T00:35:21Z</time></trkpt>
			<trkpt lat="54.513050" lon="21.204940"><ele>17.2</ele><time>2026-06-05T00:35:28Z</time></trkpt>
			<trkpt lat="54.511060" lon="21.204480"><ele>16.5</ele><time>2026-06-05T00:35:35Z</time></trkpt>
			<trkpt lat="54.509230" lon="21.204070"><ele>15.9</ele><time>2026-06-05T00:35:41Z</time></trkpt>
			<trkpt lat="54.507680" lon="21.203690"><ele>15.1</ele><time>2026-06-05T00:35:48Z</time></trkpt>
			<trkpt lat="54.505520" lon="21.203210"><ele>13.2</ele><time>2026-06-05T00:35:55Z</time></trkpt>
			<trkpt lat="54.505160" lon="21.203130"><ele>12.9</ele><time>2026-06-05T00:36:02Z</time></trkpt>
			<trkpt lat="54.504930" lon="21.203090"><ele>12.7</ele><time>2026-06-05T00:36:09Z</time></trkpt>
			<trkpt lat="54.504760" lon="21.203120"><ele>12.6</ele><time>2026-06-05T00:36:16Z</time></trkpt>
			<trkpt lat="54.503740" lon="21.203360"><ele>11.7</ele><time>2026-06-05T00:36:23Z</time></trkpt>
			<trkpt lat="54.503420" lon="21.203390"><ele>11.4</ele><time>2026-06-05T00:36:30Z</time></trkpt>
			<trkpt lat="54.503060" lon="21.203320"><ele>11.1</ele><time>2026-06-05T00:36:37Z</time></trkpt>
			<trkpt lat="54.502790" lon="21.203160"><ele>10.9</ele><time>2026-06-05T00:36:44Z</time></trkpt>
			<trkpt lat="54.502720" lon="21.203100"><ele>10.8</ele><time>2026-06-05T00:36:51Z</time></trkpt>
			<trkpt lat="54.502470" lon="21.202870"><ele>10.6</ele><time>2026-06-05T00:36:58Z</time></trkpt>
			<trkpt lat="54.502240" lon="21.202520"><ele>10.3</ele><time>2026-06-05T00:37:05Z</time></trkpt>
			<trkpt lat="54.501400" lon="21.201270"><ele>9.4</ele><time>2026-06-05T00:37:12Z</time></trkpt>
			<trkpt lat="54.500720" lon="21.200250"><ele>8.6</ele><time>2026-06-05T00:37:19Z</time></trkpt>
			<trkpt lat="54.496240" lon="21.193460"><ele>8.8</ele><time>2026-06-05T00:37:25Z</time></trkpt>
			<trkpt lat="54.495870" lon="21.192900"><ele>8.9</ele><time>2026-06-05T00:37:32Z</time></trkpt>
			<trkpt lat="54.493840" lon="21.189890"><ele>9.2</ele><time>2026-06-05T00:37:39Z</time></trkpt>
			<trkpt lat="54.493770" lon="21.189810"><ele>9.3</ele><time>2026-06-05T00:37:46Z</time></trkpt>
			<trkpt lat="54.493340" lon="21.189350"><ele>9.3</ele><time>2026-06-05T00:37:53Z</time></trkpt>
			<trkpt lat="54.493090" lon="21.189080"><ele>9.6</ele><time>2026-06-05T00:38:00Z</time></trkpt>
			<trkpt lat="54.493010" lon="21.189040"><ele>9.6</ele><time>2026-06-05T00:38:07Z</time></trkpt>
			<trkpt lat="54.492950" lon="21.189030"><ele>9.7</ele><time>2026-06-05T00:38:14Z</time></trkpt>
			<trkpt lat="54.492820" lon="21.188930"><ele>9.8</ele><time>2026-06-05T00:38:21Z</time></trkpt>
			<trkpt lat="54.492640" lon="21.188730"><ele>9.9</ele><time>2026-06-05T00:38:28Z</time></trkpt>
			<trkpt lat="54.492590" lon="21.188710"><ele>10.0</ele><time>2026-06-05T00:38:35Z</time></trkpt>
			<trkpt lat="54.492530" lon="21.188720"><ele>10.0</ele><time>2026-06-05T00:38:42Z</time></trkpt>
			<trkpt lat="54.492480" lon="21.188780"><ele>10.1</ele><time>2026-06-05T00:38:49Z</time></trkpt>
			<trkpt lat="54.492250" lon="21.189400"><ele>10.4</ele><time>2026-06-05T00:38:56Z</time></trkpt>
			<trkpt lat="54.492090" lon="21.189590"><ele>10.5</ele><time>2026-06-05T00:39:03Z</time></trkpt>
			<trkpt lat="54.491750" lon="21.190490"><ele>11.0</ele><time>2026-06-05T00:39:10Z</time></trkpt>
			<trkpt lat="54.491780" lon="21.190750"><ele>11.1</ele><time>2026-06-05T00:39:16Z</time></trkpt>
			<trkpt lat="54.491890" lon="21.190980"><ele>11.3</ele><time>2026-06-05T00:39:23Z</time></trkpt>
			<trkpt lat="54.491560" lon="21.191690"><ele>11.7</ele><time>2026-06-05T00:39:30Z</time></trkpt>
			<trkpt lat="54.491110" lon="21.192610"><ele>12.2</ele><time>2026-06-05T00:39:37Z</time></trkpt>
			<trkpt lat="54.490700" lon="21.193480"><ele>12.7</ele><time>2026-06-05T00:39:44Z</time></trkpt>
			<trkpt lat="54.490010" lon="21.195230"><ele>13.6</ele><time>2026-06-05T00:39:51Z</time></trkpt>
			<trkpt lat="54.489700" lon="21.196160"><ele>14.1</ele><time>2026-06-05T00:39:58Z</time></trkpt>
			<trkpt lat="54.489030" lon="21.198110"><ele>15.1</ele><time>2026-06-05T00:40:05Z</time></trkpt>
			<trkpt lat="54.488820" lon="21.198770"><ele>15.4</ele><time>2026-06-05T00:40:12Z</time></trkpt>
			<trkpt lat="54.488040" lon="21.201140"><ele>16.1</ele><time>2026-06-05T00:40:19Z</time></trkpt>
			<trkpt lat="54.486700" lon="21.205210"><ele>16.3</ele><time>2026-06-05T00:40:26Z</time></trkpt>
			<trkpt lat="54.486460" lon="21.205860"><ele>16.3</ele><time>2026-06-05T00:40:33Z</time></trkpt>
			<trkpt lat="54.486230" lon="21.206470"><ele>16.3</ele><time>2026-06-05T00:40:40Z</time></trkpt>
			<trkpt lat="54.486010" lon="21.206990"><ele>16.3</ele><time>2026-06-05T00:40:47Z</time></trkpt>
			<trkpt lat="54.485580" lon="21.207860"><ele>16.4</ele><time>2026-06-05T00:40:54Z</time></trkpt>
			<trkpt lat="54.485400" lon="21.208190"><ele>16.4</ele><time>2026-06-05T00:41:01Z</time></trkpt>
			<trkpt lat="54.485050" lon="21.208770"><ele>16.4</ele><time>2026-06-05T00:41:07Z</time></trkpt>
			<trkpt lat="54.484610" lon="21.209420"><ele>16.4</ele><time>2026-06-05T00:41:14Z</time></trkpt>
			<trkpt lat="54.484270" lon="21.209880"><ele>16.5</ele><time>2026-06-05T00:41:21Z</time></trkpt>
			<trkpt lat="54.483880" lon="21.210330"><ele>16.5</ele><time>2026-06-05T00:41:28Z</time></trkpt>
			<trkpt lat="54.483430" lon="21.210810"><ele>16.5</ele><time>2026-06-05T00:41:35Z</time></trkpt>
			<trkpt lat="54.480710" lon="21.213420"><ele>16.8</ele><time>2026-06-05T00:41:42Z</time></trkpt>
			<trkpt lat="54.479920" lon="21.214210"><ele>16.9</ele><time>2026-06-05T00:41:49Z</time></trkpt>
			<trkpt lat="54.476350" lon="21.217680"><ele>17.5</ele><time>2026-06-05T00:41:56Z</time></trkpt>
			<trkpt lat="54.472470" lon="21.221240"><ele>16.6</ele><time>2026-06-05T00:42:03Z</time></trkpt>
			<trkpt lat="54.472110" lon="21.221480"><ele>16.4</ele><time>2026-06-05T00:42:10Z</time></trkpt>
			<trkpt lat="54.471940" lon="21.221570"><ele>16.3</ele><time>2026-06-05T00:42:17Z</time></trkpt>
			<trkpt lat="54.471740" lon="21.221630"><ele>16.2</ele><time>2026-06-05T00:42:24Z</time></trkpt>
			<trkpt lat="54.471560" lon="21.221650"><ele>16.2</ele><time>2026-06-05T00:42:31Z</time></trkpt>
			<trkpt lat="54.471360" lon="21.221640"><ele>16.1</ele><time>2026-06-05T00:42:38Z</time></trkpt>
			<trkpt lat="54.471150" lon="21.221580"><ele>16.0</ele><time>2026-06-05T00:42:45Z</time></trkpt>
			<trkpt lat="54.470960" lon="21.221500"><ele>15.9</ele><time>2026-06-05T00:42:51Z</time></trkpt>
			<trkpt lat="54.470730" lon="21.221350"><ele>15.8</ele><time>2026-06-05T00:42:58Z</time></trkpt>
			<trkpt lat="54.468860" lon="21.219560"><ele>14.9</ele><time>2026-06-05T00:43:05Z</time></trkpt>
			<trkpt lat="54.467990" lon="21.218740"><ele>14.4</ele><time>2026-06-05T00:43:12Z</time></trkpt>
			<trkpt lat="54.467820" lon="21.218610"><ele>14.4</ele><time>2026-06-05T00:43:19Z</time></trkpt>
			<trkpt lat="54.467630" lon="21.218550"><ele>14.3</ele><time>2026-06-05T00:43:26Z</time></trkpt>
			<trkpt lat="54.467430" lon="21.218600"><ele>14.2</ele><time>2026-06-05T00:43:33Z</time></trkpt>
			<trkpt lat="54.467300" lon="21.218730"><ele>14.1</ele><time>2026-06-05T00:43:40Z</time></trkpt>
			<trkpt lat="54.467160" lon="21.218920"><ele>14.0</ele><time>2026-06-05T00:43:47Z</time></trkpt>
			<trkpt lat="54.466910" lon="21.219370"><ele>13.9</ele><time>2026-06-05T00:43:54Z</time></trkpt>
			<trkpt lat="54.465000" lon="21.223390"><ele>15.5</ele><time>2026-06-05T00:44:01Z</time></trkpt>
			<trkpt lat="54.464820" lon="21.223650"><ele>15.6</ele><time>2026-06-05T00:44:08Z</time></trkpt>
			<trkpt lat="54.464580" lon="21.223920"><ele>15.8</ele><time>2026-06-05T00:44:15Z</time></trkpt>
			<trkpt lat="54.464340" lon="21.224130"><ele>16.0</ele><time>2026-06-05T00:44:22Z</time></trkpt>
			<trkpt lat="54.460690" lon="21.227150"><ele>18.5</ele><time>2026-06-05T00:44:29Z</time></trkpt>
			<trkpt lat="54.456970" lon="21.230280"><ele>18.8</ele><time>2026-06-05T00:44:36Z</time></trkpt>
			<trkpt lat="54.453520" lon="21.233150"><ele>18.1</ele><time>2026-06-05T00:44:42Z</time></trkpt>
			<trkpt lat="54.453380" lon="21.233280"><ele>18.1</ele><time>2026-06-05T00:44:49Z</time></trkpt>
			<trkpt lat="54.453230" lon="21.233410"><ele>18.1</ele><time>2026-06-05T00:44:56Z</time></trkpt>
			<trkpt lat="54.452910" lon="21.233740"><ele>18.0</ele><time>2026-06-05T00:45:03Z</time></trkpt>
			<trkpt lat="54.452240" lon="21.234530"><ele>17.8</ele><time>2026-06-05T00:45:10Z</time></trkpt>
			<trkpt lat="54.451500" lon="21.235440"><ele>17.7</ele><time>2026-06-05T00:45:17Z</time></trkpt>
			<trkpt lat="54.449740" lon="21.237480"><ele>18.6</ele><time>2026-06-05T00:45:24Z</time></trkpt>
			<trkpt lat="54.447660" lon="21.239890"><ele>19.7</ele><time>2026-06-05T00:45:31Z</time></trkpt>
			<trkpt lat="54.439690" lon="21.248820"><ele>23.8</ele><time>2026-06-05T00:45:38Z</time></trkpt>
			<trkpt lat="54.438410" lon="21.250290"><ele>24.5</ele><time>2026-06-05T00:45:45Z</time></trkpt>
			<trkpt lat="54.436470" lon="21.252470"><ele>25.5</ele><time>2026-06-05T00:45:52Z</time></trkpt>
			<trkpt lat="54.435740" lon="21.253240"><ele>25.1</ele><time>2026-06-05T00:45:59Z</time></trkpt>
			<trkpt lat="54.433990" lon="21.254950"><ele>24.1</ele><time>2026-06-05T00:46:06Z</time></trkpt>
			<trkpt lat="54.432300" lon="21.256600"><ele>23.1</ele><time>2026-06-05T00:46:13Z</time></trkpt>
			<trkpt lat="54.430930" lon="21.257880"><ele>22.3</ele><time>2026-06-05T00:46:20Z</time></trkpt>
			<trkpt lat="54.429470" lon="21.259270"><ele>21.5</ele><time>2026-06-05T00:46:26Z</time></trkpt>
			<trkpt lat="54.420650" lon="21.267310"><ele>26.7</ele><time>2026-06-05T00:46:33Z</time></trkpt>
			<trkpt lat="54.415670" lon="21.271820"><ele>29.1</ele><time>2026-06-05T00:46:40Z</time></trkpt>
			<trkpt lat="54.414320" lon="21.273050"><ele>29.8</ele><time>2026-06-05T00:46:47Z</time></trkpt>
			<trkpt lat="54.411450" lon="21.275650"><ele>31.1</ele><time>2026-06-05T00:46:54Z</time></trkpt>
			<trkpt lat="54.410150" lon="21.276860"><ele>31.6</ele><time>2026-06-05T00:47:01Z</time></trkpt>
			<trkpt lat="54.408830" lon="21.278080"><ele>32.1</ele><time>2026-06-05T00:47:08Z</time></trkpt>
			<trkpt lat="54.407660" lon="21.279110"><ele>32.6</ele><time>2026-06-05T00:47:15Z</time></trkpt>
			<trkpt lat="54.406820" lon="21.279970"><ele>32.9</ele><time>2026-06-05T00:47:22Z</time></trkpt>
			<trkpt lat="54.405830" lon="21.281210"><ele>33.3</ele><time>2026-06-05T00:47:29Z</time></trkpt>
			<trkpt lat="54.405350" lon="21.281860"><ele>33.5</ele><time>2026-06-05T00:47:36Z</time></trkpt>
			<trkpt lat="54.405150" lon="21.282080"><ele>33.6</ele><time>2026-06-05T00:47:43Z</time></trkpt>
			<trkpt lat="54.404380" lon="21.283000"><ele>33.9</ele><time>2026-06-05T00:47:50Z</time></trkpt>
			<trkpt lat="54.402700" lon="21.285150"><ele>34.6</ele><time>2026-06-05T00:47:57Z</time></trkpt>
			<trkpt lat="54.402320" lon="21.285590"><ele>34.7</ele><time>2026-06-05T00:48:04Z</time></trkpt>
			<trkpt lat="54.401510" lon="21.286580"><ele>35.0</ele><time>2026-06-05T00:48:11Z</time></trkpt>
			<trkpt lat="54.401320" lon="21.286840"><ele>35.1</ele><time>2026-06-05T00:48:17Z</time></trkpt>
			<trkpt lat="54.400880" lon="21.287360"><ele>35.2</ele><time>2026-06-05T00:48:24Z</time></trkpt>
			<trkpt lat="54.400290" lon="21.288060"><ele>35.5</ele><time>2026-06-05T00:48:31Z</time></trkpt>
			<trkpt lat="54.399650" lon="21.288640"><ele>35.7</ele><time>2026-06-05T00:48:38Z</time></trkpt>
			<trkpt lat="54.399340" lon="21.288890"><ele>35.8</ele><time>2026-06-05T00:48:45Z</time></trkpt>
			<trkpt lat="54.398140" lon="21.289990"><ele>36.2</ele><time>2026-06-05T00:48:52Z</time></trkpt>
			<trkpt lat="54.395030" lon="21.292770"><ele>35.1</ele><time>2026-06-05T00:48:59Z</time></trkpt>
			<trkpt lat="54.393670" lon="21.293950"><ele>34.3</ele><time>2026-06-05T00:49:06Z</time></trkpt>
			<trkpt lat="54.393030" lon="21.294510"><ele>33.9</ele><time>2026-06-05T00:49:13Z</time></trkpt>
			<trkpt lat="54.388280" lon="21.298780"><ele>32.1</ele><time>2026-06-05T00:49:20Z</time></trkpt>
			<trkpt lat="54.387480" lon="21.299510"><ele>32.2</ele><time>2026-06-05T00:49:27Z</time></trkpt>
			<trkpt lat="54.385220" lon="21.301460"><ele>32.6</ele><time>2026-06-05T00:49:34Z</time></trkpt>
			<trkpt lat="54.381730" lon="21.304560"><ele>33.3</ele><time>2026-06-05T00:49:41Z</time></trkpt>
			<trkpt lat="54.379440" lon="21.306610"><ele>34.3</ele><time>2026-06-05T00:49:48Z</time></trkpt>
			<trkpt lat="54.378980" lon="21.306980"><ele>34.5</ele><time>2026-06-05T00:49:55Z</time></trkpt>
			<trkpt lat="54.378620" lon="21.307250"><ele>34.6</ele><time>2026-06-05T00:50:01Z</time></trkpt>
			<trkpt lat="54.378350" lon="21.307380"><ele>34.7</ele><time>2026-06-05T00:50:08Z</time></trkpt>
			<trkpt lat="54.378060" lon="21.307480"><ele>34.8</ele><time>2026-06-05T00:50:15Z</time></trkpt>
			<trkpt lat="54.377620" lon="21.307590"><ele>35.0</ele><time>2026-06-05T00:50:22Z</time></trkpt>
			<trkpt lat="54.373740" lon="21.308250"><ele>36.6</ele><time>2026-06-05T00:50:29Z</time></trkpt>
			<trkpt lat="54.368630" lon="21.309110"><ele>36.4</ele><time>2026-06-05T00:50:36Z</time></trkpt>
			<trkpt lat="54.368420" lon="21.309140"><ele>36.4</ele><time>2026-06-05T00:50:43Z</time></trkpt>
			<trkpt lat="54.368250" lon="21.309190"><ele>36.3</ele><time>2026-06-05T00:50:50Z</time></trkpt>
			<trkpt lat="54.368070" lon="21.309280"><ele>36.3</ele><time>2026-06-05T00:50:57Z</time></trkpt>
			<trkpt lat="54.367860" lon="21.309400"><ele>36.3</ele><time>2026-06-05T00:51:04Z</time></trkpt>
			<trkpt lat="54.367690" lon="21.309520"><ele>36.3</ele><time>2026-06-05T00:51:11Z</time></trkpt>
			<trkpt lat="54.367370" lon="21.309810"><ele>36.2</ele><time>2026-06-05T00:51:18Z</time></trkpt>
			<trkpt lat="54.366100" lon="21.311210"><ele>36.0</ele><time>2026-06-05T00:51:25Z</time></trkpt>
			<trkpt lat="54.365460" lon="21.311830"><ele>35.9</ele><time>2026-06-05T00:51:32Z</time></trkpt>
			<trkpt lat="54.364620" lon="21.312630"><ele>35.8</ele><time>2026-06-05T00:51:39Z</time></trkpt>
			<trkpt lat="54.364430" lon="21.312780"><ele>35.8</ele><time>2026-06-05T00:51:46Z</time></trkpt>
			<trkpt lat="54.364170" lon="21.312510"><ele>35.7</ele><time>2026-06-05T00:51:52Z</time></trkpt>
			<trkpt lat="54.364030" lon="21.312350"><ele>35.7</ele><time>2026-06-05T00:51:59Z</time></trkpt>
			<trkpt lat="54.363530" lon="21.311660"><ele>35.5</ele><time>2026-06-05T00:52:06Z</time></trkpt>
			<trkpt lat="54.363170" lon="21.310760"><ele>35.4</ele><time>2026-06-05T00:52:13Z</time></trkpt>
			<trkpt lat="54.363110" lon="21.310600"><ele>35.4</ele><time>2026-06-05T00:52:20Z</time></trkpt>
			<trkpt lat="54.363420" lon="21.310370"><ele>35.3</ele><time>2026-06-05T00:52:27Z</time></trkpt>
			<trkpt lat="54.363890" lon="21.309620"><ele>35.1</ele><time>2026-06-05T00:52:34Z</time></trkpt>
			<trkpt lat="54.363950" lon="21.309480"><ele>35.1</ele><time>2026-06-05T00:52:41Z</time></trkpt>
			<trkpt lat="54.364000" lon="21.309280"><ele>35.1</ele><time>2026-06-05T00:52:48Z</time></trkpt>
			<trkpt lat="54.364000" lon="21.309050"><ele>35.0</ele><time>2026-06-05T00:52:55Z</time></trkpt>
			<trkpt lat="54.363930" lon="21.308620"><ele>35.0</ele><time>2026-06-05T00:53:02Z</time></trkpt>
			<trkpt lat="54.363900" lon="21.308500"><ele>35.0</ele><time>2026-06-05T00:53:09Z</time></trkpt>
			<trkpt lat="54.363760" lon="21.308030"><ele>34.9</ele><time>2026-06-05T00:53:16Z</time></trkpt>
			<trkpt lat="54.363690" lon="21.307770"><ele>34.8</ele><time>2026-06-05T00:53:23Z</time></trkpt>
			<trkpt lat="54.363570" lon="21.307500"><ele>34.8</ele><time>2026-06-05T00:53:30Z</time></trkpt>
			<trkpt lat="54.363300" lon="21.307120"><ele>34.7</ele><time>2026-06-05T00:53:37Z</time></trkpt>
			<trkpt lat="54.363210" lon="21.307000"><ele>34.7</ele><time>2026-06-05T00:53:43Z</time></trkpt>
			<trkpt lat="54.363130" lon="21.306950"><ele>34.7</ele><time>2026-06-05T00:53:50Z</time></trkpt>
			<trkpt lat="54.363050" lon="21.306930"><ele>34.6</ele><time>2026-06-05T00:53:57Z</time></trkpt>
			<trkpt lat="54.362980" lon="21.306940"><ele>34.6</ele><time>2026-06-05T00:54:04Z</time></trkpt>
			<trkpt lat="54.362550" lon="21.307150"><ele>34.5</ele><time>2026-06-05T00:54:11Z</time></trkpt>
			<trkpt lat="54.362450" lon="21.307180"><ele>34.5</ele><time>2026-06-05T00:54:18Z</time></trkpt>
			<trkpt lat="54.362240" lon="21.307130"><ele>34.4</ele><time>2026-06-05T00:54:25Z</time></trkpt>
			<trkpt lat="54.361730" lon="21.306720"><ele>34.3</ele><time>2026-06-05T00:54:32Z</time></trkpt>
			<trkpt lat="54.361560" lon="21.306540"><ele>34.3</ele><time>2026-06-05T00:54:39Z</time></trkpt>
			<trkpt lat="54.361490" lon="21.306430"><ele>34.2</ele><time>2026-06-05T00:54:46Z</time></trkpt>
			<trkpt lat="54.361450" lon="21.306320"><ele>34.2</ele><time>2026-06-05T00:54:53Z</time></trkpt>
			<trkpt lat="54.361380" lon="21.305970"><ele>34.2</ele><time>2026-06-05T00:55:00Z</time></trkpt>
			<trkpt lat="54.361330" lon="21.305800"><ele>34.1</ele><time>2026-06-05T00:55:07Z</time></trkpt>
			<trkpt lat="54.361280" lon="21.305710"><ele>34.1</ele><time>2026-06-05T00:55:14Z</time></trkpt>
			<trkpt lat="54.361230" lon="21.305630"><ele>34.1</ele><time>2026-06-05T00:55:21Z</time></trkpt>
			<trkpt lat="54.361080" lon="21.304850"><ele>34.0</ele><time>2026-06-05T00:55:27Z</time></trkpt>
			<trkpt lat="54.361070" lon="21.304730"><ele>34.0</ele><time>2026-06-05T00:55:34Z</time></trkpt>
			<trkpt lat="54.361090" lon="21.304660"><ele>34.0</ele><time>2026-06-05T00:55:41Z</time></trkpt>
			<trkpt lat="54.361120" lon="21.304620"><ele>34.0</ele><time>2026-06-05T00:55:48Z</time></trkpt>
			<trkpt lat="54.361170" lon="21.304550"><ele>33.9</ele><time>2026-06-05T00:55:55Z</time></trkpt>
			<trkpt lat="54.361390" lon="21.304410"><ele>33.9</ele><time>2026-06-05T00:56:02Z</time></trkpt>
			<trkpt lat="54.361930" lon="21.304060"><ele>33.8</ele><time>2026-06-05T00:56:09Z</time></trkpt>
			<trkpt lat="54.362010" lon="21.303990"><ele>33.7</ele><time>2026-06-05T00:56:16Z</time></trkpt>
			<trkpt lat="54.362040" lon="21.303910"><ele>33.7</ele><time>2026-06-05T00:56:23Z</time></trkpt>
			<trkpt lat="54.362010" lon="21.303720"><ele>33.7</ele><time>2026-06-05T00:56:30Z</time></trkpt>
			<trkpt lat="54.361810" lon="21.303320"><ele>33.7</ele><time>2026-06-05T00:56:37Z</time></trkpt>
			<trkpt lat="54.361770" lon="21.303150"><ele>33.8</ele><time>2026-06-05T00:56:44Z</time></trkpt>
			<trkpt lat="54.361760" lon="21.302900"><ele>33.9</ele><time>2026-06-05T00:56:51Z</time></trkpt>
			<trkpt lat="54.361780" lon="21.302570"><ele>34.0</ele><time>2026-06-05T00:56:58Z</time></trkpt>
			<trkpt lat="54.361810" lon="21.302140"><ele>34.1</ele><time>2026-06-05T00:57:05Z</time></trkpt>
			<trkpt lat="54.361950" lon="21.300200"><ele>34.7</ele><time>2026-06-05T00:57:12Z</time></trkpt>
			<trkpt lat="54.361950" lon="21.300200"><ele>34.7</ele><time>2026-06-05T00:57:19Z</time></trkpt>
			<trkpt lat="54.362030" lon="21.299290"><ele>35.0</ele><time>2026-06-05T00:57:26Z</time></trkpt>
			<trkpt lat="54.362130" lon="21.298190"><ele>35.4</ele><time>2026-06-05T00:57:34Z</time></trkpt>
			<trkpt lat="54.362250" lon="21.297260"><ele>35.7</ele><time>2026-06-05T00:57:41Z</time></trkpt>
			<trkpt lat="54.362320" lon="21.296830"><ele>35.8</ele><time>2026-06-05T00:57:49Z</time></trkpt>
			<trkpt lat="54.362570" lon="21.295020"><ele>36.4</ele><time>2026-06-05T00:57:56Z</time></trkpt>
			<trkpt lat="54.362920" lon="21.292810"><ele>37.2</ele><time>2026-06-05T00:58:04Z</time></trkpt>
			<trkpt lat="54.363060" lon="21.291640"><ele>37.6</ele><time>2026-06-05T00:58:11Z</time></trkpt>
			<trkpt lat="54.363090" lon="21.291060"><ele>37.8</ele><time>2026-06-05T00:58:19Z</time></trkpt>
			<trkpt lat="54.363160" lon="21.289300"><ele>38.3</ele><time>2026-06-05T00:58:26Z</time></trkpt>
			<trkpt lat="54.363210" lon="21.285920"><ele>39.1</ele><time>2026-06-05T00:58:34Z</time></trkpt>
			<trkpt lat="54.363330" lon="21.277950"><ele>40.8</ele><time>2026-06-05T00:58:41Z</time></trkpt>
			<trkpt lat="54.363360" lon="21.275770"><ele>41.2</ele><time>2026-06-05T00:58:49Z</time></trkpt>
			<trkpt lat="54.363370" lon="21.274850"><ele>41.4</ele><time>2026-06-05T00:58:56Z</time></trkpt>
			<trkpt lat="54.363420" lon="21.271960"><ele>42.1</ele><time>2026-06-05T00:59:03Z</time></trkpt>
			<trkpt lat="54.363590" lon="21.259370"><ele>44.9</ele><time>2026-06-05T00:59:11Z</time></trkpt>
			<trkpt lat="54.363600" lon="21.258590"><ele>45.1</ele><time>2026-06-05T00:59:18Z</time></trkpt>
			<trkpt lat="54.363580" lon="21.258160"><ele>45.1</ele><time>2026-06-05T00:59:26Z</time></trkpt>
			<trkpt lat="54.363530" lon="21.257510"><ele>45.3</ele><time>2026-06-05T00:59:33Z</time></trkpt>
			<trkpt lat="54.363360" lon="21.256010"><ele>46.5</ele><time>2026-06-05T00:59:41Z</time></trkpt>
			<trkpt lat="54.363350" lon="21.255750"><ele>46.7</ele><time>2026-06-05T00:59:48Z</time></trkpt>
			<trkpt lat="54.363350" lon="21.255500"><ele>47.0</ele><time>2026-06-05T00:59:56Z</time></trkpt>
			<trkpt lat="54.363360" lon="21.255250"><ele>47.2</ele><time>2026-06-05T01:00:03Z</time></trkpt>
			<trkpt lat="54.363570" lon="21.253010"><ele>49.0</ele><time>2026-06-05T01:00:11Z</time></trkpt>
			<trkpt lat="54.363960" lon="21.248330"><ele>52.9</ele><time>2026-06-05T01:00:18Z</time></trkpt>
			<trkpt lat="54.364010" lon="21.247850"><ele>53.3</ele><time>2026-06-05T01:00:26Z</time></trkpt>
			<trkpt lat="54.364220" lon="21.246430"><ele>54.5</ele><time>2026-06-05T01:00:33Z</time></trkpt>
			<trkpt lat="54.364500" lon="21.245560"><ele>55.3</ele><time>2026-06-05T01:00:40Z</time></trkpt>
			<trkpt lat="54.367610" lon="21.236110"><ele>59.1</ele><time>2026-06-05T01:00:48Z</time></trkpt>
			<trkpt lat="54.367780" lon="21.235550"><ele>59.2</ele><time>2026-06-05T01:00:55Z</time></trkpt>
			<trkpt lat="54.367910" lon="21.235100"><ele>59.3</ele><time>2026-06-05T01:01:03Z</time></trkpt>
			<trkpt lat="54.368010" lon="21.234650"><ele>59.3</ele><time>2026-06-05T01:01:10Z</time></trkpt>
			<trkpt lat="54.368070" lon="21.234180"><ele>59.4</ele><time>2026-06-05T01:01:18Z</time></trkpt>
			<trkpt lat="54.368100" lon="21.233680"><ele>59.5</ele><time>2026-06-05T01:01:25Z</time></trkpt>
			<trkpt lat="54.368140" lon="21.225430"><ele>58.3</ele><time>2026-06-05T01:01:33Z</time></trkpt>
			<trkpt lat="54.368180" lon="21.203850"><ele>44.1</ele><time>2026-06-05T01:01:40Z</time></trkpt>
			<trkpt lat="54.368260" lon="21.190890"><ele>45.7</ele><time>2026-06-05T01:01:48Z</time></trkpt>
			<trkpt lat="54.368250" lon="21.181030"><ele>52.8</ele><time>2026-06-05T01:01:55Z</time></trkpt>
			<trkpt lat="54.368260" lon="21.179210"><ele>51.9</ele><time>2026-06-05T01:02:03Z</time></trkpt>
			<trkpt lat="54.368280" lon="21.178820"><ele>51.7</ele><time>2026-06-05T01:02:10Z</time></trkpt>
			<trkpt lat="54.368350" lon="21.178190"><ele>51.4</ele><time>2026-06-05T01:02:17Z</time></trkpt>
			<trkpt lat="54.368480" lon="21.177320"><ele>51.0</ele><time>2026-06-05T01:02:25Z</time></trkpt>
			<trkpt lat="54.369340" lon="21.171680"><ele>48.2</ele><time>2026-06-05T01:02:32Z</time></trkpt>
			<trkpt lat="54.369750" lon="21.169000"><ele>46.9</ele><time>2026-06-05T01:02:40Z</time></trkpt>
			<trkpt lat="54.369850" lon="21.168430"><ele>46.6</ele><time>2026-06-05T01:02:47Z</time></trkpt>
			<trkpt lat="54.370020" lon="21.167930"><ele>46.3</ele><time>2026-06-05T01:02:55Z</time></trkpt>
			<trkpt lat="54.372990" lon="21.159680"><ele>44.0</ele><time>2026-06-05T01:03:02Z</time></trkpt>
			<trkpt lat="54.373380" lon="21.158630"><ele>43.7</ele><time>2026-06-05T01:03:10Z</time></trkpt>
			<trkpt lat="54.374430" lon="21.155730"><ele>43.0</ele><time>2026-06-05T01:03:17Z</time></trkpt>
			<trkpt lat="54.374760" lon="21.154970"><ele>42.8</ele><time>2026-06-05T01:03:25Z</time></trkpt>
			<trkpt lat="54.375560" lon="21.153350"><ele>42.4</ele><time>2026-06-05T01:03:32Z</time></trkpt>
			<trkpt lat="54.375970" lon="21.152510"><ele>42.2</ele><time>2026-06-05T01:03:40Z</time></trkpt>
			<trkpt lat="54.377860" lon="21.148940"><ele>41.4</ele><time>2026-06-05T01:03:47Z</time></trkpt>
			<trkpt lat="54.380160" lon="21.144530"><ele>40.5</ele><time>2026-06-05T01:03:55Z</time></trkpt>
			<trkpt lat="54.383370" lon="21.138440"><ele>39.6</ele><time>2026-06-05T01:04:02Z</time></trkpt>
			<trkpt lat="54.383770" lon="21.137590"><ele>39.5</ele><time>2026-06-05T01:04:09Z</time></trkpt>
			<trkpt lat="54.383970" lon="21.137100"><ele>39.5</ele><time>2026-06-05T01:04:17Z</time></trkpt>
			<trkpt lat="54.386010" lon="21.131210"><ele>38.9</ele><time>2026-06-05T01:04:24Z</time></trkpt>
			<trkpt lat="54.386140" lon="21.130730"><ele>38.9</ele><time>2026-06-05T01:04:32Z</time></trkpt>
			<trkpt lat="54.387340" lon="21.125290"><ele>37.5</ele><time>2026-06-05T01:04:39Z</time></trkpt>
			<trkpt lat="54.387490" lon="21.124620"><ele>37.3</ele><time>2026-06-05T01:04:47Z</time></trkpt>
			<trkpt lat="54.387570" lon="21.124350"><ele>37.2</ele><time>2026-06-05T01:04:54Z</time></trkpt>
			<trkpt lat="54.387660" lon="21.124090"><ele>37.1</ele><time>2026-06-05T01:05:02Z</time></trkpt>
			<trkpt lat="54.387770" lon="21.123850"><ele>37.1</ele><time>2026-06-05T01:05:09Z</time></trkpt>
			<trkpt lat="54.393300" lon="21.115220"><ele>34.4</ele><time>2026-06-05T01:05:17Z</time></trkpt>
			<trkpt lat="54.394190" lon="21.113880"><ele>34.1</ele><time>2026-06-05T01:05:24Z</time></trkpt>
			<trkpt lat="54.395320" lon="21.112620"><ele>33.9</ele><time>2026-06-05T01:05:32Z</time></trkpt>
			<trkpt lat="54.395520" lon="21.112360"><ele>33.8</ele><time>2026-06-05T01:05:39Z</time></trkpt>
			<trkpt lat="54.396190" lon="21.111400"><ele>33.7</ele><time>2026-06-05T01:05:46Z</time></trkpt>
			<trkpt lat="54.396870" lon="21.110450"><ele>33.5</ele><time>2026-06-05T01:05:54Z</time></trkpt>
			<trkpt lat="54.397600" lon="21.109510"><ele>33.3</ele><time>2026-06-05T01:06:01Z</time></trkpt>
			<trkpt lat="54.398260" lon="21.108740"><ele>33.1</ele><time>2026-06-05T01:06:09Z</time></trkpt>
			<trkpt lat="54.398470" lon="21.108400"><ele>33.1</ele><time>2026-06-05T01:06:16Z</time></trkpt>
			<trkpt lat="54.398520" lon="21.108220"><ele>33.1</ele><time>2026-06-05T01:06:24Z</time></trkpt>
			<trkpt lat="54.398510" lon="21.107860"><ele>33.1</ele><time>2026-06-05T01:06:31Z</time></trkpt>
			<trkpt lat="54.398400" lon="21.107010"><ele>33.2</ele><time>2026-06-05T01:06:39Z</time></trkpt>
			<trkpt lat="54.398430" lon="21.106670"><ele>33.2</ele><time>2026-06-05T01:06:46Z</time></trkpt>
			<trkpt lat="54.398610" lon="21.106350"><ele>33.2</ele><time>2026-06-05T01:06:54Z</time></trkpt>
			<trkpt lat="54.399040" lon="21.105750"><ele>33.3</ele><time>2026-06-05T01:07:01Z</time></trkpt>
			<trkpt lat="54.399260" lon="21.105450"><ele>33.4</ele><time>2026-06-05T01:07:09Z</time></trkpt>
			<trkpt lat="54.399480" lon="21.104860"><ele>33.4</ele><time>2026-06-05T01:07:16Z</time></trkpt>
			<trkpt lat="54.399550" lon="21.104340"><ele>33.4</ele><time>2026-06-05T01:07:23Z</time></trkpt>
			<trkpt lat="54.399650" lon="21.102960"><ele>33.5</ele><time>2026-06-05T01:07:31Z</time></trkpt>
			<trkpt lat="54.399790" lon="21.100990"><ele>33.7</ele><time>2026-06-05T01:07:38Z</time></trkpt>
			<trkpt lat="54.399860" lon="21.100240"><ele>33.8</ele><time>2026-06-05T01:07:46Z</time></trkpt>
			<trkpt lat="54.399970" lon="21.099600"><ele>33.8</ele><time>2026-06-05T01:07:53Z</time></trkpt>
			<trkpt lat="54.400190" lon="21.098870"><ele>33.9</ele><time>2026-06-05T01:08:01Z</time></trkpt>
			<trkpt lat="54.400550" lon="21.098120"><ele>33.9</ele><time>2026-06-05T01:08:08Z</time></trkpt>
			<trkpt lat="54.407540" lon="21.087970"><ele>33.8</ele><time>2026-06-05T01:08:16Z</time></trkpt>
			<trkpt lat="54.412510" lon="21.080710"><ele>33.1</ele><time>2026-06-05T01:08:23Z</time></trkpt>
			<trkpt lat="54.415390" lon="21.078280"><ele>32.6</ele><time>2026-06-05T01:08:31Z</time></trkpt>
			<trkpt lat="54.415660" lon="21.077970"><ele>32.6</ele><time>2026-06-05T01:08:38Z</time></trkpt>
			<trkpt lat="54.415900" lon="21.077630"><ele>32.5</ele><time>2026-06-05T01:08:46Z</time></trkpt>
			<trkpt lat="54.416050" lon="21.077300"><ele>32.5</ele><time>2026-06-05T01:08:53Z</time></trkpt>
			<trkpt lat="54.416210" lon="21.076960"><ele>32.5</ele><time>2026-06-05T01:09:00Z</time></trkpt>
			<trkpt lat="54.417650" lon="21.072370"><ele>32.1</ele><time>2026-06-05T01:09:08Z</time></trkpt>
			<trkpt lat="54.417910" lon="21.071620"><ele>32.0</ele><time>2026-06-05T01:09:15Z</time></trkpt>
			<trkpt lat="54.418560" lon="21.070130"><ele>31.9</ele><time>2026-06-05T01:09:23Z</time></trkpt>
			<trkpt lat="54.423230" lon="21.059450"><ele>30.9</ele><time>2026-06-05T01:09:30Z</time></trkpt>
			<trkpt lat="54.426910" lon="21.050470"><ele>30.0</ele><time>2026-06-05T01:09:38Z</time></trkpt>
			<trkpt lat="54.427130" lon="21.049960"><ele>29.9</ele><time>2026-06-05T01:09:45Z</time></trkpt>
			<trkpt lat="54.428170" lon="21.047390"><ele>29.7</ele><time>2026-06-05T01:09:53Z</time></trkpt>
			<trkpt lat="54.428270" lon="21.047230"><ele>29.7</ele><time>2026-06-05T01:10:00Z</time></trkpt>
			<trkpt lat="54.428350" lon="21.047140"><ele>29.7</ele><time>2026-06-05T01:10:08Z</time></trkpt>
			<trkpt lat="54.428460" lon="21.047090"><ele>29.7</ele><time>2026-06-05T01:10:15Z</time></trkpt>
			<trkpt lat="54.428540" lon="21.047110"><ele>29.7</ele><time>2026-06-05T01:10:23Z</time></trkpt>
			<trkpt lat="54.428660" lon="21.047160"><ele>29.7</ele><time>2026-06-05T01:10:30Z</time></trkpt>
			<trkpt lat="54.428770" lon="21.047250"><ele>29.6</ele><time>2026-06-05T01:10:38Z</time></trkpt>
			<trkpt lat="54.428990" lon="21.047530"><ele>29.6</ele><time>2026-06-05T01:10:45Z</time></trkpt>
			<trkpt lat="54.429680" lon="21.048530"><ele>29.5</ele><time>2026-06-05T01:10:52Z</time></trkpt>
			<trkpt lat="54.429800" lon="21.048670"><ele>29.5</ele><time>2026-06-05T01:11:00Z</time></trkpt>
			<trkpt lat="54.429920" lon="21.048790"><ele>29.5</ele><time>2026-06-05T01:11:07Z</time></trkpt>
			<trkpt lat="54.430100" lon="21.048860"><ele>29.5</ele><time>2026-06-05T01:11:15Z</time></trkpt>
			<trkpt lat="54.430190" lon="21.048860"><ele>29.4</ele><time>2026-06-05T01:11:22Z</time></trkpt>
			<trkpt lat="54.430300" lon="21.048850"><ele>29.4</ele><time>2026-06-05T01:11:30Z</time></trkpt>
			<trkpt lat="54.430490" lon="21.048780"><ele>29.4</ele><time>2026-06-05T01:11:37Z</time></trkpt>
			<trkpt lat="54.430640" lon="21.048760"><ele>29.4</ele><time>2026-06-05T01:11:45Z</time></trkpt>
			<trkpt lat="54.430740" lon="21.048770"><ele>29.4</ele><time>2026-06-05T01:11:52Z</time></trkpt>
			<trkpt lat="54.430840" lon="21.048810"><ele>29.4</ele><time>2026-06-05T01:12:00Z</time></trkpt>
			<trkpt lat="54.430950" lon="21.048890"><ele>29.3</ele><time>2026-06-05T01:12:07Z</time></trkpt>
			<trkpt lat="54.431130" lon="21.049060"><ele>29.3</ele><time>2026-06-05T01:12:15Z</time></trkpt>
			<trkpt lat="54.431300" lon="21.049180"><ele>29.3</ele><time>2026-06-05T01:12:22Z</time></trkpt>
			<trkpt lat="54.431410" lon="21.049220"><ele>29.3</ele><time>2026-06-05T01:12:29Z</time></trkpt>
			<trkpt lat="54.431490" lon="21.049200"><ele>29.3</ele><time>2026-06-05T01:12:37Z</time></trkpt>
			<trkpt lat="54.431590" lon="21.049120"><ele>29.3</ele><time>2026-06-05T01:12:44Z</time></trkpt>
			<trkpt lat="54.431680" lon="21.049010"><ele>29.3</ele><time>2026-06-05T01:12:52Z</time></trkpt>
			<trkpt lat="54.432740" lon="21.046550"><ele>29.0</ele><time>2026-06-05T01:12:59Z</time></trkpt>
			<trkpt lat="54.434670" lon="21.042130"><ele>29.7</ele><time>2026-06-05T01:13:07Z</time></trkpt>
			<trkpt lat="54.434950" lon="21.041500"><ele>29.8</ele><time>2026-06-05T01:13:14Z</time></trkpt>
			<trkpt lat="54.436980" lon="21.036830"><ele>30.7</ele><time>2026-06-05T01:13:22Z</time></trkpt>
			<trkpt lat="54.437460" lon="21.035720"><ele>30.9</ele><time>2026-06-05T01:13:29Z</time></trkpt>
			<trkpt lat="54.437560" lon="21.035570"><ele>31.0</ele><time>2026-06-05T01:13:37Z</time></trkpt>
			<trkpt lat="54.437880" lon="21.034990"><ele>31.1</ele><time>2026-06-05T01:13:44Z</time></trkpt>
			<trkpt lat="54.440430" lon="21.031410"><ele>28.2</ele><time>2026-06-05T01:13:52Z</time></trkpt>
			<trkpt lat="54.440720" lon="21.031010"><ele>27.7</ele><time>2026-06-05T01:13:59Z</time></trkpt>
			<trkpt lat="54.440870" lon="21.030750"><ele>27.3</ele><time>2026-06-05T01:14:06Z</time></trkpt>
			<trkpt lat="54.441000" lon="21.030530"><ele>27.1</ele><time>2026-06-05T01:14:14Z</time></trkpt>
			<trkpt lat="54.441180" lon="21.030070"><ele>26.6</ele><time>2026-06-05T01:14:21Z</time></trkpt>
			<trkpt lat="54.441430" lon="21.029260"><ele>25.8</ele><time>2026-06-05T01:14:29Z</time></trkpt>
			<trkpt lat="54.441810" lon="21.028100"><ele>24.7</ele><time>2026-06-05T01:14:36Z</time></trkpt>
			<trkpt lat="54.442130" lon="21.027100"><ele>23.8</ele><time>2026-06-05T01:14:44Z</time></trkpt>
			<trkpt lat="54.442290" lon="21.026790"><ele>23.4</ele><time>2026-06-05T01:14:51Z</time></trkpt>
			<trkpt lat="54.442360" lon="21.026700"><ele>23.3</ele><time>2026-06-05T01:14:59Z</time></trkpt>
			<trkpt lat="54.442530" lon="21.026520"><ele>23.0</ele><time>2026-06-05T01:15:06Z</time></trkpt>
			<trkpt lat="54.442900" lon="21.026270"><ele>22.4</ele><time>2026-06-05T01:15:14Z</time></trkpt>
			<trkpt lat="54.443130" lon="21.026070"><ele>22.0</ele><time>2026-06-05T01:15:21Z</time></trkpt>
			<trkpt lat="54.443290" lon="21.025850"><ele>21.7</ele><time>2026-06-05T01:15:29Z</time></trkpt>
			<trkpt lat="54.443360" lon="21.025740"><ele>21.6</ele><time>2026-06-05T01:15:36Z</time></trkpt>
			<trkpt lat="54.443560" lon="21.025340"><ele>21.2</ele><time>2026-06-05T01:15:43Z</time></trkpt>
			<trkpt lat="54.443880" lon="21.024620"><ele>20.4</ele><time>2026-06-05T01:15:51Z</time></trkpt>
			<trkpt lat="54.444030" lon="21.024140"><ele>19.9</ele><time>2026-06-05T01:15:58Z</time></trkpt>
			<trkpt lat="54.444150" lon="21.023710"><ele>19.5</ele><time>2026-06-05T01:16:06Z</time></trkpt>
			<trkpt lat="54.444200" lon="21.023450"><ele>19.3</ele><time>2026-06-05T01:16:13Z</time></trkpt>
			<trkpt lat="54.444350" lon="21.023110"><ele>18.9</ele><time>2026-06-05T01:16:21Z</time></trkpt>
			<trkpt lat="54.444500" lon="21.022860"><ele>18.6</ele><time>2026-06-05T01:16:28Z</time></trkpt>
			<trkpt lat="54.444590" lon="21.022780"><ele>18.5</ele><time>2026-06-05T01:16:36Z</time></trkpt>
			<trkpt lat="54.445280" lon="21.022220"><ele>19.1</ele><time>2026-06-05T01:16:43Z</time></trkpt>
			<trkpt lat="54.445780" lon="21.021790"><ele>19.7</ele><time>2026-06-05T01:16:51Z</time></trkpt>
			<trkpt lat="54.446070" lon="21.021510"><ele>20.0</ele><time>2026-06-05T01:16:58Z</time></trkpt>
			<trkpt lat="54.446290" lon="21.021280"><ele>20.3</ele><time>2026-06-05T01:17:06Z</time></trkpt>
			<trkpt lat="54.446500" lon="21.021120"><ele>20.6</ele><time>2026-06-05T01:17:13Z</time></trkpt>
			<trkpt lat="54.446630" lon="21.020650"><ele>20.9</ele><time>2026-06-05T01:17:21Z</time></trkpt>
			<trkpt lat="54.446730" lon="21.020490"><ele>21.1</ele><time>2026-06-05T01:17:28Z</time></trkpt>
			<trkpt lat="54.446750" lon="21.020340"><ele>21.2</ele><time>2026-06-05T01:17:35Z</time></trkpt>
			<trkpt lat="54.446770" lon="21.020250"><ele>21.2</ele><time>2026-06-05T01:17:43Z</time></trkpt>
			<trkpt lat="54.446770" lon="21.019990"><ele>21.4</ele><time>2026-06-05T01:17:50Z</time></trkpt>
			<trkpt lat="54.446630" lon="21.018930"><ele>22.1</ele><time>2026-06-05T01:17:58Z</time></trkpt>
			<trkpt lat="54.446620" lon="21.018850"><ele>22.1</ele><time>2026-06-05T01:18:05Z</time></trkpt>
			<trkpt lat="54.446590" lon="21.018630"><ele>22.3</ele><time>2026-06-05T01:18:13Z</time></trkpt>
			<trkpt lat="54.446550" lon="21.018310"><ele>22.5</ele><time>2026-06-05T01:18:20Z</time></trkpt>
			<trkpt lat="54.446510" lon="21.018000"><ele>22.7</ele><time>2026-06-05T01:18:28Z</time></trkpt>
			<trkpt lat="54.446430" lon="21.017400"><ele>23.1</ele><time>2026-06-05T01:18:35Z</time></trkpt>
			<trkpt lat="54.446390" lon="21.017150"><ele>23.2</ele><time>2026-06-05T01:18:43Z</time></trkpt>
			<trkpt lat="54.446370" lon="21.017060"><ele>23.3</ele><time>2026-06-05T01:18:50Z</time></trkpt>
			<trkpt lat="54.446040" lon="21.016320"><ele>23.9</ele><time>2026-06-05T01:18:58Z</time></trkpt>
			<trkpt lat="54.445630" lon="21.014250"><ele>25.3</ele><time>2026-06-05T01:19:05Z</time></trkpt>
			<trkpt lat="54.445460" lon="21.013390"><ele>25.9</ele><time>2026-06-05T01:19:12Z</time></trkpt>
			<trkpt lat="54.445180" lon="21.011950"><ele>26.8</ele><time>2026-06-05T01:19:20Z</time></trkpt>
			<trkpt lat="54.445090" lon="21.011530"><ele>27.1</ele><time>2026-06-05T01:19:27Z</time></trkpt>
			<trkpt lat="54.444940" lon="21.010930"><ele>27.5</ele><time>2026-06-05T01:19:35Z</time></trkpt>
			<trkpt lat="54.444710" lon="21.010120"><ele>28.1</ele><time>2026-06-05T01:19:42Z</time></trkpt>
			<trkpt lat="54.444400" lon="21.009340"><ele>28.4</ele><time>2026-06-05T01:19:50Z</time></trkpt>
			<trkpt lat="54.443950" lon="21.007900"><ele>28.7</ele><time>2026-06-05T01:19:57Z</time></trkpt>
			<trkpt lat="54.443420" lon="21.006040"><ele>29.1</ele><time>2026-06-05T01:20:05Z</time></trkpt>
			<trkpt lat="54.443390" lon="21.005890"><ele>29.1</ele><time>2026-06-05T01:20:12Z</time></trkpt>
			<trkpt lat="54.443050" lon="21.004300"><ele>29.4</ele><time>2026-06-05T01:20:20Z</time></trkpt>
			<trkpt lat="54.442740" lon="21.002760"><ele>29.8</ele><time>2026-06-05T01:20:27Z</time></trkpt>
			<trkpt lat="54.442390" lon="21.001050"><ele>30.1</ele><time>2026-06-05T01:20:35Z</time></trkpt>
			<trkpt lat="54.442120" lon="20.999660"><ele>30.4</ele><time>2026-06-05T01:20:42Z</time></trkpt>
			<trkpt lat="54.441990" lon="20.999440"><ele>30.5</ele><time>2026-06-05T01:20:49Z</time></trkpt>
			<trkpt lat="54.441760" lon="20.999380"><ele>30.5</ele><time>2026-06-05T01:20:57Z</time></trkpt>
			<trkpt lat="54.441620" lon="20.999220"><ele>30.6</ele><time>2026-06-05T01:21:04Z</time></trkpt>
			<trkpt lat="54.441600" lon="20.998990"><ele>30.6</ele><time>2026-06-05T01:21:12Z</time></trkpt>
			<trkpt lat="54.441600" lon="20.998570"><ele>30.7</ele><time>2026-06-05T01:21:19Z</time></trkpt>
			<trkpt lat="54.441630" lon="20.997850"><ele>30.9</ele><time>2026-06-05T01:21:27Z</time></trkpt>
			<trkpt lat="54.441630" lon="20.997330"><ele>31.0</ele><time>2026-06-05T01:21:34Z</time></trkpt>
			<trkpt lat="54.441300" lon="20.995710"><ele>31.2</ele><time>2026-06-05T01:21:42Z</time></trkpt>
			<trkpt lat="54.440920" lon="20.993780"><ele>31.3</ele><time>2026-06-05T01:21:49Z</time></trkpt>
			<trkpt lat="54.440320" lon="20.990720"><ele>31.4</ele><time>2026-06-05T01:21:57Z</time></trkpt>
			<trkpt lat="54.439990" lon="20.989030"><ele>31.4</ele><time>2026-06-05T01:22:04Z</time></trkpt>
			<trkpt lat="54.439900" lon="20.988570"><ele>31.4</ele><time>2026-06-05T01:22:12Z</time></trkpt>
			<trkpt lat="54.439680" lon="20.987470"><ele>31.5</ele><time>2026-06-05T01:22:19Z</time></trkpt>
			<trkpt lat="54.439520" lon="20.986650"><ele>31.5</ele><time>2026-06-05T01:22:26Z</time></trkpt>
			<trkpt lat="54.439490" lon="20.986490"><ele>31.5</ele><time>2026-06-05T01:22:34Z</time></trkpt>
			<trkpt lat="54.439390" lon="20.985950"><ele>31.5</ele><time>2026-06-05T01:22:41Z</time></trkpt>
			<trkpt lat="54.438800" lon="20.983020"><ele>31.6</ele><time>2026-06-05T01:22:49Z</time></trkpt>
			<trkpt lat="54.438650" lon="20.982230"><ele>31.6</ele><time>2026-06-05T01:22:56Z</time></trkpt>
			<trkpt lat="54.438510" lon="20.981340"><ele>31.6</ele><time>2026-06-05T01:23:04Z</time></trkpt>
			<trkpt lat="54.438320" lon="20.980740"><ele>31.3</ele><time>2026-06-05T01:23:11Z</time></trkpt>
			<trkpt lat="54.436620" lon="20.975920"><ele>29.2</ele><time>2026-06-05T01:23:19Z</time></trkpt>
			<trkpt lat="54.435480" lon="20.972710"><ele>27.9</ele><time>2026-06-05T01:23:26Z</time></trkpt>
			<trkpt lat="54.435070" lon="20.971420"><ele>27.3</ele><time>2026-06-05T01:23:34Z</time></trkpt>
			<trkpt lat="54.434390" lon="20.969490"><ele>26.5</ele><time>2026-06-05T01:23:41Z</time></trkpt>
			<trkpt lat="54.434140" lon="20.968650"><ele>26.1</ele><time>2026-06-05T01:23:49Z</time></trkpt>
			<trkpt lat="54.433790" lon="20.966960"><ele>26.6</ele><time>2026-06-05T01:23:56Z</time></trkpt>
			<trkpt lat="54.433530" lon="20.966070"><ele>27.3</ele><time>2026-06-05T01:24:04Z</time></trkpt>
			<trkpt lat="54.433090" lon="20.964950"><ele>28.1</ele><time>2026-06-05T01:24:11Z</time></trkpt>
			<trkpt lat="54.432430" lon="20.963440"><ele>29.3</ele><time>2026-06-05T01:24:18Z</time></trkpt>
			<trkpt lat="54.432100" lon="20.962780"><ele>29.9</ele><time>2026-06-05T01:24:26Z</time></trkpt>
			<trkpt lat="54.431690" lon="20.962250"><ele>30.4</ele><time>2026-06-05T01:24:33Z</time></trkpt>
			<trkpt lat="54.428700" lon="20.958890"><ele>34.3</ele><time>2026-06-05T01:24:41Z</time></trkpt>
			<trkpt lat="54.427450" lon="20.957460"><ele>35.7</ele><time>2026-06-05T01:24:48Z</time></trkpt>
			<trkpt lat="54.426930" lon="20.956510"><ele>35.7</ele><time>2026-06-05T01:24:56Z</time></trkpt>
			<trkpt lat="54.426350" lon="20.955350"><ele>35.7</ele><time>2026-06-05T01:25:03Z</time></trkpt>
			<trkpt lat="54.425480" lon="20.953730"><ele>35.8</ele><time>2026-06-05T01:25:11Z</time></trkpt>
			<trkpt lat="54.424880" lon="20.952550"><ele>35.8</ele><time>2026-06-05T01:25:18Z</time></trkpt>
			<trkpt lat="54.424110" lon="20.950310"><ele>35.8</ele><time>2026-06-05T01:25:26Z</time></trkpt>
			<trkpt lat="54.423060" lon="20.947530"><ele>35.8</ele><time>2026-06-05T01:25:33Z</time></trkpt>
			<trkpt lat="54.422220" lon="20.945140"><ele>35.9</ele><time>2026-06-05T01:25:41Z</time></trkpt>
			<trkpt lat="54.421900" lon="20.944210"><ele>36.0</ele><time>2026-06-05T01:25:48Z</time></trkpt>
			<trkpt lat="54.421720" lon="20.943770"><ele>36.1</ele><time>2026-06-05T01:25:55Z</time></trkpt>
			<trkpt lat="54.421440" lon="20.943410"><ele>36.2</ele><time>2026-06-05T01:26:03Z</time></trkpt>
			<trkpt lat="54.420840" lon="20.942950"><ele>36.4</ele><time>2026-06-05T01:26:10Z</time></trkpt>
			<trkpt lat="54.418870" lon="20.941500"><ele>37.0</ele><time>2026-06-05T01:26:18Z</time></trkpt>
			<trkpt lat="54.418410" lon="20.941180"><ele>37.2</ele><time>2026-06-05T01:26:25Z</time></trkpt>
			<trkpt lat="54.416210" lon="20.939610"><ele>37.8</ele><time>2026-06-05T01:26:33Z</time></trkpt>
			<trkpt lat="54.413710" lon="20.937900"><ele>38.7</ele><time>2026-06-05T01:26:40Z</time></trkpt>
			<trkpt lat="54.412070" lon="20.936710"><ele>39.6</ele><time>2026-06-05T01:26:48Z</time></trkpt>
			<trkpt lat="54.407990" lon="20.934640"><ele>41.6</ele><time>2026-06-05T01:26:55Z</time></trkpt>
			<trkpt lat="54.406740" lon="20.934100"><ele>42.2</ele><time>2026-06-05T01:27:03Z</time></trkpt>
			<trkpt lat="54.406420" lon="20.933930"><ele>42.4</ele><time>2026-06-05T01:27:10Z</time></trkpt>
			<trkpt lat="54.406180" lon="20.933570"><ele>42.6</ele><time>2026-06-05T01:27:18Z</time></trkpt>
			<trkpt lat="54.406050" lon="20.933260"><ele>42.6</ele><time>2026-06-05T01:27:25Z</time></trkpt>
			<trkpt lat="54.406000" lon="20.933030"><ele>42.5</ele><time>2026-06-05T01:27:32Z</time></trkpt>
			<trkpt lat="54.405960" lon="20.932720"><ele>42.2</ele><time>2026-06-05T01:27:40Z</time></trkpt>
			<trkpt lat="54.405960" lon="20.932350"><ele>41.9</ele><time>2026-06-05T01:27:47Z</time></trkpt>
			<trkpt lat="54.406040" lon="20.931660"><ele>41.4</ele><time>2026-06-05T01:27:55Z</time></trkpt>
			<trkpt lat="54.406380" lon="20.928930"><ele>39.4</ele><time>2026-06-05T01:28:02Z</time></trkpt>
			<trkpt lat="54.406780" lon="20.925640"><ele>36.9</ele><time>2026-06-05T01:28:10Z</time></trkpt>
			<trkpt lat="54.407140" lon="20.922770"><ele>34.7</ele><time>2026-06-05T01:28:17Z</time></trkpt>
			<trkpt lat="54.407740" lon="20.917710"><ele>31.5</ele><time>2026-06-05T01:28:25Z</time></trkpt>
			<trkpt lat="54.407770" lon="20.917350"><ele>31.8</ele><time>2026-06-05T01:28:32Z</time></trkpt>
			<trkpt lat="54.407760" lon="20.916950"><ele>32.1</ele><time>2026-06-05T01:28:40Z</time></trkpt>
			<trkpt lat="54.407700" lon="20.916340"><ele>32.6</ele><time>2026-06-05T01:28:47Z</time></trkpt>
			<trkpt lat="54.407580" lon="20.915550"><ele>33.2</ele><time>2026-06-05T01:28:55Z</time></trkpt>
			<trkpt lat="54.407530" lon="20.914650"><ele>33.9</ele><time>2026-06-05T01:29:02Z</time></trkpt>
			<trkpt lat="54.407410" lon="20.907440"><ele>39.5</ele><time>2026-06-05T01:29:09Z</time></trkpt>
			<trkpt lat="54.407350" lon="20.903950"><ele>42.2</ele><time>2026-06-05T01:29:17Z</time></trkpt>
			<trkpt lat="54.407290" lon="20.893320"><ele>45.0</ele><time>2026-06-05T01:29:24Z</time></trkpt>
			<trkpt lat="54.407280" lon="20.891190"><ele>45.5</ele><time>2026-06-05T01:29:32Z</time></trkpt>
			<trkpt lat="54.407270" lon="20.889110"><ele>45.9</ele><time>2026-06-05T01:29:39Z</time></trkpt>
			<trkpt lat="54.407210" lon="20.883680"><ele>47.7</ele><time>2026-06-05T01:29:47Z</time></trkpt>
			<trkpt lat="54.407210" lon="20.883680"><ele>47.7</ele><time>2026-06-05T01:29:54Z</time></trkpt>
			<trkpt lat="54.407170" lon="20.879140"><ele>49.4</ele><time>2026-06-05T01:30:02Z</time></trkpt>
			<trkpt lat="54.407570" lon="20.875940"><ele>50.6</ele><time>2026-06-05T01:30:10Z</time></trkpt>
			<trkpt lat="54.408060" lon="20.871460"><ele>52.7</ele><time>2026-06-05T01:30:17Z</time></trkpt>
			<trkpt lat="54.408780" lon="20.864820"><ele>59.0</ele><time>2026-06-05T01:30:25Z</time></trkpt>
			<trkpt lat="54.409010" lon="20.862660"><ele>61.1</ele><time>2026-06-05T01:30:33Z</time></trkpt>
			<trkpt lat="54.409320" lon="20.860030"><ele>63.6</ele><time>2026-06-05T01:30:40Z</time></trkpt>
			<trkpt lat="54.410300" lon="20.855460"><ele>66.9</ele><time>2026-06-05T01:30:48Z</time></trkpt>
			<trkpt lat="54.411530" lon="20.850230"><ele>67.5</ele><time>2026-06-05T01:30:55Z</time></trkpt>
			<trkpt lat="54.411640" lon="20.849850"><ele>67.5</ele><time>2026-06-05T01:31:03Z</time></trkpt>
			<trkpt lat="54.412750" lon="20.846150"><ele>67.9</ele><time>2026-06-05T01:31:11Z</time></trkpt>
			<trkpt lat="54.413870" lon="20.843400"><ele>68.3</ele><time>2026-06-05T01:31:18Z</time></trkpt>
			<trkpt lat="54.414040" lon="20.843000"><ele>68.4</ele><time>2026-06-05T01:31:26Z</time></trkpt>
			<trkpt lat="54.414340" lon="20.842970"><ele>68.7</ele><time>2026-06-05T01:31:34Z</time></trkpt>
			<trkpt lat="54.415020" lon="20.842910"><ele>69.4</ele><time>2026-06-05T01:31:41Z</time></trkpt>
			<trkpt lat="54.416860" lon="20.840280"><ele>71.7</ele><time>2026-06-05T01:31:49Z</time></trkpt>
			<trkpt lat="54.417710" lon="20.839060"><ele>72.7</ele><time>2026-06-05T01:31:56Z</time></trkpt>
			<trkpt lat="54.419610" lon="20.836010"><ele>75.2</ele><time>2026-06-05T01:32:04Z</time></trkpt>
			<trkpt lat="54.420620" lon="20.834190"><ele>76.6</ele><time>2026-06-05T01:32:12Z</time></trkpt>
			<trkpt lat="54.421190" lon="20.833270"><ele>77.0</ele><time>2026-06-05T01:32:19Z</time></trkpt>
			<trkpt lat="54.421670" lon="20.832730"><ele>77.2</ele><time>2026-06-05T01:32:27Z</time></trkpt>
			<trkpt lat="54.422010" lon="20.832560"><ele>77.3</ele><time>2026-06-05T01:32:35Z</time></trkpt>
			<trkpt lat="54.422500" lon="20.832430"><ele>77.4</ele><time>2026-06-05T01:32:42Z</time></trkpt>
			<trkpt lat="54.423040" lon="20.832130"><ele>77.6</ele><time>2026-06-05T01:32:50Z</time></trkpt>
			<trkpt lat="54.423210" lon="20.831940"><ele>77.7</ele><time>2026-06-05T01:32:57Z</time></trkpt>
			<trkpt lat="54.423320" lon="20.831740"><ele>77.7</ele><time>2026-06-05T01:33:05Z</time></trkpt>
			<trkpt lat="54.423380" lon="20.831510"><ele>77.7</ele><time>2026-06-05T01:33:13Z</time></trkpt>
			<trkpt lat="54.423410" lon="20.831210"><ele>77.8</ele><time>2026-06-05T01:33:20Z</time></trkpt>
			<trkpt lat="54.423340" lon="20.830420"><ele>77.9</ele><time>2026-06-05T01:33:28Z</time></trkpt>
			<trkpt lat="54.423380" lon="20.829280"><ele>78.1</ele><time>2026-06-05T01:33:36Z</time></trkpt>
			<trkpt lat="54.423440" lon="20.828590"><ele>78.2</ele><time>2026-06-05T01:33:43Z</time></trkpt>
			<trkpt lat="54.423600" lon="20.828190"><ele>78.3</ele><time>2026-06-05T01:33:51Z</time></trkpt>
			<trkpt lat="54.423770" lon="20.827950"><ele>78.4</ele><time>2026-06-05T01:33:58Z</time></trkpt>
			<trkpt lat="54.423920" lon="20.827750"><ele>78.4</ele><time>2026-06-05T01:34:06Z</time></trkpt>
			<trkpt lat="54.423790" lon="20.827120"><ele>78.5</ele><time>2026-06-05T01:34:14Z</time></trkpt>
			<trkpt lat="54.423740" lon="20.826900"><ele>78.6</ele><time>2026-06-05T01:34:21Z</time></trkpt>
			<trkpt lat="54.423660" lon="20.826520"><ele>78.6</ele><time>2026-06-05T01:34:29Z</time></trkpt>
			<trkpt lat="54.423640" lon="20.826350"><ele>78.7</ele><time>2026-06-05T01:34:37Z</time></trkpt>
			<trkpt lat="54.423700" lon="20.826140"><ele>78.7</ele><time>2026-06-05T01:34:44Z</time></trkpt>
			<trkpt lat="54.423840" lon="20.825830"><ele>78.8</ele><time>2026-06-05T01:34:52Z</time></trkpt>
			<trkpt lat="54.423960" lon="20.825440"><ele>78.8</ele><time>2026-06-05T01:34:59Z</time></trkpt>
			<trkpt lat="54.423990" lon="20.825230"><ele>78.9</ele><time>2026-06-05T01:35:07Z</time></trkpt>
			<trkpt lat="54.423990" lon="20.825020"><ele>78.9</ele><time>2026-06-05T01:35:15Z</time></trkpt>
			<trkpt lat="54.423970" lon="20.824730"><ele>79.0</ele><time>2026-06-05T01:35:22Z</time></trkpt>
			<trkpt lat="54.423910" lon="20.824420"><ele>79.0</ele><time>2026-06-05T01:35:30Z</time></trkpt>
			<trkpt lat="54.423790" lon="20.824080"><ele>79.1</ele><time>2026-06-05T01:35:37Z</time></trkpt>
			<trkpt lat="54.423060" lon="20.823340"><ele>79.3</ele><time>2026-06-05T01:35:45Z</time></trkpt>
			<trkpt lat="54.422870" lon="20.823120"><ele>79.4</ele><time>2026-06-05T01:35:53Z</time></trkpt>
			<trkpt lat="54.422500" lon="20.822590"><ele>79.6</ele><time>2026-06-05T01:36:00Z</time></trkpt>
			<trkpt lat="54.422070" lon="20.821680"><ele>80.0</ele><time>2026-06-05T01:36:08Z</time></trkpt>
			<trkpt lat="54.421800" lon="20.820370"><ele>80.4</ele><time>2026-06-05T01:36:16Z</time></trkpt>
			<trkpt lat="54.421650" lon="20.819910"><ele>80.6</ele><time>2026-06-05T01:36:23Z</time></trkpt>
			<trkpt lat="54.421620" lon="20.819810"><ele>80.6</ele><time>2026-06-05T01:36:31Z</time></trkpt>
			<trkpt lat="54.419390" lon="20.817980"><ele>82.1</ele><time>2026-06-05T01:36:38Z</time></trkpt>
			<trkpt lat="54.417580" lon="20.816480"><ele>83.2</ele><time>2026-06-05T01:36:46Z</time></trkpt>
			<trkpt lat="54.414410" lon="20.813880"><ele>85.6</ele><time>2026-06-05T01:36:54Z</time></trkpt>
			<trkpt lat="54.412790" lon="20.812900"><ele>87.1</ele><time>2026-06-05T01:37:01Z</time></trkpt>
			<trkpt lat="54.411170" lon="20.812110"><ele>88.6</ele><time>2026-06-05T01:37:09Z</time></trkpt>
			<trkpt lat="54.410570" lon="20.811690"><ele>89.2</ele><time>2026-06-05T01:37:17Z</time></trkpt>
			<trkpt lat="54.410430" lon="20.811510"><ele>89.4</ele><time>2026-06-05T01:37:24Z</time></trkpt>
			<trkpt lat="54.405730" lon="20.805710"><ele>93.1</ele><time>2026-06-05T01:37:32Z</time></trkpt>
			<trkpt lat="54.404930" lon="20.804710"><ele>93.3</ele><time>2026-06-05T01:37:39Z</time></trkpt>
			<trkpt lat="54.404550" lon="20.804110"><ele>93.4</ele><time>2026-06-05T01:37:47Z</time></trkpt>
			<trkpt lat="54.403470" lon="20.797520"><ele>94.2</ele><time>2026-06-05T01:37:55Z</time></trkpt>
			<trkpt lat="54.403160" lon="20.795700"><ele>94.5</ele><time>2026-06-05T01:38:02Z</time></trkpt>
			<trkpt lat="54.402840" lon="20.794250"><ele>94.8</ele><time>2026-06-05T01:38:10Z</time></trkpt>
			<trkpt lat="54.402430" lon="20.792750"><ele>95.3</ele><time>2026-06-05T01:38:18Z</time></trkpt>
			<trkpt lat="54.402140" lon="20.791350"><ele>95.7</ele><time>2026-06-05T01:38:25Z</time></trkpt>
			<trkpt lat="54.401900" lon="20.790610"><ele>95.9</ele><time>2026-06-05T01:38:33Z</time></trkpt>
			<trkpt lat="54.401820" lon="20.790500"><ele>96.0</ele><time>2026-06-05T01:38:40Z</time></trkpt>
			<trkpt lat="54.401380" lon="20.789820"><ele>96.3</ele><time>2026-06-05T01:38:48Z</time></trkpt>
			<trkpt lat="54.398920" lon="20.786850"><ele>97.7</ele><time>2026-06-05T01:38:56Z</time></trkpt>
			<trkpt lat="54.398390" lon="20.786330"><ele>98.0</ele><time>2026-06-05T01:39:03Z</time></trkpt>
			<trkpt lat="54.397540" lon="20.785740"><ele>98.5</ele><time>2026-06-05T01:39:11Z</time></trkpt>
			<trkpt lat="54.396480" lon="20.785240"><ele>98.8</ele><time>2026-06-05T01:39:19Z</time></trkpt>
			<trkpt lat="54.395820" lon="20.784930"><ele>98.6</ele><time>2026-06-05T01:39:26Z</time></trkpt>
			<trkpt lat="54.395820" lon="20.784920"><ele>98.6</ele><time>2026-06-05T01:39:40Z</time></trkpt>
			<trkpt lat="54.391440" lon="20.782740"><ele>97.4</ele><time>2026-06-05T01:39:54Z</time></trkpt>
			<trkpt lat="54.390440" lon="20.782350"><ele>97.1</ele><time>2026-06-05T01:40:08Z</time></trkpt>
			<trkpt lat="54.390270" lon="20.782000"><ele>97.1</ele><time>2026-06-05T01:40:22Z</time></trkpt>
			<trkpt lat="54.390080" lon="20.780970"><ele>96.9</ele><time>2026-06-05T01:40:35Z</time></trkpt>
			<trkpt lat="54.389830" lon="20.778810"><ele>96.5</ele><time>2026-06-05T01:40:49Z</time></trkpt>
			<trkpt lat="54.389640" lon="20.775840"><ele>94.4</ele><time>2026-06-05T01:41:03Z</time></trkpt>
			<trkpt lat="54.389610" lon="20.774630"><ele>93.5</ele><time>2026-06-05T01:41:17Z</time></trkpt>
			<trkpt lat="54.388890" lon="20.756660"><ele>80.1</ele><time>2026-06-05T01:41:31Z</time></trkpt>
			<trkpt lat="54.388860" lon="20.755260"><ele>79.2</ele><time>2026-06-05T01:41:45Z</time></trkpt>
			<trkpt lat="54.388520" lon="20.753980"><ele>78.4</ele><time>2026-06-05T01:41:58Z</time></trkpt>
			<trkpt lat="54.388210" lon="20.753350"><ele>77.9</ele><time>2026-06-05T01:42:12Z</time></trkpt>
			<trkpt lat="54.388210" lon="20.753350"><ele>77.9</ele><time>2026-06-05T01:42:23Z</time></trkpt>
			<trkpt lat="54.387730" lon="20.752360"><ele>77.1</ele><time>2026-06-05T01:42:34Z</time></trkpt>
			<trkpt lat="54.386530" lon="20.750060"><ele>75.2</ele><time>2026-06-05T01:42:45Z</time></trkpt>
			<trkpt lat="54.384900" lon="20.746950"><ele>72.3</ele><time>2026-06-05T01:42:56Z</time></trkpt>
			<trkpt lat="54.384450" lon="20.746160"><ele>71.5</ele><time>2026-06-05T01:43:07Z</time></trkpt>
			<trkpt lat="54.384140" lon="20.744980"><ele>70.6</ele><time>2026-06-05T01:43:17Z</time></trkpt>
			<trkpt lat="54.381090" lon="20.730000"><ele>62.2</ele><time>2026-06-05T01:43:28Z</time></trkpt>
			<trkpt lat="54.381010" lon="20.729010"><ele>61.9</ele><time>2026-06-05T01:43:39Z</time></trkpt>
			<trkpt lat="54.381110" lon="20.725450"><ele>61.1</ele><time>2026-06-05T01:43:50Z</time></trkpt>
			<trkpt lat="54.381060" lon="20.724660"><ele>60.9</ele><time>2026-06-05T01:44:01Z</time></trkpt>
			<trkpt lat="54.380950" lon="20.723930"><ele>60.8</ele><time>2026-06-05T01:44:12Z</time></trkpt>
			<trkpt lat="54.380840" lon="20.723230"><ele>60.6</ele><time>2026-06-05T01:44:22Z</time></trkpt>
			<trkpt lat="54.380690" lon="20.722330"><ele>60.4</ele><time>2026-06-05T01:44:33Z</time></trkpt>
			<trkpt lat="54.380730" lon="20.721230"><ele>60.1</ele><time>2026-06-05T01:44:44Z</time></trkpt>
			<trkpt lat="54.380900" lon="20.718340"><ele>60.9</ele><time>2026-06-05T01:44:55Z</time></trkpt>
			<trkpt lat="54.380810" lon="20.717020"><ele>61.5</ele><time>2026-06-05T01:45:06Z</time></trkpt>
			<trkpt lat="54.380780" lon="20.716030"><ele>61.9</ele><time>2026-06-05T01:45:17Z</time></trkpt>
			<trkpt lat="54.380820" lon="20.715760"><ele>62.1</ele><time>2026-06-05T01:45:28Z</time></trkpt>
			<trkpt lat="54.380960" lon="20.714730"><ele>62.5</ele><time>2026-06-05T01:45:38Z</time></trkpt>
			<trkpt lat="54.381890" lon="20.709830"><ele>64.8</ele><time>2026-06-05T01:45:49Z</time></trkpt>
			<trkpt lat="54.382760" lon="20.704600"><ele>66.9</ele><time>2026-06-05T01:46:00Z</time></trkpt>
			<trkpt lat="54.382960" lon="20.702540"><ele>67.2</ele><time>2026-06-05T01:46:11Z</time></trkpt>
			<trkpt lat="54.383660" lon="20.696150"><ele>68.0</ele><time>2026-06-05T01:46:22Z</time></trkpt>
			<trkpt lat="54.383660" lon="20.696150"><ele>68.0</ele><time>2026-06-05T01:46:28Z</time></trkpt>
			<trkpt lat="54.383740" lon="20.695480"><ele>68.1</ele><time>2026-06-05T01:46:33Z</time></trkpt>
			<trkpt lat="54.383760" lon="20.694210"><ele>68.3</ele><time>2026-06-05T01:46:39Z</time></trkpt>
			<trkpt lat="54.383450" lon="20.692800"><ele>68.5</ele><time>2026-06-05T01:46:45Z</time></trkpt>
			<trkpt lat="54.383130" lon="20.691620"><ele>68.6</ele><time>2026-06-05T01:46:50Z</time></trkpt>
			<trkpt lat="54.383120" lon="20.690520"><ele>68.8</ele><time>2026-06-05T01:46:56Z</time></trkpt>
			<trkpt lat="54.383350" lon="20.689310"><ele>69.6</ele><time>2026-06-05T01:47:02Z</time></trkpt>
			<trkpt lat="54.383840" lon="20.688400"><ele>70.4</ele><time>2026-06-05T01:47:08Z</time></trkpt>
			<trkpt lat="54.384280" lon="20.687810"><ele>71.1</ele><time>2026-06-05T01:47:13Z</time></trkpt>
			<trkpt lat="54.384700" lon="20.687070"><ele>71.8</ele><time>2026-06-05T01:47:19Z</time></trkpt>
			<trkpt lat="54.384880" lon="20.685520"><ele>72.8</ele><time>2026-06-05T01:47:25Z</time></trkpt>
			<trkpt lat="54.385060" lon="20.677560"><ele>78.1</ele><time>2026-06-05T01:47:30Z</time></trkpt>
			<trkpt lat="54.385260" lon="20.672000"><ele>78.4</ele><time>2026-06-05T01:47:36Z</time></trkpt>
			<trkpt lat="54.385270" lon="20.671180"><ele>78.3</ele><time>2026-06-05T01:47:42Z</time></trkpt>
			<trkpt lat="54.385330" lon="20.669210"><ele>78.0</ele><time>2026-06-05T01:47:48Z</time></trkpt>
			<trkpt lat="54.385380" lon="20.667250"><ele>77.6</ele><time>2026-06-05T01:47:53Z</time></trkpt>
			<trkpt lat="54.385390" lon="20.666740"><ele>77.5</ele><time>2026-06-05T01:47:59Z</time></trkpt>
			<trkpt lat="54.385420" lon="20.665870"><ele>77.4</ele><time>2026-06-05T01:48:05Z</time></trkpt>
			<trkpt lat="54.385450" lon="20.665000"><ele>77.3</ele><time>2026-06-05T01:48:11Z</time></trkpt>
			<trkpt lat="54.385450" lon="20.664900"><ele>77.2</ele><time>2026-06-05T01:48:16Z</time></trkpt>
			<trkpt lat="54.385460" lon="20.664470"><ele>77.2</ele><time>2026-06-05T01:48:22Z</time></trkpt>
			<trkpt lat="54.385480" lon="20.663620"><ele>77.0</ele><time>2026-06-05T01:48:28Z</time></trkpt>
			<trkpt lat="54.385500" lon="20.662740"><ele>76.9</ele><time>2026-06-05T01:48:33Z</time></trkpt>
			<trkpt lat="54.385550" lon="20.661200"><ele>76.6</ele><time>2026-06-05T01:48:39Z</time></trkpt>
			<trkpt lat="54.385590" lon="20.660750"><ele>76.6</ele><time>2026-06-05T01:48:45Z</time></trkpt>
			<trkpt lat="54.385640" lon="20.660340"><ele>76.5</ele><time>2026-06-05T01:48:51Z</time></trkpt>
			<trkpt lat="54.385800" lon="20.659660"><ele>76.5</ele><time>2026-06-05T01:48:56Z</time></trkpt>
			<trkpt lat="54.386900" lon="20.655460"><ele>76.5</ele><time>2026-06-05T01:49:02Z</time></trkpt>
			<trkpt lat="54.387010" lon="20.654890"><ele>76.5</ele><time>2026-06-05T01:49:08Z</time></trkpt>
			<trkpt lat="54.387250" lon="20.653610"><ele>76.5</ele><time>2026-06-05T01:49:13Z</time></trkpt>
			<trkpt lat="54.387520" lon="20.651990"><ele>76.5</ele><time>2026-06-05T01:49:19Z</time></trkpt>
			<trkpt lat="54.388220" lon="20.648280"><ele>76.5</ele><time>2026-06-05T01:49:25Z</time></trkpt>
			<trkpt lat="54.388270" lon="20.648040"><ele>76.5</ele><time>2026-06-05T01:49:31Z</time></trkpt>
			<trkpt lat="54.388270" lon="20.647470"><ele>76.5</ele><time>2026-06-05T01:49:36Z</time></trkpt>
			<trkpt lat="54.388270" lon="20.646830"><ele>76.5</ele><time>2026-06-05T01:49:42Z</time></trkpt>
			<trkpt lat="54.388270" lon="20.646830"><ele>76.5</ele><time>2026-06-05T01:49:48Z</time></trkpt>
			<trkpt lat="54.388270" lon="20.646830"><ele>76.5</ele><time>2026-06-05T01:50:12Z</time></trkpt>
			<trkpt lat="54.388270" lon="20.646830"><ele>76.5</ele><time>2026-06-05T01:50:36Z</time></trkpt>
			<trkpt lat="54.388230" lon="20.646680"><ele>76.5</ele><time>2026-06-05T01:51:01Z</time></trkpt>
			<trkpt lat="54.387880" lon="20.645780"><ele>76.2</ele><time>2026-06-05T01:51:25Z</time></trkpt>
			<trkpt lat="54.387440" lon="20.644620"><ele>75.5</ele><time>2026-06-05T01:51:50Z</time></trkpt>
			<trkpt lat="54.387340" lon="20.644310"><ele>75.3</ele><time>2026-06-05T01:52:14Z</time></trkpt>
			<trkpt lat="54.387310" lon="20.644160"><ele>75.2</ele><time>2026-06-05T01:52:38Z</time></trkpt>
			<trkpt lat="54.387290" lon="20.644040"><ele>75.2</ele><time>2026-06-05T01:53:03Z</time></trkpt>
			<trkpt lat="54.387240" lon="20.643680"><ele>75.0</ele><time>2026-06-05T01:53:27Z</time></trkpt>
			<trkpt lat="54.387190" lon="20.643150"><ele>74.7</ele><time>2026-06-05T01:53:51Z</time></trkpt>
			<trkpt lat="54.387160" lon="20.642950"><ele>74.6</ele><time>2026-06-05T01:54:16Z</time></trkpt>
			<trkpt lat="54.387130" lon="20.642810"><ele>74.5</ele><time>2026-06-05T01:54:40Z</time></trkpt>
			<trkpt lat="54.387010" lon="20.642480"><ele>74.3</ele><time>2026-06-05T01:55:05Z</time></trkpt>
			<trkpt lat="54.386800" lon="20.641960"><ele>74.0</ele><time>2026-06-05T01:55:29Z</time></trkpt>
			<trkpt lat="54.386320" lon="20.640840"><ele>73.2</ele><time>2026-06-05T01:55:53Z</time></trkpt>
			<trkpt lat="54.386220" lon="20.640650"><ele>73.1</ele><time>2026-06-05T01:56:18Z</time></trkpt>
			<trkpt lat="54.386570" lon="20.639670"><ele>72.5</ele><time>2026-06-05T01:56:42Z</time></trkpt>
			<trkpt lat="54.386570" lon="20.639670"><ele>72.5</ele><time>2026-06-05T01:57:13Z</time></trkpt>
			<trkpt lat="54.386570" lon="20.639660"><ele>72.5</ele><time>2026-06-05T01:57:44Z</time></trkpt>
			<trkpt lat="54.386730" lon="20.639890"><ele>72.3</ele><time>2026-06-05T01:58:15Z</time></trkpt>
			<trkpt lat="54.386800" lon="20.639980"><ele>72.2</ele><time>2026-06-05T01:58:46Z</time></trkpt>
			<trkpt lat="54.387060" lon="20.640150"><ele>71.9</ele><time>2026-06-05T01:59:17Z</time></trkpt>
			<trkpt lat="54.388440" lon="20.640870"><ele>70.6</ele><time>2026-06-05T01:59:48Z</time></trkpt>
			<trkpt lat="54.388820" lon="20.641010"><ele>70.3</ele><time>2026-06-05T02:00:19Z</time></trkpt>
			<trkpt lat="54.389210" lon="20.641230"><ele>69.9</ele><time>2026-06-05T02:00:50Z</time></trkpt>
			<trkpt lat="54.389430" lon="20.641430"><ele>69.7</ele><time>2026-06-05T02:01:21Z</time></trkpt>
			<trkpt lat="54.389800" lon="20.641810"><ele>69.3</ele><time>2026-06-05T02:01:51Z</time></trkpt>
			<trkpt lat="54.390680" lon="20.642920"><ele>68.3</ele><time>2026-06-05T02:02:22Z</time></trkpt>
			<trkpt lat="54.390750" lon="20.643000"><ele>68.2</ele><time>2026-06-05T02:02:53Z</time></trkpt>
			<trkpt lat="54.390980" lon="20.643290"><ele>68.0</ele><time>2026-06-05T02:03:24Z</time></trkpt>
			<trkpt lat="54.391350" lon="20.643700"><ele>67.7</ele><time>2026-06-05T02:03:55Z</time></trkpt>
			<trkpt lat="54.391690" lon="20.644010"><ele>67.5</ele><time>2026-06-05T02:04:26Z</time></trkpt>
			<trkpt lat="54.391690" lon="20.644010"><ele>67.5</ele><time>2026-06-05T02:04:57Z</time></trkpt>
			<trkpt lat="54.391690" lon="20.644010"><ele>67.5</ele><time>2026-06-05T02:05:09Z</time></trkpt>
			<trkpt lat="54.391690" lon="20.644010"><ele>67.5</ele><time>2026-06-05T02:05:20Z</time></trkpt>
			<trkpt lat="54.394420" lon="20.644570"><ele>65.7</ele><time>2026-06-05T02:05:32Z</time></trkpt>
			<trkpt lat="54.396550" lon="20.644980"><ele>64.3</ele><time>2026-06-05T02:05:43Z</time></trkpt>
			<trkpt lat="54.396980" lon="20.645060"><ele>64.0</ele><time>2026-06-05T02:05:55Z</time></trkpt>
			<trkpt lat="54.397010" lon="20.645060"><ele>64.0</ele><time>2026-06-05T02:06:06Z</time></trkpt>
			<trkpt lat="54.398890" lon="20.645420"><ele>62.8</ele><time>2026-06-05T02:06:18Z</time></trkpt>
			<trkpt lat="54.399500" lon="20.645550"><ele>62.4</ele><time>2026-06-05T02:06:29Z</time></trkpt>
			<trkpt lat="54.399880" lon="20.645630"><ele>62.4</ele><time>2026-06-05T02:06:41Z</time></trkpt>
			<trkpt lat="54.400160" lon="20.645690"><ele>62.4</ele><time>2026-06-05T02:06:52Z</time></trkpt>
			<trkpt lat="54.400440" lon="20.645730"><ele>62.4</ele><time>2026-06-05T02:07:04Z</time></trkpt>
			<trkpt lat="54.402260" lon="20.646100"><ele>62.3</ele><time>2026-06-05T02:07:15Z</time></trkpt>
			<trkpt lat="54.402420" lon="20.646140"><ele>62.3</ele><time>2026-06-05T02:07:27Z</time></trkpt>
			<trkpt lat="54.402840" lon="20.646230"><ele>62.3</ele><time>2026-06-05T02:07:38Z</time></trkpt>
			<trkpt lat="54.403830" lon="20.646450"><ele>62.2</ele><time>2026-06-05T02:07:50Z</time></trkpt>
			<trkpt lat="54.404420" lon="20.646570"><ele>62.2</ele><time>2026-06-05T02:08:01Z</time></trkpt>
			<trkpt lat="54.406000" lon="20.646910"><ele>62.2</ele><time>2026-06-05T02:08:13Z</time></trkpt>
			<trkpt lat="54.406790" lon="20.647050"><ele>62.1</ele><time>2026-06-05T02:08:24Z</time></trkpt>
			<trkpt lat="54.408340" lon="20.647360"><ele>62.1</ele><time>2026-06-05T02:08:36Z</time></trkpt>
			<trkpt lat="54.408750" lon="20.647440"><ele>61.8</ele><time>2026-06-05T02:08:47Z</time></trkpt>
			<trkpt lat="54.408680" lon="20.647350"><ele>61.8</ele><time>2026-06-05T02:08:59Z</time></trkpt>
			<trkpt lat="54.408590" lon="20.647180"><ele>61.7</ele><time>2026-06-05T02:09:10Z</time></trkpt>
			<trkpt lat="54.408560" lon="20.646950"><ele>61.6</ele><time>2026-06-05T02:09:22Z</time></trkpt>
			<trkpt lat="54.408560" lon="20.645940"><ele>61.3</ele><time>2026-06-05T02:09:33Z</time></trkpt>
			<trkpt lat="54.408560" lon="20.644720"><ele>60.9</ele><time>2026-06-05T02:09:45Z</time></trkpt>
			<trkpt lat="54.408530" lon="20.643510"><ele>60.5</ele><time>2026-06-05T02:09:56Z</time></trkpt>
			<trkpt lat="54.408450" lon="20.642810"><ele>60.3</ele><time>2026-06-05T02:10:08Z</time></trkpt>
			<trkpt lat="54.408390" lon="20.642250"><ele>60.1</ele><time>2026-06-05T02:10:19Z</time></trkpt>
			<trkpt lat="54.408200" lon="20.640370"><ele>59.4</ele><time>2026-06-05T02:10:31Z</time></trkpt>
			<trkpt lat="54.408200" lon="20.640060"><ele>59.3</ele><time>2026-06-05T02:10:42Z</time></trkpt>
			<trkpt lat="54.408600" lon="20.638410"><ele>58.7</ele><time>2026-06-05T02:10:54Z</time></trkpt>
			<trkpt lat="54.410260" lon="20.631890"><ele>56.7</ele><time>2026-06-05T02:11:05Z</time></trkpt>
			<trkpt lat="54.411880" lon="20.625350"><ele>55.8</ele><time>2026-06-05T02:11:17Z</time></trkpt>
			<trkpt lat="54.412360" lon="20.624430"><ele>55.6</ele><time>2026-06-05T02:11:28Z</time></trkpt>
			<trkpt lat="54.416480" lon="20.617750"><ele>53.6</ele><time>2026-06-05T02:11:40Z</time></trkpt>
			<trkpt lat="54.417220" lon="20.616550"><ele>53.1</ele><time>2026-06-05T02:11:51Z</time></trkpt>
			<trkpt lat="54.417910" lon="20.615480"><ele>52.6</ele><time>2026-06-05T02:12:03Z</time></trkpt>
			<trkpt lat="54.418380" lon="20.614340"><ele>52.1</ele><time>2026-06-05T02:12:14Z</time></trkpt>
			<trkpt lat="54.418450" lon="20.613830"><ele>52.0</ele><time>2026-06-05T02:12:26Z</time></trkpt>
			<trkpt lat="54.418630" lon="20.613210"><ele>51.7</ele><time>2026-06-05T02:12:38Z</time></trkpt>
			<trkpt lat="54.419070" lon="20.612300"><ele>51.4</ele><time>2026-06-05T02:12:49Z</time></trkpt>
			<trkpt lat="54.420770" lon="20.609000"><ele>50.1</ele><time>2026-06-05T02:13:01Z</time></trkpt>
			<trkpt lat="54.421680" lon="20.607340"><ele>49.7</ele><time>2026-06-05T02:13:12Z</time></trkpt>
			<trkpt lat="54.422310" lon="20.606160"><ele>49.5</ele><time>2026-06-05T02:13:24Z</time></trkpt>
			<trkpt lat="54.422560" lon="20.605660"><ele>49.4</ele><time>2026-06-05T02:13:35Z</time></trkpt>
			<trkpt lat="54.423220" lon="20.603740"><ele>49.0</ele><time>2026-06-05T02:13:47Z</time></trkpt>
			<trkpt lat="54.423900" lon="20.601690"><ele>48.6</ele><time>2026-06-05T02:13:58Z</time></trkpt>
			<trkpt lat="54.424410" lon="20.598640"><ele>48.2</ele><time>2026-06-05T02:14:10Z</time></trkpt>
			<trkpt lat="54.425010" lon="20.597130"><ele>47.9</ele><time>2026-06-05T02:14:21Z</time></trkpt>
			<trkpt lat="54.425710" lon="20.595590"><ele>47.8</ele><time>2026-06-05T02:14:33Z</time></trkpt>
			<trkpt lat="54.428150" lon="20.592940"><ele>48.3</ele><time>2026-06-05T02:14:44Z</time></trkpt>
			<trkpt lat="54.430630" lon="20.590470"><ele>48.8</ele><time>2026-06-05T02:14:56Z</time></trkpt>
			<trkpt lat="54.430870" lon="20.590220"><ele>48.8</ele><time>2026-06-05T02:15:07Z</time></trkpt>
			<trkpt lat="54.434570" lon="20.586440"><ele>50.0</ele><time>2026-06-05T02:15:19Z</time></trkpt>
			<trkpt lat="54.439280" lon="20.581760"><ele>52.3</ele><time>2026-06-05T02:15:30Z</time></trkpt>
			<trkpt lat="54.439670" lon="20.581510"><ele>52.5</ele><time>2026-06-05T02:15:42Z</time></trkpt>
			<trkpt lat="54.446120" lon="20.580300"><ele>52.4</ele><time>2026-06-05T02:15:53Z</time></trkpt>
			<trkpt lat="54.446120" lon="20.580300"><ele>52.4</ele><time>2026-06-05T02:16:01Z</time></trkpt>
			<trkpt lat="54.448990" lon="20.579760"><ele>52.0</ele><time>2026-06-05T02:16:09Z</time></trkpt>
			<trkpt lat="54.449380" lon="20.579670"><ele>51.9</ele><time>2026-06-05T02:16:17Z</time></trkpt>
			<trkpt lat="54.449510" lon="20.579560"><ele>51.9</ele><time>2026-06-05T02:16:25Z</time></trkpt>
			<trkpt lat="54.450030" lon="20.579190"><ele>51.9</ele><time>2026-06-05T02:16:33Z</time></trkpt>
			<trkpt lat="54.451480" lon="20.577970"><ele>51.6</ele><time>2026-06-05T02:16:41Z</time></trkpt>
			<trkpt lat="54.452040" lon="20.577450"><ele>51.5</ele><time>2026-06-05T02:16:49Z</time></trkpt>
			<trkpt lat="54.452630" lon="20.576800"><ele>51.4</ele><time>2026-06-05T02:16:57Z</time></trkpt>
			<trkpt lat="54.454740" lon="20.574560"><ele>51.1</ele><time>2026-06-05T02:17:05Z</time></trkpt>
			<trkpt lat="54.455740" lon="20.573080"><ele>50.9</ele><time>2026-06-05T02:17:14Z</time></trkpt>
			<trkpt lat="54.459010" lon="20.568450"><ele>50.6</ele><time>2026-06-05T02:17:22Z</time></trkpt>
			<trkpt lat="54.459290" lon="20.568010"><ele>50.6</ele><time>2026-06-05T02:17:30Z</time></trkpt>
			<trkpt lat="54.459860" lon="20.563240"><ele>50.5</ele><time>2026-06-05T02:17:38Z</time></trkpt>
			<trkpt lat="54.460470" lon="20.557850"><ele>50.4</ele><time>2026-06-05T02:17:46Z</time></trkpt>
			<trkpt lat="54.460920" lon="20.554120"><ele>47.8</ele><time>2026-06-05T02:17:54Z</time></trkpt>
			<trkpt lat="54.460940" lon="20.553720"><ele>47.5</ele><time>2026-06-05T02:18:02Z</time></trkpt>
			<trkpt lat="54.460910" lon="20.553320"><ele>47.2</ele><time>2026-06-05T02:18:10Z</time></trkpt>
			<trkpt lat="54.460790" lon="20.552830"><ele>46.8</ele><time>2026-06-05T02:18:18Z</time></trkpt>
			<trkpt lat="54.460530" lon="20.551800"><ele>45.9</ele><time>2026-06-05T02:18:26Z</time></trkpt>
			<trkpt lat="54.460360" lon="20.551170"><ele>45.3</ele><time>2026-06-05T02:18:34Z</time></trkpt>
			<trkpt lat="54.460390" lon="20.550970"><ele>45.2</ele><time>2026-06-05T02:18:42Z</time></trkpt>
			<trkpt lat="54.460440" lon="20.550900"><ele>45.1</ele><time>2026-06-05T02:18:50Z</time></trkpt>
			<trkpt lat="54.460660" lon="20.550800"><ele>44.8</ele><time>2026-06-05T02:18:58Z</time></trkpt>
			<trkpt lat="54.460810" lon="20.550780"><ele>44.6</ele><time>2026-06-05T02:19:06Z</time></trkpt>
			<trkpt lat="54.460930" lon="20.550720"><ele>44.4</ele><time>2026-06-05T02:19:14Z</time></trkpt>
			<trkpt lat="54.462840" lon="20.548790"><ele>41.4</ele><time>2026-06-05T02:19:22Z</time></trkpt>
			<trkpt lat="54.462980" lon="20.548760"><ele>41.2</ele><time>2026-06-05T02:19:30Z</time></trkpt>
			<trkpt lat="54.463220" lon="20.548650"><ele>40.9</ele><time>2026-06-05T02:19:38Z</time></trkpt>
			<trkpt lat="54.463330" lon="20.548550"><ele>40.7</ele><time>2026-06-05T02:19:46Z</time></trkpt>
			<trkpt lat="54.463400" lon="20.548310"><ele>40.5</ele><time>2026-06-05T02:19:54Z</time></trkpt>
			<trkpt lat="54.463500" lon="20.547820"><ele>40.1</ele><time>2026-06-05T02:20:02Z</time></trkpt>
			<trkpt lat="54.463650" lon="20.546960"><ele>39.4</ele><time>2026-06-05T02:20:10Z</time></trkpt>
			<trkpt lat="54.463770" lon="20.546730"><ele>39.1</ele><time>2026-06-05T02:20:18Z</time></trkpt>
			<trkpt lat="54.463910" lon="20.546590"><ele>38.9</ele><time>2026-06-05T02:20:26Z</time></trkpt>
			<trkpt lat="54.465710" lon="20.545880"><ele>40.3</ele><time>2026-06-05T02:20:34Z</time></trkpt>
			<trkpt lat="54.466480" lon="20.545740"><ele>41.6</ele><time>2026-06-05T02:20:42Z</time></trkpt>
			<trkpt lat="54.467240" lon="20.545570"><ele>42.8</ele><time>2026-06-05T02:20:50Z</time></trkpt>
			<trkpt lat="54.467550" lon="20.545490"><ele>43.4</ele><time>2026-06-05T02:20:58Z</time></trkpt>
			<trkpt lat="54.467770" lon="20.545460"><ele>43.7</ele><time>2026-06-05T02:21:06Z</time></trkpt>
			<trkpt lat="54.470100" lon="20.545660"><ele>47.6</ele><time>2026-06-05T02:21:14Z</time></trkpt>
			<trkpt lat="54.470560" lon="20.545760"><ele>48.4</ele><time>2026-06-05T02:21:22Z</time></trkpt>
			<trkpt lat="54.471550" lon="20.545860"><ele>50.0</ele><time>2026-06-05T02:21:30Z</time></trkpt>
			<trkpt lat="54.471810" lon="20.545860"><ele>50.5</ele><time>2026-06-05T02:21:38Z</time></trkpt>
			<trkpt lat="54.471960" lon="20.545800"><ele>50.7</ele><time>2026-06-05T02:21:47Z</time></trkpt>
			<trkpt lat="54.472360" lon="20.545500"><ele>51.5</ele><time>2026-06-05T02:21:55Z</time></trkpt>
			<trkpt lat="54.472980" lon="20.545000"><ele>52.6</ele><time>2026-06-05T02:22:03Z</time></trkpt>
			<trkpt lat="54.474530" lon="20.543710"><ele>53.0</ele><time>2026-06-05T02:22:11Z</time></trkpt>
			<trkpt lat="54.474910" lon="20.543370"><ele>52.9</ele><time>2026-06-05T02:22:19Z</time></trkpt>
			<trkpt lat="54.475340" lon="20.543030"><ele>52.8</ele><time>2026-06-05T02:22:27Z</time></trkpt>
			<trkpt lat="54.475720" lon="20.542780"><ele>52.8</ele><time>2026-06-05T02:22:35Z</time></trkpt>
			<trkpt lat="54.477500" lon="20.541770"><ele>52.6</ele><time>2026-06-05T02:22:43Z</time></trkpt>
			<trkpt lat="54.478240" lon="20.541420"><ele>52.5</ele><time>2026-06-05T02:22:51Z</time></trkpt>
			<trkpt lat="54.479720" lon="20.540690"><ele>52.3</ele><time>2026-06-05T02:22:59Z</time></trkpt>
			<trkpt lat="54.480720" lon="20.540250"><ele>52.1</ele><time>2026-06-05T02:23:07Z</time></trkpt>
			<trkpt lat="54.480940" lon="20.540090"><ele>52.1</ele><time>2026-06-05T02:23:15Z</time></trkpt>
			<trkpt lat="54.481060" lon="20.539950"><ele>52.1</ele><time>2026-06-05T02:23:23Z</time></trkpt>
			<trkpt lat="54.481160" lon="20.539760"><ele>52.1</ele><time>2026-06-05T02:23:31Z</time></trkpt>
			<trkpt lat="54.481300" lon="20.539370"><ele>52.0</ele><time>2026-06-05T02:23:39Z</time></trkpt>
			<trkpt lat="54.482540" lon="20.535270"><ele>51.9</ele><time>2026-06-05T02:23:47Z</time></trkpt>
			<trkpt lat="54.483610" lon="20.531860"><ele>51.7</ele><time>2026-06-05T02:23:55Z</time></trkpt>
			<trkpt lat="54.484240" lon="20.529700"><ele>51.6</ele><time>2026-06-05T02:24:03Z</time></trkpt>
			<trkpt lat="54.484520" lon="20.528810"><ele>51.6</ele><time>2026-06-05T02:24:11Z</time></trkpt>
			<trkpt lat="54.484710" lon="20.528320"><ele>51.6</ele><time>2026-06-05T02:24:19Z</time></trkpt>
			<trkpt lat="54.488360" lon="20.520880"><ele>48.5</ele><time>2026-06-05T02:24:27Z</time></trkpt>
			<trkpt lat="54.488560" lon="20.520340"><ele>48.2</ele><time>2026-06-05T02:24:35Z</time></trkpt>
			<trkpt lat="54.488590" lon="20.519600"><ele>47.9</ele><time>2026-06-05T02:24:43Z</time></trkpt>
			<trkpt lat="54.488290" lon="20.511480"><ele>44.1</ele><time>2026-06-05T02:24:51Z</time></trkpt>
			<trkpt lat="54.488300" lon="20.510960"><ele>43.7</ele><time>2026-06-05T02:24:59Z</time></trkpt>
			<trkpt lat="54.488450" lon="20.510420"><ele>43.3</ele><time>2026-06-05T02:25:07Z</time></trkpt>
			<trkpt lat="54.490970" lon="20.503710"><ele>38.2</ele><time>2026-06-05T02:25:15Z</time></trkpt>
			<trkpt lat="54.491550" lon="20.501950"><ele>36.8</ele><time>2026-06-05T02:25:23Z</time></trkpt>
			<trkpt lat="54.492330" lon="20.499400"><ele>35.0</ele><time>2026-06-05T02:25:31Z</time></trkpt>
			<trkpt lat="54.492640" lon="20.498190"><ele>34.2</ele><time>2026-06-05T02:25:39Z</time></trkpt>
			<trkpt lat="54.493030" lon="20.496690"><ele>34.3</ele><time>2026-06-05T02:25:47Z</time></trkpt>
			<trkpt lat="54.493830" lon="20.493670"><ele>34.5</ele><time>2026-06-05T02:25:55Z</time></trkpt>
			<trkpt lat="54.495210" lon="20.488330"><ele>34.7</ele><time>2026-06-05T02:26:03Z</time></trkpt>
			<trkpt lat="54.495300" lon="20.487770"><ele>34.8</ele><time>2026-06-05T02:26:11Z</time></trkpt>
			<trkpt lat="54.495220" lon="20.487060"><ele>34.8</ele><time>2026-06-05T02:26:20Z</time></trkpt>
			<trkpt lat="54.495000" lon="20.485700"><ele>34.9</ele><time>2026-06-05T02:26:28Z</time></trkpt>
			<trkpt lat="54.495000" lon="20.485410"><ele>34.9</ele><time>2026-06-05T02:26:36Z</time></trkpt>
			<trkpt lat="54.495010" lon="20.485330"><ele>34.9</ele><time>2026-06-05T02:26:44Z</time></trkpt>
			<trkpt lat="54.495060" lon="20.484980"><ele>34.9</ele><time>2026-06-05T02:26:52Z</time></trkpt>
			<trkpt lat="54.495240" lon="20.484520"><ele>34.9</ele><time>2026-06-05T02:27:00Z</time></trkpt>
			<trkpt lat="54.495650" lon="20.483580"><ele>35.0</ele><time>2026-06-05T02:27:08Z</time></trkpt>
			<trkpt lat="54.495960" lon="20.482810"><ele>35.0</ele><time>2026-06-05T02:27:16Z</time></trkpt>
			<trkpt lat="54.496230" lon="20.482040"><ele>35.0</ele><time>2026-06-05T02:27:24Z</time></trkpt>
			<trkpt lat="54.496440" lon="20.481350"><ele>35.1</ele><time>2026-06-05T02:27:32Z</time></trkpt>
			<trkpt lat="54.496610" lon="20.480640"><ele>35.1</ele><time>2026-06-05T02:27:40Z</time></trkpt>
			<trkpt lat="54.496780" lon="20.480030"><ele>35.1</ele><time>2026-06-05T02:27:48Z</time></trkpt>
			<trkpt lat="54.497030" lon="20.479440"><ele>35.1</ele><time>2026-06-05T02:27:56Z</time></trkpt>
			<trkpt lat="54.497340" lon="20.478840"><ele>35.2</ele><time>2026-06-05T02:28:04Z</time></trkpt>
			<trkpt lat="54.497730" lon="20.478170"><ele>35.2</ele><time>2026-06-05T02:28:12Z</time></trkpt>
			<trkpt lat="54.498030" lon="20.477480"><ele>35.2</ele><time>2026-06-05T02:28:20Z</time></trkpt>
			<trkpt lat="54.498700" lon="20.474570"><ele>35.3</ele><time>2026-06-05T02:28:28Z</time></trkpt>
			<trkpt lat="54.499390" lon="20.472080"><ele>35.4</ele><time>2026-06-05T02:28:36Z</time></trkpt>
			<trkpt lat="54.499900" lon="20.470650"><ele>35.4</ele><time>2026-06-05T02:28:44Z</time></trkpt>
			<trkpt lat="54.500290" lon="20.469580"><ele>35.0</ele><time>2026-06-05T02:28:52Z</time></trkpt>
			<trkpt lat="54.500430" lon="20.469090"><ele>34.8</ele><time>2026-06-05T02:29:00Z</time></trkpt>
			<trkpt lat="54.501390" lon="20.464370"><ele>33.2</ele><time>2026-06-05T02:29:08Z</time></trkpt>
			<trkpt lat="54.501990" lon="20.461350"><ele>32.1</ele><time>2026-06-05T02:29:16Z</time></trkpt>
			<trkpt lat="54.502350" lon="20.458770"><ele>31.2</ele><time>2026-06-05T02:29:24Z</time></trkpt>
			<trkpt lat="54.502420" lon="20.458190"><ele>31.0</ele><time>2026-06-05T02:29:32Z</time></trkpt>
			<trkpt lat="54.502460" lon="20.457710"><ele>30.9</ele><time>2026-06-05T02:29:40Z</time></trkpt>
			<trkpt lat="54.502530" lon="20.457210"><ele>30.7</ele><time>2026-06-05T02:29:48Z</time></trkpt>
			<trkpt lat="54.502650" lon="20.456600"><ele>30.5</ele><time>2026-06-05T02:29:56Z</time></trkpt>
			<trkpt lat="54.503060" lon="20.454970"><ele>30.5</ele><time>2026-06-05T02:30:04Z</time></trkpt>
			<trkpt lat="54.503440" lon="20.453310"><ele>30.8</ele><time>2026-06-05T02:30:12Z</time></trkpt>
			<trkpt lat="54.503800" lon="20.451740"><ele>31.1</ele><time>2026-06-05T02:30:20Z</time></trkpt>
			<trkpt lat="54.503820" lon="20.451490"><ele>31.1</ele><time>2026-06-05T02:30:28Z</time></trkpt>
			<trkpt lat="54.503820" lon="20.451250"><ele>31.1</ele><time>2026-06-05T02:30:36Z</time></trkpt>
			<trkpt lat="54.503800" lon="20.450870"><ele>31.2</ele><time>2026-06-05T02:30:45Z</time></trkpt>
			<trkpt lat="54.503680" lon="20.449670"><ele>31.4</ele><time>2026-06-05T02:30:53Z</time></trkpt>
			<trkpt lat="54.503570" lon="20.448750"><ele>31.5</ele><time>2026-06-05T02:31:01Z</time></trkpt>
			<trkpt lat="54.503480" lon="20.447820"><ele>31.7</ele><time>2026-06-05T02:31:09Z</time></trkpt>
			<trkpt lat="54.503480" lon="20.447560"><ele>31.7</ele><time>2026-06-05T02:31:17Z</time></trkpt>
			<trkpt lat="54.503900" lon="20.447660"><ele>31.8</ele><time>2026-06-05T02:31:25Z</time></trkpt>
			<trkpt lat="54.504430" lon="20.446660"><ele>32.0</ele><time>2026-06-05T02:31:33Z</time></trkpt>
			<trkpt lat="54.504540" lon="20.446440"><ele>32.1</ele><time>2026-06-05T02:31:41Z</time></trkpt>
			<trkpt lat="54.504630" lon="20.446210"><ele>32.1</ele><time>2026-06-05T02:31:49Z</time></trkpt>
			<trkpt lat="54.504720" lon="20.445940"><ele>32.2</ele><time>2026-06-05T02:31:57Z</time></trkpt>
			<trkpt lat="54.504850" lon="20.445520"><ele>32.3</ele><time>2026-06-05T02:32:05Z</time></trkpt>
			<trkpt lat="54.506460" lon="20.438320"><ele>27.9</ele><time>2026-06-05T02:32:13Z</time></trkpt>
			<trkpt lat="54.508650" lon="20.428460"><ele>17.1</ele><time>2026-06-05T02:32:21Z</time></trkpt>
			<trkpt lat="54.509040" lon="20.426970"><ele>17.2</ele><time>2026-06-05T02:32:29Z</time></trkpt>
			<trkpt lat="54.509320" lon="20.426230"><ele>17.4</ele><time>2026-06-05T02:32:37Z</time></trkpt>
			<trkpt lat="54.509690" lon="20.425400"><ele>17.7</ele><time>2026-06-05T02:32:45Z</time></trkpt>
			<trkpt lat="54.510380" lon="20.424070"><ele>18.2</ele><time>2026-06-05T02:32:53Z</time></trkpt>
			<trkpt lat="54.510740" lon="20.423500"><ele>18.4</ele><time>2026-06-05T02:33:01Z</time></trkpt>
			<trkpt lat="54.513720" lon="20.419340"><ele>20.2</ele><time>2026-06-05T02:33:09Z</time></trkpt>
			<trkpt lat="54.516140" lon="20.415910"><ele>21.8</ele><time>2026-06-05T02:33:17Z</time></trkpt>
			<trkpt lat="54.520330" lon="20.409260"><ele>24.9</ele><time>2026-06-05T02:33:25Z</time></trkpt>
			<trkpt lat="54.521970" lon="20.406810"><ele>25.6</ele><time>2026-06-05T02:33:33Z</time></trkpt>
			<trkpt lat="54.525470" lon="20.402160"><ele>21.7</ele><time>2026-06-05T02:33:41Z</time></trkpt>
			<trkpt lat="54.528280" lon="20.397590"><ele>18.2</ele><time>2026-06-05T02:33:49Z</time></trkpt>
			<trkpt lat="54.528620" lon="20.396870"><ele>17.8</ele><time>2026-06-05T02:33:57Z</time></trkpt>
			<trkpt lat="54.528910" lon="20.395910"><ele>17.4</ele><time>2026-06-05T02:34:05Z</time></trkpt>
			<trkpt lat="54.529320" lon="20.393820"><ele>16.6</ele><time>2026-06-05T02:34:13Z</time></trkpt>
			<trkpt lat="54.529510" lon="20.392740"><ele>16.2</ele><time>2026-06-05T02:34:21Z</time></trkpt>
			<trkpt lat="54.529650" lon="20.391990"><ele>15.9</ele><time>2026-06-05T02:34:29Z</time></trkpt>
			<trkpt lat="54.529730" lon="20.391540"><ele>15.8</ele><time>2026-06-05T02:34:37Z</time></trkpt>
			<trkpt lat="54.529940" lon="20.389830"><ele>15.1</ele><time>2026-06-05T02:34:45Z</time></trkpt>
			<trkpt lat="54.530030" lon="20.388920"><ele>14.8</ele><time>2026-06-05T02:34:53Z</time></trkpt>
			<trkpt lat="54.530180" lon="20.388340"><ele>14.6</ele><time>2026-06-05T02:35:01Z</time></trkpt>
			<trkpt lat="54.530340" lon="20.388010"><ele>14.4</ele><time>2026-06-05T02:35:09Z</time></trkpt>
			<trkpt lat="54.532610" lon="20.385280"><ele>12.8</ele><time>2026-06-05T02:35:18Z</time></trkpt>
			<trkpt lat="54.532820" lon="20.384990"><ele>12.6</ele><time>2026-06-05T02:35:26Z</time></trkpt>
			<trkpt lat="54.532920" lon="20.384620"><ele>12.5</ele><time>2026-06-05T02:35:34Z</time></trkpt>
			<trkpt lat="54.532980" lon="20.384110"><ele>12.3</ele><time>2026-06-05T02:35:42Z</time></trkpt>
			<trkpt lat="54.533620" lon="20.377970"><ele>11.7</ele><time>2026-06-05T02:35:50Z</time></trkpt>
			<trkpt lat="54.533650" lon="20.376740"><ele>11.6</ele><time>2026-06-05T02:35:58Z</time></trkpt>
			<trkpt lat="54.533690" lon="20.372690"><ele>11.2</ele><time>2026-06-05T02:36:06Z</time></trkpt>
			<trkpt lat="54.533710" lon="20.371770"><ele>11.1</ele><time>2026-06-05T02:36:14Z</time></trkpt>
			<trkpt lat="54.533710" lon="20.371520"><ele>11.1</ele><time>2026-06-05T02:36:22Z</time></trkpt>
			<trkpt lat="54.533640" lon="20.371340"><ele>11.0</ele><time>2026-06-05T02:36:30Z</time></trkpt>
			<trkpt lat="54.534390" lon="20.370410"><ele>10.9</ele><time>2026-06-05T02:36:38Z</time></trkpt>
			<trkpt lat="54.534620" lon="20.370120"><ele>10.8</ele><time>2026-06-05T02:36:46Z</time></trkpt>
			<trkpt lat="54.535630" lon="20.369450"><ele>10.5</ele><time>2026-06-05T02:36:54Z</time></trkpt>
			<trkpt lat="54.537060" lon="20.368580"><ele>10.0</ele><time>2026-06-05T02:37:02Z</time></trkpt>
			<trkpt lat="54.537250" lon="20.368550"><ele>9.9</ele><time>2026-06-05T02:37:10Z</time></trkpt>
			<trkpt lat="54.537790" lon="20.368570"><ele>9.8</ele><time>2026-06-05T02:37:18Z</time></trkpt>
			<trkpt lat="54.537970" lon="20.368600"><ele>9.7</ele><time>2026-06-05T02:37:26Z</time></trkpt>
			<trkpt lat="54.538480" lon="20.368580"><ele>9.5</ele><time>2026-06-05T02:37:34Z</time></trkpt>
			<trkpt lat="54.538870" lon="20.368450"><ele>9.4</ele><time>2026-06-05T02:37:42Z</time></trkpt>
			<trkpt lat="54.539250" lon="20.368240"><ele>9.3</ele><time>2026-06-05T02:37:50Z</time></trkpt>
			<trkpt lat="54.539520" lon="20.368070"><ele>9.2</ele><time>2026-06-05T02:37:58Z</time></trkpt>
			<trkpt lat="54.539610" lon="20.368010"><ele>9.1</ele><time>2026-06-05T02:38:06Z</time></trkpt>
			<trkpt lat="54.540830" lon="20.367220"><ele>8.7</ele><time>2026-06-05T02:38:14Z</time></trkpt>
			<trkpt lat="54.541080" lon="20.367130"><ele>8.6</ele><time>2026-06-05T02:38:22Z</time></trkpt>
			<trkpt lat="54.541330" lon="20.367140"><ele>8.6</ele><time>2026-06-05T02:38:30Z</time></trkpt>
			<trkpt lat="54.541540" lon="20.367250"><ele>8.5</ele><time>2026-06-05T02:38:38Z</time></trkpt>
			<trkpt lat="54.541750" lon="20.367450"><ele>8.4</ele><time>2026-06-05T02:38:46Z</time></trkpt>
			<trkpt lat="54.542600" lon="20.368330"><ele>8.1</ele><time>2026-06-05T02:38:54Z</time></trkpt>
			<trkpt lat="54.543460" lon="20.369170"><ele>7.6</ele><time>2026-06-05T02:39:02Z</time></trkpt>
			<trkpt lat="54.544290" lon="20.369620"><ele>7.0</ele><time>2026-06-05T02:39:10Z</time></trkpt>
			<trkpt lat="54.544490" lon="20.369710"><ele>6.9</ele><time>2026-06-05T02:39:18Z</time></trkpt>
			<trkpt lat="54.548650" lon="20.371780"><ele>3.9</ele><time>2026-06-05T02:39:26Z</time></trkpt>
			<trkpt lat="54.549330" lon="20.371870"><ele>3.4</ele><time>2026-06-05T02:39:34Z</time></trkpt>
			<trkpt lat="54.549620" lon="20.371870"><ele>3.2</ele><time>2026-06-05T02:39:42Z</time></trkpt>
			<trkpt lat="54.549870" lon="20.371840"><ele>3.0</ele><time>2026-06-05T02:39:51Z</time></trkpt>
			<trkpt lat="54.552810" lon="20.371080"><ele>1.5</ele><time>2026-06-05T02:39:59Z</time></trkpt>
			<trkpt lat="54.553840" lon="20.370730"><ele>1.4</ele><time>2026-06-05T02:40:07Z</time></trkpt>
			<trkpt lat="54.554620" lon="20.370350"><ele>1.4</ele><time>2026-06-05T02:40:15Z</time></trkpt>
			<trkpt lat="54.554960" lon="20.370160"><ele>1.4</ele><time>2026-06-05T02:40:23Z</time></trkpt>
			<trkpt lat="54.555180" lon="20.370010"><ele>1.4</ele><time>2026-06-05T02:40:31Z</time></trkpt>
			<trkpt lat="54.555370" lon="20.369810"><ele>1.3</ele><time>2026-06-05T02:40:39Z</time></trkpt>
			<trkpt lat="54.555520" lon="20.369610"><ele>1.3</ele><time>2026-06-05T02:40:47Z</time></trkpt>
			<trkpt lat="54.555850" lon="20.369130"><ele>1.3</ele><time>2026-06-05T02:40:55Z</time></trkpt>
			<trkpt lat="54.556030" lon="20.368930"><ele>1.3</ele><time>2026-06-05T02:41:03Z</time></trkpt>
			<trkpt lat="54.556230" lon="20.368840"><ele>1.3</ele><time>2026-06-05T02:41:11Z</time></trkpt>
			<trkpt lat="54.556720" lon="20.368670"><ele>1.2</ele><time>2026-06-05T02:41:19Z</time></trkpt>
			<trkpt lat="54.555770" lon="20.366810"><ele>1.2</ele><time>2026-06-05T02:41:27Z</time></trkpt>
			<trkpt lat="54.552260" lon="20.359690"><ele>2.8</ele><time>2026-06-05T02:41:35Z</time></trkpt>
			<trkpt lat="54.551270" lon="20.357560"><ele>3.8</ele><time>2026-06-05T02:41:43Z</time></trkpt>
			<trkpt lat="54.550870" lon="20.356670"><ele>4.2</ele><time>2026-06-05T02:41:51Z</time></trkpt>
			<trkpt lat="54.550640" lon="20.356150"><ele>4.4</ele><time>2026-06-05T02:41:59Z</time></trkpt>
			<trkpt lat="54.550640" lon="20.356150"><ele>4.4</ele><time>2026-06-05T02:42:07Z</time></trkpt>
			<trkpt lat="54.550450" lon="20.355700"><ele>4.6</ele><time>2026-06-05T02:42:16Z</time></trkpt>
			<trkpt lat="54.549670" lon="20.353780"><ele>5.5</ele><time>2026-06-05T02:42:24Z</time></trkpt>
			<trkpt lat="54.549230" lon="20.352650"><ele>6.0</ele><time>2026-06-05T02:42:32Z</time></trkpt>
			<trkpt lat="54.548770" lon="20.351410"><ele>6.5</ele><time>2026-06-05T02:42:41Z</time></trkpt>
			<trkpt lat="54.547880" lon="20.348880"><ele>8.9</ele><time>2026-06-05T02:42:49Z</time></trkpt>
			<trkpt lat="54.546230" lon="20.344270"><ele>13.5</ele><time>2026-06-05T02:42:58Z</time></trkpt>
			<trkpt lat="54.545240" lon="20.341450"><ele>16.3</ele><time>2026-06-05T02:43:06Z</time></trkpt>
			<trkpt lat="54.544780" lon="20.340220"><ele>17.5</ele><time>2026-06-05T02:43:14Z</time></trkpt>
			<trkpt lat="54.542920" lon="20.335060"><ele>20.3</ele><time>2026-06-05T02:43:23Z</time></trkpt>
			<trkpt lat="54.542190" lon="20.332950"><ele>20.8</ele><time>2026-06-05T02:43:31Z</time></trkpt>
			<trkpt lat="54.539750" lon="20.326110"><ele>22.4</ele><time>2026-06-05T02:43:39Z</time></trkpt>
			<trkpt lat="54.535970" lon="20.315490"><ele>29.2</ele><time>2026-06-05T02:43:48Z</time></trkpt>
			<trkpt lat="54.533620" lon="20.308900"><ele>32.2</ele><time>2026-06-05T02:43:56Z</time></trkpt>
			<trkpt lat="54.533130" lon="20.307410"><ele>32.4</ele><time>2026-06-05T02:44:04Z</time></trkpt>
			<trkpt lat="54.532680" lon="20.305920"><ele>32.5</ele><time>2026-06-05T02:44:13Z</time></trkpt>
			<trkpt lat="54.532200" lon="20.304300"><ele>32.7</ele><time>2026-06-05T02:44:21Z</time></trkpt>
			<trkpt lat="54.531660" lon="20.302440"><ele>32.8</ele><time>2026-06-05T02:44:30Z</time></trkpt>
			<trkpt lat="54.530470" lon="20.298040"><ele>33.2</ele><time>2026-06-05T02:44:38Z</time></trkpt>
			<trkpt lat="54.528570" lon="20.290930"><ele>41.3</ele><time>2026-06-05T02:44:46Z</time></trkpt>
			<trkpt lat="54.526490" lon="20.283250"><ele>50.1</ele><time>2026-06-05T02:44:55Z</time></trkpt>
			<trkpt lat="54.525730" lon="20.280460"><ele>53.1</ele><time>2026-06-05T02:45:03Z</time></trkpt>
			<trkpt lat="54.525150" lon="20.278230"><ele>55.5</ele><time>2026-06-05T02:45:11Z</time></trkpt>
			<trkpt lat="54.524440" lon="20.275560"><ele>58.4</ele><time>2026-06-05T02:45:20Z</time></trkpt>
			<trkpt lat="54.523860" lon="20.273440"><ele>60.7</ele><time>2026-06-05T02:45:28Z</time></trkpt>
			<trkpt lat="54.523090" lon="20.270490"><ele>63.9</ele><time>2026-06-05T02:45:36Z</time></trkpt>
			<trkpt lat="54.522670" lon="20.269010"><ele>64.7</ele><time>2026-06-05T02:45:45Z</time></trkpt>
			<trkpt lat="54.521380" lon="20.264310"><ele>64.6</ele><time>2026-06-05T02:45:53Z</time></trkpt>
			<trkpt lat="54.516860" lon="20.247470"><ele>58.9</ele><time>2026-06-05T02:46:02Z</time></trkpt>
			<trkpt lat="54.515630" lon="20.243030"><ele>55.9</ele><time>2026-06-05T02:46:10Z</time></trkpt>
			<trkpt lat="54.513450" lon="20.235020"><ele>55.0</ele><time>2026-06-05T02:46:18Z</time></trkpt>
			<trkpt lat="54.513210" lon="20.234040"><ele>55.0</ele><time>2026-06-05T02:46:27Z</time></trkpt>
			<trkpt lat="54.513070" lon="20.233450"><ele>54.9</ele><time>2026-06-05T02:46:35Z</time></trkpt>
			<trkpt lat="54.512670" lon="20.231910"><ele>54.9</ele><time>2026-06-05T02:46:43Z</time></trkpt>
			<trkpt lat="54.512390" lon="20.230890"><ele>54.9</ele><time>2026-06-05T02:46:52Z</time></trkpt>
			<trkpt lat="54.512360" lon="20.230790"><ele>54.9</ele><time>2026-06-05T02:47:00Z</time></trkpt>
			<trkpt lat="54.512080" lon="20.229820"><ele>54.9</ele><time>2026-06-05T02:47:09Z</time></trkpt>
			<trkpt lat="54.511790" lon="20.228820"><ele>54.9</ele><time>2026-06-05T02:47:17Z</time></trkpt>
			<trkpt lat="54.511080" lon="20.226880"><ele>54.7</ele><time>2026-06-05T02:47:25Z</time></trkpt>
			<trkpt lat="54.510310" lon="20.224750"><ele>54.0</ele><time>2026-06-05T02:47:34Z</time></trkpt>
			<trkpt lat="54.509570" lon="20.222970"><ele>53.5</ele><time>2026-06-05T02:47:42Z</time></trkpt>
			<trkpt lat="54.509070" lon="20.221900"><ele>53.1</ele><time>2026-06-05T02:47:50Z</time></trkpt>
			<trkpt lat="54.508370" lon="20.220480"><ele>52.7</ele><time>2026-06-05T02:47:59Z</time></trkpt>
			<trkpt lat="54.507670" lon="20.219140"><ele>52.2</ele><time>2026-06-05T02:48:07Z</time></trkpt>
			<trkpt lat="54.506210" lon="20.216650"><ele>51.3</ele><time>2026-06-05T02:48:15Z</time></trkpt>
			<trkpt lat="54.501810" lon="20.210190"><ele>58.1</ele><time>2026-06-05T02:48:24Z</time></trkpt>
			<trkpt lat="54.499380" lon="20.206550"><ele>62.6</ele><time>2026-06-05T02:48:32Z</time></trkpt>
			<trkpt lat="54.497790" lon="20.204320"><ele>66.5</ele><time>2026-06-05T02:48:41Z</time></trkpt>
			<trkpt lat="54.495890" lon="20.201510"><ele>72.0</ele><time>2026-06-05T02:48:49Z</time></trkpt>
			<trkpt lat="54.491160" lon="20.194500"><ele>83.9</ele><time>2026-06-05T02:48:57Z</time></trkpt>
			<trkpt lat="54.486630" lon="20.187920"><ele>87.7</ele><time>2026-06-05T02:49:06Z</time></trkpt>
			<trkpt lat="54.485350" lon="20.186030"><ele>88.8</ele><time>2026-06-05T02:49:14Z</time></trkpt>
			<trkpt lat="54.483810" lon="20.183730"><ele>91.2</ele><time>2026-06-05T02:49:22Z</time></trkpt>
			<trkpt lat="54.476620" lon="20.173210"><ele>100.2</ele><time>2026-06-05T02:49:31Z</time></trkpt>
			<trkpt lat="54.471570" lon="20.165760"><ele>99.5</ele><time>2026-06-05T02:49:39Z</time></trkpt>
			<trkpt lat="54.467890" lon="20.160370"><ele>92.0</ele><time>2026-06-05T02:49:47Z</time></trkpt>
			<trkpt lat="54.466140" lon="20.157880"><ele>88.3</ele><time>2026-06-05T02:49:56Z</time></trkpt>
			<trkpt lat="54.465320" lon="20.156640"><ele>86.6</ele><time>2026-06-05T02:50:04Z</time></trkpt>
			<trkpt lat="54.464410" lon="20.155260"><ele>84.9</ele><time>2026-06-05T02:50:13Z</time></trkpt>
			<trkpt lat="54.461890" lon="20.151530"><ele>83.1</ele><time>2026-06-05T02:50:21Z</time></trkpt>
			<trkpt lat="54.460990" lon="20.150170"><ele>82.4</ele><time>2026-06-05T02:50:29Z</time></trkpt>
			<trkpt lat="54.460500" lon="20.149390"><ele>82.1</ele><time>2026-06-05T02:50:38Z</time></trkpt>
			<trkpt lat="54.459960" lon="20.148510"><ele>81.7</ele><time>2026-06-05T02:50:46Z</time></trkpt>
			<trkpt lat="54.459110" lon="20.147060"><ele>81.0</ele><time>2026-06-05T02:50:54Z</time></trkpt>
			<trkpt lat="54.458670" lon="20.146280"><ele>80.7</ele><time>2026-06-05T02:51:03Z</time></trkpt>
			<trkpt lat="54.458500" lon="20.145980"><ele>80.6</ele><time>2026-06-05T02:51:11Z</time></trkpt>
			<trkpt lat="54.457810" lon="20.144710"><ele>80.6</ele><time>2026-06-05T02:51:19Z</time></trkpt>
			<trkpt lat="54.457650" lon="20.144420"><ele>81.0</ele><time>2026-06-05T02:51:28Z</time></trkpt>
			<trkpt lat="54.457500" lon="20.144140"><ele>81.4</ele><time>2026-06-05T02:51:36Z</time></trkpt>
			<trkpt lat="54.456950" lon="20.143080"><ele>83.0</ele><time>2026-06-05T02:51:45Z</time></trkpt>
			<trkpt lat="54.456180" lon="20.141540"><ele>85.1</ele><time>2026-06-05T02:51:53Z</time></trkpt>
			<trkpt lat="54.454540" lon="20.138030"><ele>90.0</ele><time>2026-06-05T02:52:01Z</time></trkpt>
			<trkpt lat="54.453870" lon="20.136570"><ele>92.0</ele><time>2026-06-05T02:52:10Z</time></trkpt>
			<trkpt lat="54.453800" lon="20.136420"><ele>92.2</ele><time>2026-06-05T02:52:18Z</time></trkpt>
			<trkpt lat="54.453590" lon="20.135940"><ele>92.8</ele><time>2026-06-05T02:52:26Z</time></trkpt>
			<trkpt lat="54.453510" lon="20.135760"><ele>93.1</ele><time>2026-06-05T02:52:35Z</time></trkpt>
			<trkpt lat="54.453430" lon="20.135460"><ele>93.4</ele><time>2026-06-05T02:52:43Z</time></trkpt>
			<trkpt lat="54.453380" lon="20.135340"><ele>93.6</ele><time>2026-06-05T02:52:51Z</time></trkpt>
			<trkpt lat="54.453200" lon="20.134930"><ele>94.1</ele><time>2026-06-05T02:53:00Z</time></trkpt>
			<trkpt lat="54.453150" lon="20.134790"><ele>94.3</ele><time>2026-06-05T02:53:08Z</time></trkpt>
			<trkpt lat="54.453140" lon="20.134690"><ele>94.4</ele><time>2026-06-05T02:53:17Z</time></trkpt>
			<trkpt lat="54.453140" lon="20.134600"><ele>94.5</ele><time>2026-06-05T02:53:25Z</time></trkpt>
			<trkpt lat="54.453140" lon="20.134520"><ele>94.6</ele><time>2026-06-05T02:53:33Z</time></trkpt>
			<trkpt lat="54.453180" lon="20.134360"><ele>94.8</ele><time>2026-06-05T02:53:42Z</time></trkpt>
			<trkpt lat="54.453240" lon="20.134270"><ele>94.9</ele><time>2026-06-05T02:53:50Z</time></trkpt>
			<trkpt lat="54.453320" lon="20.134190"><ele>95.1</ele><time>2026-06-05T02:53:58Z</time></trkpt>
			<trkpt lat="54.453380" lon="20.134200"><ele>95.2</ele><time>2026-06-05T02:54:07Z</time></trkpt>
			<trkpt lat="54.453500" lon="20.134230"><ele>95.4</ele><time>2026-06-05T02:54:15Z</time></trkpt>
			<trkpt lat="54.453570" lon="20.134270"><ele>95.6</ele><time>2026-06-05T02:54:23Z</time></trkpt>
			<trkpt lat="54.453630" lon="20.134320"><ele>95.7</ele><time>2026-06-05T02:54:32Z</time></trkpt>
			<trkpt lat="54.453680" lon="20.134400"><ele>95.8</ele><time>2026-06-05T02:54:40Z</time></trkpt>
			<trkpt lat="54.453800" lon="20.134620"><ele>96.1</ele><time>2026-06-05T02:54:49Z</time></trkpt>
			<trkpt lat="54.453940" lon="20.134870"><ele>96.5</ele><time>2026-06-05T02:54:57Z</time></trkpt>
			<trkpt lat="54.454020" lon="20.134950"><ele>96.7</ele><time>2026-06-05T02:55:05Z</time></trkpt>
			<trkpt lat="54.454100" lon="20.135020"><ele>96.7</ele><time>2026-06-05T02:55:14Z</time></trkpt>
			<trkpt lat="54.454210" lon="20.135090"><ele>96.6</ele><time>2026-06-05T02:55:22Z</time></trkpt>
			<trkpt lat="54.454300" lon="20.135130"><ele>96.5</ele><time>2026-06-05T02:55:30Z</time></trkpt>
			<trkpt lat="54.454810" lon="20.135270"><ele>96.1</ele><time>2026-06-05T02:55:39Z</time></trkpt>
			<trkpt lat="54.455070" lon="20.135250"><ele>95.9</ele><time>2026-06-05T02:55:47Z</time></trkpt>
			<trkpt lat="54.455070" lon="20.135250"><ele>95.9</ele><time>2026-06-05T02:55:55Z</time></trkpt>
			<trkpt lat="54.455160" lon="20.135240"><ele>95.8</ele><time>2026-06-05T02:56:02Z</time></trkpt>
			<trkpt lat="54.455500" lon="20.135120"><ele>95.5</ele><time>2026-06-05T02:56:10Z</time></trkpt>
			<trkpt lat="54.458420" lon="20.134040"><ele>93.1</ele><time>2026-06-05T02:56:18Z</time></trkpt>
			<trkpt lat="54.458600" lon="20.133990"><ele>92.9</ele><time>2026-06-05T02:56:25Z</time></trkpt>
			<trkpt lat="54.458720" lon="20.133990"><ele>92.8</ele><time>2026-06-05T02:56:33Z</time></trkpt>
			<trkpt lat="54.458820" lon="20.134060"><ele>92.7</ele><time>2026-06-05T02:56:41Z</time></trkpt>
			<trkpt lat="54.458980" lon="20.134160"><ele>92.6</ele><time>2026-06-05T02:56:48Z</time></trkpt>
			<trkpt lat="54.459450" lon="20.134530"><ele>92.2</ele><time>2026-06-05T02:56:56Z</time></trkpt>
			<trkpt lat="54.459630" lon="20.134670"><ele>92.0</ele><time>2026-06-05T02:57:03Z</time></trkpt>
			<trkpt lat="54.459710" lon="20.134730"><ele>91.9</ele><time>2026-06-05T02:57:11Z</time></trkpt>
			<trkpt lat="54.459850" lon="20.134920"><ele>91.8</ele><time>2026-06-05T02:57:19Z</time></trkpt>
			<trkpt lat="54.460090" lon="20.135200"><ele>91.6</ele><time>2026-06-05T02:57:26Z</time></trkpt>
			<trkpt lat="54.461030" lon="20.135890"><ele>90.7</ele><time>2026-06-05T02:57:34Z</time></trkpt>
			<trkpt lat="54.462010" lon="20.136810"><ele>89.8</ele><time>2026-06-05T02:57:42Z</time></trkpt>
			<trkpt lat="54.462140" lon="20.136940"><ele>89.7</ele><time>2026-06-05T02:57:49Z</time></trkpt>
			<trkpt lat="54.462340" lon="20.137040"><ele>89.5</ele><time>2026-06-05T02:57:57Z</time></trkpt>
			<trkpt lat="54.462500" lon="20.137030"><ele>89.4</ele><time>2026-06-05T02:58:04Z</time></trkpt>
			<trkpt lat="54.462680" lon="20.136850"><ele>89.2</ele><time>2026-06-05T02:58:12Z</time></trkpt>
			<trkpt lat="54.462700" lon="20.136810"><ele>89.2</ele><time>2026-06-05T02:58:20Z</time></trkpt>
			<trkpt lat="54.462760" lon="20.136570"><ele>89.1</ele><time>2026-06-05T02:58:27Z</time></trkpt>
			<trkpt lat="54.462870" lon="20.135680"><ele>88.7</ele><time>2026-06-05T02:58:35Z</time></trkpt>
			<trkpt lat="54.462970" lon="20.135340"><ele>88.5</ele><time>2026-06-05T02:58:43Z</time></trkpt>
			<trkpt lat="54.463210" lon="20.134950"><ele>88.3</ele><time>2026-06-05T02:58:50Z</time></trkpt>
			<trkpt lat="54.463780" lon="20.133740"><ele>87.6</ele><time>2026-06-05T02:58:58Z</time></trkpt>
			<trkpt lat="54.464950" lon="20.131260"><ele>86.3</ele><time>2026-06-05T02:59:05Z</time></trkpt>
			<trkpt lat="54.465820" lon="20.129480"><ele>85.3</ele><time>2026-06-05T02:59:13Z</time></trkpt>
			<trkpt lat="54.466380" lon="20.128020"><ele>84.5</ele><time>2026-06-05T02:59:21Z</time></trkpt>
			<trkpt lat="54.466850" lon="20.126580"><ele>83.8</ele><time>2026-06-05T02:59:28Z</time></trkpt>
			<trkpt lat="54.469260" lon="20.119800"><ele>85.5</ele><time>2026-06-05T02:59:36Z</time></trkpt>
			<trkpt lat="54.470450" lon="20.117230"><ele>87.2</ele><time>2026-06-05T02:59:44Z</time></trkpt>
			<trkpt lat="54.470510" lon="20.117090"><ele>87.3</ele><time>2026-06-05T02:59:51Z</time></trkpt>
			<trkpt lat="54.472260" lon="20.113490"><ele>89.7</ele><time>2026-06-05T02:59:59Z</time></trkpt>
			<trkpt lat="54.472560" lon="20.113050"><ele>90.0</ele><time>2026-06-05T03:00:07Z</time></trkpt>
			<trkpt lat="54.477980" lon="20.107520"><ele>86.6</ele><time>2026-06-05T03:00:14Z</time></trkpt>
			<trkpt lat="54.479430" lon="20.105830"><ele>85.3</ele><time>2026-06-05T03:00:22Z</time></trkpt>
			<trkpt lat="54.479770" lon="20.105510"><ele>85.0</ele><time>2026-06-05T03:00:29Z</time></trkpt>
			<trkpt lat="54.481240" lon="20.104530"><ele>84.0</ele><time>2026-06-05T03:00:37Z</time></trkpt>
			<trkpt lat="54.481240" lon="20.104530"><ele>84.0</ele><time>2026-06-05T03:00:46Z</time></trkpt>
			<trkpt lat="54.484010" lon="20.102670"><ele>83.3</ele><time>2026-06-05T03:00:56Z</time></trkpt>
			<trkpt lat="54.484990" lon="20.102000"><ele>83.1</ele><time>2026-06-05T03:01:05Z</time></trkpt>
			<trkpt lat="54.485800" lon="20.101310"><ele>82.9</ele><time>2026-06-05T03:01:14Z</time></trkpt>
			<trkpt lat="54.492170" lon="20.095380"><ele>80.6</ele><time>2026-06-05T03:01:23Z</time></trkpt>
			<trkpt lat="54.494080" lon="20.093580"><ele>79.7</ele><time>2026-06-05T03:01:33Z</time></trkpt>
			<trkpt lat="54.494180" lon="20.093450"><ele>79.7</ele><time>2026-06-05T03:01:42Z</time></trkpt>
			<trkpt lat="54.494360" lon="20.093340"><ele>79.6</ele><time>2026-06-05T03:01:51Z</time></trkpt>
			<trkpt lat="54.494540" lon="20.093350"><ele>79.5</ele><time>2026-06-05T03:02:01Z</time></trkpt>
			<trkpt lat="54.494610" lon="20.093370"><ele>79.5</ele><time>2026-06-05T03:02:10Z</time></trkpt>
			<trkpt lat="54.494660" lon="20.093380"><ele>79.5</ele><time>2026-06-05T03:02:19Z</time></trkpt>
			<trkpt lat="54.497080" lon="20.094180"><ele>78.5</ele><time>2026-06-05T03:02:28Z</time></trkpt>
			<trkpt lat="54.497250" lon="20.094240"><ele>78.4</ele><time>2026-06-05T03:02:38Z</time></trkpt>
			<trkpt lat="54.497940" lon="20.094460"><ele>78.3</ele><time>2026-06-05T03:02:47Z</time></trkpt>
			<trkpt lat="54.498140" lon="20.094530"><ele>78.3</ele><time>2026-06-05T03:02:56Z</time></trkpt>
			<trkpt lat="54.498790" lon="20.094750"><ele>78.2</ele><time>2026-06-05T03:03:06Z</time></trkpt>
			<trkpt lat="54.500370" lon="20.095260"><ele>77.9</ele><time>2026-06-05T03:03:15Z</time></trkpt>
			<trkpt lat="54.501460" lon="20.095630"><ele>77.8</ele><time>2026-06-05T03:03:24Z</time></trkpt>
			<trkpt lat="54.501720" lon="20.095730"><ele>77.7</ele><time>2026-06-05T03:03:33Z</time></trkpt>
			<trkpt lat="54.501820" lon="20.095690"><ele>77.7</ele><time>2026-06-05T03:03:43Z</time></trkpt>
			<trkpt lat="54.502070" lon="20.095470"><ele>77.7</ele><time>2026-06-05T03:03:52Z</time></trkpt>
			<trkpt lat="54.502520" lon="20.096050"><ele>77.6</ele><time>2026-06-05T03:04:01Z</time></trkpt>
			<trkpt lat="54.502640" lon="20.096290"><ele>77.6</ele><time>2026-06-05T03:04:11Z</time></trkpt>
			<trkpt lat="54.502770" lon="20.096590"><ele>77.6</ele><time>2026-06-05T03:04:20Z</time></trkpt>
			<trkpt lat="54.502960" lon="20.096880"><ele>77.5</ele><time>2026-06-05T03:04:29Z</time></trkpt>
			<trkpt lat="54.503400" lon="20.097500"><ele>77.4</ele><time>2026-06-05T03:04:38Z</time></trkpt>
			<trkpt lat="54.503730" lon="20.097920"><ele>77.4</ele><time>2026-06-05T03:04:48Z</time></trkpt>
			<trkpt lat="54.504090" lon="20.098390"><ele>77.3</ele><time>2026-06-05T03:04:57Z</time></trkpt>
			<trkpt lat="54.504240" lon="20.098570"><ele>77.3</ele><time>2026-06-05T03:05:06Z</time></trkpt>
			<trkpt lat="54.504600" lon="20.098950"><ele>77.2</ele><time>2026-06-05T03:05:16Z</time></trkpt>
			<trkpt lat="54.504860" lon="20.099250"><ele>77.2</ele><time>2026-06-05T03:05:25Z</time></trkpt>
			<trkpt lat="54.505270" lon="20.099600"><ele>77.1</ele><time>2026-06-05T03:05:34Z</time></trkpt>
			<trkpt lat="54.507130" lon="20.101250"><ele>74.5</ele><time>2026-06-05T03:05:43Z</time></trkpt>
			<trkpt lat="54.509580" lon="20.103480"><ele>70.9</ele><time>2026-06-05T03:05:53Z</time></trkpt>
			<trkpt lat="54.509930" lon="20.103840"><ele>70.4</ele><time>2026-06-05T03:06:02Z</time></trkpt>
			<trkpt lat="54.514670" lon="20.108150"><ele>63.7</ele><time>2026-06-05T03:06:11Z</time></trkpt>
			<trkpt lat="54.519970" lon="20.113080"><ele>57.5</ele><time>2026-06-05T03:06:21Z</time></trkpt>
			<trkpt lat="54.523710" lon="20.116630"><ele>56.2</ele><time>2026-06-05T03:06:30Z</time></trkpt>
			<trkpt lat="54.524190" lon="20.117090"><ele>56.2</ele><time>2026-06-05T03:06:39Z</time></trkpt>
			<trkpt lat="54.525420" lon="20.118830"><ele>56.4</ele><time>2026-06-05T03:06:48Z</time></trkpt>
			<trkpt lat="54.527250" lon="20.121440"><ele>56.5</ele><time>2026-06-05T03:06:58Z</time></trkpt>
			<trkpt lat="54.529220" lon="20.124220"><ele>55.3</ele><time>2026-06-05T03:07:07Z</time></trkpt>
			<trkpt lat="54.533290" lon="20.130200"><ele>46.9</ele><time>2026-06-05T03:07:16Z</time></trkpt>
			<trkpt lat="54.533790" lon="20.130870"><ele>45.9</ele><time>2026-06-05T03:07:26Z</time></trkpt>
			<trkpt lat="54.535140" lon="20.132430"><ele>43.4</ele><time>2026-06-05T03:07:35Z</time></trkpt>
			<trkpt lat="54.535610" lon="20.133060"><ele>42.4</ele><time>2026-06-05T03:07:44Z</time></trkpt>
			<trkpt lat="54.536390" lon="20.133930"><ele>40.7</ele><time>2026-06-05T03:07:53Z</time></trkpt>
			<trkpt lat="54.537500" lon="20.135300"><ele>38.3</ele><time>2026-06-05T03:08:03Z</time></trkpt>
			<trkpt lat="54.538500" lon="20.136430"><ele>36.1</ele><time>2026-06-05T03:08:12Z</time></trkpt>
			<trkpt lat="54.540660" lon="20.139010"><ele>31.3</ele><time>2026-06-05T03:08:21Z</time></trkpt>
			<trkpt lat="54.544960" lon="20.144010"><ele>23.4</ele><time>2026-06-05T03:08:31Z</time></trkpt>
			<trkpt lat="54.548270" lon="20.147960"><ele>18.5</ele><time>2026-06-05T03:08:40Z</time></trkpt>
			<trkpt lat="54.548730" lon="20.148510"><ele>17.9</ele><time>2026-06-05T03:08:49Z</time></trkpt>
			<trkpt lat="54.549620" lon="20.149580"><ele>16.5</ele><time>2026-06-05T03:08:58Z</time></trkpt>
			<trkpt lat="54.550620" lon="20.150740"><ele>15.4</ele><time>2026-06-05T03:09:08Z</time></trkpt>
			<trkpt lat="54.551830" lon="20.152150"><ele>15.6</ele><time>2026-06-05T03:09:17Z</time></trkpt>
			<trkpt lat="54.552840" lon="20.153330"><ele>15.8</ele><time>2026-06-05T03:09:26Z</time></trkpt>
			<trkpt lat="54.554280" lon="20.155020"><ele>16.0</ele><time>2026-06-05T03:09:36Z</time></trkpt>
			<trkpt lat="54.555060" lon="20.155970"><ele>16.2</ele><time>2026-06-05T03:09:45Z</time></trkpt>
			<trkpt lat="54.556310" lon="20.157410"><ele>16.4</ele><time>2026-06-05T03:09:54Z</time></trkpt>
			<trkpt lat="54.557240" lon="20.158570"><ele>16.5</ele><time>2026-06-05T03:10:03Z</time></trkpt>
			<trkpt lat="54.557790" lon="20.159220"><ele>16.6</ele><time>2026-06-05T03:10:13Z</time></trkpt>
			<trkpt lat="54.558920" lon="20.160540"><ele>17.3</ele><time>2026-06-05T03:10:22Z</time></trkpt>
			<trkpt lat="54.558960" lon="20.160590"><ele>17.3</ele><time>2026-06-05T03:10:31Z</time></trkpt>
			<trkpt lat="54.560820" lon="20.162820"><ele>18.5</ele><time>2026-06-05T03:10:40Z</time></trkpt>
			<trkpt lat="54.564020" lon="20.166550"><ele>20.5</ele><time>2026-06-05T03:10:50Z</time></trkpt>
			<trkpt lat="54.564350" lon="20.166930"><ele>20.7</ele><time>2026-06-05T03:10:59Z</time></trkpt>
			<trkpt lat="54.564830" lon="20.167490"><ele>21.0</ele><time>2026-06-05T03:11:08Z</time></trkpt>
			<trkpt lat="54.565180" lon="20.167930"><ele>21.3</ele><time>2026-06-05T03:11:18Z</time></trkpt>
			<trkpt lat="54.565700" lon="20.168570"><ele>21.0</ele><time>2026-06-05T03:11:27Z</time></trkpt>
			<trkpt lat="54.567520" lon="20.170730"><ele>19.8</ele><time>2026-06-05T03:11:36Z</time></trkpt>
			<trkpt lat="54.567750" lon="20.170980"><ele>19.7</ele><time>2026-06-05T03:11:45Z</time></trkpt>
			<trkpt lat="54.568400" lon="20.171750"><ele>19.3</ele><time>2026-06-05T03:11:55Z</time></trkpt>
			<trkpt lat="54.569380" lon="20.172950"><ele>18.6</ele><time>2026-06-05T03:12:04Z</time></trkpt>
			<trkpt lat="54.569520" lon="20.173100"><ele>18.5</ele><time>2026-06-05T03:12:13Z</time></trkpt>
			<trkpt lat="54.569910" lon="20.173560"><ele>18.3</ele><time>2026-06-05T03:12:23Z</time></trkpt>
			<trkpt lat="54.570080" lon="20.173750"><ele>18.2</ele><time>2026-06-05T03:12:32Z</time></trkpt>
			<trkpt lat="54.570290" lon="20.174020"><ele>18.0</ele><time>2026-06-05T03:12:41Z</time></trkpt>
			<trkpt lat="54.570410" lon="20.174260"><ele>17.9</ele><time>2026-06-05T03:12:50Z</time></trkpt>
			<trkpt lat="54.570660" lon="20.175130"><ele>17.6</ele><time>2026-06-05T03:13:00Z</time></trkpt>
			<trkpt lat="54.570840" lon="20.175440"><ele>17.5</ele><time>2026-06-05T03:13:09Z</time></trkpt>
			<trkpt lat="54.571000" lon="20.175640"><ele>17.4</ele><time>2026-06-05T03:13:18Z</time></trkpt>
			<trkpt lat="54.571340" lon="20.175930"><ele>17.2</ele><time>2026-06-05T03:13:28Z</time></trkpt>
			<trkpt lat="54.572590" lon="20.176240"><ele>16.5</ele><time>2026-06-05T03:13:37Z</time></trkpt>
			<trkpt lat="54.572630" lon="20.176250"><ele>16.5</ele><time>2026-06-05T03:13:46Z</time></trkpt>
			<trkpt lat="54.573280" lon="20.176410"><ele>17.2</ele><time>2026-06-05T03:13:55Z</time></trkpt>
			<trkpt lat="54.573510" lon="20.176460"><ele>17.5</ele><time>2026-06-05T03:14:05Z</time></trkpt>
			<trkpt lat="54.573780" lon="20.176530"><ele>17.8</ele><time>2026-06-05T03:14:14Z</time></trkpt>
			<trkpt lat="54.573870" lon="20.176560"><ele>17.9</ele><time>2026-06-05T03:14:23Z</time></trkpt>
			<trkpt lat="54.573950" lon="20.176610"><ele>18.0</ele><time>2026-06-05T03:14:33Z</time></trkpt>
			<trkpt lat="54.574490" lon="20.177240"><ele>18.7</ele><time>2026-06-05T03:14:42Z</time></trkpt>
			<trkpt lat="54.575250" lon="20.178150"><ele>19.7</ele><time>2026-06-05T03:14:51Z</time></trkpt>
			<trkpt lat="54.575410" lon="20.178370"><ele>20.0</ele><time>2026-06-05T03:15:00Z</time></trkpt>
			<trkpt lat="54.575550" lon="20.178530"><ele>20.2</ele><time>2026-06-05T03:15:10Z</time></trkpt>
			<trkpt lat="54.576570" lon="20.179730"><ele>21.5</ele><time>2026-06-05T03:15:19Z</time></trkpt>
			<trkpt lat="54.576760" lon="20.179980"><ele>21.8</ele><time>2026-06-05T03:15:28Z</time></trkpt>
			<trkpt lat="54.577170" lon="20.180470"><ele>22.3</ele><time>2026-06-05T03:15:38Z</time></trkpt>
			<trkpt lat="54.578320" lon="20.181910"><ele>23.9</ele><time>2026-06-05T03:15:47Z</time></trkpt>
			<trkpt lat="54.580790" lon="20.184880"><ele>28.3</ele><time>2026-06-05T03:15:56Z</time></trkpt>
			<trkpt lat="54.583570" lon="20.188260"><ele>37.0</ele><time>2026-06-05T03:16:05Z</time></trkpt>
			<trkpt lat="54.584270" lon="20.189110"><ele>39.2</ele><time>2026-06-05T03:16:15Z</time></trkpt>
			<trkpt lat="54.586280" lon="20.191480"><ele>45.5</ele><time>2026-06-05T03:16:24Z</time></trkpt>
			<trkpt lat="54.589090" lon="20.194820"><ele>49.0</ele><time>2026-06-05T03:16:33Z</time></trkpt>
			<trkpt lat="54.591860" lon="20.198240"><ele>47.7</ele><time>2026-06-05T03:16:43Z</time></trkpt>
			<trkpt lat="54.592330" lon="20.198770"><ele>47.5</ele><time>2026-06-05T03:16:52Z</time></trkpt>
			<trkpt lat="54.594640" lon="20.201600"><ele>46.4</ele><time>2026-06-05T03:17:01Z</time></trkpt>
			<trkpt lat="54.597410" lon="20.205020"><ele>42.9</ele><time>2026-06-05T03:17:10Z</time></trkpt>
			<trkpt lat="54.598500" lon="20.206370"><ele>41.4</ele><time>2026-06-05T03:17:20Z</time></trkpt>
			<trkpt lat="54.599330" lon="20.207410"><ele>40.3</ele><time>2026-06-05T03:17:29Z</time></trkpt>
			<trkpt lat="54.599470" lon="20.207610"><ele>40.1</ele><time>2026-06-05T03:17:38Z</time></trkpt>
			<trkpt lat="54.599670" lon="20.207910"><ele>39.8</ele><time>2026-06-05T03:17:48Z</time></trkpt>
			<trkpt lat="54.600140" lon="20.208810"><ele>39.1</ele><time>2026-06-05T03:17:57Z</time></trkpt>
			<trkpt lat="54.600460" lon="20.209700"><ele>38.4</ele><time>2026-06-05T03:18:06Z</time></trkpt>
			<trkpt lat="54.600490" lon="20.209820"><ele>38.3</ele><time>2026-06-05T03:18:15Z</time></trkpt>
			<trkpt lat="54.600870" lon="20.211040"><ele>37.4</ele><time>2026-06-05T03:18:25Z</time></trkpt>
			<trkpt lat="54.603020" lon="20.217890"><ele>29.7</ele><time>2026-06-05T03:18:34Z</time></trkpt>
			<trkpt lat="54.603700" lon="20.220160"><ele>27.0</ele><time>2026-06-05T03:18:43Z</time></trkpt>
			<trkpt lat="54.604190" lon="20.221750"><ele>25.0</ele><time>2026-06-05T03:18:53Z</time></trkpt>
			<trkpt lat="54.605470" lon="20.225860"><ele>19.9</ele><time>2026-06-05T03:19:02Z</time></trkpt>
			<trkpt lat="54.606270" lon="20.228480"><ele>17.8</ele><time>2026-06-05T03:19:11Z</time></trkpt>
			<trkpt lat="54.606910" lon="20.230220"><ele>16.4</ele><time>2026-06-05T03:19:20Z</time></trkpt>
			<trkpt lat="54.607370" lon="20.231490"><ele>15.3</ele><time>2026-06-05T03:19:30Z</time></trkpt>
			<trkpt lat="54.608030" lon="20.233270"><ele>13.9</ele><time>2026-06-05T03:19:39Z</time></trkpt>
			<trkpt lat="54.608980" lon="20.235790"><ele>11.9</ele><time>2026-06-05T03:19:48Z</time></trkpt>
			<trkpt lat="54.609310" lon="20.236620"><ele>11.2</ele><time>2026-06-05T03:19:58Z</time></trkpt>
			<trkpt lat="54.609550" lon="20.237250"><ele>10.7</ele><time>2026-06-05T03:20:07Z</time></trkpt>
			<trkpt lat="54.609970" lon="20.238340"><ele>9.8</ele><time>2026-06-05T03:20:16Z</time></trkpt>
			<trkpt lat="54.610690" lon="20.240300"><ele>8.9</ele><time>2026-06-05T03:20:25Z</time></trkpt>
			<trkpt lat="54.610920" lon="20.241140"><ele>8.9</ele><time>2026-06-05T03:20:35Z</time></trkpt>
			<trkpt lat="54.611730" lon="20.244390"><ele>8.8</ele><time>2026-06-05T03:20:44Z</time></trkpt>
			<trkpt lat="54.612180" lon="20.246050"><ele>8.7</ele><time>2026-06-05T03:20:53Z</time></trkpt>
			<trkpt lat="54.612400" lon="20.246900"><ele>8.7</ele><time>2026-06-05T03:21:03Z</time></trkpt>
			<trkpt lat="54.612460" lon="20.247150"><ele>8.7</ele><time>2026-06-05T03:21:12Z</time></trkpt>
			<trkpt lat="54.612480" lon="20.247220"><ele>8.7</ele><time>2026-06-05T03:21:21Z</time></trkpt>
			<trkpt lat="54.612500" lon="20.247340"><ele>8.7</ele><time>2026-06-05T03:21:30Z</time></trkpt>
			<trkpt lat="54.612750" lon="20.248340"><ele>8.6</ele><time>2026-06-05T03:21:40Z</time></trkpt>
			<trkpt lat="54.612940" lon="20.249040"><ele>8.6</ele><time>2026-06-05T03:21:49Z</time></trkpt>
			<trkpt lat="54.613410" lon="20.250330"><ele>8.6</ele><time>2026-06-05T03:21:58Z</time></trkpt>
			<trkpt lat="54.613490" lon="20.250590"><ele>8.6</ele><time>2026-06-05T03:22:08Z</time></trkpt>
			<trkpt lat="54.613560" lon="20.250950"><ele>8.6</ele><time>2026-06-05T03:22:17Z</time></trkpt>
			<trkpt lat="54.613750" lon="20.251930"><ele>8.5</ele><time>2026-06-05T03:22:26Z</time></trkpt>
			<trkpt lat="54.613870" lon="20.252560"><ele>8.5</ele><time>2026-06-05T03:22:35Z</time></trkpt>
			<trkpt lat="54.613960" lon="20.253200"><ele>8.5</ele><time>2026-06-05T03:22:45Z</time></trkpt>
			<trkpt lat="54.614470" lon="20.254950"><ele>10.0</ele><time>2026-06-05T03:22:54Z</time></trkpt>
			<trkpt lat="54.615000" lon="20.256610"><ele>11.7</ele><time>2026-06-05T03:23:03Z</time></trkpt>
			<trkpt lat="54.615050" lon="20.256750"><ele>11.8</ele><time>2026-06-05T03:23:12Z</time></trkpt>
			<trkpt lat="54.615880" lon="20.259370"><ele>14.5</ele><time>2026-06-05T03:23:22Z</time></trkpt>
			<trkpt lat="54.617190" lon="20.263550"><ele>18.9</ele><time>2026-06-05T03:23:31Z</time></trkpt>
			<trkpt lat="54.618700" lon="20.268340"><ele>22.0</ele><time>2026-06-05T03:23:40Z</time></trkpt>
			<trkpt lat="54.620390" lon="20.273610"><ele>19.5</ele><time>2026-06-05T03:23:50Z</time></trkpt>
			<trkpt lat="54.621150" lon="20.276070"><ele>18.3</ele><time>2026-06-05T03:23:59Z</time></trkpt>
			<trkpt lat="54.621880" lon="20.278460"><ele>17.1</ele><time>2026-06-05T03:24:08Z</time></trkpt>
			<trkpt lat="54.622360" lon="20.279890"><ele>16.4</ele><time>2026-06-05T03:24:17Z</time></trkpt>
			<trkpt lat="54.624250" lon="20.285980"><ele>15.9</ele><time>2026-06-05T03:24:27Z</time></trkpt>
			<trkpt lat="54.625290" lon="20.289300"><ele>15.8</ele><time>2026-06-05T03:24:36Z</time></trkpt>
			<trkpt lat="54.626580" lon="20.293390"><ele>15.7</ele><time>2026-06-05T03:24:45Z</time></trkpt>
			<trkpt lat="54.627480" lon="20.296260"><ele>14.3</ele><time>2026-06-05T03:24:55Z</time></trkpt>
			<trkpt lat="54.628630" lon="20.299950"><ele>11.6</ele><time>2026-06-05T03:25:04Z</time></trkpt>
			<trkpt lat="54.630610" lon="20.306280"><ele>6.8</ele><time>2026-06-05T03:25:13Z</time></trkpt>
			<trkpt lat="54.631930" lon="20.310500"><ele>4.3</ele><time>2026-06-05T03:25:22Z</time></trkpt>
			<trkpt lat="54.632110" lon="20.311070"><ele>4.0</ele><time>2026-06-05T03:25:32Z</time></trkpt>
			<trkpt lat="54.632110" lon="20.311080"><ele>4.0</ele><time>2026-06-05T03:25:41Z</time></trkpt>
			<trkpt lat="54.633210" lon="20.314580"><ele>2.3</ele><time>2026-06-05T03:25:50Z</time></trkpt>
			<trkpt lat="54.635410" lon="20.321500"><ele>-0.9</ele><time>2026-06-05T03:26:00Z</time></trkpt>
			<trkpt lat="54.635440" lon="20.321610"><ele>-1.0</ele><time>2026-06-05T03:26:09Z</time></trkpt>
			<trkpt lat="54.636970" lon="20.326450"><ele>1.1</ele><time>2026-06-05T03:26:18Z</time></trkpt>
			<trkpt lat="54.637200" lon="20.327180"><ele>1.4</ele><time>2026-06-05T03:26:27Z</time></trkpt>
			<trkpt lat="54.639240" lon="20.333710"><ele>4.4</ele><time>2026-06-05T03:26:37Z</time></trkpt>
			<trkpt lat="54.640410" lon="20.337430"><ele>5.0</ele><time>2026-06-05T03:26:46Z</time></trkpt>
			<trkpt lat="54.641400" lon="20.340720"><ele>4.5</ele><time>2026-06-05T03:26:55Z</time></trkpt>
			<trkpt lat="54.641540" lon="20.341160"><ele>4.5</ele><time>2026-06-05T03:27:05Z</time></trkpt>
			<trkpt lat="54.642730" lon="20.344890"><ele>4.0</ele><time>2026-06-05T03:27:14Z</time></trkpt>
			<trkpt lat="54.644130" lon="20.349320"><ele>3.5</ele><time>2026-06-05T03:27:23Z</time></trkpt>
			<trkpt lat="54.644620" lon="20.350870"><ele>3.8</ele><time>2026-06-05T03:27:32Z</time></trkpt>
			<trkpt lat="54.645180" lon="20.352650"><ele>4.1</ele><time>2026-06-05T03:27:42Z</time></trkpt>
			<trkpt lat="54.645660" lon="20.354230"><ele>4.4</ele><time>2026-06-05T03:27:51Z</time></trkpt>
			<trkpt lat="54.645800" lon="20.354660"><ele>4.5</ele><time>2026-06-05T03:28:00Z</time></trkpt>
			<trkpt lat="54.645470" lon="20.354810"><ele>4.6</ele><time>2026-06-05T03:28:10Z</time></trkpt>
			<trkpt lat="54.645290" lon="20.354860"><ele>4.7</ele><time>2026-06-05T03:28:19Z</time></trkpt>
			<trkpt lat="54.645290" lon="20.354860"><ele>4.7</ele><time>2026-06-05T03:28:25Z</time></trkpt>
			<trkpt lat="54.643790" lon="20.355280"><ele>5.1</ele><time>2026-06-05T03:28:31Z</time></trkpt>
			<trkpt lat="54.642530" lon="20.355740"><ele>5.5</ele><time>2026-06-05T03:28:37Z</time></trkpt>
			<trkpt lat="54.642080" lon="20.355910"><ele>5.7</ele><time>2026-06-05T03:28:44Z</time></trkpt>
			<trkpt lat="54.640690" lon="20.356360"><ele>6.1</ele><time>2026-06-05T03:28:50Z</time></trkpt>
			<trkpt lat="54.640340" lon="20.356440"><ele>6.2</ele><time>2026-06-05T03:28:56Z</time></trkpt>
			<trkpt lat="54.639320" lon="20.356540"><ele>6.2</ele><time>2026-06-05T03:29:02Z</time></trkpt>
			<trkpt lat="54.639250" lon="20.356550"><ele>6.2</ele><time>2026-06-05T03:29:08Z</time></trkpt>
			<trkpt lat="54.639120" lon="20.356500"><ele>6.2</ele><time>2026-06-05T03:29:14Z</time></trkpt>
			<trkpt lat="54.639020" lon="20.356460"><ele>6.2</ele><time>2026-06-05T03:29:21Z</time></trkpt>
			<trkpt lat="54.638990" lon="20.356430"><ele>6.2</ele><time>2026-06-05T03:29:27Z</time></trkpt>
			<trkpt lat="54.637480" lon="20.354900"><ele>6.2</ele><time>2026-06-05T03:29:33Z</time></trkpt>
			<trkpt lat="54.637010" lon="20.354410"><ele>6.2</ele><time>2026-06-05T03:29:39Z</time></trkpt>
			<trkpt lat="54.636790" lon="20.354340"><ele>6.2</ele><time>2026-06-05T03:29:45Z</time></trkpt>
			<trkpt lat="54.636590" lon="20.354480"><ele>6.2</ele><time>2026-06-05T03:29:52Z</time></trkpt>
			<trkpt lat="54.636300" lon="20.354690"><ele>6.2</ele><time>2026-06-05T03:29:58Z</time></trkpt>
			<trkpt lat="54.635890" lon="20.355070"><ele>6.2</ele><time>2026-06-05T03:30:04Z</time></trkpt>
			<trkpt lat="54.635530" lon="20.355420"><ele>6.2</ele><time>2026-06-05T03:30:10Z</time></trkpt>
			<trkpt lat="54.635400" lon="20.355540"><ele>6.2</ele><time>2026-06-05T03:30:16Z</time></trkpt>
			<trkpt lat="54.635010" lon="20.355900"><ele>6.2</ele><time>2026-06-05T03:30:22Z</time></trkpt>
			<trkpt lat="54.631910" lon="20.358710"><ele>6.4</ele><time>2026-06-05T03:30:29Z</time></trkpt>
			<trkpt lat="54.631250" lon="20.359270"><ele>6.6</ele><time>2026-06-05T03:30:35Z</time></trkpt>
			<trkpt lat="54.631010" lon="20.359640"><ele>6.7</ele><time>2026-06-05T03:30:41Z</time></trkpt>
			<trkpt lat="54.630600" lon="20.361130"><ele>6.9</ele><time>2026-06-05T03:30:47Z</time></trkpt>
			<trkpt lat="54.630140" lon="20.363350"><ele>7.3</ele><time>2026-06-05T03:30:53Z</time></trkpt>
			<trkpt lat="54.630060" lon="20.363490"><ele>7.3</ele><time>2026-06-05T03:31:00Z</time></trkpt>
			<trkpt lat="54.629950" lon="20.363700"><ele>7.3</ele><time>2026-06-05T03:31:06Z</time></trkpt>
			<trkpt lat="54.629280" lon="20.364410"><ele>7.5</ele><time>2026-06-05T03:31:12Z</time></trkpt>
			<trkpt lat="54.628360" lon="20.365390"><ele>7.8</ele><time>2026-06-05T03:31:18Z</time></trkpt>
			<trkpt lat="54.626710" lon="20.367000"><ele>8.3</ele><time>2026-06-05T03:31:24Z</time></trkpt>
			<trkpt lat="54.624000" lon="20.369660"><ele>9.3</ele><time>2026-06-05T03:31:30Z</time></trkpt>
			<trkpt lat="54.622600" lon="20.371030"><ele>9.9</ele><time>2026-06-05T03:31:37Z</time></trkpt>
			<trkpt lat="54.621290" lon="20.372350"><ele>10.5</ele><time>2026-06-05T03:31:43Z</time></trkpt>
			<trkpt lat="54.619820" lon="20.373840"><ele>11.1</ele><time>2026-06-05T03:31:49Z</time></trkpt>
			<trkpt lat="54.618730" lon="20.374920"><ele>11.6</ele><time>2026-06-05T03:31:55Z</time></trkpt>
			<trkpt lat="54.617990" lon="20.375670"><ele>11.9</ele><time>2026-06-05T03:32:01Z</time></trkpt>
			<trkpt lat="54.617480" lon="20.376200"><ele>11.8</ele><time>2026-06-05T03:32:08Z</time></trkpt>
			<trkpt lat="54.617270" lon="20.376520"><ele>11.7</ele><time>2026-06-05T03:32:14Z</time></trkpt>
			<trkpt lat="54.617030" lon="20.376950"><ele>11.6</ele><time>2026-06-05T03:32:20Z</time></trkpt>
			<trkpt lat="54.616510" lon="20.377960"><ele>11.5</ele><time>2026-06-05T03:32:26Z</time></trkpt>
			<trkpt lat="54.615430" lon="20.380350"><ele>11.2</ele><time>2026-06-05T03:32:32Z</time></trkpt>
			<trkpt lat="54.615100" lon="20.381330"><ele>11.1</ele><time>2026-06-05T03:32:38Z</time></trkpt>
			<trkpt lat="54.614950" lon="20.382170"><ele>11.0</ele><time>2026-06-05T03:32:45Z</time></trkpt>
			<trkpt lat="54.614810" lon="20.383310"><ele>10.9</ele><time>2026-06-05T03:32:51Z</time></trkpt>
			<trkpt lat="54.614610" lon="20.385170"><ele>10.7</ele><time>2026-06-05T03:32:57Z</time></trkpt>
			<trkpt lat="54.614340" lon="20.387580"><ele>10.4</ele><time>2026-06-05T03:33:03Z</time></trkpt>
			<trkpt lat="54.614320" lon="20.387830"><ele>10.4</ele><time>2026-06-05T03:33:09Z</time></trkpt>
			<trkpt lat="54.614180" lon="20.389190"><ele>10.2</ele><time>2026-06-05T03:33:15Z</time></trkpt>
			<trkpt lat="54.613620" lon="20.394480"><ele>6.9</ele><time>2026-06-05T03:33:22Z</time></trkpt>
			<trkpt lat="54.613580" lon="20.395850"><ele>6.1</ele><time>2026-06-05T03:33:28Z</time></trkpt>
			<trkpt lat="54.613600" lon="20.396220"><ele>5.8</ele><time>2026-06-05T03:33:34Z</time></trkpt>
			<trkpt lat="54.613650" lon="20.396420"><ele>5.7</ele><time>2026-06-05T03:33:40Z</time></trkpt>
			<trkpt lat="54.613810" lon="20.396760"><ele>5.4</ele><time>2026-06-05T03:33:46Z</time></trkpt>
			<trkpt lat="54.613840" lon="20.396850"><ele>5.4</ele><time>2026-06-05T03:33:53Z</time></trkpt>
			<trkpt lat="54.613880" lon="20.397000"><ele>5.3</ele><time>2026-06-05T03:33:59Z</time></trkpt>
			<trkpt lat="54.614030" lon="20.397800"><ele>4.7</ele><time>2026-06-05T03:34:05Z</time></trkpt>
			<trkpt lat="54.614130" lon="20.398380"><ele>4.4</ele><time>2026-06-05T03:34:11Z</time></trkpt>
			<trkpt lat="54.614640" lon="20.401560"><ele>2.4</ele><time>2026-06-05T03:34:17Z</time></trkpt>
			<trkpt lat="54.615210" lon="20.405200"><ele>0.8</ele><time>2026-06-05T03:34:23Z</time></trkpt>
			<trkpt lat="54.615580" lon="20.407690"><ele>0.8</ele><time>2026-06-05T03:34:30Z</time></trkpt>
			<trkpt lat="54.615420" lon="20.407670"><ele>0.8</ele><time>2026-06-05T03:34:36Z</time></trkpt>
			<trkpt lat="54.615090" lon="20.407710"><ele>0.8</ele><time>2026-06-05T03:34:42Z</time></trkpt>
			<trkpt lat="54.614890" lon="20.407870"><ele>0.8</ele><time>2026-06-05T03:34:48Z</time></trkpt>
			<trkpt lat="54.614730" lon="20.408010"><ele>0.8</ele><time>2026-06-05T03:34:54Z</time></trkpt>
			<trkpt lat="54.614510" lon="20.408240"><ele>0.8</ele><time>2026-06-05T03:35:01Z</time></trkpt>
			<trkpt lat="54.614380" lon="20.408420"><ele>0.8</ele><time>2026-06-05T03:35:07Z</time></trkpt>
			<trkpt lat="54.614130" lon="20.409120"><ele>0.8</ele><time>2026-06-05T03:35:13Z</time></trkpt>
			<trkpt lat="54.613880" lon="20.409810"><ele>0.8</ele><time>2026-06-05T03:35:19Z</time></trkpt>
			<trkpt lat="54.613180" lon="20.411910"><ele>0.8</ele><time>2026-06-05T03:35:25Z</time></trkpt>
			<trkpt lat="54.612240" lon="20.414730"><ele>0.8</ele><time>2026-06-05T03:35:31Z</time></trkpt>
			<trkpt lat="54.611450" lon="20.417100"><ele>1.1</ele><time>2026-06-05T03:35:38Z</time></trkpt>
			<trkpt lat="54.611410" lon="20.417220"><ele>1.1</ele><time>2026-06-05T03:35:44Z</time></trkpt>
			<trkpt lat="54.610260" lon="20.420700"><ele>3.2</ele><time>2026-06-05T03:35:50Z</time></trkpt>
			<trkpt lat="54.610140" lon="20.421010"><ele>3.4</ele><time>2026-06-05T03:35:56Z</time></trkpt>
			<trkpt lat="54.610010" lon="20.421220"><ele>3.6</ele><time>2026-06-05T03:36:02Z</time></trkpt>
			<trkpt lat="54.608050" lon="20.424280"><ele>6.0</ele><time>2026-06-05T03:36:09Z</time></trkpt>
			<trkpt lat="54.607910" lon="20.424540"><ele>6.2</ele><time>2026-06-05T03:36:15Z</time></trkpt>
			<trkpt lat="54.607720" lon="20.425020"><ele>6.5</ele><time>2026-06-05T03:36:21Z</time></trkpt>
			<trkpt lat="54.607510" lon="20.425590"><ele>6.9</ele><time>2026-06-05T03:36:27Z</time></trkpt>
			<trkpt lat="54.607400" lon="20.425850"><ele>7.0</ele><time>2026-06-05T03:36:33Z</time></trkpt>
			<trkpt lat="54.607250" lon="20.426170"><ele>7.2</ele><time>2026-06-05T03:36:39Z</time></trkpt>
			<trkpt lat="54.605930" lon="20.428750"><ele>8.9</ele><time>2026-06-05T03:36:46Z</time></trkpt>
			<trkpt lat="54.605270" lon="20.430060"><ele>8.8</ele><time>2026-06-05T03:36:52Z</time></trkpt>
			<trkpt lat="54.604620" lon="20.431290"><ele>8.7</ele><time>2026-06-05T03:36:58Z</time></trkpt>
			<trkpt lat="54.603660" lon="20.432010"><ele>8.6</ele><time>2026-06-05T03:37:04Z</time></trkpt>
			<trkpt lat="54.603440" lon="20.432190"><ele>8.6</ele><time>2026-06-05T03:37:10Z</time></trkpt>
			<trkpt lat="54.603270" lon="20.432380"><ele>8.5</ele><time>2026-06-05T03:37:16Z</time></trkpt>
			<trkpt lat="54.603190" lon="20.432500"><ele>8.5</ele><time>2026-06-05T03:37:23Z</time></trkpt>
			<trkpt lat="54.602890" lon="20.432840"><ele>8.5</ele><time>2026-06-05T03:37:29Z</time></trkpt>
			<trkpt lat="54.602450" lon="20.433130"><ele>8.4</ele><time>2026-06-05T03:37:35Z</time></trkpt>
			<trkpt lat="54.602400" lon="20.433160"><ele>8.4</ele><time>2026-06-05T03:37:41Z</time></trkpt>
			<trkpt lat="54.602160" lon="20.433310"><ele>8.4</ele><time>2026-06-05T03:37:47Z</time></trkpt>
			<trkpt lat="54.600850" lon="20.434180"><ele>8.2</ele><time>2026-06-05T03:37:54Z</time></trkpt>
			<trkpt lat="54.600060" lon="20.434660"><ele>8.1</ele><time>2026-06-05T03:38:00Z</time></trkpt>
			<trkpt lat="54.599920" lon="20.434740"><ele>8.1</ele><time>2026-06-05T03:38:06Z</time></trkpt>
			<trkpt lat="54.599350" lon="20.435050"><ele>8.1</ele><time>2026-06-05T03:38:12Z</time></trkpt>
			<trkpt lat="54.599080" lon="20.435200"><ele>8.0</ele><time>2026-06-05T03:38:18Z</time></trkpt>
			<trkpt lat="54.598400" lon="20.435580"><ele>7.9</ele><time>2026-06-05T03:38:24Z</time></trkpt>
			<trkpt lat="54.597090" lon="20.436220"><ele>8.1</ele><time>2026-06-05T03:38:31Z</time></trkpt>
			<trkpt lat="54.595120" lon="20.437310"><ele>8.5</ele><time>2026-06-05T03:38:37Z</time></trkpt>
			<trkpt lat="54.594880" lon="20.437460"><ele>8.6</ele><time>2026-06-05T03:38:43Z</time></trkpt>
			<trkpt lat="54.594690" lon="20.437620"><ele>8.6</ele><time>2026-06-05T03:38:49Z</time></trkpt>
			<trkpt lat="54.593830" lon="20.438490"><ele>8.8</ele><time>2026-06-05T03:38:55Z</time></trkpt>
			<trkpt lat="54.593740" lon="20.438580"><ele>8.8</ele><time>2026-06-05T03:39:02Z</time></trkpt>
			<trkpt lat="54.593440" lon="20.438890"><ele>8.9</ele><time>2026-06-05T03:39:08Z</time></trkpt>
			<trkpt lat="54.593950" lon="20.439650"><ele>9.0</ele><time>2026-06-05T03:39:14Z</time></trkpt>
			<trkpt lat="54.596060" lon="20.442820"><ele>9.5</ele><time>2026-06-05T03:39:20Z</time></trkpt>
			<trkpt lat="54.597490" lon="20.445020"><ele>9.0</ele><time>2026-06-05T03:39:26Z</time></trkpt>
			<trkpt lat="54.601210" lon="20.450550"><ele>7.0</ele><time>2026-06-05T03:39:32Z</time></trkpt>
			<trkpt lat="54.605260" lon="20.456640"><ele>7.5</ele><time>2026-06-05T03:39:39Z</time></trkpt>
			<trkpt lat="54.607880" lon="20.460530"><ele>9.4</ele><time>2026-06-05T03:39:45Z</time></trkpt>
			<trkpt lat="54.607880" lon="20.460530"><ele>9.4</ele><time>2026-06-05T03:39:59Z</time></trkpt>
			<trkpt lat="54.613220" lon="20.468430"><ele>14.3</ele><time>2026-06-05T03:40:13Z</time></trkpt>
			<trkpt lat="54.618450" lon="20.476450"><ele>18.7</ele><time>2026-06-05T03:40:26Z</time></trkpt>
			<trkpt lat="54.620710" lon="20.479990"><ele>19.7</ele><time>2026-06-05T03:40:40Z</time></trkpt>
			<trkpt lat="54.623830" lon="20.484870"><ele>20.9</ele><time>2026-06-05T03:40:54Z</time></trkpt>
			<trkpt lat="54.624720" lon="20.486250"><ele>20.8</ele><time>2026-06-05T03:41:08Z</time></trkpt>
			<trkpt lat="54.624960" lon="20.486620"><ele>20.8</ele><time>2026-06-05T03:41:22Z</time></trkpt>
			<trkpt lat="54.625100" lon="20.486820"><ele>20.8</ele><time>2026-06-05T03:41:36Z</time></trkpt>
			<trkpt lat="54.625650" lon="20.487700"><ele>20.8</ele><time>2026-06-05T03:41:50Z</time></trkpt>
			<trkpt lat="54.627210" lon="20.490150"><ele>20.7</ele><time>2026-06-05T03:42:04Z</time></trkpt>
			<trkpt lat="54.629310" lon="20.493410"><ele>20.5</ele><time>2026-06-05T03:42:18Z</time></trkpt>
			<trkpt lat="54.631410" lon="20.496630"><ele>20.0</ele><time>2026-06-05T03:42:32Z</time></trkpt>
			<trkpt lat="54.632570" lon="20.498480"><ele>19.6</ele><time>2026-06-05T03:42:45Z</time></trkpt>
			<trkpt lat="54.633990" lon="20.500670"><ele>19.0</ele><time>2026-06-05T03:42:59Z</time></trkpt>
			<trkpt lat="54.633990" lon="20.500670"><ele>19.0</ele><time>2026-06-05T03:43:04Z</time></trkpt>
			<trkpt lat="54.634590" lon="20.501600"><ele>18.8</ele><time>2026-06-05T03:43:08Z</time></trkpt>
			<trkpt lat="54.635350" lon="20.502920"><ele>18.5</ele><time>2026-06-05T03:43:13Z</time></trkpt>
			<trkpt lat="54.639280" lon="20.508930"><ele>17.3</ele><time>2026-06-05T03:43:17Z</time></trkpt>
			<trkpt lat="54.640360" lon="20.510870"><ele>16.9</ele><time>2026-06-05T03:43:22Z</time></trkpt>
			<trkpt lat="54.641210" lon="20.512770"><ele>16.6</ele><time>2026-06-05T03:43:26Z</time></trkpt>
			<trkpt lat="54.641520" lon="20.513460"><ele>16.5</ele><time>2026-06-05T03:43:31Z</time></trkpt>
			<trkpt lat="54.641880" lon="20.514350"><ele>16.3</ele><time>2026-06-05T03:43:35Z</time></trkpt>
			<trkpt lat="54.642040" lon="20.514790"><ele>16.3</ele><time>2026-06-05T03:43:40Z</time></trkpt>
			<trkpt lat="54.642150" lon="20.515100"><ele>16.2</ele><time>2026-06-05T03:43:44Z</time></trkpt>
			<trkpt lat="54.642510" lon="20.516150"><ele>16.1</ele><time>2026-06-05T03:43:48Z</time></trkpt>
			<trkpt lat="54.642670" lon="20.516660"><ele>16.0</ele><time>2026-06-05T03:43:53Z</time></trkpt>
			<trkpt lat="54.643140" lon="20.518270"><ele>16.0</ele><time>2026-06-05T03:43:57Z</time></trkpt>
			<trkpt lat="54.643420" lon="20.519290"><ele>16.1</ele><time>2026-06-05T03:44:02Z</time></trkpt>
			<trkpt lat="54.643700" lon="20.520490"><ele>16.1</ele><time>2026-06-05T03:44:06Z</time></trkpt>
			<trkpt lat="54.643850" lon="20.521190"><ele>16.1</ele><time>2026-06-05T03:44:11Z</time></trkpt>
			<trkpt lat="54.643970" lon="20.521820"><ele>16.1</ele><time>2026-06-05T03:44:15Z</time></trkpt>
			<trkpt lat="54.644080" lon="20.522510"><ele>16.1</ele><time>2026-06-05T03:44:20Z</time></trkpt>
			<trkpt lat="54.644310" lon="20.523930"><ele>16.1</ele><time>2026-06-05T03:44:24Z</time></trkpt>
			<trkpt lat="54.644460" lon="20.525080"><ele>16.2</ele><time>2026-06-05T03:44:29Z</time></trkpt>
			<trkpt lat="54.644640" lon="20.527220"><ele>16.2</ele><time>2026-06-05T03:44:33Z</time></trkpt>
			<trkpt lat="54.644740" lon="20.528990"><ele>16.2</ele><time>2026-06-05T03:44:38Z</time></trkpt>
			<trkpt lat="54.644830" lon="20.530780"><ele>16.3</ele><time>2026-06-05T03:44:42Z</time></trkpt>
			<trkpt lat="54.644860" lon="20.531260"><ele>16.3</ele><time>2026-06-05T03:44:47Z</time></trkpt>
			<trkpt lat="54.644890" lon="20.531870"><ele>16.3</ele><time>2026-06-05T03:44:51Z</time></trkpt>
			<trkpt lat="54.644960" lon="20.532800"><ele>16.3</ele><time>2026-06-05T03:44:56Z</time></trkpt>
			<trkpt lat="54.645040" lon="20.533930"><ele>16.3</ele><time>2026-06-05T03:45:00Z</time></trkpt>
			<trkpt lat="54.645360" lon="20.538190"><ele>16.4</ele><time>2026-06-05T03:45:04Z</time></trkpt>
			<trkpt lat="54.645400" lon="20.538740"><ele>16.5</ele><time>2026-06-05T03:45:09Z</time></trkpt>
			<trkpt lat="54.645700" lon="20.543070"><ele>16.6</ele><time>2026-06-05T03:45:13Z</time></trkpt>
			<trkpt lat="54.645760" lon="20.543970"><ele>16.6</ele><time>2026-06-05T03:45:18Z</time></trkpt>
			<trkpt lat="54.645800" lon="20.544520"><ele>16.6</ele><time>2026-06-05T03:45:22Z</time></trkpt>
			<trkpt lat="54.645820" lon="20.544970"><ele>16.6</ele><time>2026-06-05T03:45:27Z</time></trkpt>
			<trkpt lat="54.646030" lon="20.544900"><ele>16.6</ele><time>2026-06-05T03:45:31Z</time></trkpt>
			<trkpt lat="54.646410" lon="20.544800"><ele>16.6</ele><time>2026-06-05T03:45:36Z</time></trkpt>
			<trkpt lat="54.646520" lon="20.544760"><ele>16.6</ele><time>2026-06-05T03:45:40Z</time></trkpt>
			<trkpt lat="54.646650" lon="20.544720"><ele>16.6</ele><time>2026-06-05T03:45:45Z</time></trkpt>
			<trkpt lat="54.646750" lon="20.544680"><ele>16.6</ele><time>2026-06-05T03:45:49Z</time></trkpt>
			<trkpt lat="54.646840" lon="20.544650"><ele>16.6</ele><time>2026-06-05T03:45:54Z</time></trkpt>
			<trkpt lat="54.647340" lon="20.544530"><ele>16.6</ele><time>2026-06-05T03:45:58Z</time></trkpt>
			<trkpt lat="54.647480" lon="20.544500"><ele>16.6</ele><time>2026-06-05T03:46:03Z</time></trkpt>
			<trkpt lat="54.647690" lon="20.544450"><ele>16.6</ele><time>2026-06-05T03:46:07Z</time></trkpt>
			<trkpt lat="54.649640" lon="20.543950"><ele>16.4</ele><time>2026-06-05T03:46:11Z</time></trkpt>
			<trkpt lat="54.649800" lon="20.543910"><ele>16.4</ele><time>2026-06-05T03:46:16Z</time></trkpt>
			<trkpt lat="54.650000" lon="20.543860"><ele>16.4</ele><time>2026-06-05T03:46:20Z</time></trkpt>
			<trkpt lat="54.650810" lon="20.543650"><ele>16.3</ele><time>2026-06-05T03:46:25Z</time></trkpt>
			<trkpt lat="54.650990" lon="20.543610"><ele>16.3</ele><time>2026-06-05T03:46:29Z</time></trkpt>
			<trkpt lat="54.651250" lon="20.543520"><ele>16.2</ele><time>2026-06-05T03:46:34Z</time></trkpt>
			<trkpt lat="54.651350" lon="20.543500"><ele>16.2</ele><time>2026-06-05T03:46:38Z</time></trkpt>
			<trkpt lat="54.652780" lon="20.543140"><ele>16.1</ele><time>2026-06-05T03:46:43Z</time></trkpt>
			<trkpt lat="54.653600" lon="20.542930"><ele>16.0</ele><time>2026-06-05T03:46:47Z</time></trkpt>
			<trkpt lat="54.653600" lon="20.542930"><ele>16.0</ele><time>2026-06-05T03:46:50Z</time></trkpt>
			<trkpt lat="54.653620" lon="20.542920"><ele>16.0</ele><time>2026-06-05T03:46:53Z</time></trkpt>
			<trkpt lat="54.653810" lon="20.542870"><ele>16.0</ele><time>2026-06-05T03:46:56Z</time></trkpt>
			<trkpt lat="54.654150" lon="20.542800"><ele>16.0</ele><time>2026-06-05T03:46:58Z</time></trkpt>
			<trkpt lat="54.654390" lon="20.542740"><ele>15.9</ele><time>2026-06-05T03:47:01Z</time></trkpt>
			<trkpt lat="54.655470" lon="20.542470"><ele>15.8</ele><time>2026-06-05T03:47:04Z</time></trkpt>
			<trkpt lat="54.656280" lon="20.542270"><ele>15.7</ele><time>2026-06-05T03:47:07Z</time></trkpt>
			<trkpt lat="54.656420" lon="20.542240"><ele>15.7</ele><time>2026-06-05T03:47:10Z</time></trkpt>
			<trkpt lat="54.656700" lon="20.542160"><ele>15.7</ele><time>2026-06-05T03:47:12Z</time></trkpt>
			<trkpt lat="54.657410" lon="20.541960"><ele>15.6</ele><time>2026-06-05T03:47:15Z</time></trkpt>
			<trkpt lat="54.657570" lon="20.541930"><ele>15.6</ele><time>2026-06-05T03:47:18Z</time></trkpt>
			<trkpt lat="54.657810" lon="20.541870"><ele>15.6</ele><time>2026-06-05T03:47:21Z</time></trkpt>
			<trkpt lat="54.663140" lon="20.540560"><ele>15.1</ele><time>2026-06-05T03:47:23Z</time></trkpt>
			<trkpt lat="54.663280" lon="20.540510"><ele>15.1</ele><time>2026-06-05T03:47:26Z</time></trkpt>
			<trkpt lat="54.663690" lon="20.540530"><ele>15.0</ele><time>2026-06-05T03:47:29Z</time></trkpt>
			<trkpt lat="54.663930" lon="20.540610"><ele>15.0</ele><time>2026-06-05T03:47:32Z</time></trkpt>
			<trkpt lat="54.664190" lon="20.540740"><ele>15.0</ele><time>2026-06-05T03:47:35Z</time></trkpt>
			<trkpt lat="54.664290" lon="20.540800"><ele>15.0</ele><time>2026-06-05T03:47:37Z</time></trkpt>
			<trkpt lat="54.664410" lon="20.540900"><ele>15.0</ele><time>2026-06-05T03:47:40Z</time></trkpt>
			<trkpt lat="54.664490" lon="20.540960"><ele>14.9</ele><time>2026-06-05T03:47:43Z</time></trkpt>
			<trkpt lat="54.664990" lon="20.541340"><ele>14.8</ele><time>2026-06-05T03:47:46Z</time></trkpt>
			<trkpt lat="54.665360" lon="20.541620"><ele>14.7</ele><time>2026-06-05T03:47:48Z</time></trkpt>
			<trkpt lat="54.665680" lon="20.541910"><ele>14.6</ele><time>2026-06-05T03:47:51Z</time></trkpt>
			<trkpt lat="54.665760" lon="20.541980"><ele>14.5</ele><time>2026-06-05T03:47:54Z</time></trkpt>
			<trkpt lat="54.666070" lon="20.542290"><ele>14.4</ele><time>2026-06-05T03:47:57Z</time></trkpt>
			<trkpt lat="54.666240" lon="20.542440"><ele>14.3</ele><time>2026-06-05T03:48:00Z</time></trkpt>
			<trkpt lat="54.667070" lon="20.543190"><ele>14.0</ele><time>2026-06-05T03:48:02Z</time></trkpt>
			<trkpt lat="54.667570" lon="20.543660"><ele>13.8</ele><time>2026-06-05T03:48:05Z</time></trkpt>
			<trkpt lat="54.667700" lon="20.543790"><ele>13.8</ele><time>2026-06-05T03:48:08Z</time></trkpt>
			<trkpt lat="54.668010" lon="20.544050"><ele>13.7</ele><time>2026-06-05T03:48:11Z</time></trkpt>
			<trkpt lat="54.668140" lon="20.544170"><ele>13.6</ele><time>2026-06-05T03:48:14Z</time></trkpt>
			<trkpt lat="54.668490" lon="20.544520"><ele>13.5</ele><time>2026-06-05T03:48:16Z</time></trkpt>
			<trkpt lat="54.668890" lon="20.544910"><ele>13.3</ele><time>2026-06-05T03:48:19Z</time></trkpt>
			<trkpt lat="54.669010" lon="20.545010"><ele>13.3</ele><time>2026-06-05T03:48:22Z</time></trkpt>
			<trkpt lat="54.669330" lon="20.545290"><ele>13.2</ele><time>2026-06-05T03:48:25Z</time></trkpt>
			<trkpt lat="54.669460" lon="20.545400"><ele>13.1</ele><time>2026-06-05T03:48:27Z</time></trkpt>
			<trkpt lat="54.669680" lon="20.545540"><ele>13.0</ele><time>2026-06-05T03:48:30Z</time></trkpt>
			<trkpt lat="54.669850" lon="20.545640"><ele>13.0</ele><time>2026-06-05T03:48:33Z</time></trkpt>
			<trkpt lat="54.669960" lon="20.545670"><ele>12.9</ele><time>2026-06-05T03:48:36Z</time></trkpt>
			<trkpt lat="54.670240" lon="20.545720"><ele>12.8</ele><time>2026-06-05T03:48:39Z</time></trkpt>
			<trkpt lat="54.670400" lon="20.545740"><ele>12.8</ele><time>2026-06-05T03:48:41Z</time></trkpt>
			<trkpt lat="54.670640" lon="20.545710"><ele>12.7</ele><time>2026-06-05T03:48:44Z</time></trkpt>
			<trkpt lat="54.670900" lon="20.545640"><ele>12.6</ele><time>2026-06-05T03:48:47Z</time></trkpt>
			<trkpt lat="54.671000" lon="20.545600"><ele>12.6</ele><time>2026-06-05T03:48:50Z</time></trkpt>
			<trkpt lat="54.671260" lon="20.545450"><ele>12.5</ele><time>2026-06-05T03:48:53Z</time></trkpt>
			<trkpt lat="54.671390" lon="20.545340"><ele>12.4</ele><time>2026-06-05T03:48:55Z</time></trkpt>
			<trkpt lat="54.672090" lon="20.544650"><ele>12.2</ele><time>2026-06-05T03:48:58Z</time></trkpt>
			<trkpt lat="54.672150" lon="20.544600"><ele>12.1</ele><time>2026-06-05T03:49:01Z</time></trkpt>
			<trkpt lat="54.672670" lon="20.544050"><ele>11.9</ele><time>2026-06-05T03:49:04Z</time></trkpt>
			<trkpt lat="54.672730" lon="20.543990"><ele>11.9</ele><time>2026-06-05T03:49:06Z</time></trkpt>
			<trkpt lat="54.672970" lon="20.543770"><ele>11.8</ele><time>2026-06-05T03:49:09Z</time></trkpt>
			<trkpt lat="54.673560" lon="20.543150"><ele>11.5</ele><time>2026-06-05T03:49:12Z</time></trkpt>
			<trkpt lat="54.673870" lon="20.542840"><ele>11.4</ele><time>2026-06-05T03:49:15Z</time></trkpt>
			<trkpt lat="54.673960" lon="20.542760"><ele>11.4</ele><time>2026-06-05T03:49:18Z</time></trkpt>
			<trkpt lat="54.674160" lon="20.542570"><ele>11.3</ele><time>2026-06-05T03:49:20Z</time></trkpt>
			<trkpt lat="54.674210" lon="20.542530"><ele>11.2</ele><time>2026-06-05T03:49:23Z</time></trkpt>
			<trkpt lat="54.675220" lon="20.541550"><ele>10.8</ele><time>2026-06-05T03:49:26Z</time></trkpt>
			<trkpt lat="54.675370" lon="20.541400"><ele>10.7</ele><time>2026-06-05T03:49:29Z</time></trkpt>
			<trkpt lat="54.675800" lon="20.540970"><ele>10.5</ele><time>2026-06-05T03:49:32Z</time></trkpt>
			<trkpt lat="54.675940" lon="20.540820"><ele>10.5</ele><time>2026-06-05T03:49:34Z</time></trkpt>
			<trkpt lat="54.676500" lon="20.540250"><ele>10.2</ele><time>2026-06-05T03:49:37Z</time></trkpt>
			<trkpt lat="54.676600" lon="20.540150"><ele>10.2</ele><time>2026-06-05T03:49:40Z</time></trkpt>
			<trkpt lat="54.676920" lon="20.539870"><ele>10.0</ele><time>2026-06-05T03:49:43Z</time></trkpt>
			<trkpt lat="54.677020" lon="20.539790"><ele>10.0</ele><time>2026-06-05T03:49:45Z</time></trkpt>
			<trkpt lat="54.677130" lon="20.539700"><ele>9.9</ele><time>2026-06-05T03:49:48Z</time></trkpt>
			<trkpt lat="54.677760" lon="20.539130"><ele>9.6</ele><time>2026-06-05T03:49:51Z</time></trkpt>
			<trkpt lat="54.681200" lon="20.535740"><ele>7.8</ele><time>2026-06-05T03:49:54Z</time></trkpt>
			<trkpt lat="54.681320" lon="20.535630"><ele>7.7</ele><time>2026-06-05T03:49:57Z</time></trkpt>
			<trkpt lat="54.681360" lon="20.535590"><ele>7.7</ele><time>2026-06-05T03:49:59Z</time></trkpt>
			<trkpt lat="54.681570" lon="20.535380"><ele>7.5</ele><time>2026-06-05T03:50:02Z</time></trkpt>
			<trkpt lat="54.681650" lon="20.535320"><ele>7.4</ele><time>2026-06-05T03:50:05Z</time></trkpt>
			<trkpt lat="54.681940" lon="20.535000"><ele>7.1</ele><time>2026-06-05T03:50:08Z</time></trkpt>
			<trkpt lat="54.682020" lon="20.534920"><ele>7.0</ele><time>2026-06-05T03:50:11Z</time></trkpt>
			<trkpt lat="54.682270" lon="20.534640"><ele>6.8</ele><time>2026-06-05T03:50:13Z</time></trkpt>
			<trkpt lat="54.683060" lon="20.534180"><ele>6.1</ele><time>2026-06-05T03:50:16Z</time></trkpt>
			<trkpt lat="54.683280" lon="20.534110"><ele>5.9</ele><time>2026-06-05T03:50:19Z</time></trkpt>
			<trkpt lat="54.683460" lon="20.534050"><ele>5.8</ele><time>2026-06-05T03:50:22Z</time></trkpt>
			<trkpt lat="54.683910" lon="20.533910"><ele>5.4</ele><time>2026-06-05T03:50:24Z</time></trkpt>
			<trkpt lat="54.684460" lon="20.533700"><ele>5.0</ele><time>2026-06-05T03:50:27Z</time></trkpt>
			<trkpt lat="54.684940" lon="20.533530"><ele>4.6</ele><time>2026-06-05T03:50:30Z</time></trkpt>
			<trkpt lat="54.685050" lon="20.533480"><ele>4.5</ele><time>2026-06-05T03:50:33Z</time></trkpt>
			<trkpt lat="54.685300" lon="20.533410"><ele>4.3</ele><time>2026-06-05T03:50:36Z</time></trkpt>
			<trkpt lat="54.686380" lon="20.533080"><ele>3.4</ele><time>2026-06-05T03:50:38Z</time></trkpt>
			<trkpt lat="54.686450" lon="20.533060"><ele>3.3</ele><time>2026-06-05T03:50:41Z</time></trkpt>
			<trkpt lat="54.686610" lon="20.533020"><ele>3.2</ele><time>2026-06-05T03:50:44Z</time></trkpt>
			<trkpt lat="54.686960" lon="20.532910"><ele>2.9</ele><time>2026-06-05T03:50:47Z</time></trkpt>
			<trkpt lat="54.687080" lon="20.532870"><ele>2.8</ele><time>2026-06-05T03:50:50Z</time></trkpt>
			<trkpt lat="54.687220" lon="20.532820"><ele>2.7</ele><time>2026-06-05T03:50:52Z</time></trkpt>
			<trkpt lat="54.687540" lon="20.532720"><ele>2.4</ele><time>2026-06-05T03:50:55Z</time></trkpt>
			<trkpt lat="54.688150" lon="20.532530"><ele>1.9</ele><time>2026-06-05T03:50:58Z</time></trkpt>
			<trkpt lat="54.688260" lon="20.532470"><ele>1.8</ele><time>2026-06-05T03:51:01Z</time></trkpt>
			<trkpt lat="54.688410" lon="20.532400"><ele>1.7</ele><time>2026-06-05T03:51:03Z</time></trkpt>
			<trkpt lat="54.688460" lon="20.532380"><ele>1.6</ele><time>2026-06-05T03:51:06Z</time></trkpt>
			<trkpt lat="54.688630" lon="20.532300"><ele>1.5</ele><time>2026-06-05T03:51:09Z</time></trkpt>
			<trkpt lat="54.688710" lon="20.532250"><ele>1.4</ele><time>2026-06-05T03:51:12Z</time></trkpt>
			<trkpt lat="54.688870" lon="20.532150"><ele>1.3</ele><time>2026-06-05T03:51:15Z</time></trkpt>
			<trkpt lat="54.689050" lon="20.532050"><ele>1.1</ele><time>2026-06-05T03:51:17Z</time></trkpt>
			<trkpt lat="54.689130" lon="20.531980"><ele>1.1</ele><time>2026-06-05T03:51:20Z</time></trkpt>
			<trkpt lat="54.689250" lon="20.531880"><ele>1.0</ele><time>2026-06-05T03:51:23Z</time></trkpt>
			<trkpt lat="54.689370" lon="20.531790"><ele>1.0</ele><time>2026-06-05T03:51:26Z</time></trkpt>
			<trkpt lat="54.689630" lon="20.531580"><ele>0.9</ele><time>2026-06-05T03:51:28Z</time></trkpt>
			<trkpt lat="54.689940" lon="20.531250"><ele>0.9</ele><time>2026-06-05T03:51:31Z</time></trkpt>
			<trkpt lat="54.690110" lon="20.531090"><ele>0.9</ele><time>2026-06-05T03:51:34Z</time></trkpt>
			<trkpt lat="54.690230" lon="20.530960"><ele>0.9</ele><time>2026-06-05T03:51:37Z</time></trkpt>
			<trkpt lat="54.690400" lon="20.530770"><ele>0.8</ele><time>2026-06-05T03:51:40Z</time></trkpt>
			<trkpt lat="54.690530" lon="20.530620"><ele>0.8</ele><time>2026-06-05T03:51:42Z</time></trkpt>
			<trkpt lat="54.690800" lon="20.530250"><ele>0.8</ele><time>2026-06-05T03:51:45Z</time></trkpt>
			<trkpt lat="54.690880" lon="20.530150"><ele>0.8</ele><time>2026-06-05T03:51:48Z</time></trkpt>
			<trkpt lat="54.691110" lon="20.529840"><ele>0.8</ele><time>2026-06-05T03:51:51Z</time></trkpt>
			<trkpt lat="54.691820" lon="20.528650"><ele>0.7</ele><time>2026-06-05T03:51:54Z</time></trkpt>
			<trkpt lat="54.691860" lon="20.528580"><ele>0.7</ele><time>2026-06-05T03:51:56Z</time></trkpt>
			<trkpt lat="54.692300" lon="20.527840"><ele>0.6</ele><time>2026-06-05T03:51:59Z</time></trkpt>
			<trkpt lat="54.692430" lon="20.527640"><ele>0.6</ele><time>2026-06-05T03:52:02Z</time></trkpt>
			<trkpt lat="54.692660" lon="20.527260"><ele>0.6</ele><time>2026-06-05T03:52:05Z</time></trkpt>
			<trkpt lat="54.692730" lon="20.527150"><ele>0.5</ele><time>2026-06-05T03:52:07Z</time></trkpt>
			<trkpt lat="54.693010" lon="20.526630"><ele>0.5</ele><time>2026-06-05T03:52:10Z</time></trkpt>
			<trkpt lat="54.693070" lon="20.526540"><ele>0.5</ele><time>2026-06-05T03:52:13Z</time></trkpt>
			<trkpt lat="54.693120" lon="20.526450"><ele>0.5</ele><time>2026-06-05T03:52:16Z</time></trkpt>
			<trkpt lat="54.693630" lon="20.525590"><ele>0.4</ele><time>2026-06-05T03:52:19Z</time></trkpt>
			<trkpt lat="54.693690" lon="20.525490"><ele>0.4</ele><time>2026-06-05T03:52:21Z</time></trkpt>
			<trkpt lat="54.693900" lon="20.525140"><ele>0.4</ele><time>2026-06-05T03:52:24Z</time></trkpt>
			<trkpt lat="54.694050" lon="20.524880"><ele>0.4</ele><time>2026-06-05T03:52:27Z</time></trkpt>
			<trkpt lat="54.694130" lon="20.524720"><ele>0.4</ele><time>2026-06-05T03:52:30Z</time></trkpt>
			<trkpt lat="54.694420" lon="20.524220"><ele>0.3</ele><time>2026-06-05T03:52:33Z</time></trkpt>
			<trkpt lat="54.694580" lon="20.523930"><ele>0.3</ele><time>2026-06-05T03:52:35Z</time></trkpt>
			<trkpt lat="54.695750" lon="20.521990"><ele>0.1</ele><time>2026-06-05T03:52:38Z</time></trkpt>
			<trkpt lat="54.695800" lon="20.521890"><ele>0.1</ele><time>2026-06-05T03:52:41Z</time></trkpt>
			<trkpt lat="54.695920" lon="20.521670"><ele>0.1</ele><time>2026-06-05T03:52:44Z</time></trkpt>
			<trkpt lat="54.696140" lon="20.521310"><ele>0.2</ele><time>2026-06-05T03:52:46Z</time></trkpt>
			<trkpt lat="54.696250" lon="20.521130"><ele>0.2</ele><time>2026-06-05T03:52:49Z</time></trkpt>
			<trkpt lat="54.696310" lon="20.521010"><ele>0.2</ele><time>2026-06-05T03:52:52Z</time></trkpt>
			<trkpt lat="54.697550" lon="20.518760"><ele>0.5</ele><time>2026-06-05T03:52:55Z</time></trkpt>
			<trkpt lat="54.697740" lon="20.518390"><ele>0.5</ele><time>2026-06-05T03:52:58Z</time></trkpt>
			<trkpt lat="54.697850" lon="20.518180"><ele>0.5</ele><time>2026-06-05T03:53:00Z</time></trkpt>
			<trkpt lat="54.698060" lon="20.517770"><ele>0.6</ele><time>2026-06-05T03:53:03Z</time></trkpt>
			<trkpt lat="54.698280" lon="20.517360"><ele>0.6</ele><time>2026-06-05T03:53:06Z</time></trkpt>
			<trkpt lat="54.698340" lon="20.517270"><ele>0.6</ele><time>2026-06-05T03:53:09Z</time></trkpt>
			<trkpt lat="54.698400" lon="20.517210"><ele>0.7</ele><time>2026-06-05T03:53:12Z</time></trkpt>
			<trkpt lat="54.698470" lon="20.517140"><ele>0.7</ele><time>2026-06-05T03:53:14Z</time></trkpt>
			<trkpt lat="54.698600" lon="20.516950"><ele>0.7</ele><time>2026-06-05T03:53:17Z</time></trkpt>
			<trkpt lat="54.698870" lon="20.516620"><ele>0.7</ele><time>2026-06-05T03:53:20Z</time></trkpt>
			<trkpt lat="54.699030" lon="20.516370"><ele>0.8</ele><time>2026-06-05T03:53:23Z</time></trkpt>
			<trkpt lat="54.699180" lon="20.516050"><ele>0.8</ele><time>2026-06-05T03:53:25Z</time></trkpt>
			<trkpt lat="54.699340" lon="20.515590"><ele>0.9</ele><time>2026-06-05T03:53:28Z</time></trkpt>
			<trkpt lat="54.699440" lon="20.515230"><ele>0.9</ele><time>2026-06-05T03:53:31Z</time></trkpt>
			<trkpt lat="54.699510" lon="20.514890"><ele>0.9</ele><time>2026-06-05T03:53:34Z</time></trkpt>
			<trkpt lat="54.699630" lon="20.514170"><ele>1.0</ele><time>2026-06-05T03:53:37Z</time></trkpt>
			<trkpt lat="54.699650" lon="20.513870"><ele>1.0</ele><time>2026-06-05T03:53:39Z</time></trkpt>
			<trkpt lat="54.699720" lon="20.513870"><ele>1.0</ele><time>2026-06-05T03:53:42Z</time></trkpt>
			<trkpt lat="54.699760" lon="20.513860"><ele>1.0</ele><time>2026-06-05T03:53:45Z</time></trkpt>
			<trkpt lat="54.700150" lon="20.513840"><ele>1.1</ele><time>2026-06-05T03:53:48Z</time></trkpt>
			<trkpt lat="54.700250" lon="20.513810"><ele>1.1</ele><time>2026-06-05T03:53:51Z</time></trkpt>
			<trkpt lat="54.700320" lon="20.513760"><ele>1.1</ele><time>2026-06-05T03:53:53Z</time></trkpt>
			<trkpt lat="54.700490" lon="20.513590"><ele>1.1</ele><time>2026-06-05T03:53:56Z</time></trkpt>
			<trkpt lat="54.700970" lon="20.513160"><ele>1.2</ele><time>2026-06-05T03:53:59Z</time></trkpt>
			<trkpt lat="54.701050" lon="20.513130"><ele>1.2</ele><time>2026-06-05T03:54:02Z</time></trkpt>
			<trkpt lat="54.701550" lon="20.513250"><ele>1.3</ele><time>2026-06-05T03:54:04Z</time></trkpt>
			<trkpt lat="54.702220" lon="20.513440"><ele>1.4</ele><time>2026-06-05T03:54:07Z</time></trkpt>
			<trkpt lat="54.702380" lon="20.513480"><ele>1.4</ele><time>2026-06-05T03:54:10Z</time></trkpt>
			<trkpt lat="54.702380" lon="20.513480"><ele>1.4</ele><time>2026-06-05T03:54:12Z</time></trkpt>
			<trkpt lat="54.702560" lon="20.513540"><ele>1.5</ele><time>2026-06-05T03:54:14Z</time></trkpt>
		</trkseg>
	</trk>
</gpx>